<?xml version="1.0" encoding="UTF-8" standalone="no" ?>
<gpx xmlns="http://www.topografix.com/GPX/1/1" xmlns:xsi="http://www.w3.org/2001/XMLSchema-instance" xsi:schemaLocation="http://www.topografix.com/GPX/1/1 http://www.topografix.com/GPX/1/1/gpx.xsd" version="1.1" creator="VisuGPX - https://www.visugpx.com">
  <metadata>
    <name>Vallée de la Vézère</name>
    <desc><![CDATA[Vallée de la Vézère]]></desc>
  </metadata>
  <trk>
    <name><![CDATA[Vallée de la Vézère]]></name>
    <trkseg>
      <trkpt lat="45.02122" lon="1.14369">
        <ele>101</ele>
        <time>2014-08-18T07:56:47Z</time>
      </trkpt>
      <trkpt lat="45.02122" lon="1.14369">
        <ele>102</ele>
        <time>2014-08-18T07:56:49Z</time>
      </trkpt>
      <trkpt lat="45.02123" lon="1.14369">
        <ele>101</ele>
        <time>2014-08-18T07:56:52Z</time>
      </trkpt>
      <trkpt lat="45.02122" lon="1.14369">
        <ele>101</ele>
        <time>2014-08-18T07:56:54Z</time>
      </trkpt>
      <trkpt lat="45.0212" lon="1.14371">
        <ele>102</ele>
        <time>2014-08-18T07:56:57Z</time>
      </trkpt>
      <trkpt lat="45.02116" lon="1.14372">
        <ele>102</ele>
        <time>2014-08-18T07:56:59Z</time>
      </trkpt>
      <trkpt lat="45.02111" lon="1.14373">
        <ele>102</ele>
        <time>2014-08-18T07:57:01Z</time>
      </trkpt>
      <trkpt lat="45.02105" lon="1.14371">
        <ele>103</ele>
        <time>2014-08-18T07:57:03Z</time>
      </trkpt>
      <trkpt lat="45.02097" lon="1.14368">
        <ele>104</ele>
        <time>2014-08-18T07:57:05Z</time>
      </trkpt>
      <trkpt lat="45.02089" lon="1.14365">
        <ele>105</ele>
        <time>2014-08-18T07:57:07Z</time>
      </trkpt>
      <trkpt lat="45.02078" lon="1.14363">
        <ele>106</ele>
        <time>2014-08-18T07:57:10Z</time>
      </trkpt>
      <trkpt lat="45.0207" lon="1.14362">
        <ele>106</ele>
        <time>2014-08-18T07:57:12Z</time>
      </trkpt>
      <trkpt lat="45.02062" lon="1.14362">
        <ele>107</ele>
        <time>2014-08-18T07:57:15Z</time>
      </trkpt>
      <trkpt lat="45.02057" lon="1.14363">
        <ele>107</ele>
        <time>2014-08-18T07:57:17Z</time>
      </trkpt>
      <trkpt lat="45.02051" lon="1.14365">
        <ele>108</ele>
        <time>2014-08-18T07:57:20Z</time>
      </trkpt>
      <trkpt lat="45.02047" lon="1.14366">
        <ele>108</ele>
        <time>2014-08-18T07:57:22Z</time>
      </trkpt>
      <trkpt lat="45.02046" lon="1.14366">
        <ele>108</ele>
        <time>2014-08-18T07:57:24Z</time>
      </trkpt>
      <trkpt lat="45.02045" lon="1.14366">
        <ele>108</ele>
        <time>2014-08-18T07:57:26Z</time>
      </trkpt>
      <trkpt lat="45.02043" lon="1.14366">
        <ele>109</ele>
        <time>2014-08-18T07:57:29Z</time>
      </trkpt>
      <trkpt lat="45.02042" lon="1.14366">
        <ele>109</ele>
        <time>2014-08-18T07:57:31Z</time>
      </trkpt>
      <trkpt lat="45.02042" lon="1.14367">
        <ele>109</ele>
        <time>2014-08-18T07:57:34Z</time>
      </trkpt>
      <trkpt lat="45.02042" lon="1.14368">
        <ele>109</ele>
        <time>2014-08-18T07:57:36Z</time>
      </trkpt>
      <trkpt lat="45.02042" lon="1.1437">
        <ele>109</ele>
        <time>2014-08-18T07:57:38Z</time>
      </trkpt>
      <trkpt lat="45.02041" lon="1.14371">
        <ele>108</ele>
        <time>2014-08-18T07:57:40Z</time>
      </trkpt>
      <trkpt lat="45.02041" lon="1.14372">
        <ele>108</ele>
        <time>2014-08-18T07:57:42Z</time>
      </trkpt>
      <trkpt lat="45.0204" lon="1.14373">
        <ele>108</ele>
        <time>2014-08-18T07:57:45Z</time>
      </trkpt>
      <trkpt lat="45.0204" lon="1.14374">
        <ele>109</ele>
        <time>2014-08-18T07:57:47Z</time>
      </trkpt>
      <trkpt lat="45.0204" lon="1.14375">
        <ele>109</ele>
        <time>2014-08-18T07:57:49Z</time>
      </trkpt>
      <trkpt lat="45.02039" lon="1.14375">
        <ele>108</ele>
        <time>2014-08-18T07:57:52Z</time>
      </trkpt>
      <trkpt lat="45.02038" lon="1.14375">
        <ele>108</ele>
        <time>2014-08-18T07:57:54Z</time>
      </trkpt>
      <trkpt lat="45.02036" lon="1.14374">
        <ele>108</ele>
        <time>2014-08-18T07:57:57Z</time>
      </trkpt>
      <trkpt lat="45.02034" lon="1.14374">
        <ele>108</ele>
        <time>2014-08-18T07:57:59Z</time>
      </trkpt>
      <trkpt lat="45.02032" lon="1.14374">
        <ele>108</ele>
        <time>2014-08-18T07:58:01Z</time>
      </trkpt>
      <trkpt lat="45.02028" lon="1.14374">
        <ele>109</ele>
        <time>2014-08-18T07:58:04Z</time>
      </trkpt>
      <trkpt lat="45.02026" lon="1.14374">
        <ele>109</ele>
        <time>2014-08-18T07:58:06Z</time>
      </trkpt>
      <trkpt lat="45.02023" lon="1.14376">
        <ele>109</ele>
        <time>2014-08-18T07:58:09Z</time>
      </trkpt>
      <trkpt lat="45.02021" lon="1.14378">
        <ele>109</ele>
        <time>2014-08-18T07:58:11Z</time>
      </trkpt>
      <trkpt lat="45.02016" lon="1.14379">
        <ele>109</ele>
        <time>2014-08-18T07:58:14Z</time>
      </trkpt>
      <trkpt lat="45.02012" lon="1.14381">
        <ele>108</ele>
        <time>2014-08-18T07:58:16Z</time>
      </trkpt>
      <trkpt lat="45.02003" lon="1.14389">
        <ele>108</ele>
        <time>2014-08-18T07:58:19Z</time>
      </trkpt>
      <trkpt lat="45.01995" lon="1.14396">
        <ele>108</ele>
        <time>2014-08-18T07:58:21Z</time>
      </trkpt>
      <trkpt lat="45.01983" lon="1.14407">
        <ele>107</ele>
        <time>2014-08-18T07:58:24Z</time>
      </trkpt>
      <trkpt lat="45.01979" lon="1.14415">
        <ele>106</ele>
        <time>2014-08-18T07:58:26Z</time>
      </trkpt>
      <trkpt lat="45.01972" lon="1.14426">
        <ele>104</ele>
        <time>2014-08-18T07:58:29Z</time>
      </trkpt>
      <trkpt lat="45.01963" lon="1.14438">
        <ele>101</ele>
        <time>2014-08-18T07:58:32Z</time>
      </trkpt>
      <trkpt lat="45.01958" lon="1.14447">
        <ele>99</ele>
        <time>2014-08-18T07:58:34Z</time>
      </trkpt>
      <trkpt lat="45.01951" lon="1.1445">
        <ele>96</ele>
        <time>2014-08-18T07:58:37Z</time>
      </trkpt>
      <trkpt lat="45.0195" lon="1.1444">
        <ele>94</ele>
        <time>2014-08-18T07:58:40Z</time>
      </trkpt>
      <trkpt lat="45.01951" lon="1.14429">
        <ele>92</ele>
        <time>2014-08-18T07:58:43Z</time>
      </trkpt>
      <trkpt lat="45.01942" lon="1.14412">
        <ele>88</ele>
        <time>2014-08-18T07:58:46Z</time>
      </trkpt>
      <trkpt lat="45.01939" lon="1.14392">
        <ele>84</ele>
        <time>2014-08-18T07:58:49Z</time>
      </trkpt>
      <trkpt lat="45.01935" lon="1.14378">
        <ele>80</ele>
        <time>2014-08-18T07:58:52Z</time>
      </trkpt>
      <trkpt lat="45.01931" lon="1.14371">
        <ele>78</ele>
        <time>2014-08-18T07:58:55Z</time>
      </trkpt>
      <trkpt lat="45.01925" lon="1.14367">
        <ele>75</ele>
        <time>2014-08-18T07:58:58Z</time>
      </trkpt>
      <trkpt lat="45.0192" lon="1.14356">
        <ele>73</ele>
        <time>2014-08-18T07:59:01Z</time>
      </trkpt>
      <trkpt lat="45.01918" lon="1.14337">
        <ele>71</ele>
        <time>2014-08-18T07:59:04Z</time>
      </trkpt>
      <trkpt lat="45.0191" lon="1.14327">
        <ele>68</ele>
        <time>2014-08-18T07:59:07Z</time>
      </trkpt>
      <trkpt lat="45.01904" lon="1.14309">
        <ele>66</ele>
        <time>2014-08-18T07:59:10Z</time>
      </trkpt>
      <trkpt lat="45.01903" lon="1.14291">
        <ele>65</ele>
        <time>2014-08-18T07:59:12Z</time>
      </trkpt>
      <trkpt lat="45.01905" lon="1.1426">
        <ele>64</ele>
        <time>2014-08-18T07:59:15Z</time>
      </trkpt>
      <trkpt lat="45.019" lon="1.1423">
        <ele>64</ele>
        <time>2014-08-18T07:59:18Z</time>
      </trkpt>
      <trkpt lat="45.01894" lon="1.14208">
        <ele>65</ele>
        <time>2014-08-18T07:59:20Z</time>
      </trkpt>
      <trkpt lat="45.01887" lon="1.14186">
        <ele>65</ele>
        <time>2014-08-18T07:59:22Z</time>
      </trkpt>
      <trkpt lat="45.01874" lon="1.14149">
        <ele>65</ele>
        <time>2014-08-18T07:59:25Z</time>
      </trkpt>
      <trkpt lat="45.01864" lon="1.14123">
        <ele>65</ele>
        <time>2014-08-18T07:59:27Z</time>
      </trkpt>
      <trkpt lat="45.01855" lon="1.14098">
        <ele>64</ele>
        <time>2014-08-18T07:59:29Z</time>
      </trkpt>
      <trkpt lat="45.01843" lon="1.14058">
        <ele>63</ele>
        <time>2014-08-18T07:59:32Z</time>
      </trkpt>
      <trkpt lat="45.01839" lon="1.1403">
        <ele>62</ele>
        <time>2014-08-18T07:59:34Z</time>
      </trkpt>
      <trkpt lat="45.01837" lon="1.13987">
        <ele>61</ele>
        <time>2014-08-18T07:59:37Z</time>
      </trkpt>
      <trkpt lat="45.01837" lon="1.1396">
        <ele>61</ele>
        <time>2014-08-18T07:59:39Z</time>
      </trkpt>
      <trkpt lat="45.01838" lon="1.13922">
        <ele>60</ele>
        <time>2014-08-18T07:59:42Z</time>
      </trkpt>
      <trkpt lat="45.01839" lon="1.13885">
        <ele>60</ele>
        <time>2014-08-18T07:59:45Z</time>
      </trkpt>
      <trkpt lat="45.01842" lon="1.1385">
        <ele>59</ele>
        <time>2014-08-18T07:59:48Z</time>
      </trkpt>
      <trkpt lat="45.01847" lon="1.13818">
        <ele>59</ele>
        <time>2014-08-18T07:59:51Z</time>
      </trkpt>
      <trkpt lat="45.01854" lon="1.13789">
        <ele>58</ele>
        <time>2014-08-18T07:59:54Z</time>
      </trkpt>
      <trkpt lat="45.01861" lon="1.1376">
        <ele>58</ele>
        <time>2014-08-18T07:59:57Z</time>
      </trkpt>
      <trkpt lat="45.01867" lon="1.13741">
        <ele>58</ele>
        <time>2014-08-18T07:59:59Z</time>
      </trkpt>
      <trkpt lat="45.01878" lon="1.1371">
        <ele>58</ele>
        <time>2014-08-18T08:00:02Z</time>
      </trkpt>
      <trkpt lat="45.01885" lon="1.13688">
        <ele>58</ele>
        <time>2014-08-18T08:00:04Z</time>
      </trkpt>
      <trkpt lat="45.01896" lon="1.13653">
        <ele>57</ele>
        <time>2014-08-18T08:00:07Z</time>
      </trkpt>
      <trkpt lat="45.01903" lon="1.13629">
        <ele>57</ele>
        <time>2014-08-18T08:00:09Z</time>
      </trkpt>
      <trkpt lat="45.01913" lon="1.13594">
        <ele>56</ele>
        <time>2014-08-18T08:00:12Z</time>
      </trkpt>
      <trkpt lat="45.01922" lon="1.13573">
        <ele>55</ele>
        <time>2014-08-18T08:00:14Z</time>
      </trkpt>
      <trkpt lat="45.01934" lon="1.1354">
        <ele>55</ele>
        <time>2014-08-18T08:00:17Z</time>
      </trkpt>
      <trkpt lat="45.01947" lon="1.13506">
        <ele>55</ele>
        <time>2014-08-18T08:00:20Z</time>
      </trkpt>
      <trkpt lat="45.01955" lon="1.13484">
        <ele>54</ele>
        <time>2014-08-18T08:00:22Z</time>
      </trkpt>
      <trkpt lat="45.01963" lon="1.13461">
        <ele>54</ele>
        <time>2014-08-18T08:00:24Z</time>
      </trkpt>
      <trkpt lat="45.01973" lon="1.13427">
        <ele>53</ele>
        <time>2014-08-18T08:00:27Z</time>
      </trkpt>
      <trkpt lat="45.0198" lon="1.13405">
        <ele>52</ele>
        <time>2014-08-18T08:00:29Z</time>
      </trkpt>
      <trkpt lat="45.01988" lon="1.13382">
        <ele>52</ele>
        <time>2014-08-18T08:00:31Z</time>
      </trkpt>
      <trkpt lat="45.02002" lon="1.13348">
        <ele>50</ele>
        <time>2014-08-18T08:00:34Z</time>
      </trkpt>
      <trkpt lat="45.02012" lon="1.13327">
        <ele>50</ele>
        <time>2014-08-18T08:00:36Z</time>
      </trkpt>
      <trkpt lat="45.02028" lon="1.13298">
        <ele>50</ele>
        <time>2014-08-18T08:00:39Z</time>
      </trkpt>
      <trkpt lat="45.0204" lon="1.1328">
        <ele>49</ele>
        <time>2014-08-18T08:00:41Z</time>
      </trkpt>
      <trkpt lat="45.02053" lon="1.13262">
        <ele>49</ele>
        <time>2014-08-18T08:00:43Z</time>
      </trkpt>
      <trkpt lat="45.02072" lon="1.13237">
        <ele>49</ele>
        <time>2014-08-18T08:00:46Z</time>
      </trkpt>
      <trkpt lat="45.02084" lon="1.1322">
        <ele>48</ele>
        <time>2014-08-18T08:00:48Z</time>
      </trkpt>
      <trkpt lat="45.02102" lon="1.13195">
        <ele>48</ele>
        <time>2014-08-18T08:00:51Z</time>
      </trkpt>
      <trkpt lat="45.0212" lon="1.1317">
        <ele>48</ele>
        <time>2014-08-18T08:00:54Z</time>
      </trkpt>
      <trkpt lat="45.02137" lon="1.13145">
        <ele>47</ele>
        <time>2014-08-18T08:00:57Z</time>
      </trkpt>
      <trkpt lat="45.02149" lon="1.13129">
        <ele>47</ele>
        <time>2014-08-18T08:00:59Z</time>
      </trkpt>
      <trkpt lat="45.02161" lon="1.13114">
        <ele>46</ele>
        <time>2014-08-18T08:01:01Z</time>
      </trkpt>
      <trkpt lat="45.02178" lon="1.13092">
        <ele>45</ele>
        <time>2014-08-18T08:01:04Z</time>
      </trkpt>
      <trkpt lat="45.02188" lon="1.13077">
        <ele>45</ele>
        <time>2014-08-18T08:01:06Z</time>
      </trkpt>
      <trkpt lat="45.02197" lon="1.13063">
        <ele>45</ele>
        <time>2014-08-18T08:01:09Z</time>
      </trkpt>
      <trkpt lat="45.02196" lon="1.13054">
        <ele>44</ele>
        <time>2014-08-18T08:01:12Z</time>
      </trkpt>
      <trkpt lat="45.02189" lon="1.13051">
        <ele>43</ele>
        <time>2014-08-18T08:01:14Z</time>
      </trkpt>
      <trkpt lat="45.02173" lon="1.1305">
        <ele>43</ele>
        <time>2014-08-18T08:01:17Z</time>
      </trkpt>
      <trkpt lat="45.02153" lon="1.13044">
        <ele>44</ele>
        <time>2014-08-18T08:01:20Z</time>
      </trkpt>
      <trkpt lat="45.02133" lon="1.13028">
        <ele>45</ele>
        <time>2014-08-18T08:01:23Z</time>
      </trkpt>
      <trkpt lat="45.02118" lon="1.13004">
        <ele>45</ele>
        <time>2014-08-18T08:01:26Z</time>
      </trkpt>
      <trkpt lat="45.02108" lon="1.12975">
        <ele>45</ele>
        <time>2014-08-18T08:01:29Z</time>
      </trkpt>
      <trkpt lat="45.02106" lon="1.12954">
        <ele>46</ele>
        <time>2014-08-18T08:01:31Z</time>
      </trkpt>
      <trkpt lat="45.02109" lon="1.12933">
        <ele>46</ele>
        <time>2014-08-18T08:01:33Z</time>
      </trkpt>
      <trkpt lat="45.02118" lon="1.12906">
        <ele>47</ele>
        <time>2014-08-18T08:01:36Z</time>
      </trkpt>
      <trkpt lat="45.02128" lon="1.12884">
        <ele>48</ele>
        <time>2014-08-18T08:01:39Z</time>
      </trkpt>
      <trkpt lat="45.02139" lon="1.12867">
        <ele>49</ele>
        <time>2014-08-18T08:01:42Z</time>
      </trkpt>
      <trkpt lat="45.02147" lon="1.12858">
        <ele>49</ele>
        <time>2014-08-18T08:01:44Z</time>
      </trkpt>
      <trkpt lat="45.02158" lon="1.12844">
        <ele>50</ele>
        <time>2014-08-18T08:01:47Z</time>
      </trkpt>
      <trkpt lat="45.02166" lon="1.12829">
        <ele>51</ele>
        <time>2014-08-18T08:01:50Z</time>
      </trkpt>
      <trkpt lat="45.02171" lon="1.1282">
        <ele>51</ele>
        <time>2014-08-18T08:01:52Z</time>
      </trkpt>
      <trkpt lat="45.02177" lon="1.12803">
        <ele>52</ele>
        <time>2014-08-18T08:01:55Z</time>
      </trkpt>
      <trkpt lat="45.02179" lon="1.12791">
        <ele>53</ele>
        <time>2014-08-18T08:01:57Z</time>
      </trkpt>
      <trkpt lat="45.02179" lon="1.1277">
        <ele>54</ele>
        <time>2014-08-18T08:02:00Z</time>
      </trkpt>
      <trkpt lat="45.02175" lon="1.1275">
        <ele>55</ele>
        <time>2014-08-18T08:02:03Z</time>
      </trkpt>
      <trkpt lat="45.02172" lon="1.12736">
        <ele>55</ele>
        <time>2014-08-18T08:02:05Z</time>
      </trkpt>
      <trkpt lat="45.02169" lon="1.12722">
        <ele>56</ele>
        <time>2014-08-18T08:02:07Z</time>
      </trkpt>
      <trkpt lat="45.02163" lon="1.127">
        <ele>56</ele>
        <time>2014-08-18T08:02:10Z</time>
      </trkpt>
      <trkpt lat="45.02159" lon="1.12676">
        <ele>57</ele>
        <time>2014-08-18T08:02:13Z</time>
      </trkpt>
      <trkpt lat="45.02156" lon="1.1266">
        <ele>57</ele>
        <time>2014-08-18T08:02:15Z</time>
      </trkpt>
      <trkpt lat="45.02153" lon="1.12644">
        <ele>57</ele>
        <time>2014-08-18T08:02:17Z</time>
      </trkpt>
      <trkpt lat="45.0215" lon="1.12626">
        <ele>58</ele>
        <time>2014-08-18T08:02:19Z</time>
      </trkpt>
      <trkpt lat="45.0215" lon="1.12607">
        <ele>58</ele>
        <time>2014-08-18T08:02:21Z</time>
      </trkpt>
      <trkpt lat="45.02148" lon="1.12575">
        <ele>57</ele>
        <time>2014-08-18T08:02:24Z</time>
      </trkpt>
      <trkpt lat="45.02147" lon="1.1254">
        <ele>57</ele>
        <time>2014-08-18T08:02:27Z</time>
      </trkpt>
      <trkpt lat="45.02145" lon="1.12504">
        <ele>56</ele>
        <time>2014-08-18T08:02:30Z</time>
      </trkpt>
      <trkpt lat="45.02143" lon="1.12479">
        <ele>56</ele>
        <time>2014-08-18T08:02:32Z</time>
      </trkpt>
      <trkpt lat="45.0214" lon="1.12452">
        <ele>55</ele>
        <time>2014-08-18T08:02:34Z</time>
      </trkpt>
      <trkpt lat="45.02131" lon="1.12413">
        <ele>54</ele>
        <time>2014-08-18T08:02:37Z</time>
      </trkpt>
      <trkpt lat="45.02114" lon="1.12373">
        <ele>53</ele>
        <time>2014-08-18T08:02:40Z</time>
      </trkpt>
      <trkpt lat="45.02104" lon="1.12342">
        <ele>51</ele>
        <time>2014-08-18T08:02:42Z</time>
      </trkpt>
      <trkpt lat="45.02099" lon="1.12309">
        <ele>50</ele>
        <time>2014-08-18T08:02:44Z</time>
      </trkpt>
      <trkpt lat="45.02093" lon="1.12262">
        <ele>49</ele>
        <time>2014-08-18T08:02:47Z</time>
      </trkpt>
      <trkpt lat="45.0209" lon="1.12233">
        <ele>48</ele>
        <time>2014-08-18T08:02:49Z</time>
      </trkpt>
      <trkpt lat="45.02087" lon="1.12207">
        <ele>48</ele>
        <time>2014-08-18T08:02:51Z</time>
      </trkpt>
      <trkpt lat="45.02083" lon="1.12182">
        <ele>48</ele>
        <time>2014-08-18T08:02:53Z</time>
      </trkpt>
      <trkpt lat="45.02077" lon="1.12159">
        <ele>48</ele>
        <time>2014-08-18T08:02:55Z</time>
      </trkpt>
      <trkpt lat="45.02071" lon="1.12137">
        <ele>48</ele>
        <time>2014-08-18T08:02:57Z</time>
      </trkpt>
      <trkpt lat="45.02064" lon="1.12115">
        <ele>48</ele>
        <time>2014-08-18T08:02:59Z</time>
      </trkpt>
      <trkpt lat="45.02054" lon="1.12082">
        <ele>48</ele>
        <time>2014-08-18T08:03:02Z</time>
      </trkpt>
      <trkpt lat="45.02044" lon="1.1205">
        <ele>47</ele>
        <time>2014-08-18T08:03:05Z</time>
      </trkpt>
      <trkpt lat="45.02034" lon="1.12019">
        <ele>47</ele>
        <time>2014-08-18T08:03:08Z</time>
      </trkpt>
      <trkpt lat="45.02022" lon="1.11987">
        <ele>47</ele>
        <time>2014-08-18T08:03:11Z</time>
      </trkpt>
      <trkpt lat="45.02015" lon="1.11965">
        <ele>46</ele>
        <time>2014-08-18T08:03:13Z</time>
      </trkpt>
      <trkpt lat="45.02002" lon="1.11933">
        <ele>45</ele>
        <time>2014-08-18T08:03:16Z</time>
      </trkpt>
      <trkpt lat="45.01994" lon="1.11912">
        <ele>45</ele>
        <time>2014-08-18T08:03:18Z</time>
      </trkpt>
      <trkpt lat="45.01987" lon="1.11891">
        <ele>44</ele>
        <time>2014-08-18T08:03:20Z</time>
      </trkpt>
      <trkpt lat="45.01991" lon="1.11871">
        <ele>43</ele>
        <time>2014-08-18T08:03:22Z</time>
      </trkpt>
      <trkpt lat="45.02004" lon="1.11861">
        <ele>43</ele>
        <time>2014-08-18T08:03:24Z</time>
      </trkpt>
      <trkpt lat="45.02026" lon="1.11849">
        <ele>44</ele>
        <time>2014-08-18T08:03:27Z</time>
      </trkpt>
      <trkpt lat="45.02049" lon="1.11836">
        <ele>44</ele>
        <time>2014-08-18T08:03:30Z</time>
      </trkpt>
      <trkpt lat="45.0207" lon="1.11824">
        <ele>44</ele>
        <time>2014-08-18T08:03:33Z</time>
      </trkpt>
      <trkpt lat="45.0209" lon="1.11812">
        <ele>44</ele>
        <time>2014-08-18T08:03:36Z</time>
      </trkpt>
      <trkpt lat="45.02113" lon="1.11802">
        <ele>43</ele>
        <time>2014-08-18T08:03:39Z</time>
      </trkpt>
      <trkpt lat="45.02137" lon="1.1179">
        <ele>42</ele>
        <time>2014-08-18T08:03:42Z</time>
      </trkpt>
      <trkpt lat="45.02163" lon="1.11778">
        <ele>42</ele>
        <time>2014-08-18T08:03:45Z</time>
      </trkpt>
      <trkpt lat="45.02187" lon="1.11769">
        <ele>41</ele>
        <time>2014-08-18T08:03:48Z</time>
      </trkpt>
      <trkpt lat="45.02208" lon="1.1176">
        <ele>40</ele>
        <time>2014-08-18T08:03:51Z</time>
      </trkpt>
      <trkpt lat="45.02228" lon="1.11753">
        <ele>39</ele>
        <time>2014-08-18T08:03:54Z</time>
      </trkpt>
      <trkpt lat="45.0224" lon="1.11748">
        <ele>39</ele>
        <time>2014-08-18T08:03:56Z</time>
      </trkpt>
      <trkpt lat="45.02254" lon="1.11746">
        <ele>38</ele>
        <time>2014-08-18T08:03:59Z</time>
      </trkpt>
      <trkpt lat="45.02263" lon="1.11741">
        <ele>38</ele>
        <time>2014-08-18T08:04:01Z</time>
      </trkpt>
      <trkpt lat="45.02274" lon="1.11735">
        <ele>38</ele>
        <time>2014-08-18T08:04:03Z</time>
      </trkpt>
      <trkpt lat="45.02293" lon="1.11728">
        <ele>39</ele>
        <time>2014-08-18T08:04:06Z</time>
      </trkpt>
      <trkpt lat="45.02307" lon="1.11724">
        <ele>39</ele>
        <time>2014-08-18T08:04:08Z</time>
      </trkpt>
      <trkpt lat="45.0232" lon="1.1172">
        <ele>39</ele>
        <time>2014-08-18T08:04:10Z</time>
      </trkpt>
      <trkpt lat="45.02341" lon="1.11712">
        <ele>39</ele>
        <time>2014-08-18T08:04:13Z</time>
      </trkpt>
      <trkpt lat="45.02362" lon="1.11706">
        <ele>39</ele>
        <time>2014-08-18T08:04:16Z</time>
      </trkpt>
      <trkpt lat="45.02385" lon="1.11697">
        <ele>40</ele>
        <time>2014-08-18T08:04:19Z</time>
      </trkpt>
      <trkpt lat="45.02406" lon="1.11688">
        <ele>40</ele>
        <time>2014-08-18T08:04:22Z</time>
      </trkpt>
      <trkpt lat="45.02419" lon="1.11682">
        <ele>40</ele>
        <time>2014-08-18T08:04:24Z</time>
      </trkpt>
      <trkpt lat="45.0244" lon="1.11675">
        <ele>40</ele>
        <time>2014-08-18T08:04:27Z</time>
      </trkpt>
      <trkpt lat="45.02452" lon="1.11671">
        <ele>41</ele>
        <time>2014-08-18T08:04:29Z</time>
      </trkpt>
      <trkpt lat="45.02464" lon="1.11665">
        <ele>41</ele>
        <time>2014-08-18T08:04:31Z</time>
      </trkpt>
      <trkpt lat="45.0248" lon="1.11655">
        <ele>42</ele>
        <time>2014-08-18T08:04:34Z</time>
      </trkpt>
      <trkpt lat="45.0249" lon="1.11645">
        <ele>42</ele>
        <time>2014-08-18T08:04:36Z</time>
      </trkpt>
      <trkpt lat="45.02499" lon="1.11634">
        <ele>42</ele>
        <time>2014-08-18T08:04:38Z</time>
      </trkpt>
      <trkpt lat="45.02512" lon="1.11616">
        <ele>43</ele>
        <time>2014-08-18T08:04:41Z</time>
      </trkpt>
      <trkpt lat="45.02522" lon="1.11603">
        <ele>43</ele>
        <time>2014-08-18T08:04:43Z</time>
      </trkpt>
      <trkpt lat="45.02531" lon="1.1159">
        <ele>43</ele>
        <time>2014-08-18T08:04:45Z</time>
      </trkpt>
      <trkpt lat="45.02545" lon="1.11571">
        <ele>44</ele>
        <time>2014-08-18T08:04:48Z</time>
      </trkpt>
      <trkpt lat="45.02558" lon="1.11552">
        <ele>44</ele>
        <time>2014-08-18T08:04:51Z</time>
      </trkpt>
      <trkpt lat="45.02568" lon="1.1154">
        <ele>44</ele>
        <time>2014-08-18T08:04:53Z</time>
      </trkpt>
      <trkpt lat="45.02581" lon="1.11521">
        <ele>44</ele>
        <time>2014-08-18T08:04:56Z</time>
      </trkpt>
      <trkpt lat="45.02595" lon="1.11503">
        <ele>44</ele>
        <time>2014-08-18T08:04:59Z</time>
      </trkpt>
      <trkpt lat="45.02602" lon="1.11494">
        <ele>44</ele>
        <time>2014-08-18T08:05:01Z</time>
      </trkpt>
      <trkpt lat="45.02607" lon="1.11487">
        <ele>44</ele>
        <time>2014-08-18T08:05:03Z</time>
      </trkpt>
      <trkpt lat="45.02613" lon="1.11478">
        <ele>44</ele>
        <time>2014-08-18T08:05:06Z</time>
      </trkpt>
      <trkpt lat="45.02617" lon="1.11472">
        <ele>44</ele>
        <time>2014-08-18T08:05:08Z</time>
      </trkpt>
      <trkpt lat="45.02626" lon="1.11461">
        <ele>44</ele>
        <time>2014-08-18T08:05:11Z</time>
      </trkpt>
      <trkpt lat="45.02632" lon="1.11453">
        <ele>44</ele>
        <time>2014-08-18T08:05:13Z</time>
      </trkpt>
      <trkpt lat="45.02639" lon="1.11444">
        <ele>45</ele>
        <time>2014-08-18T08:05:15Z</time>
      </trkpt>
      <trkpt lat="45.02651" lon="1.11428">
        <ele>45</ele>
        <time>2014-08-18T08:05:18Z</time>
      </trkpt>
      <trkpt lat="45.0266" lon="1.11415">
        <ele>45</ele>
        <time>2014-08-18T08:05:20Z</time>
      </trkpt>
      <trkpt lat="45.02671" lon="1.11402">
        <ele>45</ele>
        <time>2014-08-18T08:05:22Z</time>
      </trkpt>
      <trkpt lat="45.02689" lon="1.11381">
        <ele>45</ele>
        <time>2014-08-18T08:05:25Z</time>
      </trkpt>
      <trkpt lat="45.02708" lon="1.11363">
        <ele>45</ele>
        <time>2014-08-18T08:05:28Z</time>
      </trkpt>
      <trkpt lat="45.02726" lon="1.11346">
        <ele>46</ele>
        <time>2014-08-18T08:05:31Z</time>
      </trkpt>
      <trkpt lat="45.02739" lon="1.11335">
        <ele>46</ele>
        <time>2014-08-18T08:05:33Z</time>
      </trkpt>
      <trkpt lat="45.0275" lon="1.11324">
        <ele>46</ele>
        <time>2014-08-18T08:05:35Z</time>
      </trkpt>
      <trkpt lat="45.02768" lon="1.11309">
        <ele>46</ele>
        <time>2014-08-18T08:05:38Z</time>
      </trkpt>
      <trkpt lat="45.02781" lon="1.11299">
        <ele>46</ele>
        <time>2014-08-18T08:05:40Z</time>
      </trkpt>
      <trkpt lat="45.02794" lon="1.11288">
        <ele>46</ele>
        <time>2014-08-18T08:05:42Z</time>
      </trkpt>
      <trkpt lat="45.02813" lon="1.11272">
        <ele>47</ele>
        <time>2014-08-18T08:05:45Z</time>
      </trkpt>
      <trkpt lat="45.02831" lon="1.11256">
        <ele>46</ele>
        <time>2014-08-18T08:05:48Z</time>
      </trkpt>
      <trkpt lat="45.0285" lon="1.11239">
        <ele>47</ele>
        <time>2014-08-18T08:05:51Z</time>
      </trkpt>
      <trkpt lat="45.02868" lon="1.11223">
        <ele>46</ele>
        <time>2014-08-18T08:05:54Z</time>
      </trkpt>
      <trkpt lat="45.02885" lon="1.11205">
        <ele>46</ele>
        <time>2014-08-18T08:05:57Z</time>
      </trkpt>
      <trkpt lat="45.02903" lon="1.11186">
        <ele>46</ele>
        <time>2014-08-18T08:06:00Z</time>
      </trkpt>
      <trkpt lat="45.02914" lon="1.11173">
        <ele>46</ele>
        <time>2014-08-18T08:06:02Z</time>
      </trkpt>
      <trkpt lat="45.0293" lon="1.11153">
        <ele>46</ele>
        <time>2014-08-18T08:06:05Z</time>
      </trkpt>
      <trkpt lat="45.02945" lon="1.11135">
        <ele>47</ele>
        <time>2014-08-18T08:06:08Z</time>
      </trkpt>
      <trkpt lat="45.02959" lon="1.11117">
        <ele>47</ele>
        <time>2014-08-18T08:06:11Z</time>
      </trkpt>
      <trkpt lat="45.02967" lon="1.11106">
        <ele>47</ele>
        <time>2014-08-18T08:06:13Z</time>
      </trkpt>
      <trkpt lat="45.02975" lon="1.11095">
        <ele>46</ele>
        <time>2014-08-18T08:06:15Z</time>
      </trkpt>
      <trkpt lat="45.02982" lon="1.11087">
        <ele>46</ele>
        <time>2014-08-18T08:06:17Z</time>
      </trkpt>
      <trkpt lat="45.02985" lon="1.11078">
        <ele>46</ele>
        <time>2014-08-18T08:06:20Z</time>
      </trkpt>
      <trkpt lat="45.02985" lon="1.11072">
        <ele>46</ele>
        <time>2014-08-18T08:06:23Z</time>
      </trkpt>
      <trkpt lat="45.0298" lon="1.11064">
        <ele>46</ele>
        <time>2014-08-18T08:06:26Z</time>
      </trkpt>
      <trkpt lat="45.02975" lon="1.11055">
        <ele>45</ele>
        <time>2014-08-18T08:06:28Z</time>
      </trkpt>
      <trkpt lat="45.02969" lon="1.11045">
        <ele>45</ele>
        <time>2014-08-18T08:06:30Z</time>
      </trkpt>
      <trkpt lat="45.02957" lon="1.11023">
        <ele>45</ele>
        <time>2014-08-18T08:06:33Z</time>
      </trkpt>
      <trkpt lat="45.02947" lon="1.11006">
        <ele>45</ele>
        <time>2014-08-18T08:06:35Z</time>
      </trkpt>
      <trkpt lat="45.02932" lon="1.10978">
        <ele>45</ele>
        <time>2014-08-18T08:06:38Z</time>
      </trkpt>
      <trkpt lat="45.02922" lon="1.10959">
        <ele>45</ele>
        <time>2014-08-18T08:06:40Z</time>
      </trkpt>
      <trkpt lat="45.02912" lon="1.10929">
        <ele>44</ele>
        <time>2014-08-18T08:06:43Z</time>
      </trkpt>
      <trkpt lat="45.02903" lon="1.10904">
        <ele>44</ele>
        <time>2014-08-18T08:06:46Z</time>
      </trkpt>
      <trkpt lat="45.02895" lon="1.10879">
        <ele>45</ele>
        <time>2014-08-18T08:06:49Z</time>
      </trkpt>
      <trkpt lat="45.02889" lon="1.10865">
        <ele>45</ele>
        <time>2014-08-18T08:06:51Z</time>
      </trkpt>
      <trkpt lat="45.02885" lon="1.10853">
        <ele>46</ele>
        <time>2014-08-18T08:06:53Z</time>
      </trkpt>
      <trkpt lat="45.0288" lon="1.10834">
        <ele>47</ele>
        <time>2014-08-18T08:06:56Z</time>
      </trkpt>
      <trkpt lat="45.02877" lon="1.10819">
        <ele>47</ele>
        <time>2014-08-18T08:06:59Z</time>
      </trkpt>
      <trkpt lat="45.02883" lon="1.10807">
        <ele>48</ele>
        <time>2014-08-18T08:07:02Z</time>
      </trkpt>
      <trkpt lat="45.0289" lon="1.108">
        <ele>48</ele>
        <time>2014-08-18T08:07:04Z</time>
      </trkpt>
      <trkpt lat="45.02901" lon="1.10788">
        <ele>48</ele>
        <time>2014-08-18T08:07:07Z</time>
      </trkpt>
      <trkpt lat="45.02913" lon="1.10775">
        <ele>49</ele>
        <time>2014-08-18T08:07:10Z</time>
      </trkpt>
      <trkpt lat="45.0292" lon="1.10767">
        <ele>49</ele>
        <time>2014-08-18T08:07:12Z</time>
      </trkpt>
      <trkpt lat="45.02928" lon="1.10757">
        <ele>49</ele>
        <time>2014-08-18T08:07:15Z</time>
      </trkpt>
      <trkpt lat="45.02934" lon="1.10747">
        <ele>50</ele>
        <time>2014-08-18T08:07:18Z</time>
      </trkpt>
      <trkpt lat="45.02937" lon="1.10741">
        <ele>50</ele>
        <time>2014-08-18T08:07:20Z</time>
      </trkpt>
      <trkpt lat="45.0294" lon="1.10735">
        <ele>51</ele>
        <time>2014-08-18T08:07:22Z</time>
      </trkpt>
      <trkpt lat="45.02941" lon="1.10729">
        <ele>52</ele>
        <time>2014-08-18T08:07:24Z</time>
      </trkpt>
      <trkpt lat="45.02941" lon="1.10721">
        <ele>53</ele>
        <time>2014-08-18T08:07:27Z</time>
      </trkpt>
      <trkpt lat="45.02942" lon="1.10712">
        <ele>55</ele>
        <time>2014-08-18T08:07:30Z</time>
      </trkpt>
      <trkpt lat="45.02942" lon="1.10703">
        <ele>57</ele>
        <time>2014-08-18T08:07:33Z</time>
      </trkpt>
      <trkpt lat="45.02943" lon="1.10695">
        <ele>59</ele>
        <time>2014-08-18T08:07:36Z</time>
      </trkpt>
      <trkpt lat="45.02944" lon="1.10689">
        <ele>60</ele>
        <time>2014-08-18T08:07:38Z</time>
      </trkpt>
      <trkpt lat="45.02946" lon="1.10682">
        <ele>61</ele>
        <time>2014-08-18T08:07:41Z</time>
      </trkpt>
      <trkpt lat="45.02947" lon="1.10677">
        <ele>62</ele>
        <time>2014-08-18T08:07:43Z</time>
      </trkpt>
      <trkpt lat="45.02948" lon="1.10671">
        <ele>63</ele>
        <time>2014-08-18T08:07:46Z</time>
      </trkpt>
      <trkpt lat="45.0295" lon="1.10666">
        <ele>64</ele>
        <time>2014-08-18T08:07:48Z</time>
      </trkpt>
      <trkpt lat="45.02952" lon="1.10659">
        <ele>64</ele>
        <time>2014-08-18T08:07:51Z</time>
      </trkpt>
      <trkpt lat="45.02955" lon="1.10651">
        <ele>65</ele>
        <time>2014-08-18T08:07:54Z</time>
      </trkpt>
      <trkpt lat="45.02956" lon="1.10645">
        <ele>66</ele>
        <time>2014-08-18T08:07:56Z</time>
      </trkpt>
      <trkpt lat="45.02957" lon="1.10637">
        <ele>66</ele>
        <time>2014-08-18T08:07:59Z</time>
      </trkpt>
      <trkpt lat="45.02959" lon="1.10628">
        <ele>67</ele>
        <time>2014-08-18T08:08:02Z</time>
      </trkpt>
      <trkpt lat="45.02959" lon="1.10623">
        <ele>68</ele>
        <time>2014-08-18T08:08:04Z</time>
      </trkpt>
      <trkpt lat="45.0296" lon="1.10616">
        <ele>68</ele>
        <time>2014-08-18T08:08:07Z</time>
      </trkpt>
      <trkpt lat="45.02961" lon="1.1061">
        <ele>69</ele>
        <time>2014-08-18T08:08:09Z</time>
      </trkpt>
      <trkpt lat="45.02962" lon="1.10602">
        <ele>70</ele>
        <time>2014-08-18T08:08:12Z</time>
      </trkpt>
      <trkpt lat="45.02963" lon="1.10593">
        <ele>71</ele>
        <time>2014-08-18T08:08:15Z</time>
      </trkpt>
      <trkpt lat="45.02965" lon="1.10585">
        <ele>72</ele>
        <time>2014-08-18T08:08:18Z</time>
      </trkpt>
      <trkpt lat="45.02966" lon="1.10579">
        <ele>72</ele>
        <time>2014-08-18T08:08:20Z</time>
      </trkpt>
      <trkpt lat="45.02967" lon="1.10569">
        <ele>73</ele>
        <time>2014-08-18T08:08:23Z</time>
      </trkpt>
      <trkpt lat="45.02967" lon="1.10563">
        <ele>73</ele>
        <time>2014-08-18T08:08:25Z</time>
      </trkpt>
      <trkpt lat="45.02969" lon="1.10556">
        <ele>74</ele>
        <time>2014-08-18T08:08:27Z</time>
      </trkpt>
      <trkpt lat="45.02971" lon="1.10546">
        <ele>75</ele>
        <time>2014-08-18T08:08:30Z</time>
      </trkpt>
      <trkpt lat="45.02972" lon="1.10537">
        <ele>76</ele>
        <time>2014-08-18T08:08:33Z</time>
      </trkpt>
      <trkpt lat="45.02972" lon="1.10529">
        <ele>76</ele>
        <time>2014-08-18T08:08:35Z</time>
      </trkpt>
      <trkpt lat="45.02973" lon="1.1052">
        <ele>77</ele>
        <time>2014-08-18T08:08:38Z</time>
      </trkpt>
      <trkpt lat="45.02973" lon="1.10513">
        <ele>77</ele>
        <time>2014-08-18T08:08:40Z</time>
      </trkpt>
      <trkpt lat="45.02973" lon="1.10506">
        <ele>77</ele>
        <time>2014-08-18T08:08:42Z</time>
      </trkpt>
      <trkpt lat="45.02973" lon="1.10494">
        <ele>78</ele>
        <time>2014-08-18T08:08:45Z</time>
      </trkpt>
      <trkpt lat="45.02972" lon="1.10484">
        <ele>79</ele>
        <time>2014-08-18T08:08:48Z</time>
      </trkpt>
      <trkpt lat="45.0297" lon="1.10477">
        <ele>79</ele>
        <time>2014-08-18T08:08:50Z</time>
      </trkpt>
      <trkpt lat="45.0297" lon="1.10466">
        <ele>80</ele>
        <time>2014-08-18T08:08:53Z</time>
      </trkpt>
      <trkpt lat="45.02968" lon="1.10456">
        <ele>81</ele>
        <time>2014-08-18T08:08:56Z</time>
      </trkpt>
      <trkpt lat="45.02967" lon="1.1045">
        <ele>82</ele>
        <time>2014-08-18T08:08:58Z</time>
      </trkpt>
      <trkpt lat="45.02967" lon="1.10441">
        <ele>84</ele>
        <time>2014-08-18T08:09:01Z</time>
      </trkpt>
      <trkpt lat="45.02969" lon="1.10433">
        <ele>85</ele>
        <time>2014-08-18T08:09:04Z</time>
      </trkpt>
      <trkpt lat="45.02971" lon="1.10426">
        <ele>86</ele>
        <time>2014-08-18T08:09:07Z</time>
      </trkpt>
      <trkpt lat="45.02972" lon="1.10421">
        <ele>87</ele>
        <time>2014-08-18T08:09:09Z</time>
      </trkpt>
      <trkpt lat="45.02972" lon="1.10416">
        <ele>88</ele>
        <time>2014-08-18T08:09:11Z</time>
      </trkpt>
      <trkpt lat="45.02974" lon="1.10411">
        <ele>89</ele>
        <time>2014-08-18T08:09:13Z</time>
      </trkpt>
      <trkpt lat="45.02975" lon="1.10406">
        <ele>90</ele>
        <time>2014-08-18T08:09:15Z</time>
      </trkpt>
      <trkpt lat="45.02976" lon="1.10399">
        <ele>90</ele>
        <time>2014-08-18T08:09:18Z</time>
      </trkpt>
      <trkpt lat="45.02977" lon="1.10396">
        <ele>91</ele>
        <time>2014-08-18T08:09:20Z</time>
      </trkpt>
      <trkpt lat="45.02978" lon="1.10392">
        <ele>92</ele>
        <time>2014-08-18T08:09:22Z</time>
      </trkpt>
      <trkpt lat="45.02979" lon="1.1039">
        <ele>93</ele>
        <time>2014-08-18T08:09:24Z</time>
      </trkpt>
      <trkpt lat="45.02979" lon="1.10386">
        <ele>93</ele>
        <time>2014-08-18T08:09:26Z</time>
      </trkpt>
      <trkpt lat="45.0298" lon="1.10381">
        <ele>94</ele>
        <time>2014-08-18T08:09:29Z</time>
      </trkpt>
      <trkpt lat="45.02981" lon="1.10377">
        <ele>95</ele>
        <time>2014-08-18T08:09:31Z</time>
      </trkpt>
      <trkpt lat="45.02982" lon="1.1037">
        <ele>95</ele>
        <time>2014-08-18T08:09:34Z</time>
      </trkpt>
      <trkpt lat="45.02982" lon="1.10366">
        <ele>96</ele>
        <time>2014-08-18T08:09:36Z</time>
      </trkpt>
      <trkpt lat="45.02984" lon="1.1036">
        <ele>97</ele>
        <time>2014-08-18T08:09:39Z</time>
      </trkpt>
      <trkpt lat="45.02985" lon="1.10356">
        <ele>98</ele>
        <time>2014-08-18T08:09:41Z</time>
      </trkpt>
      <trkpt lat="45.02986" lon="1.1035">
        <ele>99</ele>
        <time>2014-08-18T08:09:44Z</time>
      </trkpt>
      <trkpt lat="45.02987" lon="1.10345">
        <ele>100</ele>
        <time>2014-08-18T08:09:46Z</time>
      </trkpt>
      <trkpt lat="45.02987" lon="1.10338">
        <ele>100</ele>
        <time>2014-08-18T08:09:49Z</time>
      </trkpt>
      <trkpt lat="45.02988" lon="1.10334">
        <ele>101</ele>
        <time>2014-08-18T08:09:51Z</time>
      </trkpt>
      <trkpt lat="45.02988" lon="1.10331">
        <ele>102</ele>
        <time>2014-08-18T08:09:53Z</time>
      </trkpt>
      <trkpt lat="45.02989" lon="1.10325">
        <ele>103</ele>
        <time>2014-08-18T08:09:56Z</time>
      </trkpt>
      <trkpt lat="45.0299" lon="1.10321">
        <ele>104</ele>
        <time>2014-08-18T08:09:58Z</time>
      </trkpt>
      <trkpt lat="45.0299" lon="1.10318">
        <ele>104</ele>
        <time>2014-08-18T08:10:00Z</time>
      </trkpt>
      <trkpt lat="45.02991" lon="1.10312">
        <ele>105</ele>
        <time>2014-08-18T08:10:03Z</time>
      </trkpt>
      <trkpt lat="45.02991" lon="1.10307">
        <ele>105</ele>
        <time>2014-08-18T08:10:06Z</time>
      </trkpt>
      <trkpt lat="45.02991" lon="1.10302">
        <ele>106</ele>
        <time>2014-08-18T08:10:09Z</time>
      </trkpt>
      <trkpt lat="45.0299" lon="1.10296">
        <ele>107</ele>
        <time>2014-08-18T08:10:12Z</time>
      </trkpt>
      <trkpt lat="45.02991" lon="1.10292">
        <ele>108</ele>
        <time>2014-08-18T08:10:14Z</time>
      </trkpt>
      <trkpt lat="45.02991" lon="1.10286">
        <ele>108</ele>
        <time>2014-08-18T08:10:17Z</time>
      </trkpt>
      <trkpt lat="45.02991" lon="1.10282">
        <ele>109</ele>
        <time>2014-08-18T08:10:19Z</time>
      </trkpt>
      <trkpt lat="45.0299" lon="1.10276">
        <ele>110</ele>
        <time>2014-08-18T08:10:22Z</time>
      </trkpt>
      <trkpt lat="45.0299" lon="1.10271">
        <ele>110</ele>
        <time>2014-08-18T08:10:24Z</time>
      </trkpt>
      <trkpt lat="45.0299" lon="1.10266">
        <ele>111</ele>
        <time>2014-08-18T08:10:26Z</time>
      </trkpt>
      <trkpt lat="45.0299" lon="1.10262">
        <ele>111</ele>
        <time>2014-08-18T08:10:28Z</time>
      </trkpt>
      <trkpt lat="45.02989" lon="1.10256">
        <ele>112</ele>
        <time>2014-08-18T08:10:31Z</time>
      </trkpt>
      <trkpt lat="45.02989" lon="1.10251">
        <ele>112</ele>
        <time>2014-08-18T08:10:33Z</time>
      </trkpt>
      <trkpt lat="45.0299" lon="1.10246">
        <ele>113</ele>
        <time>2014-08-18T08:10:35Z</time>
      </trkpt>
      <trkpt lat="45.02991" lon="1.10239">
        <ele>114</ele>
        <time>2014-08-18T08:10:38Z</time>
      </trkpt>
      <trkpt lat="45.02992" lon="1.10234">
        <ele>115</ele>
        <time>2014-08-18T08:10:40Z</time>
      </trkpt>
      <trkpt lat="45.02993" lon="1.10229">
        <ele>115</ele>
        <time>2014-08-18T08:10:42Z</time>
      </trkpt>
      <trkpt lat="45.02996" lon="1.10222">
        <ele>116</ele>
        <time>2014-08-18T08:10:45Z</time>
      </trkpt>
      <trkpt lat="45.02999" lon="1.10216">
        <ele>116</ele>
        <time>2014-08-18T08:10:48Z</time>
      </trkpt>
      <trkpt lat="45.03001" lon="1.10211">
        <ele>117</ele>
        <time>2014-08-18T08:10:50Z</time>
      </trkpt>
      <trkpt lat="45.03003" lon="1.10205">
        <ele>117</ele>
        <time>2014-08-18T08:10:52Z</time>
      </trkpt>
      <trkpt lat="45.03004" lon="1.102">
        <ele>117</ele>
        <time>2014-08-18T08:10:54Z</time>
      </trkpt>
      <trkpt lat="45.03007" lon="1.10192">
        <ele>118</ele>
        <time>2014-08-18T08:10:57Z</time>
      </trkpt>
      <trkpt lat="45.03009" lon="1.10187">
        <ele>118</ele>
        <time>2014-08-18T08:10:59Z</time>
      </trkpt>
      <trkpt lat="45.03011" lon="1.10182">
        <ele>119</ele>
        <time>2014-08-18T08:11:01Z</time>
      </trkpt>
      <trkpt lat="45.03013" lon="1.10175">
        <ele>120</ele>
        <time>2014-08-18T08:11:04Z</time>
      </trkpt>
      <trkpt lat="45.03017" lon="1.10169">
        <ele>120</ele>
        <time>2014-08-18T08:11:07Z</time>
      </trkpt>
      <trkpt lat="45.03019" lon="1.10166">
        <ele>120</ele>
        <time>2014-08-18T08:11:09Z</time>
      </trkpt>
      <trkpt lat="45.03022" lon="1.10159">
        <ele>121</ele>
        <time>2014-08-18T08:11:12Z</time>
      </trkpt>
      <trkpt lat="45.03024" lon="1.10155">
        <ele>122</ele>
        <time>2014-08-18T08:11:14Z</time>
      </trkpt>
      <trkpt lat="45.03029" lon="1.10149">
        <ele>122</ele>
        <time>2014-08-18T08:11:17Z</time>
      </trkpt>
      <trkpt lat="45.03033" lon="1.10143">
        <ele>123</ele>
        <time>2014-08-18T08:11:19Z</time>
      </trkpt>
      <trkpt lat="45.03041" lon="1.10136">
        <ele>122</ele>
        <time>2014-08-18T08:11:22Z</time>
      </trkpt>
      <trkpt lat="45.03047" lon="1.1013">
        <ele>122</ele>
        <time>2014-08-18T08:11:24Z</time>
      </trkpt>
      <trkpt lat="45.03055" lon="1.1012">
        <ele>123</ele>
        <time>2014-08-18T08:11:27Z</time>
      </trkpt>
      <trkpt lat="45.0306" lon="1.10113">
        <ele>123</ele>
        <time>2014-08-18T08:11:29Z</time>
      </trkpt>
      <trkpt lat="45.03069" lon="1.10102">
        <ele>123</ele>
        <time>2014-08-18T08:11:32Z</time>
      </trkpt>
      <trkpt lat="45.03075" lon="1.10095">
        <ele>123</ele>
        <time>2014-08-18T08:11:34Z</time>
      </trkpt>
      <trkpt lat="45.03083" lon="1.10086">
        <ele>124</ele>
        <time>2014-08-18T08:11:36Z</time>
      </trkpt>
      <trkpt lat="45.03091" lon="1.10076">
        <ele>124</ele>
        <time>2014-08-18T08:11:38Z</time>
      </trkpt>
      <trkpt lat="45.03096" lon="1.10057">
        <ele>124</ele>
        <time>2014-08-18T08:11:41Z</time>
      </trkpt>
      <trkpt lat="45.03098" lon="1.10043">
        <ele>126</ele>
        <time>2014-08-18T08:11:44Z</time>
      </trkpt>
      <trkpt lat="45.03099" lon="1.10035">
        <ele>127</ele>
        <time>2014-08-18T08:11:46Z</time>
      </trkpt>
      <trkpt lat="45.03099" lon="1.10024">
        <ele>128</ele>
        <time>2014-08-18T08:11:49Z</time>
      </trkpt>
      <trkpt lat="45.03099" lon="1.10015">
        <ele>130</ele>
        <time>2014-08-18T08:11:52Z</time>
      </trkpt>
      <trkpt lat="45.03098" lon="1.10006">
        <ele>131</ele>
        <time>2014-08-18T08:11:55Z</time>
      </trkpt>
      <trkpt lat="45.03099" lon="1.10001">
        <ele>132</ele>
        <time>2014-08-18T08:11:57Z</time>
      </trkpt>
      <trkpt lat="45.03098" lon="1.09997">
        <ele>133</ele>
        <time>2014-08-18T08:11:59Z</time>
      </trkpt>
      <trkpt lat="45.03095" lon="1.09991">
        <ele>135</ele>
        <time>2014-08-18T08:12:02Z</time>
      </trkpt>
      <trkpt lat="45.03093" lon="1.09988">
        <ele>135</ele>
        <time>2014-08-18T08:12:04Z</time>
      </trkpt>
      <trkpt lat="45.0309" lon="1.09982">
        <ele>136</ele>
        <time>2014-08-18T08:12:07Z</time>
      </trkpt>
      <trkpt lat="45.03088" lon="1.09977">
        <ele>137</ele>
        <time>2014-08-18T08:12:10Z</time>
      </trkpt>
      <trkpt lat="45.03085" lon="1.09974">
        <ele>137</ele>
        <time>2014-08-18T08:12:12Z</time>
      </trkpt>
      <trkpt lat="45.03082" lon="1.0997">
        <ele>138</ele>
        <time>2014-08-18T08:12:14Z</time>
      </trkpt>
      <trkpt lat="45.03079" lon="1.09967">
        <ele>139</ele>
        <time>2014-08-18T08:12:16Z</time>
      </trkpt>
      <trkpt lat="45.03074" lon="1.09959">
        <ele>140</ele>
        <time>2014-08-18T08:12:19Z</time>
      </trkpt>
      <trkpt lat="45.0307" lon="1.09952">
        <ele>140</ele>
        <time>2014-08-18T08:12:22Z</time>
      </trkpt>
      <trkpt lat="45.03064" lon="1.09946">
        <ele>140</ele>
        <time>2014-08-18T08:12:25Z</time>
      </trkpt>
      <trkpt lat="45.03061" lon="1.09942">
        <ele>141</ele>
        <time>2014-08-18T08:12:27Z</time>
      </trkpt>
      <trkpt lat="45.03055" lon="1.09937">
        <ele>142</ele>
        <time>2014-08-18T08:12:30Z</time>
      </trkpt>
      <trkpt lat="45.03054" lon="1.09929">
        <ele>143</ele>
        <time>2014-08-18T08:12:33Z</time>
      </trkpt>
      <trkpt lat="45.03054" lon="1.09925">
        <ele>143</ele>
        <time>2014-08-18T08:12:35Z</time>
      </trkpt>
      <trkpt lat="45.03052" lon="1.09919">
        <ele>143</ele>
        <time>2014-08-18T08:12:38Z</time>
      </trkpt>
      <trkpt lat="45.03051" lon="1.09915">
        <ele>144</ele>
        <time>2014-08-18T08:12:40Z</time>
      </trkpt>
      <trkpt lat="45.03051" lon="1.09911">
        <ele>144</ele>
        <time>2014-08-18T08:12:42Z</time>
      </trkpt>
      <trkpt lat="45.03051" lon="1.09903">
        <ele>145</ele>
        <time>2014-08-18T08:12:45Z</time>
      </trkpt>
      <trkpt lat="45.03052" lon="1.09897">
        <ele>145</ele>
        <time>2014-08-18T08:12:47Z</time>
      </trkpt>
      <trkpt lat="45.03054" lon="1.09885">
        <ele>145</ele>
        <time>2014-08-18T08:12:50Z</time>
      </trkpt>
      <trkpt lat="45.03056" lon="1.0987">
        <ele>145</ele>
        <time>2014-08-18T08:12:53Z</time>
      </trkpt>
      <trkpt lat="45.03058" lon="1.09861">
        <ele>145</ele>
        <time>2014-08-18T08:12:55Z</time>
      </trkpt>
      <trkpt lat="45.03061" lon="1.0985">
        <ele>145</ele>
        <time>2014-08-18T08:12:57Z</time>
      </trkpt>
      <trkpt lat="45.03062" lon="1.09833">
        <ele>144</ele>
        <time>2014-08-18T08:13:00Z</time>
      </trkpt>
      <trkpt lat="45.0306" lon="1.09814">
        <ele>144</ele>
        <time>2014-08-18T08:13:03Z</time>
      </trkpt>
      <trkpt lat="45.03057" lon="1.09797">
        <ele>144</ele>
        <time>2014-08-18T08:13:06Z</time>
      </trkpt>
      <trkpt lat="45.03057" lon="1.09784">
        <ele>144</ele>
        <time>2014-08-18T08:13:08Z</time>
      </trkpt>
      <trkpt lat="45.03057" lon="1.09771">
        <ele>144</ele>
        <time>2014-08-18T08:13:10Z</time>
      </trkpt>
      <trkpt lat="45.03057" lon="1.09752">
        <ele>144</ele>
        <time>2014-08-18T08:13:13Z</time>
      </trkpt>
      <trkpt lat="45.03058" lon="1.09733">
        <ele>144</ele>
        <time>2014-08-18T08:13:16Z</time>
      </trkpt>
      <trkpt lat="45.03059" lon="1.09721">
        <ele>144</ele>
        <time>2014-08-18T08:13:19Z</time>
      </trkpt>
      <trkpt lat="45.0306" lon="1.0971">
        <ele>145</ele>
        <time>2014-08-18T08:13:22Z</time>
      </trkpt>
      <trkpt lat="45.0306" lon="1.09704">
        <ele>145</ele>
        <time>2014-08-18T08:13:24Z</time>
      </trkpt>
      <trkpt lat="45.03059" lon="1.09699">
        <ele>145</ele>
        <time>2014-08-18T08:13:27Z</time>
      </trkpt>
      <trkpt lat="45.03059" lon="1.09697">
        <ele>146</ele>
        <time>2014-08-18T08:13:29Z</time>
      </trkpt>
      <trkpt lat="45.03059" lon="1.09694">
        <ele>146</ele>
        <time>2014-08-18T08:13:32Z</time>
      </trkpt>
      <trkpt lat="45.03058" lon="1.09693">
        <ele>146</ele>
        <time>2014-08-18T08:13:34Z</time>
      </trkpt>
      <trkpt lat="45.03058" lon="1.09692">
        <ele>146</ele>
        <time>2014-08-18T08:13:36Z</time>
      </trkpt>
      <trkpt lat="45.03058" lon="1.0969">
        <ele>146</ele>
        <time>2014-08-18T08:13:39Z</time>
      </trkpt>
      <trkpt lat="45.03058" lon="1.09688">
        <ele>146</ele>
        <time>2014-08-18T08:13:41Z</time>
      </trkpt>
      <trkpt lat="45.03057" lon="1.09687">
        <ele>146</ele>
        <time>2014-08-18T08:13:44Z</time>
      </trkpt>
      <trkpt lat="45.03057" lon="1.09685">
        <ele>146</ele>
        <time>2014-08-18T08:13:47Z</time>
      </trkpt>
      <trkpt lat="45.03057" lon="1.09683">
        <ele>146</ele>
        <time>2014-08-18T08:13:49Z</time>
      </trkpt>
      <trkpt lat="45.03057" lon="1.09676">
        <ele>146</ele>
        <time>2014-08-18T08:13:52Z</time>
      </trkpt>
      <trkpt lat="45.03057" lon="1.09671">
        <ele>146</ele>
        <time>2014-08-18T08:13:54Z</time>
      </trkpt>
      <trkpt lat="45.03056" lon="1.09664">
        <ele>147</ele>
        <time>2014-08-18T08:13:57Z</time>
      </trkpt>
      <trkpt lat="45.03056" lon="1.09659">
        <ele>148</ele>
        <time>2014-08-18T08:13:59Z</time>
      </trkpt>
      <trkpt lat="45.03057" lon="1.09654">
        <ele>148</ele>
        <time>2014-08-18T08:14:01Z</time>
      </trkpt>
      <trkpt lat="45.03058" lon="1.09645">
        <ele>149</ele>
        <time>2014-08-18T08:14:04Z</time>
      </trkpt>
      <trkpt lat="45.03058" lon="1.09639">
        <ele>150</ele>
        <time>2014-08-18T08:14:06Z</time>
      </trkpt>
      <trkpt lat="45.03059" lon="1.09631">
        <ele>150</ele>
        <time>2014-08-18T08:14:09Z</time>
      </trkpt>
      <trkpt lat="45.03059" lon="1.09626">
        <ele>151</ele>
        <time>2014-08-18T08:14:11Z</time>
      </trkpt>
      <trkpt lat="45.03062" lon="1.09619">
        <ele>152</ele>
        <time>2014-08-18T08:14:13Z</time>
      </trkpt>
      <trkpt lat="45.03067" lon="1.09607">
        <ele>152</ele>
        <time>2014-08-18T08:14:16Z</time>
      </trkpt>
      <trkpt lat="45.03071" lon="1.09599">
        <ele>152</ele>
        <time>2014-08-18T08:14:18Z</time>
      </trkpt>
      <trkpt lat="45.03075" lon="1.09586">
        <ele>152</ele>
        <time>2014-08-18T08:14:21Z</time>
      </trkpt>
      <trkpt lat="45.03081" lon="1.09575">
        <ele>151</ele>
        <time>2014-08-18T08:14:24Z</time>
      </trkpt>
      <trkpt lat="45.03086" lon="1.09564">
        <ele>151</ele>
        <time>2014-08-18T08:14:27Z</time>
      </trkpt>
      <trkpt lat="45.0309" lon="1.09556">
        <ele>150</ele>
        <time>2014-08-18T08:14:29Z</time>
      </trkpt>
      <trkpt lat="45.03089" lon="1.09541">
        <ele>151</ele>
        <time>2014-08-18T08:14:32Z</time>
      </trkpt>
      <trkpt lat="45.03087" lon="1.09531">
        <ele>151</ele>
        <time>2014-08-18T08:14:34Z</time>
      </trkpt>
      <trkpt lat="45.03087" lon="1.09519">
        <ele>152</ele>
        <time>2014-08-18T08:14:37Z</time>
      </trkpt>
      <trkpt lat="45.03091" lon="1.0951">
        <ele>153</ele>
        <time>2014-08-18T08:14:40Z</time>
      </trkpt>
      <trkpt lat="45.03096" lon="1.09498">
        <ele>153</ele>
        <time>2014-08-18T08:14:43Z</time>
      </trkpt>
      <trkpt lat="45.03095" lon="1.09485">
        <ele>153</ele>
        <time>2014-08-18T08:14:46Z</time>
      </trkpt>
      <trkpt lat="45.03094" lon="1.09478">
        <ele>153</ele>
        <time>2014-08-18T08:14:48Z</time>
      </trkpt>
      <trkpt lat="45.03093" lon="1.09469">
        <ele>154</ele>
        <time>2014-08-18T08:14:51Z</time>
      </trkpt>
      <trkpt lat="45.03091" lon="1.09458">
        <ele>155</ele>
        <time>2014-08-18T08:14:54Z</time>
      </trkpt>
      <trkpt lat="45.03086" lon="1.09446">
        <ele>156</ele>
        <time>2014-08-18T08:14:57Z</time>
      </trkpt>
      <trkpt lat="45.03084" lon="1.09441">
        <ele>157</ele>
        <time>2014-08-18T08:14:59Z</time>
      </trkpt>
      <trkpt lat="45.03082" lon="1.09437">
        <ele>158</ele>
        <time>2014-08-18T08:15:01Z</time>
      </trkpt>
      <trkpt lat="45.03077" lon="1.09433">
        <ele>160</ele>
        <time>2014-08-18T08:15:04Z</time>
      </trkpt>
      <trkpt lat="45.03072" lon="1.09432">
        <ele>162</ele>
        <time>2014-08-18T08:15:06Z</time>
      </trkpt>
      <trkpt lat="45.03068" lon="1.0943">
        <ele>162</ele>
        <time>2014-08-18T08:15:08Z</time>
      </trkpt>
      <trkpt lat="45.03063" lon="1.0943">
        <ele>163</ele>
        <time>2014-08-18T08:15:10Z</time>
      </trkpt>
      <trkpt lat="45.03057" lon="1.09428">
        <ele>165</ele>
        <time>2014-08-18T08:15:13Z</time>
      </trkpt>
      <trkpt lat="45.03052" lon="1.09427">
        <ele>166</ele>
        <time>2014-08-18T08:15:15Z</time>
      </trkpt>
      <trkpt lat="45.03046" lon="1.09426">
        <ele>167</ele>
        <time>2014-08-18T08:15:17Z</time>
      </trkpt>
      <trkpt lat="45.03042" lon="1.09423">
        <ele>168</ele>
        <time>2014-08-18T08:15:19Z</time>
      </trkpt>
      <trkpt lat="45.03036" lon="1.09418">
        <ele>169</ele>
        <time>2014-08-18T08:15:22Z</time>
      </trkpt>
      <trkpt lat="45.0303" lon="1.09411">
        <ele>169</ele>
        <time>2014-08-18T08:15:25Z</time>
      </trkpt>
      <trkpt lat="45.03025" lon="1.09405">
        <ele>170</ele>
        <time>2014-08-18T08:15:28Z</time>
      </trkpt>
      <trkpt lat="45.03019" lon="1.09403">
        <ele>170</ele>
        <time>2014-08-18T08:15:31Z</time>
      </trkpt>
      <trkpt lat="45.03015" lon="1.09403">
        <ele>170</ele>
        <time>2014-08-18T08:15:33Z</time>
      </trkpt>
      <trkpt lat="45.03011" lon="1.09401">
        <ele>170</ele>
        <time>2014-08-18T08:15:35Z</time>
      </trkpt>
      <trkpt lat="45.03008" lon="1.09396">
        <ele>170</ele>
        <time>2014-08-18T08:15:37Z</time>
      </trkpt>
      <trkpt lat="45.03006" lon="1.09388">
        <ele>170</ele>
        <time>2014-08-18T08:15:40Z</time>
      </trkpt>
      <trkpt lat="45.03004" lon="1.09383">
        <ele>171</ele>
        <time>2014-08-18T08:15:42Z</time>
      </trkpt>
      <trkpt lat="45.03002" lon="1.09373">
        <ele>171</ele>
        <time>2014-08-18T08:15:45Z</time>
      </trkpt>
      <trkpt lat="45.03002" lon="1.09367">
        <ele>172</ele>
        <time>2014-08-18T08:15:47Z</time>
      </trkpt>
      <trkpt lat="45.03002" lon="1.09361">
        <ele>172</ele>
        <time>2014-08-18T08:15:49Z</time>
      </trkpt>
      <trkpt lat="45.03003" lon="1.09353">
        <ele>172</ele>
        <time>2014-08-18T08:15:52Z</time>
      </trkpt>
      <trkpt lat="45.03007" lon="1.09345">
        <ele>173</ele>
        <time>2014-08-18T08:15:55Z</time>
      </trkpt>
      <trkpt lat="45.03009" lon="1.09336">
        <ele>174</ele>
        <time>2014-08-18T08:15:58Z</time>
      </trkpt>
      <trkpt lat="45.0301" lon="1.0933">
        <ele>175</ele>
        <time>2014-08-18T08:16:00Z</time>
      </trkpt>
      <trkpt lat="45.03011" lon="1.09325">
        <ele>176</ele>
        <time>2014-08-18T08:16:02Z</time>
      </trkpt>
      <trkpt lat="45.03014" lon="1.09317">
        <ele>176</ele>
        <time>2014-08-18T08:16:05Z</time>
      </trkpt>
      <trkpt lat="45.03017" lon="1.09311">
        <ele>177</ele>
        <time>2014-08-18T08:16:07Z</time>
      </trkpt>
      <trkpt lat="45.0302" lon="1.09301">
        <ele>178</ele>
        <time>2014-08-18T08:16:10Z</time>
      </trkpt>
      <trkpt lat="45.03021" lon="1.09295">
        <ele>178</ele>
        <time>2014-08-18T08:16:12Z</time>
      </trkpt>
      <trkpt lat="45.03023" lon="1.09286">
        <ele>179</ele>
        <time>2014-08-18T08:16:15Z</time>
      </trkpt>
      <trkpt lat="45.03025" lon="1.0928">
        <ele>180</ele>
        <time>2014-08-18T08:16:17Z</time>
      </trkpt>
      <trkpt lat="45.03028" lon="1.09268">
        <ele>180</ele>
        <time>2014-08-18T08:16:20Z</time>
      </trkpt>
      <trkpt lat="45.0303" lon="1.09256">
        <ele>181</ele>
        <time>2014-08-18T08:16:23Z</time>
      </trkpt>
      <trkpt lat="45.03032" lon="1.09244">
        <ele>181</ele>
        <time>2014-08-18T08:16:26Z</time>
      </trkpt>
      <trkpt lat="45.03033" lon="1.09236">
        <ele>181</ele>
        <time>2014-08-18T08:16:28Z</time>
      </trkpt>
      <trkpt lat="45.03033" lon="1.09229">
        <ele>182</ele>
        <time>2014-08-18T08:16:30Z</time>
      </trkpt>
      <trkpt lat="45.03035" lon="1.09215">
        <ele>182</ele>
        <time>2014-08-18T08:16:33Z</time>
      </trkpt>
      <trkpt lat="45.03037" lon="1.09202">
        <ele>183</ele>
        <time>2014-08-18T08:16:36Z</time>
      </trkpt>
      <trkpt lat="45.03042" lon="1.09191">
        <ele>183</ele>
        <time>2014-08-18T08:16:39Z</time>
      </trkpt>
      <trkpt lat="45.03045" lon="1.09184">
        <ele>183</ele>
        <time>2014-08-18T08:16:41Z</time>
      </trkpt>
      <trkpt lat="45.03044" lon="1.09176">
        <ele>183</ele>
        <time>2014-08-18T08:16:43Z</time>
      </trkpt>
      <trkpt lat="45.03044" lon="1.09168">
        <ele>183</ele>
        <time>2014-08-18T08:16:45Z</time>
      </trkpt>
      <trkpt lat="45.03046" lon="1.09156">
        <ele>184</ele>
        <time>2014-08-18T08:16:48Z</time>
      </trkpt>
      <trkpt lat="45.03048" lon="1.09143">
        <ele>184</ele>
        <time>2014-08-18T08:16:51Z</time>
      </trkpt>
      <trkpt lat="45.03049" lon="1.09128">
        <ele>184</ele>
        <time>2014-08-18T08:16:54Z</time>
      </trkpt>
      <trkpt lat="45.03049" lon="1.09118">
        <ele>184</ele>
        <time>2014-08-18T08:16:56Z</time>
      </trkpt>
      <trkpt lat="45.03052" lon="1.091">
        <ele>185</ele>
        <time>2014-08-18T08:16:59Z</time>
      </trkpt>
      <trkpt lat="45.03054" lon="1.09081">
        <ele>184</ele>
        <time>2014-08-18T08:17:02Z</time>
      </trkpt>
      <trkpt lat="45.03051" lon="1.09065">
        <ele>184</ele>
        <time>2014-08-18T08:17:05Z</time>
      </trkpt>
      <trkpt lat="45.03039" lon="1.09064">
        <ele>184</ele>
        <time>2014-08-18T08:17:08Z</time>
      </trkpt>
      <trkpt lat="45.03025" lon="1.09068">
        <ele>184</ele>
        <time>2014-08-18T08:17:11Z</time>
      </trkpt>
      <trkpt lat="45.03016" lon="1.09072">
        <ele>184</ele>
        <time>2014-08-18T08:17:13Z</time>
      </trkpt>
      <trkpt lat="45.03006" lon="1.09075">
        <ele>185</ele>
        <time>2014-08-18T08:17:15Z</time>
      </trkpt>
      <trkpt lat="45.0299" lon="1.09079">
        <ele>185</ele>
        <time>2014-08-18T08:17:18Z</time>
      </trkpt>
      <trkpt lat="45.02971" lon="1.09081">
        <ele>185</ele>
        <time>2014-08-18T08:17:21Z</time>
      </trkpt>
      <trkpt lat="45.02951" lon="1.09079">
        <ele>185</ele>
        <time>2014-08-18T08:17:24Z</time>
      </trkpt>
      <trkpt lat="45.02929" lon="1.09074">
        <ele>184</ele>
        <time>2014-08-18T08:17:27Z</time>
      </trkpt>
      <trkpt lat="45.02913" lon="1.09073">
        <ele>184</ele>
        <time>2014-08-18T08:17:29Z</time>
      </trkpt>
      <trkpt lat="45.0289" lon="1.09073">
        <ele>184</ele>
        <time>2014-08-18T08:17:32Z</time>
      </trkpt>
      <trkpt lat="45.02866" lon="1.09075">
        <ele>183</ele>
        <time>2014-08-18T08:17:35Z</time>
      </trkpt>
      <trkpt lat="45.0285" lon="1.0908">
        <ele>182</ele>
        <time>2014-08-18T08:17:37Z</time>
      </trkpt>
      <trkpt lat="45.02834" lon="1.09083">
        <ele>181</ele>
        <time>2014-08-18T08:17:39Z</time>
      </trkpt>
      <trkpt lat="45.02807" lon="1.09081">
        <ele>179</ele>
        <time>2014-08-18T08:17:42Z</time>
      </trkpt>
      <trkpt lat="45.0279" lon="1.09079">
        <ele>178</ele>
        <time>2014-08-18T08:17:44Z</time>
      </trkpt>
      <trkpt lat="45.02766" lon="1.09084">
        <ele>178</ele>
        <time>2014-08-18T08:17:47Z</time>
      </trkpt>
      <trkpt lat="45.02752" lon="1.09091">
        <ele>177</ele>
        <time>2014-08-18T08:17:49Z</time>
      </trkpt>
      <trkpt lat="45.02738" lon="1.09099">
        <ele>176</ele>
        <time>2014-08-18T08:17:51Z</time>
      </trkpt>
      <trkpt lat="45.02718" lon="1.09114">
        <ele>175</ele>
        <time>2014-08-18T08:17:54Z</time>
      </trkpt>
      <trkpt lat="45.02699" lon="1.09129">
        <ele>175</ele>
        <time>2014-08-18T08:17:57Z</time>
      </trkpt>
      <trkpt lat="45.02679" lon="1.09144">
        <ele>174</ele>
        <time>2014-08-18T08:18:00Z</time>
      </trkpt>
      <trkpt lat="45.02657" lon="1.09153">
        <ele>174</ele>
        <time>2014-08-18T08:18:03Z</time>
      </trkpt>
      <trkpt lat="45.02642" lon="1.09157">
        <ele>174</ele>
        <time>2014-08-18T08:18:05Z</time>
      </trkpt>
      <trkpt lat="45.02621" lon="1.0916">
        <ele>174</ele>
        <time>2014-08-18T08:18:08Z</time>
      </trkpt>
      <trkpt lat="45.02598" lon="1.09165">
        <ele>173</ele>
        <time>2014-08-18T08:18:11Z</time>
      </trkpt>
      <trkpt lat="45.02582" lon="1.09171">
        <ele>172</ele>
        <time>2014-08-18T08:18:13Z</time>
      </trkpt>
      <trkpt lat="45.02557" lon="1.09183">
        <ele>171</ele>
        <time>2014-08-18T08:18:16Z</time>
      </trkpt>
      <trkpt lat="45.02534" lon="1.09203">
        <ele>171</ele>
        <time>2014-08-18T08:18:19Z</time>
      </trkpt>
      <trkpt lat="45.0252" lon="1.09218">
        <ele>170</ele>
        <time>2014-08-18T08:18:21Z</time>
      </trkpt>
      <trkpt lat="45.025" lon="1.09239">
        <ele>169</ele>
        <time>2014-08-18T08:18:24Z</time>
      </trkpt>
      <trkpt lat="45.02488" lon="1.09253">
        <ele>169</ele>
        <time>2014-08-18T08:18:26Z</time>
      </trkpt>
      <trkpt lat="45.02474" lon="1.09268">
        <ele>168</ele>
        <time>2014-08-18T08:18:28Z</time>
      </trkpt>
      <trkpt lat="45.0246" lon="1.09283">
        <ele>168</ele>
        <time>2014-08-18T08:18:30Z</time>
      </trkpt>
      <trkpt lat="45.02439" lon="1.09306">
        <ele>167</ele>
        <time>2014-08-18T08:18:33Z</time>
      </trkpt>
      <trkpt lat="45.02419" lon="1.09329">
        <ele>166</ele>
        <time>2014-08-18T08:18:36Z</time>
      </trkpt>
      <trkpt lat="45.02401" lon="1.0935">
        <ele>166</ele>
        <time>2014-08-18T08:18:39Z</time>
      </trkpt>
      <trkpt lat="45.02388" lon="1.0937">
        <ele>165</ele>
        <time>2014-08-18T08:18:42Z</time>
      </trkpt>
      <trkpt lat="45.02377" lon="1.09388">
        <ele>165</ele>
        <time>2014-08-18T08:18:45Z</time>
      </trkpt>
      <trkpt lat="45.0237" lon="1.094">
        <ele>166</ele>
        <time>2014-08-18T08:18:47Z</time>
      </trkpt>
      <trkpt lat="45.02361" lon="1.0942">
        <ele>167</ele>
        <time>2014-08-18T08:18:50Z</time>
      </trkpt>
      <trkpt lat="45.02353" lon="1.09438">
        <ele>168</ele>
        <time>2014-08-18T08:18:53Z</time>
      </trkpt>
      <trkpt lat="45.02346" lon="1.09455">
        <ele>169</ele>
        <time>2014-08-18T08:18:56Z</time>
      </trkpt>
      <trkpt lat="45.02342" lon="1.09467">
        <ele>169</ele>
        <time>2014-08-18T08:18:58Z</time>
      </trkpt>
      <trkpt lat="45.02338" lon="1.09478">
        <ele>170</ele>
        <time>2014-08-18T08:19:00Z</time>
      </trkpt>
      <trkpt lat="45.02332" lon="1.09494">
        <ele>171</ele>
        <time>2014-08-18T08:19:03Z</time>
      </trkpt>
      <trkpt lat="45.02325" lon="1.09511">
        <ele>172</ele>
        <time>2014-08-18T08:19:06Z</time>
      </trkpt>
      <trkpt lat="45.0232" lon="1.09522">
        <ele>172</ele>
        <time>2014-08-18T08:19:08Z</time>
      </trkpt>
      <trkpt lat="45.02315" lon="1.09533">
        <ele>173</ele>
        <time>2014-08-18T08:19:10Z</time>
      </trkpt>
      <trkpt lat="45.02309" lon="1.09548">
        <ele>173</ele>
        <time>2014-08-18T08:19:13Z</time>
      </trkpt>
      <trkpt lat="45.02301" lon="1.09564">
        <ele>173</ele>
        <time>2014-08-18T08:19:16Z</time>
      </trkpt>
      <trkpt lat="45.02297" lon="1.09575">
        <ele>174</ele>
        <time>2014-08-18T08:19:18Z</time>
      </trkpt>
      <trkpt lat="45.02292" lon="1.09586">
        <ele>174</ele>
        <time>2014-08-18T08:19:20Z</time>
      </trkpt>
      <trkpt lat="45.02285" lon="1.09601">
        <ele>173</ele>
        <time>2014-08-18T08:19:23Z</time>
      </trkpt>
      <trkpt lat="45.02277" lon="1.09617">
        <ele>173</ele>
        <time>2014-08-18T08:19:26Z</time>
      </trkpt>
      <trkpt lat="45.02269" lon="1.09628">
        <ele>173</ele>
        <time>2014-08-18T08:19:28Z</time>
      </trkpt>
      <trkpt lat="45.02257" lon="1.09644">
        <ele>172</ele>
        <time>2014-08-18T08:19:31Z</time>
      </trkpt>
      <trkpt lat="45.02245" lon="1.09657">
        <ele>171</ele>
        <time>2014-08-18T08:19:33Z</time>
      </trkpt>
      <trkpt lat="45.02226" lon="1.09671">
        <ele>168</ele>
        <time>2014-08-18T08:19:36Z</time>
      </trkpt>
      <trkpt lat="45.02198" lon="1.09676">
        <ele>164</ele>
        <time>2014-08-18T08:19:39Z</time>
      </trkpt>
      <trkpt lat="45.02163" lon="1.09682">
        <ele>160</ele>
        <time>2014-08-18T08:19:42Z</time>
      </trkpt>
      <trkpt lat="45.02129" lon="1.09692">
        <ele>155</ele>
        <time>2014-08-18T08:19:45Z</time>
      </trkpt>
      <trkpt lat="45.02108" lon="1.09696">
        <ele>153</ele>
        <time>2014-08-18T08:19:47Z</time>
      </trkpt>
      <trkpt lat="45.02072" lon="1.09697">
        <ele>149</ele>
        <time>2014-08-18T08:19:50Z</time>
      </trkpt>
      <trkpt lat="45.02047" lon="1.09695">
        <ele>148</ele>
        <time>2014-08-18T08:19:52Z</time>
      </trkpt>
      <trkpt lat="45.02008" lon="1.09692">
        <ele>146</ele>
        <time>2014-08-18T08:19:55Z</time>
      </trkpt>
      <trkpt lat="45.01971" lon="1.09686">
        <ele>145</ele>
        <time>2014-08-18T08:19:58Z</time>
      </trkpt>
      <trkpt lat="45.01947" lon="1.0968">
        <ele>143</ele>
        <time>2014-08-18T08:20:00Z</time>
      </trkpt>
      <trkpt lat="45.01925" lon="1.09679">
        <ele>143</ele>
        <time>2014-08-18T08:20:02Z</time>
      </trkpt>
      <trkpt lat="45.01894" lon="1.09682">
        <ele>142</ele>
        <time>2014-08-18T08:20:05Z</time>
      </trkpt>
      <trkpt lat="45.01867" lon="1.09679">
        <ele>142</ele>
        <time>2014-08-18T08:20:08Z</time>
      </trkpt>
      <trkpt lat="45.01844" lon="1.09674">
        <ele>143</ele>
        <time>2014-08-18T08:20:11Z</time>
      </trkpt>
      <trkpt lat="45.01829" lon="1.0967">
        <ele>143</ele>
        <time>2014-08-18T08:20:13Z</time>
      </trkpt>
      <trkpt lat="45.01815" lon="1.09668">
        <ele>142</ele>
        <time>2014-08-18T08:20:15Z</time>
      </trkpt>
      <trkpt lat="45.01797" lon="1.09666">
        <ele>142</ele>
        <time>2014-08-18T08:20:18Z</time>
      </trkpt>
      <trkpt lat="45.0178" lon="1.09669">
        <ele>142</ele>
        <time>2014-08-18T08:20:21Z</time>
      </trkpt>
      <trkpt lat="45.0176" lon="1.09676">
        <ele>142</ele>
        <time>2014-08-18T08:20:24Z</time>
      </trkpt>
      <trkpt lat="45.01745" lon="1.09682">
        <ele>141</ele>
        <time>2014-08-18T08:20:26Z</time>
      </trkpt>
      <trkpt lat="45.01722" lon="1.09697">
        <ele>140</ele>
        <time>2014-08-18T08:20:29Z</time>
      </trkpt>
      <trkpt lat="45.01711" lon="1.09707">
        <ele>138</ele>
        <time>2014-08-18T08:20:31Z</time>
      </trkpt>
      <trkpt lat="45.01701" lon="1.09713">
        <ele>137</ele>
        <time>2014-08-18T08:20:34Z</time>
      </trkpt>
      <trkpt lat="45.01698" lon="1.09715">
        <ele>136</ele>
        <time>2014-08-18T08:20:36Z</time>
      </trkpt>
      <trkpt lat="45.01696" lon="1.09717">
        <ele>135</ele>
        <time>2014-08-18T08:20:39Z</time>
      </trkpt>
      <trkpt lat="45.01688" lon="1.09723">
        <ele>134</ele>
        <time>2014-08-18T08:20:42Z</time>
      </trkpt>
      <trkpt lat="45.01672" lon="1.09737">
        <ele>134</ele>
        <time>2014-08-18T08:20:45Z</time>
      </trkpt>
      <trkpt lat="45.01659" lon="1.09749">
        <ele>133</ele>
        <time>2014-08-18T08:20:47Z</time>
      </trkpt>
      <trkpt lat="45.01638" lon="1.09768">
        <ele>131</ele>
        <time>2014-08-18T08:20:50Z</time>
      </trkpt>
      <trkpt lat="45.01625" lon="1.09781">
        <ele>129</ele>
        <time>2014-08-18T08:20:53Z</time>
      </trkpt>
      <trkpt lat="45.01611" lon="1.09791">
        <ele>127</ele>
        <time>2014-08-18T08:20:56Z</time>
      </trkpt>
      <trkpt lat="45.01595" lon="1.09804">
        <ele>126</ele>
        <time>2014-08-18T08:20:59Z</time>
      </trkpt>
      <trkpt lat="45.01584" lon="1.09813">
        <ele>125</ele>
        <time>2014-08-18T08:21:01Z</time>
      </trkpt>
      <trkpt lat="45.01568" lon="1.09827">
        <ele>125</ele>
        <time>2014-08-18T08:21:04Z</time>
      </trkpt>
      <trkpt lat="45.01554" lon="1.09826">
        <ele>124</ele>
        <time>2014-08-18T08:21:06Z</time>
      </trkpt>
      <trkpt lat="45.01539" lon="1.09818">
        <ele>123</ele>
        <time>2014-08-18T08:21:08Z</time>
      </trkpt>
      <trkpt lat="45.01522" lon="1.09806">
        <ele>121</ele>
        <time>2014-08-18T08:21:11Z</time>
      </trkpt>
      <trkpt lat="45.01509" lon="1.09797">
        <ele>119</ele>
        <time>2014-08-18T08:21:13Z</time>
      </trkpt>
      <trkpt lat="45.01493" lon="1.09784">
        <ele>115</ele>
        <time>2014-08-18T08:21:16Z</time>
      </trkpt>
      <trkpt lat="45.01484" lon="1.09776">
        <ele>113</ele>
        <time>2014-08-18T08:21:18Z</time>
      </trkpt>
      <trkpt lat="45.0147" lon="1.09763">
        <ele>110</ele>
        <time>2014-08-18T08:21:21Z</time>
      </trkpt>
      <trkpt lat="45.01453" lon="1.09745">
        <ele>107</ele>
        <time>2014-08-18T08:21:24Z</time>
      </trkpt>
      <trkpt lat="45.01443" lon="1.09736">
        <ele>104</ele>
        <time>2014-08-18T08:21:26Z</time>
      </trkpt>
      <trkpt lat="45.01432" lon="1.09713">
        <ele>100</ele>
        <time>2014-08-18T08:21:29Z</time>
      </trkpt>
      <trkpt lat="45.01424" lon="1.09692">
        <ele>96</ele>
        <time>2014-08-18T08:21:32Z</time>
      </trkpt>
      <trkpt lat="45.01417" lon="1.09683">
        <ele>93</ele>
        <time>2014-08-18T08:21:34Z</time>
      </trkpt>
      <trkpt lat="45.01402" lon="1.09668">
        <ele>91</ele>
        <time>2014-08-18T08:21:37Z</time>
      </trkpt>
      <trkpt lat="45.01388" lon="1.09657">
        <ele>89</ele>
        <time>2014-08-18T08:21:39Z</time>
      </trkpt>
      <trkpt lat="45.01373" lon="1.0965">
        <ele>87</ele>
        <time>2014-08-18T08:21:41Z</time>
      </trkpt>
      <trkpt lat="45.01356" lon="1.09642">
        <ele>85</ele>
        <time>2014-08-18T08:21:43Z</time>
      </trkpt>
      <trkpt lat="45.01338" lon="1.09634">
        <ele>82</ele>
        <time>2014-08-18T08:21:45Z</time>
      </trkpt>
      <trkpt lat="45.01313" lon="1.09613">
        <ele>80</ele>
        <time>2014-08-18T08:21:48Z</time>
      </trkpt>
      <trkpt lat="45.01293" lon="1.09597">
        <ele>77</ele>
        <time>2014-08-18T08:21:51Z</time>
      </trkpt>
      <trkpt lat="45.0128" lon="1.09582">
        <ele>75</ele>
        <time>2014-08-18T08:21:53Z</time>
      </trkpt>
      <trkpt lat="45.01259" lon="1.09564">
        <ele>71</ele>
        <time>2014-08-18T08:21:56Z</time>
      </trkpt>
      <trkpt lat="45.01238" lon="1.09554">
        <ele>68</ele>
        <time>2014-08-18T08:21:59Z</time>
      </trkpt>
      <trkpt lat="45.01214" lon="1.09547">
        <ele>64</ele>
        <time>2014-08-18T08:22:02Z</time>
      </trkpt>
      <trkpt lat="45.01197" lon="1.0954">
        <ele>60</ele>
        <time>2014-08-18T08:22:05Z</time>
      </trkpt>
      <trkpt lat="45.01189" lon="1.09535">
        <ele>58</ele>
        <time>2014-08-18T08:22:07Z</time>
      </trkpt>
      <trkpt lat="45.01184" lon="1.0953">
        <ele>56</ele>
        <time>2014-08-18T08:22:09Z</time>
      </trkpt>
      <trkpt lat="45.01189" lon="1.0952">
        <ele>54</ele>
        <time>2014-08-18T08:22:12Z</time>
      </trkpt>
      <trkpt lat="45.012" lon="1.0951">
        <ele>53</ele>
        <time>2014-08-18T08:22:15Z</time>
      </trkpt>
      <trkpt lat="45.0121" lon="1.09499">
        <ele>53</ele>
        <time>2014-08-18T08:22:18Z</time>
      </trkpt>
      <trkpt lat="45.01218" lon="1.09493">
        <ele>53</ele>
        <time>2014-08-18T08:22:20Z</time>
      </trkpt>
      <trkpt lat="45.01226" lon="1.09484">
        <ele>53</ele>
        <time>2014-08-18T08:22:23Z</time>
      </trkpt>
      <trkpt lat="45.01231" lon="1.09477">
        <ele>53</ele>
        <time>2014-08-18T08:22:25Z</time>
      </trkpt>
      <trkpt lat="45.01239" lon="1.0947">
        <ele>52</ele>
        <time>2014-08-18T08:22:27Z</time>
      </trkpt>
      <trkpt lat="45.01254" lon="1.09456">
        <ele>52</ele>
        <time>2014-08-18T08:22:30Z</time>
      </trkpt>
      <trkpt lat="45.01264" lon="1.09446">
        <ele>52</ele>
        <time>2014-08-18T08:22:32Z</time>
      </trkpt>
      <trkpt lat="45.01274" lon="1.09435">
        <ele>52</ele>
        <time>2014-08-18T08:22:34Z</time>
      </trkpt>
      <trkpt lat="45.01291" lon="1.09419">
        <ele>52</ele>
        <time>2014-08-18T08:22:37Z</time>
      </trkpt>
      <trkpt lat="45.01303" lon="1.09408">
        <ele>52</ele>
        <time>2014-08-18T08:22:39Z</time>
      </trkpt>
      <trkpt lat="45.01314" lon="1.09397">
        <ele>52</ele>
        <time>2014-08-18T08:22:41Z</time>
      </trkpt>
      <trkpt lat="45.01332" lon="1.09379">
        <ele>51</ele>
        <time>2014-08-18T08:22:44Z</time>
      </trkpt>
      <trkpt lat="45.01343" lon="1.09368">
        <ele>51</ele>
        <time>2014-08-18T08:22:46Z</time>
      </trkpt>
      <trkpt lat="45.01355" lon="1.09355">
        <ele>50</ele>
        <time>2014-08-18T08:22:48Z</time>
      </trkpt>
      <trkpt lat="45.01371" lon="1.09335">
        <ele>50</ele>
        <time>2014-08-18T08:22:51Z</time>
      </trkpt>
      <trkpt lat="45.01382" lon="1.09321">
        <ele>50</ele>
        <time>2014-08-18T08:22:53Z</time>
      </trkpt>
      <trkpt lat="45.01392" lon="1.09307">
        <ele>49</ele>
        <time>2014-08-18T08:22:55Z</time>
      </trkpt>
      <trkpt lat="45.01403" lon="1.09292">
        <ele>49</ele>
        <time>2014-08-18T08:22:57Z</time>
      </trkpt>
      <trkpt lat="45.01419" lon="1.0927">
        <ele>49</ele>
        <time>2014-08-18T08:23:00Z</time>
      </trkpt>
      <trkpt lat="45.01431" lon="1.09256">
        <ele>48</ele>
        <time>2014-08-18T08:23:02Z</time>
      </trkpt>
      <trkpt lat="45.01449" lon="1.09237">
        <ele>48</ele>
        <time>2014-08-18T08:23:05Z</time>
      </trkpt>
      <trkpt lat="45.01468" lon="1.09219">
        <ele>47</ele>
        <time>2014-08-18T08:23:08Z</time>
      </trkpt>
      <trkpt lat="45.01481" lon="1.09209">
        <ele>47</ele>
        <time>2014-08-18T08:23:10Z</time>
      </trkpt>
      <trkpt lat="45.01494" lon="1.09198">
        <ele>46</ele>
        <time>2014-08-18T08:23:12Z</time>
      </trkpt>
      <trkpt lat="45.01515" lon="1.09183">
        <ele>45</ele>
        <time>2014-08-18T08:23:15Z</time>
      </trkpt>
      <trkpt lat="45.01536" lon="1.09169">
        <ele>44</ele>
        <time>2014-08-18T08:23:18Z</time>
      </trkpt>
      <trkpt lat="45.0155" lon="1.09161">
        <ele>44</ele>
        <time>2014-08-18T08:23:20Z</time>
      </trkpt>
      <trkpt lat="45.0157" lon="1.09151">
        <ele>43</ele>
        <time>2014-08-18T08:23:23Z</time>
      </trkpt>
      <trkpt lat="45.0158" lon="1.09147">
        <ele>43</ele>
        <time>2014-08-18T08:23:25Z</time>
      </trkpt>
      <trkpt lat="45.01587" lon="1.09144">
        <ele>43</ele>
        <time>2014-08-18T08:23:27Z</time>
      </trkpt>
      <trkpt lat="45.01589" lon="1.09138">
        <ele>43</ele>
        <time>2014-08-18T08:23:29Z</time>
      </trkpt>
      <trkpt lat="45.01584" lon="1.09128">
        <ele>42</ele>
        <time>2014-08-18T08:23:32Z</time>
      </trkpt>
      <trkpt lat="45.01574" lon="1.09117">
        <ele>42</ele>
        <time>2014-08-18T08:23:35Z</time>
      </trkpt>
      <trkpt lat="45.01564" lon="1.09105">
        <ele>41</ele>
        <time>2014-08-18T08:23:38Z</time>
      </trkpt>
      <trkpt lat="45.01556" lon="1.09096">
        <ele>41</ele>
        <time>2014-08-18T08:23:40Z</time>
      </trkpt>
      <trkpt lat="45.01541" lon="1.09081">
        <ele>40</ele>
        <time>2014-08-18T08:23:43Z</time>
      </trkpt>
      <trkpt lat="45.01524" lon="1.09063">
        <ele>40</ele>
        <time>2014-08-18T08:23:46Z</time>
      </trkpt>
      <trkpt lat="45.01511" lon="1.09051">
        <ele>39</ele>
        <time>2014-08-18T08:23:48Z</time>
      </trkpt>
      <trkpt lat="45.01498" lon="1.09038">
        <ele>39</ele>
        <time>2014-08-18T08:23:50Z</time>
      </trkpt>
      <trkpt lat="45.01485" lon="1.09026">
        <ele>39</ele>
        <time>2014-08-18T08:23:52Z</time>
      </trkpt>
      <trkpt lat="45.01473" lon="1.09013">
        <ele>39</ele>
        <time>2014-08-18T08:23:54Z</time>
      </trkpt>
      <trkpt lat="45.01451" lon="1.08998">
        <ele>38</ele>
        <time>2014-08-18T08:23:57Z</time>
      </trkpt>
      <trkpt lat="45.01436" lon="1.0899">
        <ele>37</ele>
        <time>2014-08-18T08:23:59Z</time>
      </trkpt>
      <trkpt lat="45.01421" lon="1.08983">
        <ele>36</ele>
        <time>2014-08-18T08:24:01Z</time>
      </trkpt>
      <trkpt lat="45.014" lon="1.08971">
        <ele>35</ele>
        <time>2014-08-18T08:24:04Z</time>
      </trkpt>
      <trkpt lat="45.01385" lon="1.08965">
        <ele>35</ele>
        <time>2014-08-18T08:24:06Z</time>
      </trkpt>
      <trkpt lat="45.01371" lon="1.0896">
        <ele>35</ele>
        <time>2014-08-18T08:24:08Z</time>
      </trkpt>
      <trkpt lat="45.01352" lon="1.08955">
        <ele>35</ele>
        <time>2014-08-18T08:24:11Z</time>
      </trkpt>
      <trkpt lat="45.01338" lon="1.08952">
        <ele>35</ele>
        <time>2014-08-18T08:24:13Z</time>
      </trkpt>
      <trkpt lat="45.01317" lon="1.0895">
        <ele>35</ele>
        <time>2014-08-18T08:24:16Z</time>
      </trkpt>
      <trkpt lat="45.01303" lon="1.08949">
        <ele>35</ele>
        <time>2014-08-18T08:24:18Z</time>
      </trkpt>
      <trkpt lat="45.01289" lon="1.08947">
        <ele>36</ele>
        <time>2014-08-18T08:24:20Z</time>
      </trkpt>
      <trkpt lat="45.01275" lon="1.08947">
        <ele>36</ele>
        <time>2014-08-18T08:24:22Z</time>
      </trkpt>
      <trkpt lat="45.01257" lon="1.08944">
        <ele>35</ele>
        <time>2014-08-18T08:24:25Z</time>
      </trkpt>
      <trkpt lat="45.01245" lon="1.08942">
        <ele>35</ele>
        <time>2014-08-18T08:24:27Z</time>
      </trkpt>
      <trkpt lat="45.01229" lon="1.08936">
        <ele>35</ele>
        <time>2014-08-18T08:24:30Z</time>
      </trkpt>
      <trkpt lat="45.01213" lon="1.0893">
        <ele>35</ele>
        <time>2014-08-18T08:24:33Z</time>
      </trkpt>
      <trkpt lat="45.01202" lon="1.08925">
        <ele>35</ele>
        <time>2014-08-18T08:24:35Z</time>
      </trkpt>
      <trkpt lat="45.01192" lon="1.08921">
        <ele>35</ele>
        <time>2014-08-18T08:24:37Z</time>
      </trkpt>
      <trkpt lat="45.01178" lon="1.08915">
        <ele>35</ele>
        <time>2014-08-18T08:24:40Z</time>
      </trkpt>
      <trkpt lat="45.01166" lon="1.08909">
        <ele>34</ele>
        <time>2014-08-18T08:24:43Z</time>
      </trkpt>
      <trkpt lat="45.01158" lon="1.08906">
        <ele>34</ele>
        <time>2014-08-18T08:24:45Z</time>
      </trkpt>
      <trkpt lat="45.0115" lon="1.08903">
        <ele>34</ele>
        <time>2014-08-18T08:24:47Z</time>
      </trkpt>
      <trkpt lat="45.0114" lon="1.08897">
        <ele>34</ele>
        <time>2014-08-18T08:24:50Z</time>
      </trkpt>
      <trkpt lat="45.01135" lon="1.08892">
        <ele>34</ele>
        <time>2014-08-18T08:24:52Z</time>
      </trkpt>
      <trkpt lat="45.01133" lon="1.08887">
        <ele>34</ele>
        <time>2014-08-18T08:24:54Z</time>
      </trkpt>
      <trkpt lat="45.01132" lon="1.08881">
        <ele>34</ele>
        <time>2014-08-18T08:24:57Z</time>
      </trkpt>
      <trkpt lat="45.01128" lon="1.08871">
        <ele>34</ele>
        <time>2014-08-18T08:25:00Z</time>
      </trkpt>
      <trkpt lat="45.01125" lon="1.08861">
        <ele>33</ele>
        <time>2014-08-18T08:25:02Z</time>
      </trkpt>
      <trkpt lat="45.01123" lon="1.08852">
        <ele>33</ele>
        <time>2014-08-18T08:25:04Z</time>
      </trkpt>
      <trkpt lat="45.01117" lon="1.08839">
        <ele>33</ele>
        <time>2014-08-18T08:25:07Z</time>
      </trkpt>
      <trkpt lat="45.0111" lon="1.08829">
        <ele>33</ele>
        <time>2014-08-18T08:25:10Z</time>
      </trkpt>
      <trkpt lat="45.01102" lon="1.08825">
        <ele>33</ele>
        <time>2014-08-18T08:25:12Z</time>
      </trkpt>
      <trkpt lat="45.01088" lon="1.08819">
        <ele>33</ele>
        <time>2014-08-18T08:25:15Z</time>
      </trkpt>
      <trkpt lat="45.01075" lon="1.08815">
        <ele>33</ele>
        <time>2014-08-18T08:25:18Z</time>
      </trkpt>
      <trkpt lat="45.01068" lon="1.08812">
        <ele>33</ele>
        <time>2014-08-18T08:25:20Z</time>
      </trkpt>
      <trkpt lat="45.01056" lon="1.08811">
        <ele>34</ele>
        <time>2014-08-18T08:25:23Z</time>
      </trkpt>
      <trkpt lat="45.01043" lon="1.08817">
        <ele>34</ele>
        <time>2014-08-18T08:25:26Z</time>
      </trkpt>
      <trkpt lat="45.01036" lon="1.08819">
        <ele>34</ele>
        <time>2014-08-18T08:25:28Z</time>
      </trkpt>
      <trkpt lat="45.01023" lon="1.08826">
        <ele>35</ele>
        <time>2014-08-18T08:25:31Z</time>
      </trkpt>
      <trkpt lat="45.01012" lon="1.08833">
        <ele>35</ele>
        <time>2014-08-18T08:25:34Z</time>
      </trkpt>
      <trkpt lat="45.01001" lon="1.08841">
        <ele>36</ele>
        <time>2014-08-18T08:25:37Z</time>
      </trkpt>
      <trkpt lat="45.00996" lon="1.08845">
        <ele>36</ele>
        <time>2014-08-18T08:25:39Z</time>
      </trkpt>
      <trkpt lat="45.0099" lon="1.0885">
        <ele>36</ele>
        <time>2014-08-18T08:25:41Z</time>
      </trkpt>
      <trkpt lat="45.00986" lon="1.08863">
        <ele>36</ele>
        <time>2014-08-18T08:25:44Z</time>
      </trkpt>
      <trkpt lat="45.00989" lon="1.08872">
        <ele>36</ele>
        <time>2014-08-18T08:25:46Z</time>
      </trkpt>
      <trkpt lat="45.00996" lon="1.08885">
        <ele>36</ele>
        <time>2014-08-18T08:25:49Z</time>
      </trkpt>
      <trkpt lat="45.01003" lon="1.08896">
        <ele>36</ele>
        <time>2014-08-18T08:25:52Z</time>
      </trkpt>
      <trkpt lat="45.01006" lon="1.08904">
        <ele>36</ele>
        <time>2014-08-18T08:25:54Z</time>
      </trkpt>
      <trkpt lat="45.01011" lon="1.08913">
        <ele>36</ele>
        <time>2014-08-18T08:25:56Z</time>
      </trkpt>
      <trkpt lat="45.01014" lon="1.0893">
        <ele>36</ele>
        <time>2014-08-18T08:25:59Z</time>
      </trkpt>
      <trkpt lat="45.0102" lon="1.08936">
        <ele>36</ele>
        <time>2014-08-18T08:26:01Z</time>
      </trkpt>
      <trkpt lat="45.01028" lon="1.08938">
        <ele>36</ele>
        <time>2014-08-18T08:26:03Z</time>
      </trkpt>
      <trkpt lat="45.01044" lon="1.08935">
        <ele>36</ele>
        <time>2014-08-18T08:26:06Z</time>
      </trkpt>
      <trkpt lat="45.01058" lon="1.08926">
        <ele>36</ele>
        <time>2014-08-18T08:26:09Z</time>
      </trkpt>
      <trkpt lat="45.01066" lon="1.08919">
        <ele>36</ele>
        <time>2014-08-18T08:26:11Z</time>
      </trkpt>
      <trkpt lat="45.01075" lon="1.08909">
        <ele>36</ele>
        <time>2014-08-18T08:26:14Z</time>
      </trkpt>
      <trkpt lat="45.01079" lon="1.08899">
        <ele>36</ele>
        <time>2014-08-18T08:26:17Z</time>
      </trkpt>
      <trkpt lat="45.01082" lon="1.08891">
        <ele>37</ele>
        <time>2014-08-18T08:26:19Z</time>
      </trkpt>
      <trkpt lat="45.01085" lon="1.08882">
        <ele>37</ele>
        <time>2014-08-18T08:26:21Z</time>
      </trkpt>
      <trkpt lat="45.01088" lon="1.08866">
        <ele>38</ele>
        <time>2014-08-18T08:26:24Z</time>
      </trkpt>
      <trkpt lat="45.01092" lon="1.08848">
        <ele>39</ele>
        <time>2014-08-18T08:26:27Z</time>
      </trkpt>
      <trkpt lat="45.01096" lon="1.0883">
        <ele>39</ele>
        <time>2014-08-18T08:26:30Z</time>
      </trkpt>
      <trkpt lat="45.01099" lon="1.08817">
        <ele>40</ele>
        <time>2014-08-18T08:26:32Z</time>
      </trkpt>
      <trkpt lat="45.01102" lon="1.08803">
        <ele>40</ele>
        <time>2014-08-18T08:26:34Z</time>
      </trkpt>
      <trkpt lat="45.01108" lon="1.08782">
        <ele>40</ele>
        <time>2014-08-18T08:26:37Z</time>
      </trkpt>
      <trkpt lat="45.01112" lon="1.08767">
        <ele>40</ele>
        <time>2014-08-18T08:26:39Z</time>
      </trkpt>
      <trkpt lat="45.01116" lon="1.08745">
        <ele>40</ele>
        <time>2014-08-18T08:26:42Z</time>
      </trkpt>
      <trkpt lat="45.0112" lon="1.08729">
        <ele>40</ele>
        <time>2014-08-18T08:26:44Z</time>
      </trkpt>
      <trkpt lat="45.01123" lon="1.08711">
        <ele>40</ele>
        <time>2014-08-18T08:26:46Z</time>
      </trkpt>
      <trkpt lat="45.01128" lon="1.08684">
        <ele>41</ele>
        <time>2014-08-18T08:26:49Z</time>
      </trkpt>
      <trkpt lat="45.01128" lon="1.08659">
        <ele>42</ele>
        <time>2014-08-18T08:26:52Z</time>
      </trkpt>
      <trkpt lat="45.01126" lon="1.08643">
        <ele>43</ele>
        <time>2014-08-18T08:26:54Z</time>
      </trkpt>
      <trkpt lat="45.01119" lon="1.08622">
        <ele>44</ele>
        <time>2014-08-18T08:26:57Z</time>
      </trkpt>
      <trkpt lat="45.01114" lon="1.08603">
        <ele>44</ele>
        <time>2014-08-18T08:27:00Z</time>
      </trkpt>
      <trkpt lat="45.01109" lon="1.08583">
        <ele>45</ele>
        <time>2014-08-18T08:27:03Z</time>
      </trkpt>
      <trkpt lat="45.01104" lon="1.08565">
        <ele>45</ele>
        <time>2014-08-18T08:27:06Z</time>
      </trkpt>
      <trkpt lat="45.01101" lon="1.08552">
        <ele>46</ele>
        <time>2014-08-18T08:27:08Z</time>
      </trkpt>
      <trkpt lat="45.01093" lon="1.08532">
        <ele>47</ele>
        <time>2014-08-18T08:27:11Z</time>
      </trkpt>
      <trkpt lat="45.01087" lon="1.08513">
        <ele>47</ele>
        <time>2014-08-18T08:27:13Z</time>
      </trkpt>
      <trkpt lat="45.01082" lon="1.08501">
        <ele>48</ele>
        <time>2014-08-18T08:27:15Z</time>
      </trkpt>
      <trkpt lat="45.01077" lon="1.08488">
        <ele>48</ele>
        <time>2014-08-18T08:27:18Z</time>
      </trkpt>
      <trkpt lat="45.0107" lon="1.08469">
        <ele>49</ele>
        <time>2014-08-18T08:27:21Z</time>
      </trkpt>
      <trkpt lat="45.01063" lon="1.08449">
        <ele>49</ele>
        <time>2014-08-18T08:27:24Z</time>
      </trkpt>
      <trkpt lat="45.01056" lon="1.0843">
        <ele>50</ele>
        <time>2014-08-18T08:27:27Z</time>
      </trkpt>
      <trkpt lat="45.01052" lon="1.08417">
        <ele>50</ele>
        <time>2014-08-18T08:27:29Z</time>
      </trkpt>
      <trkpt lat="45.01046" lon="1.08399">
        <ele>51</ele>
        <time>2014-08-18T08:27:32Z</time>
      </trkpt>
      <trkpt lat="45.0104" lon="1.0838">
        <ele>52</ele>
        <time>2014-08-18T08:27:34Z</time>
      </trkpt>
      <trkpt lat="45.01036" lon="1.08367">
        <ele>52</ele>
        <time>2014-08-18T08:27:37Z</time>
      </trkpt>
      <trkpt lat="45.01032" lon="1.08353">
        <ele>53</ele>
        <time>2014-08-18T08:27:39Z</time>
      </trkpt>
      <trkpt lat="45.01027" lon="1.08338">
        <ele>53</ele>
        <time>2014-08-18T08:27:41Z</time>
      </trkpt>
      <trkpt lat="45.01019" lon="1.08317">
        <ele>53</ele>
        <time>2014-08-18T08:27:44Z</time>
      </trkpt>
      <trkpt lat="45.01011" lon="1.08296">
        <ele>53</ele>
        <time>2014-08-18T08:27:47Z</time>
      </trkpt>
      <trkpt lat="45.01006" lon="1.08282">
        <ele>53</ele>
        <time>2014-08-18T08:27:49Z</time>
      </trkpt>
      <trkpt lat="45.00999" lon="1.0826">
        <ele>53</ele>
        <time>2014-08-18T08:27:52Z</time>
      </trkpt>
      <trkpt lat="45.00991" lon="1.08241">
        <ele>54</ele>
        <time>2014-08-18T08:27:55Z</time>
      </trkpt>
      <trkpt lat="45.00983" lon="1.08238">
        <ele>54</ele>
        <time>2014-08-18T08:27:57Z</time>
      </trkpt>
      <trkpt lat="45.00971" lon="1.08241">
        <ele>54</ele>
        <time>2014-08-18T08:28:00Z</time>
      </trkpt>
      <trkpt lat="45.00962" lon="1.08244">
        <ele>54</ele>
        <time>2014-08-18T08:28:02Z</time>
      </trkpt>
      <trkpt lat="45.00946" lon="1.08249">
        <ele>54</ele>
        <time>2014-08-18T08:28:04Z</time>
      </trkpt>
      <trkpt lat="45.00937" lon="1.08252">
        <ele>55</ele>
        <time>2014-08-18T08:28:06Z</time>
      </trkpt>
      <trkpt lat="45.00927" lon="1.08255">
        <ele>55</ele>
        <time>2014-08-18T08:28:09Z</time>
      </trkpt>
      <trkpt lat="45.00917" lon="1.08257">
        <ele>55</ele>
        <time>2014-08-18T08:28:11Z</time>
      </trkpt>
      <trkpt lat="45.00909" lon="1.08259">
        <ele>55</ele>
        <time>2014-08-18T08:28:13Z</time>
      </trkpt>
      <trkpt lat="45.00899" lon="1.08259">
        <ele>56</ele>
        <time>2014-08-18T08:28:16Z</time>
      </trkpt>
      <trkpt lat="45.00891" lon="1.08261">
        <ele>56</ele>
        <time>2014-08-18T08:28:18Z</time>
      </trkpt>
      <trkpt lat="45.00883" lon="1.08262">
        <ele>56</ele>
        <time>2014-08-18T08:28:20Z</time>
      </trkpt>
      <trkpt lat="45.00871" lon="1.08262">
        <ele>57</ele>
        <time>2014-08-18T08:28:23Z</time>
      </trkpt>
      <trkpt lat="45.00861" lon="1.08264">
        <ele>57</ele>
        <time>2014-08-18T08:28:25Z</time>
      </trkpt>
      <trkpt lat="45.00852" lon="1.08266">
        <ele>58</ele>
        <time>2014-08-18T08:28:27Z</time>
      </trkpt>
      <trkpt lat="45.00839" lon="1.08266">
        <ele>58</ele>
        <time>2014-08-18T08:28:29Z</time>
      </trkpt>
      <trkpt lat="45.00829" lon="1.08267">
        <ele>59</ele>
        <time>2014-08-18T08:28:32Z</time>
      </trkpt>
      <trkpt lat="45.00815" lon="1.08268">
        <ele>59</ele>
        <time>2014-08-18T08:28:35Z</time>
      </trkpt>
      <trkpt lat="45.008" lon="1.08267">
        <ele>60</ele>
        <time>2014-08-18T08:28:38Z</time>
      </trkpt>
      <trkpt lat="45.00785" lon="1.0827">
        <ele>60</ele>
        <time>2014-08-18T08:28:40Z</time>
      </trkpt>
      <trkpt lat="45.00774" lon="1.08274">
        <ele>61</ele>
        <time>2014-08-18T08:28:42Z</time>
      </trkpt>
      <trkpt lat="45.00762" lon="1.08285">
        <ele>62</ele>
        <time>2014-08-18T08:28:45Z</time>
      </trkpt>
      <trkpt lat="45.00755" lon="1.08295">
        <ele>63</ele>
        <time>2014-08-18T08:28:48Z</time>
      </trkpt>
      <trkpt lat="45.0075" lon="1.08304">
        <ele>63</ele>
        <time>2014-08-18T08:28:50Z</time>
      </trkpt>
      <trkpt lat="45.00743" lon="1.08318">
        <ele>64</ele>
        <time>2014-08-18T08:28:53Z</time>
      </trkpt>
      <trkpt lat="45.00736" lon="1.0833">
        <ele>65</ele>
        <time>2014-08-18T08:28:55Z</time>
      </trkpt>
      <trkpt lat="45.00732" lon="1.08339">
        <ele>66</ele>
        <time>2014-08-18T08:28:58Z</time>
      </trkpt>
      <trkpt lat="45.00726" lon="1.08348">
        <ele>66</ele>
        <time>2014-08-18T08:29:00Z</time>
      </trkpt>
      <trkpt lat="45.00721" lon="1.08357">
        <ele>67</ele>
        <time>2014-08-18T08:29:02Z</time>
      </trkpt>
      <trkpt lat="45.00713" lon="1.0837">
        <ele>67</ele>
        <time>2014-08-18T08:29:05Z</time>
      </trkpt>
      <trkpt lat="45.00708" lon="1.08378">
        <ele>68</ele>
        <time>2014-08-18T08:29:07Z</time>
      </trkpt>
      <trkpt lat="45.00698" lon="1.08384">
        <ele>69</ele>
        <time>2014-08-18T08:29:10Z</time>
      </trkpt>
      <trkpt lat="45.00692" lon="1.08383">
        <ele>69</ele>
        <time>2014-08-18T08:29:12Z</time>
      </trkpt>
      <trkpt lat="45.00681" lon="1.0838">
        <ele>70</ele>
        <time>2014-08-18T08:29:15Z</time>
      </trkpt>
      <trkpt lat="45.00671" lon="1.08377">
        <ele>71</ele>
        <time>2014-08-18T08:29:17Z</time>
      </trkpt>
      <trkpt lat="45.00663" lon="1.08375">
        <ele>71</ele>
        <time>2014-08-18T08:29:20Z</time>
      </trkpt>
      <trkpt lat="45.00653" lon="1.08373">
        <ele>72</ele>
        <time>2014-08-18T08:29:22Z</time>
      </trkpt>
      <trkpt lat="45.0064" lon="1.08371">
        <ele>73</ele>
        <time>2014-08-18T08:29:25Z</time>
      </trkpt>
      <trkpt lat="45.00631" lon="1.08373">
        <ele>73</ele>
        <time>2014-08-18T08:29:27Z</time>
      </trkpt>
      <trkpt lat="45.00623" lon="1.08379">
        <ele>73</ele>
        <time>2014-08-18T08:29:29Z</time>
      </trkpt>
      <trkpt lat="45.00613" lon="1.08391">
        <ele>74</ele>
        <time>2014-08-18T08:29:32Z</time>
      </trkpt>
      <trkpt lat="45.00603" lon="1.08404">
        <ele>75</ele>
        <time>2014-08-18T08:29:35Z</time>
      </trkpt>
      <trkpt lat="45.00593" lon="1.08418">
        <ele>75</ele>
        <time>2014-08-18T08:29:38Z</time>
      </trkpt>
      <trkpt lat="45.00585" lon="1.08426">
        <ele>75</ele>
        <time>2014-08-18T08:29:40Z</time>
      </trkpt>
      <trkpt lat="45.00572" lon="1.08429">
        <ele>75</ele>
        <time>2014-08-18T08:29:43Z</time>
      </trkpt>
      <trkpt lat="45.00558" lon="1.08428">
        <ele>76</ele>
        <time>2014-08-18T08:29:46Z</time>
      </trkpt>
      <trkpt lat="45.0055" lon="1.08431">
        <ele>76</ele>
        <time>2014-08-18T08:29:48Z</time>
      </trkpt>
      <trkpt lat="45.00538" lon="1.0844">
        <ele>77</ele>
        <time>2014-08-18T08:29:51Z</time>
      </trkpt>
      <trkpt lat="45.00526" lon="1.0845">
        <ele>78</ele>
        <time>2014-08-18T08:29:53Z</time>
      </trkpt>
      <trkpt lat="45.00518" lon="1.08456">
        <ele>78</ele>
        <time>2014-08-18T08:29:55Z</time>
      </trkpt>
      <trkpt lat="45.0051" lon="1.08459">
        <ele>78</ele>
        <time>2014-08-18T08:29:58Z</time>
      </trkpt>
      <trkpt lat="45.00497" lon="1.08458">
        <ele>79</ele>
        <time>2014-08-18T08:30:01Z</time>
      </trkpt>
      <trkpt lat="45.00484" lon="1.08457">
        <ele>80</ele>
        <time>2014-08-18T08:30:04Z</time>
      </trkpt>
      <trkpt lat="45.00473" lon="1.08459">
        <ele>81</ele>
        <time>2014-08-18T08:30:06Z</time>
      </trkpt>
      <trkpt lat="45.00465" lon="1.08461">
        <ele>82</ele>
        <time>2014-08-18T08:30:09Z</time>
      </trkpt>
      <trkpt lat="45.00453" lon="1.08466">
        <ele>83</ele>
        <time>2014-08-18T08:30:12Z</time>
      </trkpt>
      <trkpt lat="45.00441" lon="1.08468">
        <ele>83</ele>
        <time>2014-08-18T08:30:15Z</time>
      </trkpt>
      <trkpt lat="45.00429" lon="1.08474">
        <ele>84</ele>
        <time>2014-08-18T08:30:18Z</time>
      </trkpt>
      <trkpt lat="45.00416" lon="1.08479">
        <ele>84</ele>
        <time>2014-08-18T08:30:20Z</time>
      </trkpt>
      <trkpt lat="45.00407" lon="1.08484">
        <ele>84</ele>
        <time>2014-08-18T08:30:23Z</time>
      </trkpt>
      <trkpt lat="45.00397" lon="1.08489">
        <ele>84</ele>
        <time>2014-08-18T08:30:25Z</time>
      </trkpt>
      <trkpt lat="45.00384" lon="1.08495">
        <ele>85</ele>
        <time>2014-08-18T08:30:28Z</time>
      </trkpt>
      <trkpt lat="45.00373" lon="1.08501">
        <ele>86</ele>
        <time>2014-08-18T08:30:30Z</time>
      </trkpt>
      <trkpt lat="45.00366" lon="1.08503">
        <ele>86</ele>
        <time>2014-08-18T08:30:33Z</time>
      </trkpt>
      <trkpt lat="45.00359" lon="1.08504">
        <ele>87</ele>
        <time>2014-08-18T08:30:35Z</time>
      </trkpt>
      <trkpt lat="45.00351" lon="1.08507">
        <ele>87</ele>
        <time>2014-08-18T08:30:37Z</time>
      </trkpt>
      <trkpt lat="45.00345" lon="1.08509">
        <ele>88</ele>
        <time>2014-08-18T08:30:40Z</time>
      </trkpt>
      <trkpt lat="45.00339" lon="1.0851">
        <ele>89</ele>
        <time>2014-08-18T08:30:42Z</time>
      </trkpt>
      <trkpt lat="45.00332" lon="1.08512">
        <ele>90</ele>
        <time>2014-08-18T08:30:44Z</time>
      </trkpt>
      <trkpt lat="45.00328" lon="1.08513">
        <ele>91</ele>
        <time>2014-08-18T08:30:46Z</time>
      </trkpt>
      <trkpt lat="45.00323" lon="1.08516">
        <ele>92</ele>
        <time>2014-08-18T08:30:49Z</time>
      </trkpt>
      <trkpt lat="45.00315" lon="1.08519">
        <ele>92</ele>
        <time>2014-08-18T08:30:52Z</time>
      </trkpt>
      <trkpt lat="45.00307" lon="1.08524">
        <ele>94</ele>
        <time>2014-08-18T08:30:54Z</time>
      </trkpt>
      <trkpt lat="45.00299" lon="1.08529">
        <ele>95</ele>
        <time>2014-08-18T08:30:57Z</time>
      </trkpt>
      <trkpt lat="45.00293" lon="1.08533">
        <ele>96</ele>
        <time>2014-08-18T08:31:00Z</time>
      </trkpt>
      <trkpt lat="45.00286" lon="1.08537">
        <ele>97</ele>
        <time>2014-08-18T08:31:03Z</time>
      </trkpt>
      <trkpt lat="45.00279" lon="1.08542">
        <ele>98</ele>
        <time>2014-08-18T08:31:06Z</time>
      </trkpt>
      <trkpt lat="45.00271" lon="1.08546">
        <ele>99</ele>
        <time>2014-08-18T08:31:08Z</time>
      </trkpt>
      <trkpt lat="45.00265" lon="1.08549">
        <ele>100</ele>
        <time>2014-08-18T08:31:11Z</time>
      </trkpt>
      <trkpt lat="45.00259" lon="1.08551">
        <ele>101</ele>
        <time>2014-08-18T08:31:13Z</time>
      </trkpt>
      <trkpt lat="45.00251" lon="1.08553">
        <ele>101</ele>
        <time>2014-08-18T08:31:16Z</time>
      </trkpt>
      <trkpt lat="45.00245" lon="1.08555">
        <ele>102</ele>
        <time>2014-08-18T08:31:19Z</time>
      </trkpt>
      <trkpt lat="45.00239" lon="1.08556">
        <ele>103</ele>
        <time>2014-08-18T08:31:22Z</time>
      </trkpt>
      <trkpt lat="45.0023" lon="1.08558">
        <ele>103</ele>
        <time>2014-08-18T08:31:24Z</time>
      </trkpt>
      <trkpt lat="45.00223" lon="1.08559">
        <ele>103</ele>
        <time>2014-08-18T08:31:27Z</time>
      </trkpt>
      <trkpt lat="45.00216" lon="1.0856">
        <ele>103</ele>
        <time>2014-08-18T08:31:29Z</time>
      </trkpt>
      <trkpt lat="45.00208" lon="1.08561">
        <ele>104</ele>
        <time>2014-08-18T08:31:32Z</time>
      </trkpt>
      <trkpt lat="45.00198" lon="1.08561">
        <ele>105</ele>
        <time>2014-08-18T08:31:34Z</time>
      </trkpt>
      <trkpt lat="45.0019" lon="1.08561">
        <ele>105</ele>
        <time>2014-08-18T08:31:37Z</time>
      </trkpt>
      <trkpt lat="45.00182" lon="1.08561">
        <ele>106</ele>
        <time>2014-08-18T08:31:39Z</time>
      </trkpt>
      <trkpt lat="45.00177" lon="1.08562">
        <ele>106</ele>
        <time>2014-08-18T08:31:41Z</time>
      </trkpt>
      <trkpt lat="45.0017" lon="1.08563">
        <ele>106</ele>
        <time>2014-08-18T08:31:44Z</time>
      </trkpt>
      <trkpt lat="45.00161" lon="1.08563">
        <ele>107</ele>
        <time>2014-08-18T08:31:47Z</time>
      </trkpt>
      <trkpt lat="45.00152" lon="1.08564">
        <ele>108</ele>
        <time>2014-08-18T08:31:50Z</time>
      </trkpt>
      <trkpt lat="45.00144" lon="1.08564">
        <ele>109</ele>
        <time>2014-08-18T08:31:52Z</time>
      </trkpt>
      <trkpt lat="45.00139" lon="1.08564">
        <ele>110</ele>
        <time>2014-08-18T08:31:55Z</time>
      </trkpt>
      <trkpt lat="45.00131" lon="1.08564">
        <ele>110</ele>
        <time>2014-08-18T08:31:58Z</time>
      </trkpt>
      <trkpt lat="45.00119" lon="1.08565">
        <ele>111</ele>
        <time>2014-08-18T08:32:00Z</time>
      </trkpt>
      <trkpt lat="45.00111" lon="1.08565">
        <ele>112</ele>
        <time>2014-08-18T08:32:02Z</time>
      </trkpt>
      <trkpt lat="45.00102" lon="1.08564">
        <ele>114</ele>
        <time>2014-08-18T08:32:05Z</time>
      </trkpt>
      <trkpt lat="45.00096" lon="1.08563">
        <ele>115</ele>
        <time>2014-08-18T08:32:08Z</time>
      </trkpt>
      <trkpt lat="45.0009" lon="1.08562">
        <ele>116</ele>
        <time>2014-08-18T08:32:10Z</time>
      </trkpt>
      <trkpt lat="45.00084" lon="1.08559">
        <ele>117</ele>
        <time>2014-08-18T08:32:13Z</time>
      </trkpt>
      <trkpt lat="45.0008" lon="1.08558">
        <ele>117</ele>
        <time>2014-08-18T08:32:15Z</time>
      </trkpt>
      <trkpt lat="45.00075" lon="1.08558">
        <ele>118</ele>
        <time>2014-08-18T08:32:18Z</time>
      </trkpt>
      <trkpt lat="45.00066" lon="1.08562">
        <ele>119</ele>
        <time>2014-08-18T08:32:21Z</time>
      </trkpt>
      <trkpt lat="45.00056" lon="1.08569">
        <ele>121</ele>
        <time>2014-08-18T08:32:24Z</time>
      </trkpt>
      <trkpt lat="45.00048" lon="1.08575">
        <ele>122</ele>
        <time>2014-08-18T08:32:27Z</time>
      </trkpt>
      <trkpt lat="45.00044" lon="1.08581">
        <ele>123</ele>
        <time>2014-08-18T08:32:29Z</time>
      </trkpt>
      <trkpt lat="45.00039" lon="1.0859">
        <ele>124</ele>
        <time>2014-08-18T08:32:31Z</time>
      </trkpt>
      <trkpt lat="45.00036" lon="1.08596">
        <ele>125</ele>
        <time>2014-08-18T08:32:34Z</time>
      </trkpt>
      <trkpt lat="45.00032" lon="1.08607">
        <ele>126</ele>
        <time>2014-08-18T08:32:36Z</time>
      </trkpt>
      <trkpt lat="45.0003" lon="1.08615">
        <ele>127</ele>
        <time>2014-08-18T08:32:38Z</time>
      </trkpt>
      <trkpt lat="45.00028" lon="1.08622">
        <ele>128</ele>
        <time>2014-08-18T08:32:41Z</time>
      </trkpt>
      <trkpt lat="45.00025" lon="1.08633">
        <ele>129</ele>
        <time>2014-08-18T08:32:43Z</time>
      </trkpt>
      <trkpt lat="45.00025" lon="1.08641">
        <ele>130</ele>
        <time>2014-08-18T08:32:45Z</time>
      </trkpt>
      <trkpt lat="45.00024" lon="1.08649">
        <ele>131</ele>
        <time>2014-08-18T08:32:47Z</time>
      </trkpt>
      <trkpt lat="45.00024" lon="1.08656">
        <ele>131</ele>
        <time>2014-08-18T08:32:49Z</time>
      </trkpt>
      <trkpt lat="45.00025" lon="1.0867">
        <ele>133</ele>
        <time>2014-08-18T08:32:53Z</time>
      </trkpt>
      <trkpt lat="45.00024" lon="1.08683">
        <ele>134</ele>
        <time>2014-08-18T08:32:56Z</time>
      </trkpt>
      <trkpt lat="45.00023" lon="1.08694">
        <ele>135</ele>
        <time>2014-08-18T08:32:58Z</time>
      </trkpt>
      <trkpt lat="45.00021" lon="1.08701">
        <ele>136</ele>
        <time>2014-08-18T08:33:01Z</time>
      </trkpt>
      <trkpt lat="45.00018" lon="1.08709">
        <ele>137</ele>
        <time>2014-08-18T08:33:04Z</time>
      </trkpt>
      <trkpt lat="45.00013" lon="1.08715">
        <ele>138</ele>
        <time>2014-08-18T08:33:07Z</time>
      </trkpt>
      <trkpt lat="45.00009" lon="1.08721">
        <ele>139</ele>
        <time>2014-08-18T08:33:10Z</time>
      </trkpt>
      <trkpt lat="45.00006" lon="1.08725">
        <ele>141</ele>
        <time>2014-08-18T08:33:12Z</time>
      </trkpt>
      <trkpt lat="45.00002" lon="1.08728">
        <ele>141</ele>
        <time>2014-08-18T08:33:15Z</time>
      </trkpt>
      <trkpt lat="44.99997" lon="1.08733">
        <ele>142</ele>
        <time>2014-08-18T08:33:18Z</time>
      </trkpt>
      <trkpt lat="44.99994" lon="1.08736">
        <ele>144</ele>
        <time>2014-08-18T08:33:21Z</time>
      </trkpt>
      <trkpt lat="44.99991" lon="1.08738">
        <ele>144</ele>
        <time>2014-08-18T08:33:23Z</time>
      </trkpt>
      <trkpt lat="44.99986" lon="1.08741">
        <ele>145</ele>
        <time>2014-08-18T08:33:26Z</time>
      </trkpt>
      <trkpt lat="44.99981" lon="1.08742">
        <ele>146</ele>
        <time>2014-08-18T08:33:28Z</time>
      </trkpt>
      <trkpt lat="44.99976" lon="1.08744">
        <ele>147</ele>
        <time>2014-08-18T08:33:31Z</time>
      </trkpt>
      <trkpt lat="44.99973" lon="1.08746">
        <ele>148</ele>
        <time>2014-08-18T08:33:34Z</time>
      </trkpt>
      <trkpt lat="44.9997" lon="1.08748">
        <ele>149</ele>
        <time>2014-08-18T08:33:36Z</time>
      </trkpt>
      <trkpt lat="44.99966" lon="1.0875">
        <ele>149</ele>
        <time>2014-08-18T08:33:39Z</time>
      </trkpt>
      <trkpt lat="44.99963" lon="1.08752">
        <ele>150</ele>
        <time>2014-08-18T08:33:41Z</time>
      </trkpt>
      <trkpt lat="44.9996" lon="1.08753">
        <ele>151</ele>
        <time>2014-08-18T08:33:44Z</time>
      </trkpt>
      <trkpt lat="44.99954" lon="1.08755">
        <ele>151</ele>
        <time>2014-08-18T08:33:46Z</time>
      </trkpt>
      <trkpt lat="44.9995" lon="1.08756">
        <ele>153</ele>
        <time>2014-08-18T08:33:48Z</time>
      </trkpt>
      <trkpt lat="44.99946" lon="1.08757">
        <ele>153</ele>
        <time>2014-08-18T08:33:50Z</time>
      </trkpt>
      <trkpt lat="44.99944" lon="1.08758">
        <ele>154</ele>
        <time>2014-08-18T08:33:53Z</time>
      </trkpt>
      <trkpt lat="44.99939" lon="1.08759">
        <ele>155</ele>
        <time>2014-08-18T08:33:55Z</time>
      </trkpt>
      <trkpt lat="44.99936" lon="1.0876">
        <ele>155</ele>
        <time>2014-08-18T08:33:57Z</time>
      </trkpt>
      <trkpt lat="44.99931" lon="1.08762">
        <ele>156</ele>
        <time>2014-08-18T08:33:59Z</time>
      </trkpt>
      <trkpt lat="44.99926" lon="1.08762">
        <ele>156</ele>
        <time>2014-08-18T08:34:02Z</time>
      </trkpt>
      <trkpt lat="44.9992" lon="1.08762">
        <ele>157</ele>
        <time>2014-08-18T08:34:04Z</time>
      </trkpt>
      <trkpt lat="44.99915" lon="1.08763">
        <ele>158</ele>
        <time>2014-08-18T08:34:06Z</time>
      </trkpt>
      <trkpt lat="44.99912" lon="1.08763">
        <ele>158</ele>
        <time>2014-08-18T08:34:08Z</time>
      </trkpt>
      <trkpt lat="44.99908" lon="1.08763">
        <ele>158</ele>
        <time>2014-08-18T08:34:11Z</time>
      </trkpt>
      <trkpt lat="44.99899" lon="1.08764">
        <ele>159</ele>
        <time>2014-08-18T08:34:13Z</time>
      </trkpt>
      <trkpt lat="44.99894" lon="1.08765">
        <ele>160</ele>
        <time>2014-08-18T08:34:15Z</time>
      </trkpt>
      <trkpt lat="44.99888" lon="1.08767">
        <ele>160</ele>
        <time>2014-08-18T08:34:17Z</time>
      </trkpt>
      <trkpt lat="44.99882" lon="1.08769">
        <ele>161</ele>
        <time>2014-08-18T08:34:20Z</time>
      </trkpt>
      <trkpt lat="44.99871" lon="1.08775">
        <ele>161</ele>
        <time>2014-08-18T08:34:22Z</time>
      </trkpt>
      <trkpt lat="44.99863" lon="1.0878">
        <ele>161</ele>
        <time>2014-08-18T08:34:24Z</time>
      </trkpt>
      <trkpt lat="44.99856" lon="1.08782">
        <ele>162</ele>
        <time>2014-08-18T08:34:26Z</time>
      </trkpt>
      <trkpt lat="44.9985" lon="1.08787">
        <ele>162</ele>
        <time>2014-08-18T08:34:28Z</time>
      </trkpt>
      <trkpt lat="44.9984" lon="1.08794">
        <ele>162</ele>
        <time>2014-08-18T08:34:31Z</time>
      </trkpt>
      <trkpt lat="44.99833" lon="1.08799">
        <ele>162</ele>
        <time>2014-08-18T08:34:33Z</time>
      </trkpt>
      <trkpt lat="44.99821" lon="1.08808">
        <ele>162</ele>
        <time>2014-08-18T08:34:36Z</time>
      </trkpt>
      <trkpt lat="44.99813" lon="1.08814">
        <ele>163</ele>
        <time>2014-08-18T08:34:38Z</time>
      </trkpt>
      <trkpt lat="44.99802" lon="1.08824">
        <ele>163</ele>
        <time>2014-08-18T08:34:41Z</time>
      </trkpt>
      <trkpt lat="44.99795" lon="1.08831">
        <ele>163</ele>
        <time>2014-08-18T08:34:43Z</time>
      </trkpt>
      <trkpt lat="44.99781" lon="1.0884">
        <ele>164</ele>
        <time>2014-08-18T08:34:46Z</time>
      </trkpt>
      <trkpt lat="44.99767" lon="1.0885">
        <ele>164</ele>
        <time>2014-08-18T08:34:49Z</time>
      </trkpt>
      <trkpt lat="44.99759" lon="1.08854">
        <ele>164</ele>
        <time>2014-08-18T08:34:52Z</time>
      </trkpt>
      <trkpt lat="44.99748" lon="1.0886">
        <ele>164</ele>
        <time>2014-08-18T08:34:54Z</time>
      </trkpt>
      <trkpt lat="44.9974" lon="1.08864">
        <ele>164</ele>
        <time>2014-08-18T08:34:56Z</time>
      </trkpt>
      <trkpt lat="44.9973" lon="1.08869">
        <ele>164</ele>
        <time>2014-08-18T08:34:59Z</time>
      </trkpt>
      <trkpt lat="44.99723" lon="1.08871">
        <ele>164</ele>
        <time>2014-08-18T08:35:01Z</time>
      </trkpt>
      <trkpt lat="44.99712" lon="1.08873">
        <ele>165</ele>
        <time>2014-08-18T08:35:04Z</time>
      </trkpt>
      <trkpt lat="44.99697" lon="1.0888">
        <ele>165</ele>
        <time>2014-08-18T08:35:07Z</time>
      </trkpt>
      <trkpt lat="44.99688" lon="1.08888">
        <ele>165</ele>
        <time>2014-08-18T08:35:09Z</time>
      </trkpt>
      <trkpt lat="44.99674" lon="1.08899">
        <ele>166</ele>
        <time>2014-08-18T08:35:12Z</time>
      </trkpt>
      <trkpt lat="44.99659" lon="1.08911">
        <ele>166</ele>
        <time>2014-08-18T08:35:15Z</time>
      </trkpt>
      <trkpt lat="44.99648" lon="1.08917">
        <ele>166</ele>
        <time>2014-08-18T08:35:17Z</time>
      </trkpt>
      <trkpt lat="44.99632" lon="1.08927">
        <ele>166</ele>
        <time>2014-08-18T08:35:20Z</time>
      </trkpt>
      <trkpt lat="44.9962" lon="1.08933">
        <ele>166</ele>
        <time>2014-08-18T08:35:22Z</time>
      </trkpt>
      <trkpt lat="44.99609" lon="1.0894">
        <ele>166</ele>
        <time>2014-08-18T08:35:24Z</time>
      </trkpt>
      <trkpt lat="44.99598" lon="1.08948">
        <ele>167</ele>
        <time>2014-08-18T08:35:26Z</time>
      </trkpt>
      <trkpt lat="44.99588" lon="1.08956">
        <ele>167</ele>
        <time>2014-08-18T08:35:28Z</time>
      </trkpt>
      <trkpt lat="44.99573" lon="1.08969">
        <ele>168</ele>
        <time>2014-08-18T08:35:31Z</time>
      </trkpt>
      <trkpt lat="44.99559" lon="1.08983">
        <ele>168</ele>
        <time>2014-08-18T08:35:35Z</time>
      </trkpt>
      <trkpt lat="44.99545" lon="1.08996">
        <ele>168</ele>
        <time>2014-08-18T08:35:37Z</time>
      </trkpt>
      <trkpt lat="44.99531" lon="1.0901">
        <ele>169</ele>
        <time>2014-08-18T08:35:40Z</time>
      </trkpt>
      <trkpt lat="44.99522" lon="1.09019">
        <ele>169</ele>
        <time>2014-08-18T08:35:42Z</time>
      </trkpt>
      <trkpt lat="44.99513" lon="1.09027">
        <ele>170</ele>
        <time>2014-08-18T08:35:44Z</time>
      </trkpt>
      <trkpt lat="44.99498" lon="1.0904">
        <ele>170</ele>
        <time>2014-08-18T08:35:47Z</time>
      </trkpt>
      <trkpt lat="44.99484" lon="1.09055">
        <ele>171</ele>
        <time>2014-08-18T08:35:50Z</time>
      </trkpt>
      <trkpt lat="44.99475" lon="1.09064">
        <ele>171</ele>
        <time>2014-08-18T08:35:52Z</time>
      </trkpt>
      <trkpt lat="44.99463" lon="1.09079">
        <ele>172</ele>
        <time>2014-08-18T08:35:56Z</time>
      </trkpt>
      <trkpt lat="44.99452" lon="1.09096">
        <ele>173</ele>
        <time>2014-08-18T08:35:58Z</time>
      </trkpt>
      <trkpt lat="44.99445" lon="1.09107">
        <ele>173</ele>
        <time>2014-08-18T08:36:00Z</time>
      </trkpt>
      <trkpt lat="44.99439" lon="1.09119">
        <ele>173</ele>
        <time>2014-08-18T08:36:02Z</time>
      </trkpt>
      <trkpt lat="44.99433" lon="1.09129">
        <ele>174</ele>
        <time>2014-08-18T08:36:05Z</time>
      </trkpt>
      <trkpt lat="44.99424" lon="1.09144">
        <ele>174</ele>
        <time>2014-08-18T08:36:07Z</time>
      </trkpt>
      <trkpt lat="44.99416" lon="1.09157">
        <ele>175</ele>
        <time>2014-08-18T08:36:10Z</time>
      </trkpt>
      <trkpt lat="44.99411" lon="1.09166">
        <ele>175</ele>
        <time>2014-08-18T08:36:12Z</time>
      </trkpt>
      <trkpt lat="44.99405" lon="1.09175">
        <ele>175</ele>
        <time>2014-08-18T08:36:14Z</time>
      </trkpt>
      <trkpt lat="44.99396" lon="1.09189">
        <ele>176</ele>
        <time>2014-08-18T08:36:17Z</time>
      </trkpt>
      <trkpt lat="44.99393" lon="1.09194">
        <ele>176</ele>
        <time>2014-08-18T08:36:19Z</time>
      </trkpt>
      <trkpt lat="44.99393" lon="1.09195">
        <ele>177</ele>
        <time>2014-08-18T08:36:21Z</time>
      </trkpt>
      <trkpt lat="44.99393" lon="1.09196">
        <ele>177</ele>
        <time>2014-08-18T08:36:24Z</time>
      </trkpt>
      <trkpt lat="44.99395" lon="1.09205">
        <ele>178</ele>
        <time>2014-08-18T08:36:27Z</time>
      </trkpt>
      <trkpt lat="44.99395" lon="1.09205">
        <ele>178</ele>
        <time>2014-08-18T08:36:29Z</time>
      </trkpt>
      <trkpt lat="44.99394" lon="1.09202">
        <ele>178</ele>
        <time>2014-08-18T08:36:31Z</time>
      </trkpt>
      <trkpt lat="44.99392" lon="1.09198">
        <ele>178</ele>
        <time>2014-08-18T08:36:33Z</time>
      </trkpt>
      <trkpt lat="44.99391" lon="1.09191">
        <ele>177</ele>
        <time>2014-08-18T08:36:35Z</time>
      </trkpt>
      <trkpt lat="44.99388" lon="1.09184">
        <ele>177</ele>
        <time>2014-08-18T08:36:37Z</time>
      </trkpt>
      <trkpt lat="44.99386" lon="1.09178">
        <ele>177</ele>
        <time>2014-08-18T08:36:40Z</time>
      </trkpt>
      <trkpt lat="44.99385" lon="1.09173">
        <ele>177</ele>
        <time>2014-08-18T08:36:42Z</time>
      </trkpt>
      <trkpt lat="44.99381" lon="1.09161">
        <ele>176</ele>
        <time>2014-08-18T08:36:45Z</time>
      </trkpt>
      <trkpt lat="44.99377" lon="1.09149">
        <ele>176</ele>
        <time>2014-08-18T08:36:47Z</time>
      </trkpt>
      <trkpt lat="44.99371" lon="1.09133">
        <ele>175</ele>
        <time>2014-08-18T08:36:49Z</time>
      </trkpt>
      <trkpt lat="44.99367" lon="1.09103">
        <ele>173</ele>
        <time>2014-08-18T08:36:52Z</time>
      </trkpt>
      <trkpt lat="44.99366" lon="1.09077">
        <ele>170</ele>
        <time>2014-08-18T08:36:55Z</time>
      </trkpt>
      <trkpt lat="44.99355" lon="1.09062">
        <ele>168</ele>
        <time>2014-08-18T08:36:57Z</time>
      </trkpt>
      <trkpt lat="44.99344" lon="1.09043">
        <ele>165</ele>
        <time>2014-08-18T08:36:59Z</time>
      </trkpt>
      <trkpt lat="44.99333" lon="1.09024">
        <ele>162</ele>
        <time>2014-08-18T08:37:02Z</time>
      </trkpt>
      <trkpt lat="44.99331" lon="1.0902">
        <ele>160</ele>
        <time>2014-08-18T08:37:04Z</time>
      </trkpt>
      <trkpt lat="44.99328" lon="1.09012">
        <ele>158</ele>
        <time>2014-08-18T08:37:06Z</time>
      </trkpt>
      <trkpt lat="44.99319" lon="1.08997">
        <ele>156</ele>
        <time>2014-08-18T08:37:09Z</time>
      </trkpt>
      <trkpt lat="44.99317" lon="1.0899">
        <ele>155</ele>
        <time>2014-08-18T08:37:11Z</time>
      </trkpt>
      <trkpt lat="44.99313" lon="1.0898">
        <ele>153</ele>
        <time>2014-08-18T08:37:13Z</time>
      </trkpt>
      <trkpt lat="44.99309" lon="1.08966">
        <ele>150</ele>
        <time>2014-08-18T08:37:16Z</time>
      </trkpt>
      <trkpt lat="44.99307" lon="1.08958">
        <ele>148</ele>
        <time>2014-08-18T08:37:18Z</time>
      </trkpt>
      <trkpt lat="44.99305" lon="1.08951">
        <ele>146</ele>
        <time>2014-08-18T08:37:20Z</time>
      </trkpt>
      <trkpt lat="44.99299" lon="1.08943">
        <ele>145</ele>
        <time>2014-08-18T08:37:22Z</time>
      </trkpt>
      <trkpt lat="44.99293" lon="1.08931">
        <ele>143</ele>
        <time>2014-08-18T08:37:25Z</time>
      </trkpt>
      <trkpt lat="44.99285" lon="1.08928">
        <ele>140</ele>
        <time>2014-08-18T08:37:28Z</time>
      </trkpt>
      <trkpt lat="44.99279" lon="1.08935">
        <ele>138</ele>
        <time>2014-08-18T08:37:31Z</time>
      </trkpt>
      <trkpt lat="44.99273" lon="1.08938">
        <ele>138</ele>
        <time>2014-08-18T08:37:33Z</time>
      </trkpt>
      <trkpt lat="44.99264" lon="1.08945">
        <ele>138</ele>
        <time>2014-08-18T08:37:36Z</time>
      </trkpt>
      <trkpt lat="44.99251" lon="1.08948">
        <ele>137</ele>
        <time>2014-08-18T08:37:39Z</time>
      </trkpt>
      <trkpt lat="44.99246" lon="1.08954">
        <ele>137</ele>
        <time>2014-08-18T08:37:41Z</time>
      </trkpt>
      <trkpt lat="44.9924" lon="1.08956">
        <ele>137</ele>
        <time>2014-08-18T08:37:43Z</time>
      </trkpt>
      <trkpt lat="44.99228" lon="1.08957">
        <ele>136</ele>
        <time>2014-08-18T08:37:46Z</time>
      </trkpt>
      <trkpt lat="44.9922" lon="1.08948">
        <ele>135</ele>
        <time>2014-08-18T08:37:49Z</time>
      </trkpt>
      <trkpt lat="44.99215" lon="1.08939">
        <ele>133</ele>
        <time>2014-08-18T08:37:51Z</time>
      </trkpt>
      <trkpt lat="44.99213" lon="1.08934">
        <ele>131</ele>
        <time>2014-08-18T08:37:53Z</time>
      </trkpt>
      <trkpt lat="44.99205" lon="1.08933">
        <ele>128</ele>
        <time>2014-08-18T08:37:56Z</time>
      </trkpt>
      <trkpt lat="44.99202" lon="1.08928">
        <ele>127</ele>
        <time>2014-08-18T08:37:58Z</time>
      </trkpt>
      <trkpt lat="44.992" lon="1.08918">
        <ele>126</ele>
        <time>2014-08-18T08:38:00Z</time>
      </trkpt>
      <trkpt lat="44.99201" lon="1.08903">
        <ele>125</ele>
        <time>2014-08-18T08:38:02Z</time>
      </trkpt>
      <trkpt lat="44.99203" lon="1.08887">
        <ele>124</ele>
        <time>2014-08-18T08:38:04Z</time>
      </trkpt>
      <trkpt lat="44.99205" lon="1.0887">
        <ele>121</ele>
        <time>2014-08-18T08:38:06Z</time>
      </trkpt>
      <trkpt lat="44.99208" lon="1.08846">
        <ele>117</ele>
        <time>2014-08-18T08:38:09Z</time>
      </trkpt>
      <trkpt lat="44.99206" lon="1.08818">
        <ele>113</ele>
        <time>2014-08-18T08:38:12Z</time>
      </trkpt>
      <trkpt lat="44.992" lon="1.08795">
        <ele>108</ele>
        <time>2014-08-18T08:38:15Z</time>
      </trkpt>
      <trkpt lat="44.99193" lon="1.08778">
        <ele>105</ele>
        <time>2014-08-18T08:38:18Z</time>
      </trkpt>
      <trkpt lat="44.99187" lon="1.08768">
        <ele>103</ele>
        <time>2014-08-18T08:38:20Z</time>
      </trkpt>
      <trkpt lat="44.99183" lon="1.08757">
        <ele>101</ele>
        <time>2014-08-18T08:38:23Z</time>
      </trkpt>
      <trkpt lat="44.99183" lon="1.08749">
        <ele>100</ele>
        <time>2014-08-18T08:38:25Z</time>
      </trkpt>
      <trkpt lat="44.99189" lon="1.08742">
        <ele>99</ele>
        <time>2014-08-18T08:38:28Z</time>
      </trkpt>
      <trkpt lat="44.99196" lon="1.08737">
        <ele>99</ele>
        <time>2014-08-18T08:38:30Z</time>
      </trkpt>
      <trkpt lat="44.99207" lon="1.08728">
        <ele>100</ele>
        <time>2014-08-18T08:38:33Z</time>
      </trkpt>
      <trkpt lat="44.99216" lon="1.08723">
        <ele>99</ele>
        <time>2014-08-18T08:38:35Z</time>
      </trkpt>
      <trkpt lat="44.9923" lon="1.08713">
        <ele>99</ele>
        <time>2014-08-18T08:38:38Z</time>
      </trkpt>
      <trkpt lat="44.99239" lon="1.08703">
        <ele>98</ele>
        <time>2014-08-18T08:38:40Z</time>
      </trkpt>
      <trkpt lat="44.9925" lon="1.08694">
        <ele>98</ele>
        <time>2014-08-18T08:38:42Z</time>
      </trkpt>
      <trkpt lat="44.9926" lon="1.08683">
        <ele>98</ele>
        <time>2014-08-18T08:38:44Z</time>
      </trkpt>
      <trkpt lat="44.99268" lon="1.08675">
        <ele>98</ele>
        <time>2014-08-18T08:38:46Z</time>
      </trkpt>
      <trkpt lat="44.99275" lon="1.08669">
        <ele>98</ele>
        <time>2014-08-18T08:38:48Z</time>
      </trkpt>
      <trkpt lat="44.99283" lon="1.08662">
        <ele>99</ele>
        <time>2014-08-18T08:38:50Z</time>
      </trkpt>
      <trkpt lat="44.99295" lon="1.08652">
        <ele>99</ele>
        <time>2014-08-18T08:38:53Z</time>
      </trkpt>
      <trkpt lat="44.99304" lon="1.08645">
        <ele>99</ele>
        <time>2014-08-18T08:38:55Z</time>
      </trkpt>
      <trkpt lat="44.99318" lon="1.08633">
        <ele>99</ele>
        <time>2014-08-18T08:38:58Z</time>
      </trkpt>
      <trkpt lat="44.99331" lon="1.08622">
        <ele>99</ele>
        <time>2014-08-18T08:39:01Z</time>
      </trkpt>
      <trkpt lat="44.9934" lon="1.08615">
        <ele>99</ele>
        <time>2014-08-18T08:39:03Z</time>
      </trkpt>
      <trkpt lat="44.9935" lon="1.08608">
        <ele>99</ele>
        <time>2014-08-18T08:39:05Z</time>
      </trkpt>
      <trkpt lat="44.99359" lon="1.08602">
        <ele>99</ele>
        <time>2014-08-18T08:39:07Z</time>
      </trkpt>
      <trkpt lat="44.99373" lon="1.08591">
        <ele>99</ele>
        <time>2014-08-18T08:39:10Z</time>
      </trkpt>
      <trkpt lat="44.99382" lon="1.08581">
        <ele>99</ele>
        <time>2014-08-18T08:39:12Z</time>
      </trkpt>
      <trkpt lat="44.99394" lon="1.08564">
        <ele>99</ele>
        <time>2014-08-18T08:39:15Z</time>
      </trkpt>
      <trkpt lat="44.99403" lon="1.08551">
        <ele>99</ele>
        <time>2014-08-18T08:39:17Z</time>
      </trkpt>
      <trkpt lat="44.99411" lon="1.08536">
        <ele>99</ele>
        <time>2014-08-18T08:39:19Z</time>
      </trkpt>
      <trkpt lat="44.99424" lon="1.08513">
        <ele>99</ele>
        <time>2014-08-18T08:39:22Z</time>
      </trkpt>
      <trkpt lat="44.99431" lon="1.085">
        <ele>100</ele>
        <time>2014-08-18T08:39:24Z</time>
      </trkpt>
      <trkpt lat="44.99438" lon="1.08488">
        <ele>100</ele>
        <time>2014-08-18T08:39:26Z</time>
      </trkpt>
      <trkpt lat="44.99445" lon="1.08476">
        <ele>100</ele>
        <time>2014-08-18T08:39:28Z</time>
      </trkpt>
      <trkpt lat="44.99452" lon="1.08464">
        <ele>100</ele>
        <time>2014-08-18T08:39:30Z</time>
      </trkpt>
      <trkpt lat="44.9946" lon="1.08452">
        <ele>100</ele>
        <time>2014-08-18T08:39:32Z</time>
      </trkpt>
      <trkpt lat="44.99468" lon="1.08439">
        <ele>100</ele>
        <time>2014-08-18T08:39:34Z</time>
      </trkpt>
      <trkpt lat="44.99476" lon="1.08426">
        <ele>100</ele>
        <time>2014-08-18T08:39:36Z</time>
      </trkpt>
      <trkpt lat="44.99489" lon="1.08401">
        <ele>99</ele>
        <time>2014-08-18T08:39:39Z</time>
      </trkpt>
      <trkpt lat="44.99498" lon="1.08381">
        <ele>99</ele>
        <time>2014-08-18T08:39:41Z</time>
      </trkpt>
      <trkpt lat="44.99506" lon="1.08362">
        <ele>98</ele>
        <time>2014-08-18T08:39:43Z</time>
      </trkpt>
      <trkpt lat="44.99513" lon="1.08343">
        <ele>97</ele>
        <time>2014-08-18T08:39:45Z</time>
      </trkpt>
      <trkpt lat="44.9952" lon="1.08312">
        <ele>97</ele>
        <time>2014-08-18T08:39:48Z</time>
      </trkpt>
      <trkpt lat="44.99525" lon="1.08283">
        <ele>97</ele>
        <time>2014-08-18T08:39:51Z</time>
      </trkpt>
      <trkpt lat="44.99528" lon="1.08262">
        <ele>98</ele>
        <time>2014-08-18T08:39:54Z</time>
      </trkpt>
      <trkpt lat="44.99531" lon="1.08249">
        <ele>98</ele>
        <time>2014-08-18T08:39:56Z</time>
      </trkpt>
      <trkpt lat="44.99534" lon="1.08236">
        <ele>98</ele>
        <time>2014-08-18T08:39:58Z</time>
      </trkpt>
      <trkpt lat="44.99533" lon="1.08221">
        <ele>98</ele>
        <time>2014-08-18T08:40:00Z</time>
      </trkpt>
      <trkpt lat="44.99529" lon="1.08208">
        <ele>98</ele>
        <time>2014-08-18T08:40:02Z</time>
      </trkpt>
      <trkpt lat="44.99525" lon="1.08201">
        <ele>98</ele>
        <time>2014-08-18T08:40:04Z</time>
      </trkpt>
      <trkpt lat="44.99523" lon="1.08198">
        <ele>98</ele>
        <time>2014-08-18T08:40:06Z</time>
      </trkpt>
      <trkpt lat="44.99522" lon="1.08194">
        <ele>98</ele>
        <time>2014-08-18T08:40:08Z</time>
      </trkpt>
      <trkpt lat="44.99522" lon="1.08192">
        <ele>97</ele>
        <time>2014-08-18T08:40:11Z</time>
      </trkpt>
      <trkpt lat="44.99522" lon="1.08191">
        <ele>98</ele>
        <time>2014-08-18T08:40:13Z</time>
      </trkpt>
      <trkpt lat="44.99522" lon="1.0819">
        <ele>98</ele>
        <time>2014-08-18T08:40:15Z</time>
      </trkpt>
      <trkpt lat="44.99521" lon="1.08187">
        <ele>98</ele>
        <time>2014-08-18T08:40:17Z</time>
      </trkpt>
      <trkpt lat="44.99518" lon="1.08184">
        <ele>98</ele>
        <time>2014-08-18T08:40:19Z</time>
      </trkpt>
      <trkpt lat="44.99507" lon="1.08173">
        <ele>98</ele>
        <time>2014-08-18T08:40:22Z</time>
      </trkpt>
      <trkpt lat="44.99492" lon="1.08163">
        <ele>98</ele>
        <time>2014-08-18T08:40:25Z</time>
      </trkpt>
      <trkpt lat="44.99475" lon="1.08155">
        <ele>98</ele>
        <time>2014-08-18T08:40:28Z</time>
      </trkpt>
      <trkpt lat="44.99464" lon="1.0815">
        <ele>97</ele>
        <time>2014-08-18T08:40:30Z</time>
      </trkpt>
      <trkpt lat="44.99453" lon="1.08146">
        <ele>98</ele>
        <time>2014-08-18T08:40:32Z</time>
      </trkpt>
      <trkpt lat="44.99437" lon="1.08141">
        <ele>98</ele>
        <time>2014-08-18T08:40:35Z</time>
      </trkpt>
      <trkpt lat="44.99426" lon="1.08136">
        <ele>97</ele>
        <time>2014-08-18T08:40:37Z</time>
      </trkpt>
      <trkpt lat="44.99409" lon="1.08132">
        <ele>97</ele>
        <time>2014-08-18T08:40:40Z</time>
      </trkpt>
      <trkpt lat="44.99392" lon="1.0813">
        <ele>97</ele>
        <time>2014-08-18T08:40:43Z</time>
      </trkpt>
      <trkpt lat="44.99375" lon="1.08132">
        <ele>97</ele>
        <time>2014-08-18T08:40:46Z</time>
      </trkpt>
      <trkpt lat="44.99359" lon="1.08134">
        <ele>97</ele>
        <time>2014-08-18T08:40:49Z</time>
      </trkpt>
      <trkpt lat="44.99348" lon="1.08133">
        <ele>98</ele>
        <time>2014-08-18T08:40:51Z</time>
      </trkpt>
      <trkpt lat="44.99337" lon="1.08128">
        <ele>97</ele>
        <time>2014-08-18T08:40:53Z</time>
      </trkpt>
      <trkpt lat="44.99321" lon="1.08124">
        <ele>98</ele>
        <time>2014-08-18T08:40:56Z</time>
      </trkpt>
      <trkpt lat="44.99312" lon="1.08121">
        <ele>98</ele>
        <time>2014-08-18T08:40:58Z</time>
      </trkpt>
      <trkpt lat="44.993" lon="1.08118">
        <ele>98</ele>
        <time>2014-08-18T08:41:01Z</time>
      </trkpt>
      <trkpt lat="44.9929" lon="1.08114">
        <ele>98</ele>
        <time>2014-08-18T08:41:04Z</time>
      </trkpt>
      <trkpt lat="44.99282" lon="1.0811">
        <ele>98</ele>
        <time>2014-08-18T08:41:06Z</time>
      </trkpt>
      <trkpt lat="44.99268" lon="1.08105">
        <ele>98</ele>
        <time>2014-08-18T08:41:09Z</time>
      </trkpt>
      <trkpt lat="44.99255" lon="1.08097">
        <ele>98</ele>
        <time>2014-08-18T08:41:12Z</time>
      </trkpt>
      <trkpt lat="44.99247" lon="1.08093">
        <ele>98</ele>
        <time>2014-08-18T08:41:14Z</time>
      </trkpt>
      <trkpt lat="44.9924" lon="1.08089">
        <ele>98</ele>
        <time>2014-08-18T08:41:16Z</time>
      </trkpt>
      <trkpt lat="44.99231" lon="1.08083">
        <ele>98</ele>
        <time>2014-08-18T08:41:19Z</time>
      </trkpt>
      <trkpt lat="44.99225" lon="1.08079">
        <ele>98</ele>
        <time>2014-08-18T08:41:21Z</time>
      </trkpt>
      <trkpt lat="44.99218" lon="1.08075">
        <ele>99</ele>
        <time>2014-08-18T08:41:23Z</time>
      </trkpt>
      <trkpt lat="44.99208" lon="1.0807">
        <ele>99</ele>
        <time>2014-08-18T08:41:26Z</time>
      </trkpt>
      <trkpt lat="44.99201" lon="1.08065">
        <ele>99</ele>
        <time>2014-08-18T08:41:28Z</time>
      </trkpt>
      <trkpt lat="44.99195" lon="1.08061">
        <ele>99</ele>
        <time>2014-08-18T08:41:30Z</time>
      </trkpt>
      <trkpt lat="44.99186" lon="1.0806">
        <ele>99</ele>
        <time>2014-08-18T08:41:32Z</time>
      </trkpt>
      <trkpt lat="44.99171" lon="1.08059">
        <ele>99</ele>
        <time>2014-08-18T08:41:35Z</time>
      </trkpt>
      <trkpt lat="44.99162" lon="1.0806">
        <ele>99</ele>
        <time>2014-08-18T08:41:37Z</time>
      </trkpt>
      <trkpt lat="44.9915" lon="1.08061">
        <ele>99</ele>
        <time>2014-08-18T08:41:40Z</time>
      </trkpt>
      <trkpt lat="44.99141" lon="1.08061">
        <ele>99</ele>
        <time>2014-08-18T08:41:42Z</time>
      </trkpt>
      <trkpt lat="44.9913" lon="1.08063">
        <ele>99</ele>
        <time>2014-08-18T08:41:45Z</time>
      </trkpt>
      <trkpt lat="44.99121" lon="1.08064">
        <ele>100</ele>
        <time>2014-08-18T08:41:48Z</time>
      </trkpt>
      <trkpt lat="44.99115" lon="1.08064">
        <ele>100</ele>
        <time>2014-08-18T08:41:50Z</time>
      </trkpt>
      <trkpt lat="44.99107" lon="1.08066">
        <ele>100</ele>
        <time>2014-08-18T08:41:53Z</time>
      </trkpt>
      <trkpt lat="44.99101" lon="1.08065">
        <ele>100</ele>
        <time>2014-08-18T08:41:55Z</time>
      </trkpt>
      <trkpt lat="44.99097" lon="1.08064">
        <ele>101</ele>
        <time>2014-08-18T08:41:57Z</time>
      </trkpt>
      <trkpt lat="44.99092" lon="1.08063">
        <ele>101</ele>
        <time>2014-08-18T08:41:59Z</time>
      </trkpt>
      <trkpt lat="44.99083" lon="1.08059">
        <ele>102</ele>
        <time>2014-08-18T08:42:02Z</time>
      </trkpt>
      <trkpt lat="44.99077" lon="1.08056">
        <ele>102</ele>
        <time>2014-08-18T08:42:04Z</time>
      </trkpt>
      <trkpt lat="44.99071" lon="1.08053">
        <ele>103</ele>
        <time>2014-08-18T08:42:06Z</time>
      </trkpt>
      <trkpt lat="44.99065" lon="1.08047">
        <ele>104</ele>
        <time>2014-08-18T08:42:09Z</time>
      </trkpt>
      <trkpt lat="44.99059" lon="1.08042">
        <ele>104</ele>
        <time>2014-08-18T08:42:12Z</time>
      </trkpt>
      <trkpt lat="44.99053" lon="1.08035">
        <ele>104</ele>
        <time>2014-08-18T08:42:15Z</time>
      </trkpt>
      <trkpt lat="44.99054" lon="1.08029">
        <ele>103</ele>
        <time>2014-08-18T08:42:17Z</time>
      </trkpt>
      <trkpt lat="44.99057" lon="1.08012">
        <ele>103</ele>
        <time>2014-08-18T08:42:20Z</time>
      </trkpt>
      <trkpt lat="44.99058" lon="1.07999">
        <ele>101</ele>
        <time>2014-08-18T08:42:22Z</time>
      </trkpt>
      <trkpt lat="44.99059" lon="1.07983">
        <ele>100</ele>
        <time>2014-08-18T08:42:24Z</time>
      </trkpt>
      <trkpt lat="44.99059" lon="1.0796">
        <ele>98</ele>
        <time>2014-08-18T08:42:27Z</time>
      </trkpt>
      <trkpt lat="44.99061" lon="1.0794">
        <ele>95</ele>
        <time>2014-08-18T08:42:30Z</time>
      </trkpt>
      <trkpt lat="44.99063" lon="1.07929">
        <ele>93</ele>
        <time>2014-08-18T08:42:32Z</time>
      </trkpt>
      <trkpt lat="44.99064" lon="1.07922">
        <ele>91</ele>
        <time>2014-08-18T08:42:34Z</time>
      </trkpt>
      <trkpt lat="44.99064" lon="1.07919">
        <ele>88</ele>
        <time>2014-08-18T08:42:37Z</time>
      </trkpt>
      <trkpt lat="44.99065" lon="1.07916">
        <ele>87</ele>
        <time>2014-08-18T08:42:40Z</time>
      </trkpt>
      <trkpt lat="44.99066" lon="1.07914">
        <ele>86</ele>
        <time>2014-08-18T08:42:42Z</time>
      </trkpt>
      <trkpt lat="44.99067" lon="1.07912">
        <ele>86</ele>
        <time>2014-08-18T08:42:45Z</time>
      </trkpt>
      <trkpt lat="44.99067" lon="1.07909">
        <ele>84</ele>
        <time>2014-08-18T08:42:48Z</time>
      </trkpt>
      <trkpt lat="44.99068" lon="1.07906">
        <ele>83</ele>
        <time>2014-08-18T08:42:51Z</time>
      </trkpt>
      <trkpt lat="44.99067" lon="1.07902">
        <ele>83</ele>
        <time>2014-08-18T08:42:53Z</time>
      </trkpt>
      <trkpt lat="44.99064" lon="1.07896">
        <ele>83</ele>
        <time>2014-08-18T08:42:55Z</time>
      </trkpt>
      <trkpt lat="44.99055" lon="1.07891">
        <ele>83</ele>
        <time>2014-08-18T08:42:58Z</time>
      </trkpt>
      <trkpt lat="44.99046" lon="1.07883">
        <ele>84</ele>
        <time>2014-08-18T08:43:01Z</time>
      </trkpt>
      <trkpt lat="44.99041" lon="1.07878">
        <ele>85</ele>
        <time>2014-08-18T08:43:03Z</time>
      </trkpt>
      <trkpt lat="44.99033" lon="1.0787">
        <ele>85</ele>
        <time>2014-08-18T08:43:06Z</time>
      </trkpt>
      <trkpt lat="44.99026" lon="1.07864">
        <ele>86</ele>
        <time>2014-08-18T08:43:08Z</time>
      </trkpt>
      <trkpt lat="44.99018" lon="1.0786">
        <ele>87</ele>
        <time>2014-08-18T08:43:10Z</time>
      </trkpt>
      <trkpt lat="44.99012" lon="1.07856">
        <ele>88</ele>
        <time>2014-08-18T08:43:12Z</time>
      </trkpt>
      <trkpt lat="44.99005" lon="1.07852">
        <ele>88</ele>
        <time>2014-08-18T08:43:14Z</time>
      </trkpt>
      <trkpt lat="44.98999" lon="1.07849">
        <ele>89</ele>
        <time>2014-08-18T08:43:16Z</time>
      </trkpt>
      <trkpt lat="44.98993" lon="1.07845">
        <ele>90</ele>
        <time>2014-08-18T08:43:18Z</time>
      </trkpt>
      <trkpt lat="44.98984" lon="1.07838">
        <ele>91</ele>
        <time>2014-08-18T08:43:21Z</time>
      </trkpt>
      <trkpt lat="44.98978" lon="1.07834">
        <ele>92</ele>
        <time>2014-08-18T08:43:23Z</time>
      </trkpt>
      <trkpt lat="44.98972" lon="1.07828">
        <ele>92</ele>
        <time>2014-08-18T08:43:25Z</time>
      </trkpt>
      <trkpt lat="44.98966" lon="1.0782">
        <ele>93</ele>
        <time>2014-08-18T08:43:27Z</time>
      </trkpt>
      <trkpt lat="44.98958" lon="1.07811">
        <ele>94</ele>
        <time>2014-08-18T08:43:30Z</time>
      </trkpt>
      <trkpt lat="44.9895" lon="1.07801">
        <ele>95</ele>
        <time>2014-08-18T08:43:33Z</time>
      </trkpt>
      <trkpt lat="44.98943" lon="1.07791">
        <ele>97</ele>
        <time>2014-08-18T08:43:36Z</time>
      </trkpt>
      <trkpt lat="44.98936" lon="1.07781">
        <ele>98</ele>
        <time>2014-08-18T08:43:39Z</time>
      </trkpt>
      <trkpt lat="44.9893" lon="1.07772">
        <ele>99</ele>
        <time>2014-08-18T08:43:42Z</time>
      </trkpt>
      <trkpt lat="44.98925" lon="1.07765">
        <ele>100</ele>
        <time>2014-08-18T08:43:45Z</time>
      </trkpt>
      <trkpt lat="44.98921" lon="1.0776">
        <ele>101</ele>
        <time>2014-08-18T08:43:47Z</time>
      </trkpt>
      <trkpt lat="44.98916" lon="1.07754">
        <ele>102</ele>
        <time>2014-08-18T08:43:50Z</time>
      </trkpt>
      <trkpt lat="44.98911" lon="1.07751">
        <ele>102</ele>
        <time>2014-08-18T08:43:52Z</time>
      </trkpt>
      <trkpt lat="44.98906" lon="1.0775">
        <ele>103</ele>
        <time>2014-08-18T08:43:54Z</time>
      </trkpt>
      <trkpt lat="44.98898" lon="1.07752">
        <ele>104</ele>
        <time>2014-08-18T08:43:57Z</time>
      </trkpt>
      <trkpt lat="44.9889" lon="1.07756">
        <ele>104</ele>
        <time>2014-08-18T08:44:00Z</time>
      </trkpt>
      <trkpt lat="44.98883" lon="1.07764">
        <ele>105</ele>
        <time>2014-08-18T08:44:03Z</time>
      </trkpt>
      <trkpt lat="44.98879" lon="1.07768">
        <ele>105</ele>
        <time>2014-08-18T08:44:05Z</time>
      </trkpt>
      <trkpt lat="44.98875" lon="1.07772">
        <ele>106</ele>
        <time>2014-08-18T08:44:07Z</time>
      </trkpt>
      <trkpt lat="44.98868" lon="1.07767">
        <ele>106</ele>
        <time>2014-08-18T08:44:10Z</time>
      </trkpt>
      <trkpt lat="44.98867" lon="1.07757">
        <ele>107</ele>
        <time>2014-08-18T08:44:13Z</time>
      </trkpt>
      <trkpt lat="44.9886" lon="1.07752">
        <ele>107</ele>
        <time>2014-08-18T08:44:16Z</time>
      </trkpt>
      <trkpt lat="44.98851" lon="1.07751">
        <ele>107</ele>
        <time>2014-08-18T08:44:18Z</time>
      </trkpt>
      <trkpt lat="44.98837" lon="1.07745">
        <ele>106</ele>
        <time>2014-08-18T08:44:21Z</time>
      </trkpt>
      <trkpt lat="44.98826" lon="1.07738">
        <ele>105</ele>
        <time>2014-08-18T08:44:23Z</time>
      </trkpt>
      <trkpt lat="44.9881" lon="1.07725">
        <ele>104</ele>
        <time>2014-08-18T08:44:26Z</time>
      </trkpt>
      <trkpt lat="44.98801" lon="1.07714">
        <ele>103</ele>
        <time>2014-08-18T08:44:28Z</time>
      </trkpt>
      <trkpt lat="44.98788" lon="1.07694">
        <ele>102</ele>
        <time>2014-08-18T08:44:31Z</time>
      </trkpt>
      <trkpt lat="44.9878" lon="1.0768">
        <ele>101</ele>
        <time>2014-08-18T08:44:33Z</time>
      </trkpt>
      <trkpt lat="44.98771" lon="1.07665">
        <ele>100</ele>
        <time>2014-08-18T08:44:35Z</time>
      </trkpt>
      <trkpt lat="44.98753" lon="1.07645">
        <ele>98</ele>
        <time>2014-08-18T08:44:38Z</time>
      </trkpt>
      <trkpt lat="44.98744" lon="1.07635">
        <ele>96</ele>
        <time>2014-08-18T08:44:40Z</time>
      </trkpt>
      <trkpt lat="44.98732" lon="1.0762">
        <ele>94</ele>
        <time>2014-08-18T08:44:43Z</time>
      </trkpt>
      <trkpt lat="44.98721" lon="1.07603">
        <ele>91</ele>
        <time>2014-08-18T08:44:46Z</time>
      </trkpt>
      <trkpt lat="44.98716" lon="1.07597">
        <ele>89</ele>
        <time>2014-08-18T08:44:48Z</time>
      </trkpt>
      <trkpt lat="44.98712" lon="1.07593">
        <ele>87</ele>
        <time>2014-08-18T08:44:50Z</time>
      </trkpt>
      <trkpt lat="44.98702" lon="1.07578">
        <ele>85</ele>
        <time>2014-08-18T08:44:53Z</time>
      </trkpt>
      <trkpt lat="44.98693" lon="1.07561">
        <ele>83</ele>
        <time>2014-08-18T08:44:55Z</time>
      </trkpt>
      <trkpt lat="44.98682" lon="1.07545">
        <ele>82</ele>
        <time>2014-08-18T08:44:57Z</time>
      </trkpt>
      <trkpt lat="44.98678" lon="1.07527">
        <ele>80</ele>
        <time>2014-08-18T08:44:59Z</time>
      </trkpt>
      <trkpt lat="44.98672" lon="1.07506">
        <ele>78</ele>
        <time>2014-08-18T08:45:01Z</time>
      </trkpt>
      <trkpt lat="44.98662" lon="1.07476">
        <ele>74</ele>
        <time>2014-08-18T08:45:04Z</time>
      </trkpt>
      <trkpt lat="44.98655" lon="1.07456">
        <ele>72</ele>
        <time>2014-08-18T08:45:06Z</time>
      </trkpt>
      <trkpt lat="44.98647" lon="1.07425">
        <ele>69</ele>
        <time>2014-08-18T08:45:09Z</time>
      </trkpt>
      <trkpt lat="44.9864" lon="1.07404">
        <ele>67</ele>
        <time>2014-08-18T08:45:11Z</time>
      </trkpt>
      <trkpt lat="44.98634" lon="1.07387">
        <ele>65</ele>
        <time>2014-08-18T08:45:14Z</time>
      </trkpt>
      <trkpt lat="44.98632" lon="1.07381">
        <ele>62</ele>
        <time>2014-08-18T08:45:17Z</time>
      </trkpt>
      <trkpt lat="44.98632" lon="1.07378">
        <ele>61</ele>
        <time>2014-08-18T08:45:19Z</time>
      </trkpt>
      <trkpt lat="44.9863" lon="1.07374">
        <ele>61</ele>
        <time>2014-08-18T08:45:22Z</time>
      </trkpt>
      <trkpt lat="44.98632" lon="1.0737">
        <ele>61</ele>
        <time>2014-08-18T08:45:24Z</time>
      </trkpt>
      <trkpt lat="44.98635" lon="1.07366">
        <ele>61</ele>
        <time>2014-08-18T08:45:26Z</time>
      </trkpt>
      <trkpt lat="44.98637" lon="1.07356">
        <ele>61</ele>
        <time>2014-08-18T08:45:28Z</time>
      </trkpt>
      <trkpt lat="44.9864" lon="1.07339">
        <ele>61</ele>
        <time>2014-08-18T08:45:31Z</time>
      </trkpt>
      <trkpt lat="44.98643" lon="1.07329">
        <ele>61</ele>
        <time>2014-08-18T08:45:33Z</time>
      </trkpt>
      <trkpt lat="44.98648" lon="1.07315">
        <ele>61</ele>
        <time>2014-08-18T08:45:36Z</time>
      </trkpt>
      <trkpt lat="44.98649" lon="1.07307">
        <ele>61</ele>
        <time>2014-08-18T08:45:38Z</time>
      </trkpt>
      <trkpt lat="44.98653" lon="1.07295">
        <ele>61</ele>
        <time>2014-08-18T08:45:41Z</time>
      </trkpt>
      <trkpt lat="44.98658" lon="1.07277">
        <ele>60</ele>
        <time>2014-08-18T08:45:44Z</time>
      </trkpt>
      <trkpt lat="44.98663" lon="1.07263">
        <ele>60</ele>
        <time>2014-08-18T08:45:46Z</time>
      </trkpt>
      <trkpt lat="44.98674" lon="1.07243">
        <ele>59</ele>
        <time>2014-08-18T08:45:49Z</time>
      </trkpt>
      <trkpt lat="44.98683" lon="1.07226">
        <ele>58</ele>
        <time>2014-08-18T08:45:52Z</time>
      </trkpt>
      <trkpt lat="44.9869" lon="1.07216">
        <ele>57</ele>
        <time>2014-08-18T08:45:54Z</time>
      </trkpt>
      <trkpt lat="44.987" lon="1.07205">
        <ele>57</ele>
        <time>2014-08-18T08:45:57Z</time>
      </trkpt>
      <trkpt lat="44.98707" lon="1.07199">
        <ele>57</ele>
        <time>2014-08-18T08:45:59Z</time>
      </trkpt>
      <trkpt lat="44.98717" lon="1.0719">
        <ele>57</ele>
        <time>2014-08-18T08:46:01Z</time>
      </trkpt>
      <trkpt lat="44.98725" lon="1.07183">
        <ele>56</ele>
        <time>2014-08-18T08:46:04Z</time>
      </trkpt>
      <trkpt lat="44.98738" lon="1.07171">
        <ele>56</ele>
        <time>2014-08-18T08:46:07Z</time>
      </trkpt>
      <trkpt lat="44.9875" lon="1.07162">
        <ele>56</ele>
        <time>2014-08-18T08:46:10Z</time>
      </trkpt>
      <trkpt lat="44.98757" lon="1.07158">
        <ele>55</ele>
        <time>2014-08-18T08:46:12Z</time>
      </trkpt>
      <trkpt lat="44.98763" lon="1.07153">
        <ele>55</ele>
        <time>2014-08-18T08:46:14Z</time>
      </trkpt>
      <trkpt lat="44.98772" lon="1.07146">
        <ele>55</ele>
        <time>2014-08-18T08:46:16Z</time>
      </trkpt>
      <trkpt lat="44.98778" lon="1.0714">
        <ele>54</ele>
        <time>2014-08-18T08:46:18Z</time>
      </trkpt>
      <trkpt lat="44.98783" lon="1.07131">
        <ele>54</ele>
        <time>2014-08-18T08:46:20Z</time>
      </trkpt>
      <trkpt lat="44.9878" lon="1.07121">
        <ele>53</ele>
        <time>2014-08-18T08:46:23Z</time>
      </trkpt>
      <trkpt lat="44.98777" lon="1.0711">
        <ele>52</ele>
        <time>2014-08-18T08:46:25Z</time>
      </trkpt>
      <trkpt lat="44.98777" lon="1.07095">
        <ele>51</ele>
        <time>2014-08-18T08:46:28Z</time>
      </trkpt>
      <trkpt lat="44.98779" lon="1.07084">
        <ele>50</ele>
        <time>2014-08-18T08:46:31Z</time>
      </trkpt>
      <trkpt lat="44.98782" lon="1.07079">
        <ele>49</ele>
        <time>2014-08-18T08:46:33Z</time>
      </trkpt>
      <trkpt lat="44.98784" lon="1.07073">
        <ele>49</ele>
        <time>2014-08-18T08:46:35Z</time>
      </trkpt>
      <trkpt lat="44.98788" lon="1.07065">
        <ele>49</ele>
        <time>2014-08-18T08:46:38Z</time>
      </trkpt>
      <trkpt lat="44.98798" lon="1.07057">
        <ele>49</ele>
        <time>2014-08-18T08:46:41Z</time>
      </trkpt>
      <trkpt lat="44.98805" lon="1.07054">
        <ele>48</ele>
        <time>2014-08-18T08:46:43Z</time>
      </trkpt>
      <trkpt lat="44.98812" lon="1.07052">
        <ele>48</ele>
        <time>2014-08-18T08:46:45Z</time>
      </trkpt>
      <trkpt lat="44.98817" lon="1.07053">
        <ele>47</ele>
        <time>2014-08-18T08:46:48Z</time>
      </trkpt>
      <trkpt lat="44.9882" lon="1.07053">
        <ele>47</ele>
        <time>2014-08-18T08:46:50Z</time>
      </trkpt>
      <trkpt lat="44.98823" lon="1.07051">
        <ele>46</ele>
        <time>2014-08-18T08:46:53Z</time>
      </trkpt>
      <trkpt lat="44.98827" lon="1.0705">
        <ele>46</ele>
        <time>2014-08-18T08:46:56Z</time>
      </trkpt>
      <trkpt lat="44.98829" lon="1.0705">
        <ele>45</ele>
        <time>2014-08-18T08:46:58Z</time>
      </trkpt>
      <trkpt lat="44.98831" lon="1.07047">
        <ele>45</ele>
        <time>2014-08-18T08:47:00Z</time>
      </trkpt>
      <trkpt lat="44.98833" lon="1.07042">
        <ele>45</ele>
        <time>2014-08-18T08:47:02Z</time>
      </trkpt>
      <trkpt lat="44.98836" lon="1.0704">
        <ele>45</ele>
        <time>2014-08-18T08:47:05Z</time>
      </trkpt>
      <trkpt lat="44.9884" lon="1.07038">
        <ele>45</ele>
        <time>2014-08-18T08:47:07Z</time>
      </trkpt>
      <trkpt lat="44.98845" lon="1.07034">
        <ele>46</ele>
        <time>2014-08-18T08:47:09Z</time>
      </trkpt>
      <trkpt lat="44.98848" lon="1.07032">
        <ele>46</ele>
        <time>2014-08-18T08:47:12Z</time>
      </trkpt>
      <trkpt lat="44.98852" lon="1.07028">
        <ele>47</ele>
        <time>2014-08-18T08:47:15Z</time>
      </trkpt>
      <trkpt lat="44.98855" lon="1.07026">
        <ele>47</ele>
        <time>2014-08-18T08:47:17Z</time>
      </trkpt>
      <trkpt lat="44.9886" lon="1.07023">
        <ele>47</ele>
        <time>2014-08-18T08:47:19Z</time>
      </trkpt>
      <trkpt lat="44.98863" lon="1.07021">
        <ele>48</ele>
        <time>2014-08-18T08:47:22Z</time>
      </trkpt>
      <trkpt lat="44.98867" lon="1.07017">
        <ele>48</ele>
        <time>2014-08-18T08:47:25Z</time>
      </trkpt>
      <trkpt lat="44.98872" lon="1.07013">
        <ele>49</ele>
        <time>2014-08-18T08:47:28Z</time>
      </trkpt>
      <trkpt lat="44.98876" lon="1.07011">
        <ele>50</ele>
        <time>2014-08-18T08:47:30Z</time>
      </trkpt>
      <trkpt lat="44.98882" lon="1.07008">
        <ele>50</ele>
        <time>2014-08-18T08:47:32Z</time>
      </trkpt>
      <trkpt lat="44.98889" lon="1.07001">
        <ele>51</ele>
        <time>2014-08-18T08:47:34Z</time>
      </trkpt>
      <trkpt lat="44.98893" lon="1.06995">
        <ele>52</ele>
        <time>2014-08-18T08:47:37Z</time>
      </trkpt>
      <trkpt lat="44.98897" lon="1.06991">
        <ele>52</ele>
        <time>2014-08-18T08:47:39Z</time>
      </trkpt>
      <trkpt lat="44.989" lon="1.06985">
        <ele>53</ele>
        <time>2014-08-18T08:47:42Z</time>
      </trkpt>
      <trkpt lat="44.98902" lon="1.06981">
        <ele>53</ele>
        <time>2014-08-18T08:47:45Z</time>
      </trkpt>
      <trkpt lat="44.98902" lon="1.06977">
        <ele>53</ele>
        <time>2014-08-18T08:47:48Z</time>
      </trkpt>
      <trkpt lat="44.98902" lon="1.06976">
        <ele>53</ele>
        <time>2014-08-18T08:47:50Z</time>
      </trkpt>
      <trkpt lat="44.98902" lon="1.06976">
        <ele>54</ele>
        <time>2014-08-18T08:47:52Z</time>
      </trkpt>
      <trkpt lat="44.98899" lon="1.06977">
        <ele>54</ele>
        <time>2014-08-18T08:47:55Z</time>
      </trkpt>
      <trkpt lat="44.98896" lon="1.06978">
        <ele>54</ele>
        <time>2014-08-18T08:47:57Z</time>
      </trkpt>
      <trkpt lat="44.98894" lon="1.06978">
        <ele>54</ele>
        <time>2014-08-18T08:47:59Z</time>
      </trkpt>
      <trkpt lat="44.98891" lon="1.06978">
        <ele>54</ele>
        <time>2014-08-18T08:48:02Z</time>
      </trkpt>
      <trkpt lat="44.98886" lon="1.0698">
        <ele>54</ele>
        <time>2014-08-18T08:48:04Z</time>
      </trkpt>
      <trkpt lat="44.98878" lon="1.06982">
        <ele>54</ele>
        <time>2014-08-18T08:48:07Z</time>
      </trkpt>
      <trkpt lat="44.98873" lon="1.06985">
        <ele>54</ele>
        <time>2014-08-18T08:48:09Z</time>
      </trkpt>
      <trkpt lat="44.98868" lon="1.06988">
        <ele>54</ele>
        <time>2014-08-18T08:48:11Z</time>
      </trkpt>
      <trkpt lat="44.98861" lon="1.06992">
        <ele>54</ele>
        <time>2014-08-18T08:48:13Z</time>
      </trkpt>
      <trkpt lat="44.98853" lon="1.06996">
        <ele>54</ele>
        <time>2014-08-18T08:48:15Z</time>
      </trkpt>
      <trkpt lat="44.98846" lon="1.07001">
        <ele>54</ele>
        <time>2014-08-18T08:48:18Z</time>
      </trkpt>
      <trkpt lat="44.98841" lon="1.07009">
        <ele>55</ele>
        <time>2014-08-18T08:48:20Z</time>
      </trkpt>
      <trkpt lat="44.98835" lon="1.07015">
        <ele>55</ele>
        <time>2014-08-18T08:48:22Z</time>
      </trkpt>
      <trkpt lat="44.98828" lon="1.07019">
        <ele>55</ele>
        <time>2014-08-18T08:48:24Z</time>
      </trkpt>
      <trkpt lat="44.98817" lon="1.07028">
        <ele>55</ele>
        <time>2014-08-18T08:48:27Z</time>
      </trkpt>
      <trkpt lat="44.98803" lon="1.07043">
        <ele>54</ele>
        <time>2014-08-18T08:48:30Z</time>
      </trkpt>
      <trkpt lat="44.98787" lon="1.07057">
        <ele>53</ele>
        <time>2014-08-18T08:48:33Z</time>
      </trkpt>
      <trkpt lat="44.98774" lon="1.07065">
        <ele>53</ele>
        <time>2014-08-18T08:48:35Z</time>
      </trkpt>
      <trkpt lat="44.98753" lon="1.07076">
        <ele>53</ele>
        <time>2014-08-18T08:48:37Z</time>
      </trkpt>
      <trkpt lat="44.98738" lon="1.07084">
        <ele>53</ele>
        <time>2014-08-18T08:48:40Z</time>
      </trkpt>
      <trkpt lat="44.9872" lon="1.07099">
        <ele>53</ele>
        <time>2014-08-18T08:48:43Z</time>
      </trkpt>
      <trkpt lat="44.98716" lon="1.07112">
        <ele>54</ele>
        <time>2014-08-18T08:48:45Z</time>
      </trkpt>
      <trkpt lat="44.98723" lon="1.07125">
        <ele>54</ele>
        <time>2014-08-18T08:48:48Z</time>
      </trkpt>
      <trkpt lat="44.98733" lon="1.07122">
        <ele>54</ele>
        <time>2014-08-18T08:48:50Z</time>
      </trkpt>
      <trkpt lat="44.98738" lon="1.07118">
        <ele>53</ele>
        <time>2014-08-18T08:48:52Z</time>
      </trkpt>
      <trkpt lat="44.98744" lon="1.07117">
        <ele>53</ele>
        <time>2014-08-18T08:48:55Z</time>
      </trkpt>
      <trkpt lat="44.98749" lon="1.07116">
        <ele>53</ele>
        <time>2014-08-18T08:48:57Z</time>
      </trkpt>
      <trkpt lat="44.98757" lon="1.07114">
        <ele>52</ele>
        <time>2014-08-18T08:49:00Z</time>
      </trkpt>
      <trkpt lat="44.9876" lon="1.07111">
        <ele>52</ele>
        <time>2014-08-18T08:49:03Z</time>
      </trkpt>
      <trkpt lat="44.98763" lon="1.07111">
        <ele>52</ele>
        <time>2014-08-18T08:49:05Z</time>
      </trkpt>
      <trkpt lat="44.98765" lon="1.07116">
        <ele>52</ele>
        <time>2014-08-18T08:49:07Z</time>
      </trkpt>
      <trkpt lat="44.98771" lon="1.07121">
        <ele>52</ele>
        <time>2014-08-18T08:49:10Z</time>
      </trkpt>
      <trkpt lat="44.98776" lon="1.07124">
        <ele>52</ele>
        <time>2014-08-18T08:49:13Z</time>
      </trkpt>
      <trkpt lat="44.98782" lon="1.07121">
        <ele>53</ele>
        <time>2014-08-18T08:49:15Z</time>
      </trkpt>
      <trkpt lat="44.98783" lon="1.07103">
        <ele>53</ele>
        <time>2014-08-18T08:49:18Z</time>
      </trkpt>
      <trkpt lat="44.98776" lon="1.07089">
        <ele>51</ele>
        <time>2014-08-18T08:49:21Z</time>
      </trkpt>
      <trkpt lat="44.98778" lon="1.07086">
        <ele>50</ele>
        <time>2014-08-18T08:49:23Z</time>
      </trkpt>
      <trkpt lat="44.98788" lon="1.0708">
        <ele>49</ele>
        <time>2014-08-18T08:49:26Z</time>
      </trkpt>
      <trkpt lat="44.98801" lon="1.07079">
        <ele>48</ele>
        <time>2014-08-18T08:49:29Z</time>
      </trkpt>
      <trkpt lat="44.98809" lon="1.07073">
        <ele>48</ele>
        <time>2014-08-18T08:49:31Z</time>
      </trkpt>
      <trkpt lat="44.98815" lon="1.07062">
        <ele>47</ele>
        <time>2014-08-18T08:49:33Z</time>
      </trkpt>
      <trkpt lat="44.98818" lon="1.07042">
        <ele>47</ele>
        <time>2014-08-18T08:49:36Z</time>
      </trkpt>
      <trkpt lat="44.98822" lon="1.07032">
        <ele>47</ele>
        <time>2014-08-18T08:49:38Z</time>
      </trkpt>
      <trkpt lat="44.98833" lon="1.07026">
        <ele>46</ele>
        <time>2014-08-18T08:49:41Z</time>
      </trkpt>
      <trkpt lat="44.98848" lon="1.07023">
        <ele>46</ele>
        <time>2014-08-18T08:49:43Z</time>
      </trkpt>
      <trkpt lat="44.98859" lon="1.07019">
        <ele>46</ele>
        <time>2014-08-18T08:49:45Z</time>
      </trkpt>
      <trkpt lat="44.98872" lon="1.07015">
        <ele>45</ele>
        <time>2014-08-18T08:49:48Z</time>
      </trkpt>
      <trkpt lat="44.98887" lon="1.07009">
        <ele>44</ele>
        <time>2014-08-18T08:49:50Z</time>
      </trkpt>
      <trkpt lat="44.98901" lon="1.06995">
        <ele>43</ele>
        <time>2014-08-18T08:49:52Z</time>
      </trkpt>
      <trkpt lat="44.98916" lon="1.06964">
        <ele>41</ele>
        <time>2014-08-18T08:49:55Z</time>
      </trkpt>
      <trkpt lat="44.98924" lon="1.06939">
        <ele>39</ele>
        <time>2014-08-18T08:49:57Z</time>
      </trkpt>
      <trkpt lat="44.98933" lon="1.06899">
        <ele>38</ele>
        <time>2014-08-18T08:49:59Z</time>
      </trkpt>
      <trkpt lat="44.98938" lon="1.06874">
        <ele>38</ele>
        <time>2014-08-18T08:50:02Z</time>
      </trkpt>
      <trkpt lat="44.98943" lon="1.06839">
        <ele>37</ele>
        <time>2014-08-18T08:50:05Z</time>
      </trkpt>
      <trkpt lat="44.98949" lon="1.06808">
        <ele>37</ele>
        <time>2014-08-18T08:50:08Z</time>
      </trkpt>
      <trkpt lat="44.98955" lon="1.06784">
        <ele>37</ele>
        <time>2014-08-18T08:50:10Z</time>
      </trkpt>
      <trkpt lat="44.9896" lon="1.06772">
        <ele>37</ele>
        <time>2014-08-18T08:50:12Z</time>
      </trkpt>
      <trkpt lat="44.98965" lon="1.0676">
        <ele>37</ele>
        <time>2014-08-18T08:50:15Z</time>
      </trkpt>
      <trkpt lat="44.9897" lon="1.06747">
        <ele>38</ele>
        <time>2014-08-18T08:50:17Z</time>
      </trkpt>
      <trkpt lat="44.98977" lon="1.06727">
        <ele>38</ele>
        <time>2014-08-18T08:50:19Z</time>
      </trkpt>
      <trkpt lat="44.98981" lon="1.06712">
        <ele>38</ele>
        <time>2014-08-18T08:50:21Z</time>
      </trkpt>
      <trkpt lat="44.98988" lon="1.06691">
        <ele>38</ele>
        <time>2014-08-18T08:50:25Z</time>
      </trkpt>
      <trkpt lat="44.98993" lon="1.06676">
        <ele>38</ele>
        <time>2014-08-18T08:50:27Z</time>
      </trkpt>
      <trkpt lat="44.99001" lon="1.06655">
        <ele>38</ele>
        <time>2014-08-18T08:50:30Z</time>
      </trkpt>
      <trkpt lat="44.99007" lon="1.06632">
        <ele>37</ele>
        <time>2014-08-18T08:50:33Z</time>
      </trkpt>
      <trkpt lat="44.99012" lon="1.06616">
        <ele>37</ele>
        <time>2014-08-18T08:50:35Z</time>
      </trkpt>
      <trkpt lat="44.99019" lon="1.06592">
        <ele>37</ele>
        <time>2014-08-18T08:50:37Z</time>
      </trkpt>
      <trkpt lat="44.99023" lon="1.06576">
        <ele>37</ele>
        <time>2014-08-18T08:50:40Z</time>
      </trkpt>
      <trkpt lat="44.9903" lon="1.06551">
        <ele>37</ele>
        <time>2014-08-18T08:50:42Z</time>
      </trkpt>
      <trkpt lat="44.99035" lon="1.06534">
        <ele>37</ele>
        <time>2014-08-18T08:50:44Z</time>
      </trkpt>
      <trkpt lat="44.99043" lon="1.06507">
        <ele>36</ele>
        <time>2014-08-18T08:50:47Z</time>
      </trkpt>
      <trkpt lat="44.99047" lon="1.06489">
        <ele>36</ele>
        <time>2014-08-18T08:50:50Z</time>
      </trkpt>
      <trkpt lat="44.99052" lon="1.0647">
        <ele>36</ele>
        <time>2014-08-18T08:50:52Z</time>
      </trkpt>
      <trkpt lat="44.99059" lon="1.06441">
        <ele>36</ele>
        <time>2014-08-18T08:50:54Z</time>
      </trkpt>
      <trkpt lat="44.99063" lon="1.06421">
        <ele>36</ele>
        <time>2014-08-18T08:50:57Z</time>
      </trkpt>
      <trkpt lat="44.99068" lon="1.06402">
        <ele>36</ele>
        <time>2014-08-18T08:50:59Z</time>
      </trkpt>
      <trkpt lat="44.99074" lon="1.06372">
        <ele>36</ele>
        <time>2014-08-18T08:51:02Z</time>
      </trkpt>
      <trkpt lat="44.9908" lon="1.06342">
        <ele>36</ele>
        <time>2014-08-18T08:51:05Z</time>
      </trkpt>
      <trkpt lat="44.99083" lon="1.06314">
        <ele>36</ele>
        <time>2014-08-18T08:51:08Z</time>
      </trkpt>
      <trkpt lat="44.99085" lon="1.06296">
        <ele>36</ele>
        <time>2014-08-18T08:51:10Z</time>
      </trkpt>
      <trkpt lat="44.99084" lon="1.06279">
        <ele>36</ele>
        <time>2014-08-18T08:51:12Z</time>
      </trkpt>
      <trkpt lat="44.99083" lon="1.06255">
        <ele>36</ele>
        <time>2014-08-18T08:51:14Z</time>
      </trkpt>
      <trkpt lat="44.99082" lon="1.06241">
        <ele>37</ele>
        <time>2014-08-18T08:51:17Z</time>
      </trkpt>
      <trkpt lat="44.99081" lon="1.06228">
        <ele>37</ele>
        <time>2014-08-18T08:51:19Z</time>
      </trkpt>
      <trkpt lat="44.9908" lon="1.06209">
        <ele>38</ele>
        <time>2014-08-18T08:51:22Z</time>
      </trkpt>
      <trkpt lat="44.99079" lon="1.06193">
        <ele>38</ele>
        <time>2014-08-18T08:51:25Z</time>
      </trkpt>
      <trkpt lat="44.99081" lon="1.06179">
        <ele>39</ele>
        <time>2014-08-18T08:51:28Z</time>
      </trkpt>
      <trkpt lat="44.99085" lon="1.06174">
        <ele>40</ele>
        <time>2014-08-18T08:51:30Z</time>
      </trkpt>
      <trkpt lat="44.99092" lon="1.06173">
        <ele>40</ele>
        <time>2014-08-18T08:51:32Z</time>
      </trkpt>
      <trkpt lat="44.99104" lon="1.06173">
        <ele>41</ele>
        <time>2014-08-18T08:51:34Z</time>
      </trkpt>
      <trkpt lat="44.99112" lon="1.06173">
        <ele>41</ele>
        <time>2014-08-18T08:51:36Z</time>
      </trkpt>
      <trkpt lat="44.9912" lon="1.06174">
        <ele>41</ele>
        <time>2014-08-18T08:51:38Z</time>
      </trkpt>
      <trkpt lat="44.99127" lon="1.06175">
        <ele>42</ele>
        <time>2014-08-18T08:51:40Z</time>
      </trkpt>
      <trkpt lat="44.99139" lon="1.06175">
        <ele>42</ele>
        <time>2014-08-18T08:51:43Z</time>
      </trkpt>
      <trkpt lat="44.99147" lon="1.06175">
        <ele>42</ele>
        <time>2014-08-18T08:51:45Z</time>
      </trkpt>
      <trkpt lat="44.99155" lon="1.06176">
        <ele>42</ele>
        <time>2014-08-18T08:51:47Z</time>
      </trkpt>
      <trkpt lat="44.99168" lon="1.06176">
        <ele>42</ele>
        <time>2014-08-18T08:51:51Z</time>
      </trkpt>
      <trkpt lat="44.99181" lon="1.06176">
        <ele>42</ele>
        <time>2014-08-18T08:51:53Z</time>
      </trkpt>
      <trkpt lat="44.9919" lon="1.06176">
        <ele>42</ele>
        <time>2014-08-18T08:51:55Z</time>
      </trkpt>
      <trkpt lat="44.99199" lon="1.06176">
        <ele>42</ele>
        <time>2014-08-18T08:51:57Z</time>
      </trkpt>
      <trkpt lat="44.9921" lon="1.06176">
        <ele>42</ele>
        <time>2014-08-18T08:52:00Z</time>
      </trkpt>
      <trkpt lat="44.99221" lon="1.06176">
        <ele>42</ele>
        <time>2014-08-18T08:52:02Z</time>
      </trkpt>
      <trkpt lat="44.99238" lon="1.06176">
        <ele>42</ele>
        <time>2014-08-18T08:52:04Z</time>
      </trkpt>
      <trkpt lat="44.99249" lon="1.06176">
        <ele>41</ele>
        <time>2014-08-18T08:52:06Z</time>
      </trkpt>
      <trkpt lat="44.99267" lon="1.06176">
        <ele>41</ele>
        <time>2014-08-18T08:52:09Z</time>
      </trkpt>
      <trkpt lat="44.99285" lon="1.06175">
        <ele>40</ele>
        <time>2014-08-18T08:52:12Z</time>
      </trkpt>
      <trkpt lat="44.99297" lon="1.06175">
        <ele>40</ele>
        <time>2014-08-18T08:52:14Z</time>
      </trkpt>
      <trkpt lat="44.9931" lon="1.06175">
        <ele>40</ele>
        <time>2014-08-18T08:52:16Z</time>
      </trkpt>
      <trkpt lat="44.99322" lon="1.06174">
        <ele>40</ele>
        <time>2014-08-18T08:52:19Z</time>
      </trkpt>
      <trkpt lat="44.99342" lon="1.06169">
        <ele>39</ele>
        <time>2014-08-18T08:52:21Z</time>
      </trkpt>
      <trkpt lat="44.99353" lon="1.06158">
        <ele>39</ele>
        <time>2014-08-18T08:52:23Z</time>
      </trkpt>
      <trkpt lat="44.99363" lon="1.06144">
        <ele>39</ele>
        <time>2014-08-18T08:52:26Z</time>
      </trkpt>
      <trkpt lat="44.99374" lon="1.06119">
        <ele>39</ele>
        <time>2014-08-18T08:52:29Z</time>
      </trkpt>
      <trkpt lat="44.99381" lon="1.06091">
        <ele>38</ele>
        <time>2014-08-18T08:52:32Z</time>
      </trkpt>
      <trkpt lat="44.99386" lon="1.06065">
        <ele>38</ele>
        <time>2014-08-18T08:52:35Z</time>
      </trkpt>
      <trkpt lat="44.9939" lon="1.06039">
        <ele>38</ele>
        <time>2014-08-18T08:52:38Z</time>
      </trkpt>
      <trkpt lat="44.99395" lon="1.06015">
        <ele>38</ele>
        <time>2014-08-18T08:52:41Z</time>
      </trkpt>
      <trkpt lat="44.99399" lon="1.06">
        <ele>38</ele>
        <time>2014-08-18T08:52:43Z</time>
      </trkpt>
      <trkpt lat="44.99403" lon="1.05986">
        <ele>38</ele>
        <time>2014-08-18T08:52:45Z</time>
      </trkpt>
      <trkpt lat="44.99406" lon="1.05973">
        <ele>38</ele>
        <time>2014-08-18T08:52:47Z</time>
      </trkpt>
      <trkpt lat="44.99414" lon="1.05953">
        <ele>38</ele>
        <time>2014-08-18T08:52:50Z</time>
      </trkpt>
      <trkpt lat="44.99423" lon="1.05931">
        <ele>38</ele>
        <time>2014-08-18T08:52:53Z</time>
      </trkpt>
      <trkpt lat="44.99434" lon="1.05912">
        <ele>38</ele>
        <time>2014-08-18T08:52:56Z</time>
      </trkpt>
      <trkpt lat="44.99448" lon="1.05899">
        <ele>38</ele>
        <time>2014-08-18T08:52:59Z</time>
      </trkpt>
      <trkpt lat="44.99464" lon="1.0589">
        <ele>38</ele>
        <time>2014-08-18T08:53:01Z</time>
      </trkpt>
      <trkpt lat="44.99474" lon="1.05885">
        <ele>38</ele>
        <time>2014-08-18T08:53:03Z</time>
      </trkpt>
      <trkpt lat="44.99485" lon="1.05881">
        <ele>38</ele>
        <time>2014-08-18T08:53:05Z</time>
      </trkpt>
      <trkpt lat="44.99495" lon="1.05877">
        <ele>38</ele>
        <time>2014-08-18T08:53:08Z</time>
      </trkpt>
      <trkpt lat="44.99512" lon="1.05872">
        <ele>38</ele>
        <time>2014-08-18T08:53:10Z</time>
      </trkpt>
      <trkpt lat="44.99524" lon="1.05868">
        <ele>38</ele>
        <time>2014-08-18T08:53:12Z</time>
      </trkpt>
      <trkpt lat="44.99535" lon="1.05863">
        <ele>39</ele>
        <time>2014-08-18T08:53:14Z</time>
      </trkpt>
      <trkpt lat="44.99546" lon="1.05859">
        <ele>39</ele>
        <time>2014-08-18T08:53:16Z</time>
      </trkpt>
      <trkpt lat="44.99557" lon="1.05855">
        <ele>39</ele>
        <time>2014-08-18T08:53:18Z</time>
      </trkpt>
      <trkpt lat="44.99568" lon="1.05851">
        <ele>39</ele>
        <time>2014-08-18T08:53:20Z</time>
      </trkpt>
      <trkpt lat="44.99578" lon="1.05847">
        <ele>39</ele>
        <time>2014-08-18T08:53:22Z</time>
      </trkpt>
      <trkpt lat="44.99589" lon="1.05843">
        <ele>39</ele>
        <time>2014-08-18T08:53:24Z</time>
      </trkpt>
      <trkpt lat="44.996" lon="1.0584">
        <ele>39</ele>
        <time>2014-08-18T08:53:26Z</time>
      </trkpt>
      <trkpt lat="44.99611" lon="1.05836">
        <ele>39</ele>
        <time>2014-08-18T08:53:28Z</time>
      </trkpt>
      <trkpt lat="44.99622" lon="1.05833">
        <ele>39</ele>
        <time>2014-08-18T08:53:31Z</time>
      </trkpt>
      <trkpt lat="44.99633" lon="1.05829">
        <ele>39</ele>
        <time>2014-08-18T08:53:33Z</time>
      </trkpt>
      <trkpt lat="44.9965" lon="1.05822">
        <ele>39</ele>
        <time>2014-08-18T08:53:35Z</time>
      </trkpt>
      <trkpt lat="44.99662" lon="1.05818">
        <ele>39</ele>
        <time>2014-08-18T08:53:37Z</time>
      </trkpt>
      <trkpt lat="44.99675" lon="1.05814">
        <ele>39</ele>
        <time>2014-08-18T08:53:40Z</time>
      </trkpt>
      <trkpt lat="44.99693" lon="1.05807">
        <ele>39</ele>
        <time>2014-08-18T08:53:42Z</time>
      </trkpt>
      <trkpt lat="44.99706" lon="1.05802">
        <ele>39</ele>
        <time>2014-08-18T08:53:44Z</time>
      </trkpt>
      <trkpt lat="44.99718" lon="1.05797">
        <ele>40</ele>
        <time>2014-08-18T08:53:46Z</time>
      </trkpt>
      <trkpt lat="44.99731" lon="1.05792">
        <ele>39</ele>
        <time>2014-08-18T08:53:48Z</time>
      </trkpt>
      <trkpt lat="44.99744" lon="1.05788">
        <ele>40</ele>
        <time>2014-08-18T08:53:50Z</time>
      </trkpt>
      <trkpt lat="44.99762" lon="1.05781">
        <ele>40</ele>
        <time>2014-08-18T08:53:53Z</time>
      </trkpt>
      <trkpt lat="44.99774" lon="1.05776">
        <ele>40</ele>
        <time>2014-08-18T08:53:55Z</time>
      </trkpt>
      <trkpt lat="44.99786" lon="1.05772">
        <ele>40</ele>
        <time>2014-08-18T08:53:58Z</time>
      </trkpt>
      <trkpt lat="44.99797" lon="1.05768">
        <ele>39</ele>
        <time>2014-08-18T08:54:00Z</time>
      </trkpt>
      <trkpt lat="44.99815" lon="1.05763">
        <ele>40</ele>
        <time>2014-08-18T08:54:02Z</time>
      </trkpt>
      <trkpt lat="44.99833" lon="1.05756">
        <ele>40</ele>
        <time>2014-08-18T08:54:05Z</time>
      </trkpt>
      <trkpt lat="44.99845" lon="1.05752">
        <ele>40</ele>
        <time>2014-08-18T08:54:07Z</time>
      </trkpt>
      <trkpt lat="44.99857" lon="1.05747">
        <ele>40</ele>
        <time>2014-08-18T08:54:10Z</time>
      </trkpt>
      <trkpt lat="44.99873" lon="1.05742">
        <ele>40</ele>
        <time>2014-08-18T08:54:12Z</time>
      </trkpt>
      <trkpt lat="44.9989" lon="1.05736">
        <ele>40</ele>
        <time>2014-08-18T08:54:15Z</time>
      </trkpt>
      <trkpt lat="44.99906" lon="1.05729">
        <ele>40</ele>
        <time>2014-08-18T08:54:18Z</time>
      </trkpt>
      <trkpt lat="44.99917" lon="1.05725">
        <ele>40</ele>
        <time>2014-08-18T08:54:20Z</time>
      </trkpt>
      <trkpt lat="44.99929" lon="1.05721">
        <ele>40</ele>
        <time>2014-08-18T08:54:23Z</time>
      </trkpt>
      <trkpt lat="44.99941" lon="1.05716">
        <ele>40</ele>
        <time>2014-08-18T08:54:25Z</time>
      </trkpt>
      <trkpt lat="44.99958" lon="1.0571">
        <ele>40</ele>
        <time>2014-08-18T08:54:27Z</time>
      </trkpt>
      <trkpt lat="44.99974" lon="1.05704">
        <ele>40</ele>
        <time>2014-08-18T08:54:30Z</time>
      </trkpt>
      <trkpt lat="44.99991" lon="1.05698">
        <ele>41</ele>
        <time>2014-08-18T08:54:33Z</time>
      </trkpt>
      <trkpt lat="45.00002" lon="1.05693">
        <ele>41</ele>
        <time>2014-08-18T08:54:36Z</time>
      </trkpt>
      <trkpt lat="45.00019" lon="1.05688">
        <ele>41</ele>
        <time>2014-08-18T08:54:38Z</time>
      </trkpt>
      <trkpt lat="45.0003" lon="1.05684">
        <ele>41</ele>
        <time>2014-08-18T08:54:41Z</time>
      </trkpt>
      <trkpt lat="45.00048" lon="1.05678">
        <ele>41</ele>
        <time>2014-08-18T08:54:43Z</time>
      </trkpt>
      <trkpt lat="45.00065" lon="1.05676">
        <ele>41</ele>
        <time>2014-08-18T08:54:46Z</time>
      </trkpt>
      <trkpt lat="45.00076" lon="1.05673">
        <ele>41</ele>
        <time>2014-08-18T08:54:49Z</time>
      </trkpt>
      <trkpt lat="45.00094" lon="1.05669">
        <ele>41</ele>
        <time>2014-08-18T08:54:51Z</time>
      </trkpt>
      <trkpt lat="45.00111" lon="1.05667">
        <ele>41</ele>
        <time>2014-08-18T08:54:54Z</time>
      </trkpt>
      <trkpt lat="45.00127" lon="1.05665">
        <ele>43</ele>
        <time>2014-08-18T08:54:58Z</time>
      </trkpt>
      <trkpt lat="45.00137" lon="1.05666">
        <ele>43</ele>
        <time>2014-08-18T08:55:00Z</time>
      </trkpt>
      <trkpt lat="45.00152" lon="1.05664">
        <ele>44</ele>
        <time>2014-08-18T08:55:03Z</time>
      </trkpt>
      <trkpt lat="45.00168" lon="1.05659">
        <ele>44</ele>
        <time>2014-08-18T08:55:05Z</time>
      </trkpt>
      <trkpt lat="45.00185" lon="1.05652">
        <ele>44</ele>
        <time>2014-08-18T08:55:09Z</time>
      </trkpt>
      <trkpt lat="45.00203" lon="1.05647">
        <ele>44</ele>
        <time>2014-08-18T08:55:11Z</time>
      </trkpt>
      <trkpt lat="45.00215" lon="1.05644">
        <ele>44</ele>
        <time>2014-08-18T08:55:13Z</time>
      </trkpt>
      <trkpt lat="45.00232" lon="1.05641">
        <ele>44</ele>
        <time>2014-08-18T08:55:16Z</time>
      </trkpt>
      <trkpt lat="45.00245" lon="1.0564">
        <ele>44</ele>
        <time>2014-08-18T08:55:19Z</time>
      </trkpt>
      <trkpt lat="45.00257" lon="1.05638">
        <ele>44</ele>
        <time>2014-08-18T08:55:21Z</time>
      </trkpt>
      <trkpt lat="45.00275" lon="1.05636">
        <ele>44</ele>
        <time>2014-08-18T08:55:23Z</time>
      </trkpt>
      <trkpt lat="45.00291" lon="1.05636">
        <ele>44</ele>
        <time>2014-08-18T08:55:26Z</time>
      </trkpt>
      <trkpt lat="45.00306" lon="1.05634">
        <ele>45</ele>
        <time>2014-08-18T08:55:30Z</time>
      </trkpt>
      <trkpt lat="45.00322" lon="1.05632">
        <ele>45</ele>
        <time>2014-08-18T08:55:32Z</time>
      </trkpt>
      <trkpt lat="45.00334" lon="1.0563">
        <ele>45</ele>
        <time>2014-08-18T08:55:34Z</time>
      </trkpt>
      <trkpt lat="45.00347" lon="1.05628">
        <ele>45</ele>
        <time>2014-08-18T08:55:37Z</time>
      </trkpt>
      <trkpt lat="45.0036" lon="1.05625">
        <ele>46</ele>
        <time>2014-08-18T08:55:39Z</time>
      </trkpt>
      <trkpt lat="45.00381" lon="1.05622">
        <ele>46</ele>
        <time>2014-08-18T08:55:41Z</time>
      </trkpt>
      <trkpt lat="45.00396" lon="1.0562">
        <ele>46</ele>
        <time>2014-08-18T08:55:43Z</time>
      </trkpt>
      <trkpt lat="45.0041" lon="1.05617">
        <ele>47</ele>
        <time>2014-08-18T08:55:45Z</time>
      </trkpt>
      <trkpt lat="45.00424" lon="1.05613">
        <ele>47</ele>
        <time>2014-08-18T08:55:47Z</time>
      </trkpt>
      <trkpt lat="45.00438" lon="1.05607">
        <ele>47</ele>
        <time>2014-08-18T08:55:49Z</time>
      </trkpt>
      <trkpt lat="45.00452" lon="1.05602">
        <ele>47</ele>
        <time>2014-08-18T08:55:51Z</time>
      </trkpt>
      <trkpt lat="45.00464" lon="1.05596">
        <ele>47</ele>
        <time>2014-08-18T08:55:54Z</time>
      </trkpt>
      <trkpt lat="45.00483" lon="1.05587">
        <ele>48</ele>
        <time>2014-08-18T08:55:56Z</time>
      </trkpt>
      <trkpt lat="45.00501" lon="1.05578">
        <ele>48</ele>
        <time>2014-08-18T08:55:59Z</time>
      </trkpt>
      <trkpt lat="45.00513" lon="1.05573">
        <ele>47</ele>
        <time>2014-08-18T08:56:01Z</time>
      </trkpt>
      <trkpt lat="45.00525" lon="1.05567">
        <ele>48</ele>
        <time>2014-08-18T08:56:03Z</time>
      </trkpt>
      <trkpt lat="45.00537" lon="1.05562">
        <ele>48</ele>
        <time>2014-08-18T08:56:05Z</time>
      </trkpt>
      <trkpt lat="45.00549" lon="1.05558">
        <ele>48</ele>
        <time>2014-08-18T08:56:07Z</time>
      </trkpt>
      <trkpt lat="45.0056" lon="1.05554">
        <ele>48</ele>
        <time>2014-08-18T08:56:10Z</time>
      </trkpt>
      <trkpt lat="45.00572" lon="1.05551">
        <ele>48</ele>
        <time>2014-08-18T08:56:12Z</time>
      </trkpt>
      <trkpt lat="45.00589" lon="1.05548">
        <ele>49</ele>
        <time>2014-08-18T08:56:14Z</time>
      </trkpt>
      <trkpt lat="45.00599" lon="1.05546">
        <ele>49</ele>
        <time>2014-08-18T08:56:16Z</time>
      </trkpt>
      <trkpt lat="45.00609" lon="1.05545">
        <ele>49</ele>
        <time>2014-08-18T08:56:18Z</time>
      </trkpt>
      <trkpt lat="45.00617" lon="1.05544">
        <ele>49</ele>
        <time>2014-08-18T08:56:20Z</time>
      </trkpt>
      <trkpt lat="45.00621" lon="1.05544">
        <ele>49</ele>
        <time>2014-08-18T08:56:22Z</time>
      </trkpt>
      <trkpt lat="45.00623" lon="1.05545">
        <ele>49</ele>
        <time>2014-08-18T08:56:25Z</time>
      </trkpt>
      <trkpt lat="45.00623" lon="1.05544">
        <ele>49</ele>
        <time>2014-08-18T08:56:27Z</time>
      </trkpt>
      <trkpt lat="45.00621" lon="1.05543">
        <ele>49</ele>
        <time>2014-08-18T08:56:29Z</time>
      </trkpt>
      <trkpt lat="45.00621" lon="1.05542">
        <ele>49</ele>
        <time>2014-08-18T08:56:32Z</time>
      </trkpt>
      <trkpt lat="45.00625" lon="1.0554">
        <ele>49</ele>
        <time>2014-08-18T08:56:34Z</time>
      </trkpt>
      <trkpt lat="45.0063" lon="1.05539">
        <ele>49</ele>
        <time>2014-08-18T08:56:36Z</time>
      </trkpt>
      <trkpt lat="45.00638" lon="1.05538">
        <ele>49</ele>
        <time>2014-08-18T08:56:38Z</time>
      </trkpt>
      <trkpt lat="45.00653" lon="1.05535">
        <ele>49</ele>
        <time>2014-08-18T08:56:41Z</time>
      </trkpt>
      <trkpt lat="45.00668" lon="1.05534">
        <ele>50</ele>
        <time>2014-08-18T08:56:44Z</time>
      </trkpt>
      <trkpt lat="45.00679" lon="1.05533">
        <ele>50</ele>
        <time>2014-08-18T08:56:46Z</time>
      </trkpt>
      <trkpt lat="45.00697" lon="1.05531">
        <ele>50</ele>
        <time>2014-08-18T08:56:49Z</time>
      </trkpt>
      <trkpt lat="45.00709" lon="1.0553">
        <ele>51</ele>
        <time>2014-08-18T08:56:51Z</time>
      </trkpt>
      <trkpt lat="45.00728" lon="1.05528">
        <ele>51</ele>
        <time>2014-08-18T08:56:54Z</time>
      </trkpt>
      <trkpt lat="45.0074" lon="1.05527">
        <ele>51</ele>
        <time>2014-08-18T08:56:56Z</time>
      </trkpt>
      <trkpt lat="45.00752" lon="1.05525">
        <ele>51</ele>
        <time>2014-08-18T08:56:58Z</time>
      </trkpt>
      <trkpt lat="45.00764" lon="1.05524">
        <ele>51</ele>
        <time>2014-08-18T08:57:00Z</time>
      </trkpt>
      <trkpt lat="45.00783" lon="1.05521">
        <ele>52</ele>
        <time>2014-08-18T08:57:03Z</time>
      </trkpt>
      <trkpt lat="45.00795" lon="1.0552">
        <ele>52</ele>
        <time>2014-08-18T08:57:05Z</time>
      </trkpt>
      <trkpt lat="45.00807" lon="1.05518">
        <ele>52</ele>
        <time>2014-08-18T08:57:07Z</time>
      </trkpt>
      <trkpt lat="45.0082" lon="1.05517">
        <ele>52</ele>
        <time>2014-08-18T08:57:09Z</time>
      </trkpt>
      <trkpt lat="45.00832" lon="1.05515">
        <ele>53</ele>
        <time>2014-08-18T08:57:11Z</time>
      </trkpt>
      <trkpt lat="45.00845" lon="1.05513">
        <ele>53</ele>
        <time>2014-08-18T08:57:13Z</time>
      </trkpt>
      <trkpt lat="45.00857" lon="1.05511">
        <ele>53</ele>
        <time>2014-08-18T08:57:16Z</time>
      </trkpt>
      <trkpt lat="45.00876" lon="1.05508">
        <ele>53</ele>
        <time>2014-08-18T08:57:18Z</time>
      </trkpt>
      <trkpt lat="45.00894" lon="1.05505">
        <ele>53</ele>
        <time>2014-08-18T08:57:21Z</time>
      </trkpt>
      <trkpt lat="45.00906" lon="1.05503">
        <ele>54</ele>
        <time>2014-08-18T08:57:23Z</time>
      </trkpt>
      <trkpt lat="45.00919" lon="1.05501">
        <ele>54</ele>
        <time>2014-08-18T08:57:25Z</time>
      </trkpt>
      <trkpt lat="45.00938" lon="1.05499">
        <ele>54</ele>
        <time>2014-08-18T08:57:28Z</time>
      </trkpt>
      <trkpt lat="45.0095" lon="1.05497">
        <ele>54</ele>
        <time>2014-08-18T08:57:30Z</time>
      </trkpt>
      <trkpt lat="45.0097" lon="1.05496">
        <ele>54</ele>
        <time>2014-08-18T08:57:33Z</time>
      </trkpt>
      <trkpt lat="45.00983" lon="1.05496">
        <ele>54</ele>
        <time>2014-08-18T08:57:35Z</time>
      </trkpt>
      <trkpt lat="45.00995" lon="1.05497">
        <ele>54</ele>
        <time>2014-08-18T08:57:37Z</time>
      </trkpt>
      <trkpt lat="45.01007" lon="1.05499">
        <ele>54</ele>
        <time>2014-08-18T08:57:39Z</time>
      </trkpt>
      <trkpt lat="45.0102" lon="1.05501">
        <ele>54</ele>
        <time>2014-08-18T08:57:41Z</time>
      </trkpt>
      <trkpt lat="45.01033" lon="1.05504">
        <ele>54</ele>
        <time>2014-08-18T08:57:43Z</time>
      </trkpt>
      <trkpt lat="45.01052" lon="1.05509">
        <ele>54</ele>
        <time>2014-08-18T08:57:46Z</time>
      </trkpt>
      <trkpt lat="45.01064" lon="1.05513">
        <ele>54</ele>
        <time>2014-08-18T08:57:48Z</time>
      </trkpt>
      <trkpt lat="45.01076" lon="1.05517">
        <ele>54</ele>
        <time>2014-08-18T08:57:50Z</time>
      </trkpt>
      <trkpt lat="45.01088" lon="1.05522">
        <ele>54</ele>
        <time>2014-08-18T08:57:52Z</time>
      </trkpt>
      <trkpt lat="45.01107" lon="1.05528">
        <ele>54</ele>
        <time>2014-08-18T08:57:55Z</time>
      </trkpt>
      <trkpt lat="45.0112" lon="1.05532">
        <ele>54</ele>
        <time>2014-08-18T08:57:58Z</time>
      </trkpt>
      <trkpt lat="45.01139" lon="1.05537">
        <ele>53</ele>
        <time>2014-08-18T08:58:00Z</time>
      </trkpt>
      <trkpt lat="45.01152" lon="1.05539">
        <ele>53</ele>
        <time>2014-08-18T08:58:02Z</time>
      </trkpt>
      <trkpt lat="45.01165" lon="1.0554">
        <ele>54</ele>
        <time>2014-08-18T08:58:04Z</time>
      </trkpt>
      <trkpt lat="45.01179" lon="1.0554">
        <ele>54</ele>
        <time>2014-08-18T08:58:06Z</time>
      </trkpt>
      <trkpt lat="45.01192" lon="1.0554">
        <ele>53</ele>
        <time>2014-08-18T08:58:08Z</time>
      </trkpt>
      <trkpt lat="45.01206" lon="1.05539">
        <ele>53</ele>
        <time>2014-08-18T08:58:10Z</time>
      </trkpt>
      <trkpt lat="45.01226" lon="1.05537">
        <ele>53</ele>
        <time>2014-08-18T08:58:13Z</time>
      </trkpt>
      <trkpt lat="45.0124" lon="1.05536">
        <ele>53</ele>
        <time>2014-08-18T08:58:15Z</time>
      </trkpt>
      <trkpt lat="45.01254" lon="1.05535">
        <ele>53</ele>
        <time>2014-08-18T08:58:17Z</time>
      </trkpt>
      <trkpt lat="45.01273" lon="1.05534">
        <ele>53</ele>
        <time>2014-08-18T08:58:20Z</time>
      </trkpt>
      <trkpt lat="45.01293" lon="1.05533">
        <ele>53</ele>
        <time>2014-08-18T08:58:23Z</time>
      </trkpt>
      <trkpt lat="45.01307" lon="1.05532">
        <ele>53</ele>
        <time>2014-08-18T08:58:25Z</time>
      </trkpt>
      <trkpt lat="45.0132" lon="1.05531">
        <ele>53</ele>
        <time>2014-08-18T08:58:27Z</time>
      </trkpt>
      <trkpt lat="45.0134" lon="1.0553">
        <ele>53</ele>
        <time>2014-08-18T08:58:30Z</time>
      </trkpt>
      <trkpt lat="45.0136" lon="1.05529">
        <ele>53</ele>
        <time>2014-08-18T08:58:33Z</time>
      </trkpt>
      <trkpt lat="45.0138" lon="1.05527">
        <ele>53</ele>
        <time>2014-08-18T08:58:36Z</time>
      </trkpt>
      <trkpt lat="45.01393" lon="1.05525">
        <ele>53</ele>
        <time>2014-08-18T08:58:38Z</time>
      </trkpt>
      <trkpt lat="45.01406" lon="1.05522">
        <ele>53</ele>
        <time>2014-08-18T08:58:40Z</time>
      </trkpt>
      <trkpt lat="45.01419" lon="1.05519">
        <ele>54</ele>
        <time>2014-08-18T08:58:42Z</time>
      </trkpt>
      <trkpt lat="45.01431" lon="1.05515">
        <ele>54</ele>
        <time>2014-08-18T08:58:44Z</time>
      </trkpt>
      <trkpt lat="45.01444" lon="1.05509">
        <ele>54</ele>
        <time>2014-08-18T08:58:47Z</time>
      </trkpt>
      <trkpt lat="45.01463" lon="1.05497">
        <ele>54</ele>
        <time>2014-08-18T08:58:49Z</time>
      </trkpt>
      <trkpt lat="45.01475" lon="1.05489">
        <ele>53</ele>
        <time>2014-08-18T08:58:51Z</time>
      </trkpt>
      <trkpt lat="45.01487" lon="1.05481">
        <ele>53</ele>
        <time>2014-08-18T08:58:53Z</time>
      </trkpt>
      <trkpt lat="45.01506" lon="1.05467">
        <ele>53</ele>
        <time>2014-08-18T08:58:56Z</time>
      </trkpt>
      <trkpt lat="45.01519" lon="1.05458">
        <ele>53</ele>
        <time>2014-08-18T08:58:58Z</time>
      </trkpt>
      <trkpt lat="45.01532" lon="1.05449">
        <ele>53</ele>
        <time>2014-08-18T08:59:00Z</time>
      </trkpt>
      <trkpt lat="45.01545" lon="1.0544">
        <ele>53</ele>
        <time>2014-08-18T08:59:03Z</time>
      </trkpt>
      <trkpt lat="45.01564" lon="1.05427">
        <ele>53</ele>
        <time>2014-08-18T08:59:05Z</time>
      </trkpt>
      <trkpt lat="45.01576" lon="1.05418">
        <ele>54</ele>
        <time>2014-08-18T08:59:07Z</time>
      </trkpt>
      <trkpt lat="45.01595" lon="1.05407">
        <ele>53</ele>
        <time>2014-08-18T08:59:10Z</time>
      </trkpt>
      <trkpt lat="45.01608" lon="1.05399">
        <ele>53</ele>
        <time>2014-08-18T08:59:12Z</time>
      </trkpt>
      <trkpt lat="45.01628" lon="1.05389">
        <ele>53</ele>
        <time>2014-08-18T08:59:15Z</time>
      </trkpt>
      <trkpt lat="45.01641" lon="1.05384">
        <ele>53</ele>
        <time>2014-08-18T08:59:18Z</time>
      </trkpt>
      <trkpt lat="45.01662" lon="1.05379">
        <ele>53</ele>
        <time>2014-08-18T08:59:20Z</time>
      </trkpt>
      <trkpt lat="45.01675" lon="1.05377">
        <ele>54</ele>
        <time>2014-08-18T08:59:22Z</time>
      </trkpt>
      <trkpt lat="45.01687" lon="1.05375">
        <ele>54</ele>
        <time>2014-08-18T08:59:24Z</time>
      </trkpt>
      <trkpt lat="45.01704" lon="1.05372">
        <ele>54</ele>
        <time>2014-08-18T08:59:27Z</time>
      </trkpt>
      <trkpt lat="45.01715" lon="1.0537">
        <ele>54</ele>
        <time>2014-08-18T08:59:29Z</time>
      </trkpt>
      <trkpt lat="45.01727" lon="1.05367">
        <ele>54</ele>
        <time>2014-08-18T08:59:31Z</time>
      </trkpt>
      <trkpt lat="45.01744" lon="1.05362">
        <ele>54</ele>
        <time>2014-08-18T08:59:34Z</time>
      </trkpt>
      <trkpt lat="45.01757" lon="1.05359">
        <ele>54</ele>
        <time>2014-08-18T08:59:36Z</time>
      </trkpt>
      <trkpt lat="45.01773" lon="1.0535">
        <ele>54</ele>
        <time>2014-08-18T08:59:39Z</time>
      </trkpt>
      <trkpt lat="45.01782" lon="1.05342">
        <ele>54</ele>
        <time>2014-08-18T08:59:41Z</time>
      </trkpt>
      <trkpt lat="45.01782" lon="1.05326">
        <ele>54</ele>
        <time>2014-08-18T08:59:43Z</time>
      </trkpt>
      <trkpt lat="45.01774" lon="1.05302">
        <ele>54</ele>
        <time>2014-08-18T08:59:46Z</time>
      </trkpt>
      <trkpt lat="45.01768" lon="1.05285">
        <ele>53</ele>
        <time>2014-08-18T08:59:48Z</time>
      </trkpt>
      <trkpt lat="45.01762" lon="1.05267">
        <ele>53</ele>
        <time>2014-08-18T08:59:50Z</time>
      </trkpt>
      <trkpt lat="45.01756" lon="1.0525">
        <ele>53</ele>
        <time>2014-08-18T08:59:52Z</time>
      </trkpt>
      <trkpt lat="45.01747" lon="1.05223">
        <ele>53</ele>
        <time>2014-08-18T08:59:55Z</time>
      </trkpt>
      <trkpt lat="45.01741" lon="1.05207">
        <ele>52</ele>
        <time>2014-08-18T08:59:57Z</time>
      </trkpt>
      <trkpt lat="45.01734" lon="1.0519">
        <ele>52</ele>
        <time>2014-08-18T08:59:59Z</time>
      </trkpt>
      <trkpt lat="45.01728" lon="1.05173">
        <ele>52</ele>
        <time>2014-08-18T09:00:01Z</time>
      </trkpt>
      <trkpt lat="45.01722" lon="1.05155">
        <ele>52</ele>
        <time>2014-08-18T09:00:03Z</time>
      </trkpt>
      <trkpt lat="45.01715" lon="1.05138">
        <ele>52</ele>
        <time>2014-08-18T09:00:05Z</time>
      </trkpt>
      <trkpt lat="45.01708" lon="1.05123">
        <ele>53</ele>
        <time>2014-08-18T09:00:07Z</time>
      </trkpt>
      <trkpt lat="45.01697" lon="1.05102">
        <ele>52</ele>
        <time>2014-08-18T09:00:10Z</time>
      </trkpt>
      <trkpt lat="45.01685" lon="1.05086">
        <ele>53</ele>
        <time>2014-08-18T09:00:13Z</time>
      </trkpt>
      <trkpt lat="45.01677" lon="1.05077">
        <ele>53</ele>
        <time>2014-08-18T09:00:15Z</time>
      </trkpt>
      <trkpt lat="45.01663" lon="1.05065">
        <ele>53</ele>
        <time>2014-08-18T09:00:18Z</time>
      </trkpt>
      <trkpt lat="45.01651" lon="1.05059">
        <ele>52</ele>
        <time>2014-08-18T09:00:20Z</time>
      </trkpt>
      <trkpt lat="45.01639" lon="1.05054">
        <ele>53</ele>
        <time>2014-08-18T09:00:22Z</time>
      </trkpt>
      <trkpt lat="45.01622" lon="1.0505">
        <ele>53</ele>
        <time>2014-08-18T09:00:25Z</time>
      </trkpt>
      <trkpt lat="45.01612" lon="1.05048">
        <ele>53</ele>
        <time>2014-08-18T09:00:27Z</time>
      </trkpt>
      <trkpt lat="45.01603" lon="1.05045">
        <ele>53</ele>
        <time>2014-08-18T09:00:29Z</time>
      </trkpt>
      <trkpt lat="45.01592" lon="1.05042">
        <ele>53</ele>
        <time>2014-08-18T09:00:31Z</time>
      </trkpt>
      <trkpt lat="45.01583" lon="1.05035">
        <ele>53</ele>
        <time>2014-08-18T09:00:33Z</time>
      </trkpt>
      <trkpt lat="45.01574" lon="1.05025">
        <ele>54</ele>
        <time>2014-08-18T09:00:36Z</time>
      </trkpt>
      <trkpt lat="45.01569" lon="1.05019">
        <ele>54</ele>
        <time>2014-08-18T09:00:38Z</time>
      </trkpt>
      <trkpt lat="45.01563" lon="1.05015">
        <ele>55</ele>
        <time>2014-08-18T09:00:40Z</time>
      </trkpt>
      <trkpt lat="45.0155" lon="1.05009">
        <ele>55</ele>
        <time>2014-08-18T09:00:43Z</time>
      </trkpt>
      <trkpt lat="45.01535" lon="1.05005">
        <ele>55</ele>
        <time>2014-08-18T09:00:46Z</time>
      </trkpt>
      <trkpt lat="45.01518" lon="1.05001">
        <ele>55</ele>
        <time>2014-08-18T09:00:49Z</time>
      </trkpt>
      <trkpt lat="45.01508" lon="1.04999">
        <ele>55</ele>
        <time>2014-08-18T09:00:51Z</time>
      </trkpt>
      <trkpt lat="45.0149" lon="1.04994">
        <ele>55</ele>
        <time>2014-08-18T09:00:54Z</time>
      </trkpt>
      <trkpt lat="45.01475" lon="1.0499">
        <ele>55</ele>
        <time>2014-08-18T09:00:57Z</time>
      </trkpt>
      <trkpt lat="45.01462" lon="1.04989">
        <ele>55</ele>
        <time>2014-08-18T09:01:00Z</time>
      </trkpt>
      <trkpt lat="45.01448" lon="1.04985">
        <ele>55</ele>
        <time>2014-08-18T09:01:03Z</time>
      </trkpt>
      <trkpt lat="45.01438" lon="1.0498">
        <ele>55</ele>
        <time>2014-08-18T09:01:05Z</time>
      </trkpt>
      <trkpt lat="45.01426" lon="1.04967">
        <ele>56</ele>
        <time>2014-08-18T09:01:08Z</time>
      </trkpt>
      <trkpt lat="45.01418" lon="1.0495">
        <ele>56</ele>
        <time>2014-08-18T09:01:11Z</time>
      </trkpt>
      <trkpt lat="45.01414" lon="1.04938">
        <ele>57</ele>
        <time>2014-08-18T09:01:13Z</time>
      </trkpt>
      <trkpt lat="45.0141" lon="1.04923">
        <ele>57</ele>
        <time>2014-08-18T09:01:16Z</time>
      </trkpt>
      <trkpt lat="45.01407" lon="1.04914">
        <ele>58</ele>
        <time>2014-08-18T09:01:18Z</time>
      </trkpt>
      <trkpt lat="45.01404" lon="1.04901">
        <ele>58</ele>
        <time>2014-08-18T09:01:21Z</time>
      </trkpt>
      <trkpt lat="45.01402" lon="1.04892">
        <ele>59</ele>
        <time>2014-08-18T09:01:23Z</time>
      </trkpt>
      <trkpt lat="45.01399" lon="1.04878">
        <ele>60</ele>
        <time>2014-08-18T09:01:26Z</time>
      </trkpt>
      <trkpt lat="45.01395" lon="1.04865">
        <ele>62</ele>
        <time>2014-08-18T09:01:29Z</time>
      </trkpt>
      <trkpt lat="45.01393" lon="1.04856">
        <ele>62</ele>
        <time>2014-08-18T09:01:31Z</time>
      </trkpt>
      <trkpt lat="45.01389" lon="1.04842">
        <ele>63</ele>
        <time>2014-08-18T09:01:34Z</time>
      </trkpt>
      <trkpt lat="45.01386" lon="1.04832">
        <ele>64</ele>
        <time>2014-08-18T09:01:36Z</time>
      </trkpt>
      <trkpt lat="45.01381" lon="1.04819">
        <ele>65</ele>
        <time>2014-08-18T09:01:39Z</time>
      </trkpt>
      <trkpt lat="45.01377" lon="1.04812">
        <ele>65</ele>
        <time>2014-08-18T09:01:41Z</time>
      </trkpt>
      <trkpt lat="45.01371" lon="1.04802">
        <ele>66</ele>
        <time>2014-08-18T09:01:44Z</time>
      </trkpt>
      <trkpt lat="45.01368" lon="1.04795">
        <ele>66</ele>
        <time>2014-08-18T09:01:46Z</time>
      </trkpt>
      <trkpt lat="45.01364" lon="1.04788">
        <ele>67</ele>
        <time>2014-08-18T09:01:48Z</time>
      </trkpt>
      <trkpt lat="45.01358" lon="1.0478">
        <ele>68</ele>
        <time>2014-08-18T09:01:51Z</time>
      </trkpt>
      <trkpt lat="45.01352" lon="1.0477">
        <ele>69</ele>
        <time>2014-08-18T09:01:54Z</time>
      </trkpt>
      <trkpt lat="45.01346" lon="1.04762">
        <ele>69</ele>
        <time>2014-08-18T09:01:57Z</time>
      </trkpt>
      <trkpt lat="45.01341" lon="1.04756">
        <ele>70</ele>
        <time>2014-08-18T09:01:59Z</time>
      </trkpt>
      <trkpt lat="45.01332" lon="1.04748">
        <ele>71</ele>
        <time>2014-08-18T09:02:02Z</time>
      </trkpt>
      <trkpt lat="45.01326" lon="1.04744">
        <ele>72</ele>
        <time>2014-08-18T09:02:04Z</time>
      </trkpt>
      <trkpt lat="45.0132" lon="1.04739">
        <ele>73</ele>
        <time>2014-08-18T09:02:06Z</time>
      </trkpt>
      <trkpt lat="45.01314" lon="1.04734">
        <ele>73</ele>
        <time>2014-08-18T09:02:08Z</time>
      </trkpt>
      <trkpt lat="45.01305" lon="1.04728">
        <ele>74</ele>
        <time>2014-08-18T09:02:11Z</time>
      </trkpt>
      <trkpt lat="45.01301" lon="1.04724">
        <ele>75</ele>
        <time>2014-08-18T09:02:13Z</time>
      </trkpt>
      <trkpt lat="45.01292" lon="1.04716">
        <ele>76</ele>
        <time>2014-08-18T09:02:16Z</time>
      </trkpt>
      <trkpt lat="45.01286" lon="1.04708">
        <ele>76</ele>
        <time>2014-08-18T09:02:18Z</time>
      </trkpt>
      <trkpt lat="45.01281" lon="1.04694">
        <ele>77</ele>
        <time>2014-08-18T09:02:21Z</time>
      </trkpt>
      <trkpt lat="45.01279" lon="1.04684">
        <ele>78</ele>
        <time>2014-08-18T09:02:23Z</time>
      </trkpt>
      <trkpt lat="45.01276" lon="1.04675">
        <ele>79</ele>
        <time>2014-08-18T09:02:25Z</time>
      </trkpt>
      <trkpt lat="45.01274" lon="1.04666">
        <ele>80</ele>
        <time>2014-08-18T09:02:27Z</time>
      </trkpt>
      <trkpt lat="45.01271" lon="1.04656">
        <ele>80</ele>
        <time>2014-08-18T09:02:29Z</time>
      </trkpt>
      <trkpt lat="45.01267" lon="1.04641">
        <ele>81</ele>
        <time>2014-08-18T09:02:32Z</time>
      </trkpt>
      <trkpt lat="45.01263" lon="1.04633">
        <ele>82</ele>
        <time>2014-08-18T09:02:34Z</time>
      </trkpt>
      <trkpt lat="45.01258" lon="1.0462">
        <ele>83</ele>
        <time>2014-08-18T09:02:37Z</time>
      </trkpt>
      <trkpt lat="45.01253" lon="1.04608">
        <ele>84</ele>
        <time>2014-08-18T09:02:40Z</time>
      </trkpt>
      <trkpt lat="45.0125" lon="1.04599">
        <ele>85</ele>
        <time>2014-08-18T09:02:42Z</time>
      </trkpt>
      <trkpt lat="45.01247" lon="1.0459">
        <ele>85</ele>
        <time>2014-08-18T09:02:44Z</time>
      </trkpt>
      <trkpt lat="45.01242" lon="1.04577">
        <ele>86</ele>
        <time>2014-08-18T09:02:47Z</time>
      </trkpt>
      <trkpt lat="45.01239" lon="1.04569">
        <ele>87</ele>
        <time>2014-08-18T09:02:49Z</time>
      </trkpt>
      <trkpt lat="45.01236" lon="1.04559">
        <ele>87</ele>
        <time>2014-08-18T09:02:52Z</time>
      </trkpt>
      <trkpt lat="45.0123" lon="1.04547">
        <ele>88</ele>
        <time>2014-08-18T09:02:55Z</time>
      </trkpt>
      <trkpt lat="45.01225" lon="1.04538">
        <ele>89</ele>
        <time>2014-08-18T09:02:57Z</time>
      </trkpt>
      <trkpt lat="45.0122" lon="1.04524">
        <ele>90</ele>
        <time>2014-08-18T09:03:00Z</time>
      </trkpt>
      <trkpt lat="45.01215" lon="1.04509">
        <ele>91</ele>
        <time>2014-08-18T09:03:03Z</time>
      </trkpt>
      <trkpt lat="45.01211" lon="1.04499">
        <ele>92</ele>
        <time>2014-08-18T09:03:05Z</time>
      </trkpt>
      <trkpt lat="45.01206" lon="1.04483">
        <ele>93</ele>
        <time>2014-08-18T09:03:08Z</time>
      </trkpt>
      <trkpt lat="45.01203" lon="1.04472">
        <ele>93</ele>
        <time>2014-08-18T09:03:10Z</time>
      </trkpt>
      <trkpt lat="45.01199" lon="1.04456">
        <ele>94</ele>
        <time>2014-08-18T09:03:13Z</time>
      </trkpt>
      <trkpt lat="45.01196" lon="1.04445">
        <ele>94</ele>
        <time>2014-08-18T09:03:15Z</time>
      </trkpt>
      <trkpt lat="45.01191" lon="1.04428">
        <ele>95</ele>
        <time>2014-08-18T09:03:18Z</time>
      </trkpt>
      <trkpt lat="45.01184" lon="1.04412">
        <ele>95</ele>
        <time>2014-08-18T09:03:21Z</time>
      </trkpt>
      <trkpt lat="45.01179" lon="1.04397">
        <ele>96</ele>
        <time>2014-08-18T09:03:24Z</time>
      </trkpt>
      <trkpt lat="45.01172" lon="1.04382">
        <ele>97</ele>
        <time>2014-08-18T09:03:27Z</time>
      </trkpt>
      <trkpt lat="45.01167" lon="1.04368">
        <ele>98</ele>
        <time>2014-08-18T09:03:30Z</time>
      </trkpt>
      <trkpt lat="45.01162" lon="1.04353">
        <ele>99</ele>
        <time>2014-08-18T09:03:33Z</time>
      </trkpt>
      <trkpt lat="45.01159" lon="1.04344">
        <ele>99</ele>
        <time>2014-08-18T09:03:35Z</time>
      </trkpt>
      <trkpt lat="45.01155" lon="1.04334">
        <ele>100</ele>
        <time>2014-08-18T09:03:37Z</time>
      </trkpt>
      <trkpt lat="45.01151" lon="1.04319">
        <ele>100</ele>
        <time>2014-08-18T09:03:40Z</time>
      </trkpt>
      <trkpt lat="45.01146" lon="1.04305">
        <ele>101</ele>
        <time>2014-08-18T09:03:43Z</time>
      </trkpt>
      <trkpt lat="45.01139" lon="1.04292">
        <ele>102</ele>
        <time>2014-08-18T09:03:46Z</time>
      </trkpt>
      <trkpt lat="45.01132" lon="1.0428">
        <ele>103</ele>
        <time>2014-08-18T09:03:49Z</time>
      </trkpt>
      <trkpt lat="45.01127" lon="1.04272">
        <ele>104</ele>
        <time>2014-08-18T09:03:51Z</time>
      </trkpt>
      <trkpt lat="45.0112" lon="1.0426">
        <ele>105</ele>
        <time>2014-08-18T09:03:54Z</time>
      </trkpt>
      <trkpt lat="45.01116" lon="1.04251">
        <ele>106</ele>
        <time>2014-08-18T09:03:56Z</time>
      </trkpt>
      <trkpt lat="45.01109" lon="1.04238">
        <ele>106</ele>
        <time>2014-08-18T09:03:59Z</time>
      </trkpt>
      <trkpt lat="45.01104" lon="1.0423">
        <ele>107</ele>
        <time>2014-08-18T09:04:01Z</time>
      </trkpt>
      <trkpt lat="45.011" lon="1.04221">
        <ele>108</ele>
        <time>2014-08-18T09:04:03Z</time>
      </trkpt>
      <trkpt lat="45.01096" lon="1.04213">
        <ele>109</ele>
        <time>2014-08-18T09:04:05Z</time>
      </trkpt>
      <trkpt lat="45.01091" lon="1.04198">
        <ele>109</ele>
        <time>2014-08-18T09:04:08Z</time>
      </trkpt>
      <trkpt lat="45.01086" lon="1.04182">
        <ele>110</ele>
        <time>2014-08-18T09:04:11Z</time>
      </trkpt>
      <trkpt lat="45.01082" lon="1.0417">
        <ele>110</ele>
        <time>2014-08-18T09:04:13Z</time>
      </trkpt>
      <trkpt lat="45.01076" lon="1.04153">
        <ele>111</ele>
        <time>2014-08-18T09:04:16Z</time>
      </trkpt>
      <trkpt lat="45.01072" lon="1.04141">
        <ele>112</ele>
        <time>2014-08-18T09:04:18Z</time>
      </trkpt>
      <trkpt lat="45.01066" lon="1.04124">
        <ele>113</ele>
        <time>2014-08-18T09:04:21Z</time>
      </trkpt>
      <trkpt lat="45.01062" lon="1.04113">
        <ele>113</ele>
        <time>2014-08-18T09:04:23Z</time>
      </trkpt>
      <trkpt lat="45.01058" lon="1.04102">
        <ele>114</ele>
        <time>2014-08-18T09:04:25Z</time>
      </trkpt>
      <trkpt lat="45.01052" lon="1.04086">
        <ele>114</ele>
        <time>2014-08-18T09:04:28Z</time>
      </trkpt>
      <trkpt lat="45.01049" lon="1.04075">
        <ele>115</ele>
        <time>2014-08-18T09:04:30Z</time>
      </trkpt>
      <trkpt lat="45.01044" lon="1.0406">
        <ele>116</ele>
        <time>2014-08-18T09:04:33Z</time>
      </trkpt>
      <trkpt lat="45.01039" lon="1.04045">
        <ele>116</ele>
        <time>2014-08-18T09:04:36Z</time>
      </trkpt>
      <trkpt lat="45.01036" lon="1.04035">
        <ele>117</ele>
        <time>2014-08-18T09:04:38Z</time>
      </trkpt>
      <trkpt lat="45.01033" lon="1.04025">
        <ele>117</ele>
        <time>2014-08-18T09:04:40Z</time>
      </trkpt>
      <trkpt lat="45.01029" lon="1.04016">
        <ele>117</ele>
        <time>2014-08-18T09:04:42Z</time>
      </trkpt>
      <trkpt lat="45.01024" lon="1.04002">
        <ele>117</ele>
        <time>2014-08-18T09:04:45Z</time>
      </trkpt>
      <trkpt lat="45.0102" lon="1.03987">
        <ele>118</ele>
        <time>2014-08-18T09:04:48Z</time>
      </trkpt>
      <trkpt lat="45.01017" lon="1.03977">
        <ele>118</ele>
        <time>2014-08-18T09:04:50Z</time>
      </trkpt>
      <trkpt lat="45.01012" lon="1.03963">
        <ele>119</ele>
        <time>2014-08-18T09:04:53Z</time>
      </trkpt>
      <trkpt lat="45.01007" lon="1.03949">
        <ele>120</ele>
        <time>2014-08-18T09:04:56Z</time>
      </trkpt>
      <trkpt lat="45.01002" lon="1.03935">
        <ele>121</ele>
        <time>2014-08-18T09:04:59Z</time>
      </trkpt>
      <trkpt lat="45.00998" lon="1.03922">
        <ele>122</ele>
        <time>2014-08-18T09:05:02Z</time>
      </trkpt>
      <trkpt lat="45.00995" lon="1.03914">
        <ele>122</ele>
        <time>2014-08-18T09:05:04Z</time>
      </trkpt>
      <trkpt lat="45.00991" lon="1.03905">
        <ele>123</ele>
        <time>2014-08-18T09:05:06Z</time>
      </trkpt>
      <trkpt lat="45.00986" lon="1.03892">
        <ele>124</ele>
        <time>2014-08-18T09:05:09Z</time>
      </trkpt>
      <trkpt lat="45.00981" lon="1.03883">
        <ele>124</ele>
        <time>2014-08-18T09:05:11Z</time>
      </trkpt>
      <trkpt lat="45.00979" lon="1.03876">
        <ele>125</ele>
        <time>2014-08-18T09:05:13Z</time>
      </trkpt>
      <trkpt lat="45.00975" lon="1.03868">
        <ele>126</ele>
        <time>2014-08-18T09:05:15Z</time>
      </trkpt>
      <trkpt lat="45.00971" lon="1.0386">
        <ele>126</ele>
        <time>2014-08-18T09:05:17Z</time>
      </trkpt>
      <trkpt lat="45.00965" lon="1.0385">
        <ele>127</ele>
        <time>2014-08-18T09:05:20Z</time>
      </trkpt>
      <trkpt lat="45.00957" lon="1.0384">
        <ele>128</ele>
        <time>2014-08-18T09:05:23Z</time>
      </trkpt>
      <trkpt lat="45.00951" lon="1.0383">
        <ele>129</ele>
        <time>2014-08-18T09:05:26Z</time>
      </trkpt>
      <trkpt lat="45.00943" lon="1.03819">
        <ele>130</ele>
        <time>2014-08-18T09:05:29Z</time>
      </trkpt>
      <trkpt lat="45.00937" lon="1.03813">
        <ele>131</ele>
        <time>2014-08-18T09:05:31Z</time>
      </trkpt>
      <trkpt lat="45.0093" lon="1.03802">
        <ele>131</ele>
        <time>2014-08-18T09:05:34Z</time>
      </trkpt>
      <trkpt lat="45.00922" lon="1.03791">
        <ele>132</ele>
        <time>2014-08-18T09:05:37Z</time>
      </trkpt>
      <trkpt lat="45.00913" lon="1.03779">
        <ele>133</ele>
        <time>2014-08-18T09:05:40Z</time>
      </trkpt>
      <trkpt lat="45.00907" lon="1.03772">
        <ele>134</ele>
        <time>2014-08-18T09:05:42Z</time>
      </trkpt>
      <trkpt lat="45.00897" lon="1.03761">
        <ele>134</ele>
        <time>2014-08-18T09:05:45Z</time>
      </trkpt>
      <trkpt lat="45.00891" lon="1.03754">
        <ele>135</ele>
        <time>2014-08-18T09:05:47Z</time>
      </trkpt>
      <trkpt lat="45.00882" lon="1.03744">
        <ele>136</ele>
        <time>2014-08-18T09:05:50Z</time>
      </trkpt>
      <trkpt lat="45.00872" lon="1.03735">
        <ele>137</ele>
        <time>2014-08-18T09:05:53Z</time>
      </trkpt>
      <trkpt lat="45.00866" lon="1.0373">
        <ele>137</ele>
        <time>2014-08-18T09:05:55Z</time>
      </trkpt>
      <trkpt lat="45.00854" lon="1.03722">
        <ele>137</ele>
        <time>2014-08-18T09:05:58Z</time>
      </trkpt>
      <trkpt lat="45.00848" lon="1.03718">
        <ele>138</ele>
        <time>2014-08-18T09:06:00Z</time>
      </trkpt>
      <trkpt lat="45.00842" lon="1.03715">
        <ele>139</ele>
        <time>2014-08-18T09:06:02Z</time>
      </trkpt>
      <trkpt lat="45.00831" lon="1.03711">
        <ele>140</ele>
        <time>2014-08-18T09:06:05Z</time>
      </trkpt>
      <trkpt lat="45.00824" lon="1.03709">
        <ele>141</ele>
        <time>2014-08-18T09:06:07Z</time>
      </trkpt>
      <trkpt lat="45.00816" lon="1.03708">
        <ele>141</ele>
        <time>2014-08-18T09:06:09Z</time>
      </trkpt>
      <trkpt lat="45.00805" lon="1.03707">
        <ele>142</ele>
        <time>2014-08-18T09:06:12Z</time>
      </trkpt>
      <trkpt lat="45.00797" lon="1.03709">
        <ele>142</ele>
        <time>2014-08-18T09:06:15Z</time>
      </trkpt>
      <trkpt lat="45.00791" lon="1.03708">
        <ele>143</ele>
        <time>2014-08-18T09:06:18Z</time>
      </trkpt>
      <trkpt lat="45.00783" lon="1.03709">
        <ele>144</ele>
        <time>2014-08-18T09:06:21Z</time>
      </trkpt>
      <trkpt lat="45.00777" lon="1.03708">
        <ele>145</ele>
        <time>2014-08-18T09:06:23Z</time>
      </trkpt>
      <trkpt lat="45.00769" lon="1.03708">
        <ele>146</ele>
        <time>2014-08-18T09:06:26Z</time>
      </trkpt>
      <trkpt lat="45.00762" lon="1.03709">
        <ele>146</ele>
        <time>2014-08-18T09:06:28Z</time>
      </trkpt>
      <trkpt lat="45.00752" lon="1.03709">
        <ele>147</ele>
        <time>2014-08-18T09:06:31Z</time>
      </trkpt>
      <trkpt lat="45.00745" lon="1.0371">
        <ele>147</ele>
        <time>2014-08-18T09:06:33Z</time>
      </trkpt>
      <trkpt lat="45.00734" lon="1.03711">
        <ele>148</ele>
        <time>2014-08-18T09:06:36Z</time>
      </trkpt>
      <trkpt lat="45.00728" lon="1.03712">
        <ele>148</ele>
        <time>2014-08-18T09:06:38Z</time>
      </trkpt>
      <trkpt lat="45.00721" lon="1.03714">
        <ele>149</ele>
        <time>2014-08-18T09:06:40Z</time>
      </trkpt>
      <trkpt lat="45.0071" lon="1.03716">
        <ele>150</ele>
        <time>2014-08-18T09:06:43Z</time>
      </trkpt>
      <trkpt lat="45.00702" lon="1.03718">
        <ele>150</ele>
        <time>2014-08-18T09:06:45Z</time>
      </trkpt>
      <trkpt lat="45.00695" lon="1.0372">
        <ele>151</ele>
        <time>2014-08-18T09:06:47Z</time>
      </trkpt>
      <trkpt lat="45.00684" lon="1.03724">
        <ele>152</ele>
        <time>2014-08-18T09:06:50Z</time>
      </trkpt>
      <trkpt lat="45.00672" lon="1.0373">
        <ele>153</ele>
        <time>2014-08-18T09:06:53Z</time>
      </trkpt>
      <trkpt lat="45.00665" lon="1.03735">
        <ele>154</ele>
        <time>2014-08-18T09:06:55Z</time>
      </trkpt>
      <trkpt lat="45.00658" lon="1.0374">
        <ele>154</ele>
        <time>2014-08-18T09:06:57Z</time>
      </trkpt>
      <trkpt lat="45.00647" lon="1.03749">
        <ele>155</ele>
        <time>2014-08-18T09:07:00Z</time>
      </trkpt>
      <trkpt lat="45.00635" lon="1.03758">
        <ele>155</ele>
        <time>2014-08-18T09:07:03Z</time>
      </trkpt>
      <trkpt lat="45.00628" lon="1.03764">
        <ele>156</ele>
        <time>2014-08-18T09:07:05Z</time>
      </trkpt>
      <trkpt lat="45.00621" lon="1.0377">
        <ele>157</ele>
        <time>2014-08-18T09:07:07Z</time>
      </trkpt>
      <trkpt lat="45.00611" lon="1.03778">
        <ele>158</ele>
        <time>2014-08-18T09:07:10Z</time>
      </trkpt>
      <trkpt lat="45.00603" lon="1.03783">
        <ele>159</ele>
        <time>2014-08-18T09:07:13Z</time>
      </trkpt>
      <trkpt lat="45.00597" lon="1.03786">
        <ele>160</ele>
        <time>2014-08-18T09:07:15Z</time>
      </trkpt>
      <trkpt lat="45.00591" lon="1.03789">
        <ele>160</ele>
        <time>2014-08-18T09:07:17Z</time>
      </trkpt>
      <trkpt lat="45.00581" lon="1.03791">
        <ele>161</ele>
        <time>2014-08-18T09:07:20Z</time>
      </trkpt>
      <trkpt lat="45.00571" lon="1.03791">
        <ele>161</ele>
        <time>2014-08-18T09:07:23Z</time>
      </trkpt>
      <trkpt lat="45.00564" lon="1.03788">
        <ele>162</ele>
        <time>2014-08-18T09:07:25Z</time>
      </trkpt>
      <trkpt lat="45.00558" lon="1.03783">
        <ele>162</ele>
        <time>2014-08-18T09:07:27Z</time>
      </trkpt>
      <trkpt lat="45.00552" lon="1.03771">
        <ele>163</ele>
        <time>2014-08-18T09:07:30Z</time>
      </trkpt>
      <trkpt lat="45.0055" lon="1.03763">
        <ele>164</ele>
        <time>2014-08-18T09:07:32Z</time>
      </trkpt>
      <trkpt lat="45.00548" lon="1.03751">
        <ele>165</ele>
        <time>2014-08-18T09:07:35Z</time>
      </trkpt>
      <trkpt lat="45.00544" lon="1.03738">
        <ele>167</ele>
        <time>2014-08-18T09:07:38Z</time>
      </trkpt>
      <trkpt lat="45.0054" lon="1.03723">
        <ele>167</ele>
        <time>2014-08-18T09:07:41Z</time>
      </trkpt>
      <trkpt lat="45.00537" lon="1.03715">
        <ele>168</ele>
        <time>2014-08-18T09:07:43Z</time>
      </trkpt>
      <trkpt lat="45.00535" lon="1.03709">
        <ele>168</ele>
        <time>2014-08-18T09:07:45Z</time>
      </trkpt>
      <trkpt lat="45.00529" lon="1.03699">
        <ele>169</ele>
        <time>2014-08-18T09:07:48Z</time>
      </trkpt>
      <trkpt lat="45.00523" lon="1.03688">
        <ele>169</ele>
        <time>2014-08-18T09:07:51Z</time>
      </trkpt>
      <trkpt lat="45.00519" lon="1.03681">
        <ele>170</ele>
        <time>2014-08-18T09:07:53Z</time>
      </trkpt>
      <trkpt lat="45.00512" lon="1.0367">
        <ele>171</ele>
        <time>2014-08-18T09:07:56Z</time>
      </trkpt>
      <trkpt lat="45.00507" lon="1.03664">
        <ele>171</ele>
        <time>2014-08-18T09:07:58Z</time>
      </trkpt>
      <trkpt lat="45.00502" lon="1.03658">
        <ele>171</ele>
        <time>2014-08-18T09:08:00Z</time>
      </trkpt>
      <trkpt lat="45.00496" lon="1.03649">
        <ele>172</ele>
        <time>2014-08-18T09:08:03Z</time>
      </trkpt>
      <trkpt lat="45.00491" lon="1.03643">
        <ele>173</ele>
        <time>2014-08-18T09:08:05Z</time>
      </trkpt>
      <trkpt lat="45.00484" lon="1.03635">
        <ele>174</ele>
        <time>2014-08-18T09:08:08Z</time>
      </trkpt>
      <trkpt lat="45.00479" lon="1.03628">
        <ele>175</ele>
        <time>2014-08-18T09:08:10Z</time>
      </trkpt>
      <trkpt lat="45.0047" lon="1.03618">
        <ele>176</ele>
        <time>2014-08-18T09:08:13Z</time>
      </trkpt>
      <trkpt lat="45.00465" lon="1.0361">
        <ele>176</ele>
        <time>2014-08-18T09:08:15Z</time>
      </trkpt>
      <trkpt lat="45.00459" lon="1.03601">
        <ele>177</ele>
        <time>2014-08-18T09:08:17Z</time>
      </trkpt>
      <trkpt lat="45.00453" lon="1.03593">
        <ele>178</ele>
        <time>2014-08-18T09:08:19Z</time>
      </trkpt>
      <trkpt lat="45.00446" lon="1.03581">
        <ele>178</ele>
        <time>2014-08-18T09:08:22Z</time>
      </trkpt>
      <trkpt lat="45.00441" lon="1.03573">
        <ele>179</ele>
        <time>2014-08-18T09:08:24Z</time>
      </trkpt>
      <trkpt lat="45.00435" lon="1.0356">
        <ele>179</ele>
        <time>2014-08-18T09:08:27Z</time>
      </trkpt>
      <trkpt lat="45.00431" lon="1.03552">
        <ele>180</ele>
        <time>2014-08-18T09:08:29Z</time>
      </trkpt>
      <trkpt lat="45.00425" lon="1.03539">
        <ele>180</ele>
        <time>2014-08-18T09:08:32Z</time>
      </trkpt>
      <trkpt lat="45.00422" lon="1.0353">
        <ele>181</ele>
        <time>2014-08-18T09:08:34Z</time>
      </trkpt>
      <trkpt lat="45.00417" lon="1.03517">
        <ele>182</ele>
        <time>2014-08-18T09:08:37Z</time>
      </trkpt>
      <trkpt lat="45.00415" lon="1.03508">
        <ele>182</ele>
        <time>2014-08-18T09:08:39Z</time>
      </trkpt>
      <trkpt lat="45.00412" lon="1.03498">
        <ele>183</ele>
        <time>2014-08-18T09:08:42Z</time>
      </trkpt>
      <trkpt lat="45.0041" lon="1.03491">
        <ele>183</ele>
        <time>2014-08-18T09:08:45Z</time>
      </trkpt>
      <trkpt lat="45.00407" lon="1.03491">
        <ele>183</ele>
        <time>2014-08-18T09:08:47Z</time>
      </trkpt>
      <trkpt lat="45.00407" lon="1.0349">
        <ele>184</ele>
        <time>2014-08-18T09:08:50Z</time>
      </trkpt>
      <trkpt lat="45.00399" lon="1.03501">
        <ele>184</ele>
        <time>2014-08-18T09:08:52Z</time>
      </trkpt>
      <trkpt lat="45.00397" lon="1.03505">
        <ele>184</ele>
        <time>2014-08-18T09:08:54Z</time>
      </trkpt>
      <trkpt lat="45.00393" lon="1.03512">
        <ele>184</ele>
        <time>2014-08-18T09:08:57Z</time>
      </trkpt>
      <trkpt lat="45.00389" lon="1.03519">
        <ele>184</ele>
        <time>2014-08-18T09:08:59Z</time>
      </trkpt>
      <trkpt lat="45.0038" lon="1.03526">
        <ele>185</ele>
        <time>2014-08-18T09:09:02Z</time>
      </trkpt>
      <trkpt lat="45.00372" lon="1.03529">
        <ele>185</ele>
        <time>2014-08-18T09:09:04Z</time>
      </trkpt>
      <trkpt lat="45.00362" lon="1.03531">
        <ele>186</ele>
        <time>2014-08-18T09:09:07Z</time>
      </trkpt>
      <trkpt lat="45.00355" lon="1.03534">
        <ele>186</ele>
        <time>2014-08-18T09:09:10Z</time>
      </trkpt>
      <trkpt lat="45.00346" lon="1.0354">
        <ele>186</ele>
        <time>2014-08-18T09:09:12Z</time>
      </trkpt>
      <trkpt lat="45.00338" lon="1.03544">
        <ele>186</ele>
        <time>2014-08-18T09:09:14Z</time>
      </trkpt>
      <trkpt lat="45.00324" lon="1.0355">
        <ele>186</ele>
        <time>2014-08-18T09:09:17Z</time>
      </trkpt>
      <trkpt lat="45.00314" lon="1.03549">
        <ele>185</ele>
        <time>2014-08-18T09:09:19Z</time>
      </trkpt>
      <trkpt lat="45.00303" lon="1.03545">
        <ele>185</ele>
        <time>2014-08-18T09:09:21Z</time>
      </trkpt>
      <trkpt lat="45.00293" lon="1.03537">
        <ele>185</ele>
        <time>2014-08-18T09:09:23Z</time>
      </trkpt>
      <trkpt lat="45.00285" lon="1.03527">
        <ele>185</ele>
        <time>2014-08-18T09:09:25Z</time>
      </trkpt>
      <trkpt lat="45.00274" lon="1.03511">
        <ele>185</ele>
        <time>2014-08-18T09:09:28Z</time>
      </trkpt>
      <trkpt lat="45.00266" lon="1.035">
        <ele>185</ele>
        <time>2014-08-18T09:09:31Z</time>
      </trkpt>
      <trkpt lat="45.00251" lon="1.03483">
        <ele>185</ele>
        <time>2014-08-18T09:09:33Z</time>
      </trkpt>
      <trkpt lat="45.0024" lon="1.03471">
        <ele>184</ele>
        <time>2014-08-18T09:09:35Z</time>
      </trkpt>
      <trkpt lat="45.00227" lon="1.03458">
        <ele>183</ele>
        <time>2014-08-18T09:09:37Z</time>
      </trkpt>
      <trkpt lat="45.00203" lon="1.03442">
        <ele>182</ele>
        <time>2014-08-18T09:09:40Z</time>
      </trkpt>
      <trkpt lat="45.00187" lon="1.03432">
        <ele>181</ele>
        <time>2014-08-18T09:09:42Z</time>
      </trkpt>
      <trkpt lat="45.00166" lon="1.03422">
        <ele>181</ele>
        <time>2014-08-18T09:09:45Z</time>
      </trkpt>
      <trkpt lat="45.00154" lon="1.03415">
        <ele>182</ele>
        <time>2014-08-18T09:09:47Z</time>
      </trkpt>
      <trkpt lat="45.00138" lon="1.03407">
        <ele>182</ele>
        <time>2014-08-18T09:09:50Z</time>
      </trkpt>
      <trkpt lat="45.00127" lon="1.03402">
        <ele>182</ele>
        <time>2014-08-18T09:09:52Z</time>
      </trkpt>
      <trkpt lat="45.00116" lon="1.03396">
        <ele>182</ele>
        <time>2014-08-18T09:09:54Z</time>
      </trkpt>
      <trkpt lat="45.00107" lon="1.0339">
        <ele>183</ele>
        <time>2014-08-18T09:09:56Z</time>
      </trkpt>
      <trkpt lat="45.00094" lon="1.03383">
        <ele>183</ele>
        <time>2014-08-18T09:09:59Z</time>
      </trkpt>
      <trkpt lat="45.00086" lon="1.0338">
        <ele>183</ele>
        <time>2014-08-18T09:10:01Z</time>
      </trkpt>
      <trkpt lat="45.00079" lon="1.03377">
        <ele>183</ele>
        <time>2014-08-18T09:10:04Z</time>
      </trkpt>
      <trkpt lat="45.00073" lon="1.03376">
        <ele>184</ele>
        <time>2014-08-18T09:10:07Z</time>
      </trkpt>
      <trkpt lat="45.00068" lon="1.03377">
        <ele>184</ele>
        <time>2014-08-18T09:10:09Z</time>
      </trkpt>
      <trkpt lat="45.00064" lon="1.03378">
        <ele>184</ele>
        <time>2014-08-18T09:10:11Z</time>
      </trkpt>
      <trkpt lat="45.00058" lon="1.03381">
        <ele>184</ele>
        <time>2014-08-18T09:10:13Z</time>
      </trkpt>
      <trkpt lat="45.00053" lon="1.03386">
        <ele>183</ele>
        <time>2014-08-18T09:10:15Z</time>
      </trkpt>
      <trkpt lat="45.00049" lon="1.03392">
        <ele>183</ele>
        <time>2014-08-18T09:10:17Z</time>
      </trkpt>
      <trkpt lat="45.00043" lon="1.03398">
        <ele>183</ele>
        <time>2014-08-18T09:10:19Z</time>
      </trkpt>
      <trkpt lat="45.00033" lon="1.03405">
        <ele>183</ele>
        <time>2014-08-18T09:10:22Z</time>
      </trkpt>
      <trkpt lat="45.00026" lon="1.0341">
        <ele>182</ele>
        <time>2014-08-18T09:10:24Z</time>
      </trkpt>
      <trkpt lat="45.00015" lon="1.03417">
        <ele>181</ele>
        <time>2014-08-18T09:10:27Z</time>
      </trkpt>
      <trkpt lat="45.00003" lon="1.03425">
        <ele>181</ele>
        <time>2014-08-18T09:10:30Z</time>
      </trkpt>
      <trkpt lat="44.99995" lon="1.0343">
        <ele>180</ele>
        <time>2014-08-18T09:10:32Z</time>
      </trkpt>
      <trkpt lat="44.99986" lon="1.03435">
        <ele>180</ele>
        <time>2014-08-18T09:10:34Z</time>
      </trkpt>
      <trkpt lat="44.99977" lon="1.0344">
        <ele>179</ele>
        <time>2014-08-18T09:10:37Z</time>
      </trkpt>
      <trkpt lat="44.99962" lon="1.03446">
        <ele>178</ele>
        <time>2014-08-18T09:10:39Z</time>
      </trkpt>
      <trkpt lat="44.99952" lon="1.03449">
        <ele>178</ele>
        <time>2014-08-18T09:10:41Z</time>
      </trkpt>
      <trkpt lat="44.99941" lon="1.03452">
        <ele>177</ele>
        <time>2014-08-18T09:10:43Z</time>
      </trkpt>
      <trkpt lat="44.9993" lon="1.03454">
        <ele>177</ele>
        <time>2014-08-18T09:10:45Z</time>
      </trkpt>
      <trkpt lat="44.9992" lon="1.03456">
        <ele>177</ele>
        <time>2014-08-18T09:10:47Z</time>
      </trkpt>
      <trkpt lat="44.99905" lon="1.0346">
        <ele>176</ele>
        <time>2014-08-18T09:10:50Z</time>
      </trkpt>
      <trkpt lat="44.99895" lon="1.03465">
        <ele>176</ele>
        <time>2014-08-18T09:10:52Z</time>
      </trkpt>
      <trkpt lat="44.99885" lon="1.03472">
        <ele>175</ele>
        <time>2014-08-18T09:10:55Z</time>
      </trkpt>
      <trkpt lat="44.99868" lon="1.03483">
        <ele>175</ele>
        <time>2014-08-18T09:10:57Z</time>
      </trkpt>
      <trkpt lat="44.99856" lon="1.03492">
        <ele>174</ele>
        <time>2014-08-18T09:10:59Z</time>
      </trkpt>
      <trkpt lat="44.99842" lon="1.03501">
        <ele>173</ele>
        <time>2014-08-18T09:11:01Z</time>
      </trkpt>
      <trkpt lat="44.99831" lon="1.03508">
        <ele>171</ele>
        <time>2014-08-18T09:11:03Z</time>
      </trkpt>
      <trkpt lat="44.99822" lon="1.03512">
        <ele>169</ele>
        <time>2014-08-18T09:11:05Z</time>
      </trkpt>
      <trkpt lat="44.99815" lon="1.03516">
        <ele>168</ele>
        <time>2014-08-18T09:11:07Z</time>
      </trkpt>
      <trkpt lat="44.9981" lon="1.03519">
        <ele>167</ele>
        <time>2014-08-18T09:11:09Z</time>
      </trkpt>
      <trkpt lat="44.99805" lon="1.03522">
        <ele>167</ele>
        <time>2014-08-18T09:11:11Z</time>
      </trkpt>
      <trkpt lat="44.99796" lon="1.03526">
        <ele>167</ele>
        <time>2014-08-18T09:11:14Z</time>
      </trkpt>
      <trkpt lat="44.99789" lon="1.03532">
        <ele>168</ele>
        <time>2014-08-18T09:11:17Z</time>
      </trkpt>
      <trkpt lat="44.99786" lon="1.03534">
        <ele>168</ele>
        <time>2014-08-18T09:11:19Z</time>
      </trkpt>
      <trkpt lat="44.99784" lon="1.03536">
        <ele>169</ele>
        <time>2014-08-18T09:11:21Z</time>
      </trkpt>
      <trkpt lat="44.99783" lon="1.03537">
        <ele>169</ele>
        <time>2014-08-18T09:11:23Z</time>
      </trkpt>
      <trkpt lat="44.99782" lon="1.03539">
        <ele>169</ele>
        <time>2014-08-18T09:11:26Z</time>
      </trkpt>
      <trkpt lat="44.99782" lon="1.03542">
        <ele>169</ele>
        <time>2014-08-18T09:11:28Z</time>
      </trkpt>
      <trkpt lat="44.99781" lon="1.03546">
        <ele>169</ele>
        <time>2014-08-18T09:11:30Z</time>
      </trkpt>
      <trkpt lat="44.99778" lon="1.03555">
        <ele>169</ele>
        <time>2014-08-18T09:11:33Z</time>
      </trkpt>
      <trkpt lat="44.99775" lon="1.03568">
        <ele>170</ele>
        <time>2014-08-18T09:11:36Z</time>
      </trkpt>
      <trkpt lat="44.99772" lon="1.03586">
        <ele>171</ele>
        <time>2014-08-18T09:11:39Z</time>
      </trkpt>
      <trkpt lat="44.99768" lon="1.03602">
        <ele>171</ele>
        <time>2014-08-18T09:11:42Z</time>
      </trkpt>
      <trkpt lat="44.99763" lon="1.03611">
        <ele>171</ele>
        <time>2014-08-18T09:11:44Z</time>
      </trkpt>
      <trkpt lat="44.99755" lon="1.03624">
        <ele>172</ele>
        <time>2014-08-18T09:11:47Z</time>
      </trkpt>
      <trkpt lat="44.9975" lon="1.03636">
        <ele>172</ele>
        <time>2014-08-18T09:11:49Z</time>
      </trkpt>
      <trkpt lat="44.99745" lon="1.03652">
        <ele>173</ele>
        <time>2014-08-18T09:11:52Z</time>
      </trkpt>
      <trkpt lat="44.99739" lon="1.03666">
        <ele>173</ele>
        <time>2014-08-18T09:11:55Z</time>
      </trkpt>
      <trkpt lat="44.99733" lon="1.0368">
        <ele>174</ele>
        <time>2014-08-18T09:11:58Z</time>
      </trkpt>
      <trkpt lat="44.99726" lon="1.03693">
        <ele>175</ele>
        <time>2014-08-18T09:12:01Z</time>
      </trkpt>
      <trkpt lat="44.99723" lon="1.03701">
        <ele>175</ele>
        <time>2014-08-18T09:12:03Z</time>
      </trkpt>
      <trkpt lat="44.99718" lon="1.03713">
        <ele>175</ele>
        <time>2014-08-18T09:12:06Z</time>
      </trkpt>
      <trkpt lat="44.99713" lon="1.0372">
        <ele>175</ele>
        <time>2014-08-18T09:12:08Z</time>
      </trkpt>
      <trkpt lat="44.99707" lon="1.0373">
        <ele>175</ele>
        <time>2014-08-18T09:12:10Z</time>
      </trkpt>
      <trkpt lat="44.99699" lon="1.03744">
        <ele>176</ele>
        <time>2014-08-18T09:12:13Z</time>
      </trkpt>
      <trkpt lat="44.99693" lon="1.03754">
        <ele>176</ele>
        <time>2014-08-18T09:12:15Z</time>
      </trkpt>
      <trkpt lat="44.99687" lon="1.03763">
        <ele>176</ele>
        <time>2014-08-18T09:12:17Z</time>
      </trkpt>
      <trkpt lat="44.99681" lon="1.03771">
        <ele>177</ele>
        <time>2014-08-18T09:12:19Z</time>
      </trkpt>
      <trkpt lat="44.99676" lon="1.0378">
        <ele>177</ele>
        <time>2014-08-18T09:12:21Z</time>
      </trkpt>
      <trkpt lat="44.99673" lon="1.03785">
        <ele>177</ele>
        <time>2014-08-18T09:12:23Z</time>
      </trkpt>
      <trkpt lat="44.9967" lon="1.0379">
        <ele>177</ele>
        <time>2014-08-18T09:12:25Z</time>
      </trkpt>
      <trkpt lat="44.99667" lon="1.03795">
        <ele>177</ele>
        <time>2014-08-18T09:12:27Z</time>
      </trkpt>
      <trkpt lat="44.99666" lon="1.03805">
        <ele>177</ele>
        <time>2014-08-18T09:12:30Z</time>
      </trkpt>
      <trkpt lat="44.99662" lon="1.03817">
        <ele>177</ele>
        <time>2014-08-18T09:12:33Z</time>
      </trkpt>
      <trkpt lat="44.99657" lon="1.03825">
        <ele>177</ele>
        <time>2014-08-18T09:12:35Z</time>
      </trkpt>
      <trkpt lat="44.99651" lon="1.03831">
        <ele>177</ele>
        <time>2014-08-18T09:12:37Z</time>
      </trkpt>
      <trkpt lat="44.99646" lon="1.03839">
        <ele>177</ele>
        <time>2014-08-18T09:12:39Z</time>
      </trkpt>
      <trkpt lat="44.9964" lon="1.03846">
        <ele>177</ele>
        <time>2014-08-18T09:12:41Z</time>
      </trkpt>
      <trkpt lat="44.99633" lon="1.0386">
        <ele>177</ele>
        <time>2014-08-18T09:12:44Z</time>
      </trkpt>
      <trkpt lat="44.99627" lon="1.03867">
        <ele>177</ele>
        <time>2014-08-18T09:12:46Z</time>
      </trkpt>
      <trkpt lat="44.9962" lon="1.03877">
        <ele>177</ele>
        <time>2014-08-18T09:12:48Z</time>
      </trkpt>
      <trkpt lat="44.99614" lon="1.03886">
        <ele>177</ele>
        <time>2014-08-18T09:12:50Z</time>
      </trkpt>
      <trkpt lat="44.99603" lon="1.03899">
        <ele>176</ele>
        <time>2014-08-18T09:12:53Z</time>
      </trkpt>
      <trkpt lat="44.99595" lon="1.03906">
        <ele>176</ele>
        <time>2014-08-18T09:12:55Z</time>
      </trkpt>
      <trkpt lat="44.99587" lon="1.03913">
        <ele>176</ele>
        <time>2014-08-18T09:12:57Z</time>
      </trkpt>
      <trkpt lat="44.99575" lon="1.03926">
        <ele>176</ele>
        <time>2014-08-18T09:13:00Z</time>
      </trkpt>
      <trkpt lat="44.99568" lon="1.03935">
        <ele>176</ele>
        <time>2014-08-18T09:13:02Z</time>
      </trkpt>
      <trkpt lat="44.99559" lon="1.03952">
        <ele>175</ele>
        <time>2014-08-18T09:13:05Z</time>
      </trkpt>
      <trkpt lat="44.99555" lon="1.03965">
        <ele>175</ele>
        <time>2014-08-18T09:13:07Z</time>
      </trkpt>
      <trkpt lat="44.9955" lon="1.03976">
        <ele>175</ele>
        <time>2014-08-18T09:13:09Z</time>
      </trkpt>
      <trkpt lat="44.99543" lon="1.03989">
        <ele>175</ele>
        <time>2014-08-18T09:13:11Z</time>
      </trkpt>
      <trkpt lat="44.99531" lon="1.04007">
        <ele>175</ele>
        <time>2014-08-18T09:13:14Z</time>
      </trkpt>
      <trkpt lat="44.99523" lon="1.04018">
        <ele>174</ele>
        <time>2014-08-18T09:13:16Z</time>
      </trkpt>
      <trkpt lat="44.99512" lon="1.0404">
        <ele>173</ele>
        <time>2014-08-18T09:13:19Z</time>
      </trkpt>
      <trkpt lat="44.99504" lon="1.04056">
        <ele>173</ele>
        <time>2014-08-18T09:13:21Z</time>
      </trkpt>
      <trkpt lat="44.99495" lon="1.04073">
        <ele>172</ele>
        <time>2014-08-18T09:13:23Z</time>
      </trkpt>
      <trkpt lat="44.99486" lon="1.04101">
        <ele>171</ele>
        <time>2014-08-18T09:13:26Z</time>
      </trkpt>
      <trkpt lat="44.99481" lon="1.04122">
        <ele>170</ele>
        <time>2014-08-18T09:13:28Z</time>
      </trkpt>
      <trkpt lat="44.99475" lon="1.04144">
        <ele>168</ele>
        <time>2014-08-18T09:13:30Z</time>
      </trkpt>
      <trkpt lat="44.99472" lon="1.04172">
        <ele>166</ele>
        <time>2014-08-18T09:13:32Z</time>
      </trkpt>
      <trkpt lat="44.99469" lon="1.04206">
        <ele>164</ele>
        <time>2014-08-18T09:13:35Z</time>
      </trkpt>
      <trkpt lat="44.99464" lon="1.04229">
        <ele>162</ele>
        <time>2014-08-18T09:13:37Z</time>
      </trkpt>
      <trkpt lat="44.99458" lon="1.0426">
        <ele>159</ele>
        <time>2014-08-18T09:13:40Z</time>
      </trkpt>
      <trkpt lat="44.99459" lon="1.04297">
        <ele>156</ele>
        <time>2014-08-18T09:13:43Z</time>
      </trkpt>
      <trkpt lat="44.99464" lon="1.04337">
        <ele>154</ele>
        <time>2014-08-18T09:13:46Z</time>
      </trkpt>
      <trkpt lat="44.99465" lon="1.0438">
        <ele>152</ele>
        <time>2014-08-18T09:13:49Z</time>
      </trkpt>
      <trkpt lat="44.99461" lon="1.04417">
        <ele>149</ele>
        <time>2014-08-18T09:13:52Z</time>
      </trkpt>
      <trkpt lat="44.9946" lon="1.04445">
        <ele>147</ele>
        <time>2014-08-18T09:13:54Z</time>
      </trkpt>
      <trkpt lat="44.9946" lon="1.04479">
        <ele>145</ele>
        <time>2014-08-18T09:13:57Z</time>
      </trkpt>
      <trkpt lat="44.9946" lon="1.04497">
        <ele>142</ele>
        <time>2014-08-18T09:13:59Z</time>
      </trkpt>
      <trkpt lat="44.9946" lon="1.0451">
        <ele>141</ele>
        <time>2014-08-18T09:14:01Z</time>
      </trkpt>
      <trkpt lat="44.99459" lon="1.04518">
        <ele>139</ele>
        <time>2014-08-18T09:14:04Z</time>
      </trkpt>
      <trkpt lat="44.99458" lon="1.04521">
        <ele>138</ele>
        <time>2014-08-18T09:14:06Z</time>
      </trkpt>
      <trkpt lat="44.99458" lon="1.04523">
        <ele>138</ele>
        <time>2014-08-18T09:14:08Z</time>
      </trkpt>
      <trkpt lat="44.99458" lon="1.04525">
        <ele>138</ele>
        <time>2014-08-18T09:14:11Z</time>
      </trkpt>
      <trkpt lat="44.99458" lon="1.04527">
        <ele>138</ele>
        <time>2014-08-18T09:14:13Z</time>
      </trkpt>
      <trkpt lat="44.99457" lon="1.04529">
        <ele>138</ele>
        <time>2014-08-18T09:14:15Z</time>
      </trkpt>
      <trkpt lat="44.9945" lon="1.04559">
        <ele>136</ele>
        <time>2014-08-18T09:14:18Z</time>
      </trkpt>
      <trkpt lat="44.9945" lon="1.04559">
        <ele>136</ele>
        <time>2014-08-18T09:14:20Z</time>
      </trkpt>
      <trkpt lat="44.9945" lon="1.0456">
        <ele>137</ele>
        <time>2014-08-18T09:14:23Z</time>
      </trkpt>
      <trkpt lat="44.99447" lon="1.04566">
        <ele>136</ele>
        <time>2014-08-18T09:14:26Z</time>
      </trkpt>
      <trkpt lat="44.99443" lon="1.04578">
        <ele>136</ele>
        <time>2014-08-18T09:14:29Z</time>
      </trkpt>
      <trkpt lat="44.9944" lon="1.04587">
        <ele>135</ele>
        <time>2014-08-18T09:14:31Z</time>
      </trkpt>
      <trkpt lat="44.99435" lon="1.04599">
        <ele>134</ele>
        <time>2014-08-18T09:14:33Z</time>
      </trkpt>
      <trkpt lat="44.99428" lon="1.04612">
        <ele>133</ele>
        <time>2014-08-18T09:14:35Z</time>
      </trkpt>
      <trkpt lat="44.99421" lon="1.04624">
        <ele>132</ele>
        <time>2014-08-18T09:14:37Z</time>
      </trkpt>
      <trkpt lat="44.9941" lon="1.04643">
        <ele>130</ele>
        <time>2014-08-18T09:14:40Z</time>
      </trkpt>
      <trkpt lat="44.99402" lon="1.04656">
        <ele>128</ele>
        <time>2014-08-18T09:14:42Z</time>
      </trkpt>
      <trkpt lat="44.9939" lon="1.04669">
        <ele>126</ele>
        <time>2014-08-18T09:14:44Z</time>
      </trkpt>
      <trkpt lat="44.99378" lon="1.04683">
        <ele>124</ele>
        <time>2014-08-18T09:14:46Z</time>
      </trkpt>
      <trkpt lat="44.99364" lon="1.047">
        <ele>123</ele>
        <time>2014-08-18T09:14:48Z</time>
      </trkpt>
      <trkpt lat="44.99345" lon="1.04726">
        <ele>121</ele>
        <time>2014-08-18T09:14:51Z</time>
      </trkpt>
      <trkpt lat="44.99332" lon="1.04742">
        <ele>119</ele>
        <time>2014-08-18T09:14:53Z</time>
      </trkpt>
      <trkpt lat="44.99318" lon="1.04759">
        <ele>117</ele>
        <time>2014-08-18T09:14:55Z</time>
      </trkpt>
      <trkpt lat="44.99305" lon="1.04774">
        <ele>115</ele>
        <time>2014-08-18T09:14:57Z</time>
      </trkpt>
      <trkpt lat="44.99291" lon="1.0479">
        <ele>113</ele>
        <time>2014-08-18T09:14:59Z</time>
      </trkpt>
      <trkpt lat="44.99277" lon="1.04804">
        <ele>112</ele>
        <time>2014-08-18T09:15:01Z</time>
      </trkpt>
      <trkpt lat="44.99255" lon="1.04822">
        <ele>111</ele>
        <time>2014-08-18T09:15:04Z</time>
      </trkpt>
      <trkpt lat="44.9924" lon="1.04831">
        <ele>110</ele>
        <time>2014-08-18T09:15:06Z</time>
      </trkpt>
      <trkpt lat="44.9922" lon="1.04845">
        <ele>109</ele>
        <time>2014-08-18T09:15:09Z</time>
      </trkpt>
      <trkpt lat="44.992" lon="1.04864">
        <ele>108</ele>
        <time>2014-08-18T09:15:12Z</time>
      </trkpt>
      <trkpt lat="44.99186" lon="1.0488">
        <ele>107</ele>
        <time>2014-08-18T09:15:14Z</time>
      </trkpt>
      <trkpt lat="44.99163" lon="1.04907">
        <ele>105</ele>
        <time>2014-08-18T09:15:17Z</time>
      </trkpt>
      <trkpt lat="44.9914" lon="1.04938">
        <ele>102</ele>
        <time>2014-08-18T09:15:20Z</time>
      </trkpt>
      <trkpt lat="44.99118" lon="1.0497">
        <ele>99</ele>
        <time>2014-08-18T09:15:23Z</time>
      </trkpt>
      <trkpt lat="44.99098" lon="1.05003">
        <ele>97</ele>
        <time>2014-08-18T09:15:26Z</time>
      </trkpt>
      <trkpt lat="44.99085" lon="1.05025">
        <ele>96</ele>
        <time>2014-08-18T09:15:28Z</time>
      </trkpt>
      <trkpt lat="44.99068" lon="1.05054">
        <ele>95</ele>
        <time>2014-08-18T09:15:31Z</time>
      </trkpt>
      <trkpt lat="44.99056" lon="1.05073">
        <ele>93</ele>
        <time>2014-08-18T09:15:34Z</time>
      </trkpt>
      <trkpt lat="44.99054" lon="1.05076">
        <ele>92</ele>
        <time>2014-08-18T09:15:36Z</time>
      </trkpt>
      <trkpt lat="44.99054" lon="1.05077">
        <ele>91</ele>
        <time>2014-08-18T09:15:38Z</time>
      </trkpt>
      <trkpt lat="44.99053" lon="1.05078">
        <ele>90</ele>
        <time>2014-08-18T09:15:41Z</time>
      </trkpt>
      <trkpt lat="44.99053" lon="1.05079">
        <ele>90</ele>
        <time>2014-08-18T09:15:43Z</time>
      </trkpt>
      <trkpt lat="44.99053" lon="1.0508">
        <ele>90</ele>
        <time>2014-08-18T09:15:45Z</time>
      </trkpt>
      <trkpt lat="44.99052" lon="1.05081">
        <ele>90</ele>
        <time>2014-08-18T09:15:47Z</time>
      </trkpt>
      <trkpt lat="44.99053" lon="1.05082">
        <ele>90</ele>
        <time>2014-08-18T09:15:50Z</time>
      </trkpt>
      <trkpt lat="44.99053" lon="1.05083">
        <ele>90</ele>
        <time>2014-08-18T09:15:52Z</time>
      </trkpt>
      <trkpt lat="44.99053" lon="1.05084">
        <ele>90</ele>
        <time>2014-08-18T09:15:55Z</time>
      </trkpt>
      <trkpt lat="44.99053" lon="1.05085">
        <ele>90</ele>
        <time>2014-08-18T09:15:58Z</time>
      </trkpt>
      <trkpt lat="44.99053" lon="1.05085">
        <ele>90</ele>
        <time>2014-08-18T09:16:01Z</time>
      </trkpt>
      <trkpt lat="44.99053" lon="1.05085">
        <ele>90</ele>
        <time>2014-08-18T09:16:04Z</time>
      </trkpt>
      <trkpt lat="44.99052" lon="1.05085">
        <ele>90</ele>
        <time>2014-08-18T09:16:07Z</time>
      </trkpt>
      <trkpt lat="44.99052" lon="1.05086">
        <ele>90</ele>
        <time>2014-08-18T09:16:10Z</time>
      </trkpt>
      <trkpt lat="44.99052" lon="1.05086">
        <ele>90</ele>
        <time>2014-08-18T09:16:12Z</time>
      </trkpt>
      <trkpt lat="44.9905" lon="1.05089">
        <ele>90</ele>
        <time>2014-08-18T09:16:15Z</time>
      </trkpt>
      <trkpt lat="44.99044" lon="1.05098">
        <ele>90</ele>
        <time>2014-08-18T09:16:18Z</time>
      </trkpt>
      <trkpt lat="44.99035" lon="1.05113">
        <ele>90</ele>
        <time>2014-08-18T09:16:21Z</time>
      </trkpt>
      <trkpt lat="44.99028" lon="1.05123">
        <ele>90</ele>
        <time>2014-08-18T09:16:23Z</time>
      </trkpt>
      <trkpt lat="44.99019" lon="1.05138">
        <ele>90</ele>
        <time>2014-08-18T09:16:26Z</time>
      </trkpt>
      <trkpt lat="44.99014" lon="1.05148">
        <ele>90</ele>
        <time>2014-08-18T09:16:28Z</time>
      </trkpt>
      <trkpt lat="44.99008" lon="1.05158">
        <ele>89</ele>
        <time>2014-08-18T09:16:31Z</time>
      </trkpt>
      <trkpt lat="44.99006" lon="1.05164">
        <ele>88</ele>
        <time>2014-08-18T09:16:34Z</time>
      </trkpt>
      <trkpt lat="44.99004" lon="1.05166">
        <ele>87</ele>
        <time>2014-08-18T09:16:36Z</time>
      </trkpt>
      <trkpt lat="44.99002" lon="1.05168">
        <ele>87</ele>
        <time>2014-08-18T09:16:38Z</time>
      </trkpt>
      <trkpt lat="44.99" lon="1.0517">
        <ele>87</ele>
        <time>2014-08-18T09:16:40Z</time>
      </trkpt>
      <trkpt lat="44.98994" lon="1.05169">
        <ele>87</ele>
        <time>2014-08-18T09:16:43Z</time>
      </trkpt>
      <trkpt lat="44.98989" lon="1.05169">
        <ele>87</ele>
        <time>2014-08-18T09:16:45Z</time>
      </trkpt>
      <trkpt lat="44.98981" lon="1.05168">
        <ele>88</ele>
        <time>2014-08-18T09:16:48Z</time>
      </trkpt>
      <trkpt lat="44.98975" lon="1.05168">
        <ele>88</ele>
        <time>2014-08-18T09:16:50Z</time>
      </trkpt>
      <trkpt lat="44.98966" lon="1.05167">
        <ele>89</ele>
        <time>2014-08-18T09:16:53Z</time>
      </trkpt>
      <trkpt lat="44.98959" lon="1.05167">
        <ele>90</ele>
        <time>2014-08-18T09:16:55Z</time>
      </trkpt>
      <trkpt lat="44.98952" lon="1.05167">
        <ele>90</ele>
        <time>2014-08-18T09:16:57Z</time>
      </trkpt>
      <trkpt lat="44.98946" lon="1.05167">
        <ele>91</ele>
        <time>2014-08-18T09:16:59Z</time>
      </trkpt>
      <trkpt lat="44.98938" lon="1.05167">
        <ele>91</ele>
        <time>2014-08-18T09:17:01Z</time>
      </trkpt>
      <trkpt lat="44.98928" lon="1.05168">
        <ele>92</ele>
        <time>2014-08-18T09:17:04Z</time>
      </trkpt>
      <trkpt lat="44.98921" lon="1.05169">
        <ele>93</ele>
        <time>2014-08-18T09:17:06Z</time>
      </trkpt>
      <trkpt lat="44.98915" lon="1.0517">
        <ele>93</ele>
        <time>2014-08-18T09:17:08Z</time>
      </trkpt>
      <trkpt lat="44.98908" lon="1.05171">
        <ele>93</ele>
        <time>2014-08-18T09:17:10Z</time>
      </trkpt>
      <trkpt lat="44.98901" lon="1.05171">
        <ele>93</ele>
        <time>2014-08-18T09:17:12Z</time>
      </trkpt>
      <trkpt lat="44.98894" lon="1.05169">
        <ele>93</ele>
        <time>2014-08-18T09:17:14Z</time>
      </trkpt>
      <trkpt lat="44.98883" lon="1.05165">
        <ele>93</ele>
        <time>2014-08-18T09:17:16Z</time>
      </trkpt>
      <trkpt lat="44.98864" lon="1.05161">
        <ele>92</ele>
        <time>2014-08-18T09:17:19Z</time>
      </trkpt>
      <trkpt lat="44.98854" lon="1.05155">
        <ele>91</ele>
        <time>2014-08-18T09:17:21Z</time>
      </trkpt>
      <trkpt lat="44.98848" lon="1.05128">
        <ele>89</ele>
        <time>2014-08-18T09:17:24Z</time>
      </trkpt>
      <trkpt lat="44.98838" lon="1.05113">
        <ele>88</ele>
        <time>2014-08-18T09:17:26Z</time>
      </trkpt>
      <trkpt lat="44.9882" lon="1.05101">
        <ele>87</ele>
        <time>2014-08-18T09:17:29Z</time>
      </trkpt>
      <trkpt lat="44.98808" lon="1.05097">
        <ele>86</ele>
        <time>2014-08-18T09:17:31Z</time>
      </trkpt>
      <trkpt lat="44.98795" lon="1.05097">
        <ele>86</ele>
        <time>2014-08-18T09:17:33Z</time>
      </trkpt>
      <trkpt lat="44.98777" lon="1.05098">
        <ele>85</ele>
        <time>2014-08-18T09:17:36Z</time>
      </trkpt>
      <trkpt lat="44.98758" lon="1.05102">
        <ele>85</ele>
        <time>2014-08-18T09:17:39Z</time>
      </trkpt>
      <trkpt lat="44.98745" lon="1.05105">
        <ele>84</ele>
        <time>2014-08-18T09:17:41Z</time>
      </trkpt>
      <trkpt lat="44.98732" lon="1.05111">
        <ele>83</ele>
        <time>2014-08-18T09:17:43Z</time>
      </trkpt>
      <trkpt lat="44.98716" lon="1.05131">
        <ele>82</ele>
        <time>2014-08-18T09:17:46Z</time>
      </trkpt>
      <trkpt lat="44.98698" lon="1.05154">
        <ele>81</ele>
        <time>2014-08-18T09:17:49Z</time>
      </trkpt>
      <trkpt lat="44.98682" lon="1.05164">
        <ele>80</ele>
        <time>2014-08-18T09:17:51Z</time>
      </trkpt>
      <trkpt lat="44.98665" lon="1.05168">
        <ele>79</ele>
        <time>2014-08-18T09:17:53Z</time>
      </trkpt>
      <trkpt lat="44.98637" lon="1.05164">
        <ele>76</ele>
        <time>2014-08-18T09:17:56Z</time>
      </trkpt>
      <trkpt lat="44.98617" lon="1.05157">
        <ele>73</ele>
        <time>2014-08-18T09:17:58Z</time>
      </trkpt>
      <trkpt lat="44.986" lon="1.05144">
        <ele>71</ele>
        <time>2014-08-18T09:18:00Z</time>
      </trkpt>
      <trkpt lat="44.98584" lon="1.05111">
        <ele>68</ele>
        <time>2014-08-18T09:18:03Z</time>
      </trkpt>
      <trkpt lat="44.98582" lon="1.05083">
        <ele>66</ele>
        <time>2014-08-18T09:18:05Z</time>
      </trkpt>
      <trkpt lat="44.98583" lon="1.05054">
        <ele>63</ele>
        <time>2014-08-18T09:18:07Z</time>
      </trkpt>
      <trkpt lat="44.9859" lon="1.05026">
        <ele>61</ele>
        <time>2014-08-18T09:18:09Z</time>
      </trkpt>
      <trkpt lat="44.98599" lon="1.05">
        <ele>57</ele>
        <time>2014-08-18T09:18:12Z</time>
      </trkpt>
      <trkpt lat="44.98596" lon="1.04992">
        <ele>54</ele>
        <time>2014-08-18T09:18:14Z</time>
      </trkpt>
      <trkpt lat="44.98587" lon="1.04991">
        <ele>52</ele>
        <time>2014-08-18T09:18:16Z</time>
      </trkpt>
      <trkpt lat="44.98575" lon="1.05">
        <ele>50</ele>
        <time>2014-08-18T09:18:18Z</time>
      </trkpt>
      <trkpt lat="44.9856" lon="1.05015">
        <ele>48</ele>
        <time>2014-08-18T09:18:20Z</time>
      </trkpt>
      <trkpt lat="44.98539" lon="1.05038">
        <ele>45</ele>
        <time>2014-08-18T09:18:23Z</time>
      </trkpt>
      <trkpt lat="44.98533" lon="1.05054">
        <ele>42</ele>
        <time>2014-08-18T09:18:25Z</time>
      </trkpt>
      <trkpt lat="44.98527" lon="1.05062">
        <ele>40</ele>
        <time>2014-08-18T09:18:27Z</time>
      </trkpt>
      <trkpt lat="44.9851" lon="1.05064">
        <ele>39</ele>
        <time>2014-08-18T09:18:30Z</time>
      </trkpt>
      <trkpt lat="44.98498" lon="1.05061">
        <ele>38</ele>
        <time>2014-08-18T09:18:32Z</time>
      </trkpt>
      <trkpt lat="44.98486" lon="1.05059">
        <ele>38</ele>
        <time>2014-08-18T09:18:34Z</time>
      </trkpt>
      <trkpt lat="44.98473" lon="1.05058">
        <ele>37</ele>
        <time>2014-08-18T09:18:36Z</time>
      </trkpt>
      <trkpt lat="44.98462" lon="1.05064">
        <ele>37</ele>
        <time>2014-08-18T09:18:38Z</time>
      </trkpt>
      <trkpt lat="44.98455" lon="1.05078">
        <ele>38</ele>
        <time>2014-08-18T09:18:40Z</time>
      </trkpt>
      <trkpt lat="44.98449" lon="1.05096">
        <ele>38</ele>
        <time>2014-08-18T09:18:43Z</time>
      </trkpt>
      <trkpt lat="44.98444" lon="1.05109">
        <ele>40</ele>
        <time>2014-08-18T09:18:46Z</time>
      </trkpt>
      <trkpt lat="44.98441" lon="1.05119">
        <ele>40</ele>
        <time>2014-08-18T09:18:48Z</time>
      </trkpt>
      <trkpt lat="44.9844" lon="1.05129">
        <ele>41</ele>
        <time>2014-08-18T09:18:50Z</time>
      </trkpt>
      <trkpt lat="44.98436" lon="1.05141">
        <ele>43</ele>
        <time>2014-08-18T09:18:53Z</time>
      </trkpt>
      <trkpt lat="44.98431" lon="1.05146">
        <ele>44</ele>
        <time>2014-08-18T09:18:56Z</time>
      </trkpt>
      <trkpt lat="44.98428" lon="1.05149">
        <ele>45</ele>
        <time>2014-08-18T09:18:58Z</time>
      </trkpt>
      <trkpt lat="44.98421" lon="1.05156">
        <ele>46</ele>
        <time>2014-08-18T09:19:01Z</time>
      </trkpt>
      <trkpt lat="44.98415" lon="1.05163">
        <ele>47</ele>
        <time>2014-08-18T09:19:04Z</time>
      </trkpt>
      <trkpt lat="44.98411" lon="1.05166">
        <ele>48</ele>
        <time>2014-08-18T09:19:06Z</time>
      </trkpt>
      <trkpt lat="44.98403" lon="1.0517">
        <ele>49</ele>
        <time>2014-08-18T09:19:09Z</time>
      </trkpt>
      <trkpt lat="44.98392" lon="1.05172">
        <ele>49</ele>
        <time>2014-08-18T09:19:12Z</time>
      </trkpt>
      <trkpt lat="44.98382" lon="1.05173">
        <ele>50</ele>
        <time>2014-08-18T09:19:15Z</time>
      </trkpt>
      <trkpt lat="44.98375" lon="1.05174">
        <ele>50</ele>
        <time>2014-08-18T09:19:17Z</time>
      </trkpt>
      <trkpt lat="44.98369" lon="1.05174">
        <ele>51</ele>
        <time>2014-08-18T09:19:19Z</time>
      </trkpt>
      <trkpt lat="44.98363" lon="1.05174">
        <ele>51</ele>
        <time>2014-08-18T09:19:21Z</time>
      </trkpt>
      <trkpt lat="44.98358" lon="1.05174">
        <ele>51</ele>
        <time>2014-08-18T09:19:23Z</time>
      </trkpt>
      <trkpt lat="44.98353" lon="1.05172">
        <ele>51</ele>
        <time>2014-08-18T09:19:25Z</time>
      </trkpt>
      <trkpt lat="44.98348" lon="1.05171">
        <ele>51</ele>
        <time>2014-08-18T09:19:27Z</time>
      </trkpt>
      <trkpt lat="44.98344" lon="1.05168">
        <ele>51</ele>
        <time>2014-08-18T09:19:29Z</time>
      </trkpt>
      <trkpt lat="44.98338" lon="1.05166">
        <ele>51</ele>
        <time>2014-08-18T09:19:31Z</time>
      </trkpt>
      <trkpt lat="44.98327" lon="1.05162">
        <ele>52</ele>
        <time>2014-08-18T09:19:34Z</time>
      </trkpt>
      <trkpt lat="44.98319" lon="1.05161">
        <ele>52</ele>
        <time>2014-08-18T09:19:36Z</time>
      </trkpt>
      <trkpt lat="44.98309" lon="1.0516">
        <ele>53</ele>
        <time>2014-08-18T09:19:38Z</time>
      </trkpt>
      <trkpt lat="44.983" lon="1.05159">
        <ele>53</ele>
        <time>2014-08-18T09:19:40Z</time>
      </trkpt>
      <trkpt lat="44.98291" lon="1.05159">
        <ele>53</ele>
        <time>2014-08-18T09:19:42Z</time>
      </trkpt>
      <trkpt lat="44.98277" lon="1.05158">
        <ele>54</ele>
        <time>2014-08-18T09:19:45Z</time>
      </trkpt>
      <trkpt lat="44.98269" lon="1.05158">
        <ele>54</ele>
        <time>2014-08-18T09:19:47Z</time>
      </trkpt>
      <trkpt lat="44.9826" lon="1.05157">
        <ele>55</ele>
        <time>2014-08-18T09:19:49Z</time>
      </trkpt>
      <trkpt lat="44.98251" lon="1.05157">
        <ele>55</ele>
        <time>2014-08-18T09:19:51Z</time>
      </trkpt>
      <trkpt lat="44.98242" lon="1.05155">
        <ele>55</ele>
        <time>2014-08-18T09:19:53Z</time>
      </trkpt>
      <trkpt lat="44.98233" lon="1.05155">
        <ele>55</ele>
        <time>2014-08-18T09:19:55Z</time>
      </trkpt>
      <trkpt lat="44.98224" lon="1.05154">
        <ele>55</ele>
        <time>2014-08-18T09:19:57Z</time>
      </trkpt>
      <trkpt lat="44.98211" lon="1.05154">
        <ele>55</ele>
        <time>2014-08-18T09:20:00Z</time>
      </trkpt>
      <trkpt lat="44.98201" lon="1.05153">
        <ele>55</ele>
        <time>2014-08-18T09:20:02Z</time>
      </trkpt>
      <trkpt lat="44.98189" lon="1.05152">
        <ele>55</ele>
        <time>2014-08-18T09:20:04Z</time>
      </trkpt>
      <trkpt lat="44.98176" lon="1.05151">
        <ele>54</ele>
        <time>2014-08-18T09:20:06Z</time>
      </trkpt>
      <trkpt lat="44.98163" lon="1.05146">
        <ele>54</ele>
        <time>2014-08-18T09:20:08Z</time>
      </trkpt>
      <trkpt lat="44.98151" lon="1.05136">
        <ele>54</ele>
        <time>2014-08-18T09:20:10Z</time>
      </trkpt>
      <trkpt lat="44.98141" lon="1.05124">
        <ele>54</ele>
        <time>2014-08-18T09:20:12Z</time>
      </trkpt>
      <trkpt lat="44.98132" lon="1.0511">
        <ele>53</ele>
        <time>2014-08-18T09:20:14Z</time>
      </trkpt>
      <trkpt lat="44.98122" lon="1.05097">
        <ele>53</ele>
        <time>2014-08-18T09:20:16Z</time>
      </trkpt>
      <trkpt lat="44.98108" lon="1.05078">
        <ele>53</ele>
        <time>2014-08-18T09:20:19Z</time>
      </trkpt>
      <trkpt lat="44.98093" lon="1.05059">
        <ele>53</ele>
        <time>2014-08-18T09:20:22Z</time>
      </trkpt>
      <trkpt lat="44.98084" lon="1.05046">
        <ele>53</ele>
        <time>2014-08-18T09:20:24Z</time>
      </trkpt>
      <trkpt lat="44.98071" lon="1.05027">
        <ele>53</ele>
        <time>2014-08-18T09:20:27Z</time>
      </trkpt>
      <trkpt lat="44.98056" lon="1.05009">
        <ele>52</ele>
        <time>2014-08-18T09:20:30Z</time>
      </trkpt>
      <trkpt lat="44.9805" lon="1.04996">
        <ele>52</ele>
        <time>2014-08-18T09:20:32Z</time>
      </trkpt>
      <trkpt lat="44.98046" lon="1.04982">
        <ele>52</ele>
        <time>2014-08-18T09:20:34Z</time>
      </trkpt>
      <trkpt lat="44.98041" lon="1.04963">
        <ele>52</ele>
        <time>2014-08-18T09:20:37Z</time>
      </trkpt>
      <trkpt lat="44.98039" lon="1.0495">
        <ele>53</ele>
        <time>2014-08-18T09:20:39Z</time>
      </trkpt>
      <trkpt lat="44.98037" lon="1.04938">
        <ele>53</ele>
        <time>2014-08-18T09:20:41Z</time>
      </trkpt>
      <trkpt lat="44.98033" lon="1.04923">
        <ele>54</ele>
        <time>2014-08-18T09:20:44Z</time>
      </trkpt>
      <trkpt lat="44.98029" lon="1.04914">
        <ele>54</ele>
        <time>2014-08-18T09:20:46Z</time>
      </trkpt>
      <trkpt lat="44.98025" lon="1.049">
        <ele>54</ele>
        <time>2014-08-18T09:20:49Z</time>
      </trkpt>
      <trkpt lat="44.98022" lon="1.0489">
        <ele>54</ele>
        <time>2014-08-18T09:20:51Z</time>
      </trkpt>
      <trkpt lat="44.98022" lon="1.04878">
        <ele>54</ele>
        <time>2014-08-18T09:20:53Z</time>
      </trkpt>
      <trkpt lat="44.98023" lon="1.04867">
        <ele>53</ele>
        <time>2014-08-18T09:20:55Z</time>
      </trkpt>
      <trkpt lat="44.98023" lon="1.04855">
        <ele>53</ele>
        <time>2014-08-18T09:20:57Z</time>
      </trkpt>
      <trkpt lat="44.98023" lon="1.04841">
        <ele>53</ele>
        <time>2014-08-18T09:20:59Z</time>
      </trkpt>
      <trkpt lat="44.98023" lon="1.04825">
        <ele>52</ele>
        <time>2014-08-18T09:21:01Z</time>
      </trkpt>
      <trkpt lat="44.98022" lon="1.04809">
        <ele>52</ele>
        <time>2014-08-18T09:21:03Z</time>
      </trkpt>
      <trkpt lat="44.98021" lon="1.04792">
        <ele>52</ele>
        <time>2014-08-18T09:21:05Z</time>
      </trkpt>
      <trkpt lat="44.98019" lon="1.04775">
        <ele>52</ele>
        <time>2014-08-18T09:21:07Z</time>
      </trkpt>
      <trkpt lat="44.98021" lon="1.0475">
        <ele>53</ele>
        <time>2014-08-18T09:21:10Z</time>
      </trkpt>
      <trkpt lat="44.98025" lon="1.04727">
        <ele>53</ele>
        <time>2014-08-18T09:21:13Z</time>
      </trkpt>
      <trkpt lat="44.98024" lon="1.0471">
        <ele>53</ele>
        <time>2014-08-18T09:21:15Z</time>
      </trkpt>
      <trkpt lat="44.98022" lon="1.04696">
        <ele>53</ele>
        <time>2014-08-18T09:21:17Z</time>
      </trkpt>
      <trkpt lat="44.98019" lon="1.04687">
        <ele>51</ele>
        <time>2014-08-18T09:21:19Z</time>
      </trkpt>
      <trkpt lat="44.98013" lon="1.04682">
        <ele>50</ele>
        <time>2014-08-18T09:21:21Z</time>
      </trkpt>
      <trkpt lat="44.97999" lon="1.04683">
        <ele>49</ele>
        <time>2014-08-18T09:21:24Z</time>
      </trkpt>
      <trkpt lat="44.97987" lon="1.04683">
        <ele>48</ele>
        <time>2014-08-18T09:21:26Z</time>
      </trkpt>
      <trkpt lat="44.97975" lon="1.04685">
        <ele>47</ele>
        <time>2014-08-18T09:21:28Z</time>
      </trkpt>
      <trkpt lat="44.9796" lon="1.04685">
        <ele>46</ele>
        <time>2014-08-18T09:21:31Z</time>
      </trkpt>
      <trkpt lat="44.97951" lon="1.04684">
        <ele>46</ele>
        <time>2014-08-18T09:21:33Z</time>
      </trkpt>
      <trkpt lat="44.9794" lon="1.0468">
        <ele>45</ele>
        <time>2014-08-18T09:21:35Z</time>
      </trkpt>
      <trkpt lat="44.97922" lon="1.0467">
        <ele>44</ele>
        <time>2014-08-18T09:21:38Z</time>
      </trkpt>
      <trkpt lat="44.97909" lon="1.04663">
        <ele>43</ele>
        <time>2014-08-18T09:21:40Z</time>
      </trkpt>
      <trkpt lat="44.97889" lon="1.04648">
        <ele>42</ele>
        <time>2014-08-18T09:21:43Z</time>
      </trkpt>
      <trkpt lat="44.97873" lon="1.04639">
        <ele>40</ele>
        <time>2014-08-18T09:21:46Z</time>
      </trkpt>
      <trkpt lat="44.9786" lon="1.04631">
        <ele>39</ele>
        <time>2014-08-18T09:21:49Z</time>
      </trkpt>
      <trkpt lat="44.97859" lon="1.04619">
        <ele>38</ele>
        <time>2014-08-18T09:21:52Z</time>
      </trkpt>
      <trkpt lat="44.97865" lon="1.04613">
        <ele>37</ele>
        <time>2014-08-18T09:21:54Z</time>
      </trkpt>
      <trkpt lat="44.97873" lon="1.04606">
        <ele>37</ele>
        <time>2014-08-18T09:21:56Z</time>
      </trkpt>
      <trkpt lat="44.97881" lon="1.04597">
        <ele>38</ele>
        <time>2014-08-18T09:21:58Z</time>
      </trkpt>
      <trkpt lat="44.97888" lon="1.04578">
        <ele>39</ele>
        <time>2014-08-18T09:22:01Z</time>
      </trkpt>
      <trkpt lat="44.97891" lon="1.04562">
        <ele>39</ele>
        <time>2014-08-18T09:22:03Z</time>
      </trkpt>
      <trkpt lat="44.97892" lon="1.04545">
        <ele>40</ele>
        <time>2014-08-18T09:22:05Z</time>
      </trkpt>
      <trkpt lat="44.97893" lon="1.04527">
        <ele>41</ele>
        <time>2014-08-18T09:22:07Z</time>
      </trkpt>
      <trkpt lat="44.97894" lon="1.0451">
        <ele>41</ele>
        <time>2014-08-18T09:22:09Z</time>
      </trkpt>
      <trkpt lat="44.97895" lon="1.04491">
        <ele>42</ele>
        <time>2014-08-18T09:22:11Z</time>
      </trkpt>
      <trkpt lat="44.97896" lon="1.04461">
        <ele>42</ele>
        <time>2014-08-18T09:22:14Z</time>
      </trkpt>
      <trkpt lat="44.97897" lon="1.0444">
        <ele>41</ele>
        <time>2014-08-18T09:22:16Z</time>
      </trkpt>
      <trkpt lat="44.97897" lon="1.0441">
        <ele>41</ele>
        <time>2014-08-18T09:22:19Z</time>
      </trkpt>
      <trkpt lat="44.97898" lon="1.0439">
        <ele>41</ele>
        <time>2014-08-18T09:22:21Z</time>
      </trkpt>
      <trkpt lat="44.97897" lon="1.04361">
        <ele>40</ele>
        <time>2014-08-18T09:22:24Z</time>
      </trkpt>
      <trkpt lat="44.97896" lon="1.04333">
        <ele>40</ele>
        <time>2014-08-18T09:22:27Z</time>
      </trkpt>
      <trkpt lat="44.97895" lon="1.04306">
        <ele>39</ele>
        <time>2014-08-18T09:22:30Z</time>
      </trkpt>
      <trkpt lat="44.97897" lon="1.04276">
        <ele>39</ele>
        <time>2014-08-18T09:22:33Z</time>
      </trkpt>
      <trkpt lat="44.97903" lon="1.04249">
        <ele>38</ele>
        <time>2014-08-18T09:22:36Z</time>
      </trkpt>
      <trkpt lat="44.97907" lon="1.04218">
        <ele>38</ele>
        <time>2014-08-18T09:22:39Z</time>
      </trkpt>
      <trkpt lat="44.97907" lon="1.04185">
        <ele>38</ele>
        <time>2014-08-18T09:22:42Z</time>
      </trkpt>
      <trkpt lat="44.97906" lon="1.04163">
        <ele>38</ele>
        <time>2014-08-18T09:22:44Z</time>
      </trkpt>
      <trkpt lat="44.97904" lon="1.04131">
        <ele>39</ele>
        <time>2014-08-18T09:22:47Z</time>
      </trkpt>
      <trkpt lat="44.979" lon="1.04112">
        <ele>39</ele>
        <time>2014-08-18T09:22:49Z</time>
      </trkpt>
      <trkpt lat="44.97896" lon="1.04093">
        <ele>39</ele>
        <time>2014-08-18T09:22:51Z</time>
      </trkpt>
      <trkpt lat="44.97888" lon="1.04063">
        <ele>39</ele>
        <time>2014-08-18T09:22:54Z</time>
      </trkpt>
      <trkpt lat="44.97881" lon="1.04033">
        <ele>39</ele>
        <time>2014-08-18T09:22:57Z</time>
      </trkpt>
      <trkpt lat="44.97877" lon="1.04012">
        <ele>38</ele>
        <time>2014-08-18T09:22:59Z</time>
      </trkpt>
      <trkpt lat="44.97875" lon="1.03991">
        <ele>38</ele>
        <time>2014-08-18T09:23:01Z</time>
      </trkpt>
      <trkpt lat="44.97874" lon="1.03957">
        <ele>38</ele>
        <time>2014-08-18T09:23:04Z</time>
      </trkpt>
      <trkpt lat="44.97875" lon="1.03934">
        <ele>38</ele>
        <time>2014-08-18T09:23:06Z</time>
      </trkpt>
      <trkpt lat="44.97873" lon="1.03902">
        <ele>37</ele>
        <time>2014-08-18T09:23:09Z</time>
      </trkpt>
      <trkpt lat="44.9787" lon="1.03882">
        <ele>36</ele>
        <time>2014-08-18T09:23:11Z</time>
      </trkpt>
      <trkpt lat="44.97865" lon="1.03865">
        <ele>36</ele>
        <time>2014-08-18T09:23:13Z</time>
      </trkpt>
      <trkpt lat="44.97856" lon="1.03838">
        <ele>37</ele>
        <time>2014-08-18T09:23:16Z</time>
      </trkpt>
      <trkpt lat="44.97851" lon="1.03819">
        <ele>37</ele>
        <time>2014-08-18T09:23:18Z</time>
      </trkpt>
      <trkpt lat="44.97848" lon="1.038">
        <ele>37</ele>
        <time>2014-08-18T09:23:20Z</time>
      </trkpt>
      <trkpt lat="44.97842" lon="1.03782">
        <ele>37</ele>
        <time>2014-08-18T09:23:22Z</time>
      </trkpt>
      <trkpt lat="44.97836" lon="1.03764">
        <ele>37</ele>
        <time>2014-08-18T09:23:24Z</time>
      </trkpt>
      <trkpt lat="44.97829" lon="1.03748">
        <ele>37</ele>
        <time>2014-08-18T09:23:26Z</time>
      </trkpt>
      <trkpt lat="44.97819" lon="1.03724">
        <ele>37</ele>
        <time>2014-08-18T09:23:29Z</time>
      </trkpt>
      <trkpt lat="44.97808" lon="1.03701">
        <ele>37</ele>
        <time>2014-08-18T09:23:32Z</time>
      </trkpt>
      <trkpt lat="44.97797" lon="1.03678">
        <ele>36</ele>
        <time>2014-08-18T09:23:35Z</time>
      </trkpt>
      <trkpt lat="44.97787" lon="1.03654">
        <ele>36</ele>
        <time>2014-08-18T09:23:38Z</time>
      </trkpt>
      <trkpt lat="44.97779" lon="1.03639">
        <ele>37</ele>
        <time>2014-08-18T09:23:40Z</time>
      </trkpt>
      <trkpt lat="44.97771" lon="1.03625">
        <ele>37</ele>
        <time>2014-08-18T09:23:42Z</time>
      </trkpt>
      <trkpt lat="44.97762" lon="1.03611">
        <ele>37</ele>
        <time>2014-08-18T09:23:44Z</time>
      </trkpt>
      <trkpt lat="44.97747" lon="1.03591">
        <ele>37</ele>
        <time>2014-08-18T09:23:47Z</time>
      </trkpt>
      <trkpt lat="44.97735" lon="1.03579">
        <ele>37</ele>
        <time>2014-08-18T09:23:49Z</time>
      </trkpt>
      <trkpt lat="44.97723" lon="1.03568">
        <ele>37</ele>
        <time>2014-08-18T09:23:51Z</time>
      </trkpt>
      <trkpt lat="44.97704" lon="1.03551">
        <ele>37</ele>
        <time>2014-08-18T09:23:54Z</time>
      </trkpt>
      <trkpt lat="44.9769" lon="1.0354">
        <ele>37</ele>
        <time>2014-08-18T09:23:56Z</time>
      </trkpt>
      <trkpt lat="44.97671" lon="1.03523">
        <ele>37</ele>
        <time>2014-08-18T09:23:59Z</time>
      </trkpt>
      <trkpt lat="44.97659" lon="1.03514">
        <ele>37</ele>
        <time>2014-08-18T09:24:01Z</time>
      </trkpt>
      <trkpt lat="44.97643" lon="1.03499">
        <ele>36</ele>
        <time>2014-08-18T09:24:04Z</time>
      </trkpt>
      <trkpt lat="44.97628" lon="1.03487">
        <ele>36</ele>
        <time>2014-08-18T09:24:07Z</time>
      </trkpt>
      <trkpt lat="44.97614" lon="1.03475">
        <ele>36</ele>
        <time>2014-08-18T09:24:10Z</time>
      </trkpt>
      <trkpt lat="44.97599" lon="1.03462">
        <ele>36</ele>
        <time>2014-08-18T09:24:13Z</time>
      </trkpt>
      <trkpt lat="44.97588" lon="1.03454">
        <ele>37</ele>
        <time>2014-08-18T09:24:15Z</time>
      </trkpt>
      <trkpt lat="44.97573" lon="1.03441">
        <ele>37</ele>
        <time>2014-08-18T09:24:18Z</time>
      </trkpt>
      <trkpt lat="44.97559" lon="1.0343">
        <ele>38</ele>
        <time>2014-08-18T09:24:21Z</time>
      </trkpt>
      <trkpt lat="44.97551" lon="1.03425">
        <ele>39</ele>
        <time>2014-08-18T09:24:23Z</time>
      </trkpt>
      <trkpt lat="44.97541" lon="1.03419">
        <ele>39</ele>
        <time>2014-08-18T09:24:25Z</time>
      </trkpt>
      <trkpt lat="44.97527" lon="1.03411">
        <ele>41</ele>
        <time>2014-08-18T09:24:28Z</time>
      </trkpt>
      <trkpt lat="44.97515" lon="1.03403">
        <ele>42</ele>
        <time>2014-08-18T09:24:31Z</time>
      </trkpt>
      <trkpt lat="44.97509" lon="1.03397">
        <ele>43</ele>
        <time>2014-08-18T09:24:33Z</time>
      </trkpt>
      <trkpt lat="44.97499" lon="1.0339">
        <ele>44</ele>
        <time>2014-08-18T09:24:36Z</time>
      </trkpt>
      <trkpt lat="44.97489" lon="1.03381">
        <ele>45</ele>
        <time>2014-08-18T09:24:39Z</time>
      </trkpt>
      <trkpt lat="44.97482" lon="1.03375">
        <ele>45</ele>
        <time>2014-08-18T09:24:41Z</time>
      </trkpt>
      <trkpt lat="44.97475" lon="1.0337">
        <ele>46</ele>
        <time>2014-08-18T09:24:43Z</time>
      </trkpt>
      <trkpt lat="44.97469" lon="1.03365">
        <ele>47</ele>
        <time>2014-08-18T09:24:45Z</time>
      </trkpt>
      <trkpt lat="44.9746" lon="1.03358">
        <ele>48</ele>
        <time>2014-08-18T09:24:48Z</time>
      </trkpt>
      <trkpt lat="44.97451" lon="1.03351">
        <ele>49</ele>
        <time>2014-08-18T09:24:51Z</time>
      </trkpt>
      <trkpt lat="44.97441" lon="1.03344">
        <ele>51</ele>
        <time>2014-08-18T09:24:54Z</time>
      </trkpt>
      <trkpt lat="44.97433" lon="1.03337">
        <ele>52</ele>
        <time>2014-08-18T09:24:57Z</time>
      </trkpt>
      <trkpt lat="44.97428" lon="1.03332">
        <ele>53</ele>
        <time>2014-08-18T09:24:59Z</time>
      </trkpt>
      <trkpt lat="44.97419" lon="1.03325">
        <ele>54</ele>
        <time>2014-08-18T09:25:02Z</time>
      </trkpt>
      <trkpt lat="44.97412" lon="1.03319">
        <ele>56</ele>
        <time>2014-08-18T09:25:05Z</time>
      </trkpt>
      <trkpt lat="44.97404" lon="1.03314">
        <ele>57</ele>
        <time>2014-08-18T09:25:08Z</time>
      </trkpt>
      <trkpt lat="44.97399" lon="1.03311">
        <ele>57</ele>
        <time>2014-08-18T09:25:10Z</time>
      </trkpt>
      <trkpt lat="44.97391" lon="1.03305">
        <ele>58</ele>
        <time>2014-08-18T09:25:13Z</time>
      </trkpt>
      <trkpt lat="44.97383" lon="1.03301">
        <ele>58</ele>
        <time>2014-08-18T09:25:15Z</time>
      </trkpt>
      <trkpt lat="44.97372" lon="1.03295">
        <ele>59</ele>
        <time>2014-08-18T09:25:18Z</time>
      </trkpt>
      <trkpt lat="44.97365" lon="1.03291">
        <ele>60</ele>
        <time>2014-08-18T09:25:20Z</time>
      </trkpt>
      <trkpt lat="44.97354" lon="1.03284">
        <ele>61</ele>
        <time>2014-08-18T09:25:23Z</time>
      </trkpt>
      <trkpt lat="44.97342" lon="1.03278">
        <ele>62</ele>
        <time>2014-08-18T09:25:26Z</time>
      </trkpt>
      <trkpt lat="44.97334" lon="1.03273">
        <ele>63</ele>
        <time>2014-08-18T09:25:28Z</time>
      </trkpt>
      <trkpt lat="44.97324" lon="1.03269">
        <ele>63</ele>
        <time>2014-08-18T09:25:31Z</time>
      </trkpt>
      <trkpt lat="44.97315" lon="1.03264">
        <ele>64</ele>
        <time>2014-08-18T09:25:34Z</time>
      </trkpt>
      <trkpt lat="44.97308" lon="1.03261">
        <ele>65</ele>
        <time>2014-08-18T09:25:36Z</time>
      </trkpt>
      <trkpt lat="44.97301" lon="1.03258">
        <ele>66</ele>
        <time>2014-08-18T09:25:38Z</time>
      </trkpt>
      <trkpt lat="44.97295" lon="1.03255">
        <ele>66</ele>
        <time>2014-08-18T09:25:40Z</time>
      </trkpt>
      <trkpt lat="44.97285" lon="1.0325">
        <ele>67</ele>
        <time>2014-08-18T09:25:43Z</time>
      </trkpt>
      <trkpt lat="44.97276" lon="1.03245">
        <ele>68</ele>
        <time>2014-08-18T09:25:46Z</time>
      </trkpt>
      <trkpt lat="44.97267" lon="1.03243">
        <ele>69</ele>
        <time>2014-08-18T09:25:49Z</time>
      </trkpt>
      <trkpt lat="44.97261" lon="1.03241">
        <ele>70</ele>
        <time>2014-08-18T09:25:51Z</time>
      </trkpt>
      <trkpt lat="44.97255" lon="1.03238">
        <ele>70</ele>
        <time>2014-08-18T09:25:53Z</time>
      </trkpt>
      <trkpt lat="44.97245" lon="1.03234">
        <ele>71</ele>
        <time>2014-08-18T09:25:56Z</time>
      </trkpt>
      <trkpt lat="44.97238" lon="1.03231">
        <ele>72</ele>
        <time>2014-08-18T09:25:58Z</time>
      </trkpt>
      <trkpt lat="44.97232" lon="1.03229">
        <ele>73</ele>
        <time>2014-08-18T09:26:00Z</time>
      </trkpt>
      <trkpt lat="44.97225" lon="1.03228">
        <ele>73</ele>
        <time>2014-08-18T09:26:02Z</time>
      </trkpt>
      <trkpt lat="44.97215" lon="1.03227">
        <ele>73</ele>
        <time>2014-08-18T09:26:05Z</time>
      </trkpt>
      <trkpt lat="44.97207" lon="1.03226">
        <ele>73</ele>
        <time>2014-08-18T09:26:07Z</time>
      </trkpt>
      <trkpt lat="44.972" lon="1.03226">
        <ele>74</ele>
        <time>2014-08-18T09:26:09Z</time>
      </trkpt>
      <trkpt lat="44.97189" lon="1.03226">
        <ele>74</ele>
        <time>2014-08-18T09:26:12Z</time>
      </trkpt>
      <trkpt lat="44.97181" lon="1.03226">
        <ele>74</ele>
        <time>2014-08-18T09:26:14Z</time>
      </trkpt>
      <trkpt lat="44.97173" lon="1.03226">
        <ele>74</ele>
        <time>2014-08-18T09:26:16Z</time>
      </trkpt>
      <trkpt lat="44.9716" lon="1.03226">
        <ele>74</ele>
        <time>2014-08-18T09:26:19Z</time>
      </trkpt>
      <trkpt lat="44.97151" lon="1.03225">
        <ele>73</ele>
        <time>2014-08-18T09:26:21Z</time>
      </trkpt>
      <trkpt lat="44.97145" lon="1.03224">
        <ele>73</ele>
        <time>2014-08-18T09:26:23Z</time>
      </trkpt>
      <trkpt lat="44.97141" lon="1.03224">
        <ele>72</ele>
        <time>2014-08-18T09:26:25Z</time>
      </trkpt>
      <trkpt lat="44.97137" lon="1.03224">
        <ele>71</ele>
        <time>2014-08-18T09:26:27Z</time>
      </trkpt>
      <trkpt lat="44.97126" lon="1.03226">
        <ele>71</ele>
        <time>2014-08-18T09:26:30Z</time>
      </trkpt>
      <trkpt lat="44.97115" lon="1.03229">
        <ele>70</ele>
        <time>2014-08-18T09:26:32Z</time>
      </trkpt>
      <trkpt lat="44.97098" lon="1.03233">
        <ele>69</ele>
        <time>2014-08-18T09:26:35Z</time>
      </trkpt>
      <trkpt lat="44.97084" lon="1.03232">
        <ele>69</ele>
        <time>2014-08-18T09:26:37Z</time>
      </trkpt>
      <trkpt lat="44.97069" lon="1.03229">
        <ele>68</ele>
        <time>2014-08-18T09:26:39Z</time>
      </trkpt>
      <trkpt lat="44.97054" lon="1.03232">
        <ele>67</ele>
        <time>2014-08-18T09:26:41Z</time>
      </trkpt>
      <trkpt lat="44.97031" lon="1.03242">
        <ele>66</ele>
        <time>2014-08-18T09:26:44Z</time>
      </trkpt>
      <trkpt lat="44.97012" lon="1.03252">
        <ele>63</ele>
        <time>2014-08-18T09:26:47Z</time>
      </trkpt>
      <trkpt lat="44.97004" lon="1.03256">
        <ele>62</ele>
        <time>2014-08-18T09:26:49Z</time>
      </trkpt>
      <trkpt lat="44.96995" lon="1.0326">
        <ele>61</ele>
        <time>2014-08-18T09:26:52Z</time>
      </trkpt>
      <trkpt lat="44.96989" lon="1.03258">
        <ele>60</ele>
        <time>2014-08-18T09:26:54Z</time>
      </trkpt>
      <trkpt lat="44.9698" lon="1.03261">
        <ele>59</ele>
        <time>2014-08-18T09:26:57Z</time>
      </trkpt>
      <trkpt lat="44.96973" lon="1.03263">
        <ele>59</ele>
        <time>2014-08-18T09:27:00Z</time>
      </trkpt>
      <trkpt lat="44.96964" lon="1.03267">
        <ele>58</ele>
        <time>2014-08-18T09:27:03Z</time>
      </trkpt>
      <trkpt lat="44.96956" lon="1.03271">
        <ele>58</ele>
        <time>2014-08-18T09:27:05Z</time>
      </trkpt>
      <trkpt lat="44.96945" lon="1.03276">
        <ele>57</ele>
        <time>2014-08-18T09:27:07Z</time>
      </trkpt>
      <trkpt lat="44.96932" lon="1.03283">
        <ele>56</ele>
        <time>2014-08-18T09:27:10Z</time>
      </trkpt>
      <trkpt lat="44.96923" lon="1.03289">
        <ele>55</ele>
        <time>2014-08-18T09:27:12Z</time>
      </trkpt>
      <trkpt lat="44.96915" lon="1.03296">
        <ele>54</ele>
        <time>2014-08-18T09:27:14Z</time>
      </trkpt>
      <trkpt lat="44.969" lon="1.0331">
        <ele>53</ele>
        <time>2014-08-18T09:27:17Z</time>
      </trkpt>
      <trkpt lat="44.9689" lon="1.03319">
        <ele>53</ele>
        <time>2014-08-18T09:27:19Z</time>
      </trkpt>
      <trkpt lat="44.96878" lon="1.0333">
        <ele>53</ele>
        <time>2014-08-18T09:27:22Z</time>
      </trkpt>
      <trkpt lat="44.96873" lon="1.03336">
        <ele>54</ele>
        <time>2014-08-18T09:27:24Z</time>
      </trkpt>
      <trkpt lat="44.9687" lon="1.0334">
        <ele>55</ele>
        <time>2014-08-18T09:27:26Z</time>
      </trkpt>
      <trkpt lat="44.96866" lon="1.03343">
        <ele>55</ele>
        <time>2014-08-18T09:27:28Z</time>
      </trkpt>
      <trkpt lat="44.96862" lon="1.03347">
        <ele>56</ele>
        <time>2014-08-18T09:27:30Z</time>
      </trkpt>
      <trkpt lat="44.96858" lon="1.03352">
        <ele>56</ele>
        <time>2014-08-18T09:27:33Z</time>
      </trkpt>
      <trkpt lat="44.96857" lon="1.03356">
        <ele>56</ele>
        <time>2014-08-18T09:27:36Z</time>
      </trkpt>
      <trkpt lat="44.96855" lon="1.03359">
        <ele>56</ele>
        <time>2014-08-18T09:27:39Z</time>
      </trkpt>
      <trkpt lat="44.96854" lon="1.03362">
        <ele>56</ele>
        <time>2014-08-18T09:27:42Z</time>
      </trkpt>
      <trkpt lat="44.96854" lon="1.03364">
        <ele>56</ele>
        <time>2014-08-18T09:27:44Z</time>
      </trkpt>
      <trkpt lat="44.96853" lon="1.03366">
        <ele>56</ele>
        <time>2014-08-18T09:27:47Z</time>
      </trkpt>
      <trkpt lat="44.96852" lon="1.03366">
        <ele>56</ele>
        <time>2014-08-18T09:27:49Z</time>
      </trkpt>
      <trkpt lat="44.96852" lon="1.03367">
        <ele>56</ele>
        <time>2014-08-18T09:27:51Z</time>
      </trkpt>
      <trkpt lat="44.96853" lon="1.03371">
        <ele>56</ele>
        <time>2014-08-18T09:27:54Z</time>
      </trkpt>
      <trkpt lat="44.96858" lon="1.03371">
        <ele>56</ele>
        <time>2014-08-18T09:27:57Z</time>
      </trkpt>
      <trkpt lat="44.9686" lon="1.03371">
        <ele>56</ele>
        <time>2014-08-18T09:27:59Z</time>
      </trkpt>
      <trkpt lat="44.96865" lon="1.03366">
        <ele>55</ele>
        <time>2014-08-18T09:28:02Z</time>
      </trkpt>
      <trkpt lat="44.96871" lon="1.03359">
        <ele>55</ele>
        <time>2014-08-18T09:28:04Z</time>
      </trkpt>
      <trkpt lat="44.96883" lon="1.03344">
        <ele>54</ele>
        <time>2014-08-18T09:28:07Z</time>
      </trkpt>
      <trkpt lat="44.96894" lon="1.03332">
        <ele>53</ele>
        <time>2014-08-18T09:28:10Z</time>
      </trkpt>
      <trkpt lat="44.96902" lon="1.03328">
        <ele>53</ele>
        <time>2014-08-18T09:28:12Z</time>
      </trkpt>
      <trkpt lat="44.9691" lon="1.03323">
        <ele>54</ele>
        <time>2014-08-18T09:28:15Z</time>
      </trkpt>
      <trkpt lat="44.96914" lon="1.03323">
        <ele>55</ele>
        <time>2014-08-18T09:28:17Z</time>
      </trkpt>
      <trkpt lat="44.96925" lon="1.03317">
        <ele>56</ele>
        <time>2014-08-18T09:28:20Z</time>
      </trkpt>
      <trkpt lat="44.96932" lon="1.03314">
        <ele>57</ele>
        <time>2014-08-18T09:28:22Z</time>
      </trkpt>
      <trkpt lat="44.96941" lon="1.0331">
        <ele>58</ele>
        <time>2014-08-18T09:28:25Z</time>
      </trkpt>
      <trkpt lat="44.96949" lon="1.03309">
        <ele>58</ele>
        <time>2014-08-18T09:28:27Z</time>
      </trkpt>
      <trkpt lat="44.96952" lon="1.03311">
        <ele>59</ele>
        <time>2014-08-18T09:28:29Z</time>
      </trkpt>
      <trkpt lat="44.9695" lon="1.03313">
        <ele>59</ele>
        <time>2014-08-18T09:28:32Z</time>
      </trkpt>
      <trkpt lat="44.96946" lon="1.03315">
        <ele>59</ele>
        <time>2014-08-18T09:28:34Z</time>
      </trkpt>
      <trkpt lat="44.96938" lon="1.0332">
        <ele>59</ele>
        <time>2014-08-18T09:28:37Z</time>
      </trkpt>
      <trkpt lat="44.96928" lon="1.03326">
        <ele>59</ele>
        <time>2014-08-18T09:28:40Z</time>
      </trkpt>
      <trkpt lat="44.96919" lon="1.03336">
        <ele>60</ele>
        <time>2014-08-18T09:28:43Z</time>
      </trkpt>
      <trkpt lat="44.96909" lon="1.03344">
        <ele>60</ele>
        <time>2014-08-18T09:28:46Z</time>
      </trkpt>
      <trkpt lat="44.96903" lon="1.03348">
        <ele>59</ele>
        <time>2014-08-18T09:28:48Z</time>
      </trkpt>
      <trkpt lat="44.9689" lon="1.03353">
        <ele>59</ele>
        <time>2014-08-18T09:28:51Z</time>
      </trkpt>
      <trkpt lat="44.96882" lon="1.03357">
        <ele>58</ele>
        <time>2014-08-18T09:28:53Z</time>
      </trkpt>
      <trkpt lat="44.96873" lon="1.0336">
        <ele>58</ele>
        <time>2014-08-18T09:28:55Z</time>
      </trkpt>
      <trkpt lat="44.96858" lon="1.0337">
        <ele>58</ele>
        <time>2014-08-18T09:28:58Z</time>
      </trkpt>
      <trkpt lat="44.96844" lon="1.03383">
        <ele>58</ele>
        <time>2014-08-18T09:29:01Z</time>
      </trkpt>
      <trkpt lat="44.96832" lon="1.03396">
        <ele>57</ele>
        <time>2014-08-18T09:29:04Z</time>
      </trkpt>
      <trkpt lat="44.96824" lon="1.03405">
        <ele>57</ele>
        <time>2014-08-18T09:29:06Z</time>
      </trkpt>
      <trkpt lat="44.96816" lon="1.03414">
        <ele>57</ele>
        <time>2014-08-18T09:29:08Z</time>
      </trkpt>
      <trkpt lat="44.96809" lon="1.03423">
        <ele>56</ele>
        <time>2014-08-18T09:29:10Z</time>
      </trkpt>
      <trkpt lat="44.96804" lon="1.03431">
        <ele>55</ele>
        <time>2014-08-18T09:29:12Z</time>
      </trkpt>
      <trkpt lat="44.968" lon="1.0344">
        <ele>55</ele>
        <time>2014-08-18T09:29:14Z</time>
      </trkpt>
      <trkpt lat="44.96798" lon="1.03451">
        <ele>54</ele>
        <time>2014-08-18T09:29:16Z</time>
      </trkpt>
      <trkpt lat="44.96796" lon="1.03472">
        <ele>54</ele>
        <time>2014-08-18T09:29:19Z</time>
      </trkpt>
      <trkpt lat="44.96791" lon="1.03483">
        <ele>53</ele>
        <time>2014-08-18T09:29:21Z</time>
      </trkpt>
      <trkpt lat="44.96785" lon="1.03492">
        <ele>52</ele>
        <time>2014-08-18T09:29:23Z</time>
      </trkpt>
      <trkpt lat="44.96778" lon="1.035">
        <ele>51</ele>
        <time>2014-08-18T09:29:25Z</time>
      </trkpt>
      <trkpt lat="44.96771" lon="1.03506">
        <ele>51</ele>
        <time>2014-08-18T09:29:27Z</time>
      </trkpt>
      <trkpt lat="44.96759" lon="1.0351">
        <ele>50</ele>
        <time>2014-08-18T09:29:30Z</time>
      </trkpt>
      <trkpt lat="44.96754" lon="1.03514">
        <ele>50</ele>
        <time>2014-08-18T09:29:32Z</time>
      </trkpt>
      <trkpt lat="44.96751" lon="1.03519">
        <ele>50</ele>
        <time>2014-08-18T09:29:34Z</time>
      </trkpt>
      <trkpt lat="44.96753" lon="1.03523">
        <ele>50</ele>
        <time>2014-08-18T09:29:37Z</time>
      </trkpt>
      <trkpt lat="44.96754" lon="1.03527">
        <ele>50</ele>
        <time>2014-08-18T09:29:40Z</time>
      </trkpt>
      <trkpt lat="44.96758" lon="1.03545">
        <ele>50</ele>
        <time>2014-08-18T09:29:43Z</time>
      </trkpt>
      <trkpt lat="44.96759" lon="1.03544">
        <ele>50</ele>
        <time>2014-08-18T09:29:45Z</time>
      </trkpt>
      <trkpt lat="44.96766" lon="1.03542">
        <ele>50</ele>
        <time>2014-08-18T09:29:48Z</time>
      </trkpt>
      <trkpt lat="44.96774" lon="1.03541">
        <ele>50</ele>
        <time>2014-08-18T09:29:51Z</time>
      </trkpt>
      <trkpt lat="44.9678" lon="1.0354">
        <ele>49</ele>
        <time>2014-08-18T09:29:53Z</time>
      </trkpt>
      <trkpt lat="44.96786" lon="1.03538">
        <ele>49</ele>
        <time>2014-08-18T09:29:55Z</time>
      </trkpt>
      <trkpt lat="44.96794" lon="1.03529">
        <ele>50</ele>
        <time>2014-08-18T09:29:58Z</time>
      </trkpt>
      <trkpt lat="44.96798" lon="1.0352">
        <ele>51</ele>
        <time>2014-08-18T09:30:00Z</time>
      </trkpt>
      <trkpt lat="44.96798" lon="1.03511">
        <ele>52</ele>
        <time>2014-08-18T09:30:02Z</time>
      </trkpt>
      <trkpt lat="44.96799" lon="1.03503">
        <ele>53</ele>
        <time>2014-08-18T09:30:04Z</time>
      </trkpt>
      <trkpt lat="44.96803" lon="1.0349">
        <ele>54</ele>
        <time>2014-08-18T09:30:07Z</time>
      </trkpt>
      <trkpt lat="44.96808" lon="1.03478">
        <ele>54</ele>
        <time>2014-08-18T09:30:10Z</time>
      </trkpt>
      <trkpt lat="44.96817" lon="1.03467">
        <ele>55</ele>
        <time>2014-08-18T09:30:13Z</time>
      </trkpt>
      <trkpt lat="44.96825" lon="1.03454">
        <ele>55</ele>
        <time>2014-08-18T09:30:16Z</time>
      </trkpt>
      <trkpt lat="44.96835" lon="1.0344">
        <ele>55</ele>
        <time>2014-08-18T09:30:19Z</time>
      </trkpt>
      <trkpt lat="44.96841" lon="1.03431">
        <ele>56</ele>
        <time>2014-08-18T09:30:21Z</time>
      </trkpt>
      <trkpt lat="44.96847" lon="1.03424">
        <ele>56</ele>
        <time>2014-08-18T09:30:23Z</time>
      </trkpt>
      <trkpt lat="44.96854" lon="1.03417">
        <ele>56</ele>
        <time>2014-08-18T09:30:25Z</time>
      </trkpt>
      <trkpt lat="44.96868" lon="1.03409">
        <ele>57</ele>
        <time>2014-08-18T09:30:28Z</time>
      </trkpt>
      <trkpt lat="44.96881" lon="1.03401">
        <ele>58</ele>
        <time>2014-08-18T09:30:31Z</time>
      </trkpt>
      <trkpt lat="44.96893" lon="1.03392">
        <ele>59</ele>
        <time>2014-08-18T09:30:34Z</time>
      </trkpt>
      <trkpt lat="44.96905" lon="1.03377">
        <ele>59</ele>
        <time>2014-08-18T09:30:37Z</time>
      </trkpt>
      <trkpt lat="44.96916" lon="1.03364">
        <ele>59</ele>
        <time>2014-08-18T09:30:40Z</time>
      </trkpt>
      <trkpt lat="44.96928" lon="1.03352">
        <ele>59</ele>
        <time>2014-08-18T09:30:43Z</time>
      </trkpt>
      <trkpt lat="44.96936" lon="1.03343">
        <ele>60</ele>
        <time>2014-08-18T09:30:46Z</time>
      </trkpt>
      <trkpt lat="44.96944" lon="1.03333">
        <ele>60</ele>
        <time>2014-08-18T09:30:49Z</time>
      </trkpt>
      <trkpt lat="44.9695" lon="1.03326">
        <ele>60</ele>
        <time>2014-08-18T09:30:51Z</time>
      </trkpt>
      <trkpt lat="44.96956" lon="1.03319">
        <ele>60</ele>
        <time>2014-08-18T09:30:53Z</time>
      </trkpt>
      <trkpt lat="44.96966" lon="1.03309">
        <ele>61</ele>
        <time>2014-08-18T09:30:56Z</time>
      </trkpt>
      <trkpt lat="44.96973" lon="1.03304">
        <ele>61</ele>
        <time>2014-08-18T09:30:58Z</time>
      </trkpt>
      <trkpt lat="44.96981" lon="1.03299">
        <ele>62</ele>
        <time>2014-08-18T09:31:00Z</time>
      </trkpt>
      <trkpt lat="44.96987" lon="1.03294">
        <ele>63</ele>
        <time>2014-08-18T09:31:02Z</time>
      </trkpt>
      <trkpt lat="44.96995" lon="1.03289">
        <ele>64</ele>
        <time>2014-08-18T09:31:05Z</time>
      </trkpt>
      <trkpt lat="44.97001" lon="1.03287">
        <ele>64</ele>
        <time>2014-08-18T09:31:07Z</time>
      </trkpt>
      <trkpt lat="44.97007" lon="1.03286">
        <ele>65</ele>
        <time>2014-08-18T09:31:09Z</time>
      </trkpt>
      <trkpt lat="44.97017" lon="1.03283">
        <ele>66</ele>
        <time>2014-08-18T09:31:12Z</time>
      </trkpt>
      <trkpt lat="44.97024" lon="1.03282">
        <ele>66</ele>
        <time>2014-08-18T09:31:14Z</time>
      </trkpt>
      <trkpt lat="44.97031" lon="1.03281">
        <ele>67</ele>
        <time>2014-08-18T09:31:16Z</time>
      </trkpt>
      <trkpt lat="44.97037" lon="1.03278">
        <ele>67</ele>
        <time>2014-08-18T09:31:18Z</time>
      </trkpt>
      <trkpt lat="44.97044" lon="1.03276">
        <ele>68</ele>
        <time>2014-08-18T09:31:20Z</time>
      </trkpt>
      <trkpt lat="44.97055" lon="1.0327">
        <ele>68</ele>
        <time>2014-08-18T09:31:23Z</time>
      </trkpt>
      <trkpt lat="44.97068" lon="1.03264">
        <ele>69</ele>
        <time>2014-08-18T09:31:26Z</time>
      </trkpt>
      <trkpt lat="44.97076" lon="1.03262">
        <ele>70</ele>
        <time>2014-08-18T09:31:28Z</time>
      </trkpt>
      <trkpt lat="44.97084" lon="1.03259">
        <ele>70</ele>
        <time>2014-08-18T09:31:30Z</time>
      </trkpt>
      <trkpt lat="44.97092" lon="1.03254">
        <ele>70</ele>
        <time>2014-08-18T09:31:32Z</time>
      </trkpt>
      <trkpt lat="44.97096" lon="1.03243">
        <ele>71</ele>
        <time>2014-08-18T09:31:35Z</time>
      </trkpt>
      <trkpt lat="44.97097" lon="1.03235">
        <ele>72</ele>
        <time>2014-08-18T09:31:37Z</time>
      </trkpt>
      <trkpt lat="44.97097" lon="1.03226">
        <ele>72</ele>
        <time>2014-08-18T09:31:39Z</time>
      </trkpt>
      <trkpt lat="44.97097" lon="1.03209">
        <ele>72</ele>
        <time>2014-08-18T09:31:42Z</time>
      </trkpt>
      <trkpt lat="44.97097" lon="1.03198">
        <ele>72</ele>
        <time>2014-08-18T09:31:44Z</time>
      </trkpt>
      <trkpt lat="44.97096" lon="1.03187">
        <ele>72</ele>
        <time>2014-08-18T09:31:46Z</time>
      </trkpt>
      <trkpt lat="44.97095" lon="1.03177">
        <ele>72</ele>
        <time>2014-08-18T09:31:48Z</time>
      </trkpt>
      <trkpt lat="44.97093" lon="1.03168">
        <ele>72</ele>
        <time>2014-08-18T09:31:50Z</time>
      </trkpt>
      <trkpt lat="44.97091" lon="1.03159">
        <ele>73</ele>
        <time>2014-08-18T09:31:52Z</time>
      </trkpt>
      <trkpt lat="44.97088" lon="1.03146">
        <ele>74</ele>
        <time>2014-08-18T09:31:55Z</time>
      </trkpt>
      <trkpt lat="44.97088" lon="1.03139">
        <ele>75</ele>
        <time>2014-08-18T09:31:57Z</time>
      </trkpt>
      <trkpt lat="44.97087" lon="1.03133">
        <ele>76</ele>
        <time>2014-08-18T09:31:59Z</time>
      </trkpt>
      <trkpt lat="44.97088" lon="1.03124">
        <ele>77</ele>
        <time>2014-08-18T09:32:02Z</time>
      </trkpt>
      <trkpt lat="44.97085" lon="1.03117">
        <ele>77</ele>
        <time>2014-08-18T09:32:04Z</time>
      </trkpt>
      <trkpt lat="44.97081" lon="1.03106">
        <ele>78</ele>
        <time>2014-08-18T09:32:07Z</time>
      </trkpt>
      <trkpt lat="44.97078" lon="1.03095">
        <ele>79</ele>
        <time>2014-08-18T09:32:10Z</time>
      </trkpt>
      <trkpt lat="44.97076" lon="1.03088">
        <ele>80</ele>
        <time>2014-08-18T09:32:12Z</time>
      </trkpt>
      <trkpt lat="44.97074" lon="1.03082">
        <ele>81</ele>
        <time>2014-08-18T09:32:14Z</time>
      </trkpt>
      <trkpt lat="44.9707" lon="1.03072">
        <ele>82</ele>
        <time>2014-08-18T09:32:17Z</time>
      </trkpt>
      <trkpt lat="44.97069" lon="1.03063">
        <ele>82</ele>
        <time>2014-08-18T09:32:19Z</time>
      </trkpt>
      <trkpt lat="44.97067" lon="1.03055">
        <ele>82</ele>
        <time>2014-08-18T09:32:21Z</time>
      </trkpt>
      <trkpt lat="44.97066" lon="1.03046">
        <ele>83</ele>
        <time>2014-08-18T09:32:23Z</time>
      </trkpt>
      <trkpt lat="44.97066" lon="1.03031">
        <ele>83</ele>
        <time>2014-08-18T09:32:26Z</time>
      </trkpt>
      <trkpt lat="44.97065" lon="1.03022">
        <ele>83</ele>
        <time>2014-08-18T09:32:28Z</time>
      </trkpt>
      <trkpt lat="44.97066" lon="1.03016">
        <ele>83</ele>
        <time>2014-08-18T09:32:30Z</time>
      </trkpt>
      <trkpt lat="44.97072" lon="1.03005">
        <ele>83</ele>
        <time>2014-08-18T09:32:33Z</time>
      </trkpt>
      <trkpt lat="44.97076" lon="1.02998">
        <ele>82</ele>
        <time>2014-08-18T09:32:35Z</time>
      </trkpt>
      <trkpt lat="44.97083" lon="1.02985">
        <ele>82</ele>
        <time>2014-08-18T09:32:38Z</time>
      </trkpt>
      <trkpt lat="44.97092" lon="1.02971">
        <ele>82</ele>
        <time>2014-08-18T09:32:41Z</time>
      </trkpt>
      <trkpt lat="44.971" lon="1.02953">
        <ele>82</ele>
        <time>2014-08-18T09:32:44Z</time>
      </trkpt>
      <trkpt lat="44.97105" lon="1.0294">
        <ele>81</ele>
        <time>2014-08-18T09:32:46Z</time>
      </trkpt>
      <trkpt lat="44.97111" lon="1.02926">
        <ele>80</ele>
        <time>2014-08-18T09:32:48Z</time>
      </trkpt>
      <trkpt lat="44.97117" lon="1.02909">
        <ele>79</ele>
        <time>2014-08-18T09:32:50Z</time>
      </trkpt>
      <trkpt lat="44.97126" lon="1.02886">
        <ele>78</ele>
        <time>2014-08-18T09:32:53Z</time>
      </trkpt>
      <trkpt lat="44.97131" lon="1.0287">
        <ele>77</ele>
        <time>2014-08-18T09:32:55Z</time>
      </trkpt>
      <trkpt lat="44.97137" lon="1.02853">
        <ele>76</ele>
        <time>2014-08-18T09:32:57Z</time>
      </trkpt>
      <trkpt lat="44.9714" lon="1.02834">
        <ele>75</ele>
        <time>2014-08-18T09:32:59Z</time>
      </trkpt>
      <trkpt lat="44.97143" lon="1.02807">
        <ele>72</ele>
        <time>2014-08-18T09:33:02Z</time>
      </trkpt>
      <trkpt lat="44.9715" lon="1.02788">
        <ele>70</ele>
        <time>2014-08-18T09:33:04Z</time>
      </trkpt>
      <trkpt lat="44.97158" lon="1.02768">
        <ele>69</ele>
        <time>2014-08-18T09:33:06Z</time>
      </trkpt>
      <trkpt lat="44.97167" lon="1.02746">
        <ele>67</ele>
        <time>2014-08-18T09:33:08Z</time>
      </trkpt>
      <trkpt lat="44.97183" lon="1.02714">
        <ele>65</ele>
        <time>2014-08-18T09:33:11Z</time>
      </trkpt>
      <trkpt lat="44.97198" lon="1.02681">
        <ele>61</ele>
        <time>2014-08-18T09:33:14Z</time>
      </trkpt>
      <trkpt lat="44.97211" lon="1.02662">
        <ele>58</ele>
        <time>2014-08-18T09:33:16Z</time>
      </trkpt>
      <trkpt lat="44.97224" lon="1.02644">
        <ele>57</ele>
        <time>2014-08-18T09:33:18Z</time>
      </trkpt>
      <trkpt lat="44.97237" lon="1.02627">
        <ele>55</ele>
        <time>2014-08-18T09:33:20Z</time>
      </trkpt>
      <trkpt lat="44.97248" lon="1.02611">
        <ele>54</ele>
        <time>2014-08-18T09:33:22Z</time>
      </trkpt>
      <trkpt lat="44.97255" lon="1.026">
        <ele>53</ele>
        <time>2014-08-18T09:33:24Z</time>
      </trkpt>
      <trkpt lat="44.97263" lon="1.02588">
        <ele>51</ele>
        <time>2014-08-18T09:33:27Z</time>
      </trkpt>
      <trkpt lat="44.97265" lon="1.02579">
        <ele>48</ele>
        <time>2014-08-18T09:33:30Z</time>
      </trkpt>
      <trkpt lat="44.97263" lon="1.0258">
        <ele>47</ele>
        <time>2014-08-18T09:33:32Z</time>
      </trkpt>
      <trkpt lat="44.97255" lon="1.02584">
        <ele>47</ele>
        <time>2014-08-18T09:33:34Z</time>
      </trkpt>
      <trkpt lat="44.97244" lon="1.02587">
        <ele>46</ele>
        <time>2014-08-18T09:33:36Z</time>
      </trkpt>
      <trkpt lat="44.97231" lon="1.02591">
        <ele>46</ele>
        <time>2014-08-18T09:33:38Z</time>
      </trkpt>
      <trkpt lat="44.97212" lon="1.02596">
        <ele>45</ele>
        <time>2014-08-18T09:33:41Z</time>
      </trkpt>
      <trkpt lat="44.97196" lon="1.02599">
        <ele>44</ele>
        <time>2014-08-18T09:33:44Z</time>
      </trkpt>
      <trkpt lat="44.9719" lon="1.02601">
        <ele>44</ele>
        <time>2014-08-18T09:33:46Z</time>
      </trkpt>
      <trkpt lat="44.97188" lon="1.02598">
        <ele>43</ele>
        <time>2014-08-18T09:33:49Z</time>
      </trkpt>
      <trkpt lat="44.97191" lon="1.02594">
        <ele>43</ele>
        <time>2014-08-18T09:33:51Z</time>
      </trkpt>
      <trkpt lat="44.97192" lon="1.02587">
        <ele>43</ele>
        <time>2014-08-18T09:33:53Z</time>
      </trkpt>
      <trkpt lat="44.9719" lon="1.02576">
        <ele>43</ele>
        <time>2014-08-18T09:33:55Z</time>
      </trkpt>
      <trkpt lat="44.97187" lon="1.02558">
        <ele>43</ele>
        <time>2014-08-18T09:33:58Z</time>
      </trkpt>
      <trkpt lat="44.97183" lon="1.02549">
        <ele>44</ele>
        <time>2014-08-18T09:34:00Z</time>
      </trkpt>
      <trkpt lat="44.97178" lon="1.02538">
        <ele>44</ele>
        <time>2014-08-18T09:34:02Z</time>
      </trkpt>
      <trkpt lat="44.97175" lon="1.02527">
        <ele>45</ele>
        <time>2014-08-18T09:34:04Z</time>
      </trkpt>
      <trkpt lat="44.97171" lon="1.02515">
        <ele>45</ele>
        <time>2014-08-18T09:34:06Z</time>
      </trkpt>
      <trkpt lat="44.97166" lon="1.02504">
        <ele>46</ele>
        <time>2014-08-18T09:34:08Z</time>
      </trkpt>
      <trkpt lat="44.97162" lon="1.02493">
        <ele>46</ele>
        <time>2014-08-18T09:34:10Z</time>
      </trkpt>
      <trkpt lat="44.97158" lon="1.02479">
        <ele>47</ele>
        <time>2014-08-18T09:34:13Z</time>
      </trkpt>
      <trkpt lat="44.97154" lon="1.02473">
        <ele>48</ele>
        <time>2014-08-18T09:34:15Z</time>
      </trkpt>
      <trkpt lat="44.9715" lon="1.02462">
        <ele>49</ele>
        <time>2014-08-18T09:34:18Z</time>
      </trkpt>
      <trkpt lat="44.97146" lon="1.02454">
        <ele>50</ele>
        <time>2014-08-18T09:34:20Z</time>
      </trkpt>
      <trkpt lat="44.97141" lon="1.02447">
        <ele>50</ele>
        <time>2014-08-18T09:34:22Z</time>
      </trkpt>
      <trkpt lat="44.97138" lon="1.02438">
        <ele>50</ele>
        <time>2014-08-18T09:34:24Z</time>
      </trkpt>
      <trkpt lat="44.97133" lon="1.02429">
        <ele>51</ele>
        <time>2014-08-18T09:34:26Z</time>
      </trkpt>
      <trkpt lat="44.97129" lon="1.02414">
        <ele>51</ele>
        <time>2014-08-18T09:34:29Z</time>
      </trkpt>
      <trkpt lat="44.97128" lon="1.02405">
        <ele>52</ele>
        <time>2014-08-18T09:34:31Z</time>
      </trkpt>
      <trkpt lat="44.97125" lon="1.02395">
        <ele>52</ele>
        <time>2014-08-18T09:34:33Z</time>
      </trkpt>
      <trkpt lat="44.97123" lon="1.02385">
        <ele>52</ele>
        <time>2014-08-18T09:34:35Z</time>
      </trkpt>
      <trkpt lat="44.97122" lon="1.02376">
        <ele>53</ele>
        <time>2014-08-18T09:34:37Z</time>
      </trkpt>
      <trkpt lat="44.97123" lon="1.02362">
        <ele>53</ele>
        <time>2014-08-18T09:34:40Z</time>
      </trkpt>
      <trkpt lat="44.97121" lon="1.02355">
        <ele>54</ele>
        <time>2014-08-18T09:34:42Z</time>
      </trkpt>
      <trkpt lat="44.97121" lon="1.02349">
        <ele>54</ele>
        <time>2014-08-18T09:34:44Z</time>
      </trkpt>
      <trkpt lat="44.97125" lon="1.02343">
        <ele>55</ele>
        <time>2014-08-18T09:34:46Z</time>
      </trkpt>
      <trkpt lat="44.97128" lon="1.02339">
        <ele>55</ele>
        <time>2014-08-18T09:34:48Z</time>
      </trkpt>
      <trkpt lat="44.97129" lon="1.02337">
        <ele>56</ele>
        <time>2014-08-18T09:34:50Z</time>
      </trkpt>
      <trkpt lat="44.97131" lon="1.02334">
        <ele>56</ele>
        <time>2014-08-18T09:34:52Z</time>
      </trkpt>
      <trkpt lat="44.97131" lon="1.02329">
        <ele>57</ele>
        <time>2014-08-18T09:34:54Z</time>
      </trkpt>
      <trkpt lat="44.97132" lon="1.02325">
        <ele>57</ele>
        <time>2014-08-18T09:34:56Z</time>
      </trkpt>
      <trkpt lat="44.97134" lon="1.02319">
        <ele>58</ele>
        <time>2014-08-18T09:34:58Z</time>
      </trkpt>
      <trkpt lat="44.97138" lon="1.02313">
        <ele>58</ele>
        <time>2014-08-18T09:35:00Z</time>
      </trkpt>
      <trkpt lat="44.97142" lon="1.02307">
        <ele>59</ele>
        <time>2014-08-18T09:35:02Z</time>
      </trkpt>
      <trkpt lat="44.97147" lon="1.02298">
        <ele>60</ele>
        <time>2014-08-18T09:35:05Z</time>
      </trkpt>
      <trkpt lat="44.97153" lon="1.0229">
        <ele>60</ele>
        <time>2014-08-18T09:35:07Z</time>
      </trkpt>
      <trkpt lat="44.97157" lon="1.02284">
        <ele>61</ele>
        <time>2014-08-18T09:35:09Z</time>
      </trkpt>
      <trkpt lat="44.9716" lon="1.02279">
        <ele>61</ele>
        <time>2014-08-18T09:35:11Z</time>
      </trkpt>
      <trkpt lat="44.97166" lon="1.02276">
        <ele>62</ele>
        <time>2014-08-18T09:35:13Z</time>
      </trkpt>
      <trkpt lat="44.97171" lon="1.02273">
        <ele>62</ele>
        <time>2014-08-18T09:35:15Z</time>
      </trkpt>
      <trkpt lat="44.97176" lon="1.02268">
        <ele>63</ele>
        <time>2014-08-18T09:35:17Z</time>
      </trkpt>
      <trkpt lat="44.9718" lon="1.02264">
        <ele>64</ele>
        <time>2014-08-18T09:35:19Z</time>
      </trkpt>
      <trkpt lat="44.97184" lon="1.0226">
        <ele>64</ele>
        <time>2014-08-18T09:35:21Z</time>
      </trkpt>
      <trkpt lat="44.97188" lon="1.02255">
        <ele>65</ele>
        <time>2014-08-18T09:35:23Z</time>
      </trkpt>
      <trkpt lat="44.97195" lon="1.02249">
        <ele>65</ele>
        <time>2014-08-18T09:35:25Z</time>
      </trkpt>
      <trkpt lat="44.97201" lon="1.02244">
        <ele>65</ele>
        <time>2014-08-18T09:35:27Z</time>
      </trkpt>
      <trkpt lat="44.97207" lon="1.0224">
        <ele>65</ele>
        <time>2014-08-18T09:35:29Z</time>
      </trkpt>
      <trkpt lat="44.97216" lon="1.02234">
        <ele>66</ele>
        <time>2014-08-18T09:35:32Z</time>
      </trkpt>
      <trkpt lat="44.97221" lon="1.02231">
        <ele>66</ele>
        <time>2014-08-18T09:35:34Z</time>
      </trkpt>
      <trkpt lat="44.97226" lon="1.02226">
        <ele>67</ele>
        <time>2014-08-18T09:35:36Z</time>
      </trkpt>
      <trkpt lat="44.97232" lon="1.02222">
        <ele>67</ele>
        <time>2014-08-18T09:35:38Z</time>
      </trkpt>
      <trkpt lat="44.97237" lon="1.02218">
        <ele>67</ele>
        <time>2014-08-18T09:35:40Z</time>
      </trkpt>
      <trkpt lat="44.97246" lon="1.02213">
        <ele>68</ele>
        <time>2014-08-18T09:35:43Z</time>
      </trkpt>
      <trkpt lat="44.97253" lon="1.0221">
        <ele>68</ele>
        <time>2014-08-18T09:35:45Z</time>
      </trkpt>
      <trkpt lat="44.97258" lon="1.02207">
        <ele>69</ele>
        <time>2014-08-18T09:35:47Z</time>
      </trkpt>
      <trkpt lat="44.97266" lon="1.02199">
        <ele>70</ele>
        <time>2014-08-18T09:35:50Z</time>
      </trkpt>
      <trkpt lat="44.97274" lon="1.0219">
        <ele>70</ele>
        <time>2014-08-18T09:35:52Z</time>
      </trkpt>
      <trkpt lat="44.9728" lon="1.02183">
        <ele>71</ele>
        <time>2014-08-18T09:35:54Z</time>
      </trkpt>
      <trkpt lat="44.97285" lon="1.02177">
        <ele>71</ele>
        <time>2014-08-18T09:35:56Z</time>
      </trkpt>
      <trkpt lat="44.9729" lon="1.02171">
        <ele>72</ele>
        <time>2014-08-18T09:35:58Z</time>
      </trkpt>
      <trkpt lat="44.97299" lon="1.0216">
        <ele>72</ele>
        <time>2014-08-18T09:36:01Z</time>
      </trkpt>
      <trkpt lat="44.97304" lon="1.02154">
        <ele>73</ele>
        <time>2014-08-18T09:36:03Z</time>
      </trkpt>
      <trkpt lat="44.97309" lon="1.02148">
        <ele>73</ele>
        <time>2014-08-18T09:36:05Z</time>
      </trkpt>
      <trkpt lat="44.97313" lon="1.02144">
        <ele>74</ele>
        <time>2014-08-18T09:36:07Z</time>
      </trkpt>
      <trkpt lat="44.97317" lon="1.0214">
        <ele>74</ele>
        <time>2014-08-18T09:36:09Z</time>
      </trkpt>
      <trkpt lat="44.97324" lon="1.02139">
        <ele>75</ele>
        <time>2014-08-18T09:36:12Z</time>
      </trkpt>
      <trkpt lat="44.97328" lon="1.02138">
        <ele>76</ele>
        <time>2014-08-18T09:36:14Z</time>
      </trkpt>
      <trkpt lat="44.97332" lon="1.02136">
        <ele>76</ele>
        <time>2014-08-18T09:36:16Z</time>
      </trkpt>
      <trkpt lat="44.97337" lon="1.02133">
        <ele>77</ele>
        <time>2014-08-18T09:36:18Z</time>
      </trkpt>
      <trkpt lat="44.97341" lon="1.02127">
        <ele>78</ele>
        <time>2014-08-18T09:36:20Z</time>
      </trkpt>
      <trkpt lat="44.97347" lon="1.02121">
        <ele>79</ele>
        <time>2014-08-18T09:36:23Z</time>
      </trkpt>
      <trkpt lat="44.97352" lon="1.02115">
        <ele>80</ele>
        <time>2014-08-18T09:36:25Z</time>
      </trkpt>
      <trkpt lat="44.97356" lon="1.0211">
        <ele>81</ele>
        <time>2014-08-18T09:36:27Z</time>
      </trkpt>
      <trkpt lat="44.9736" lon="1.02102">
        <ele>82</ele>
        <time>2014-08-18T09:36:29Z</time>
      </trkpt>
      <trkpt lat="44.97364" lon="1.02095">
        <ele>82</ele>
        <time>2014-08-18T09:36:31Z</time>
      </trkpt>
      <trkpt lat="44.9737" lon="1.02084">
        <ele>83</ele>
        <time>2014-08-18T09:36:34Z</time>
      </trkpt>
      <trkpt lat="44.97374" lon="1.02078">
        <ele>83</ele>
        <time>2014-08-18T09:36:36Z</time>
      </trkpt>
      <trkpt lat="44.97379" lon="1.02068">
        <ele>84</ele>
        <time>2014-08-18T09:36:39Z</time>
      </trkpt>
      <trkpt lat="44.97382" lon="1.02062">
        <ele>85</ele>
        <time>2014-08-18T09:36:41Z</time>
      </trkpt>
      <trkpt lat="44.97387" lon="1.02052">
        <ele>85</ele>
        <time>2014-08-18T09:36:44Z</time>
      </trkpt>
      <trkpt lat="44.97392" lon="1.02044">
        <ele>86</ele>
        <time>2014-08-18T09:36:46Z</time>
      </trkpt>
      <trkpt lat="44.97396" lon="1.02037">
        <ele>86</ele>
        <time>2014-08-18T09:36:48Z</time>
      </trkpt>
      <trkpt lat="44.97401" lon="1.02029">
        <ele>87</ele>
        <time>2014-08-18T09:36:50Z</time>
      </trkpt>
      <trkpt lat="44.97406" lon="1.02018">
        <ele>87</ele>
        <time>2014-08-18T09:36:53Z</time>
      </trkpt>
      <trkpt lat="44.97411" lon="1.02011">
        <ele>87</ele>
        <time>2014-08-18T09:36:55Z</time>
      </trkpt>
      <trkpt lat="44.97416" lon="1.02003">
        <ele>88</ele>
        <time>2014-08-18T09:36:57Z</time>
      </trkpt>
      <trkpt lat="44.9742" lon="1.01995">
        <ele>88</ele>
        <time>2014-08-18T09:36:59Z</time>
      </trkpt>
      <trkpt lat="44.97427" lon="1.01982">
        <ele>89</ele>
        <time>2014-08-18T09:37:02Z</time>
      </trkpt>
      <trkpt lat="44.97431" lon="1.01974">
        <ele>89</ele>
        <time>2014-08-18T09:37:04Z</time>
      </trkpt>
      <trkpt lat="44.97433" lon="1.01966">
        <ele>90</ele>
        <time>2014-08-18T09:37:06Z</time>
      </trkpt>
      <trkpt lat="44.97437" lon="1.01956">
        <ele>90</ele>
        <time>2014-08-18T09:37:08Z</time>
      </trkpt>
      <trkpt lat="44.9744" lon="1.01945">
        <ele>90</ele>
        <time>2014-08-18T09:37:10Z</time>
      </trkpt>
      <trkpt lat="44.97443" lon="1.01926">
        <ele>90</ele>
        <time>2014-08-18T09:37:13Z</time>
      </trkpt>
      <trkpt lat="44.97446" lon="1.01906">
        <ele>90</ele>
        <time>2014-08-18T09:37:16Z</time>
      </trkpt>
      <trkpt lat="44.97445" lon="1.01892">
        <ele>89</ele>
        <time>2014-08-18T09:37:18Z</time>
      </trkpt>
      <trkpt lat="44.97437" lon="1.01881">
        <ele>89</ele>
        <time>2014-08-18T09:37:20Z</time>
      </trkpt>
      <trkpt lat="44.97429" lon="1.01873">
        <ele>89</ele>
        <time>2014-08-18T09:37:22Z</time>
      </trkpt>
      <trkpt lat="44.97418" lon="1.01862">
        <ele>88</ele>
        <time>2014-08-18T09:37:25Z</time>
      </trkpt>
      <trkpt lat="44.97412" lon="1.01856">
        <ele>89</ele>
        <time>2014-08-18T09:37:27Z</time>
      </trkpt>
      <trkpt lat="44.97404" lon="1.01846">
        <ele>90</ele>
        <time>2014-08-18T09:37:30Z</time>
      </trkpt>
      <trkpt lat="44.97401" lon="1.01839">
        <ele>90</ele>
        <time>2014-08-18T09:37:32Z</time>
      </trkpt>
      <trkpt lat="44.97398" lon="1.01826">
        <ele>91</ele>
        <time>2014-08-18T09:37:35Z</time>
      </trkpt>
      <trkpt lat="44.97395" lon="1.01813">
        <ele>92</ele>
        <time>2014-08-18T09:37:38Z</time>
      </trkpt>
      <trkpt lat="44.97392" lon="1.018">
        <ele>93</ele>
        <time>2014-08-18T09:37:41Z</time>
      </trkpt>
      <trkpt lat="44.97392" lon="1.01786">
        <ele>93</ele>
        <time>2014-08-18T09:37:44Z</time>
      </trkpt>
      <trkpt lat="44.97392" lon="1.01777">
        <ele>94</ele>
        <time>2014-08-18T09:37:46Z</time>
      </trkpt>
      <trkpt lat="44.97395" lon="1.01764">
        <ele>95</ele>
        <time>2014-08-18T09:37:49Z</time>
      </trkpt>
      <trkpt lat="44.97396" lon="1.01756">
        <ele>96</ele>
        <time>2014-08-18T09:37:51Z</time>
      </trkpt>
      <trkpt lat="44.97398" lon="1.01748">
        <ele>96</ele>
        <time>2014-08-18T09:37:53Z</time>
      </trkpt>
      <trkpt lat="44.97399" lon="1.01739">
        <ele>97</ele>
        <time>2014-08-18T09:37:55Z</time>
      </trkpt>
      <trkpt lat="44.97399" lon="1.0173">
        <ele>97</ele>
        <time>2014-08-18T09:37:57Z</time>
      </trkpt>
      <trkpt lat="44.97398" lon="1.0172">
        <ele>98</ele>
        <time>2014-08-18T09:37:59Z</time>
      </trkpt>
      <trkpt lat="44.97395" lon="1.01706">
        <ele>99</ele>
        <time>2014-08-18T09:38:02Z</time>
      </trkpt>
      <trkpt lat="44.97392" lon="1.01693">
        <ele>100</ele>
        <time>2014-08-18T09:38:05Z</time>
      </trkpt>
      <trkpt lat="44.97391" lon="1.01685">
        <ele>101</ele>
        <time>2014-08-18T09:38:07Z</time>
      </trkpt>
      <trkpt lat="44.97389" lon="1.01676">
        <ele>102</ele>
        <time>2014-08-18T09:38:09Z</time>
      </trkpt>
      <trkpt lat="44.97386" lon="1.01663">
        <ele>102</ele>
        <time>2014-08-18T09:38:12Z</time>
      </trkpt>
      <trkpt lat="44.97383" lon="1.01655">
        <ele>103</ele>
        <time>2014-08-18T09:38:14Z</time>
      </trkpt>
      <trkpt lat="44.97381" lon="1.01648">
        <ele>103</ele>
        <time>2014-08-18T09:38:16Z</time>
      </trkpt>
      <trkpt lat="44.97377" lon="1.01636">
        <ele>103</ele>
        <time>2014-08-18T09:38:19Z</time>
      </trkpt>
      <trkpt lat="44.97375" lon="1.01627">
        <ele>104</ele>
        <time>2014-08-18T09:38:21Z</time>
      </trkpt>
      <trkpt lat="44.97373" lon="1.01616">
        <ele>104</ele>
        <time>2014-08-18T09:38:24Z</time>
      </trkpt>
      <trkpt lat="44.97371" lon="1.01606">
        <ele>105</ele>
        <time>2014-08-18T09:38:27Z</time>
      </trkpt>
      <trkpt lat="44.97369" lon="1.01598">
        <ele>106</ele>
        <time>2014-08-18T09:38:30Z</time>
      </trkpt>
      <trkpt lat="44.97369" lon="1.01593">
        <ele>107</ele>
        <time>2014-08-18T09:38:32Z</time>
      </trkpt>
      <trkpt lat="44.97372" lon="1.01588">
        <ele>108</ele>
        <time>2014-08-18T09:38:34Z</time>
      </trkpt>
      <trkpt lat="44.97374" lon="1.01583">
        <ele>108</ele>
        <time>2014-08-18T09:38:36Z</time>
      </trkpt>
      <trkpt lat="44.97378" lon="1.01576">
        <ele>109</ele>
        <time>2014-08-18T09:38:39Z</time>
      </trkpt>
      <trkpt lat="44.9738" lon="1.01569">
        <ele>110</ele>
        <time>2014-08-18T09:38:42Z</time>
      </trkpt>
      <trkpt lat="44.97381" lon="1.01564">
        <ele>110</ele>
        <time>2014-08-18T09:38:44Z</time>
      </trkpt>
      <trkpt lat="44.97381" lon="1.01559">
        <ele>111</ele>
        <time>2014-08-18T09:38:46Z</time>
      </trkpt>
      <trkpt lat="44.97379" lon="1.01549">
        <ele>111</ele>
        <time>2014-08-18T09:38:49Z</time>
      </trkpt>
      <trkpt lat="44.97377" lon="1.01541">
        <ele>111</ele>
        <time>2014-08-18T09:38:51Z</time>
      </trkpt>
      <trkpt lat="44.97371" lon="1.01529">
        <ele>112</ele>
        <time>2014-08-18T09:38:54Z</time>
      </trkpt>
      <trkpt lat="44.97366" lon="1.01515">
        <ele>113</ele>
        <time>2014-08-18T09:38:57Z</time>
      </trkpt>
      <trkpt lat="44.97359" lon="1.01503">
        <ele>114</ele>
        <time>2014-08-18T09:39:00Z</time>
      </trkpt>
      <trkpt lat="44.97351" lon="1.01489">
        <ele>115</ele>
        <time>2014-08-18T09:39:03Z</time>
      </trkpt>
      <trkpt lat="44.97343" lon="1.01478">
        <ele>116</ele>
        <time>2014-08-18T09:39:06Z</time>
      </trkpt>
      <trkpt lat="44.97337" lon="1.01465">
        <ele>117</ele>
        <time>2014-08-18T09:39:09Z</time>
      </trkpt>
      <trkpt lat="44.97335" lon="1.01456">
        <ele>118</ele>
        <time>2014-08-18T09:39:11Z</time>
      </trkpt>
      <trkpt lat="44.97329" lon="1.01443">
        <ele>119</ele>
        <time>2014-08-18T09:39:14Z</time>
      </trkpt>
      <trkpt lat="44.97326" lon="1.01431">
        <ele>121</ele>
        <time>2014-08-18T09:39:17Z</time>
      </trkpt>
      <trkpt lat="44.97324" lon="1.01419">
        <ele>122</ele>
        <time>2014-08-18T09:39:20Z</time>
      </trkpt>
      <trkpt lat="44.97323" lon="1.01409">
        <ele>123</ele>
        <time>2014-08-18T09:39:23Z</time>
      </trkpt>
      <trkpt lat="44.97322" lon="1.014">
        <ele>123</ele>
        <time>2014-08-18T09:39:26Z</time>
      </trkpt>
      <trkpt lat="44.97322" lon="1.01392">
        <ele>124</ele>
        <time>2014-08-18T09:39:29Z</time>
      </trkpt>
      <trkpt lat="44.97323" lon="1.01385">
        <ele>125</ele>
        <time>2014-08-18T09:39:32Z</time>
      </trkpt>
      <trkpt lat="44.97323" lon="1.01377">
        <ele>125</ele>
        <time>2014-08-18T09:39:35Z</time>
      </trkpt>
      <trkpt lat="44.9732" lon="1.01373">
        <ele>126</ele>
        <time>2014-08-18T09:39:37Z</time>
      </trkpt>
      <trkpt lat="44.97317" lon="1.01366">
        <ele>127</ele>
        <time>2014-08-18T09:39:40Z</time>
      </trkpt>
      <trkpt lat="44.97315" lon="1.01361">
        <ele>128</ele>
        <time>2014-08-18T09:39:42Z</time>
      </trkpt>
      <trkpt lat="44.97313" lon="1.01351">
        <ele>129</ele>
        <time>2014-08-18T09:39:45Z</time>
      </trkpt>
      <trkpt lat="44.97312" lon="1.01346">
        <ele>130</ele>
        <time>2014-08-18T09:39:47Z</time>
      </trkpt>
      <trkpt lat="44.9731" lon="1.01339">
        <ele>131</ele>
        <time>2014-08-18T09:39:50Z</time>
      </trkpt>
      <trkpt lat="44.97308" lon="1.01333">
        <ele>132</ele>
        <time>2014-08-18T09:39:52Z</time>
      </trkpt>
      <trkpt lat="44.97305" lon="1.01325">
        <ele>133</ele>
        <time>2014-08-18T09:39:55Z</time>
      </trkpt>
      <trkpt lat="44.97302" lon="1.01321">
        <ele>133</ele>
        <time>2014-08-18T09:39:57Z</time>
      </trkpt>
      <trkpt lat="44.97297" lon="1.01315">
        <ele>134</ele>
        <time>2014-08-18T09:40:00Z</time>
      </trkpt>
      <trkpt lat="44.97292" lon="1.01314">
        <ele>135</ele>
        <time>2014-08-18T09:40:02Z</time>
      </trkpt>
      <trkpt lat="44.97287" lon="1.01312">
        <ele>135</ele>
        <time>2014-08-18T09:40:04Z</time>
      </trkpt>
      <trkpt lat="44.97282" lon="1.01312">
        <ele>136</ele>
        <time>2014-08-18T09:40:06Z</time>
      </trkpt>
      <trkpt lat="44.97278" lon="1.01312">
        <ele>136</ele>
        <time>2014-08-18T09:40:08Z</time>
      </trkpt>
      <trkpt lat="44.97271" lon="1.01312">
        <ele>137</ele>
        <time>2014-08-18T09:40:11Z</time>
      </trkpt>
      <trkpt lat="44.97267" lon="1.01314">
        <ele>137</ele>
        <time>2014-08-18T09:40:13Z</time>
      </trkpt>
      <trkpt lat="44.97263" lon="1.01314">
        <ele>138</ele>
        <time>2014-08-18T09:40:15Z</time>
      </trkpt>
      <trkpt lat="44.97259" lon="1.01314">
        <ele>139</ele>
        <time>2014-08-18T09:40:17Z</time>
      </trkpt>
      <trkpt lat="44.97256" lon="1.01315">
        <ele>139</ele>
        <time>2014-08-18T09:40:20Z</time>
      </trkpt>
      <trkpt lat="44.97253" lon="1.01314">
        <ele>139</ele>
        <time>2014-08-18T09:40:22Z</time>
      </trkpt>
      <trkpt lat="44.97253" lon="1.01313">
        <ele>140</ele>
        <time>2014-08-18T09:40:24Z</time>
      </trkpt>
      <trkpt lat="44.97253" lon="1.01313">
        <ele>139</ele>
        <time>2014-08-18T09:40:26Z</time>
      </trkpt>
      <trkpt lat="44.9721" lon="1.0129">
        <ele>139</ele>
        <time>2014-08-18T09:40:28Z</time>
      </trkpt>
      <trkpt lat="44.9721" lon="1.01291">
        <ele>139</ele>
        <time>2014-08-18T09:40:30Z</time>
      </trkpt>
      <trkpt lat="44.97211" lon="1.01293">
        <ele>139</ele>
        <time>2014-08-18T09:40:33Z</time>
      </trkpt>
      <trkpt lat="44.97211" lon="1.01299">
        <ele>139</ele>
        <time>2014-08-18T09:40:36Z</time>
      </trkpt>
      <trkpt lat="44.9721" lon="1.01303">
        <ele>139</ele>
        <time>2014-08-18T09:40:38Z</time>
      </trkpt>
      <trkpt lat="44.97211" lon="1.01307">
        <ele>140</ele>
        <time>2014-08-18T09:40:40Z</time>
      </trkpt>
      <trkpt lat="44.97211" lon="1.01312">
        <ele>140</ele>
        <time>2014-08-18T09:40:42Z</time>
      </trkpt>
      <trkpt lat="44.9721" lon="1.01319">
        <ele>141</ele>
        <time>2014-08-18T09:40:44Z</time>
      </trkpt>
      <trkpt lat="44.97208" lon="1.01326">
        <ele>142</ele>
        <time>2014-08-18T09:40:46Z</time>
      </trkpt>
      <trkpt lat="44.97206" lon="1.01334">
        <ele>142</ele>
        <time>2014-08-18T09:40:48Z</time>
      </trkpt>
      <trkpt lat="44.972" lon="1.01342">
        <ele>144</ele>
        <time>2014-08-18T09:40:51Z</time>
      </trkpt>
      <trkpt lat="44.97196" lon="1.01341">
        <ele>145</ele>
        <time>2014-08-18T09:40:53Z</time>
      </trkpt>
      <trkpt lat="44.9719" lon="1.01335">
        <ele>146</ele>
        <time>2014-08-18T09:40:56Z</time>
      </trkpt>
      <trkpt lat="44.97184" lon="1.01328">
        <ele>147</ele>
        <time>2014-08-18T09:40:59Z</time>
      </trkpt>
      <trkpt lat="44.97179" lon="1.0132">
        <ele>148</ele>
        <time>2014-08-18T09:41:02Z</time>
      </trkpt>
      <trkpt lat="44.97172" lon="1.01312">
        <ele>149</ele>
        <time>2014-08-18T09:41:05Z</time>
      </trkpt>
      <trkpt lat="44.97166" lon="1.01304">
        <ele>150</ele>
        <time>2014-08-18T09:41:08Z</time>
      </trkpt>
      <trkpt lat="44.97159" lon="1.01294">
        <ele>151</ele>
        <time>2014-08-18T09:41:11Z</time>
      </trkpt>
      <trkpt lat="44.97158" lon="1.01288">
        <ele>152</ele>
        <time>2014-08-18T09:41:13Z</time>
      </trkpt>
      <trkpt lat="44.97153" lon="1.01278">
        <ele>153</ele>
        <time>2014-08-18T09:41:16Z</time>
      </trkpt>
      <trkpt lat="44.9715" lon="1.0127">
        <ele>153</ele>
        <time>2014-08-18T09:41:18Z</time>
      </trkpt>
      <trkpt lat="44.97142" lon="1.01261">
        <ele>155</ele>
        <time>2014-08-18T09:41:21Z</time>
      </trkpt>
      <trkpt lat="44.97134" lon="1.01255">
        <ele>156</ele>
        <time>2014-08-18T09:41:24Z</time>
      </trkpt>
      <trkpt lat="44.97129" lon="1.01251">
        <ele>157</ele>
        <time>2014-08-18T09:41:26Z</time>
      </trkpt>
      <trkpt lat="44.9712" lon="1.01246">
        <ele>157</ele>
        <time>2014-08-18T09:41:29Z</time>
      </trkpt>
      <trkpt lat="44.97115" lon="1.01241">
        <ele>157</ele>
        <time>2014-08-18T09:41:31Z</time>
      </trkpt>
      <trkpt lat="44.97112" lon="1.01235">
        <ele>158</ele>
        <time>2014-08-18T09:41:33Z</time>
      </trkpt>
      <trkpt lat="44.97108" lon="1.01223">
        <ele>158</ele>
        <time>2014-08-18T09:41:36Z</time>
      </trkpt>
      <trkpt lat="44.971" lon="1.01216">
        <ele>157</ele>
        <time>2014-08-18T09:41:39Z</time>
      </trkpt>
      <trkpt lat="44.97093" lon="1.01219">
        <ele>157</ele>
        <time>2014-08-18T09:41:41Z</time>
      </trkpt>
      <trkpt lat="44.97084" lon="1.01223">
        <ele>157</ele>
        <time>2014-08-18T09:41:43Z</time>
      </trkpt>
      <trkpt lat="44.97076" lon="1.01227">
        <ele>157</ele>
        <time>2014-08-18T09:41:45Z</time>
      </trkpt>
      <trkpt lat="44.97068" lon="1.01232">
        <ele>157</ele>
        <time>2014-08-18T09:41:47Z</time>
      </trkpt>
      <trkpt lat="44.97058" lon="1.01237">
        <ele>157</ele>
        <time>2014-08-18T09:41:49Z</time>
      </trkpt>
      <trkpt lat="44.97049" lon="1.01241">
        <ele>157</ele>
        <time>2014-08-18T09:41:51Z</time>
      </trkpt>
      <trkpt lat="44.97039" lon="1.01248">
        <ele>158</ele>
        <time>2014-08-18T09:41:53Z</time>
      </trkpt>
      <trkpt lat="44.97031" lon="1.01255">
        <ele>158</ele>
        <time>2014-08-18T09:41:55Z</time>
      </trkpt>
      <trkpt lat="44.97022" lon="1.01261">
        <ele>159</ele>
        <time>2014-08-18T09:41:57Z</time>
      </trkpt>
      <trkpt lat="44.9701" lon="1.01269">
        <ele>160</ele>
        <time>2014-08-18T09:42:00Z</time>
      </trkpt>
      <trkpt lat="44.97003" lon="1.01273">
        <ele>160</ele>
        <time>2014-08-18T09:42:02Z</time>
      </trkpt>
      <trkpt lat="44.96993" lon="1.01279">
        <ele>161</ele>
        <time>2014-08-18T09:42:05Z</time>
      </trkpt>
      <trkpt lat="44.96981" lon="1.01286">
        <ele>162</ele>
        <time>2014-08-18T09:42:08Z</time>
      </trkpt>
      <trkpt lat="44.96971" lon="1.01291">
        <ele>163</ele>
        <time>2014-08-18T09:42:11Z</time>
      </trkpt>
      <trkpt lat="44.96961" lon="1.01296">
        <ele>164</ele>
        <time>2014-08-18T09:42:14Z</time>
      </trkpt>
      <trkpt lat="44.96953" lon="1.01298">
        <ele>164</ele>
        <time>2014-08-18T09:42:16Z</time>
      </trkpt>
      <trkpt lat="44.96941" lon="1.01301">
        <ele>165</ele>
        <time>2014-08-18T09:42:19Z</time>
      </trkpt>
      <trkpt lat="44.96934" lon="1.01306">
        <ele>166</ele>
        <time>2014-08-18T09:42:21Z</time>
      </trkpt>
      <trkpt lat="44.96927" lon="1.0131">
        <ele>166</ele>
        <time>2014-08-18T09:42:23Z</time>
      </trkpt>
      <trkpt lat="44.96918" lon="1.01315">
        <ele>167</ele>
        <time>2014-08-18T09:42:25Z</time>
      </trkpt>
      <trkpt lat="44.9691" lon="1.01321">
        <ele>167</ele>
        <time>2014-08-18T09:42:27Z</time>
      </trkpt>
      <trkpt lat="44.96904" lon="1.01326">
        <ele>168</ele>
        <time>2014-08-18T09:42:29Z</time>
      </trkpt>
      <trkpt lat="44.96896" lon="1.01332">
        <ele>168</ele>
        <time>2014-08-18T09:42:31Z</time>
      </trkpt>
      <trkpt lat="44.96888" lon="1.01338">
        <ele>169</ele>
        <time>2014-08-18T09:42:33Z</time>
      </trkpt>
      <trkpt lat="44.96879" lon="1.01343">
        <ele>169</ele>
        <time>2014-08-18T09:42:35Z</time>
      </trkpt>
      <trkpt lat="44.9687" lon="1.01348">
        <ele>170</ele>
        <time>2014-08-18T09:42:37Z</time>
      </trkpt>
      <trkpt lat="44.96863" lon="1.01353">
        <ele>170</ele>
        <time>2014-08-18T09:42:39Z</time>
      </trkpt>
      <trkpt lat="44.96853" lon="1.01359">
        <ele>171</ele>
        <time>2014-08-18T09:42:42Z</time>
      </trkpt>
      <trkpt lat="44.96845" lon="1.01363">
        <ele>171</ele>
        <time>2014-08-18T09:42:44Z</time>
      </trkpt>
      <trkpt lat="44.96837" lon="1.01367">
        <ele>171</ele>
        <time>2014-08-18T09:42:46Z</time>
      </trkpt>
      <trkpt lat="44.9683" lon="1.0137">
        <ele>171</ele>
        <time>2014-08-18T09:42:48Z</time>
      </trkpt>
      <trkpt lat="44.96822" lon="1.01373">
        <ele>172</ele>
        <time>2014-08-18T09:42:50Z</time>
      </trkpt>
      <trkpt lat="44.96813" lon="1.01377">
        <ele>172</ele>
        <time>2014-08-18T09:42:52Z</time>
      </trkpt>
      <trkpt lat="44.96804" lon="1.01379">
        <ele>172</ele>
        <time>2014-08-18T09:42:54Z</time>
      </trkpt>
      <trkpt lat="44.96795" lon="1.01381">
        <ele>172</ele>
        <time>2014-08-18T09:42:56Z</time>
      </trkpt>
      <trkpt lat="44.96785" lon="1.01384">
        <ele>173</ele>
        <time>2014-08-18T09:42:58Z</time>
      </trkpt>
      <trkpt lat="44.96773" lon="1.01387">
        <ele>173</ele>
        <time>2014-08-18T09:43:00Z</time>
      </trkpt>
      <trkpt lat="44.96761" lon="1.01389">
        <ele>173</ele>
        <time>2014-08-18T09:43:02Z</time>
      </trkpt>
      <trkpt lat="44.96749" lon="1.01391">
        <ele>173</ele>
        <time>2014-08-18T09:43:04Z</time>
      </trkpt>
      <trkpt lat="44.96731" lon="1.01394">
        <ele>173</ele>
        <time>2014-08-18T09:43:07Z</time>
      </trkpt>
      <trkpt lat="44.96719" lon="1.01395">
        <ele>173</ele>
        <time>2014-08-18T09:43:09Z</time>
      </trkpt>
      <trkpt lat="44.96707" lon="1.01396">
        <ele>173</ele>
        <time>2014-08-18T09:43:11Z</time>
      </trkpt>
      <trkpt lat="44.96689" lon="1.01398">
        <ele>173</ele>
        <time>2014-08-18T09:43:14Z</time>
      </trkpt>
      <trkpt lat="44.96678" lon="1.01405">
        <ele>173</ele>
        <time>2014-08-18T09:43:16Z</time>
      </trkpt>
      <trkpt lat="44.9667" lon="1.01414">
        <ele>173</ele>
        <time>2014-08-18T09:43:18Z</time>
      </trkpt>
      <trkpt lat="44.96661" lon="1.01423">
        <ele>173</ele>
        <time>2014-08-18T09:43:20Z</time>
      </trkpt>
      <trkpt lat="44.96648" lon="1.01438">
        <ele>173</ele>
        <time>2014-08-18T09:43:23Z</time>
      </trkpt>
      <trkpt lat="44.96638" lon="1.01448">
        <ele>173</ele>
        <time>2014-08-18T09:43:25Z</time>
      </trkpt>
      <trkpt lat="44.96629" lon="1.01459">
        <ele>173</ele>
        <time>2014-08-18T09:43:27Z</time>
      </trkpt>
      <trkpt lat="44.96621" lon="1.0147">
        <ele>172</ele>
        <time>2014-08-18T09:43:29Z</time>
      </trkpt>
      <trkpt lat="44.96606" lon="1.01485">
        <ele>171</ele>
        <time>2014-08-18T09:43:32Z</time>
      </trkpt>
      <trkpt lat="44.96595" lon="1.01495">
        <ele>171</ele>
        <time>2014-08-18T09:43:34Z</time>
      </trkpt>
      <trkpt lat="44.96576" lon="1.01506">
        <ele>170</ele>
        <time>2014-08-18T09:43:37Z</time>
      </trkpt>
      <trkpt lat="44.96564" lon="1.01515">
        <ele>170</ele>
        <time>2014-08-18T09:43:39Z</time>
      </trkpt>
      <trkpt lat="44.96555" lon="1.01529">
        <ele>170</ele>
        <time>2014-08-18T09:43:41Z</time>
      </trkpt>
      <trkpt lat="44.96547" lon="1.01544">
        <ele>170</ele>
        <time>2014-08-18T09:43:43Z</time>
      </trkpt>
      <trkpt lat="44.96537" lon="1.01559">
        <ele>170</ele>
        <time>2014-08-18T09:43:45Z</time>
      </trkpt>
      <trkpt lat="44.96529" lon="1.01575">
        <ele>169</ele>
        <time>2014-08-18T09:43:47Z</time>
      </trkpt>
      <trkpt lat="44.96519" lon="1.01589">
        <ele>168</ele>
        <time>2014-08-18T09:43:49Z</time>
      </trkpt>
      <trkpt lat="44.96509" lon="1.016">
        <ele>168</ele>
        <time>2014-08-18T09:43:51Z</time>
      </trkpt>
      <trkpt lat="44.96497" lon="1.01606">
        <ele>167</ele>
        <time>2014-08-18T09:43:53Z</time>
      </trkpt>
      <trkpt lat="44.96478" lon="1.01618">
        <ele>168</ele>
        <time>2014-08-18T09:43:56Z</time>
      </trkpt>
      <trkpt lat="44.96466" lon="1.01625">
        <ele>169</ele>
        <time>2014-08-18T09:43:58Z</time>
      </trkpt>
      <trkpt lat="44.96457" lon="1.0163">
        <ele>171</ele>
        <time>2014-08-18T09:44:00Z</time>
      </trkpt>
      <trkpt lat="44.96444" lon="1.01636">
        <ele>172</ele>
        <time>2014-08-18T09:44:03Z</time>
      </trkpt>
      <trkpt lat="44.96438" lon="1.0164">
        <ele>172</ele>
        <time>2014-08-18T09:44:05Z</time>
      </trkpt>
      <trkpt lat="44.96434" lon="1.01649">
        <ele>172</ele>
        <time>2014-08-18T09:44:07Z</time>
      </trkpt>
      <trkpt lat="44.96429" lon="1.01657">
        <ele>172</ele>
        <time>2014-08-18T09:44:09Z</time>
      </trkpt>
      <trkpt lat="44.96424" lon="1.01664">
        <ele>172</ele>
        <time>2014-08-18T09:44:11Z</time>
      </trkpt>
      <trkpt lat="44.96419" lon="1.01673">
        <ele>172</ele>
        <time>2014-08-18T09:44:13Z</time>
      </trkpt>
      <trkpt lat="44.96414" lon="1.01684">
        <ele>172</ele>
        <time>2014-08-18T09:44:15Z</time>
      </trkpt>
      <trkpt lat="44.96404" lon="1.017">
        <ele>172</ele>
        <time>2014-08-18T09:44:18Z</time>
      </trkpt>
      <trkpt lat="44.96398" lon="1.01712">
        <ele>171</ele>
        <time>2014-08-18T09:44:20Z</time>
      </trkpt>
      <trkpt lat="44.96391" lon="1.01723">
        <ele>171</ele>
        <time>2014-08-18T09:44:22Z</time>
      </trkpt>
      <trkpt lat="44.96378" lon="1.01737">
        <ele>171</ele>
        <time>2014-08-18T09:44:25Z</time>
      </trkpt>
      <trkpt lat="44.9637" lon="1.01748">
        <ele>170</ele>
        <time>2014-08-18T09:44:27Z</time>
      </trkpt>
      <trkpt lat="44.9636" lon="1.01757">
        <ele>170</ele>
        <time>2014-08-18T09:44:29Z</time>
      </trkpt>
      <trkpt lat="44.96349" lon="1.01767">
        <ele>170</ele>
        <time>2014-08-18T09:44:31Z</time>
      </trkpt>
      <trkpt lat="44.96333" lon="1.01784">
        <ele>169</ele>
        <time>2014-08-18T09:44:34Z</time>
      </trkpt>
      <trkpt lat="44.96321" lon="1.01795">
        <ele>169</ele>
        <time>2014-08-18T09:44:36Z</time>
      </trkpt>
      <trkpt lat="44.96307" lon="1.01806">
        <ele>168</ele>
        <time>2014-08-18T09:44:38Z</time>
      </trkpt>
      <trkpt lat="44.96286" lon="1.01824">
        <ele>167</ele>
        <time>2014-08-18T09:44:41Z</time>
      </trkpt>
      <trkpt lat="44.96272" lon="1.01839">
        <ele>166</ele>
        <time>2014-08-18T09:44:43Z</time>
      </trkpt>
      <trkpt lat="44.96257" lon="1.01856">
        <ele>165</ele>
        <time>2014-08-18T09:44:45Z</time>
      </trkpt>
      <trkpt lat="44.96242" lon="1.01872">
        <ele>164</ele>
        <time>2014-08-18T09:44:47Z</time>
      </trkpt>
      <trkpt lat="44.96226" lon="1.01885">
        <ele>163</ele>
        <time>2014-08-18T09:44:49Z</time>
      </trkpt>
      <trkpt lat="44.96212" lon="1.01898">
        <ele>162</ele>
        <time>2014-08-18T09:44:51Z</time>
      </trkpt>
      <trkpt lat="44.9619" lon="1.019">
        <ele>161</ele>
        <time>2014-08-18T09:44:54Z</time>
      </trkpt>
      <trkpt lat="44.96176" lon="1.01899">
        <ele>160</ele>
        <time>2014-08-18T09:44:56Z</time>
      </trkpt>
      <trkpt lat="44.96162" lon="1.01901">
        <ele>160</ele>
        <time>2014-08-18T09:44:58Z</time>
      </trkpt>
      <trkpt lat="44.96147" lon="1.01904">
        <ele>159</ele>
        <time>2014-08-18T09:45:00Z</time>
      </trkpt>
      <trkpt lat="44.96133" lon="1.01912">
        <ele>158</ele>
        <time>2014-08-18T09:45:02Z</time>
      </trkpt>
      <trkpt lat="44.96115" lon="1.01933">
        <ele>158</ele>
        <time>2014-08-18T09:45:05Z</time>
      </trkpt>
      <trkpt lat="44.96106" lon="1.01946">
        <ele>158</ele>
        <time>2014-08-18T09:45:07Z</time>
      </trkpt>
      <trkpt lat="44.96097" lon="1.01959">
        <ele>158</ele>
        <time>2014-08-18T09:45:09Z</time>
      </trkpt>
      <trkpt lat="44.96088" lon="1.01968">
        <ele>158</ele>
        <time>2014-08-18T09:45:11Z</time>
      </trkpt>
      <trkpt lat="44.96078" lon="1.01976">
        <ele>158</ele>
        <time>2014-08-18T09:45:13Z</time>
      </trkpt>
      <trkpt lat="44.96067" lon="1.01983">
        <ele>158</ele>
        <time>2014-08-18T09:45:15Z</time>
      </trkpt>
      <trkpt lat="44.96056" lon="1.01992">
        <ele>157</ele>
        <time>2014-08-18T09:45:17Z</time>
      </trkpt>
      <trkpt lat="44.96046" lon="1.02003">
        <ele>157</ele>
        <time>2014-08-18T09:45:19Z</time>
      </trkpt>
      <trkpt lat="44.96035" lon="1.02014">
        <ele>156</ele>
        <time>2014-08-18T09:45:21Z</time>
      </trkpt>
      <trkpt lat="44.96023" lon="1.02026">
        <ele>156</ele>
        <time>2014-08-18T09:45:23Z</time>
      </trkpt>
      <trkpt lat="44.96009" lon="1.02037">
        <ele>155</ele>
        <time>2014-08-18T09:45:25Z</time>
      </trkpt>
      <trkpt lat="44.95995" lon="1.02048">
        <ele>153</ele>
        <time>2014-08-18T09:45:27Z</time>
      </trkpt>
      <trkpt lat="44.95976" lon="1.0207">
        <ele>152</ele>
        <time>2014-08-18T09:45:30Z</time>
      </trkpt>
      <trkpt lat="44.95961" lon="1.02106">
        <ele>149</ele>
        <time>2014-08-18T09:45:33Z</time>
      </trkpt>
      <trkpt lat="44.95943" lon="1.02149">
        <ele>145</ele>
        <time>2014-08-18T09:45:36Z</time>
      </trkpt>
      <trkpt lat="44.95923" lon="1.02189">
        <ele>140</ele>
        <time>2014-08-18T09:45:39Z</time>
      </trkpt>
      <trkpt lat="44.95909" lon="1.02214">
        <ele>137</ele>
        <time>2014-08-18T09:45:41Z</time>
      </trkpt>
      <trkpt lat="44.95894" lon="1.02237">
        <ele>134</ele>
        <time>2014-08-18T09:45:43Z</time>
      </trkpt>
      <trkpt lat="44.95874" lon="1.02278">
        <ele>130</ele>
        <time>2014-08-18T09:45:46Z</time>
      </trkpt>
      <trkpt lat="44.95862" lon="1.023">
        <ele>127</ele>
        <time>2014-08-18T09:45:48Z</time>
      </trkpt>
      <trkpt lat="44.95848" lon="1.02316">
        <ele>125</ele>
        <time>2014-08-18T09:45:50Z</time>
      </trkpt>
      <trkpt lat="44.95831" lon="1.0233">
        <ele>123</ele>
        <time>2014-08-18T09:45:52Z</time>
      </trkpt>
      <trkpt lat="44.95805" lon="1.02347">
        <ele>121</ele>
        <time>2014-08-18T09:45:55Z</time>
      </trkpt>
      <trkpt lat="44.95782" lon="1.0235">
        <ele>118</ele>
        <time>2014-08-18T09:45:58Z</time>
      </trkpt>
      <trkpt lat="44.9576" lon="1.02339">
        <ele>115</ele>
        <time>2014-08-18T09:46:01Z</time>
      </trkpt>
      <trkpt lat="44.95747" lon="1.02324">
        <ele>113</ele>
        <time>2014-08-18T09:46:03Z</time>
      </trkpt>
      <trkpt lat="44.9573" lon="1.0231">
        <ele>111</ele>
        <time>2014-08-18T09:46:05Z</time>
      </trkpt>
      <trkpt lat="44.9571" lon="1.02298">
        <ele>109</ele>
        <time>2014-08-18T09:46:07Z</time>
      </trkpt>
      <trkpt lat="44.95689" lon="1.02287">
        <ele>106</ele>
        <time>2014-08-18T09:46:09Z</time>
      </trkpt>
      <trkpt lat="44.95671" lon="1.02273">
        <ele>104</ele>
        <time>2014-08-18T09:46:11Z</time>
      </trkpt>
      <trkpt lat="44.95654" lon="1.02256">
        <ele>102</ele>
        <time>2014-08-18T09:46:13Z</time>
      </trkpt>
      <trkpt lat="44.95638" lon="1.02241">
        <ele>99</ele>
        <time>2014-08-18T09:46:15Z</time>
      </trkpt>
      <trkpt lat="44.95623" lon="1.02238">
        <ele>97</ele>
        <time>2014-08-18T09:46:17Z</time>
      </trkpt>
      <trkpt lat="44.95591" lon="1.02244">
        <ele>94</ele>
        <time>2014-08-18T09:46:20Z</time>
      </trkpt>
      <trkpt lat="44.95554" lon="1.0225">
        <ele>91</ele>
        <time>2014-08-18T09:46:23Z</time>
      </trkpt>
      <trkpt lat="44.9552" lon="1.02257">
        <ele>88</ele>
        <time>2014-08-18T09:46:26Z</time>
      </trkpt>
      <trkpt lat="44.95489" lon="1.02262">
        <ele>86</ele>
        <time>2014-08-18T09:46:29Z</time>
      </trkpt>
      <trkpt lat="44.9547" lon="1.02266">
        <ele>85</ele>
        <time>2014-08-18T09:46:31Z</time>
      </trkpt>
      <trkpt lat="44.95446" lon="1.02271">
        <ele>82</ele>
        <time>2014-08-18T09:46:34Z</time>
      </trkpt>
      <trkpt lat="44.95431" lon="1.02275">
        <ele>81</ele>
        <time>2014-08-18T09:46:36Z</time>
      </trkpt>
      <trkpt lat="44.95409" lon="1.02281">
        <ele>79</ele>
        <time>2014-08-18T09:46:39Z</time>
      </trkpt>
      <trkpt lat="44.95388" lon="1.02296">
        <ele>77</ele>
        <time>2014-08-18T09:46:42Z</time>
      </trkpt>
      <trkpt lat="44.95375" lon="1.02301">
        <ele>76</ele>
        <time>2014-08-18T09:46:44Z</time>
      </trkpt>
      <trkpt lat="44.95357" lon="1.02289">
        <ele>73</ele>
        <time>2014-08-18T09:46:47Z</time>
      </trkpt>
      <trkpt lat="44.95348" lon="1.02277">
        <ele>71</ele>
        <time>2014-08-18T09:46:49Z</time>
      </trkpt>
      <trkpt lat="44.95345" lon="1.02251">
        <ele>70</ele>
        <time>2014-08-18T09:46:52Z</time>
      </trkpt>
      <trkpt lat="44.9535" lon="1.02228">
        <ele>68</ele>
        <time>2014-08-18T09:46:55Z</time>
      </trkpt>
      <trkpt lat="44.95355" lon="1.02209">
        <ele>68</ele>
        <time>2014-08-18T09:46:58Z</time>
      </trkpt>
      <trkpt lat="44.95359" lon="1.02197">
        <ele>68</ele>
        <time>2014-08-18T09:47:00Z</time>
      </trkpt>
      <trkpt lat="44.95369" lon="1.02182">
        <ele>68</ele>
        <time>2014-08-18T09:47:03Z</time>
      </trkpt>
      <trkpt lat="44.95375" lon="1.02166">
        <ele>68</ele>
        <time>2014-08-18T09:47:06Z</time>
      </trkpt>
      <trkpt lat="44.95376" lon="1.02143">
        <ele>67</ele>
        <time>2014-08-18T09:47:09Z</time>
      </trkpt>
      <trkpt lat="44.95376" lon="1.02119">
        <ele>67</ele>
        <time>2014-08-18T09:47:12Z</time>
      </trkpt>
      <trkpt lat="44.95376" lon="1.02093">
        <ele>66</ele>
        <time>2014-08-18T09:47:15Z</time>
      </trkpt>
      <trkpt lat="44.95375" lon="1.02065">
        <ele>66</ele>
        <time>2014-08-18T09:47:18Z</time>
      </trkpt>
      <trkpt lat="44.95373" lon="1.02047">
        <ele>65</ele>
        <time>2014-08-18T09:47:20Z</time>
      </trkpt>
      <trkpt lat="44.95364" lon="1.02033">
        <ele>63</ele>
        <time>2014-08-18T09:47:23Z</time>
      </trkpt>
      <trkpt lat="44.95354" lon="1.02035">
        <ele>62</ele>
        <time>2014-08-18T09:47:25Z</time>
      </trkpt>
      <trkpt lat="44.95347" lon="1.02039">
        <ele>61</ele>
        <time>2014-08-18T09:47:27Z</time>
      </trkpt>
      <trkpt lat="44.95339" lon="1.02043">
        <ele>60</ele>
        <time>2014-08-18T09:47:29Z</time>
      </trkpt>
      <trkpt lat="44.95324" lon="1.02048">
        <ele>59</ele>
        <time>2014-08-18T09:47:32Z</time>
      </trkpt>
      <trkpt lat="44.95313" lon="1.02047">
        <ele>59</ele>
        <time>2014-08-18T09:47:34Z</time>
      </trkpt>
      <trkpt lat="44.95299" lon="1.02043">
        <ele>58</ele>
        <time>2014-08-18T09:47:36Z</time>
      </trkpt>
      <trkpt lat="44.95277" lon="1.02036">
        <ele>57</ele>
        <time>2014-08-18T09:47:39Z</time>
      </trkpt>
      <trkpt lat="44.95261" lon="1.02032">
        <ele>56</ele>
        <time>2014-08-18T09:47:41Z</time>
      </trkpt>
      <trkpt lat="44.95245" lon="1.02027">
        <ele>55</ele>
        <time>2014-08-18T09:47:43Z</time>
      </trkpt>
      <trkpt lat="44.95228" lon="1.02023">
        <ele>54</ele>
        <time>2014-08-18T09:47:45Z</time>
      </trkpt>
      <trkpt lat="44.95204" lon="1.02007">
        <ele>52</ele>
        <time>2014-08-18T09:47:48Z</time>
      </trkpt>
      <trkpt lat="44.95197" lon="1.01984">
        <ele>51</ele>
        <time>2014-08-18T09:47:50Z</time>
      </trkpt>
      <trkpt lat="44.95194" lon="1.0196">
        <ele>50</ele>
        <time>2014-08-18T09:47:52Z</time>
      </trkpt>
      <trkpt lat="44.95192" lon="1.01925">
        <ele>49</ele>
        <time>2014-08-18T09:47:55Z</time>
      </trkpt>
      <trkpt lat="44.95193" lon="1.01902">
        <ele>48</ele>
        <time>2014-08-18T09:47:57Z</time>
      </trkpt>
      <trkpt lat="44.95195" lon="1.01879">
        <ele>47</ele>
        <time>2014-08-18T09:47:59Z</time>
      </trkpt>
      <trkpt lat="44.95197" lon="1.01856">
        <ele>47</ele>
        <time>2014-08-18T09:48:01Z</time>
      </trkpt>
      <trkpt lat="44.95199" lon="1.01832">
        <ele>46</ele>
        <time>2014-08-18T09:48:03Z</time>
      </trkpt>
      <trkpt lat="44.95201" lon="1.0181">
        <ele>45</ele>
        <time>2014-08-18T09:48:05Z</time>
      </trkpt>
      <trkpt lat="44.95204" lon="1.01786">
        <ele>45</ele>
        <time>2014-08-18T09:48:07Z</time>
      </trkpt>
      <trkpt lat="44.95212" lon="1.0175">
        <ele>44</ele>
        <time>2014-08-18T09:48:10Z</time>
      </trkpt>
      <trkpt lat="44.95214" lon="1.01725">
        <ele>42</ele>
        <time>2014-08-18T09:48:12Z</time>
      </trkpt>
      <trkpt lat="44.95214" lon="1.01697">
        <ele>41</ele>
        <time>2014-08-18T09:48:14Z</time>
      </trkpt>
      <trkpt lat="44.95216" lon="1.01669">
        <ele>40</ele>
        <time>2014-08-18T09:48:16Z</time>
      </trkpt>
      <trkpt lat="44.95221" lon="1.0164">
        <ele>38</ele>
        <time>2014-08-18T09:48:18Z</time>
      </trkpt>
      <trkpt lat="44.95228" lon="1.01612">
        <ele>37</ele>
        <time>2014-08-18T09:48:20Z</time>
      </trkpt>
      <trkpt lat="44.9524" lon="1.01573">
        <ele>37</ele>
        <time>2014-08-18T09:48:23Z</time>
      </trkpt>
      <trkpt lat="44.95248" lon="1.01549">
        <ele>36</ele>
        <time>2014-08-18T09:48:25Z</time>
      </trkpt>
      <trkpt lat="44.95255" lon="1.01529">
        <ele>36</ele>
        <time>2014-08-18T09:48:27Z</time>
      </trkpt>
      <trkpt lat="44.95261" lon="1.01499">
        <ele>36</ele>
        <time>2014-08-18T09:48:30Z</time>
      </trkpt>
      <trkpt lat="44.95266" lon="1.01479">
        <ele>36</ele>
        <time>2014-08-18T09:48:32Z</time>
      </trkpt>
      <trkpt lat="44.95269" lon="1.01456">
        <ele>36</ele>
        <time>2014-08-18T09:48:34Z</time>
      </trkpt>
      <trkpt lat="44.95274" lon="1.01433">
        <ele>36</ele>
        <time>2014-08-18T09:48:36Z</time>
      </trkpt>
      <trkpt lat="44.95279" lon="1.0141">
        <ele>36</ele>
        <time>2014-08-18T09:48:38Z</time>
      </trkpt>
      <trkpt lat="44.95284" lon="1.01388">
        <ele>36</ele>
        <time>2014-08-18T09:48:40Z</time>
      </trkpt>
      <trkpt lat="44.9529" lon="1.01356">
        <ele>36</ele>
        <time>2014-08-18T09:48:43Z</time>
      </trkpt>
      <trkpt lat="44.95295" lon="1.01336">
        <ele>36</ele>
        <time>2014-08-18T09:48:45Z</time>
      </trkpt>
      <trkpt lat="44.95303" lon="1.01303">
        <ele>35</ele>
        <time>2014-08-18T09:48:48Z</time>
      </trkpt>
      <trkpt lat="44.95306" lon="1.01282">
        <ele>35</ele>
        <time>2014-08-18T09:48:50Z</time>
      </trkpt>
      <trkpt lat="44.95308" lon="1.01253">
        <ele>35</ele>
        <time>2014-08-18T09:48:53Z</time>
      </trkpt>
      <trkpt lat="44.95306" lon="1.01234">
        <ele>35</ele>
        <time>2014-08-18T09:48:55Z</time>
      </trkpt>
      <trkpt lat="44.95306" lon="1.01216">
        <ele>35</ele>
        <time>2014-08-18T09:48:57Z</time>
      </trkpt>
      <trkpt lat="44.95307" lon="1.01186">
        <ele>35</ele>
        <time>2014-08-18T09:49:00Z</time>
      </trkpt>
      <trkpt lat="44.95308" lon="1.01167">
        <ele>34</ele>
        <time>2014-08-18T09:49:02Z</time>
      </trkpt>
      <trkpt lat="44.95308" lon="1.01138">
        <ele>34</ele>
        <time>2014-08-18T09:49:05Z</time>
      </trkpt>
      <trkpt lat="44.9531" lon="1.01108">
        <ele>34</ele>
        <time>2014-08-18T09:49:08Z</time>
      </trkpt>
      <trkpt lat="44.95311" lon="1.01087">
        <ele>33</ele>
        <time>2014-08-18T09:49:10Z</time>
      </trkpt>
      <trkpt lat="44.95313" lon="1.01055">
        <ele>33</ele>
        <time>2014-08-18T09:49:13Z</time>
      </trkpt>
      <trkpt lat="44.95315" lon="1.01028">
        <ele>33</ele>
        <time>2014-08-18T09:49:16Z</time>
      </trkpt>
      <trkpt lat="44.95317" lon="1.01018">
        <ele>33</ele>
        <time>2014-08-18T09:49:18Z</time>
      </trkpt>
      <trkpt lat="44.95319" lon="1.01011">
        <ele>33</ele>
        <time>2014-08-18T09:49:21Z</time>
      </trkpt>
      <trkpt lat="44.95319" lon="1.01008">
        <ele>33</ele>
        <time>2014-08-18T09:49:24Z</time>
      </trkpt>
      <trkpt lat="44.95319" lon="1.01007">
        <ele>33</ele>
        <time>2014-08-18T09:49:26Z</time>
      </trkpt>
      <trkpt lat="44.95321" lon="1.01005">
        <ele>33</ele>
        <time>2014-08-18T09:49:29Z</time>
      </trkpt>
      <trkpt lat="44.95316" lon="1.00992">
        <ele>33</ele>
        <time>2014-08-18T09:49:32Z</time>
      </trkpt>
      <trkpt lat="44.95316" lon="1.00986">
        <ele>33</ele>
        <time>2014-08-18T09:49:34Z</time>
      </trkpt>
      <trkpt lat="44.95317" lon="1.00976">
        <ele>33</ele>
        <time>2014-08-18T09:49:36Z</time>
      </trkpt>
      <trkpt lat="44.95322" lon="1.00957">
        <ele>33</ele>
        <time>2014-08-18T09:49:39Z</time>
      </trkpt>
      <trkpt lat="44.95329" lon="1.00935">
        <ele>33</ele>
        <time>2014-08-18T09:49:42Z</time>
      </trkpt>
      <trkpt lat="44.95333" lon="1.00918">
        <ele>33</ele>
        <time>2014-08-18T09:49:44Z</time>
      </trkpt>
      <trkpt lat="44.95337" lon="1.00898">
        <ele>32</ele>
        <time>2014-08-18T09:49:46Z</time>
      </trkpt>
      <trkpt lat="44.95338" lon="1.00866">
        <ele>32</ele>
        <time>2014-08-18T09:49:49Z</time>
      </trkpt>
      <trkpt lat="44.95336" lon="1.00844">
        <ele>32</ele>
        <time>2014-08-18T09:49:51Z</time>
      </trkpt>
      <trkpt lat="44.95334" lon="1.00823">
        <ele>32</ele>
        <time>2014-08-18T09:49:53Z</time>
      </trkpt>
      <trkpt lat="44.95331" lon="1.00802">
        <ele>31</ele>
        <time>2014-08-18T09:49:55Z</time>
      </trkpt>
      <trkpt lat="44.95329" lon="1.00782">
        <ele>31</ele>
        <time>2014-08-18T09:49:57Z</time>
      </trkpt>
      <trkpt lat="44.95328" lon="1.00763">
        <ele>31</ele>
        <time>2014-08-18T09:49:59Z</time>
      </trkpt>
      <trkpt lat="44.95328" lon="1.00735">
        <ele>31</ele>
        <time>2014-08-18T09:50:02Z</time>
      </trkpt>
      <trkpt lat="44.9533" lon="1.00708">
        <ele>30</ele>
        <time>2014-08-18T09:50:05Z</time>
      </trkpt>
      <trkpt lat="44.95332" lon="1.00691">
        <ele>30</ele>
        <time>2014-08-18T09:50:07Z</time>
      </trkpt>
      <trkpt lat="44.95335" lon="1.00676">
        <ele>30</ele>
        <time>2014-08-18T09:50:09Z</time>
      </trkpt>
      <trkpt lat="44.95338" lon="1.00662">
        <ele>30</ele>
        <time>2014-08-18T09:50:11Z</time>
      </trkpt>
      <trkpt lat="44.9534" lon="1.00649">
        <ele>30</ele>
        <time>2014-08-18T09:50:13Z</time>
      </trkpt>
      <trkpt lat="44.95343" lon="1.00637">
        <ele>30</ele>
        <time>2014-08-18T09:50:15Z</time>
      </trkpt>
      <trkpt lat="44.95345" lon="1.0063">
        <ele>30</ele>
        <time>2014-08-18T09:50:17Z</time>
      </trkpt>
      <trkpt lat="44.95347" lon="1.00623">
        <ele>30</ele>
        <time>2014-08-18T09:50:20Z</time>
      </trkpt>
      <trkpt lat="44.95345" lon="1.00625">
        <ele>30</ele>
        <time>2014-08-18T09:50:22Z</time>
      </trkpt>
      <trkpt lat="44.95339" lon="1.00627">
        <ele>30</ele>
        <time>2014-08-18T09:50:25Z</time>
      </trkpt>
      <trkpt lat="44.95338" lon="1.00617">
        <ele>30</ele>
        <time>2014-08-18T09:50:27Z</time>
      </trkpt>
      <trkpt lat="44.95336" lon="1.00603">
        <ele>30</ele>
        <time>2014-08-18T09:50:29Z</time>
      </trkpt>
      <trkpt lat="44.9533" lon="1.00589">
        <ele>30</ele>
        <time>2014-08-18T09:50:31Z</time>
      </trkpt>
      <trkpt lat="44.95324" lon="1.00576">
        <ele>30</ele>
        <time>2014-08-18T09:50:33Z</time>
      </trkpt>
      <trkpt lat="44.95319" lon="1.00564">
        <ele>30</ele>
        <time>2014-08-18T09:50:35Z</time>
      </trkpt>
      <trkpt lat="44.95314" lon="1.00552">
        <ele>30</ele>
        <time>2014-08-18T09:50:37Z</time>
      </trkpt>
      <trkpt lat="44.95304" lon="1.00536">
        <ele>29</ele>
        <time>2014-08-18T09:50:40Z</time>
      </trkpt>
      <trkpt lat="44.95294" lon="1.00532">
        <ele>29</ele>
        <time>2014-08-18T09:50:42Z</time>
      </trkpt>
      <trkpt lat="44.95284" lon="1.00531">
        <ele>30</ele>
        <time>2014-08-18T09:50:44Z</time>
      </trkpt>
      <trkpt lat="44.95273" lon="1.00531">
        <ele>30</ele>
        <time>2014-08-18T09:50:46Z</time>
      </trkpt>
      <trkpt lat="44.95262" lon="1.00531">
        <ele>30</ele>
        <time>2014-08-18T09:50:48Z</time>
      </trkpt>
      <trkpt lat="44.95245" lon="1.00531">
        <ele>30</ele>
        <time>2014-08-18T09:50:51Z</time>
      </trkpt>
      <trkpt lat="44.95234" lon="1.00531">
        <ele>30</ele>
        <time>2014-08-18T09:50:53Z</time>
      </trkpt>
      <trkpt lat="44.95222" lon="1.0053">
        <ele>30</ele>
        <time>2014-08-18T09:50:55Z</time>
      </trkpt>
      <trkpt lat="44.95211" lon="1.00526">
        <ele>30</ele>
        <time>2014-08-18T09:50:57Z</time>
      </trkpt>
      <trkpt lat="44.95201" lon="1.00517">
        <ele>30</ele>
        <time>2014-08-18T09:51:00Z</time>
      </trkpt>
      <trkpt lat="44.95198" lon="1.00511">
        <ele>29</ele>
        <time>2014-08-18T09:51:03Z</time>
      </trkpt>
      <trkpt lat="44.95197" lon="1.00502">
        <ele>29</ele>
        <time>2014-08-18T09:51:06Z</time>
      </trkpt>
      <trkpt lat="44.95194" lon="1.00491">
        <ele>29</ele>
        <time>2014-08-18T09:51:09Z</time>
      </trkpt>
      <trkpt lat="44.95195" lon="1.00481">
        <ele>29</ele>
        <time>2014-08-18T09:51:11Z</time>
      </trkpt>
      <trkpt lat="44.95193" lon="1.0047">
        <ele>29</ele>
        <time>2014-08-18T09:51:13Z</time>
      </trkpt>
      <trkpt lat="44.95192" lon="1.00457">
        <ele>29</ele>
        <time>2014-08-18T09:51:15Z</time>
      </trkpt>
      <trkpt lat="44.95189" lon="1.00444">
        <ele>29</ele>
        <time>2014-08-18T09:51:17Z</time>
      </trkpt>
      <trkpt lat="44.95187" lon="1.00423">
        <ele>29</ele>
        <time>2014-08-18T09:51:20Z</time>
      </trkpt>
      <trkpt lat="44.95185" lon="1.00408">
        <ele>29</ele>
        <time>2014-08-18T09:51:22Z</time>
      </trkpt>
      <trkpt lat="44.95183" lon="1.00394">
        <ele>29</ele>
        <time>2014-08-18T09:51:24Z</time>
      </trkpt>
      <trkpt lat="44.95182" lon="1.00379">
        <ele>29</ele>
        <time>2014-08-18T09:51:26Z</time>
      </trkpt>
      <trkpt lat="44.95181" lon="1.00363">
        <ele>29</ele>
        <time>2014-08-18T09:51:28Z</time>
      </trkpt>
      <trkpt lat="44.95181" lon="1.00347">
        <ele>29</ele>
        <time>2014-08-18T09:51:30Z</time>
      </trkpt>
      <trkpt lat="44.9518" lon="1.00324">
        <ele>29</ele>
        <time>2014-08-18T09:51:33Z</time>
      </trkpt>
      <trkpt lat="44.9518" lon="1.00312">
        <ele>29</ele>
        <time>2014-08-18T09:51:35Z</time>
      </trkpt>
      <trkpt lat="44.95183" lon="1.00303">
        <ele>29</ele>
        <time>2014-08-18T09:51:37Z</time>
      </trkpt>
      <trkpt lat="44.95187" lon="1.00296">
        <ele>29</ele>
        <time>2014-08-18T09:51:39Z</time>
      </trkpt>
      <trkpt lat="44.95192" lon="1.00292">
        <ele>29</ele>
        <time>2014-08-18T09:51:41Z</time>
      </trkpt>
      <trkpt lat="44.95199" lon="1.00286">
        <ele>29</ele>
        <time>2014-08-18T09:51:44Z</time>
      </trkpt>
      <trkpt lat="44.95202" lon="1.00283">
        <ele>29</ele>
        <time>2014-08-18T09:51:46Z</time>
      </trkpt>
      <trkpt lat="44.95207" lon="1.00281">
        <ele>28</ele>
        <time>2014-08-18T09:51:49Z</time>
      </trkpt>
      <trkpt lat="44.9521" lon="1.00278">
        <ele>28</ele>
        <time>2014-08-18T09:51:51Z</time>
      </trkpt>
      <trkpt lat="44.95214" lon="1.00275">
        <ele>28</ele>
        <time>2014-08-18T09:51:53Z</time>
      </trkpt>
      <trkpt lat="44.95219" lon="1.00271">
        <ele>29</ele>
        <time>2014-08-18T09:51:55Z</time>
      </trkpt>
      <trkpt lat="44.95224" lon="1.00268">
        <ele>29</ele>
        <time>2014-08-18T09:51:57Z</time>
      </trkpt>
      <trkpt lat="44.95229" lon="1.00265">
        <ele>29</ele>
        <time>2014-08-18T09:51:59Z</time>
      </trkpt>
      <trkpt lat="44.95234" lon="1.00262">
        <ele>29</ele>
        <time>2014-08-18T09:52:01Z</time>
      </trkpt>
      <trkpt lat="44.95239" lon="1.00259">
        <ele>30</ele>
        <time>2014-08-18T09:52:04Z</time>
      </trkpt>
      <trkpt lat="44.95242" lon="1.00258">
        <ele>30</ele>
        <time>2014-08-18T09:52:06Z</time>
      </trkpt>
      <trkpt lat="44.95242" lon="1.00259">
        <ele>30</ele>
        <time>2014-08-18T09:52:08Z</time>
      </trkpt>
      <trkpt lat="44.95242" lon="1.00259">
        <ele>30</ele>
        <time>2014-08-18T09:52:10Z</time>
      </trkpt>
      <trkpt lat="44.95242" lon="1.00258">
        <ele>30</ele>
        <time>2014-08-18T09:52:13Z</time>
      </trkpt>
      <trkpt lat="44.95242" lon="1.00258">
        <ele>30</ele>
        <time>2014-08-18T09:52:15Z</time>
      </trkpt>
      <trkpt lat="44.95243" lon="1.00257">
        <ele>30</ele>
        <time>2014-08-18T09:52:18Z</time>
      </trkpt>
      <trkpt lat="44.95243" lon="1.00257">
        <ele>31</ele>
        <time>2014-08-18T09:52:20Z</time>
      </trkpt>
      <trkpt lat="44.95243" lon="1.00257">
        <ele>31</ele>
        <time>2014-08-18T09:52:23Z</time>
      </trkpt>
      <trkpt lat="44.95244" lon="1.00256">
        <ele>31</ele>
        <time>2014-08-18T09:52:25Z</time>
      </trkpt>
      <trkpt lat="44.95244" lon="1.00256">
        <ele>31</ele>
        <time>2014-08-18T09:52:28Z</time>
      </trkpt>
      <trkpt lat="44.95243" lon="1.00256">
        <ele>31</ele>
        <time>2014-08-18T09:52:30Z</time>
      </trkpt>
      <trkpt lat="44.95243" lon="1.00256">
        <ele>32</ele>
        <time>2014-08-18T09:52:33Z</time>
      </trkpt>
      <trkpt lat="44.95243" lon="1.00256">
        <ele>32</ele>
        <time>2014-08-18T09:52:35Z</time>
      </trkpt>
      <trkpt lat="44.95243" lon="1.00256">
        <ele>32</ele>
        <time>2014-08-18T09:52:38Z</time>
      </trkpt>
      <trkpt lat="44.95243" lon="1.00256">
        <ele>32</ele>
        <time>2014-08-18T09:52:41Z</time>
      </trkpt>
      <trkpt lat="44.95243" lon="1.00256">
        <ele>33</ele>
        <time>2014-08-18T09:52:43Z</time>
      </trkpt>
      <trkpt lat="44.95243" lon="1.00257">
        <ele>33</ele>
        <time>2014-08-18T09:52:46Z</time>
      </trkpt>
      <trkpt lat="44.95242" lon="1.00256">
        <ele>33</ele>
        <time>2014-08-18T09:52:48Z</time>
      </trkpt>
      <trkpt lat="44.95242" lon="1.00256">
        <ele>33</ele>
        <time>2014-08-18T09:52:50Z</time>
      </trkpt>
      <trkpt lat="44.95242" lon="1.00255">
        <ele>33</ele>
        <time>2014-08-18T09:52:52Z</time>
      </trkpt>
      <trkpt lat="44.95241" lon="1.00254">
        <ele>33</ele>
        <time>2014-08-18T09:52:54Z</time>
      </trkpt>
      <trkpt lat="44.95242" lon="1.00253">
        <ele>33</ele>
        <time>2014-08-18T09:52:57Z</time>
      </trkpt>
      <trkpt lat="44.95241" lon="1.00253">
        <ele>34</ele>
        <time>2014-08-18T09:52:59Z</time>
      </trkpt>
      <trkpt lat="44.95241" lon="1.00253">
        <ele>34</ele>
        <time>2014-08-18T09:53:01Z</time>
      </trkpt>
      <trkpt lat="44.95241" lon="1.00254">
        <ele>35</ele>
        <time>2014-08-18T09:53:04Z</time>
      </trkpt>
      <trkpt lat="44.95242" lon="1.00254">
        <ele>35</ele>
        <time>2014-08-18T09:53:06Z</time>
      </trkpt>
      <trkpt lat="44.95242" lon="1.00253">
        <ele>35</ele>
        <time>2014-08-18T09:53:08Z</time>
      </trkpt>
      <trkpt lat="44.95242" lon="1.00252">
        <ele>35</ele>
        <time>2014-08-18T09:53:11Z</time>
      </trkpt>
      <trkpt lat="44.95244" lon="1.0025">
        <ele>35</ele>
        <time>2014-08-18T09:53:14Z</time>
      </trkpt>
      <trkpt lat="44.95245" lon="1.00244">
        <ele>35</ele>
        <time>2014-08-18T09:53:17Z</time>
      </trkpt>
      <trkpt lat="44.95245" lon="1.00236">
        <ele>35</ele>
        <time>2014-08-18T09:53:19Z</time>
      </trkpt>
      <trkpt lat="44.95244" lon="1.00225">
        <ele>35</ele>
        <time>2014-08-18T09:53:21Z</time>
      </trkpt>
      <trkpt lat="44.95242" lon="1.00214">
        <ele>35</ele>
        <time>2014-08-18T09:53:23Z</time>
      </trkpt>
      <trkpt lat="44.95236" lon="1.00194">
        <ele>35</ele>
        <time>2014-08-18T09:53:26Z</time>
      </trkpt>
      <trkpt lat="44.95231" lon="1.00175">
        <ele>34</ele>
        <time>2014-08-18T09:53:29Z</time>
      </trkpt>
      <trkpt lat="44.95226" lon="1.00162">
        <ele>34</ele>
        <time>2014-08-18T09:53:31Z</time>
      </trkpt>
      <trkpt lat="44.9522" lon="1.00139">
        <ele>34</ele>
        <time>2014-08-18T09:53:34Z</time>
      </trkpt>
      <trkpt lat="44.95213" lon="1.00115">
        <ele>34</ele>
        <time>2014-08-18T09:53:37Z</time>
      </trkpt>
      <trkpt lat="44.95208" lon="1.00098">
        <ele>34</ele>
        <time>2014-08-18T09:53:39Z</time>
      </trkpt>
      <trkpt lat="44.95205" lon="1.00081">
        <ele>34</ele>
        <time>2014-08-18T09:53:41Z</time>
      </trkpt>
      <trkpt lat="44.95201" lon="1.00065">
        <ele>33</ele>
        <time>2014-08-18T09:53:43Z</time>
      </trkpt>
      <trkpt lat="44.95194" lon="1.00049">
        <ele>33</ele>
        <time>2014-08-18T09:53:45Z</time>
      </trkpt>
      <trkpt lat="44.95184" lon="1.00034">
        <ele>33</ele>
        <time>2014-08-18T09:53:47Z</time>
      </trkpt>
      <trkpt lat="44.9517" lon="1.00014">
        <ele>33</ele>
        <time>2014-08-18T09:53:50Z</time>
      </trkpt>
      <trkpt lat="44.9516" lon="1.00004">
        <ele>33</ele>
        <time>2014-08-18T09:53:52Z</time>
      </trkpt>
      <trkpt lat="44.95151" lon="0.99993">
        <ele>32</ele>
        <time>2014-08-18T09:53:54Z</time>
      </trkpt>
      <trkpt lat="44.9514" lon="0.99983">
        <ele>32</ele>
        <time>2014-08-18T09:53:56Z</time>
      </trkpt>
      <trkpt lat="44.95127" lon="0.99972">
        <ele>32</ele>
        <time>2014-08-18T09:53:58Z</time>
      </trkpt>
      <trkpt lat="44.95114" lon="0.99961">
        <ele>32</ele>
        <time>2014-08-18T09:54:00Z</time>
      </trkpt>
      <trkpt lat="44.951" lon="0.9995">
        <ele>32</ele>
        <time>2014-08-18T09:54:02Z</time>
      </trkpt>
      <trkpt lat="44.95079" lon="0.99936">
        <ele>32</ele>
        <time>2014-08-18T09:54:05Z</time>
      </trkpt>
      <trkpt lat="44.95066" lon="0.99927">
        <ele>32</ele>
        <time>2014-08-18T09:54:07Z</time>
      </trkpt>
      <trkpt lat="44.95045" lon="0.99915">
        <ele>32</ele>
        <time>2014-08-18T09:54:10Z</time>
      </trkpt>
      <trkpt lat="44.95032" lon="0.99907">
        <ele>32</ele>
        <time>2014-08-18T09:54:12Z</time>
      </trkpt>
      <trkpt lat="44.95012" lon="0.99899">
        <ele>32</ele>
        <time>2014-08-18T09:54:15Z</time>
      </trkpt>
      <trkpt lat="44.95002" lon="0.99896">
        <ele>32</ele>
        <time>2014-08-18T09:54:17Z</time>
      </trkpt>
      <trkpt lat="44.94991" lon="0.99893">
        <ele>31</ele>
        <time>2014-08-18T09:54:20Z</time>
      </trkpt>
      <trkpt lat="44.94987" lon="0.99891">
        <ele>31</ele>
        <time>2014-08-18T09:54:22Z</time>
      </trkpt>
      <trkpt lat="44.94981" lon="0.99887">
        <ele>31</ele>
        <time>2014-08-18T09:54:25Z</time>
      </trkpt>
      <trkpt lat="44.94973" lon="0.99888">
        <ele>31</ele>
        <time>2014-08-18T09:54:28Z</time>
      </trkpt>
      <trkpt lat="44.94962" lon="0.99889">
        <ele>30</ele>
        <time>2014-08-18T09:54:31Z</time>
      </trkpt>
      <trkpt lat="44.94954" lon="0.99887">
        <ele>30</ele>
        <time>2014-08-18T09:54:33Z</time>
      </trkpt>
      <trkpt lat="44.94941" lon="0.99883">
        <ele>30</ele>
        <time>2014-08-18T09:54:36Z</time>
      </trkpt>
      <trkpt lat="44.94932" lon="0.9988">
        <ele>30</ele>
        <time>2014-08-18T09:54:38Z</time>
      </trkpt>
      <trkpt lat="44.94923" lon="0.99878">
        <ele>30</ele>
        <time>2014-08-18T09:54:40Z</time>
      </trkpt>
      <trkpt lat="44.94914" lon="0.99878">
        <ele>30</ele>
        <time>2014-08-18T09:54:42Z</time>
      </trkpt>
      <trkpt lat="44.94905" lon="0.99877">
        <ele>30</ele>
        <time>2014-08-18T09:54:44Z</time>
      </trkpt>
      <trkpt lat="44.94896" lon="0.99874">
        <ele>30</ele>
        <time>2014-08-18T09:54:46Z</time>
      </trkpt>
      <trkpt lat="44.94889" lon="0.99869">
        <ele>29</ele>
        <time>2014-08-18T09:54:48Z</time>
      </trkpt>
      <trkpt lat="44.94883" lon="0.99864">
        <ele>29</ele>
        <time>2014-08-18T09:54:50Z</time>
      </trkpt>
      <trkpt lat="44.94878" lon="0.9986">
        <ele>30</ele>
        <time>2014-08-18T09:54:52Z</time>
      </trkpt>
      <trkpt lat="44.94874" lon="0.99856">
        <ele>30</ele>
        <time>2014-08-18T09:54:54Z</time>
      </trkpt>
      <trkpt lat="44.9487" lon="0.99855">
        <ele>30</ele>
        <time>2014-08-18T09:54:56Z</time>
      </trkpt>
      <trkpt lat="44.94866" lon="0.99855">
        <ele>31</ele>
        <time>2014-08-18T09:54:58Z</time>
      </trkpt>
      <trkpt lat="44.94858" lon="0.99854">
        <ele>31</ele>
        <time>2014-08-18T09:55:01Z</time>
      </trkpt>
      <trkpt lat="44.94851" lon="0.99854">
        <ele>31</ele>
        <time>2014-08-18T09:55:03Z</time>
      </trkpt>
      <trkpt lat="44.94842" lon="0.99853">
        <ele>32</ele>
        <time>2014-08-18T09:55:05Z</time>
      </trkpt>
      <trkpt lat="44.94835" lon="0.99852">
        <ele>32</ele>
        <time>2014-08-18T09:55:07Z</time>
      </trkpt>
      <trkpt lat="44.94827" lon="0.99852">
        <ele>32</ele>
        <time>2014-08-18T09:55:09Z</time>
      </trkpt>
      <trkpt lat="44.94813" lon="0.99851">
        <ele>32</ele>
        <time>2014-08-18T09:55:12Z</time>
      </trkpt>
      <trkpt lat="44.94803" lon="0.9985">
        <ele>32</ele>
        <time>2014-08-18T09:55:14Z</time>
      </trkpt>
      <trkpt lat="44.9479" lon="0.9985">
        <ele>32</ele>
        <time>2014-08-18T09:55:16Z</time>
      </trkpt>
      <trkpt lat="44.94777" lon="0.99851">
        <ele>32</ele>
        <time>2014-08-18T09:55:18Z</time>
      </trkpt>
      <trkpt lat="44.94764" lon="0.99851">
        <ele>32</ele>
        <time>2014-08-18T09:55:20Z</time>
      </trkpt>
      <trkpt lat="44.94743" lon="0.99851">
        <ele>32</ele>
        <time>2014-08-18T09:55:23Z</time>
      </trkpt>
      <trkpt lat="44.9473" lon="0.99852">
        <ele>32</ele>
        <time>2014-08-18T09:55:25Z</time>
      </trkpt>
      <trkpt lat="44.94709" lon="0.99853">
        <ele>32</ele>
        <time>2014-08-18T09:55:28Z</time>
      </trkpt>
      <trkpt lat="44.94695" lon="0.99854">
        <ele>32</ele>
        <time>2014-08-18T09:55:30Z</time>
      </trkpt>
      <trkpt lat="44.94682" lon="0.99855">
        <ele>32</ele>
        <time>2014-08-18T09:55:32Z</time>
      </trkpt>
      <trkpt lat="44.94661" lon="0.99858">
        <ele>32</ele>
        <time>2014-08-18T09:55:35Z</time>
      </trkpt>
      <trkpt lat="44.94648" lon="0.99861">
        <ele>32</ele>
        <time>2014-08-18T09:55:37Z</time>
      </trkpt>
      <trkpt lat="44.94634" lon="0.99864">
        <ele>32</ele>
        <time>2014-08-18T09:55:39Z</time>
      </trkpt>
      <trkpt lat="44.9462" lon="0.99867">
        <ele>32</ele>
        <time>2014-08-18T09:55:41Z</time>
      </trkpt>
      <trkpt lat="44.94599" lon="0.99871">
        <ele>32</ele>
        <time>2014-08-18T09:55:44Z</time>
      </trkpt>
      <trkpt lat="44.94585" lon="0.99874">
        <ele>32</ele>
        <time>2014-08-18T09:55:46Z</time>
      </trkpt>
      <trkpt lat="44.94565" lon="0.9988">
        <ele>31</ele>
        <time>2014-08-18T09:55:49Z</time>
      </trkpt>
      <trkpt lat="44.94544" lon="0.99885">
        <ele>31</ele>
        <time>2014-08-18T09:55:52Z</time>
      </trkpt>
      <trkpt lat="44.94524" lon="0.99891">
        <ele>31</ele>
        <time>2014-08-18T09:55:55Z</time>
      </trkpt>
      <trkpt lat="44.94505" lon="0.99896">
        <ele>32</ele>
        <time>2014-08-18T09:55:58Z</time>
      </trkpt>
      <trkpt lat="44.94494" lon="0.99899">
        <ele>31</ele>
        <time>2014-08-18T09:56:00Z</time>
      </trkpt>
      <trkpt lat="44.94477" lon="0.99904">
        <ele>31</ele>
        <time>2014-08-18T09:56:03Z</time>
      </trkpt>
      <trkpt lat="44.94466" lon="0.99907">
        <ele>31</ele>
        <time>2014-08-18T09:56:05Z</time>
      </trkpt>
      <trkpt lat="44.94452" lon="0.99912">
        <ele>31</ele>
        <time>2014-08-18T09:56:08Z</time>
      </trkpt>
      <trkpt lat="44.94447" lon="0.99914">
        <ele>31</ele>
        <time>2014-08-18T09:56:10Z</time>
      </trkpt>
      <trkpt lat="44.94443" lon="0.99918">
        <ele>31</ele>
        <time>2014-08-18T09:56:12Z</time>
      </trkpt>
      <trkpt lat="44.94438" lon="0.99922">
        <ele>31</ele>
        <time>2014-08-18T09:56:14Z</time>
      </trkpt>
      <trkpt lat="44.94436" lon="0.99928">
        <ele>31</ele>
        <time>2014-08-18T09:56:17Z</time>
      </trkpt>
      <trkpt lat="44.94435" lon="0.99933">
        <ele>31</ele>
        <time>2014-08-18T09:56:19Z</time>
      </trkpt>
      <trkpt lat="44.94436" lon="0.99939">
        <ele>30</ele>
        <time>2014-08-18T09:56:22Z</time>
      </trkpt>
      <trkpt lat="44.94435" lon="0.99945">
        <ele>31</ele>
        <time>2014-08-18T09:56:25Z</time>
      </trkpt>
      <trkpt lat="44.94433" lon="0.9995">
        <ele>31</ele>
        <time>2014-08-18T09:56:27Z</time>
      </trkpt>
      <trkpt lat="44.94429" lon="0.99967">
        <ele>31</ele>
        <time>2014-08-18T09:56:30Z</time>
      </trkpt>
      <trkpt lat="44.94427" lon="0.99979">
        <ele>31</ele>
        <time>2014-08-18T09:56:32Z</time>
      </trkpt>
      <trkpt lat="44.94424" lon="0.99996">
        <ele>31</ele>
        <time>2014-08-18T09:56:35Z</time>
      </trkpt>
      <trkpt lat="44.94418" lon="1.00012">
        <ele>30</ele>
        <time>2014-08-18T09:56:38Z</time>
      </trkpt>
      <trkpt lat="44.94412" lon="1.00019">
        <ele>30</ele>
        <time>2014-08-18T09:56:40Z</time>
      </trkpt>
      <trkpt lat="44.94402" lon="1.00029">
        <ele>30</ele>
        <time>2014-08-18T09:56:43Z</time>
      </trkpt>
      <trkpt lat="44.94393" lon="1.00038">
        <ele>30</ele>
        <time>2014-08-18T09:56:46Z</time>
      </trkpt>
      <trkpt lat="44.94385" lon="1.00045">
        <ele>30</ele>
        <time>2014-08-18T09:56:48Z</time>
      </trkpt>
      <trkpt lat="44.94374" lon="1.00054">
        <ele>31</ele>
        <time>2014-08-18T09:56:51Z</time>
      </trkpt>
      <trkpt lat="44.94362" lon="1.00064">
        <ele>31</ele>
        <time>2014-08-18T09:56:54Z</time>
      </trkpt>
      <trkpt lat="44.94354" lon="1.00071">
        <ele>31</ele>
        <time>2014-08-18T09:56:56Z</time>
      </trkpt>
      <trkpt lat="44.94341" lon="1.00084">
        <ele>31</ele>
        <time>2014-08-18T09:56:59Z</time>
      </trkpt>
      <trkpt lat="44.94331" lon="1.00093">
        <ele>31</ele>
        <time>2014-08-18T09:57:01Z</time>
      </trkpt>
      <trkpt lat="44.94315" lon="1.00107">
        <ele>31</ele>
        <time>2014-08-18T09:57:04Z</time>
      </trkpt>
      <trkpt lat="44.94306" lon="1.00115">
        <ele>31</ele>
        <time>2014-08-18T09:57:06Z</time>
      </trkpt>
      <trkpt lat="44.94296" lon="1.00121">
        <ele>31</ele>
        <time>2014-08-18T09:57:08Z</time>
      </trkpt>
      <trkpt lat="44.94282" lon="1.00131">
        <ele>31</ele>
        <time>2014-08-18T09:57:10Z</time>
      </trkpt>
      <trkpt lat="44.94266" lon="1.0014">
        <ele>31</ele>
        <time>2014-08-18T09:57:12Z</time>
      </trkpt>
      <trkpt lat="44.9425" lon="1.00149">
        <ele>31</ele>
        <time>2014-08-18T09:57:14Z</time>
      </trkpt>
      <trkpt lat="44.94235" lon="1.00159">
        <ele>31</ele>
        <time>2014-08-18T09:57:16Z</time>
      </trkpt>
      <trkpt lat="44.94221" lon="1.00167">
        <ele>31</ele>
        <time>2014-08-18T09:57:18Z</time>
      </trkpt>
      <trkpt lat="44.94205" lon="1.00176">
        <ele>31</ele>
        <time>2014-08-18T09:57:20Z</time>
      </trkpt>
      <trkpt lat="44.94185" lon="1.0019">
        <ele>31</ele>
        <time>2014-08-18T09:57:23Z</time>
      </trkpt>
      <trkpt lat="44.94174" lon="1.00198">
        <ele>31</ele>
        <time>2014-08-18T09:57:25Z</time>
      </trkpt>
      <trkpt lat="44.94162" lon="1.00205">
        <ele>31</ele>
        <time>2014-08-18T09:57:27Z</time>
      </trkpt>
      <trkpt lat="44.94151" lon="1.00213">
        <ele>31</ele>
        <time>2014-08-18T09:57:29Z</time>
      </trkpt>
      <trkpt lat="44.94141" lon="1.0022">
        <ele>31</ele>
        <time>2014-08-18T09:57:31Z</time>
      </trkpt>
      <trkpt lat="44.94132" lon="1.00226">
        <ele>31</ele>
        <time>2014-08-18T09:57:33Z</time>
      </trkpt>
      <trkpt lat="44.94125" lon="1.00233">
        <ele>31</ele>
        <time>2014-08-18T09:57:35Z</time>
      </trkpt>
      <trkpt lat="44.94117" lon="1.00244">
        <ele>30</ele>
        <time>2014-08-18T09:57:37Z</time>
      </trkpt>
      <trkpt lat="44.94109" lon="1.00254">
        <ele>30</ele>
        <time>2014-08-18T09:57:39Z</time>
      </trkpt>
      <trkpt lat="44.94099" lon="1.00264">
        <ele>30</ele>
        <time>2014-08-18T09:57:41Z</time>
      </trkpt>
      <trkpt lat="44.94089" lon="1.00274">
        <ele>29</ele>
        <time>2014-08-18T09:57:43Z</time>
      </trkpt>
      <trkpt lat="44.94076" lon="1.00289">
        <ele>29</ele>
        <time>2014-08-18T09:57:46Z</time>
      </trkpt>
      <trkpt lat="44.94067" lon="1.00298">
        <ele>29</ele>
        <time>2014-08-18T09:57:48Z</time>
      </trkpt>
      <trkpt lat="44.94058" lon="1.0031">
        <ele>29</ele>
        <time>2014-08-18T09:57:50Z</time>
      </trkpt>
      <trkpt lat="44.9405" lon="1.00318">
        <ele>29</ele>
        <time>2014-08-18T09:57:52Z</time>
      </trkpt>
      <trkpt lat="44.94038" lon="1.00338">
        <ele>29</ele>
        <time>2014-08-18T09:57:55Z</time>
      </trkpt>
      <trkpt lat="44.9403" lon="1.00359">
        <ele>29</ele>
        <time>2014-08-18T09:57:58Z</time>
      </trkpt>
      <trkpt lat="44.94024" lon="1.00369">
        <ele>29</ele>
        <time>2014-08-18T09:58:00Z</time>
      </trkpt>
      <trkpt lat="44.9402" lon="1.00383">
        <ele>29</ele>
        <time>2014-08-18T09:58:02Z</time>
      </trkpt>
      <trkpt lat="44.9401" lon="1.00399">
        <ele>29</ele>
        <time>2014-08-18T09:58:05Z</time>
      </trkpt>
      <trkpt lat="44.94004" lon="1.0041">
        <ele>29</ele>
        <time>2014-08-18T09:58:07Z</time>
      </trkpt>
      <trkpt lat="44.94" lon="1.00423">
        <ele>29</ele>
        <time>2014-08-18T09:58:09Z</time>
      </trkpt>
      <trkpt lat="44.93993" lon="1.00441">
        <ele>29</ele>
        <time>2014-08-18T09:58:12Z</time>
      </trkpt>
      <trkpt lat="44.93988" lon="1.00461">
        <ele>29</ele>
        <time>2014-08-18T09:58:15Z</time>
      </trkpt>
      <trkpt lat="44.93983" lon="1.00482">
        <ele>29</ele>
        <time>2014-08-18T09:58:18Z</time>
      </trkpt>
      <trkpt lat="44.9398" lon="1.00494">
        <ele>28</ele>
        <time>2014-08-18T09:58:20Z</time>
      </trkpt>
      <trkpt lat="44.93977" lon="1.00505">
        <ele>28</ele>
        <time>2014-08-18T09:58:22Z</time>
      </trkpt>
      <trkpt lat="44.93973" lon="1.00519">
        <ele>28</ele>
        <time>2014-08-18T09:58:25Z</time>
      </trkpt>
      <trkpt lat="44.9397" lon="1.00527">
        <ele>28</ele>
        <time>2014-08-18T09:58:27Z</time>
      </trkpt>
      <trkpt lat="44.93965" lon="1.00535">
        <ele>28</ele>
        <time>2014-08-18T09:58:29Z</time>
      </trkpt>
      <trkpt lat="44.93958" lon="1.00548">
        <ele>28</ele>
        <time>2014-08-18T09:58:32Z</time>
      </trkpt>
      <trkpt lat="44.93958" lon="1.00566">
        <ele>28</ele>
        <time>2014-08-18T09:58:35Z</time>
      </trkpt>
      <trkpt lat="44.9396" lon="1.00581">
        <ele>29</ele>
        <time>2014-08-18T09:58:37Z</time>
      </trkpt>
      <trkpt lat="44.93962" lon="1.00594">
        <ele>28</ele>
        <time>2014-08-18T09:58:39Z</time>
      </trkpt>
      <trkpt lat="44.93956" lon="1.00616">
        <ele>28</ele>
        <time>2014-08-18T09:58:42Z</time>
      </trkpt>
      <trkpt lat="44.93948" lon="1.00625">
        <ele>28</ele>
        <time>2014-08-18T09:58:45Z</time>
      </trkpt>
      <trkpt lat="44.93943" lon="1.00626">
        <ele>29</ele>
        <time>2014-08-18T09:58:47Z</time>
      </trkpt>
      <trkpt lat="44.93938" lon="1.0062">
        <ele>29</ele>
        <time>2014-08-18T09:58:50Z</time>
      </trkpt>
      <trkpt lat="44.93935" lon="1.00614">
        <ele>30</ele>
        <time>2014-08-18T09:58:52Z</time>
      </trkpt>
      <trkpt lat="44.93934" lon="1.00607">
        <ele>30</ele>
        <time>2014-08-18T09:58:54Z</time>
      </trkpt>
      <trkpt lat="44.93932" lon="1.00598">
        <ele>31</ele>
        <time>2014-08-18T09:58:57Z</time>
      </trkpt>
      <trkpt lat="44.93931" lon="1.00593">
        <ele>32</ele>
        <time>2014-08-18T09:58:59Z</time>
      </trkpt>
      <trkpt lat="44.93932" lon="1.00592">
        <ele>33</ele>
        <time>2014-08-18T09:59:01Z</time>
      </trkpt>
      <trkpt lat="44.93933" lon="1.00594">
        <ele>34</ele>
        <time>2014-08-18T09:59:03Z</time>
      </trkpt>
      <trkpt lat="44.93936" lon="1.00601">
        <ele>34</ele>
        <time>2014-08-18T09:59:05Z</time>
      </trkpt>
      <trkpt lat="44.9394" lon="1.00608">
        <ele>35</ele>
        <time>2014-08-18T09:59:07Z</time>
      </trkpt>
      <trkpt lat="44.93947" lon="1.00619">
        <ele>35</ele>
        <time>2014-08-18T09:59:10Z</time>
      </trkpt>
      <trkpt lat="44.93953" lon="1.00626">
        <ele>35</ele>
        <time>2014-08-18T09:59:12Z</time>
      </trkpt>
      <trkpt lat="44.9396" lon="1.00631">
        <ele>36</ele>
        <time>2014-08-18T09:59:14Z</time>
      </trkpt>
      <trkpt lat="44.9397" lon="1.00642">
        <ele>36</ele>
        <time>2014-08-18T09:59:17Z</time>
      </trkpt>
      <trkpt lat="44.93984" lon="1.00654">
        <ele>36</ele>
        <time>2014-08-18T09:59:20Z</time>
      </trkpt>
      <trkpt lat="44.93998" lon="1.00668">
        <ele>36</ele>
        <time>2014-08-18T09:59:23Z</time>
      </trkpt>
      <trkpt lat="44.94011" lon="1.00681">
        <ele>36</ele>
        <time>2014-08-18T09:59:26Z</time>
      </trkpt>
      <trkpt lat="44.9402" lon="1.00691">
        <ele>36</ele>
        <time>2014-08-18T09:59:28Z</time>
      </trkpt>
      <trkpt lat="44.94027" lon="1.007">
        <ele>36</ele>
        <time>2014-08-18T09:59:30Z</time>
      </trkpt>
      <trkpt lat="44.94038" lon="1.00714">
        <ele>35</ele>
        <time>2014-08-18T09:59:33Z</time>
      </trkpt>
      <trkpt lat="44.94046" lon="1.00723">
        <ele>35</ele>
        <time>2014-08-18T09:59:35Z</time>
      </trkpt>
      <trkpt lat="44.9406" lon="1.00737">
        <ele>34</ele>
        <time>2014-08-18T09:59:38Z</time>
      </trkpt>
      <trkpt lat="44.94067" lon="1.00747">
        <ele>34</ele>
        <time>2014-08-18T09:59:40Z</time>
      </trkpt>
      <trkpt lat="44.94074" lon="1.00762">
        <ele>34</ele>
        <time>2014-08-18T09:59:43Z</time>
      </trkpt>
      <trkpt lat="44.94077" lon="1.00774">
        <ele>34</ele>
        <time>2014-08-18T09:59:45Z</time>
      </trkpt>
      <trkpt lat="44.94077" lon="1.00786">
        <ele>34</ele>
        <time>2014-08-18T09:59:47Z</time>
      </trkpt>
      <trkpt lat="44.94074" lon="1.00797">
        <ele>35</ele>
        <time>2014-08-18T09:59:49Z</time>
      </trkpt>
      <trkpt lat="44.9407" lon="1.00809">
        <ele>36</ele>
        <time>2014-08-18T09:59:51Z</time>
      </trkpt>
      <trkpt lat="44.94065" lon="1.0082">
        <ele>36</ele>
        <time>2014-08-18T09:59:53Z</time>
      </trkpt>
      <trkpt lat="44.94059" lon="1.0083">
        <ele>36</ele>
        <time>2014-08-18T09:59:55Z</time>
      </trkpt>
      <trkpt lat="44.94053" lon="1.00846">
        <ele>36</ele>
        <time>2014-08-18T09:59:58Z</time>
      </trkpt>
      <trkpt lat="44.94049" lon="1.00858">
        <ele>36</ele>
        <time>2014-08-18T10:00:00Z</time>
      </trkpt>
      <trkpt lat="44.94041" lon="1.00876">
        <ele>36</ele>
        <time>2014-08-18T10:00:03Z</time>
      </trkpt>
      <trkpt lat="44.94033" lon="1.00887">
        <ele>36</ele>
        <time>2014-08-18T10:00:05Z</time>
      </trkpt>
      <trkpt lat="44.94024" lon="1.00897">
        <ele>36</ele>
        <time>2014-08-18T10:00:07Z</time>
      </trkpt>
      <trkpt lat="44.94012" lon="1.00912">
        <ele>36</ele>
        <time>2014-08-18T10:00:10Z</time>
      </trkpt>
      <trkpt lat="44.94003" lon="1.00923">
        <ele>36</ele>
        <time>2014-08-18T10:00:12Z</time>
      </trkpt>
      <trkpt lat="44.93995" lon="1.0094">
        <ele>36</ele>
        <time>2014-08-18T10:00:15Z</time>
      </trkpt>
      <trkpt lat="44.9399" lon="1.00952">
        <ele>36</ele>
        <time>2014-08-18T10:00:17Z</time>
      </trkpt>
      <trkpt lat="44.93987" lon="1.00966">
        <ele>36</ele>
        <time>2014-08-18T10:00:20Z</time>
      </trkpt>
      <trkpt lat="44.93983" lon="1.00976">
        <ele>36</ele>
        <time>2014-08-18T10:00:23Z</time>
      </trkpt>
      <trkpt lat="44.9398" lon="1.00985">
        <ele>36</ele>
        <time>2014-08-18T10:00:26Z</time>
      </trkpt>
      <trkpt lat="44.93977" lon="1.00992">
        <ele>36</ele>
        <time>2014-08-18T10:00:28Z</time>
      </trkpt>
      <trkpt lat="44.93974" lon="1.00998">
        <ele>36</ele>
        <time>2014-08-18T10:00:30Z</time>
      </trkpt>
      <trkpt lat="44.93963" lon="1.01005">
        <ele>36</ele>
        <time>2014-08-18T10:00:33Z</time>
      </trkpt>
      <trkpt lat="44.93952" lon="1.01011">
        <ele>36</ele>
        <time>2014-08-18T10:00:35Z</time>
      </trkpt>
      <trkpt lat="44.93938" lon="1.01021">
        <ele>36</ele>
        <time>2014-08-18T10:00:38Z</time>
      </trkpt>
      <trkpt lat="44.93929" lon="1.01029">
        <ele>36</ele>
        <time>2014-08-18T10:00:40Z</time>
      </trkpt>
      <trkpt lat="44.93909" lon="1.01041">
        <ele>36</ele>
        <time>2014-08-18T10:00:43Z</time>
      </trkpt>
      <trkpt lat="44.93887" lon="1.01056">
        <ele>35</ele>
        <time>2014-08-18T10:00:46Z</time>
      </trkpt>
      <trkpt lat="44.93872" lon="1.01065">
        <ele>35</ele>
        <time>2014-08-18T10:00:48Z</time>
      </trkpt>
      <trkpt lat="44.93856" lon="1.01075">
        <ele>35</ele>
        <time>2014-08-18T10:00:50Z</time>
      </trkpt>
      <trkpt lat="44.93842" lon="1.01084">
        <ele>35</ele>
        <time>2014-08-18T10:00:52Z</time>
      </trkpt>
      <trkpt lat="44.93821" lon="1.011">
        <ele>35</ele>
        <time>2014-08-18T10:00:55Z</time>
      </trkpt>
      <trkpt lat="44.93808" lon="1.0111">
        <ele>35</ele>
        <time>2014-08-18T10:00:57Z</time>
      </trkpt>
      <trkpt lat="44.93795" lon="1.01122">
        <ele>35</ele>
        <time>2014-08-18T10:00:59Z</time>
      </trkpt>
      <trkpt lat="44.93782" lon="1.01131">
        <ele>35</ele>
        <time>2014-08-18T10:01:01Z</time>
      </trkpt>
      <trkpt lat="44.93763" lon="1.01144">
        <ele>35</ele>
        <time>2014-08-18T10:01:04Z</time>
      </trkpt>
      <trkpt lat="44.9375" lon="1.01152">
        <ele>35</ele>
        <time>2014-08-18T10:01:06Z</time>
      </trkpt>
      <trkpt lat="44.93737" lon="1.01158">
        <ele>35</ele>
        <time>2014-08-18T10:01:08Z</time>
      </trkpt>
      <trkpt lat="44.93717" lon="1.01168">
        <ele>35</ele>
        <time>2014-08-18T10:01:11Z</time>
      </trkpt>
      <trkpt lat="44.93703" lon="1.01172">
        <ele>35</ele>
        <time>2014-08-18T10:01:13Z</time>
      </trkpt>
      <trkpt lat="44.93683" lon="1.01182">
        <ele>35</ele>
        <time>2014-08-18T10:01:16Z</time>
      </trkpt>
      <trkpt lat="44.93665" lon="1.01194">
        <ele>35</ele>
        <time>2014-08-18T10:01:19Z</time>
      </trkpt>
      <trkpt lat="44.93653" lon="1.01202">
        <ele>35</ele>
        <time>2014-08-18T10:01:21Z</time>
      </trkpt>
      <trkpt lat="44.93644" lon="1.01212">
        <ele>35</ele>
        <time>2014-08-18T10:01:23Z</time>
      </trkpt>
      <trkpt lat="44.93633" lon="1.0122">
        <ele>35</ele>
        <time>2014-08-18T10:01:25Z</time>
      </trkpt>
      <trkpt lat="44.93627" lon="1.01227">
        <ele>35</ele>
        <time>2014-08-18T10:01:27Z</time>
      </trkpt>
      <trkpt lat="44.93631" lon="1.0124">
        <ele>36</ele>
        <time>2014-08-18T10:01:30Z</time>
      </trkpt>
      <trkpt lat="44.93628" lon="1.01253">
        <ele>35</ele>
        <time>2014-08-18T10:01:33Z</time>
      </trkpt>
      <trkpt lat="44.93619" lon="1.0126">
        <ele>35</ele>
        <time>2014-08-18T10:01:35Z</time>
      </trkpt>
      <trkpt lat="44.93606" lon="1.01272">
        <ele>35</ele>
        <time>2014-08-18T10:01:38Z</time>
      </trkpt>
      <trkpt lat="44.93598" lon="1.01281">
        <ele>35</ele>
        <time>2014-08-18T10:01:40Z</time>
      </trkpt>
      <trkpt lat="44.93589" lon="1.01291">
        <ele>36</ele>
        <time>2014-08-18T10:01:43Z</time>
      </trkpt>
      <trkpt lat="44.93585" lon="1.01301">
        <ele>35</ele>
        <time>2014-08-18T10:01:46Z</time>
      </trkpt>
      <trkpt lat="44.93579" lon="1.01307">
        <ele>35</ele>
        <time>2014-08-18T10:01:48Z</time>
      </trkpt>
      <trkpt lat="44.93567" lon="1.0132">
        <ele>35</ele>
        <time>2014-08-18T10:01:51Z</time>
      </trkpt>
      <trkpt lat="44.9356" lon="1.01327">
        <ele>35</ele>
        <time>2014-08-18T10:01:53Z</time>
      </trkpt>
      <trkpt lat="44.93547" lon="1.01338">
        <ele>35</ele>
        <time>2014-08-18T10:01:56Z</time>
      </trkpt>
      <trkpt lat="44.93538" lon="1.01345">
        <ele>35</ele>
        <time>2014-08-18T10:01:58Z</time>
      </trkpt>
      <trkpt lat="44.93528" lon="1.01353">
        <ele>36</ele>
        <time>2014-08-18T10:02:00Z</time>
      </trkpt>
      <trkpt lat="44.93516" lon="1.01366">
        <ele>36</ele>
        <time>2014-08-18T10:02:03Z</time>
      </trkpt>
      <trkpt lat="44.93509" lon="1.01377">
        <ele>36</ele>
        <time>2014-08-18T10:02:05Z</time>
      </trkpt>
      <trkpt lat="44.93501" lon="1.01388">
        <ele>36</ele>
        <time>2014-08-18T10:02:07Z</time>
      </trkpt>
      <trkpt lat="44.93493" lon="1.01401">
        <ele>36</ele>
        <time>2014-08-18T10:02:09Z</time>
      </trkpt>
      <trkpt lat="44.93483" lon="1.0142">
        <ele>36</ele>
        <time>2014-08-18T10:02:12Z</time>
      </trkpt>
      <trkpt lat="44.93478" lon="1.01435">
        <ele>36</ele>
        <time>2014-08-18T10:02:14Z</time>
      </trkpt>
      <trkpt lat="44.93472" lon="1.01456">
        <ele>36</ele>
        <time>2014-08-18T10:02:17Z</time>
      </trkpt>
      <trkpt lat="44.9347" lon="1.0147">
        <ele>36</ele>
        <time>2014-08-18T10:02:19Z</time>
      </trkpt>
      <trkpt lat="44.93466" lon="1.01489">
        <ele>36</ele>
        <time>2014-08-18T10:02:22Z</time>
      </trkpt>
      <trkpt lat="44.93463" lon="1.01507">
        <ele>36</ele>
        <time>2014-08-18T10:02:25Z</time>
      </trkpt>
      <trkpt lat="44.93458" lon="1.01526">
        <ele>36</ele>
        <time>2014-08-18T10:02:28Z</time>
      </trkpt>
      <trkpt lat="44.93454" lon="1.01546">
        <ele>36</ele>
        <time>2014-08-18T10:02:31Z</time>
      </trkpt>
      <trkpt lat="44.9345" lon="1.01558">
        <ele>36</ele>
        <time>2014-08-18T10:02:33Z</time>
      </trkpt>
      <trkpt lat="44.93443" lon="1.01575">
        <ele>36</ele>
        <time>2014-08-18T10:02:36Z</time>
      </trkpt>
      <trkpt lat="44.93439" lon="1.01586">
        <ele>36</ele>
        <time>2014-08-18T10:02:38Z</time>
      </trkpt>
      <trkpt lat="44.9344" lon="1.01599">
        <ele>37</ele>
        <time>2014-08-18T10:02:40Z</time>
      </trkpt>
      <trkpt lat="44.93443" lon="1.01613">
        <ele>37</ele>
        <time>2014-08-18T10:02:42Z</time>
      </trkpt>
      <trkpt lat="44.93447" lon="1.01634">
        <ele>37</ele>
        <time>2014-08-18T10:02:45Z</time>
      </trkpt>
      <trkpt lat="44.93449" lon="1.01649">
        <ele>37</ele>
        <time>2014-08-18T10:02:47Z</time>
      </trkpt>
      <trkpt lat="44.93452" lon="1.01665">
        <ele>37</ele>
        <time>2014-08-18T10:02:49Z</time>
      </trkpt>
      <trkpt lat="44.93456" lon="1.01682">
        <ele>37</ele>
        <time>2014-08-18T10:02:51Z</time>
      </trkpt>
      <trkpt lat="44.93462" lon="1.01707">
        <ele>38</ele>
        <time>2014-08-18T10:02:54Z</time>
      </trkpt>
      <trkpt lat="44.93466" lon="1.01723">
        <ele>38</ele>
        <time>2014-08-18T10:02:56Z</time>
      </trkpt>
      <trkpt lat="44.93471" lon="1.01738">
        <ele>38</ele>
        <time>2014-08-18T10:02:58Z</time>
      </trkpt>
      <trkpt lat="44.9348" lon="1.01758">
        <ele>37</ele>
        <time>2014-08-18T10:03:01Z</time>
      </trkpt>
      <trkpt lat="44.93485" lon="1.01771">
        <ele>38</ele>
        <time>2014-08-18T10:03:03Z</time>
      </trkpt>
      <trkpt lat="44.93492" lon="1.01786">
        <ele>38</ele>
        <time>2014-08-18T10:03:05Z</time>
      </trkpt>
      <trkpt lat="44.93498" lon="1.01801">
        <ele>38</ele>
        <time>2014-08-18T10:03:07Z</time>
      </trkpt>
      <trkpt lat="44.93507" lon="1.01822">
        <ele>38</ele>
        <time>2014-08-18T10:03:10Z</time>
      </trkpt>
      <trkpt lat="44.93512" lon="1.01835">
        <ele>38</ele>
        <time>2014-08-18T10:03:12Z</time>
      </trkpt>
      <trkpt lat="44.93517" lon="1.01848">
        <ele>38</ele>
        <time>2014-08-18T10:03:14Z</time>
      </trkpt>
      <trkpt lat="44.9352" lon="1.01861">
        <ele>38</ele>
        <time>2014-08-18T10:03:16Z</time>
      </trkpt>
      <trkpt lat="44.93526" lon="1.01878">
        <ele>38</ele>
        <time>2014-08-18T10:03:19Z</time>
      </trkpt>
      <trkpt lat="44.93533" lon="1.01895">
        <ele>38</ele>
        <time>2014-08-18T10:03:22Z</time>
      </trkpt>
      <trkpt lat="44.93538" lon="1.01907">
        <ele>38</ele>
        <time>2014-08-18T10:03:24Z</time>
      </trkpt>
      <trkpt lat="44.93542" lon="1.01918">
        <ele>38</ele>
        <time>2014-08-18T10:03:26Z</time>
      </trkpt>
      <trkpt lat="44.93547" lon="1.01931">
        <ele>39</ele>
        <time>2014-08-18T10:03:28Z</time>
      </trkpt>
      <trkpt lat="44.93557" lon="1.01953">
        <ele>39</ele>
        <time>2014-08-18T10:03:31Z</time>
      </trkpt>
      <trkpt lat="44.93563" lon="1.01967">
        <ele>39</ele>
        <time>2014-08-18T10:03:33Z</time>
      </trkpt>
      <trkpt lat="44.93568" lon="1.01982">
        <ele>39</ele>
        <time>2014-08-18T10:03:35Z</time>
      </trkpt>
      <trkpt lat="44.93573" lon="1.01995">
        <ele>39</ele>
        <time>2014-08-18T10:03:37Z</time>
      </trkpt>
      <trkpt lat="44.93579" lon="1.02014">
        <ele>39</ele>
        <time>2014-08-18T10:03:40Z</time>
      </trkpt>
      <trkpt lat="44.93583" lon="1.02026">
        <ele>39</ele>
        <time>2014-08-18T10:03:42Z</time>
      </trkpt>
      <trkpt lat="44.93589" lon="1.02044">
        <ele>39</ele>
        <time>2014-08-18T10:03:44Z</time>
      </trkpt>
      <trkpt lat="44.93593" lon="1.02055">
        <ele>39</ele>
        <time>2014-08-18T10:03:46Z</time>
      </trkpt>
      <trkpt lat="44.93596" lon="1.02065">
        <ele>39</ele>
        <time>2014-08-18T10:03:48Z</time>
      </trkpt>
      <trkpt lat="44.93599" lon="1.02075">
        <ele>40</ele>
        <time>2014-08-18T10:03:50Z</time>
      </trkpt>
      <trkpt lat="44.93602" lon="1.02087">
        <ele>40</ele>
        <time>2014-08-18T10:03:53Z</time>
      </trkpt>
      <trkpt lat="44.93606" lon="1.02098">
        <ele>40</ele>
        <time>2014-08-18T10:03:55Z</time>
      </trkpt>
      <trkpt lat="44.93612" lon="1.02105">
        <ele>40</ele>
        <time>2014-08-18T10:03:57Z</time>
      </trkpt>
      <trkpt lat="44.93623" lon="1.02107">
        <ele>40</ele>
        <time>2014-08-18T10:03:59Z</time>
      </trkpt>
      <trkpt lat="44.93629" lon="1.02107">
        <ele>40</ele>
        <time>2014-08-18T10:04:01Z</time>
      </trkpt>
      <trkpt lat="44.93632" lon="1.02109">
        <ele>40</ele>
        <time>2014-08-18T10:04:04Z</time>
      </trkpt>
      <trkpt lat="44.93633" lon="1.02111">
        <ele>39</ele>
        <time>2014-08-18T10:04:06Z</time>
      </trkpt>
      <trkpt lat="44.93655" lon="1.02126">
        <ele>40</ele>
        <time>2014-08-18T10:04:11Z</time>
      </trkpt>
      <trkpt lat="44.93651" lon="1.02127">
        <ele>40</ele>
        <time>2014-08-18T10:04:13Z</time>
      </trkpt>
      <trkpt lat="44.93647" lon="1.02131">
        <ele>40</ele>
        <time>2014-08-18T10:04:15Z</time>
      </trkpt>
      <trkpt lat="44.93642" lon="1.02141">
        <ele>40</ele>
        <time>2014-08-18T10:04:18Z</time>
      </trkpt>
      <trkpt lat="44.93641" lon="1.0215">
        <ele>41</ele>
        <time>2014-08-18T10:04:20Z</time>
      </trkpt>
      <trkpt lat="44.93638" lon="1.02164">
        <ele>41</ele>
        <time>2014-08-18T10:04:23Z</time>
      </trkpt>
      <trkpt lat="44.93635" lon="1.02181">
        <ele>41</ele>
        <time>2014-08-18T10:04:26Z</time>
      </trkpt>
      <trkpt lat="44.93634" lon="1.02193">
        <ele>42</ele>
        <time>2014-08-18T10:04:28Z</time>
      </trkpt>
      <trkpt lat="44.93634" lon="1.02216">
        <ele>42</ele>
        <time>2014-08-18T10:04:31Z</time>
      </trkpt>
      <trkpt lat="44.93633" lon="1.02231">
        <ele>42</ele>
        <time>2014-08-18T10:04:33Z</time>
      </trkpt>
      <trkpt lat="44.93634" lon="1.02252">
        <ele>42</ele>
        <time>2014-08-18T10:04:36Z</time>
      </trkpt>
      <trkpt lat="44.93634" lon="1.02266">
        <ele>43</ele>
        <time>2014-08-18T10:04:38Z</time>
      </trkpt>
      <trkpt lat="44.93636" lon="1.02287">
        <ele>43</ele>
        <time>2014-08-18T10:04:41Z</time>
      </trkpt>
      <trkpt lat="44.93637" lon="1.02301">
        <ele>43</ele>
        <time>2014-08-18T10:04:43Z</time>
      </trkpt>
      <trkpt lat="44.9364" lon="1.02321">
        <ele>43</ele>
        <time>2014-08-18T10:04:46Z</time>
      </trkpt>
      <trkpt lat="44.93642" lon="1.02334">
        <ele>43</ele>
        <time>2014-08-18T10:04:48Z</time>
      </trkpt>
      <trkpt lat="44.93644" lon="1.02348">
        <ele>44</ele>
        <time>2014-08-18T10:04:50Z</time>
      </trkpt>
      <trkpt lat="44.93646" lon="1.02369">
        <ele>44</ele>
        <time>2014-08-18T10:04:53Z</time>
      </trkpt>
      <trkpt lat="44.93649" lon="1.02383">
        <ele>44</ele>
        <time>2014-08-18T10:04:55Z</time>
      </trkpt>
      <trkpt lat="44.93652" lon="1.02406">
        <ele>44</ele>
        <time>2014-08-18T10:04:58Z</time>
      </trkpt>
      <trkpt lat="44.93655" lon="1.0242">
        <ele>45</ele>
        <time>2014-08-18T10:05:00Z</time>
      </trkpt>
      <trkpt lat="44.93658" lon="1.02443">
        <ele>45</ele>
        <time>2014-08-18T10:05:03Z</time>
      </trkpt>
      <trkpt lat="44.93662" lon="1.02466">
        <ele>45</ele>
        <time>2014-08-18T10:05:06Z</time>
      </trkpt>
      <trkpt lat="44.93665" lon="1.02481">
        <ele>45</ele>
        <time>2014-08-18T10:05:08Z</time>
      </trkpt>
      <trkpt lat="44.93668" lon="1.02503">
        <ele>45</ele>
        <time>2014-08-18T10:05:11Z</time>
      </trkpt>
      <trkpt lat="44.93671" lon="1.02517">
        <ele>46</ele>
        <time>2014-08-18T10:05:13Z</time>
      </trkpt>
      <trkpt lat="44.93675" lon="1.02538">
        <ele>46</ele>
        <time>2014-08-18T10:05:16Z</time>
      </trkpt>
      <trkpt lat="44.93677" lon="1.02551">
        <ele>46</ele>
        <time>2014-08-18T10:05:18Z</time>
      </trkpt>
      <trkpt lat="44.93681" lon="1.02573">
        <ele>46</ele>
        <time>2014-08-18T10:05:21Z</time>
      </trkpt>
      <trkpt lat="44.93683" lon="1.02586">
        <ele>46</ele>
        <time>2014-08-18T10:05:23Z</time>
      </trkpt>
      <trkpt lat="44.93686" lon="1.02609">
        <ele>47</ele>
        <time>2014-08-18T10:05:26Z</time>
      </trkpt>
      <trkpt lat="44.93688" lon="1.02625">
        <ele>47</ele>
        <time>2014-08-18T10:05:28Z</time>
      </trkpt>
      <trkpt lat="44.93692" lon="1.0265">
        <ele>47</ele>
        <time>2014-08-18T10:05:31Z</time>
      </trkpt>
      <trkpt lat="44.93696" lon="1.02666">
        <ele>47</ele>
        <time>2014-08-18T10:05:33Z</time>
      </trkpt>
      <trkpt lat="44.93701" lon="1.02682">
        <ele>47</ele>
        <time>2014-08-18T10:05:35Z</time>
      </trkpt>
      <trkpt lat="44.93707" lon="1.02698">
        <ele>47</ele>
        <time>2014-08-18T10:05:37Z</time>
      </trkpt>
      <trkpt lat="44.93712" lon="1.02713">
        <ele>47</ele>
        <time>2014-08-18T10:05:39Z</time>
      </trkpt>
      <trkpt lat="44.93716" lon="1.02728">
        <ele>47</ele>
        <time>2014-08-18T10:05:41Z</time>
      </trkpt>
      <trkpt lat="44.93722" lon="1.02743">
        <ele>48</ele>
        <time>2014-08-18T10:05:43Z</time>
      </trkpt>
      <trkpt lat="44.93731" lon="1.02764">
        <ele>48</ele>
        <time>2014-08-18T10:05:46Z</time>
      </trkpt>
      <trkpt lat="44.93738" lon="1.02777">
        <ele>48</ele>
        <time>2014-08-18T10:05:48Z</time>
      </trkpt>
      <trkpt lat="44.93749" lon="1.02797">
        <ele>49</ele>
        <time>2014-08-18T10:05:51Z</time>
      </trkpt>
      <trkpt lat="44.93756" lon="1.02809">
        <ele>49</ele>
        <time>2014-08-18T10:05:53Z</time>
      </trkpt>
      <trkpt lat="44.93769" lon="1.02827">
        <ele>50</ele>
        <time>2014-08-18T10:05:56Z</time>
      </trkpt>
      <trkpt lat="44.93781" lon="1.02843">
        <ele>50</ele>
        <time>2014-08-18T10:05:59Z</time>
      </trkpt>
      <trkpt lat="44.93789" lon="1.02854">
        <ele>50</ele>
        <time>2014-08-18T10:06:01Z</time>
      </trkpt>
      <trkpt lat="44.93802" lon="1.02868">
        <ele>51</ele>
        <time>2014-08-18T10:06:04Z</time>
      </trkpt>
      <trkpt lat="44.93811" lon="1.02878">
        <ele>51</ele>
        <time>2014-08-18T10:06:06Z</time>
      </trkpt>
      <trkpt lat="44.93824" lon="1.02891">
        <ele>52</ele>
        <time>2014-08-18T10:06:09Z</time>
      </trkpt>
      <trkpt lat="44.93834" lon="1.029">
        <ele>51</ele>
        <time>2014-08-18T10:06:11Z</time>
      </trkpt>
      <trkpt lat="44.93849" lon="1.02912">
        <ele>52</ele>
        <time>2014-08-18T10:06:14Z</time>
      </trkpt>
      <trkpt lat="44.9386" lon="1.02919">
        <ele>52</ele>
        <time>2014-08-18T10:06:16Z</time>
      </trkpt>
      <trkpt lat="44.93871" lon="1.02926">
        <ele>52</ele>
        <time>2014-08-18T10:06:18Z</time>
      </trkpt>
      <trkpt lat="44.93882" lon="1.02932">
        <ele>52</ele>
        <time>2014-08-18T10:06:20Z</time>
      </trkpt>
      <trkpt lat="44.93893" lon="1.02938">
        <ele>53</ele>
        <time>2014-08-18T10:06:22Z</time>
      </trkpt>
      <trkpt lat="44.93909" lon="1.02946">
        <ele>53</ele>
        <time>2014-08-18T10:06:25Z</time>
      </trkpt>
      <trkpt lat="44.93921" lon="1.02951">
        <ele>54</ele>
        <time>2014-08-18T10:06:27Z</time>
      </trkpt>
      <trkpt lat="44.93938" lon="1.02958">
        <ele>54</ele>
        <time>2014-08-18T10:06:30Z</time>
      </trkpt>
      <trkpt lat="44.93948" lon="1.02964">
        <ele>54</ele>
        <time>2014-08-18T10:06:32Z</time>
      </trkpt>
      <trkpt lat="44.93965" lon="1.02972">
        <ele>55</ele>
        <time>2014-08-18T10:06:35Z</time>
      </trkpt>
      <trkpt lat="44.93982" lon="1.0298">
        <ele>55</ele>
        <time>2014-08-18T10:06:38Z</time>
      </trkpt>
      <trkpt lat="44.93992" lon="1.02986">
        <ele>55</ele>
        <time>2014-08-18T10:06:40Z</time>
      </trkpt>
      <trkpt lat="44.94003" lon="1.02992">
        <ele>55</ele>
        <time>2014-08-18T10:06:42Z</time>
      </trkpt>
      <trkpt lat="44.94014" lon="1.02999">
        <ele>55</ele>
        <time>2014-08-18T10:06:44Z</time>
      </trkpt>
      <trkpt lat="44.94025" lon="1.03006">
        <ele>55</ele>
        <time>2014-08-18T10:06:46Z</time>
      </trkpt>
      <trkpt lat="44.94035" lon="1.03012">
        <ele>55</ele>
        <time>2014-08-18T10:06:48Z</time>
      </trkpt>
      <trkpt lat="44.94047" lon="1.0302">
        <ele>55</ele>
        <time>2014-08-18T10:06:50Z</time>
      </trkpt>
      <trkpt lat="44.94057" lon="1.03028">
        <ele>55</ele>
        <time>2014-08-18T10:06:52Z</time>
      </trkpt>
      <trkpt lat="44.94072" lon="1.03042">
        <ele>55</ele>
        <time>2014-08-18T10:06:55Z</time>
      </trkpt>
      <trkpt lat="44.94082" lon="1.03052">
        <ele>55</ele>
        <time>2014-08-18T10:06:57Z</time>
      </trkpt>
      <trkpt lat="44.94091" lon="1.03062">
        <ele>55</ele>
        <time>2014-08-18T10:06:59Z</time>
      </trkpt>
      <trkpt lat="44.94101" lon="1.03071">
        <ele>55</ele>
        <time>2014-08-18T10:07:01Z</time>
      </trkpt>
      <trkpt lat="44.94109" lon="1.0308">
        <ele>55</ele>
        <time>2014-08-18T10:07:03Z</time>
      </trkpt>
      <trkpt lat="44.94119" lon="1.0309">
        <ele>55</ele>
        <time>2014-08-18T10:07:06Z</time>
      </trkpt>
      <trkpt lat="44.94125" lon="1.03096">
        <ele>55</ele>
        <time>2014-08-18T10:07:08Z</time>
      </trkpt>
      <trkpt lat="44.94128" lon="1.03103">
        <ele>55</ele>
        <time>2014-08-18T10:07:10Z</time>
      </trkpt>
      <trkpt lat="44.94128" lon="1.03111">
        <ele>55</ele>
        <time>2014-08-18T10:07:12Z</time>
      </trkpt>
      <trkpt lat="44.94124" lon="1.03116">
        <ele>55</ele>
        <time>2014-08-18T10:07:14Z</time>
      </trkpt>
      <trkpt lat="44.9412" lon="1.03119">
        <ele>56</ele>
        <time>2014-08-18T10:07:16Z</time>
      </trkpt>
      <trkpt lat="44.94114" lon="1.03124">
        <ele>57</ele>
        <time>2014-08-18T10:07:18Z</time>
      </trkpt>
      <trkpt lat="44.94107" lon="1.03129">
        <ele>58</ele>
        <time>2014-08-18T10:07:21Z</time>
      </trkpt>
      <trkpt lat="44.94103" lon="1.03133">
        <ele>58</ele>
        <time>2014-08-18T10:07:23Z</time>
      </trkpt>
      <trkpt lat="44.94095" lon="1.03139">
        <ele>59</ele>
        <time>2014-08-18T10:07:26Z</time>
      </trkpt>
      <trkpt lat="44.94089" lon="1.03142">
        <ele>59</ele>
        <time>2014-08-18T10:07:28Z</time>
      </trkpt>
      <trkpt lat="44.9408" lon="1.03149">
        <ele>60</ele>
        <time>2014-08-18T10:07:31Z</time>
      </trkpt>
      <trkpt lat="44.94075" lon="1.03155">
        <ele>61</ele>
        <time>2014-08-18T10:07:33Z</time>
      </trkpt>
      <trkpt lat="44.94068" lon="1.03166">
        <ele>62</ele>
        <time>2014-08-18T10:07:36Z</time>
      </trkpt>
      <trkpt lat="44.94061" lon="1.03178">
        <ele>63</ele>
        <time>2014-08-18T10:07:39Z</time>
      </trkpt>
      <trkpt lat="44.94056" lon="1.03187">
        <ele>64</ele>
        <time>2014-08-18T10:07:41Z</time>
      </trkpt>
      <trkpt lat="44.94048" lon="1.032">
        <ele>65</ele>
        <time>2014-08-18T10:07:44Z</time>
      </trkpt>
      <trkpt lat="44.94043" lon="1.03208">
        <ele>66</ele>
        <time>2014-08-18T10:07:46Z</time>
      </trkpt>
      <trkpt lat="44.94039" lon="1.03215">
        <ele>66</ele>
        <time>2014-08-18T10:07:48Z</time>
      </trkpt>
      <trkpt lat="44.94035" lon="1.03223">
        <ele>67</ele>
        <time>2014-08-18T10:07:50Z</time>
      </trkpt>
      <trkpt lat="44.94031" lon="1.03229">
        <ele>68</ele>
        <time>2014-08-18T10:07:52Z</time>
      </trkpt>
      <trkpt lat="44.94024" lon="1.03236">
        <ele>70</ele>
        <time>2014-08-18T10:07:55Z</time>
      </trkpt>
      <trkpt lat="44.94019" lon="1.03239">
        <ele>70</ele>
        <time>2014-08-18T10:07:57Z</time>
      </trkpt>
      <trkpt lat="44.94014" lon="1.03241">
        <ele>71</ele>
        <time>2014-08-18T10:07:59Z</time>
      </trkpt>
      <trkpt lat="44.94009" lon="1.03243">
        <ele>71</ele>
        <time>2014-08-18T10:08:01Z</time>
      </trkpt>
      <trkpt lat="44.94004" lon="1.03246">
        <ele>72</ele>
        <time>2014-08-18T10:08:03Z</time>
      </trkpt>
      <trkpt lat="44.94001" lon="1.03248">
        <ele>72</ele>
        <time>2014-08-18T10:08:05Z</time>
      </trkpt>
      <trkpt lat="44.93998" lon="1.03252">
        <ele>73</ele>
        <time>2014-08-18T10:08:07Z</time>
      </trkpt>
      <trkpt lat="44.93995" lon="1.0326">
        <ele>74</ele>
        <time>2014-08-18T10:08:10Z</time>
      </trkpt>
      <trkpt lat="44.93993" lon="1.03266">
        <ele>75</ele>
        <time>2014-08-18T10:08:12Z</time>
      </trkpt>
      <trkpt lat="44.93992" lon="1.03273">
        <ele>76</ele>
        <time>2014-08-18T10:08:14Z</time>
      </trkpt>
      <trkpt lat="44.93992" lon="1.03279">
        <ele>76</ele>
        <time>2014-08-18T10:08:16Z</time>
      </trkpt>
      <trkpt lat="44.93991" lon="1.03284">
        <ele>76</ele>
        <time>2014-08-18T10:08:18Z</time>
      </trkpt>
      <trkpt lat="44.93991" lon="1.03288">
        <ele>77</ele>
        <time>2014-08-18T10:08:20Z</time>
      </trkpt>
      <trkpt lat="44.93989" lon="1.03294">
        <ele>77</ele>
        <time>2014-08-18T10:08:22Z</time>
      </trkpt>
      <trkpt lat="44.93987" lon="1.03299">
        <ele>78</ele>
        <time>2014-08-18T10:08:24Z</time>
      </trkpt>
      <trkpt lat="44.93983" lon="1.03308">
        <ele>79</ele>
        <time>2014-08-18T10:08:27Z</time>
      </trkpt>
      <trkpt lat="44.93979" lon="1.03313">
        <ele>80</ele>
        <time>2014-08-18T10:08:29Z</time>
      </trkpt>
      <trkpt lat="44.93975" lon="1.0332">
        <ele>80</ele>
        <time>2014-08-18T10:08:32Z</time>
      </trkpt>
      <trkpt lat="44.93972" lon="1.03326">
        <ele>81</ele>
        <time>2014-08-18T10:08:35Z</time>
      </trkpt>
      <trkpt lat="44.93968" lon="1.03331">
        <ele>82</ele>
        <time>2014-08-18T10:08:37Z</time>
      </trkpt>
      <trkpt lat="44.93965" lon="1.03335">
        <ele>82</ele>
        <time>2014-08-18T10:08:39Z</time>
      </trkpt>
      <trkpt lat="44.93961" lon="1.0334">
        <ele>83</ele>
        <time>2014-08-18T10:08:41Z</time>
      </trkpt>
      <trkpt lat="44.93956" lon="1.03342">
        <ele>84</ele>
        <time>2014-08-18T10:08:43Z</time>
      </trkpt>
      <trkpt lat="44.9395" lon="1.03345">
        <ele>84</ele>
        <time>2014-08-18T10:08:45Z</time>
      </trkpt>
      <trkpt lat="44.93945" lon="1.03348">
        <ele>85</ele>
        <time>2014-08-18T10:08:47Z</time>
      </trkpt>
      <trkpt lat="44.9394" lon="1.03352">
        <ele>85</ele>
        <time>2014-08-18T10:08:49Z</time>
      </trkpt>
      <trkpt lat="44.93936" lon="1.03355">
        <ele>86</ele>
        <time>2014-08-18T10:08:51Z</time>
      </trkpt>
      <trkpt lat="44.93931" lon="1.03358">
        <ele>86</ele>
        <time>2014-08-18T10:08:53Z</time>
      </trkpt>
      <trkpt lat="44.93924" lon="1.03362">
        <ele>87</ele>
        <time>2014-08-18T10:08:56Z</time>
      </trkpt>
      <trkpt lat="44.93917" lon="1.03363">
        <ele>87</ele>
        <time>2014-08-18T10:08:58Z</time>
      </trkpt>
      <trkpt lat="44.9391" lon="1.03365">
        <ele>88</ele>
        <time>2014-08-18T10:09:00Z</time>
      </trkpt>
      <trkpt lat="44.93905" lon="1.03368">
        <ele>89</ele>
        <time>2014-08-18T10:09:02Z</time>
      </trkpt>
      <trkpt lat="44.93898" lon="1.03374">
        <ele>89</ele>
        <time>2014-08-18T10:09:05Z</time>
      </trkpt>
      <trkpt lat="44.93895" lon="1.03377">
        <ele>90</ele>
        <time>2014-08-18T10:09:07Z</time>
      </trkpt>
      <trkpt lat="44.93892" lon="1.03379">
        <ele>91</ele>
        <time>2014-08-18T10:09:10Z</time>
      </trkpt>
      <trkpt lat="44.93889" lon="1.03381">
        <ele>91</ele>
        <time>2014-08-18T10:09:12Z</time>
      </trkpt>
      <trkpt lat="44.93885" lon="1.03383">
        <ele>92</ele>
        <time>2014-08-18T10:09:14Z</time>
      </trkpt>
      <trkpt lat="44.93883" lon="1.03386">
        <ele>92</ele>
        <time>2014-08-18T10:09:16Z</time>
      </trkpt>
      <trkpt lat="44.9388" lon="1.03387">
        <ele>93</ele>
        <time>2014-08-18T10:09:18Z</time>
      </trkpt>
      <trkpt lat="44.93879" lon="1.0339">
        <ele>93</ele>
        <time>2014-08-18T10:09:20Z</time>
      </trkpt>
      <trkpt lat="44.93876" lon="1.03391">
        <ele>94</ele>
        <time>2014-08-18T10:09:22Z</time>
      </trkpt>
      <trkpt lat="44.93872" lon="1.03394">
        <ele>94</ele>
        <time>2014-08-18T10:09:25Z</time>
      </trkpt>
      <trkpt lat="44.93871" lon="1.03394">
        <ele>94</ele>
        <time>2014-08-18T10:09:27Z</time>
      </trkpt>
      <trkpt lat="44.93866" lon="1.03396">
        <ele>95</ele>
        <time>2014-08-18T10:09:30Z</time>
      </trkpt>
      <trkpt lat="44.93862" lon="1.03397">
        <ele>96</ele>
        <time>2014-08-18T10:09:32Z</time>
      </trkpt>
      <trkpt lat="44.93857" lon="1.03398">
        <ele>96</ele>
        <time>2014-08-18T10:09:34Z</time>
      </trkpt>
      <trkpt lat="44.93847" lon="1.034">
        <ele>97</ele>
        <time>2014-08-18T10:09:37Z</time>
      </trkpt>
      <trkpt lat="44.93835" lon="1.03399">
        <ele>97</ele>
        <time>2014-08-18T10:09:40Z</time>
      </trkpt>
      <trkpt lat="44.93829" lon="1.03401">
        <ele>98</ele>
        <time>2014-08-18T10:09:42Z</time>
      </trkpt>
      <trkpt lat="44.93822" lon="1.03403">
        <ele>98</ele>
        <time>2014-08-18T10:09:44Z</time>
      </trkpt>
      <trkpt lat="44.93816" lon="1.03405">
        <ele>99</ele>
        <time>2014-08-18T10:09:46Z</time>
      </trkpt>
      <trkpt lat="44.9381" lon="1.03407">
        <ele>100</ele>
        <time>2014-08-18T10:09:49Z</time>
      </trkpt>
      <trkpt lat="44.93807" lon="1.03407">
        <ele>100</ele>
        <time>2014-08-18T10:09:51Z</time>
      </trkpt>
      <trkpt lat="44.93804" lon="1.03408">
        <ele>101</ele>
        <time>2014-08-18T10:09:54Z</time>
      </trkpt>
      <trkpt lat="44.93799" lon="1.0341">
        <ele>101</ele>
        <time>2014-08-18T10:09:56Z</time>
      </trkpt>
      <trkpt lat="44.93794" lon="1.03411">
        <ele>102</ele>
        <time>2014-08-18T10:09:58Z</time>
      </trkpt>
      <trkpt lat="44.93789" lon="1.03411">
        <ele>102</ele>
        <time>2014-08-18T10:10:00Z</time>
      </trkpt>
      <trkpt lat="44.93782" lon="1.03413">
        <ele>102</ele>
        <time>2014-08-18T10:10:03Z</time>
      </trkpt>
      <trkpt lat="44.93776" lon="1.03415">
        <ele>103</ele>
        <time>2014-08-18T10:10:05Z</time>
      </trkpt>
      <trkpt lat="44.93766" lon="1.03414">
        <ele>104</ele>
        <time>2014-08-18T10:10:08Z</time>
      </trkpt>
      <trkpt lat="44.9376" lon="1.03415">
        <ele>105</ele>
        <time>2014-08-18T10:10:10Z</time>
      </trkpt>
      <trkpt lat="44.93751" lon="1.03418">
        <ele>106</ele>
        <time>2014-08-18T10:10:12Z</time>
      </trkpt>
      <trkpt lat="44.93742" lon="1.0342">
        <ele>106</ele>
        <time>2014-08-18T10:10:14Z</time>
      </trkpt>
      <trkpt lat="44.93732" lon="1.03425">
        <ele>107</ele>
        <time>2014-08-18T10:10:16Z</time>
      </trkpt>
      <trkpt lat="44.93721" lon="1.03427">
        <ele>108</ele>
        <time>2014-08-18T10:10:19Z</time>
      </trkpt>
      <trkpt lat="44.93716" lon="1.0343">
        <ele>108</ele>
        <time>2014-08-18T10:10:21Z</time>
      </trkpt>
      <trkpt lat="44.93706" lon="1.03434">
        <ele>108</ele>
        <time>2014-08-18T10:10:24Z</time>
      </trkpt>
      <trkpt lat="44.93702" lon="1.03436">
        <ele>109</ele>
        <time>2014-08-18T10:10:26Z</time>
      </trkpt>
      <trkpt lat="44.93698" lon="1.03435">
        <ele>110</ele>
        <time>2014-08-18T10:10:29Z</time>
      </trkpt>
      <trkpt lat="44.93691" lon="1.03437">
        <ele>110</ele>
        <time>2014-08-18T10:10:32Z</time>
      </trkpt>
      <trkpt lat="44.93685" lon="1.03436">
        <ele>111</ele>
        <time>2014-08-18T10:10:34Z</time>
      </trkpt>
      <trkpt lat="44.93678" lon="1.03437">
        <ele>111</ele>
        <time>2014-08-18T10:10:36Z</time>
      </trkpt>
      <trkpt lat="44.93671" lon="1.03439">
        <ele>112</ele>
        <time>2014-08-18T10:10:38Z</time>
      </trkpt>
      <trkpt lat="44.93659" lon="1.03444">
        <ele>112</ele>
        <time>2014-08-18T10:10:41Z</time>
      </trkpt>
      <trkpt lat="44.93652" lon="1.03447">
        <ele>113</ele>
        <time>2014-08-18T10:10:43Z</time>
      </trkpt>
      <trkpt lat="44.93644" lon="1.0345">
        <ele>113</ele>
        <time>2014-08-18T10:10:45Z</time>
      </trkpt>
      <trkpt lat="44.93636" lon="1.03454">
        <ele>114</ele>
        <time>2014-08-18T10:10:47Z</time>
      </trkpt>
      <trkpt lat="44.93628" lon="1.03456">
        <ele>114</ele>
        <time>2014-08-18T10:10:49Z</time>
      </trkpt>
      <trkpt lat="44.9362" lon="1.0346">
        <ele>115</ele>
        <time>2014-08-18T10:10:51Z</time>
      </trkpt>
      <trkpt lat="44.93613" lon="1.03464">
        <ele>115</ele>
        <time>2014-08-18T10:10:53Z</time>
      </trkpt>
      <trkpt lat="44.93607" lon="1.03466">
        <ele>116</ele>
        <time>2014-08-18T10:10:55Z</time>
      </trkpt>
      <trkpt lat="44.93602" lon="1.03469">
        <ele>117</ele>
        <time>2014-08-18T10:10:57Z</time>
      </trkpt>
      <trkpt lat="44.93596" lon="1.03471">
        <ele>117</ele>
        <time>2014-08-18T10:10:59Z</time>
      </trkpt>
      <trkpt lat="44.93588" lon="1.03473">
        <ele>118</ele>
        <time>2014-08-18T10:11:02Z</time>
      </trkpt>
      <trkpt lat="44.93583" lon="1.03475">
        <ele>118</ele>
        <time>2014-08-18T10:11:04Z</time>
      </trkpt>
      <trkpt lat="44.93576" lon="1.03478">
        <ele>119</ele>
        <time>2014-08-18T10:11:07Z</time>
      </trkpt>
      <trkpt lat="44.93569" lon="1.0348">
        <ele>120</ele>
        <time>2014-08-18T10:11:10Z</time>
      </trkpt>
      <trkpt lat="44.93565" lon="1.03481">
        <ele>120</ele>
        <time>2014-08-18T10:11:12Z</time>
      </trkpt>
      <trkpt lat="44.9356" lon="1.03485">
        <ele>121</ele>
        <time>2014-08-18T10:11:15Z</time>
      </trkpt>
      <trkpt lat="44.93555" lon="1.03487">
        <ele>122</ele>
        <time>2014-08-18T10:11:17Z</time>
      </trkpt>
      <trkpt lat="44.93549" lon="1.03491">
        <ele>123</ele>
        <time>2014-08-18T10:11:19Z</time>
      </trkpt>
      <trkpt lat="44.93541" lon="1.03494">
        <ele>123</ele>
        <time>2014-08-18T10:11:21Z</time>
      </trkpt>
      <trkpt lat="44.93535" lon="1.03497">
        <ele>123</ele>
        <time>2014-08-18T10:11:23Z</time>
      </trkpt>
      <trkpt lat="44.93531" lon="1.03498">
        <ele>124</ele>
        <time>2014-08-18T10:11:25Z</time>
      </trkpt>
      <trkpt lat="44.93528" lon="1.035">
        <ele>124</ele>
        <time>2014-08-18T10:11:27Z</time>
      </trkpt>
      <trkpt lat="44.93525" lon="1.03503">
        <ele>125</ele>
        <time>2014-08-18T10:11:29Z</time>
      </trkpt>
      <trkpt lat="44.93519" lon="1.03507">
        <ele>126</ele>
        <time>2014-08-18T10:11:32Z</time>
      </trkpt>
      <trkpt lat="44.93514" lon="1.0351">
        <ele>126</ele>
        <time>2014-08-18T10:11:34Z</time>
      </trkpt>
      <trkpt lat="44.93508" lon="1.03515">
        <ele>127</ele>
        <time>2014-08-18T10:11:36Z</time>
      </trkpt>
      <trkpt lat="44.93503" lon="1.03519">
        <ele>127</ele>
        <time>2014-08-18T10:11:38Z</time>
      </trkpt>
      <trkpt lat="44.93496" lon="1.03523">
        <ele>128</ele>
        <time>2014-08-18T10:11:40Z</time>
      </trkpt>
      <trkpt lat="44.93491" lon="1.03525">
        <ele>128</ele>
        <time>2014-08-18T10:11:42Z</time>
      </trkpt>
      <trkpt lat="44.93485" lon="1.03529">
        <ele>129</ele>
        <time>2014-08-18T10:11:45Z</time>
      </trkpt>
      <trkpt lat="44.93479" lon="1.03535">
        <ele>130</ele>
        <time>2014-08-18T10:11:48Z</time>
      </trkpt>
      <trkpt lat="44.93474" lon="1.03538">
        <ele>131</ele>
        <time>2014-08-18T10:11:50Z</time>
      </trkpt>
      <trkpt lat="44.9347" lon="1.03541">
        <ele>131</ele>
        <time>2014-08-18T10:11:52Z</time>
      </trkpt>
      <trkpt lat="44.93466" lon="1.03543">
        <ele>131</ele>
        <time>2014-08-18T10:11:54Z</time>
      </trkpt>
      <trkpt lat="44.93459" lon="1.03548">
        <ele>132</ele>
        <time>2014-08-18T10:11:57Z</time>
      </trkpt>
      <trkpt lat="44.93454" lon="1.03551">
        <ele>132</ele>
        <time>2014-08-18T10:11:59Z</time>
      </trkpt>
      <trkpt lat="44.93448" lon="1.03554">
        <ele>133</ele>
        <time>2014-08-18T10:12:01Z</time>
      </trkpt>
      <trkpt lat="44.93444" lon="1.0356">
        <ele>134</ele>
        <time>2014-08-18T10:12:03Z</time>
      </trkpt>
      <trkpt lat="44.9344" lon="1.03565">
        <ele>135</ele>
        <time>2014-08-18T10:12:05Z</time>
      </trkpt>
      <trkpt lat="44.93437" lon="1.03572">
        <ele>135</ele>
        <time>2014-08-18T10:12:07Z</time>
      </trkpt>
      <trkpt lat="44.9343" lon="1.03583">
        <ele>136</ele>
        <time>2014-08-18T10:12:10Z</time>
      </trkpt>
      <trkpt lat="44.93423" lon="1.0359">
        <ele>137</ele>
        <time>2014-08-18T10:12:12Z</time>
      </trkpt>
      <trkpt lat="44.93417" lon="1.03597">
        <ele>137</ele>
        <time>2014-08-18T10:12:14Z</time>
      </trkpt>
      <trkpt lat="44.93411" lon="1.03607">
        <ele>138</ele>
        <time>2014-08-18T10:12:17Z</time>
      </trkpt>
      <trkpt lat="44.93407" lon="1.03613">
        <ele>139</ele>
        <time>2014-08-18T10:12:19Z</time>
      </trkpt>
      <trkpt lat="44.93402" lon="1.03621">
        <ele>139</ele>
        <time>2014-08-18T10:12:22Z</time>
      </trkpt>
      <trkpt lat="44.93399" lon="1.03627">
        <ele>140</ele>
        <time>2014-08-18T10:12:24Z</time>
      </trkpt>
      <trkpt lat="44.93397" lon="1.03633">
        <ele>141</ele>
        <time>2014-08-18T10:12:26Z</time>
      </trkpt>
      <trkpt lat="44.93393" lon="1.0364">
        <ele>142</ele>
        <time>2014-08-18T10:12:28Z</time>
      </trkpt>
      <trkpt lat="44.9339" lon="1.03647">
        <ele>143</ele>
        <time>2014-08-18T10:12:30Z</time>
      </trkpt>
      <trkpt lat="44.93388" lon="1.03655">
        <ele>143</ele>
        <time>2014-08-18T10:12:32Z</time>
      </trkpt>
      <trkpt lat="44.93387" lon="1.03662">
        <ele>144</ele>
        <time>2014-08-18T10:12:34Z</time>
      </trkpt>
      <trkpt lat="44.93388" lon="1.03669">
        <ele>145</ele>
        <time>2014-08-18T10:12:36Z</time>
      </trkpt>
      <trkpt lat="44.9339" lon="1.03675">
        <ele>146</ele>
        <time>2014-08-18T10:12:38Z</time>
      </trkpt>
      <trkpt lat="44.93392" lon="1.03679">
        <ele>146</ele>
        <time>2014-08-18T10:12:40Z</time>
      </trkpt>
      <trkpt lat="44.93396" lon="1.03683">
        <ele>147</ele>
        <time>2014-08-18T10:12:42Z</time>
      </trkpt>
      <trkpt lat="44.93399" lon="1.03688">
        <ele>147</ele>
        <time>2014-08-18T10:12:44Z</time>
      </trkpt>
      <trkpt lat="44.93404" lon="1.03694">
        <ele>147</ele>
        <time>2014-08-18T10:12:47Z</time>
      </trkpt>
      <trkpt lat="44.93408" lon="1.03699">
        <ele>148</ele>
        <time>2014-08-18T10:12:49Z</time>
      </trkpt>
      <trkpt lat="44.93412" lon="1.03703">
        <ele>149</ele>
        <time>2014-08-18T10:12:51Z</time>
      </trkpt>
      <trkpt lat="44.93416" lon="1.03708">
        <ele>149</ele>
        <time>2014-08-18T10:12:53Z</time>
      </trkpt>
      <trkpt lat="44.9342" lon="1.03711">
        <ele>150</ele>
        <time>2014-08-18T10:12:55Z</time>
      </trkpt>
      <trkpt lat="44.93423" lon="1.03715">
        <ele>151</ele>
        <time>2014-08-18T10:12:57Z</time>
      </trkpt>
      <trkpt lat="44.93427" lon="1.03719">
        <ele>152</ele>
        <time>2014-08-18T10:12:59Z</time>
      </trkpt>
      <trkpt lat="44.93431" lon="1.03722">
        <ele>152</ele>
        <time>2014-08-18T10:13:01Z</time>
      </trkpt>
      <trkpt lat="44.93435" lon="1.03726">
        <ele>153</ele>
        <time>2014-08-18T10:13:03Z</time>
      </trkpt>
      <trkpt lat="44.93437" lon="1.03729">
        <ele>153</ele>
        <time>2014-08-18T10:13:05Z</time>
      </trkpt>
      <trkpt lat="44.93439" lon="1.03734">
        <ele>154</ele>
        <time>2014-08-18T10:13:07Z</time>
      </trkpt>
      <trkpt lat="44.93441" lon="1.03738">
        <ele>155</ele>
        <time>2014-08-18T10:13:09Z</time>
      </trkpt>
      <trkpt lat="44.93443" lon="1.03744">
        <ele>156</ele>
        <time>2014-08-18T10:13:12Z</time>
      </trkpt>
      <trkpt lat="44.93444" lon="1.03746">
        <ele>156</ele>
        <time>2014-08-18T10:13:14Z</time>
      </trkpt>
      <trkpt lat="44.93445" lon="1.03751">
        <ele>157</ele>
        <time>2014-08-18T10:13:16Z</time>
      </trkpt>
      <trkpt lat="44.93444" lon="1.03754">
        <ele>157</ele>
        <time>2014-08-18T10:13:18Z</time>
      </trkpt>
      <trkpt lat="44.93443" lon="1.03758">
        <ele>158</ele>
        <time>2014-08-18T10:13:20Z</time>
      </trkpt>
      <trkpt lat="44.93442" lon="1.03762">
        <ele>159</ele>
        <time>2014-08-18T10:13:22Z</time>
      </trkpt>
      <trkpt lat="44.9344" lon="1.03765">
        <ele>159</ele>
        <time>2014-08-18T10:13:24Z</time>
      </trkpt>
      <trkpt lat="44.93439" lon="1.0377">
        <ele>160</ele>
        <time>2014-08-18T10:13:26Z</time>
      </trkpt>
      <trkpt lat="44.93439" lon="1.03774">
        <ele>161</ele>
        <time>2014-08-18T10:13:28Z</time>
      </trkpt>
      <trkpt lat="44.93438" lon="1.03777">
        <ele>161</ele>
        <time>2014-08-18T10:13:30Z</time>
      </trkpt>
      <trkpt lat="44.93437" lon="1.03781">
        <ele>162</ele>
        <time>2014-08-18T10:13:32Z</time>
      </trkpt>
      <trkpt lat="44.93436" lon="1.03785">
        <ele>163</ele>
        <time>2014-08-18T10:13:34Z</time>
      </trkpt>
      <trkpt lat="44.93432" lon="1.03793">
        <ele>163</ele>
        <time>2014-08-18T10:13:37Z</time>
      </trkpt>
      <trkpt lat="44.9343" lon="1.03798">
        <ele>164</ele>
        <time>2014-08-18T10:13:39Z</time>
      </trkpt>
      <trkpt lat="44.93429" lon="1.03805">
        <ele>164</ele>
        <time>2014-08-18T10:13:41Z</time>
      </trkpt>
      <trkpt lat="44.93428" lon="1.03812">
        <ele>165</ele>
        <time>2014-08-18T10:13:43Z</time>
      </trkpt>
      <trkpt lat="44.93427" lon="1.0382">
        <ele>165</ele>
        <time>2014-08-18T10:13:45Z</time>
      </trkpt>
      <trkpt lat="44.93427" lon="1.03827">
        <ele>166</ele>
        <time>2014-08-18T10:13:47Z</time>
      </trkpt>
      <trkpt lat="44.93427" lon="1.03835">
        <ele>166</ele>
        <time>2014-08-18T10:13:49Z</time>
      </trkpt>
      <trkpt lat="44.93428" lon="1.03844">
        <ele>167</ele>
        <time>2014-08-18T10:13:51Z</time>
      </trkpt>
      <trkpt lat="44.93428" lon="1.03854">
        <ele>168</ele>
        <time>2014-08-18T10:13:54Z</time>
      </trkpt>
      <trkpt lat="44.93427" lon="1.0386">
        <ele>169</ele>
        <time>2014-08-18T10:13:56Z</time>
      </trkpt>
      <trkpt lat="44.93426" lon="1.03865">
        <ele>169</ele>
        <time>2014-08-18T10:13:58Z</time>
      </trkpt>
      <trkpt lat="44.93425" lon="1.0387">
        <ele>169</ele>
        <time>2014-08-18T10:14:00Z</time>
      </trkpt>
      <trkpt lat="44.93424" lon="1.03878">
        <ele>170</ele>
        <time>2014-08-18T10:14:03Z</time>
      </trkpt>
      <trkpt lat="44.93423" lon="1.03884">
        <ele>170</ele>
        <time>2014-08-18T10:14:05Z</time>
      </trkpt>
      <trkpt lat="44.93421" lon="1.0389">
        <ele>171</ele>
        <time>2014-08-18T10:14:07Z</time>
      </trkpt>
      <trkpt lat="44.93418" lon="1.03897">
        <ele>171</ele>
        <time>2014-08-18T10:14:09Z</time>
      </trkpt>
      <trkpt lat="44.93416" lon="1.03905">
        <ele>171</ele>
        <time>2014-08-18T10:14:11Z</time>
      </trkpt>
      <trkpt lat="44.93412" lon="1.03914">
        <ele>171</ele>
        <time>2014-08-18T10:14:13Z</time>
      </trkpt>
      <trkpt lat="44.93408" lon="1.03926">
        <ele>171</ele>
        <time>2014-08-18T10:14:15Z</time>
      </trkpt>
      <trkpt lat="44.93404" lon="1.03938">
        <ele>171</ele>
        <time>2014-08-18T10:14:17Z</time>
      </trkpt>
      <trkpt lat="44.934" lon="1.0395">
        <ele>171</ele>
        <time>2014-08-18T10:14:19Z</time>
      </trkpt>
      <trkpt lat="44.93396" lon="1.03964">
        <ele>170</ele>
        <time>2014-08-18T10:14:21Z</time>
      </trkpt>
      <trkpt lat="44.93392" lon="1.03981">
        <ele>170</ele>
        <time>2014-08-18T10:14:23Z</time>
      </trkpt>
      <trkpt lat="44.93387" lon="1.04008">
        <ele>170</ele>
        <time>2014-08-18T10:14:26Z</time>
      </trkpt>
      <trkpt lat="44.93379" lon="1.04036">
        <ele>169</ele>
        <time>2014-08-18T10:14:29Z</time>
      </trkpt>
      <trkpt lat="44.93366" lon="1.04063">
        <ele>168</ele>
        <time>2014-08-18T10:14:32Z</time>
      </trkpt>
      <trkpt lat="44.93354" lon="1.04072">
        <ele>167</ele>
        <time>2014-08-18T10:14:34Z</time>
      </trkpt>
      <trkpt lat="44.93337" lon="1.04101">
        <ele>165</ele>
        <time>2014-08-18T10:14:37Z</time>
      </trkpt>
      <trkpt lat="44.93327" lon="1.04136">
        <ele>164</ele>
        <time>2014-08-18T10:14:40Z</time>
      </trkpt>
      <trkpt lat="44.93323" lon="1.04161">
        <ele>163</ele>
        <time>2014-08-18T10:14:42Z</time>
      </trkpt>
      <trkpt lat="44.93322" lon="1.04186">
        <ele>162</ele>
        <time>2014-08-18T10:14:44Z</time>
      </trkpt>
      <trkpt lat="44.93321" lon="1.04225">
        <ele>162</ele>
        <time>2014-08-18T10:14:47Z</time>
      </trkpt>
      <trkpt lat="44.93321" lon="1.0425">
        <ele>161</ele>
        <time>2014-08-18T10:14:49Z</time>
      </trkpt>
      <trkpt lat="44.93322" lon="1.04284">
        <ele>161</ele>
        <time>2014-08-18T10:14:52Z</time>
      </trkpt>
      <trkpt lat="44.93322" lon="1.04306">
        <ele>161</ele>
        <time>2014-08-18T10:14:54Z</time>
      </trkpt>
      <trkpt lat="44.93322" lon="1.04336">
        <ele>161</ele>
        <time>2014-08-18T10:14:57Z</time>
      </trkpt>
      <trkpt lat="44.93324" lon="1.04357">
        <ele>161</ele>
        <time>2014-08-18T10:14:59Z</time>
      </trkpt>
      <trkpt lat="44.93327" lon="1.04376">
        <ele>162</ele>
        <time>2014-08-18T10:15:01Z</time>
      </trkpt>
      <trkpt lat="44.93334" lon="1.04401">
        <ele>162</ele>
        <time>2014-08-18T10:15:04Z</time>
      </trkpt>
      <trkpt lat="44.9334" lon="1.04415">
        <ele>163</ele>
        <time>2014-08-18T10:15:06Z</time>
      </trkpt>
      <trkpt lat="44.93349" lon="1.04433">
        <ele>163</ele>
        <time>2014-08-18T10:15:09Z</time>
      </trkpt>
      <trkpt lat="44.93358" lon="1.04448">
        <ele>164</ele>
        <time>2014-08-18T10:15:12Z</time>
      </trkpt>
      <trkpt lat="44.93365" lon="1.04462">
        <ele>165</ele>
        <time>2014-08-18T10:15:15Z</time>
      </trkpt>
      <trkpt lat="44.93372" lon="1.0448">
        <ele>165</ele>
        <time>2014-08-18T10:15:18Z</time>
      </trkpt>
      <trkpt lat="44.93375" lon="1.04492">
        <ele>166</ele>
        <time>2014-08-18T10:15:20Z</time>
      </trkpt>
      <trkpt lat="44.93379" lon="1.04509">
        <ele>166</ele>
        <time>2014-08-18T10:15:23Z</time>
      </trkpt>
      <trkpt lat="44.93379" lon="1.04519">
        <ele>167</ele>
        <time>2014-08-18T10:15:25Z</time>
      </trkpt>
      <trkpt lat="44.9338" lon="1.0453">
        <ele>168</ele>
        <time>2014-08-18T10:15:27Z</time>
      </trkpt>
      <trkpt lat="44.9338" lon="1.04541">
        <ele>169</ele>
        <time>2014-08-18T10:15:29Z</time>
      </trkpt>
      <trkpt lat="44.93377" lon="1.04557">
        <ele>170</ele>
        <time>2014-08-18T10:15:32Z</time>
      </trkpt>
      <trkpt lat="44.93374" lon="1.04571">
        <ele>171</ele>
        <time>2014-08-18T10:15:35Z</time>
      </trkpt>
      <trkpt lat="44.9337" lon="1.04584">
        <ele>172</ele>
        <time>2014-08-18T10:15:38Z</time>
      </trkpt>
      <trkpt lat="44.93369" lon="1.04593">
        <ele>172</ele>
        <time>2014-08-18T10:15:40Z</time>
      </trkpt>
      <trkpt lat="44.93367" lon="1.04606">
        <ele>173</ele>
        <time>2014-08-18T10:15:43Z</time>
      </trkpt>
      <trkpt lat="44.93366" lon="1.04615">
        <ele>173</ele>
        <time>2014-08-18T10:15:45Z</time>
      </trkpt>
      <trkpt lat="44.93364" lon="1.04626">
        <ele>173</ele>
        <time>2014-08-18T10:15:47Z</time>
      </trkpt>
      <trkpt lat="44.93364" lon="1.04644">
        <ele>173</ele>
        <time>2014-08-18T10:15:50Z</time>
      </trkpt>
      <trkpt lat="44.93364" lon="1.04658">
        <ele>173</ele>
        <time>2014-08-18T10:15:52Z</time>
      </trkpt>
      <trkpt lat="44.93363" lon="1.04673">
        <ele>173</ele>
        <time>2014-08-18T10:15:54Z</time>
      </trkpt>
      <trkpt lat="44.93361" lon="1.04696">
        <ele>173</ele>
        <time>2014-08-18T10:15:57Z</time>
      </trkpt>
      <trkpt lat="44.93358" lon="1.04712">
        <ele>173</ele>
        <time>2014-08-18T10:15:59Z</time>
      </trkpt>
      <trkpt lat="44.93356" lon="1.04728">
        <ele>172</ele>
        <time>2014-08-18T10:16:01Z</time>
      </trkpt>
      <trkpt lat="44.93357" lon="1.04746">
        <ele>172</ele>
        <time>2014-08-18T10:16:03Z</time>
      </trkpt>
      <trkpt lat="44.93357" lon="1.04771">
        <ele>172</ele>
        <time>2014-08-18T10:16:06Z</time>
      </trkpt>
      <trkpt lat="44.93356" lon="1.04786">
        <ele>172</ele>
        <time>2014-08-18T10:16:08Z</time>
      </trkpt>
      <trkpt lat="44.93359" lon="1.04806">
        <ele>171</ele>
        <time>2014-08-18T10:16:11Z</time>
      </trkpt>
      <trkpt lat="44.93356" lon="1.0482">
        <ele>171</ele>
        <time>2014-08-18T10:16:13Z</time>
      </trkpt>
      <trkpt lat="44.93348" lon="1.04832">
        <ele>171</ele>
        <time>2014-08-18T10:16:15Z</time>
      </trkpt>
      <trkpt lat="44.93332" lon="1.04841">
        <ele>170</ele>
        <time>2014-08-18T10:16:18Z</time>
      </trkpt>
      <trkpt lat="44.9332" lon="1.04847">
        <ele>170</ele>
        <time>2014-08-18T10:16:20Z</time>
      </trkpt>
      <trkpt lat="44.9331" lon="1.04855">
        <ele>170</ele>
        <time>2014-08-18T10:16:22Z</time>
      </trkpt>
      <trkpt lat="44.93293" lon="1.04871">
        <ele>170</ele>
        <time>2014-08-18T10:16:25Z</time>
      </trkpt>
      <trkpt lat="44.93281" lon="1.04887">
        <ele>170</ele>
        <time>2014-08-18T10:16:28Z</time>
      </trkpt>
      <trkpt lat="44.93272" lon="1.04897">
        <ele>171</ele>
        <time>2014-08-18T10:16:30Z</time>
      </trkpt>
      <trkpt lat="44.93264" lon="1.04908">
        <ele>171</ele>
        <time>2014-08-18T10:16:32Z</time>
      </trkpt>
      <trkpt lat="44.93253" lon="1.04923">
        <ele>171</ele>
        <time>2014-08-18T10:16:35Z</time>
      </trkpt>
      <trkpt lat="44.93244" lon="1.04938">
        <ele>172</ele>
        <time>2014-08-18T10:16:38Z</time>
      </trkpt>
      <trkpt lat="44.93239" lon="1.04949">
        <ele>172</ele>
        <time>2014-08-18T10:16:40Z</time>
      </trkpt>
      <trkpt lat="44.93234" lon="1.04959">
        <ele>172</ele>
        <time>2014-08-18T10:16:42Z</time>
      </trkpt>
      <trkpt lat="44.93228" lon="1.04973">
        <ele>173</ele>
        <time>2014-08-18T10:16:45Z</time>
      </trkpt>
      <trkpt lat="44.93225" lon="1.04982">
        <ele>173</ele>
        <time>2014-08-18T10:16:47Z</time>
      </trkpt>
      <trkpt lat="44.93221" lon="1.04989">
        <ele>174</ele>
        <time>2014-08-18T10:16:49Z</time>
      </trkpt>
      <trkpt lat="44.93216" lon="1.04996">
        <ele>175</ele>
        <time>2014-08-18T10:16:51Z</time>
      </trkpt>
      <trkpt lat="44.93211" lon="1.04999">
        <ele>175</ele>
        <time>2014-08-18T10:16:53Z</time>
      </trkpt>
      <trkpt lat="44.93205" lon="1.05003">
        <ele>176</ele>
        <time>2014-08-18T10:16:55Z</time>
      </trkpt>
      <trkpt lat="44.93198" lon="1.05005">
        <ele>177</ele>
        <time>2014-08-18T10:16:57Z</time>
      </trkpt>
      <trkpt lat="44.93189" lon="1.05006">
        <ele>178</ele>
        <time>2014-08-18T10:17:00Z</time>
      </trkpt>
      <trkpt lat="44.93184" lon="1.05007">
        <ele>179</ele>
        <time>2014-08-18T10:17:02Z</time>
      </trkpt>
      <trkpt lat="44.93178" lon="1.05006">
        <ele>180</ele>
        <time>2014-08-18T10:17:04Z</time>
      </trkpt>
      <trkpt lat="44.93171" lon="1.05007">
        <ele>181</ele>
        <time>2014-08-18T10:17:06Z</time>
      </trkpt>
      <trkpt lat="44.93164" lon="1.05008">
        <ele>182</ele>
        <time>2014-08-18T10:17:08Z</time>
      </trkpt>
      <trkpt lat="44.93156" lon="1.05009">
        <ele>182</ele>
        <time>2014-08-18T10:17:10Z</time>
      </trkpt>
      <trkpt lat="44.93149" lon="1.05011">
        <ele>183</ele>
        <time>2014-08-18T10:17:12Z</time>
      </trkpt>
      <trkpt lat="44.93143" lon="1.05015">
        <ele>183</ele>
        <time>2014-08-18T10:17:14Z</time>
      </trkpt>
      <trkpt lat="44.93139" lon="1.05017">
        <ele>184</ele>
        <time>2014-08-18T10:17:16Z</time>
      </trkpt>
      <trkpt lat="44.93135" lon="1.05021">
        <ele>185</ele>
        <time>2014-08-18T10:17:18Z</time>
      </trkpt>
      <trkpt lat="44.9313" lon="1.05025">
        <ele>185</ele>
        <time>2014-08-18T10:17:20Z</time>
      </trkpt>
      <trkpt lat="44.93124" lon="1.05029">
        <ele>186</ele>
        <time>2014-08-18T10:17:22Z</time>
      </trkpt>
      <trkpt lat="44.93117" lon="1.05036">
        <ele>187</ele>
        <time>2014-08-18T10:17:25Z</time>
      </trkpt>
      <trkpt lat="44.93111" lon="1.05039">
        <ele>187</ele>
        <time>2014-08-18T10:17:27Z</time>
      </trkpt>
      <trkpt lat="44.93104" lon="1.05041">
        <ele>188</ele>
        <time>2014-08-18T10:17:29Z</time>
      </trkpt>
      <trkpt lat="44.93099" lon="1.05042">
        <ele>188</ele>
        <time>2014-08-18T10:17:31Z</time>
      </trkpt>
      <trkpt lat="44.93095" lon="1.05045">
        <ele>189</ele>
        <time>2014-08-18T10:17:33Z</time>
      </trkpt>
      <trkpt lat="44.93085" lon="1.0505">
        <ele>189</ele>
        <time>2014-08-18T10:17:36Z</time>
      </trkpt>
      <trkpt lat="44.93079" lon="1.05056">
        <ele>189</ele>
        <time>2014-08-18T10:17:38Z</time>
      </trkpt>
      <trkpt lat="44.93071" lon="1.05063">
        <ele>189</ele>
        <time>2014-08-18T10:17:40Z</time>
      </trkpt>
      <trkpt lat="44.93065" lon="1.0507">
        <ele>189</ele>
        <time>2014-08-18T10:17:42Z</time>
      </trkpt>
      <trkpt lat="44.93059" lon="1.05079">
        <ele>190</ele>
        <time>2014-08-18T10:17:45Z</time>
      </trkpt>
      <trkpt lat="44.93053" lon="1.05087">
        <ele>190</ele>
        <time>2014-08-18T10:17:47Z</time>
      </trkpt>
      <trkpt lat="44.93038" lon="1.05096">
        <ele>190</ele>
        <time>2014-08-18T10:17:50Z</time>
      </trkpt>
      <trkpt lat="44.93028" lon="1.05102">
        <ele>190</ele>
        <time>2014-08-18T10:17:52Z</time>
      </trkpt>
      <trkpt lat="44.93019" lon="1.05108">
        <ele>190</ele>
        <time>2014-08-18T10:17:54Z</time>
      </trkpt>
      <trkpt lat="44.93007" lon="1.05122">
        <ele>190</ele>
        <time>2014-08-18T10:17:57Z</time>
      </trkpt>
      <trkpt lat="44.92997" lon="1.05134">
        <ele>190</ele>
        <time>2014-08-18T10:17:59Z</time>
      </trkpt>
      <trkpt lat="44.92985" lon="1.05157">
        <ele>189</ele>
        <time>2014-08-18T10:18:02Z</time>
      </trkpt>
      <trkpt lat="44.92972" lon="1.05184">
        <ele>188</ele>
        <time>2014-08-18T10:18:05Z</time>
      </trkpt>
      <trkpt lat="44.92964" lon="1.05223">
        <ele>186</ele>
        <time>2014-08-18T10:18:08Z</time>
      </trkpt>
      <trkpt lat="44.92963" lon="1.05253">
        <ele>184</ele>
        <time>2014-08-18T10:18:10Z</time>
      </trkpt>
      <trkpt lat="44.92963" lon="1.05299">
        <ele>183</ele>
        <time>2014-08-18T10:18:13Z</time>
      </trkpt>
      <trkpt lat="44.92958" lon="1.05358">
        <ele>181</ele>
        <time>2014-08-18T10:18:17Z</time>
      </trkpt>
      <trkpt lat="44.92952" lon="1.05397">
        <ele>180</ele>
        <time>2014-08-18T10:18:20Z</time>
      </trkpt>
      <trkpt lat="44.9295" lon="1.05421">
        <ele>180</ele>
        <time>2014-08-18T10:18:22Z</time>
      </trkpt>
      <trkpt lat="44.92948" lon="1.05449">
        <ele>179</ele>
        <time>2014-08-18T10:18:25Z</time>
      </trkpt>
      <trkpt lat="44.92946" lon="1.05468">
        <ele>179</ele>
        <time>2014-08-18T10:18:28Z</time>
      </trkpt>
      <trkpt lat="44.92945" lon="1.05479">
        <ele>179</ele>
        <time>2014-08-18T10:18:30Z</time>
      </trkpt>
      <trkpt lat="44.92932" lon="1.05527">
        <ele>179</ele>
        <time>2014-08-18T10:18:33Z</time>
      </trkpt>
      <trkpt lat="44.92928" lon="1.05533">
        <ele>179</ele>
        <time>2014-08-18T10:18:35Z</time>
      </trkpt>
      <trkpt lat="44.92924" lon="1.05539">
        <ele>179</ele>
        <time>2014-08-18T10:18:37Z</time>
      </trkpt>
      <trkpt lat="44.9292" lon="1.05546">
        <ele>179</ele>
        <time>2014-08-18T10:18:39Z</time>
      </trkpt>
      <trkpt lat="44.92913" lon="1.05558">
        <ele>179</ele>
        <time>2014-08-18T10:18:42Z</time>
      </trkpt>
      <trkpt lat="44.92912" lon="1.05574">
        <ele>179</ele>
        <time>2014-08-18T10:18:44Z</time>
      </trkpt>
      <trkpt lat="44.92914" lon="1.05584">
        <ele>179</ele>
        <time>2014-08-18T10:18:46Z</time>
      </trkpt>
      <trkpt lat="44.92916" lon="1.05595">
        <ele>179</ele>
        <time>2014-08-18T10:18:48Z</time>
      </trkpt>
      <trkpt lat="44.92916" lon="1.05607">
        <ele>180</ele>
        <time>2014-08-18T10:18:51Z</time>
      </trkpt>
      <trkpt lat="44.92916" lon="1.05619">
        <ele>180</ele>
        <time>2014-08-18T10:18:53Z</time>
      </trkpt>
      <trkpt lat="44.92915" lon="1.05632">
        <ele>180</ele>
        <time>2014-08-18T10:18:55Z</time>
      </trkpt>
      <trkpt lat="44.92914" lon="1.05646">
        <ele>180</ele>
        <time>2014-08-18T10:18:57Z</time>
      </trkpt>
      <trkpt lat="44.92914" lon="1.05659">
        <ele>180</ele>
        <time>2014-08-18T10:18:59Z</time>
      </trkpt>
      <trkpt lat="44.92915" lon="1.05678">
        <ele>180</ele>
        <time>2014-08-18T10:19:02Z</time>
      </trkpt>
      <trkpt lat="44.92918" lon="1.05687">
        <ele>181</ele>
        <time>2014-08-18T10:19:04Z</time>
      </trkpt>
      <trkpt lat="44.92924" lon="1.05693">
        <ele>181</ele>
        <time>2014-08-18T10:19:07Z</time>
      </trkpt>
      <trkpt lat="44.92928" lon="1.05694">
        <ele>181</ele>
        <time>2014-08-18T10:19:09Z</time>
      </trkpt>
      <trkpt lat="44.92935" lon="1.05698">
        <ele>181</ele>
        <time>2014-08-18T10:19:11Z</time>
      </trkpt>
      <trkpt lat="44.92947" lon="1.05702">
        <ele>180</ele>
        <time>2014-08-18T10:19:13Z</time>
      </trkpt>
      <trkpt lat="44.92971" lon="1.0571">
        <ele>177</ele>
        <time>2014-08-18T10:19:16Z</time>
      </trkpt>
      <trkpt lat="44.92997" lon="1.05712">
        <ele>174</ele>
        <time>2014-08-18T10:19:19Z</time>
      </trkpt>
      <trkpt lat="44.93018" lon="1.05714">
        <ele>169</ele>
        <time>2014-08-18T10:19:22Z</time>
      </trkpt>
      <trkpt lat="44.93027" lon="1.05705">
        <ele>167</ele>
        <time>2014-08-18T10:19:24Z</time>
      </trkpt>
      <trkpt lat="44.93035" lon="1.05697">
        <ele>164</ele>
        <time>2014-08-18T10:19:26Z</time>
      </trkpt>
      <trkpt lat="44.93049" lon="1.05697">
        <ele>162</ele>
        <time>2014-08-18T10:19:28Z</time>
      </trkpt>
      <trkpt lat="44.93072" lon="1.05707">
        <ele>160</ele>
        <time>2014-08-18T10:19:30Z</time>
      </trkpt>
      <trkpt lat="44.93089" lon="1.05712">
        <ele>158</ele>
        <time>2014-08-18T10:19:32Z</time>
      </trkpt>
      <trkpt lat="44.93106" lon="1.05715">
        <ele>155</ele>
        <time>2014-08-18T10:19:34Z</time>
      </trkpt>
      <trkpt lat="44.93122" lon="1.0572">
        <ele>153</ele>
        <time>2014-08-18T10:19:36Z</time>
      </trkpt>
      <trkpt lat="44.93134" lon="1.05725">
        <ele>150</ele>
        <time>2014-08-18T10:19:38Z</time>
      </trkpt>
      <trkpt lat="44.93147" lon="1.05731">
        <ele>147</ele>
        <time>2014-08-18T10:19:41Z</time>
      </trkpt>
      <trkpt lat="44.93161" lon="1.05742">
        <ele>144</ele>
        <time>2014-08-18T10:19:43Z</time>
      </trkpt>
      <trkpt lat="44.93176" lon="1.05754">
        <ele>142</ele>
        <time>2014-08-18T10:19:45Z</time>
      </trkpt>
      <trkpt lat="44.93193" lon="1.05766">
        <ele>140</ele>
        <time>2014-08-18T10:19:47Z</time>
      </trkpt>
      <trkpt lat="44.9321" lon="1.05777">
        <ele>137</ele>
        <time>2014-08-18T10:19:49Z</time>
      </trkpt>
      <trkpt lat="44.93229" lon="1.05784">
        <ele>134</ele>
        <time>2014-08-18T10:19:51Z</time>
      </trkpt>
      <trkpt lat="44.93252" lon="1.05804">
        <ele>131</ele>
        <time>2014-08-18T10:19:53Z</time>
      </trkpt>
      <trkpt lat="44.93268" lon="1.05817">
        <ele>128</ele>
        <time>2014-08-18T10:19:56Z</time>
      </trkpt>
      <trkpt lat="44.93285" lon="1.05836">
        <ele>125</ele>
        <time>2014-08-18T10:19:58Z</time>
      </trkpt>
      <trkpt lat="44.93309" lon="1.05862">
        <ele>121</ele>
        <time>2014-08-18T10:20:01Z</time>
      </trkpt>
      <trkpt lat="44.93339" lon="1.05874">
        <ele>118</ele>
        <time>2014-08-18T10:20:04Z</time>
      </trkpt>
      <trkpt lat="44.9336" lon="1.05877">
        <ele>116</ele>
        <time>2014-08-18T10:20:06Z</time>
      </trkpt>
      <trkpt lat="44.93391" lon="1.0588">
        <ele>113</ele>
        <time>2014-08-18T10:20:08Z</time>
      </trkpt>
      <trkpt lat="44.93409" lon="1.05886">
        <ele>111</ele>
        <time>2014-08-18T10:20:11Z</time>
      </trkpt>
      <trkpt lat="44.93426" lon="1.05892">
        <ele>109</ele>
        <time>2014-08-18T10:20:13Z</time>
      </trkpt>
      <trkpt lat="44.93452" lon="1.05908">
        <ele>106</ele>
        <time>2014-08-18T10:20:15Z</time>
      </trkpt>
      <trkpt lat="44.93467" lon="1.05918">
        <ele>104</ele>
        <time>2014-08-18T10:20:17Z</time>
      </trkpt>
      <trkpt lat="44.9348" lon="1.05932">
        <ele>101</ele>
        <time>2014-08-18T10:20:19Z</time>
      </trkpt>
      <trkpt lat="44.93487" lon="1.05951">
        <ele>99</ele>
        <time>2014-08-18T10:20:21Z</time>
      </trkpt>
      <trkpt lat="44.93492" lon="1.05973">
        <ele>98</ele>
        <time>2014-08-18T10:20:23Z</time>
      </trkpt>
      <trkpt lat="44.93495" lon="1.05997">
        <ele>96</ele>
        <time>2014-08-18T10:20:25Z</time>
      </trkpt>
      <trkpt lat="44.93497" lon="1.06023">
        <ele>95</ele>
        <time>2014-08-18T10:20:27Z</time>
      </trkpt>
      <trkpt lat="44.93497" lon="1.0605">
        <ele>93</ele>
        <time>2014-08-18T10:20:29Z</time>
      </trkpt>
      <trkpt lat="44.93503" lon="1.06092">
        <ele>91</ele>
        <time>2014-08-18T10:20:32Z</time>
      </trkpt>
      <trkpt lat="44.93509" lon="1.06121">
        <ele>88</ele>
        <time>2014-08-18T10:20:34Z</time>
      </trkpt>
      <trkpt lat="44.93516" lon="1.06149">
        <ele>86</ele>
        <time>2014-08-18T10:20:37Z</time>
      </trkpt>
      <trkpt lat="44.93529" lon="1.06188">
        <ele>85</ele>
        <time>2014-08-18T10:20:39Z</time>
      </trkpt>
      <trkpt lat="44.93538" lon="1.06219">
        <ele>82</ele>
        <time>2014-08-18T10:20:42Z</time>
      </trkpt>
      <trkpt lat="44.93554" lon="1.06234">
        <ele>81</ele>
        <time>2014-08-18T10:20:45Z</time>
      </trkpt>
      <trkpt lat="44.93564" lon="1.06256">
        <ele>79</ele>
        <time>2014-08-18T10:20:48Z</time>
      </trkpt>
      <trkpt lat="44.93574" lon="1.06286">
        <ele>78</ele>
        <time>2014-08-18T10:20:51Z</time>
      </trkpt>
      <trkpt lat="44.93585" lon="1.06303">
        <ele>77</ele>
        <time>2014-08-18T10:20:53Z</time>
      </trkpt>
      <trkpt lat="44.93599" lon="1.06317">
        <ele>75</ele>
        <time>2014-08-18T10:20:55Z</time>
      </trkpt>
      <trkpt lat="44.93614" lon="1.06325">
        <ele>74</ele>
        <time>2014-08-18T10:20:57Z</time>
      </trkpt>
      <trkpt lat="44.93628" lon="1.06333">
        <ele>72</ele>
        <time>2014-08-18T10:20:59Z</time>
      </trkpt>
      <trkpt lat="44.9364" lon="1.06345">
        <ele>72</ele>
        <time>2014-08-18T10:21:01Z</time>
      </trkpt>
      <trkpt lat="44.93652" lon="1.06357">
        <ele>71</ele>
        <time>2014-08-18T10:21:04Z</time>
      </trkpt>
      <trkpt lat="44.93665" lon="1.06371">
        <ele>71</ele>
        <time>2014-08-18T10:21:06Z</time>
      </trkpt>
      <trkpt lat="44.93668" lon="1.06374">
        <ele>70</ele>
        <time>2014-08-18T10:21:08Z</time>
      </trkpt>
      <trkpt lat="44.93668" lon="1.06376">
        <ele>69</ele>
        <time>2014-08-18T10:21:11Z</time>
      </trkpt>
      <trkpt lat="44.93668" lon="1.06377">
        <ele>69</ele>
        <time>2014-08-18T10:21:13Z</time>
      </trkpt>
      <trkpt lat="44.93668" lon="1.06378">
        <ele>69</ele>
        <time>2014-08-18T10:21:15Z</time>
      </trkpt>
      <trkpt lat="44.93668" lon="1.06379">
        <ele>69</ele>
        <time>2014-08-18T10:21:17Z</time>
      </trkpt>
      <trkpt lat="44.93668" lon="1.06382">
        <ele>69</ele>
        <time>2014-08-18T10:21:19Z</time>
      </trkpt>
      <trkpt lat="44.93671" lon="1.06386">
        <ele>69</ele>
        <time>2014-08-18T10:21:21Z</time>
      </trkpt>
      <trkpt lat="44.93679" lon="1.0639">
        <ele>69</ele>
        <time>2014-08-18T10:21:24Z</time>
      </trkpt>
      <trkpt lat="44.93684" lon="1.06389">
        <ele>69</ele>
        <time>2014-08-18T10:21:26Z</time>
      </trkpt>
      <trkpt lat="44.93692" lon="1.06387">
        <ele>69</ele>
        <time>2014-08-18T10:21:29Z</time>
      </trkpt>
      <trkpt lat="44.93705" lon="1.06386">
        <ele>69</ele>
        <time>2014-08-18T10:21:31Z</time>
      </trkpt>
      <trkpt lat="44.93713" lon="1.06386">
        <ele>69</ele>
        <time>2014-08-18T10:21:33Z</time>
      </trkpt>
      <trkpt lat="44.93723" lon="1.06385">
        <ele>69</ele>
        <time>2014-08-18T10:21:35Z</time>
      </trkpt>
      <trkpt lat="44.93732" lon="1.06382">
        <ele>68</ele>
        <time>2014-08-18T10:21:37Z</time>
      </trkpt>
      <trkpt lat="44.93741" lon="1.06376">
        <ele>68</ele>
        <time>2014-08-18T10:21:39Z</time>
      </trkpt>
      <trkpt lat="44.93755" lon="1.06372">
        <ele>67</ele>
        <time>2014-08-18T10:21:42Z</time>
      </trkpt>
      <trkpt lat="44.93766" lon="1.06368">
        <ele>67</ele>
        <time>2014-08-18T10:21:44Z</time>
      </trkpt>
      <trkpt lat="44.93774" lon="1.0636">
        <ele>67</ele>
        <time>2014-08-18T10:21:46Z</time>
      </trkpt>
      <trkpt lat="44.93781" lon="1.06351">
        <ele>68</ele>
        <time>2014-08-18T10:21:48Z</time>
      </trkpt>
      <trkpt lat="44.93789" lon="1.06344">
        <ele>68</ele>
        <time>2014-08-18T10:21:50Z</time>
      </trkpt>
      <trkpt lat="44.93798" lon="1.06338">
        <ele>69</ele>
        <time>2014-08-18T10:21:53Z</time>
      </trkpt>
      <trkpt lat="44.93808" lon="1.06331">
        <ele>68</ele>
        <time>2014-08-18T10:21:55Z</time>
      </trkpt>
      <trkpt lat="44.93822" lon="1.06318">
        <ele>68</ele>
        <time>2014-08-18T10:21:57Z</time>
      </trkpt>
      <trkpt lat="44.93829" lon="1.06307">
        <ele>68</ele>
        <time>2014-08-18T10:21:59Z</time>
      </trkpt>
      <trkpt lat="44.93843" lon="1.06284">
        <ele>67</ele>
        <time>2014-08-18T10:22:02Z</time>
      </trkpt>
      <trkpt lat="44.93854" lon="1.06264">
        <ele>66</ele>
        <time>2014-08-18T10:22:04Z</time>
      </trkpt>
      <trkpt lat="44.93866" lon="1.06246">
        <ele>65</ele>
        <time>2014-08-18T10:22:06Z</time>
      </trkpt>
      <trkpt lat="44.9388" lon="1.06218">
        <ele>64</ele>
        <time>2014-08-18T10:22:09Z</time>
      </trkpt>
      <trkpt lat="44.93894" lon="1.06198">
        <ele>63</ele>
        <time>2014-08-18T10:22:12Z</time>
      </trkpt>
      <trkpt lat="44.93902" lon="1.06185">
        <ele>63</ele>
        <time>2014-08-18T10:22:14Z</time>
      </trkpt>
      <trkpt lat="44.93908" lon="1.0617">
        <ele>63</ele>
        <time>2014-08-18T10:22:16Z</time>
      </trkpt>
      <trkpt lat="44.93914" lon="1.06157">
        <ele>63</ele>
        <time>2014-08-18T10:22:19Z</time>
      </trkpt>
      <trkpt lat="44.93925" lon="1.06142">
        <ele>63</ele>
        <time>2014-08-18T10:22:21Z</time>
      </trkpt>
      <trkpt lat="44.93935" lon="1.06127">
        <ele>63</ele>
        <time>2014-08-18T10:22:24Z</time>
      </trkpt>
      <trkpt lat="44.93945" lon="1.06113">
        <ele>62</ele>
        <time>2014-08-18T10:22:27Z</time>
      </trkpt>
      <trkpt lat="44.93955" lon="1.06098">
        <ele>62</ele>
        <time>2014-08-18T10:22:30Z</time>
      </trkpt>
      <trkpt lat="44.93964" lon="1.06084">
        <ele>62</ele>
        <time>2014-08-18T10:22:33Z</time>
      </trkpt>
      <trkpt lat="44.93973" lon="1.06069">
        <ele>63</ele>
        <time>2014-08-18T10:22:36Z</time>
      </trkpt>
      <trkpt lat="44.93982" lon="1.06053">
        <ele>63</ele>
        <time>2014-08-18T10:22:39Z</time>
      </trkpt>
      <trkpt lat="44.93992" lon="1.0604">
        <ele>63</ele>
        <time>2014-08-18T10:22:42Z</time>
      </trkpt>
      <trkpt lat="44.94" lon="1.06029">
        <ele>63</ele>
        <time>2014-08-18T10:22:45Z</time>
      </trkpt>
      <trkpt lat="44.94002" lon="1.06023">
        <ele>62</ele>
        <time>2014-08-18T10:22:48Z</time>
      </trkpt>
      <trkpt lat="44.94005" lon="1.06017">
        <ele>62</ele>
        <time>2014-08-18T10:22:51Z</time>
      </trkpt>
      <trkpt lat="44.94008" lon="1.06014">
        <ele>62</ele>
        <time>2014-08-18T10:22:54Z</time>
      </trkpt>
      <trkpt lat="44.94011" lon="1.06011">
        <ele>62</ele>
        <time>2014-08-18T10:22:56Z</time>
      </trkpt>
      <trkpt lat="44.94016" lon="1.06008">
        <ele>63</ele>
        <time>2014-08-18T10:22:58Z</time>
      </trkpt>
      <trkpt lat="44.94023" lon="1.06003">
        <ele>63</ele>
        <time>2014-08-18T10:23:00Z</time>
      </trkpt>
      <trkpt lat="44.94031" lon="1.05999">
        <ele>63</ele>
        <time>2014-08-18T10:23:03Z</time>
      </trkpt>
      <trkpt lat="44.94038" lon="1.05998">
        <ele>63</ele>
        <time>2014-08-18T10:23:05Z</time>
      </trkpt>
      <trkpt lat="44.94044" lon="1.06">
        <ele>63</ele>
        <time>2014-08-18T10:23:07Z</time>
      </trkpt>
      <trkpt lat="44.94054" lon="1.06007">
        <ele>63</ele>
        <time>2014-08-18T10:23:10Z</time>
      </trkpt>
      <trkpt lat="44.94061" lon="1.06012">
        <ele>63</ele>
        <time>2014-08-18T10:23:12Z</time>
      </trkpt>
      <trkpt lat="44.94069" lon="1.06019">
        <ele>63</ele>
        <time>2014-08-18T10:23:14Z</time>
      </trkpt>
      <trkpt lat="44.94076" lon="1.06025">
        <ele>63</ele>
        <time>2014-08-18T10:23:16Z</time>
      </trkpt>
      <trkpt lat="44.94084" lon="1.06032">
        <ele>62</ele>
        <time>2014-08-18T10:23:18Z</time>
      </trkpt>
      <trkpt lat="44.9409" lon="1.06037">
        <ele>61</ele>
        <time>2014-08-18T10:23:21Z</time>
      </trkpt>
      <trkpt lat="44.94096" lon="1.06039">
        <ele>61</ele>
        <time>2014-08-18T10:23:23Z</time>
      </trkpt>
      <trkpt lat="44.94098" lon="1.06039">
        <ele>60</ele>
        <time>2014-08-18T10:23:25Z</time>
      </trkpt>
      <trkpt lat="44.941" lon="1.0604">
        <ele>61</ele>
        <time>2014-08-18T10:23:28Z</time>
      </trkpt>
      <trkpt lat="44.94099" lon="1.06043">
        <ele>61</ele>
        <time>2014-08-18T10:23:30Z</time>
      </trkpt>
      <trkpt lat="44.94096" lon="1.06051">
        <ele>61</ele>
        <time>2014-08-18T10:23:33Z</time>
      </trkpt>
      <trkpt lat="44.94091" lon="1.06061">
        <ele>61</ele>
        <time>2014-08-18T10:23:36Z</time>
      </trkpt>
      <trkpt lat="44.94089" lon="1.0607">
        <ele>61</ele>
        <time>2014-08-18T10:23:39Z</time>
      </trkpt>
      <trkpt lat="44.94087" lon="1.0608">
        <ele>61</ele>
        <time>2014-08-18T10:23:41Z</time>
      </trkpt>
      <trkpt lat="44.94084" lon="1.06096">
        <ele>61</ele>
        <time>2014-08-18T10:23:43Z</time>
      </trkpt>
      <trkpt lat="44.94082" lon="1.06114">
        <ele>61</ele>
        <time>2014-08-18T10:23:46Z</time>
      </trkpt>
      <trkpt lat="44.9408" lon="1.06133">
        <ele>61</ele>
        <time>2014-08-18T10:23:49Z</time>
      </trkpt>
      <trkpt lat="44.94078" lon="1.06146">
        <ele>61</ele>
        <time>2014-08-18T10:23:51Z</time>
      </trkpt>
      <trkpt lat="44.94077" lon="1.06159">
        <ele>61</ele>
        <time>2014-08-18T10:23:53Z</time>
      </trkpt>
      <trkpt lat="44.94075" lon="1.06178">
        <ele>61</ele>
        <time>2014-08-18T10:23:56Z</time>
      </trkpt>
      <trkpt lat="44.94073" lon="1.0619">
        <ele>61</ele>
        <time>2014-08-18T10:23:58Z</time>
      </trkpt>
      <trkpt lat="44.94072" lon="1.06202">
        <ele>61</ele>
        <time>2014-08-18T10:24:01Z</time>
      </trkpt>
      <trkpt lat="44.9407" lon="1.06214">
        <ele>61</ele>
        <time>2014-08-18T10:24:03Z</time>
      </trkpt>
      <trkpt lat="44.94067" lon="1.06232">
        <ele>61</ele>
        <time>2014-08-18T10:24:05Z</time>
      </trkpt>
      <trkpt lat="44.94065" lon="1.06245">
        <ele>61</ele>
        <time>2014-08-18T10:24:07Z</time>
      </trkpt>
      <trkpt lat="44.94063" lon="1.06256">
        <ele>61</ele>
        <time>2014-08-18T10:24:09Z</time>
      </trkpt>
      <trkpt lat="44.94061" lon="1.06267">
        <ele>62</ele>
        <time>2014-08-18T10:24:11Z</time>
      </trkpt>
      <trkpt lat="44.94059" lon="1.06278">
        <ele>62</ele>
        <time>2014-08-18T10:24:13Z</time>
      </trkpt>
      <trkpt lat="44.94056" lon="1.06289">
        <ele>62</ele>
        <time>2014-08-18T10:24:15Z</time>
      </trkpt>
      <trkpt lat="44.94052" lon="1.06299">
        <ele>62</ele>
        <time>2014-08-18T10:24:17Z</time>
      </trkpt>
      <trkpt lat="44.94049" lon="1.06309">
        <ele>62</ele>
        <time>2014-08-18T10:24:19Z</time>
      </trkpt>
      <trkpt lat="44.94045" lon="1.06318">
        <ele>62</ele>
        <time>2014-08-18T10:24:21Z</time>
      </trkpt>
      <trkpt lat="44.94041" lon="1.06325">
        <ele>62</ele>
        <time>2014-08-18T10:24:23Z</time>
      </trkpt>
      <trkpt lat="44.94039" lon="1.06331">
        <ele>62</ele>
        <time>2014-08-18T10:24:25Z</time>
      </trkpt>
      <trkpt lat="44.94039" lon="1.06335">
        <ele>61</ele>
        <time>2014-08-18T10:24:28Z</time>
      </trkpt>
      <trkpt lat="44.94039" lon="1.06335">
        <ele>61</ele>
        <time>2014-08-18T10:24:30Z</time>
      </trkpt>
      <trkpt lat="44.94039" lon="1.06335">
        <ele>61</ele>
        <time>2014-08-18T10:24:32Z</time>
      </trkpt>
      <trkpt lat="44.94039" lon="1.06335">
        <ele>61</ele>
        <time>2014-08-18T10:24:34Z</time>
      </trkpt>
      <trkpt lat="44.94039" lon="1.06335">
        <ele>61</ele>
        <time>2014-08-18T10:24:36Z</time>
      </trkpt>
      <trkpt lat="44.9404" lon="1.06336">
        <ele>61</ele>
        <time>2014-08-18T10:24:40Z</time>
      </trkpt>
      <trkpt lat="44.94041" lon="1.06335">
        <ele>61</ele>
        <time>2014-08-18T10:24:43Z</time>
      </trkpt>
      <trkpt lat="44.94042" lon="1.06336">
        <ele>61</ele>
        <time>2014-08-18T10:24:45Z</time>
      </trkpt>
      <trkpt lat="44.94041" lon="1.06335">
        <ele>61</ele>
        <time>2014-08-18T10:24:47Z</time>
      </trkpt>
      <trkpt lat="44.94042" lon="1.06334">
        <ele>61</ele>
        <time>2014-08-18T10:24:49Z</time>
      </trkpt>
      <trkpt lat="44.94043" lon="1.06335">
        <ele>61</ele>
        <time>2014-08-18T10:24:51Z</time>
      </trkpt>
      <trkpt lat="44.94043" lon="1.06334">
        <ele>61</ele>
        <time>2014-08-18T10:24:53Z</time>
      </trkpt>
      <trkpt lat="44.94043" lon="1.06333">
        <ele>61</ele>
        <time>2014-08-18T10:24:56Z</time>
      </trkpt>
      <trkpt lat="44.94044" lon="1.06332">
        <ele>61</ele>
        <time>2014-08-18T10:24:58Z</time>
      </trkpt>
      <trkpt lat="44.94044" lon="1.06331">
        <ele>61</ele>
        <time>2014-08-18T10:25:00Z</time>
      </trkpt>
      <trkpt lat="44.94045" lon="1.0633">
        <ele>61</ele>
        <time>2014-08-18T10:25:03Z</time>
      </trkpt>
      <trkpt lat="44.94046" lon="1.06328">
        <ele>61</ele>
        <time>2014-08-18T10:25:05Z</time>
      </trkpt>
      <trkpt lat="44.94047" lon="1.06326">
        <ele>61</ele>
        <time>2014-08-18T10:25:08Z</time>
      </trkpt>
      <trkpt lat="44.94048" lon="1.06325">
        <ele>61</ele>
        <time>2014-08-18T10:25:10Z</time>
      </trkpt>
      <trkpt lat="44.94048" lon="1.06323">
        <ele>61</ele>
        <time>2014-08-18T10:25:12Z</time>
      </trkpt>
      <trkpt lat="44.94048" lon="1.06322">
        <ele>61</ele>
        <time>2014-08-18T10:25:14Z</time>
      </trkpt>
      <trkpt lat="44.94048" lon="1.0632">
        <ele>61</ele>
        <time>2014-08-18T10:25:16Z</time>
      </trkpt>
      <trkpt lat="44.94048" lon="1.06318">
        <ele>61</ele>
        <time>2014-08-18T10:25:18Z</time>
      </trkpt>
      <trkpt lat="44.94048" lon="1.06316">
        <ele>61</ele>
        <time>2014-08-18T10:25:20Z</time>
      </trkpt>
      <trkpt lat="44.94047" lon="1.06314">
        <ele>61</ele>
        <time>2014-08-18T10:25:23Z</time>
      </trkpt>
      <trkpt lat="44.94046" lon="1.06312">
        <ele>61</ele>
        <time>2014-08-18T10:25:26Z</time>
      </trkpt>
      <trkpt lat="44.94046" lon="1.0631">
        <ele>61</ele>
        <time>2014-08-18T10:25:28Z</time>
      </trkpt>
      <trkpt lat="44.94045" lon="1.06309">
        <ele>62</ele>
        <time>2014-08-18T10:25:30Z</time>
      </trkpt>
      <trkpt lat="44.94044" lon="1.06307">
        <ele>62</ele>
        <time>2014-08-18T10:25:33Z</time>
      </trkpt>
      <trkpt lat="44.94043" lon="1.06305">
        <ele>62</ele>
        <time>2014-08-18T10:25:35Z</time>
      </trkpt>
      <trkpt lat="44.94043" lon="1.06304">
        <ele>62</ele>
        <time>2014-08-18T10:25:37Z</time>
      </trkpt>
      <trkpt lat="44.94042" lon="1.06304">
        <ele>61</ele>
        <time>2014-08-18T10:25:40Z</time>
      </trkpt>
      <trkpt lat="44.94042" lon="1.06304">
        <ele>61</ele>
        <time>2014-08-18T10:25:42Z</time>
      </trkpt>
      <trkpt lat="44.94042" lon="1.06305">
        <ele>61</ele>
        <time>2014-08-18T10:25:44Z</time>
      </trkpt>
      <trkpt lat="44.94042" lon="1.06306">
        <ele>61</ele>
        <time>2014-08-18T10:25:46Z</time>
      </trkpt>
      <trkpt lat="44.94041" lon="1.06306">
        <ele>61</ele>
        <time>2014-08-18T10:25:49Z</time>
      </trkpt>
      <trkpt lat="44.94041" lon="1.06307">
        <ele>61</ele>
        <time>2014-08-18T10:25:51Z</time>
      </trkpt>
      <trkpt lat="44.94041" lon="1.06307">
        <ele>61</ele>
        <time>2014-08-18T10:25:53Z</time>
      </trkpt>
      <trkpt lat="44.9404" lon="1.06307">
        <ele>61</ele>
        <time>2014-08-18T10:25:55Z</time>
      </trkpt>
      <trkpt lat="44.9404" lon="1.06308">
        <ele>61</ele>
        <time>2014-08-18T10:25:57Z</time>
      </trkpt>
      <trkpt lat="44.94039" lon="1.06308">
        <ele>61</ele>
        <time>2014-08-18T10:25:59Z</time>
      </trkpt>
      <trkpt lat="44.9404" lon="1.06308">
        <ele>61</ele>
        <time>2014-08-18T10:26:02Z</time>
      </trkpt>
      <trkpt lat="44.9404" lon="1.06308">
        <ele>62</ele>
        <time>2014-08-18T10:26:05Z</time>
      </trkpt>
      <trkpt lat="44.94041" lon="1.06308">
        <ele>62</ele>
        <time>2014-08-18T10:26:07Z</time>
      </trkpt>
      <trkpt lat="44.94042" lon="1.06307">
        <ele>62</ele>
        <time>2014-08-18T10:26:09Z</time>
      </trkpt>
      <trkpt lat="44.94043" lon="1.06307">
        <ele>61</ele>
        <time>2014-08-18T10:26:11Z</time>
      </trkpt>
      <trkpt lat="44.94044" lon="1.06307">
        <ele>61</ele>
        <time>2014-08-18T10:26:13Z</time>
      </trkpt>
      <trkpt lat="44.94045" lon="1.06307">
        <ele>61</ele>
        <time>2014-08-18T10:26:16Z</time>
      </trkpt>
      <trkpt lat="44.94046" lon="1.06306">
        <ele>61</ele>
        <time>2014-08-18T10:26:19Z</time>
      </trkpt>
      <trkpt lat="44.94047" lon="1.06305">
        <ele>61</ele>
        <time>2014-08-18T10:26:22Z</time>
      </trkpt>
      <trkpt lat="44.94048" lon="1.06304">
        <ele>61</ele>
        <time>2014-08-18T10:26:24Z</time>
      </trkpt>
      <trkpt lat="44.94048" lon="1.06304">
        <ele>61</ele>
        <time>2014-08-18T10:26:26Z</time>
      </trkpt>
      <trkpt lat="44.94049" lon="1.06302">
        <ele>61</ele>
        <time>2014-08-18T10:26:28Z</time>
      </trkpt>
      <trkpt lat="44.9405" lon="1.06301">
        <ele>61</ele>
        <time>2014-08-18T10:26:31Z</time>
      </trkpt>
      <trkpt lat="44.94051" lon="1.063">
        <ele>61</ele>
        <time>2014-08-18T10:26:34Z</time>
      </trkpt>
      <trkpt lat="44.94051" lon="1.063">
        <ele>61</ele>
        <time>2014-08-18T10:26:37Z</time>
      </trkpt>
      <trkpt lat="44.94051" lon="1.06299">
        <ele>61</ele>
        <time>2014-08-18T10:26:39Z</time>
      </trkpt>
      <trkpt lat="44.94051" lon="1.06299">
        <ele>61</ele>
        <time>2014-08-18T10:26:41Z</time>
      </trkpt>
      <trkpt lat="44.94052" lon="1.06299">
        <ele>61</ele>
        <time>2014-08-18T10:26:44Z</time>
      </trkpt>
      <trkpt lat="44.94053" lon="1.063">
        <ele>61</ele>
        <time>2014-08-18T10:26:46Z</time>
      </trkpt>
      <trkpt lat="44.94053" lon="1.06299">
        <ele>61</ele>
        <time>2014-08-18T10:26:48Z</time>
      </trkpt>
      <trkpt lat="44.94053" lon="1.06299">
        <ele>61</ele>
        <time>2014-08-18T10:26:51Z</time>
      </trkpt>
      <trkpt lat="44.94051" lon="1.06298">
        <ele>61</ele>
        <time>2014-08-18T10:26:54Z</time>
      </trkpt>
      <trkpt lat="44.9405" lon="1.06297">
        <ele>61</ele>
        <time>2014-08-18T10:26:56Z</time>
      </trkpt>
      <trkpt lat="44.94049" lon="1.06297">
        <ele>62</ele>
        <time>2014-08-18T10:26:58Z</time>
      </trkpt>
      <trkpt lat="44.94048" lon="1.06296">
        <ele>61</ele>
        <time>2014-08-18T10:27:00Z</time>
      </trkpt>
      <trkpt lat="44.94047" lon="1.06296">
        <ele>62</ele>
        <time>2014-08-18T10:27:02Z</time>
      </trkpt>
      <trkpt lat="44.94047" lon="1.06296">
        <ele>62</ele>
        <time>2014-08-18T10:27:04Z</time>
      </trkpt>
      <trkpt lat="44.94046" lon="1.06295">
        <ele>62</ele>
        <time>2014-08-18T10:27:06Z</time>
      </trkpt>
      <trkpt lat="44.94045" lon="1.06295">
        <ele>62</ele>
        <time>2014-08-18T10:27:08Z</time>
      </trkpt>
      <trkpt lat="44.94045" lon="1.06294">
        <ele>62</ele>
        <time>2014-08-18T10:27:10Z</time>
      </trkpt>
      <trkpt lat="44.94043" lon="1.06294">
        <ele>62</ele>
        <time>2014-08-18T10:27:12Z</time>
      </trkpt>
      <trkpt lat="44.94041" lon="1.06294">
        <ele>62</ele>
        <time>2014-08-18T10:27:15Z</time>
      </trkpt>
      <trkpt lat="44.9404" lon="1.06294">
        <ele>62</ele>
        <time>2014-08-18T10:27:17Z</time>
      </trkpt>
      <trkpt lat="44.9404" lon="1.06296">
        <ele>62</ele>
        <time>2014-08-18T10:27:20Z</time>
      </trkpt>
      <trkpt lat="44.9404" lon="1.06297">
        <ele>62</ele>
        <time>2014-08-18T10:27:22Z</time>
      </trkpt>
      <trkpt lat="44.94041" lon="1.06298">
        <ele>62</ele>
        <time>2014-08-18T10:27:24Z</time>
      </trkpt>
      <trkpt lat="44.94042" lon="1.06299">
        <ele>62</ele>
        <time>2014-08-18T10:27:26Z</time>
      </trkpt>
      <trkpt lat="44.94043" lon="1.063">
        <ele>62</ele>
        <time>2014-08-18T10:27:28Z</time>
      </trkpt>
      <trkpt lat="44.94043" lon="1.06301">
        <ele>61</ele>
        <time>2014-08-18T10:27:30Z</time>
      </trkpt>
      <trkpt lat="44.94043" lon="1.06303">
        <ele>61</ele>
        <time>2014-08-18T10:27:32Z</time>
      </trkpt>
      <trkpt lat="44.94043" lon="1.06305">
        <ele>61</ele>
        <time>2014-08-18T10:27:35Z</time>
      </trkpt>
      <trkpt lat="44.94042" lon="1.06305">
        <ele>61</ele>
        <time>2014-08-18T10:27:37Z</time>
      </trkpt>
      <trkpt lat="44.94041" lon="1.06306">
        <ele>62</ele>
        <time>2014-08-18T10:27:39Z</time>
      </trkpt>
      <trkpt lat="44.94041" lon="1.06306">
        <ele>62</ele>
        <time>2014-08-18T10:27:41Z</time>
      </trkpt>
      <trkpt lat="44.9404" lon="1.06308">
        <ele>61</ele>
        <time>2014-08-18T10:27:44Z</time>
      </trkpt>
      <trkpt lat="44.94041" lon="1.06309">
        <ele>61</ele>
        <time>2014-08-18T10:27:46Z</time>
      </trkpt>
      <trkpt lat="44.94042" lon="1.06311">
        <ele>61</ele>
        <time>2014-08-18T10:27:48Z</time>
      </trkpt>
      <trkpt lat="44.94043" lon="1.06312">
        <ele>61</ele>
        <time>2014-08-18T10:27:50Z</time>
      </trkpt>
      <trkpt lat="44.94044" lon="1.06313">
        <ele>61</ele>
        <time>2014-08-18T10:27:52Z</time>
      </trkpt>
      <trkpt lat="44.94044" lon="1.06314">
        <ele>61</ele>
        <time>2014-08-18T10:27:54Z</time>
      </trkpt>
      <trkpt lat="44.94045" lon="1.06314">
        <ele>61</ele>
        <time>2014-08-18T10:27:56Z</time>
      </trkpt>
      <trkpt lat="44.94046" lon="1.06313">
        <ele>61</ele>
        <time>2014-08-18T10:27:59Z</time>
      </trkpt>
      <trkpt lat="44.94045" lon="1.06312">
        <ele>61</ele>
        <time>2014-08-18T10:28:01Z</time>
      </trkpt>
      <trkpt lat="44.94044" lon="1.06312">
        <ele>61</ele>
        <time>2014-08-18T10:28:03Z</time>
      </trkpt>
      <trkpt lat="44.94043" lon="1.06312">
        <ele>61</ele>
        <time>2014-08-18T10:28:05Z</time>
      </trkpt>
      <trkpt lat="44.94042" lon="1.06312">
        <ele>61</ele>
        <time>2014-08-18T10:28:07Z</time>
      </trkpt>
      <trkpt lat="44.94041" lon="1.06312">
        <ele>61</ele>
        <time>2014-08-18T10:28:10Z</time>
      </trkpt>
      <trkpt lat="44.94039" lon="1.06313">
        <ele>61</ele>
        <time>2014-08-18T10:28:12Z</time>
      </trkpt>
      <trkpt lat="44.94038" lon="1.06317">
        <ele>61</ele>
        <time>2014-08-18T10:28:14Z</time>
      </trkpt>
      <trkpt lat="44.94036" lon="1.06324">
        <ele>61</ele>
        <time>2014-08-18T10:28:16Z</time>
      </trkpt>
      <trkpt lat="44.94032" lon="1.06337">
        <ele>62</ele>
        <time>2014-08-18T10:28:19Z</time>
      </trkpt>
      <trkpt lat="44.94029" lon="1.06346">
        <ele>62</ele>
        <time>2014-08-18T10:28:21Z</time>
      </trkpt>
      <trkpt lat="44.94024" lon="1.06358">
        <ele>62</ele>
        <time>2014-08-18T10:28:24Z</time>
      </trkpt>
      <trkpt lat="44.94019" lon="1.06366">
        <ele>62</ele>
        <time>2014-08-18T10:28:26Z</time>
      </trkpt>
      <trkpt lat="44.94014" lon="1.06374">
        <ele>63</ele>
        <time>2014-08-18T10:28:28Z</time>
      </trkpt>
      <trkpt lat="44.94007" lon="1.06383">
        <ele>63</ele>
        <time>2014-08-18T10:28:30Z</time>
      </trkpt>
      <trkpt lat="44.94001" lon="1.06393">
        <ele>63</ele>
        <time>2014-08-18T10:28:32Z</time>
      </trkpt>
      <trkpt lat="44.93988" lon="1.06409">
        <ele>63</ele>
        <time>2014-08-18T10:28:35Z</time>
      </trkpt>
      <trkpt lat="44.9398" lon="1.0642">
        <ele>63</ele>
        <time>2014-08-18T10:28:37Z</time>
      </trkpt>
      <trkpt lat="44.93972" lon="1.06431">
        <ele>63</ele>
        <time>2014-08-18T10:28:39Z</time>
      </trkpt>
      <trkpt lat="44.93959" lon="1.06449">
        <ele>63</ele>
        <time>2014-08-18T10:28:42Z</time>
      </trkpt>
      <trkpt lat="44.9395" lon="1.06461">
        <ele>63</ele>
        <time>2014-08-18T10:28:44Z</time>
      </trkpt>
      <trkpt lat="44.93942" lon="1.06473">
        <ele>64</ele>
        <time>2014-08-18T10:28:46Z</time>
      </trkpt>
      <trkpt lat="44.93933" lon="1.06482">
        <ele>64</ele>
        <time>2014-08-18T10:28:48Z</time>
      </trkpt>
      <trkpt lat="44.93919" lon="1.06497">
        <ele>64</ele>
        <time>2014-08-18T10:28:51Z</time>
      </trkpt>
      <trkpt lat="44.93908" lon="1.06506">
        <ele>65</ele>
        <time>2014-08-18T10:28:53Z</time>
      </trkpt>
      <trkpt lat="44.93898" lon="1.06513">
        <ele>65</ele>
        <time>2014-08-18T10:28:55Z</time>
      </trkpt>
      <trkpt lat="44.93887" lon="1.0652">
        <ele>65</ele>
        <time>2014-08-18T10:28:57Z</time>
      </trkpt>
      <trkpt lat="44.93872" lon="1.06527">
        <ele>65</ele>
        <time>2014-08-18T10:29:00Z</time>
      </trkpt>
      <trkpt lat="44.93861" lon="1.06533">
        <ele>65</ele>
        <time>2014-08-18T10:29:02Z</time>
      </trkpt>
      <trkpt lat="44.9385" lon="1.06537">
        <ele>66</ele>
        <time>2014-08-18T10:29:04Z</time>
      </trkpt>
      <trkpt lat="44.93832" lon="1.06544">
        <ele>66</ele>
        <time>2014-08-18T10:29:07Z</time>
      </trkpt>
      <trkpt lat="44.9382" lon="1.06548">
        <ele>66</ele>
        <time>2014-08-18T10:29:09Z</time>
      </trkpt>
      <trkpt lat="44.93807" lon="1.06551">
        <ele>67</ele>
        <time>2014-08-18T10:29:11Z</time>
      </trkpt>
      <trkpt lat="44.93795" lon="1.06556">
        <ele>66</ele>
        <time>2014-08-18T10:29:13Z</time>
      </trkpt>
      <trkpt lat="44.93781" lon="1.06559">
        <ele>67</ele>
        <time>2014-08-18T10:29:15Z</time>
      </trkpt>
      <trkpt lat="44.93768" lon="1.06563">
        <ele>67</ele>
        <time>2014-08-18T10:29:17Z</time>
      </trkpt>
      <trkpt lat="44.93756" lon="1.06568">
        <ele>67</ele>
        <time>2014-08-18T10:29:19Z</time>
      </trkpt>
      <trkpt lat="44.93743" lon="1.06572">
        <ele>68</ele>
        <time>2014-08-18T10:29:21Z</time>
      </trkpt>
      <trkpt lat="44.93731" lon="1.06576">
        <ele>68</ele>
        <time>2014-08-18T10:29:23Z</time>
      </trkpt>
      <trkpt lat="44.93712" lon="1.06582">
        <ele>68</ele>
        <time>2014-08-18T10:29:26Z</time>
      </trkpt>
      <trkpt lat="44.93699" lon="1.06586">
        <ele>68</ele>
        <time>2014-08-18T10:29:28Z</time>
      </trkpt>
      <trkpt lat="44.93686" lon="1.06589">
        <ele>68</ele>
        <time>2014-08-18T10:29:30Z</time>
      </trkpt>
      <trkpt lat="44.93674" lon="1.06594">
        <ele>68</ele>
        <time>2014-08-18T10:29:32Z</time>
      </trkpt>
      <trkpt lat="44.93662" lon="1.06598">
        <ele>69</ele>
        <time>2014-08-18T10:29:34Z</time>
      </trkpt>
      <trkpt lat="44.93651" lon="1.06602">
        <ele>69</ele>
        <time>2014-08-18T10:29:36Z</time>
      </trkpt>
      <trkpt lat="44.9364" lon="1.06608">
        <ele>69</ele>
        <time>2014-08-18T10:29:38Z</time>
      </trkpt>
      <trkpt lat="44.93628" lon="1.06613">
        <ele>69</ele>
        <time>2014-08-18T10:29:40Z</time>
      </trkpt>
      <trkpt lat="44.93618" lon="1.0662">
        <ele>69</ele>
        <time>2014-08-18T10:29:42Z</time>
      </trkpt>
      <trkpt lat="44.93607" lon="1.06627">
        <ele>69</ele>
        <time>2014-08-18T10:29:44Z</time>
      </trkpt>
      <trkpt lat="44.93597" lon="1.06635">
        <ele>70</ele>
        <time>2014-08-18T10:29:46Z</time>
      </trkpt>
      <trkpt lat="44.93582" lon="1.06649">
        <ele>70</ele>
        <time>2014-08-18T10:29:49Z</time>
      </trkpt>
      <trkpt lat="44.93572" lon="1.0666">
        <ele>70</ele>
        <time>2014-08-18T10:29:51Z</time>
      </trkpt>
      <trkpt lat="44.93561" lon="1.06672">
        <ele>70</ele>
        <time>2014-08-18T10:29:53Z</time>
      </trkpt>
      <trkpt lat="44.9355" lon="1.06685">
        <ele>70</ele>
        <time>2014-08-18T10:29:55Z</time>
      </trkpt>
      <trkpt lat="44.93535" lon="1.06704">
        <ele>70</ele>
        <time>2014-08-18T10:29:58Z</time>
      </trkpt>
      <trkpt lat="44.93528" lon="1.06712">
        <ele>70</ele>
        <time>2014-08-18T10:30:00Z</time>
      </trkpt>
      <trkpt lat="44.93525" lon="1.06719">
        <ele>70</ele>
        <time>2014-08-18T10:30:02Z</time>
      </trkpt>
      <trkpt lat="44.9353" lon="1.0672">
        <ele>71</ele>
        <time>2014-08-18T10:30:05Z</time>
      </trkpt>
      <trkpt lat="44.93533" lon="1.06716">
        <ele>71</ele>
        <time>2014-08-18T10:30:07Z</time>
      </trkpt>
      <trkpt lat="44.93535" lon="1.06717">
        <ele>71</ele>
        <time>2014-08-18T10:30:10Z</time>
      </trkpt>
      <trkpt lat="44.93537" lon="1.06723">
        <ele>71</ele>
        <time>2014-08-18T10:30:13Z</time>
      </trkpt>
      <trkpt lat="44.93537" lon="1.06728">
        <ele>71</ele>
        <time>2014-08-18T10:30:15Z</time>
      </trkpt>
      <trkpt lat="44.93538" lon="1.06732">
        <ele>71</ele>
        <time>2014-08-18T10:30:17Z</time>
      </trkpt>
      <trkpt lat="44.93538" lon="1.06738">
        <ele>71</ele>
        <time>2014-08-18T10:30:19Z</time>
      </trkpt>
      <trkpt lat="44.9354" lon="1.06747">
        <ele>71</ele>
        <time>2014-08-18T10:30:22Z</time>
      </trkpt>
      <trkpt lat="44.93541" lon="1.06751">
        <ele>72</ele>
        <time>2014-08-18T10:30:24Z</time>
      </trkpt>
      <trkpt lat="44.93541" lon="1.06757">
        <ele>73</ele>
        <time>2014-08-18T10:30:26Z</time>
      </trkpt>
      <trkpt lat="44.93541" lon="1.06762">
        <ele>73</ele>
        <time>2014-08-18T10:30:28Z</time>
      </trkpt>
      <trkpt lat="44.93543" lon="1.06768">
        <ele>73</ele>
        <time>2014-08-18T10:30:30Z</time>
      </trkpt>
      <trkpt lat="44.93546" lon="1.06774">
        <ele>74</ele>
        <time>2014-08-18T10:30:32Z</time>
      </trkpt>
      <trkpt lat="44.93548" lon="1.06781">
        <ele>74</ele>
        <time>2014-08-18T10:30:34Z</time>
      </trkpt>
      <trkpt lat="44.9355" lon="1.06788">
        <ele>75</ele>
        <time>2014-08-18T10:30:36Z</time>
      </trkpt>
      <trkpt lat="44.93552" lon="1.06795">
        <ele>75</ele>
        <time>2014-08-18T10:30:38Z</time>
      </trkpt>
      <trkpt lat="44.93555" lon="1.06806">
        <ele>76</ele>
        <time>2014-08-18T10:30:41Z</time>
      </trkpt>
      <trkpt lat="44.93559" lon="1.06815">
        <ele>77</ele>
        <time>2014-08-18T10:30:44Z</time>
      </trkpt>
      <trkpt lat="44.9356" lon="1.0682">
        <ele>78</ele>
        <time>2014-08-18T10:30:46Z</time>
      </trkpt>
      <trkpt lat="44.93562" lon="1.0683">
        <ele>79</ele>
        <time>2014-08-18T10:30:49Z</time>
      </trkpt>
      <trkpt lat="44.93561" lon="1.06838">
        <ele>79</ele>
        <time>2014-08-18T10:30:51Z</time>
      </trkpt>
      <trkpt lat="44.93562" lon="1.06844">
        <ele>79</ele>
        <time>2014-08-18T10:30:53Z</time>
      </trkpt>
      <trkpt lat="44.93565" lon="1.06854">
        <ele>80</ele>
        <time>2014-08-18T10:30:56Z</time>
      </trkpt>
      <trkpt lat="44.93567" lon="1.06861">
        <ele>81</ele>
        <time>2014-08-18T10:30:58Z</time>
      </trkpt>
      <trkpt lat="44.93569" lon="1.06867">
        <ele>81</ele>
        <time>2014-08-18T10:31:00Z</time>
      </trkpt>
      <trkpt lat="44.93571" lon="1.06874">
        <ele>82</ele>
        <time>2014-08-18T10:31:03Z</time>
      </trkpt>
      <trkpt lat="44.93573" lon="1.06879">
        <ele>82</ele>
        <time>2014-08-18T10:31:05Z</time>
      </trkpt>
      <trkpt lat="44.93575" lon="1.06885">
        <ele>82</ele>
        <time>2014-08-18T10:31:07Z</time>
      </trkpt>
      <trkpt lat="44.93576" lon="1.06891">
        <ele>83</ele>
        <time>2014-08-18T10:31:09Z</time>
      </trkpt>
      <trkpt lat="44.93579" lon="1.06897">
        <ele>83</ele>
        <time>2014-08-18T10:31:11Z</time>
      </trkpt>
      <trkpt lat="44.93583" lon="1.06906">
        <ele>84</ele>
        <time>2014-08-18T10:31:14Z</time>
      </trkpt>
      <trkpt lat="44.93586" lon="1.06912">
        <ele>85</ele>
        <time>2014-08-18T10:31:16Z</time>
      </trkpt>
      <trkpt lat="44.93588" lon="1.06918">
        <ele>85</ele>
        <time>2014-08-18T10:31:18Z</time>
      </trkpt>
      <trkpt lat="44.9359" lon="1.06924">
        <ele>85</ele>
        <time>2014-08-18T10:31:20Z</time>
      </trkpt>
      <trkpt lat="44.93592" lon="1.06929">
        <ele>86</ele>
        <time>2014-08-18T10:31:22Z</time>
      </trkpt>
      <trkpt lat="44.93595" lon="1.06936">
        <ele>87</ele>
        <time>2014-08-18T10:31:25Z</time>
      </trkpt>
      <trkpt lat="44.93597" lon="1.0694">
        <ele>87</ele>
        <time>2014-08-18T10:31:27Z</time>
      </trkpt>
      <trkpt lat="44.93599" lon="1.06944">
        <ele>88</ele>
        <time>2014-08-18T10:31:29Z</time>
      </trkpt>
      <trkpt lat="44.93601" lon="1.06949">
        <ele>88</ele>
        <time>2014-08-18T10:31:31Z</time>
      </trkpt>
      <trkpt lat="44.93602" lon="1.06953">
        <ele>88</ele>
        <time>2014-08-18T10:31:33Z</time>
      </trkpt>
      <trkpt lat="44.93605" lon="1.06962">
        <ele>89</ele>
        <time>2014-08-18T10:31:36Z</time>
      </trkpt>
      <trkpt lat="44.93605" lon="1.06968">
        <ele>89</ele>
        <time>2014-08-18T10:31:38Z</time>
      </trkpt>
      <trkpt lat="44.93607" lon="1.06974">
        <ele>90</ele>
        <time>2014-08-18T10:31:40Z</time>
      </trkpt>
      <trkpt lat="44.93607" lon="1.0698">
        <ele>91</ele>
        <time>2014-08-18T10:31:42Z</time>
      </trkpt>
      <trkpt lat="44.93609" lon="1.06988">
        <ele>92</ele>
        <time>2014-08-18T10:31:45Z</time>
      </trkpt>
      <trkpt lat="44.93611" lon="1.06996">
        <ele>92</ele>
        <time>2014-08-18T10:31:48Z</time>
      </trkpt>
      <trkpt lat="44.9361" lon="1.07001">
        <ele>93</ele>
        <time>2014-08-18T10:31:50Z</time>
      </trkpt>
      <trkpt lat="44.93609" lon="1.07006">
        <ele>93</ele>
        <time>2014-08-18T10:31:52Z</time>
      </trkpt>
      <trkpt lat="44.93607" lon="1.07013">
        <ele>94</ele>
        <time>2014-08-18T10:31:55Z</time>
      </trkpt>
      <trkpt lat="44.93607" lon="1.07019">
        <ele>94</ele>
        <time>2014-08-18T10:31:57Z</time>
      </trkpt>
      <trkpt lat="44.93607" lon="1.07027">
        <ele>95</ele>
        <time>2014-08-18T10:32:00Z</time>
      </trkpt>
      <trkpt lat="44.93607" lon="1.07032">
        <ele>95</ele>
        <time>2014-08-18T10:32:02Z</time>
      </trkpt>
      <trkpt lat="44.9361" lon="1.07039">
        <ele>96</ele>
        <time>2014-08-18T10:32:05Z</time>
      </trkpt>
      <trkpt lat="44.93613" lon="1.07043">
        <ele>97</ele>
        <time>2014-08-18T10:32:07Z</time>
      </trkpt>
      <trkpt lat="44.93614" lon="1.07041">
        <ele>98</ele>
        <time>2014-08-18T10:32:09Z</time>
      </trkpt>
      <trkpt lat="44.93615" lon="1.07038">
        <ele>98</ele>
        <time>2014-08-18T10:32:11Z</time>
      </trkpt>
      <trkpt lat="44.93615" lon="1.07034">
        <ele>98</ele>
        <time>2014-08-18T10:32:14Z</time>
      </trkpt>
      <trkpt lat="44.93616" lon="1.07028">
        <ele>98</ele>
        <time>2014-08-18T10:32:17Z</time>
      </trkpt>
      <trkpt lat="44.93617" lon="1.0702">
        <ele>99</ele>
        <time>2014-08-18T10:32:20Z</time>
      </trkpt>
      <trkpt lat="44.93619" lon="1.07014">
        <ele>99</ele>
        <time>2014-08-18T10:32:22Z</time>
      </trkpt>
      <trkpt lat="44.93621" lon="1.07006">
        <ele>100</ele>
        <time>2014-08-18T10:32:25Z</time>
      </trkpt>
      <trkpt lat="44.93622" lon="1.07">
        <ele>100</ele>
        <time>2014-08-18T10:32:27Z</time>
      </trkpt>
      <trkpt lat="44.93625" lon="1.06991">
        <ele>101</ele>
        <time>2014-08-18T10:32:30Z</time>
      </trkpt>
      <trkpt lat="44.93627" lon="1.06986">
        <ele>101</ele>
        <time>2014-08-18T10:32:32Z</time>
      </trkpt>
      <trkpt lat="44.93629" lon="1.06976">
        <ele>102</ele>
        <time>2014-08-18T10:32:35Z</time>
      </trkpt>
      <trkpt lat="44.9363" lon="1.06971">
        <ele>103</ele>
        <time>2014-08-18T10:32:37Z</time>
      </trkpt>
      <trkpt lat="44.93631" lon="1.06966">
        <ele>104</ele>
        <time>2014-08-18T10:32:39Z</time>
      </trkpt>
      <trkpt lat="44.93632" lon="1.06962">
        <ele>104</ele>
        <time>2014-08-18T10:32:41Z</time>
      </trkpt>
      <trkpt lat="44.93633" lon="1.06953">
        <ele>105</ele>
        <time>2014-08-18T10:32:44Z</time>
      </trkpt>
      <trkpt lat="44.93633" lon="1.06948">
        <ele>106</ele>
        <time>2014-08-18T10:32:46Z</time>
      </trkpt>
      <trkpt lat="44.93633" lon="1.06942">
        <ele>106</ele>
        <time>2014-08-18T10:32:48Z</time>
      </trkpt>
      <trkpt lat="44.93634" lon="1.06935">
        <ele>107</ele>
        <time>2014-08-18T10:32:50Z</time>
      </trkpt>
      <trkpt lat="44.93634" lon="1.06929">
        <ele>107</ele>
        <time>2014-08-18T10:32:52Z</time>
      </trkpt>
      <trkpt lat="44.93636" lon="1.06921">
        <ele>108</ele>
        <time>2014-08-18T10:32:54Z</time>
      </trkpt>
      <trkpt lat="44.93641" lon="1.0691">
        <ele>109</ele>
        <time>2014-08-18T10:32:57Z</time>
      </trkpt>
      <trkpt lat="44.93644" lon="1.06906">
        <ele>110</ele>
        <time>2014-08-18T10:32:59Z</time>
      </trkpt>
      <trkpt lat="44.93647" lon="1.06904">
        <ele>111</ele>
        <time>2014-08-18T10:33:01Z</time>
      </trkpt>
      <trkpt lat="44.9365" lon="1.06903">
        <ele>111</ele>
        <time>2014-08-18T10:33:03Z</time>
      </trkpt>
      <trkpt lat="44.93653" lon="1.06901">
        <ele>112</ele>
        <time>2014-08-18T10:33:05Z</time>
      </trkpt>
      <trkpt lat="44.93659" lon="1.06897">
        <ele>113</ele>
        <time>2014-08-18T10:33:08Z</time>
      </trkpt>
      <trkpt lat="44.93664" lon="1.06893">
        <ele>114</ele>
        <time>2014-08-18T10:33:11Z</time>
      </trkpt>
      <trkpt lat="44.93667" lon="1.0689">
        <ele>114</ele>
        <time>2014-08-18T10:33:13Z</time>
      </trkpt>
      <trkpt lat="44.93671" lon="1.06886">
        <ele>115</ele>
        <time>2014-08-18T10:33:16Z</time>
      </trkpt>
      <trkpt lat="44.93674" lon="1.06884">
        <ele>116</ele>
        <time>2014-08-18T10:33:18Z</time>
      </trkpt>
      <trkpt lat="44.93679" lon="1.0688">
        <ele>117</ele>
        <time>2014-08-18T10:33:21Z</time>
      </trkpt>
      <trkpt lat="44.93683" lon="1.06879">
        <ele>117</ele>
        <time>2014-08-18T10:33:23Z</time>
      </trkpt>
      <trkpt lat="44.93687" lon="1.06877">
        <ele>118</ele>
        <time>2014-08-18T10:33:25Z</time>
      </trkpt>
      <trkpt lat="44.9369" lon="1.06876">
        <ele>118</ele>
        <time>2014-08-18T10:33:27Z</time>
      </trkpt>
      <trkpt lat="44.93694" lon="1.06875">
        <ele>119</ele>
        <time>2014-08-18T10:33:29Z</time>
      </trkpt>
      <trkpt lat="44.93697" lon="1.06873">
        <ele>119</ele>
        <time>2014-08-18T10:33:31Z</time>
      </trkpt>
      <trkpt lat="44.93701" lon="1.06872">
        <ele>120</ele>
        <time>2014-08-18T10:33:33Z</time>
      </trkpt>
      <trkpt lat="44.93707" lon="1.06871">
        <ele>121</ele>
        <time>2014-08-18T10:33:36Z</time>
      </trkpt>
      <trkpt lat="44.9371" lon="1.0687">
        <ele>121</ele>
        <time>2014-08-18T10:33:38Z</time>
      </trkpt>
      <trkpt lat="44.93716" lon="1.06869">
        <ele>122</ele>
        <time>2014-08-18T10:33:41Z</time>
      </trkpt>
      <trkpt lat="44.93721" lon="1.06868">
        <ele>122</ele>
        <time>2014-08-18T10:33:43Z</time>
      </trkpt>
      <trkpt lat="44.93725" lon="1.06866">
        <ele>123</ele>
        <time>2014-08-18T10:33:45Z</time>
      </trkpt>
      <trkpt lat="44.9373" lon="1.06866">
        <ele>123</ele>
        <time>2014-08-18T10:33:47Z</time>
      </trkpt>
      <trkpt lat="44.93734" lon="1.06866">
        <ele>124</ele>
        <time>2014-08-18T10:33:49Z</time>
      </trkpt>
      <trkpt lat="44.93738" lon="1.06865">
        <ele>124</ele>
        <time>2014-08-18T10:33:51Z</time>
      </trkpt>
      <trkpt lat="44.93743" lon="1.06865">
        <ele>125</ele>
        <time>2014-08-18T10:33:53Z</time>
      </trkpt>
      <trkpt lat="44.9375" lon="1.06865">
        <ele>126</ele>
        <time>2014-08-18T10:33:56Z</time>
      </trkpt>
      <trkpt lat="44.93756" lon="1.06865">
        <ele>127</ele>
        <time>2014-08-18T10:33:59Z</time>
      </trkpt>
      <trkpt lat="44.93761" lon="1.06863">
        <ele>127</ele>
        <time>2014-08-18T10:34:01Z</time>
      </trkpt>
      <trkpt lat="44.93768" lon="1.06861">
        <ele>128</ele>
        <time>2014-08-18T10:34:04Z</time>
      </trkpt>
      <trkpt lat="44.93776" lon="1.06859">
        <ele>129</ele>
        <time>2014-08-18T10:34:07Z</time>
      </trkpt>
      <trkpt lat="44.9378" lon="1.06859">
        <ele>130</ele>
        <time>2014-08-18T10:34:09Z</time>
      </trkpt>
      <trkpt lat="44.93784" lon="1.06858">
        <ele>130</ele>
        <time>2014-08-18T10:34:11Z</time>
      </trkpt>
      <trkpt lat="44.93789" lon="1.06858">
        <ele>131</ele>
        <time>2014-08-18T10:34:13Z</time>
      </trkpt>
      <trkpt lat="44.93791" lon="1.06861">
        <ele>131</ele>
        <time>2014-08-18T10:34:15Z</time>
      </trkpt>
      <trkpt lat="44.9379" lon="1.06864">
        <ele>132</ele>
        <time>2014-08-18T10:34:17Z</time>
      </trkpt>
      <trkpt lat="44.93789" lon="1.06867">
        <ele>132</ele>
        <time>2014-08-18T10:34:19Z</time>
      </trkpt>
      <trkpt lat="44.93787" lon="1.06869">
        <ele>133</ele>
        <time>2014-08-18T10:34:21Z</time>
      </trkpt>
      <trkpt lat="44.93785" lon="1.06871">
        <ele>134</ele>
        <time>2014-08-18T10:34:23Z</time>
      </trkpt>
      <trkpt lat="44.93784" lon="1.06873">
        <ele>134</ele>
        <time>2014-08-18T10:34:25Z</time>
      </trkpt>
      <trkpt lat="44.93782" lon="1.06875">
        <ele>135</ele>
        <time>2014-08-18T10:34:27Z</time>
      </trkpt>
      <trkpt lat="44.93781" lon="1.0688">
        <ele>135</ele>
        <time>2014-08-18T10:34:30Z</time>
      </trkpt>
      <trkpt lat="44.93783" lon="1.06886">
        <ele>136</ele>
        <time>2014-08-18T10:34:33Z</time>
      </trkpt>
      <trkpt lat="44.93787" lon="1.06893">
        <ele>137</ele>
        <time>2014-08-18T10:34:35Z</time>
      </trkpt>
      <trkpt lat="44.93789" lon="1.06897">
        <ele>138</ele>
        <time>2014-08-18T10:34:38Z</time>
      </trkpt>
      <trkpt lat="44.93793" lon="1.069">
        <ele>138</ele>
        <time>2014-08-18T10:34:40Z</time>
      </trkpt>
      <trkpt lat="44.93797" lon="1.06905">
        <ele>139</ele>
        <time>2014-08-18T10:34:42Z</time>
      </trkpt>
      <trkpt lat="44.938" lon="1.06909">
        <ele>140</ele>
        <time>2014-08-18T10:34:44Z</time>
      </trkpt>
      <trkpt lat="44.93804" lon="1.06913">
        <ele>141</ele>
        <time>2014-08-18T10:34:46Z</time>
      </trkpt>
      <trkpt lat="44.93808" lon="1.06918">
        <ele>142</ele>
        <time>2014-08-18T10:34:48Z</time>
      </trkpt>
      <trkpt lat="44.93813" lon="1.06925">
        <ele>143</ele>
        <time>2014-08-18T10:34:50Z</time>
      </trkpt>
      <trkpt lat="44.93817" lon="1.06929">
        <ele>143</ele>
        <time>2014-08-18T10:34:53Z</time>
      </trkpt>
      <trkpt lat="44.9382" lon="1.06934">
        <ele>144</ele>
        <time>2014-08-18T10:34:55Z</time>
      </trkpt>
      <trkpt lat="44.93823" lon="1.06938">
        <ele>145</ele>
        <time>2014-08-18T10:34:57Z</time>
      </trkpt>
      <trkpt lat="44.93826" lon="1.06942">
        <ele>146</ele>
        <time>2014-08-18T10:34:59Z</time>
      </trkpt>
      <trkpt lat="44.9383" lon="1.06945">
        <ele>146</ele>
        <time>2014-08-18T10:35:01Z</time>
      </trkpt>
      <trkpt lat="44.93835" lon="1.06951">
        <ele>148</ele>
        <time>2014-08-18T10:35:04Z</time>
      </trkpt>
      <trkpt lat="44.93838" lon="1.06955">
        <ele>148</ele>
        <time>2014-08-18T10:35:06Z</time>
      </trkpt>
      <trkpt lat="44.93842" lon="1.06959">
        <ele>149</ele>
        <time>2014-08-18T10:35:08Z</time>
      </trkpt>
      <trkpt lat="44.93845" lon="1.06963">
        <ele>149</ele>
        <time>2014-08-18T10:35:10Z</time>
      </trkpt>
      <trkpt lat="44.9385" lon="1.06969">
        <ele>150</ele>
        <time>2014-08-18T10:35:12Z</time>
      </trkpt>
      <trkpt lat="44.93853" lon="1.06974">
        <ele>150</ele>
        <time>2014-08-18T10:35:14Z</time>
      </trkpt>
      <trkpt lat="44.93855" lon="1.06978">
        <ele>151</ele>
        <time>2014-08-18T10:35:17Z</time>
      </trkpt>
      <trkpt lat="44.93858" lon="1.06981">
        <ele>151</ele>
        <time>2014-08-18T10:35:19Z</time>
      </trkpt>
      <trkpt lat="44.93861" lon="1.06986">
        <ele>152</ele>
        <time>2014-08-18T10:35:22Z</time>
      </trkpt>
      <trkpt lat="44.93864" lon="1.06988">
        <ele>153</ele>
        <time>2014-08-18T10:35:24Z</time>
      </trkpt>
      <trkpt lat="44.93868" lon="1.06993">
        <ele>153</ele>
        <time>2014-08-18T10:35:27Z</time>
      </trkpt>
      <trkpt lat="44.93871" lon="1.06996">
        <ele>154</ele>
        <time>2014-08-18T10:35:29Z</time>
      </trkpt>
      <trkpt lat="44.93876" lon="1.07">
        <ele>154</ele>
        <time>2014-08-18T10:35:31Z</time>
      </trkpt>
      <trkpt lat="44.93881" lon="1.07005">
        <ele>154</ele>
        <time>2014-08-18T10:35:33Z</time>
      </trkpt>
      <trkpt lat="44.93884" lon="1.07008">
        <ele>155</ele>
        <time>2014-08-18T10:35:35Z</time>
      </trkpt>
      <trkpt lat="44.93887" lon="1.07013">
        <ele>155</ele>
        <time>2014-08-18T10:35:37Z</time>
      </trkpt>
      <trkpt lat="44.9389" lon="1.0702">
        <ele>155</ele>
        <time>2014-08-18T10:35:40Z</time>
      </trkpt>
      <trkpt lat="44.93891" lon="1.07027">
        <ele>156</ele>
        <time>2014-08-18T10:35:42Z</time>
      </trkpt>
      <trkpt lat="44.93893" lon="1.07035">
        <ele>156</ele>
        <time>2014-08-18T10:35:44Z</time>
      </trkpt>
      <trkpt lat="44.93894" lon="1.07047">
        <ele>157</ele>
        <time>2014-08-18T10:35:46Z</time>
      </trkpt>
      <trkpt lat="44.93894" lon="1.07056">
        <ele>158</ele>
        <time>2014-08-18T10:35:48Z</time>
      </trkpt>
      <trkpt lat="44.93896" lon="1.07067">
        <ele>158</ele>
        <time>2014-08-18T10:35:50Z</time>
      </trkpt>
      <trkpt lat="44.939" lon="1.07079">
        <ele>159</ele>
        <time>2014-08-18T10:35:53Z</time>
      </trkpt>
      <trkpt lat="44.93905" lon="1.07089">
        <ele>159</ele>
        <time>2014-08-18T10:35:55Z</time>
      </trkpt>
      <trkpt lat="44.93914" lon="1.07104">
        <ele>159</ele>
        <time>2014-08-18T10:35:57Z</time>
      </trkpt>
      <trkpt lat="44.93921" lon="1.07113">
        <ele>160</ele>
        <time>2014-08-18T10:35:59Z</time>
      </trkpt>
      <trkpt lat="44.93927" lon="1.07122">
        <ele>160</ele>
        <time>2014-08-18T10:36:01Z</time>
      </trkpt>
      <trkpt lat="44.93933" lon="1.07131">
        <ele>160</ele>
        <time>2014-08-18T10:36:03Z</time>
      </trkpt>
      <trkpt lat="44.93937" lon="1.0714">
        <ele>160</ele>
        <time>2014-08-18T10:36:05Z</time>
      </trkpt>
      <trkpt lat="44.93941" lon="1.07148">
        <ele>160</ele>
        <time>2014-08-18T10:36:07Z</time>
      </trkpt>
      <trkpt lat="44.93945" lon="1.07156">
        <ele>161</ele>
        <time>2014-08-18T10:36:10Z</time>
      </trkpt>
      <trkpt lat="44.93948" lon="1.07164">
        <ele>162</ele>
        <time>2014-08-18T10:36:12Z</time>
      </trkpt>
      <trkpt lat="44.93953" lon="1.07173">
        <ele>162</ele>
        <time>2014-08-18T10:36:14Z</time>
      </trkpt>
      <trkpt lat="44.93957" lon="1.07181">
        <ele>163</ele>
        <time>2014-08-18T10:36:16Z</time>
      </trkpt>
      <trkpt lat="44.93962" lon="1.07189">
        <ele>163</ele>
        <time>2014-08-18T10:36:18Z</time>
      </trkpt>
      <trkpt lat="44.9397" lon="1.072">
        <ele>164</ele>
        <time>2014-08-18T10:36:20Z</time>
      </trkpt>
      <trkpt lat="44.93976" lon="1.07206">
        <ele>164</ele>
        <time>2014-08-18T10:36:22Z</time>
      </trkpt>
      <trkpt lat="44.93983" lon="1.07212">
        <ele>164</ele>
        <time>2014-08-18T10:36:24Z</time>
      </trkpt>
      <trkpt lat="44.93989" lon="1.07217">
        <ele>165</ele>
        <time>2014-08-18T10:36:26Z</time>
      </trkpt>
      <trkpt lat="44.93996" lon="1.07222">
        <ele>165</ele>
        <time>2014-08-18T10:36:29Z</time>
      </trkpt>
      <trkpt lat="44.94004" lon="1.07226">
        <ele>165</ele>
        <time>2014-08-18T10:36:31Z</time>
      </trkpt>
      <trkpt lat="44.94011" lon="1.0723">
        <ele>166</ele>
        <time>2014-08-18T10:36:33Z</time>
      </trkpt>
      <trkpt lat="44.94024" lon="1.07237">
        <ele>166</ele>
        <time>2014-08-18T10:36:36Z</time>
      </trkpt>
      <trkpt lat="44.94029" lon="1.07245">
        <ele>166</ele>
        <time>2014-08-18T10:36:38Z</time>
      </trkpt>
      <trkpt lat="44.94029" lon="1.07254">
        <ele>166</ele>
        <time>2014-08-18T10:36:40Z</time>
      </trkpt>
      <trkpt lat="44.94025" lon="1.07266">
        <ele>167</ele>
        <time>2014-08-18T10:36:42Z</time>
      </trkpt>
      <trkpt lat="44.94021" lon="1.07274">
        <ele>168</ele>
        <time>2014-08-18T10:36:44Z</time>
      </trkpt>
      <trkpt lat="44.94018" lon="1.07281">
        <ele>170</ele>
        <time>2014-08-18T10:36:46Z</time>
      </trkpt>
      <trkpt lat="44.94014" lon="1.07289">
        <ele>171</ele>
        <time>2014-08-18T10:36:48Z</time>
      </trkpt>
      <trkpt lat="44.94011" lon="1.07296">
        <ele>172</ele>
        <time>2014-08-18T10:36:50Z</time>
      </trkpt>
      <trkpt lat="44.94008" lon="1.07304">
        <ele>173</ele>
        <time>2014-08-18T10:36:53Z</time>
      </trkpt>
      <trkpt lat="44.94004" lon="1.07312">
        <ele>174</ele>
        <time>2014-08-18T10:36:55Z</time>
      </trkpt>
      <trkpt lat="44.93999" lon="1.07323">
        <ele>176</ele>
        <time>2014-08-18T10:36:57Z</time>
      </trkpt>
      <trkpt lat="44.93997" lon="1.07331">
        <ele>176</ele>
        <time>2014-08-18T10:36:59Z</time>
      </trkpt>
      <trkpt lat="44.93995" lon="1.07337">
        <ele>177</ele>
        <time>2014-08-18T10:37:02Z</time>
      </trkpt>
      <trkpt lat="44.93993" lon="1.07345">
        <ele>178</ele>
        <time>2014-08-18T10:37:04Z</time>
      </trkpt>
      <trkpt lat="44.93992" lon="1.07353">
        <ele>178</ele>
        <time>2014-08-18T10:37:06Z</time>
      </trkpt>
      <trkpt lat="44.93992" lon="1.07365">
        <ele>179</ele>
        <time>2014-08-18T10:37:09Z</time>
      </trkpt>
      <trkpt lat="44.93995" lon="1.07377">
        <ele>180</ele>
        <time>2014-08-18T10:37:11Z</time>
      </trkpt>
      <trkpt lat="44.93999" lon="1.07385">
        <ele>180</ele>
        <time>2014-08-18T10:37:13Z</time>
      </trkpt>
      <trkpt lat="44.94002" lon="1.07391">
        <ele>181</ele>
        <time>2014-08-18T10:37:16Z</time>
      </trkpt>
      <trkpt lat="44.94006" lon="1.07397">
        <ele>181</ele>
        <time>2014-08-18T10:37:18Z</time>
      </trkpt>
      <trkpt lat="44.94012" lon="1.07406">
        <ele>181</ele>
        <time>2014-08-18T10:37:21Z</time>
      </trkpt>
      <trkpt lat="44.94013" lon="1.07411">
        <ele>181</ele>
        <time>2014-08-18T10:37:23Z</time>
      </trkpt>
      <trkpt lat="44.94013" lon="1.07422">
        <ele>181</ele>
        <time>2014-08-18T10:37:25Z</time>
      </trkpt>
      <trkpt lat="44.9401" lon="1.07431">
        <ele>182</ele>
        <time>2014-08-18T10:37:27Z</time>
      </trkpt>
      <trkpt lat="44.94008" lon="1.07439">
        <ele>182</ele>
        <time>2014-08-18T10:37:30Z</time>
      </trkpt>
      <trkpt lat="44.94007" lon="1.07446">
        <ele>182</ele>
        <time>2014-08-18T10:37:32Z</time>
      </trkpt>
      <trkpt lat="44.94007" lon="1.07453">
        <ele>183</ele>
        <time>2014-08-18T10:37:34Z</time>
      </trkpt>
      <trkpt lat="44.94005" lon="1.07461">
        <ele>183</ele>
        <time>2014-08-18T10:37:36Z</time>
      </trkpt>
      <trkpt lat="44.94004" lon="1.07469">
        <ele>183</ele>
        <time>2014-08-18T10:37:38Z</time>
      </trkpt>
      <trkpt lat="44.94002" lon="1.07475">
        <ele>182</ele>
        <time>2014-08-18T10:37:40Z</time>
      </trkpt>
      <trkpt lat="44.93998" lon="1.07483">
        <ele>182</ele>
        <time>2014-08-18T10:37:42Z</time>
      </trkpt>
      <trkpt lat="44.93994" lon="1.07489">
        <ele>182</ele>
        <time>2014-08-18T10:37:44Z</time>
      </trkpt>
      <trkpt lat="44.9399" lon="1.07497">
        <ele>182</ele>
        <time>2014-08-18T10:37:46Z</time>
      </trkpt>
      <trkpt lat="44.93986" lon="1.07504">
        <ele>183</ele>
        <time>2014-08-18T10:37:49Z</time>
      </trkpt>
      <trkpt lat="44.9398" lon="1.07516">
        <ele>183</ele>
        <time>2014-08-18T10:37:52Z</time>
      </trkpt>
      <trkpt lat="44.93976" lon="1.07524">
        <ele>184</ele>
        <time>2014-08-18T10:37:54Z</time>
      </trkpt>
      <trkpt lat="44.93973" lon="1.07533">
        <ele>184</ele>
        <time>2014-08-18T10:37:56Z</time>
      </trkpt>
      <trkpt lat="44.93971" lon="1.07542">
        <ele>185</ele>
        <time>2014-08-18T10:37:58Z</time>
      </trkpt>
      <trkpt lat="44.9397" lon="1.07557">
        <ele>185</ele>
        <time>2014-08-18T10:38:01Z</time>
      </trkpt>
      <trkpt lat="44.9397" lon="1.07567">
        <ele>186</ele>
        <time>2014-08-18T10:38:03Z</time>
      </trkpt>
      <trkpt lat="44.93971" lon="1.0758">
        <ele>186</ele>
        <time>2014-08-18T10:38:05Z</time>
      </trkpt>
      <trkpt lat="44.93972" lon="1.07589">
        <ele>187</ele>
        <time>2014-08-18T10:38:07Z</time>
      </trkpt>
      <trkpt lat="44.93973" lon="1.07603">
        <ele>187</ele>
        <time>2014-08-18T10:38:10Z</time>
      </trkpt>
      <trkpt lat="44.93972" lon="1.07617">
        <ele>188</ele>
        <time>2014-08-18T10:38:13Z</time>
      </trkpt>
      <trkpt lat="44.93973" lon="1.07626">
        <ele>189</ele>
        <time>2014-08-18T10:38:15Z</time>
      </trkpt>
      <trkpt lat="44.93977" lon="1.07639">
        <ele>189</ele>
        <time>2014-08-18T10:38:18Z</time>
      </trkpt>
      <trkpt lat="44.93985" lon="1.07654">
        <ele>189</ele>
        <time>2014-08-18T10:38:22Z</time>
      </trkpt>
      <trkpt lat="44.93996" lon="1.07671">
        <ele>188</ele>
        <time>2014-08-18T10:38:24Z</time>
      </trkpt>
      <trkpt lat="44.94002" lon="1.07688">
        <ele>188</ele>
        <time>2014-08-18T10:38:26Z</time>
      </trkpt>
      <trkpt lat="44.94005" lon="1.07706">
        <ele>187</ele>
        <time>2014-08-18T10:38:28Z</time>
      </trkpt>
      <trkpt lat="44.94008" lon="1.07724">
        <ele>187</ele>
        <time>2014-08-18T10:38:30Z</time>
      </trkpt>
      <trkpt lat="44.94011" lon="1.07741">
        <ele>187</ele>
        <time>2014-08-18T10:38:33Z</time>
      </trkpt>
      <trkpt lat="44.94014" lon="1.07765">
        <ele>186</ele>
        <time>2014-08-18T10:38:35Z</time>
      </trkpt>
      <trkpt lat="44.94016" lon="1.07782">
        <ele>186</ele>
        <time>2014-08-18T10:38:38Z</time>
      </trkpt>
      <trkpt lat="44.94017" lon="1.07799">
        <ele>186</ele>
        <time>2014-08-18T10:38:40Z</time>
      </trkpt>
      <trkpt lat="44.94018" lon="1.07824">
        <ele>186</ele>
        <time>2014-08-18T10:38:42Z</time>
      </trkpt>
      <trkpt lat="44.94017" lon="1.07849">
        <ele>186</ele>
        <time>2014-08-18T10:38:46Z</time>
      </trkpt>
      <trkpt lat="44.94013" lon="1.07874">
        <ele>186</ele>
        <time>2014-08-18T10:38:49Z</time>
      </trkpt>
      <trkpt lat="44.94003" lon="1.07895">
        <ele>186</ele>
        <time>2014-08-18T10:38:51Z</time>
      </trkpt>
      <trkpt lat="44.93988" lon="1.07911">
        <ele>185</ele>
        <time>2014-08-18T10:38:55Z</time>
      </trkpt>
      <trkpt lat="44.93975" lon="1.07922">
        <ele>185</ele>
        <time>2014-08-18T10:38:57Z</time>
      </trkpt>
      <trkpt lat="44.93955" lon="1.07939">
        <ele>184</ele>
        <time>2014-08-18T10:38:59Z</time>
      </trkpt>
      <trkpt lat="44.93943" lon="1.07955">
        <ele>183</ele>
        <time>2014-08-18T10:39:01Z</time>
      </trkpt>
      <trkpt lat="44.93931" lon="1.07975">
        <ele>182</ele>
        <time>2014-08-18T10:39:03Z</time>
      </trkpt>
      <trkpt lat="44.93923" lon="1.07995">
        <ele>181</ele>
        <time>2014-08-18T10:39:06Z</time>
      </trkpt>
      <trkpt lat="44.93913" lon="1.08024">
        <ele>180</ele>
        <time>2014-08-18T10:39:09Z</time>
      </trkpt>
      <trkpt lat="44.93903" lon="1.08048">
        <ele>179</ele>
        <time>2014-08-18T10:39:12Z</time>
      </trkpt>
      <trkpt lat="44.93894" lon="1.08063">
        <ele>179</ele>
        <time>2014-08-18T10:39:14Z</time>
      </trkpt>
      <trkpt lat="44.93885" lon="1.08074">
        <ele>178</ele>
        <time>2014-08-18T10:39:16Z</time>
      </trkpt>
      <trkpt lat="44.93875" lon="1.08087">
        <ele>177</ele>
        <time>2014-08-18T10:39:18Z</time>
      </trkpt>
      <trkpt lat="44.93876" lon="1.08095">
        <ele>177</ele>
        <time>2014-08-18T10:39:20Z</time>
      </trkpt>
      <trkpt lat="44.9388" lon="1.081">
        <ele>176</ele>
        <time>2014-08-18T10:39:22Z</time>
      </trkpt>
      <trkpt lat="44.93885" lon="1.08105">
        <ele>177</ele>
        <time>2014-08-18T10:39:24Z</time>
      </trkpt>
      <trkpt lat="44.9389" lon="1.08111">
        <ele>177</ele>
        <time>2014-08-18T10:39:28Z</time>
      </trkpt>
      <trkpt lat="44.93892" lon="1.08115">
        <ele>177</ele>
        <time>2014-08-18T10:39:30Z</time>
      </trkpt>
      <trkpt lat="44.93893" lon="1.08119">
        <ele>177</ele>
        <time>2014-08-18T10:39:32Z</time>
      </trkpt>
      <trkpt lat="44.93895" lon="1.08125">
        <ele>177</ele>
        <time>2014-08-18T10:39:34Z</time>
      </trkpt>
      <trkpt lat="44.93899" lon="1.08132">
        <ele>178</ele>
        <time>2014-08-18T10:39:36Z</time>
      </trkpt>
      <trkpt lat="44.93901" lon="1.0814">
        <ele>178</ele>
        <time>2014-08-18T10:39:38Z</time>
      </trkpt>
      <trkpt lat="44.93902" lon="1.08148">
        <ele>178</ele>
        <time>2014-08-18T10:39:40Z</time>
      </trkpt>
      <trkpt lat="44.93902" lon="1.08163">
        <ele>179</ele>
        <time>2014-08-18T10:39:42Z</time>
      </trkpt>
      <trkpt lat="44.939" lon="1.08174">
        <ele>179</ele>
        <time>2014-08-18T10:39:44Z</time>
      </trkpt>
      <trkpt lat="44.93896" lon="1.08191">
        <ele>180</ele>
        <time>2014-08-18T10:39:47Z</time>
      </trkpt>
      <trkpt lat="44.93893" lon="1.08202">
        <ele>180</ele>
        <time>2014-08-18T10:39:49Z</time>
      </trkpt>
      <trkpt lat="44.93891" lon="1.08214">
        <ele>181</ele>
        <time>2014-08-18T10:39:51Z</time>
      </trkpt>
      <trkpt lat="44.93888" lon="1.08227">
        <ele>181</ele>
        <time>2014-08-18T10:39:53Z</time>
      </trkpt>
      <trkpt lat="44.93886" lon="1.08239">
        <ele>181</ele>
        <time>2014-08-18T10:39:55Z</time>
      </trkpt>
      <trkpt lat="44.93886" lon="1.08251">
        <ele>181</ele>
        <time>2014-08-18T10:39:58Z</time>
      </trkpt>
      <trkpt lat="44.93885" lon="1.08256">
        <ele>181</ele>
        <time>2014-08-18T10:40:00Z</time>
      </trkpt>
      <trkpt lat="44.93883" lon="1.08263">
        <ele>181</ele>
        <time>2014-08-18T10:40:02Z</time>
      </trkpt>
      <trkpt lat="44.93882" lon="1.08271">
        <ele>181</ele>
        <time>2014-08-18T10:40:05Z</time>
      </trkpt>
      <trkpt lat="44.9388" lon="1.08283">
        <ele>181</ele>
        <time>2014-08-18T10:40:07Z</time>
      </trkpt>
      <trkpt lat="44.93877" lon="1.08293">
        <ele>181</ele>
        <time>2014-08-18T10:40:09Z</time>
      </trkpt>
      <trkpt lat="44.93874" lon="1.08303">
        <ele>181</ele>
        <time>2014-08-18T10:40:12Z</time>
      </trkpt>
      <trkpt lat="44.93869" lon="1.0832">
        <ele>181</ele>
        <time>2014-08-18T10:40:14Z</time>
      </trkpt>
      <trkpt lat="44.93865" lon="1.08331">
        <ele>181</ele>
        <time>2014-08-18T10:40:16Z</time>
      </trkpt>
      <trkpt lat="44.93863" lon="1.08337">
        <ele>181</ele>
        <time>2014-08-18T10:40:19Z</time>
      </trkpt>
      <trkpt lat="44.93864" lon="1.08339">
        <ele>182</ele>
        <time>2014-08-18T10:40:22Z</time>
      </trkpt>
      <trkpt lat="44.93864" lon="1.08339">
        <ele>182</ele>
        <time>2014-08-18T10:40:24Z</time>
      </trkpt>
      <trkpt lat="44.93859" lon="1.08373">
        <ele>183</ele>
        <time>2014-08-18T10:40:27Z</time>
      </trkpt>
      <trkpt lat="44.93855" lon="1.08378">
        <ele>183</ele>
        <time>2014-08-18T10:40:29Z</time>
      </trkpt>
      <trkpt lat="44.93848" lon="1.0839">
        <ele>183</ele>
        <time>2014-08-18T10:40:32Z</time>
      </trkpt>
      <trkpt lat="44.93843" lon="1.08399">
        <ele>183</ele>
        <time>2014-08-18T10:40:34Z</time>
      </trkpt>
      <trkpt lat="44.93837" lon="1.08408">
        <ele>183</ele>
        <time>2014-08-18T10:40:36Z</time>
      </trkpt>
      <trkpt lat="44.93831" lon="1.08418">
        <ele>184</ele>
        <time>2014-08-18T10:40:38Z</time>
      </trkpt>
      <trkpt lat="44.93824" lon="1.08426">
        <ele>184</ele>
        <time>2014-08-18T10:40:40Z</time>
      </trkpt>
      <trkpt lat="44.93816" lon="1.08437">
        <ele>184</ele>
        <time>2014-08-18T10:40:43Z</time>
      </trkpt>
      <trkpt lat="44.93811" lon="1.08444">
        <ele>184</ele>
        <time>2014-08-18T10:40:45Z</time>
      </trkpt>
      <trkpt lat="44.93805" lon="1.08451">
        <ele>185</ele>
        <time>2014-08-18T10:40:47Z</time>
      </trkpt>
      <trkpt lat="44.938" lon="1.08457">
        <ele>185</ele>
        <time>2014-08-18T10:40:49Z</time>
      </trkpt>
      <trkpt lat="44.93794" lon="1.08463">
        <ele>185</ele>
        <time>2014-08-18T10:40:51Z</time>
      </trkpt>
      <trkpt lat="44.93788" lon="1.08468">
        <ele>185</ele>
        <time>2014-08-18T10:40:53Z</time>
      </trkpt>
      <trkpt lat="44.93783" lon="1.08475">
        <ele>186</ele>
        <time>2014-08-18T10:40:55Z</time>
      </trkpt>
      <trkpt lat="44.93777" lon="1.0848">
        <ele>186</ele>
        <time>2014-08-18T10:40:57Z</time>
      </trkpt>
      <trkpt lat="44.93771" lon="1.08485">
        <ele>186</ele>
        <time>2014-08-18T10:40:59Z</time>
      </trkpt>
      <trkpt lat="44.93761" lon="1.08493">
        <ele>186</ele>
        <time>2014-08-18T10:41:02Z</time>
      </trkpt>
      <trkpt lat="44.93754" lon="1.08498">
        <ele>186</ele>
        <time>2014-08-18T10:41:04Z</time>
      </trkpt>
      <trkpt lat="44.93747" lon="1.08503">
        <ele>185</ele>
        <time>2014-08-18T10:41:06Z</time>
      </trkpt>
      <trkpt lat="44.93735" lon="1.08511">
        <ele>185</ele>
        <time>2014-08-18T10:41:09Z</time>
      </trkpt>
      <trkpt lat="44.93726" lon="1.08517">
        <ele>185</ele>
        <time>2014-08-18T10:41:11Z</time>
      </trkpt>
      <trkpt lat="44.93715" lon="1.08521">
        <ele>184</ele>
        <time>2014-08-18T10:41:13Z</time>
      </trkpt>
      <trkpt lat="44.93705" lon="1.08528">
        <ele>184</ele>
        <time>2014-08-18T10:41:15Z</time>
      </trkpt>
      <trkpt lat="44.93688" lon="1.08541">
        <ele>183</ele>
        <time>2014-08-18T10:41:18Z</time>
      </trkpt>
      <trkpt lat="44.93671" lon="1.08554">
        <ele>183</ele>
        <time>2014-08-18T10:41:21Z</time>
      </trkpt>
      <trkpt lat="44.93652" lon="1.0857">
        <ele>182</ele>
        <time>2014-08-18T10:41:24Z</time>
      </trkpt>
      <trkpt lat="44.93633" lon="1.08588">
        <ele>181</ele>
        <time>2014-08-18T10:41:27Z</time>
      </trkpt>
      <trkpt lat="44.93614" lon="1.08611">
        <ele>180</ele>
        <time>2014-08-18T10:41:30Z</time>
      </trkpt>
      <trkpt lat="44.93596" lon="1.08635">
        <ele>179</ele>
        <time>2014-08-18T10:41:33Z</time>
      </trkpt>
      <trkpt lat="44.93579" lon="1.0866">
        <ele>178</ele>
        <time>2014-08-18T10:41:36Z</time>
      </trkpt>
      <trkpt lat="44.93564" lon="1.08684">
        <ele>178</ele>
        <time>2014-08-18T10:41:39Z</time>
      </trkpt>
      <trkpt lat="44.93556" lon="1.08702">
        <ele>177</ele>
        <time>2014-08-18T10:41:41Z</time>
      </trkpt>
      <trkpt lat="44.93548" lon="1.0872">
        <ele>177</ele>
        <time>2014-08-18T10:41:43Z</time>
      </trkpt>
      <trkpt lat="44.93538" lon="1.08749">
        <ele>177</ele>
        <time>2014-08-18T10:41:46Z</time>
      </trkpt>
      <trkpt lat="44.93531" lon="1.0877">
        <ele>176</ele>
        <time>2014-08-18T10:41:48Z</time>
      </trkpt>
      <trkpt lat="44.93523" lon="1.08803">
        <ele>176</ele>
        <time>2014-08-18T10:41:51Z</time>
      </trkpt>
      <trkpt lat="44.93515" lon="1.08836">
        <ele>175</ele>
        <time>2014-08-18T10:41:54Z</time>
      </trkpt>
      <trkpt lat="44.9351" lon="1.08857">
        <ele>175</ele>
        <time>2014-08-18T10:41:56Z</time>
      </trkpt>
      <trkpt lat="44.93505" lon="1.08878">
        <ele>174</ele>
        <time>2014-08-18T10:41:58Z</time>
      </trkpt>
      <trkpt lat="44.93498" lon="1.08906">
        <ele>174</ele>
        <time>2014-08-18T10:42:01Z</time>
      </trkpt>
      <trkpt lat="44.93494" lon="1.08923">
        <ele>174</ele>
        <time>2014-08-18T10:42:03Z</time>
      </trkpt>
      <trkpt lat="44.93488" lon="1.08934">
        <ele>173</ele>
        <time>2014-08-18T10:42:05Z</time>
      </trkpt>
      <trkpt lat="44.93485" lon="1.08952">
        <ele>173</ele>
        <time>2014-08-18T10:42:08Z</time>
      </trkpt>
      <trkpt lat="44.93485" lon="1.08958">
        <ele>173</ele>
        <time>2014-08-18T10:42:10Z</time>
      </trkpt>
      <trkpt lat="44.93481" lon="1.08962">
        <ele>174</ele>
        <time>2014-08-18T10:42:12Z</time>
      </trkpt>
      <trkpt lat="44.93482" lon="1.0897">
        <ele>174</ele>
        <time>2014-08-18T10:42:14Z</time>
      </trkpt>
      <trkpt lat="44.93484" lon="1.08981">
        <ele>175</ele>
        <time>2014-08-18T10:42:17Z</time>
      </trkpt>
      <trkpt lat="44.93486" lon="1.0899">
        <ele>175</ele>
        <time>2014-08-18T10:42:19Z</time>
      </trkpt>
      <trkpt lat="44.93487" lon="1.09003">
        <ele>176</ele>
        <time>2014-08-18T10:42:22Z</time>
      </trkpt>
      <trkpt lat="44.93488" lon="1.09012">
        <ele>176</ele>
        <time>2014-08-18T10:42:24Z</time>
      </trkpt>
      <trkpt lat="44.93489" lon="1.09021">
        <ele>177</ele>
        <time>2014-08-18T10:42:26Z</time>
      </trkpt>
      <trkpt lat="44.93491" lon="1.0903">
        <ele>177</ele>
        <time>2014-08-18T10:42:28Z</time>
      </trkpt>
      <trkpt lat="44.93494" lon="1.09043">
        <ele>177</ele>
        <time>2014-08-18T10:42:31Z</time>
      </trkpt>
      <trkpt lat="44.93496" lon="1.0905">
        <ele>177</ele>
        <time>2014-08-18T10:42:33Z</time>
      </trkpt>
      <trkpt lat="44.93497" lon="1.09059">
        <ele>177</ele>
        <time>2014-08-18T10:42:35Z</time>
      </trkpt>
      <trkpt lat="44.93495" lon="1.09069">
        <ele>177</ele>
        <time>2014-08-18T10:42:37Z</time>
      </trkpt>
      <trkpt lat="44.93491" lon="1.09077">
        <ele>177</ele>
        <time>2014-08-18T10:42:39Z</time>
      </trkpt>
      <trkpt lat="44.93485" lon="1.09091">
        <ele>178</ele>
        <time>2014-08-18T10:42:42Z</time>
      </trkpt>
      <trkpt lat="44.9348" lon="1.09098">
        <ele>178</ele>
        <time>2014-08-18T10:42:44Z</time>
      </trkpt>
      <trkpt lat="44.93474" lon="1.09108">
        <ele>178</ele>
        <time>2014-08-18T10:42:47Z</time>
      </trkpt>
      <trkpt lat="44.93471" lon="1.09116">
        <ele>179</ele>
        <time>2014-08-18T10:42:49Z</time>
      </trkpt>
      <trkpt lat="44.93471" lon="1.09128">
        <ele>179</ele>
        <time>2014-08-18T10:42:52Z</time>
      </trkpt>
      <trkpt lat="44.93473" lon="1.09138">
        <ele>179</ele>
        <time>2014-08-18T10:42:54Z</time>
      </trkpt>
      <trkpt lat="44.93481" lon="1.09152">
        <ele>178</ele>
        <time>2014-08-18T10:42:57Z</time>
      </trkpt>
      <trkpt lat="44.9348" lon="1.09169">
        <ele>177</ele>
        <time>2014-08-18T10:43:00Z</time>
      </trkpt>
      <trkpt lat="44.93472" lon="1.09181">
        <ele>176</ele>
        <time>2014-08-18T10:43:02Z</time>
      </trkpt>
      <trkpt lat="44.9346" lon="1.09204">
        <ele>174</ele>
        <time>2014-08-18T10:43:05Z</time>
      </trkpt>
      <trkpt lat="44.93455" lon="1.09232">
        <ele>172</ele>
        <time>2014-08-18T10:43:08Z</time>
      </trkpt>
      <trkpt lat="44.93457" lon="1.09252">
        <ele>171</ele>
        <time>2014-08-18T10:43:10Z</time>
      </trkpt>
      <trkpt lat="44.93459" lon="1.09286">
        <ele>169</ele>
        <time>2014-08-18T10:43:13Z</time>
      </trkpt>
      <trkpt lat="44.93459" lon="1.09312">
        <ele>167</ele>
        <time>2014-08-18T10:43:15Z</time>
      </trkpt>
      <trkpt lat="44.93464" lon="1.09352">
        <ele>165</ele>
        <time>2014-08-18T10:43:18Z</time>
      </trkpt>
      <trkpt lat="44.93466" lon="1.09375">
        <ele>164</ele>
        <time>2014-08-18T10:43:20Z</time>
      </trkpt>
      <trkpt lat="44.93471" lon="1.09398">
        <ele>163</ele>
        <time>2014-08-18T10:43:22Z</time>
      </trkpt>
      <trkpt lat="44.93478" lon="1.09423">
        <ele>161</ele>
        <time>2014-08-18T10:43:24Z</time>
      </trkpt>
      <trkpt lat="44.93482" lon="1.09441">
        <ele>160</ele>
        <time>2014-08-18T10:43:26Z</time>
      </trkpt>
      <trkpt lat="44.93488" lon="1.09469">
        <ele>158</ele>
        <time>2014-08-18T10:43:29Z</time>
      </trkpt>
      <trkpt lat="44.93487" lon="1.09488">
        <ele>156</ele>
        <time>2014-08-18T10:43:31Z</time>
      </trkpt>
      <trkpt lat="44.93486" lon="1.0951">
        <ele>154</ele>
        <time>2014-08-18T10:43:34Z</time>
      </trkpt>
      <trkpt lat="44.93491" lon="1.09523">
        <ele>152</ele>
        <time>2014-08-18T10:43:36Z</time>
      </trkpt>
      <trkpt lat="44.93496" lon="1.09536">
        <ele>148</ele>
        <time>2014-08-18T10:43:39Z</time>
      </trkpt>
      <trkpt lat="44.93492" lon="1.09551">
        <ele>146</ele>
        <time>2014-08-18T10:43:42Z</time>
      </trkpt>
      <trkpt lat="44.93484" lon="1.09567">
        <ele>144</ele>
        <time>2014-08-18T10:43:45Z</time>
      </trkpt>
      <trkpt lat="44.93478" lon="1.09583">
        <ele>142</ele>
        <time>2014-08-18T10:43:48Z</time>
      </trkpt>
      <trkpt lat="44.93475" lon="1.09592">
        <ele>141</ele>
        <time>2014-08-18T10:43:50Z</time>
      </trkpt>
      <trkpt lat="44.93476" lon="1.09611">
        <ele>139</ele>
        <time>2014-08-18T10:43:53Z</time>
      </trkpt>
      <trkpt lat="44.93479" lon="1.09629">
        <ele>137</ele>
        <time>2014-08-18T10:43:55Z</time>
      </trkpt>
      <trkpt lat="44.93484" lon="1.09653">
        <ele>136</ele>
        <time>2014-08-18T10:43:58Z</time>
      </trkpt>
      <trkpt lat="44.93493" lon="1.09667">
        <ele>135</ele>
        <time>2014-08-18T10:44:01Z</time>
      </trkpt>
      <trkpt lat="44.93498" lon="1.09678">
        <ele>136</ele>
        <time>2014-08-18T10:44:04Z</time>
      </trkpt>
      <trkpt lat="44.93501" lon="1.0969">
        <ele>136</ele>
        <time>2014-08-18T10:44:07Z</time>
      </trkpt>
      <trkpt lat="44.93504" lon="1.097">
        <ele>137</ele>
        <time>2014-08-18T10:44:09Z</time>
      </trkpt>
      <trkpt lat="44.93506" lon="1.09713">
        <ele>138</ele>
        <time>2014-08-18T10:44:12Z</time>
      </trkpt>
      <trkpt lat="44.93507" lon="1.09721">
        <ele>139</ele>
        <time>2014-08-18T10:44:14Z</time>
      </trkpt>
      <trkpt lat="44.93507" lon="1.09731">
        <ele>141</ele>
        <time>2014-08-18T10:44:17Z</time>
      </trkpt>
      <trkpt lat="44.93508" lon="1.09737">
        <ele>142</ele>
        <time>2014-08-18T10:44:19Z</time>
      </trkpt>
      <trkpt lat="44.9351" lon="1.09742">
        <ele>142</ele>
        <time>2014-08-18T10:44:21Z</time>
      </trkpt>
      <trkpt lat="44.93512" lon="1.09751">
        <ele>143</ele>
        <time>2014-08-18T10:44:24Z</time>
      </trkpt>
      <trkpt lat="44.93513" lon="1.0976">
        <ele>145</ele>
        <time>2014-08-18T10:44:27Z</time>
      </trkpt>
      <trkpt lat="44.93516" lon="1.09766">
        <ele>145</ele>
        <time>2014-08-18T10:44:29Z</time>
      </trkpt>
      <trkpt lat="44.93522" lon="1.09773">
        <ele>146</ele>
        <time>2014-08-18T10:44:32Z</time>
      </trkpt>
      <trkpt lat="44.93526" lon="1.09778">
        <ele>147</ele>
        <time>2014-08-18T10:44:34Z</time>
      </trkpt>
      <trkpt lat="44.93534" lon="1.09785">
        <ele>148</ele>
        <time>2014-08-18T10:44:37Z</time>
      </trkpt>
      <trkpt lat="44.93543" lon="1.09794">
        <ele>148</ele>
        <time>2014-08-18T10:44:40Z</time>
      </trkpt>
      <trkpt lat="44.93552" lon="1.09803">
        <ele>149</ele>
        <time>2014-08-18T10:44:43Z</time>
      </trkpt>
      <trkpt lat="44.93563" lon="1.09814">
        <ele>149</ele>
        <time>2014-08-18T10:44:46Z</time>
      </trkpt>
      <trkpt lat="44.9357" lon="1.09823">
        <ele>149</ele>
        <time>2014-08-18T10:44:48Z</time>
      </trkpt>
      <trkpt lat="44.93577" lon="1.09835">
        <ele>148</ele>
        <time>2014-08-18T10:44:51Z</time>
      </trkpt>
      <trkpt lat="44.93583" lon="1.09842">
        <ele>148</ele>
        <time>2014-08-18T10:44:53Z</time>
      </trkpt>
      <trkpt lat="44.93587" lon="1.09849">
        <ele>149</ele>
        <time>2014-08-18T10:44:55Z</time>
      </trkpt>
      <trkpt lat="44.93594" lon="1.09857">
        <ele>149</ele>
        <time>2014-08-18T10:44:58Z</time>
      </trkpt>
      <trkpt lat="44.93601" lon="1.09861">
        <ele>150</ele>
        <time>2014-08-18T10:45:01Z</time>
      </trkpt>
      <trkpt lat="44.93605" lon="1.09865">
        <ele>151</ele>
        <time>2014-08-18T10:45:03Z</time>
      </trkpt>
      <trkpt lat="44.93613" lon="1.09871">
        <ele>151</ele>
        <time>2014-08-18T10:45:06Z</time>
      </trkpt>
      <trkpt lat="44.93618" lon="1.09876">
        <ele>152</ele>
        <time>2014-08-18T10:45:08Z</time>
      </trkpt>
      <trkpt lat="44.93625" lon="1.09885">
        <ele>152</ele>
        <time>2014-08-18T10:45:11Z</time>
      </trkpt>
      <trkpt lat="44.93629" lon="1.09891">
        <ele>153</ele>
        <time>2014-08-18T10:45:13Z</time>
      </trkpt>
      <trkpt lat="44.93634" lon="1.09899">
        <ele>154</ele>
        <time>2014-08-18T10:45:16Z</time>
      </trkpt>
      <trkpt lat="44.93638" lon="1.09909">
        <ele>156</ele>
        <time>2014-08-18T10:45:19Z</time>
      </trkpt>
      <trkpt lat="44.93642" lon="1.09918">
        <ele>157</ele>
        <time>2014-08-18T10:45:22Z</time>
      </trkpt>
      <trkpt lat="44.93645" lon="1.09926">
        <ele>158</ele>
        <time>2014-08-18T10:45:25Z</time>
      </trkpt>
      <trkpt lat="44.93649" lon="1.09931">
        <ele>159</ele>
        <time>2014-08-18T10:45:27Z</time>
      </trkpt>
      <trkpt lat="44.93651" lon="1.0994">
        <ele>160</ele>
        <time>2014-08-18T10:45:30Z</time>
      </trkpt>
      <trkpt lat="44.93652" lon="1.09948">
        <ele>161</ele>
        <time>2014-08-18T10:45:33Z</time>
      </trkpt>
      <trkpt lat="44.93651" lon="1.09953">
        <ele>161</ele>
        <time>2014-08-18T10:45:35Z</time>
      </trkpt>
      <trkpt lat="44.93647" lon="1.09956">
        <ele>162</ele>
        <time>2014-08-18T10:45:37Z</time>
      </trkpt>
      <trkpt lat="44.93644" lon="1.09957">
        <ele>162</ele>
        <time>2014-08-18T10:45:39Z</time>
      </trkpt>
      <trkpt lat="44.93637" lon="1.09962">
        <ele>162</ele>
        <time>2014-08-18T10:45:42Z</time>
      </trkpt>
      <trkpt lat="44.93631" lon="1.0997">
        <ele>162</ele>
        <time>2014-08-18T10:45:45Z</time>
      </trkpt>
      <trkpt lat="44.93625" lon="1.09977">
        <ele>163</ele>
        <time>2014-08-18T10:45:47Z</time>
      </trkpt>
      <trkpt lat="44.93618" lon="1.09982">
        <ele>163</ele>
        <time>2014-08-18T10:45:50Z</time>
      </trkpt>
      <trkpt lat="44.93612" lon="1.09982">
        <ele>163</ele>
        <time>2014-08-18T10:45:52Z</time>
      </trkpt>
      <trkpt lat="44.93605" lon="1.09984">
        <ele>163</ele>
        <time>2014-08-18T10:45:55Z</time>
      </trkpt>
      <trkpt lat="44.93604" lon="1.09985">
        <ele>163</ele>
        <time>2014-08-18T10:45:58Z</time>
      </trkpt>
      <trkpt lat="44.93605" lon="1.09986">
        <ele>163</ele>
        <time>2014-08-18T10:46:01Z</time>
      </trkpt>
      <trkpt lat="44.93605" lon="1.09988">
        <ele>163</ele>
        <time>2014-08-18T10:46:03Z</time>
      </trkpt>
      <trkpt lat="44.93606" lon="1.09989">
        <ele>163</ele>
        <time>2014-08-18T10:46:05Z</time>
      </trkpt>
      <trkpt lat="44.93604" lon="1.10011">
        <ele>163</ele>
        <time>2014-08-18T10:46:07Z</time>
      </trkpt>
      <trkpt lat="44.93603" lon="1.10012">
        <ele>163</ele>
        <time>2014-08-18T10:46:09Z</time>
      </trkpt>
      <trkpt lat="44.93602" lon="1.10012">
        <ele>163</ele>
        <time>2014-08-18T10:46:12Z</time>
      </trkpt>
      <trkpt lat="44.93602" lon="1.10015">
        <ele>163</ele>
        <time>2014-08-18T10:46:15Z</time>
      </trkpt>
      <trkpt lat="44.93603" lon="1.10024">
        <ele>163</ele>
        <time>2014-08-18T10:46:17Z</time>
      </trkpt>
      <trkpt lat="44.93605" lon="1.10033">
        <ele>163</ele>
        <time>2014-08-18T10:46:19Z</time>
      </trkpt>
      <trkpt lat="44.9361" lon="1.10039">
        <ele>163</ele>
        <time>2014-08-18T10:46:21Z</time>
      </trkpt>
      <trkpt lat="44.93616" lon="1.10047">
        <ele>163</ele>
        <time>2014-08-18T10:46:23Z</time>
      </trkpt>
      <trkpt lat="44.93626" lon="1.10059">
        <ele>162</ele>
        <time>2014-08-18T10:46:26Z</time>
      </trkpt>
      <trkpt lat="44.9364" lon="1.10072">
        <ele>161</ele>
        <time>2014-08-18T10:46:29Z</time>
      </trkpt>
      <trkpt lat="44.93659" lon="1.10081">
        <ele>161</ele>
        <time>2014-08-18T10:46:32Z</time>
      </trkpt>
      <trkpt lat="44.93673" lon="1.10088">
        <ele>160</ele>
        <time>2014-08-18T10:46:35Z</time>
      </trkpt>
      <trkpt lat="44.93692" lon="1.1009">
        <ele>159</ele>
        <time>2014-08-18T10:46:37Z</time>
      </trkpt>
      <trkpt lat="44.93704" lon="1.1009">
        <ele>158</ele>
        <time>2014-08-18T10:46:39Z</time>
      </trkpt>
      <trkpt lat="44.93717" lon="1.1009">
        <ele>158</ele>
        <time>2014-08-18T10:46:41Z</time>
      </trkpt>
      <trkpt lat="44.93732" lon="1.1009">
        <ele>157</ele>
        <time>2014-08-18T10:46:43Z</time>
      </trkpt>
      <trkpt lat="44.93754" lon="1.10093">
        <ele>155</ele>
        <time>2014-08-18T10:46:46Z</time>
      </trkpt>
      <trkpt lat="44.93769" lon="1.10093">
        <ele>154</ele>
        <time>2014-08-18T10:46:48Z</time>
      </trkpt>
      <trkpt lat="44.93782" lon="1.10087">
        <ele>153</ele>
        <time>2014-08-18T10:46:50Z</time>
      </trkpt>
      <trkpt lat="44.93802" lon="1.10079">
        <ele>150</ele>
        <time>2014-08-18T10:46:53Z</time>
      </trkpt>
      <trkpt lat="44.93822" lon="1.10074">
        <ele>149</ele>
        <time>2014-08-18T10:46:56Z</time>
      </trkpt>
      <trkpt lat="44.93833" lon="1.10075">
        <ele>147</ele>
        <time>2014-08-18T10:46:58Z</time>
      </trkpt>
      <trkpt lat="44.93842" lon="1.1008">
        <ele>146</ele>
        <time>2014-08-18T10:47:01Z</time>
      </trkpt>
      <trkpt lat="44.93849" lon="1.10095">
        <ele>144</ele>
        <time>2014-08-18T10:47:03Z</time>
      </trkpt>
      <trkpt lat="44.9385" lon="1.10109">
        <ele>143</ele>
        <time>2014-08-18T10:47:05Z</time>
      </trkpt>
      <trkpt lat="44.93856" lon="1.10137">
        <ele>140</ele>
        <time>2014-08-18T10:47:08Z</time>
      </trkpt>
      <trkpt lat="44.93858" lon="1.10167">
        <ele>139</ele>
        <time>2014-08-18T10:47:11Z</time>
      </trkpt>
      <trkpt lat="44.93869" lon="1.10196">
        <ele>137</ele>
        <time>2014-08-18T10:47:14Z</time>
      </trkpt>
      <trkpt lat="44.93879" lon="1.10212">
        <ele>136</ele>
        <time>2014-08-18T10:47:17Z</time>
      </trkpt>
      <trkpt lat="44.93884" lon="1.10218">
        <ele>134</ele>
        <time>2014-08-18T10:47:20Z</time>
      </trkpt>
      <trkpt lat="44.93889" lon="1.10226">
        <ele>133</ele>
        <time>2014-08-18T10:47:22Z</time>
      </trkpt>
      <trkpt lat="44.93893" lon="1.10229">
        <ele>132</ele>
        <time>2014-08-18T10:47:24Z</time>
      </trkpt>
      <trkpt lat="44.939" lon="1.10236">
        <ele>131</ele>
        <time>2014-08-18T10:47:27Z</time>
      </trkpt>
      <trkpt lat="44.93907" lon="1.10241">
        <ele>130</ele>
        <time>2014-08-18T10:47:29Z</time>
      </trkpt>
      <trkpt lat="44.93911" lon="1.10247">
        <ele>129</ele>
        <time>2014-08-18T10:47:32Z</time>
      </trkpt>
      <trkpt lat="44.93918" lon="1.1025">
        <ele>127</ele>
        <time>2014-08-18T10:47:35Z</time>
      </trkpt>
      <trkpt lat="44.93932" lon="1.10253">
        <ele>126</ele>
        <time>2014-08-18T10:47:38Z</time>
      </trkpt>
      <trkpt lat="44.93943" lon="1.10256">
        <ele>125</ele>
        <time>2014-08-18T10:47:40Z</time>
      </trkpt>
      <trkpt lat="44.93954" lon="1.10259">
        <ele>124</ele>
        <time>2014-08-18T10:47:43Z</time>
      </trkpt>
      <trkpt lat="44.93963" lon="1.10265">
        <ele>122</ele>
        <time>2014-08-18T10:47:45Z</time>
      </trkpt>
      <trkpt lat="44.93972" lon="1.10275">
        <ele>119</ele>
        <time>2014-08-18T10:47:48Z</time>
      </trkpt>
      <trkpt lat="44.93975" lon="1.10284">
        <ele>118</ele>
        <time>2014-08-18T10:47:50Z</time>
      </trkpt>
      <trkpt lat="44.93975" lon="1.10293">
        <ele>116</ele>
        <time>2014-08-18T10:47:52Z</time>
      </trkpt>
      <trkpt lat="44.9397" lon="1.10302">
        <ele>116</ele>
        <time>2014-08-18T10:47:54Z</time>
      </trkpt>
      <trkpt lat="44.93965" lon="1.10308">
        <ele>115</ele>
        <time>2014-08-18T10:47:56Z</time>
      </trkpt>
      <trkpt lat="44.93959" lon="1.10313">
        <ele>114</ele>
        <time>2014-08-18T10:47:58Z</time>
      </trkpt>
      <trkpt lat="44.93953" lon="1.10319">
        <ele>114</ele>
        <time>2014-08-18T10:48:00Z</time>
      </trkpt>
      <trkpt lat="44.93946" lon="1.10325">
        <ele>114</ele>
        <time>2014-08-18T10:48:02Z</time>
      </trkpt>
      <trkpt lat="44.9394" lon="1.10331">
        <ele>114</ele>
        <time>2014-08-18T10:48:04Z</time>
      </trkpt>
      <trkpt lat="44.93933" lon="1.10337">
        <ele>114</ele>
        <time>2014-08-18T10:48:06Z</time>
      </trkpt>
      <trkpt lat="44.93927" lon="1.10343">
        <ele>113</ele>
        <time>2014-08-18T10:48:08Z</time>
      </trkpt>
      <trkpt lat="44.93915" lon="1.1035">
        <ele>114</ele>
        <time>2014-08-18T10:48:11Z</time>
      </trkpt>
      <trkpt lat="44.93902" lon="1.10357">
        <ele>113</ele>
        <time>2014-08-18T10:48:14Z</time>
      </trkpt>
      <trkpt lat="44.93892" lon="1.10361">
        <ele>112</ele>
        <time>2014-08-18T10:48:17Z</time>
      </trkpt>
      <trkpt lat="44.93888" lon="1.10364">
        <ele>110</ele>
        <time>2014-08-18T10:48:19Z</time>
      </trkpt>
      <trkpt lat="44.93883" lon="1.1037">
        <ele>109</ele>
        <time>2014-08-18T10:48:22Z</time>
      </trkpt>
      <trkpt lat="44.93882" lon="1.10376">
        <ele>108</ele>
        <time>2014-08-18T10:48:24Z</time>
      </trkpt>
      <trkpt lat="44.9388" lon="1.10382">
        <ele>107</ele>
        <time>2014-08-18T10:48:27Z</time>
      </trkpt>
      <trkpt lat="44.93877" lon="1.10385">
        <ele>106</ele>
        <time>2014-08-18T10:48:30Z</time>
      </trkpt>
      <trkpt lat="44.93873" lon="1.10386">
        <ele>105</ele>
        <time>2014-08-18T10:48:32Z</time>
      </trkpt>
      <trkpt lat="44.93871" lon="1.10389">
        <ele>104</ele>
        <time>2014-08-18T10:48:34Z</time>
      </trkpt>
      <trkpt lat="44.93869" lon="1.10391">
        <ele>104</ele>
        <time>2014-08-18T10:48:36Z</time>
      </trkpt>
      <trkpt lat="44.93866" lon="1.10393">
        <ele>104</ele>
        <time>2014-08-18T10:48:38Z</time>
      </trkpt>
      <trkpt lat="44.93864" lon="1.10394">
        <ele>104</ele>
        <time>2014-08-18T10:48:41Z</time>
      </trkpt>
      <trkpt lat="44.93864" lon="1.10398">
        <ele>104</ele>
        <time>2014-08-18T10:48:44Z</time>
      </trkpt>
      <trkpt lat="44.93865" lon="1.104">
        <ele>104</ele>
        <time>2014-08-18T10:48:46Z</time>
      </trkpt>
      <trkpt lat="44.93866" lon="1.10403">
        <ele>104</ele>
        <time>2014-08-18T10:48:48Z</time>
      </trkpt>
      <trkpt lat="44.93865" lon="1.10405">
        <ele>104</ele>
        <time>2014-08-18T10:48:50Z</time>
      </trkpt>
      <trkpt lat="44.93865" lon="1.10408">
        <ele>104</ele>
        <time>2014-08-18T10:48:53Z</time>
      </trkpt>
      <trkpt lat="44.93859" lon="1.10432">
        <ele>104</ele>
        <time>2014-08-18T10:48:55Z</time>
      </trkpt>
      <trkpt lat="44.93862" lon="1.10431">
        <ele>104</ele>
        <time>2014-08-18T10:48:58Z</time>
      </trkpt>
      <trkpt lat="44.93869" lon="1.10437">
        <ele>103</ele>
        <time>2014-08-18T10:49:01Z</time>
      </trkpt>
      <trkpt lat="44.9388" lon="1.10442">
        <ele>102</ele>
        <time>2014-08-18T10:49:04Z</time>
      </trkpt>
      <trkpt lat="44.93893" lon="1.10445">
        <ele>100</ele>
        <time>2014-08-18T10:49:07Z</time>
      </trkpt>
      <trkpt lat="44.93907" lon="1.10453">
        <ele>99</ele>
        <time>2014-08-18T10:49:10Z</time>
      </trkpt>
      <trkpt lat="44.93915" lon="1.10457">
        <ele>98</ele>
        <time>2014-08-18T10:49:12Z</time>
      </trkpt>
      <trkpt lat="44.93921" lon="1.10459">
        <ele>97</ele>
        <time>2014-08-18T10:49:15Z</time>
      </trkpt>
      <trkpt lat="44.93927" lon="1.10461">
        <ele>96</ele>
        <time>2014-08-18T10:49:17Z</time>
      </trkpt>
      <trkpt lat="44.93934" lon="1.10464">
        <ele>95</ele>
        <time>2014-08-18T10:49:19Z</time>
      </trkpt>
      <trkpt lat="44.93941" lon="1.10466">
        <ele>95</ele>
        <time>2014-08-18T10:49:21Z</time>
      </trkpt>
      <trkpt lat="44.9395" lon="1.10468">
        <ele>94</ele>
        <time>2014-08-18T10:49:24Z</time>
      </trkpt>
      <trkpt lat="44.93954" lon="1.10469">
        <ele>93</ele>
        <time>2014-08-18T10:49:27Z</time>
      </trkpt>
      <trkpt lat="44.93959" lon="1.10468">
        <ele>92</ele>
        <time>2014-08-18T10:49:30Z</time>
      </trkpt>
      <trkpt lat="44.93964" lon="1.10469">
        <ele>91</ele>
        <time>2014-08-18T10:49:32Z</time>
      </trkpt>
      <trkpt lat="44.93975" lon="1.10466">
        <ele>91</ele>
        <time>2014-08-18T10:49:35Z</time>
      </trkpt>
      <trkpt lat="44.93983" lon="1.10461">
        <ele>90</ele>
        <time>2014-08-18T10:49:37Z</time>
      </trkpt>
      <trkpt lat="44.93992" lon="1.10451">
        <ele>89</ele>
        <time>2014-08-18T10:49:39Z</time>
      </trkpt>
      <trkpt lat="44.93998" lon="1.10442">
        <ele>88</ele>
        <time>2014-08-18T10:49:41Z</time>
      </trkpt>
      <trkpt lat="44.9401" lon="1.10428">
        <ele>86</ele>
        <time>2014-08-18T10:49:44Z</time>
      </trkpt>
      <trkpt lat="44.94017" lon="1.10419">
        <ele>85</ele>
        <time>2014-08-18T10:49:46Z</time>
      </trkpt>
      <trkpt lat="44.9403" lon="1.10404">
        <ele>83</ele>
        <time>2014-08-18T10:49:49Z</time>
      </trkpt>
      <trkpt lat="44.94041" lon="1.10392">
        <ele>82</ele>
        <time>2014-08-18T10:49:51Z</time>
      </trkpt>
      <trkpt lat="44.94051" lon="1.10381">
        <ele>81</ele>
        <time>2014-08-18T10:49:53Z</time>
      </trkpt>
      <trkpt lat="44.94064" lon="1.10365">
        <ele>80</ele>
        <time>2014-08-18T10:49:56Z</time>
      </trkpt>
      <trkpt lat="44.94076" lon="1.10359">
        <ele>79</ele>
        <time>2014-08-18T10:49:59Z</time>
      </trkpt>
      <trkpt lat="44.94088" lon="1.10351">
        <ele>78</ele>
        <time>2014-08-18T10:50:02Z</time>
      </trkpt>
      <trkpt lat="44.941" lon="1.10348">
        <ele>78</ele>
        <time>2014-08-18T10:50:05Z</time>
      </trkpt>
      <trkpt lat="44.9411" lon="1.10347">
        <ele>78</ele>
        <time>2014-08-18T10:50:07Z</time>
      </trkpt>
      <trkpt lat="44.9412" lon="1.10346">
        <ele>77</ele>
        <time>2014-08-18T10:50:09Z</time>
      </trkpt>
      <trkpt lat="44.94128" lon="1.10345">
        <ele>77</ele>
        <time>2014-08-18T10:50:11Z</time>
      </trkpt>
      <trkpt lat="44.94134" lon="1.10344">
        <ele>76</ele>
        <time>2014-08-18T10:50:13Z</time>
      </trkpt>
      <trkpt lat="44.94141" lon="1.10341">
        <ele>75</ele>
        <time>2014-08-18T10:50:16Z</time>
      </trkpt>
      <trkpt lat="44.94145" lon="1.1034">
        <ele>75</ele>
        <time>2014-08-18T10:50:18Z</time>
      </trkpt>
      <trkpt lat="44.94149" lon="1.10335">
        <ele>74</ele>
        <time>2014-08-18T10:50:21Z</time>
      </trkpt>
      <trkpt lat="44.94152" lon="1.1033">
        <ele>74</ele>
        <time>2014-08-18T10:50:23Z</time>
      </trkpt>
      <trkpt lat="44.94154" lon="1.10325">
        <ele>74</ele>
        <time>2014-08-18T10:50:25Z</time>
      </trkpt>
      <trkpt lat="44.94156" lon="1.1032">
        <ele>74</ele>
        <time>2014-08-18T10:50:27Z</time>
      </trkpt>
      <trkpt lat="44.94158" lon="1.10318">
        <ele>74</ele>
        <time>2014-08-18T10:50:29Z</time>
      </trkpt>
      <trkpt lat="44.9416" lon="1.10316">
        <ele>74</ele>
        <time>2014-08-18T10:50:31Z</time>
      </trkpt>
      <trkpt lat="44.94161" lon="1.10314">
        <ele>74</ele>
        <time>2014-08-18T10:50:33Z</time>
      </trkpt>
      <trkpt lat="44.94163" lon="1.10312">
        <ele>74</ele>
        <time>2014-08-18T10:50:35Z</time>
      </trkpt>
      <trkpt lat="44.94165" lon="1.10311">
        <ele>73</ele>
        <time>2014-08-18T10:50:37Z</time>
      </trkpt>
      <trkpt lat="44.94168" lon="1.10309">
        <ele>73</ele>
        <time>2014-08-18T10:50:40Z</time>
      </trkpt>
      <trkpt lat="44.9417" lon="1.10308">
        <ele>73</ele>
        <time>2014-08-18T10:50:42Z</time>
      </trkpt>
      <trkpt lat="44.94172" lon="1.10303">
        <ele>74</ele>
        <time>2014-08-18T10:50:44Z</time>
      </trkpt>
      <trkpt lat="44.94175" lon="1.10298">
        <ele>74</ele>
        <time>2014-08-18T10:50:46Z</time>
      </trkpt>
      <trkpt lat="44.94178" lon="1.1029">
        <ele>74</ele>
        <time>2014-08-18T10:50:48Z</time>
      </trkpt>
      <trkpt lat="44.9418" lon="1.10282">
        <ele>74</ele>
        <time>2014-08-18T10:50:50Z</time>
      </trkpt>
      <trkpt lat="44.9418" lon="1.10276">
        <ele>74</ele>
        <time>2014-08-18T10:50:52Z</time>
      </trkpt>
      <trkpt lat="44.94181" lon="1.1027">
        <ele>74</ele>
        <time>2014-08-18T10:50:54Z</time>
      </trkpt>
      <trkpt lat="44.94185" lon="1.10263">
        <ele>74</ele>
        <time>2014-08-18T10:50:56Z</time>
      </trkpt>
      <trkpt lat="44.94188" lon="1.10258">
        <ele>74</ele>
        <time>2014-08-18T10:50:58Z</time>
      </trkpt>
      <trkpt lat="44.94188" lon="1.10253">
        <ele>74</ele>
        <time>2014-08-18T10:51:00Z</time>
      </trkpt>
      <trkpt lat="44.94183" lon="1.10254">
        <ele>73</ele>
        <time>2014-08-18T10:51:03Z</time>
      </trkpt>
      <trkpt lat="44.94179" lon="1.10257">
        <ele>73</ele>
        <time>2014-08-18T10:51:05Z</time>
      </trkpt>
      <trkpt lat="44.94175" lon="1.1026">
        <ele>74</ele>
        <time>2014-08-18T10:51:07Z</time>
      </trkpt>
      <trkpt lat="44.9417" lon="1.10263">
        <ele>74</ele>
        <time>2014-08-18T10:51:09Z</time>
      </trkpt>
      <trkpt lat="44.94166" lon="1.10266">
        <ele>74</ele>
        <time>2014-08-18T10:51:11Z</time>
      </trkpt>
      <trkpt lat="44.9416" lon="1.10267">
        <ele>75</ele>
        <time>2014-08-18T10:51:13Z</time>
      </trkpt>
      <trkpt lat="44.94154" lon="1.1027">
        <ele>75</ele>
        <time>2014-08-18T10:51:15Z</time>
      </trkpt>
      <trkpt lat="44.94145" lon="1.10277">
        <ele>76</ele>
        <time>2014-08-18T10:51:18Z</time>
      </trkpt>
      <trkpt lat="44.94138" lon="1.10283">
        <ele>76</ele>
        <time>2014-08-18T10:51:21Z</time>
      </trkpt>
      <trkpt lat="44.94132" lon="1.10285">
        <ele>76</ele>
        <time>2014-08-18T10:51:23Z</time>
      </trkpt>
      <trkpt lat="44.94124" lon="1.10292">
        <ele>76</ele>
        <time>2014-08-18T10:51:26Z</time>
      </trkpt>
      <trkpt lat="44.94117" lon="1.10296">
        <ele>77</ele>
        <time>2014-08-18T10:51:28Z</time>
      </trkpt>
      <trkpt lat="44.9411" lon="1.10299">
        <ele>77</ele>
        <time>2014-08-18T10:51:30Z</time>
      </trkpt>
      <trkpt lat="44.94099" lon="1.10302">
        <ele>78</ele>
        <time>2014-08-18T10:51:33Z</time>
      </trkpt>
      <trkpt lat="44.94093" lon="1.10305">
        <ele>78</ele>
        <time>2014-08-18T10:51:35Z</time>
      </trkpt>
      <trkpt lat="44.94086" lon="1.10309">
        <ele>78</ele>
        <time>2014-08-18T10:51:37Z</time>
      </trkpt>
      <trkpt lat="44.94079" lon="1.10315">
        <ele>79</ele>
        <time>2014-08-18T10:51:39Z</time>
      </trkpt>
      <trkpt lat="44.94069" lon="1.10323">
        <ele>79</ele>
        <time>2014-08-18T10:51:42Z</time>
      </trkpt>
      <trkpt lat="44.94062" lon="1.10328">
        <ele>80</ele>
        <time>2014-08-18T10:51:44Z</time>
      </trkpt>
      <trkpt lat="44.94053" lon="1.10335">
        <ele>80</ele>
        <time>2014-08-18T10:51:47Z</time>
      </trkpt>
      <trkpt lat="44.94048" lon="1.1034">
        <ele>81</ele>
        <time>2014-08-18T10:51:49Z</time>
      </trkpt>
      <trkpt lat="44.94043" lon="1.10343">
        <ele>82</ele>
        <time>2014-08-18T10:51:51Z</time>
      </trkpt>
      <trkpt lat="44.94038" lon="1.10348">
        <ele>83</ele>
        <time>2014-08-18T10:51:54Z</time>
      </trkpt>
      <trkpt lat="44.94032" lon="1.10352">
        <ele>84</ele>
        <time>2014-08-18T10:51:57Z</time>
      </trkpt>
      <trkpt lat="44.9403" lon="1.10357">
        <ele>85</ele>
        <time>2014-08-18T10:51:59Z</time>
      </trkpt>
      <trkpt lat="44.94026" lon="1.10364">
        <ele>86</ele>
        <time>2014-08-18T10:52:02Z</time>
      </trkpt>
      <trkpt lat="44.94023" lon="1.10368">
        <ele>87</ele>
        <time>2014-08-18T10:52:04Z</time>
      </trkpt>
      <trkpt lat="44.94017" lon="1.10374">
        <ele>87</ele>
        <time>2014-08-18T10:52:07Z</time>
      </trkpt>
      <trkpt lat="44.94013" lon="1.10379">
        <ele>87</ele>
        <time>2014-08-18T10:52:09Z</time>
      </trkpt>
      <trkpt lat="44.9401" lon="1.10384">
        <ele>88</ele>
        <time>2014-08-18T10:52:11Z</time>
      </trkpt>
      <trkpt lat="44.94008" lon="1.10388">
        <ele>88</ele>
        <time>2014-08-18T10:52:13Z</time>
      </trkpt>
      <trkpt lat="44.94005" lon="1.10392">
        <ele>89</ele>
        <time>2014-08-18T10:52:15Z</time>
      </trkpt>
      <trkpt lat="44.94002" lon="1.10395">
        <ele>90</ele>
        <time>2014-08-18T10:52:17Z</time>
      </trkpt>
      <trkpt lat="44.93998" lon="1.10398">
        <ele>90</ele>
        <time>2014-08-18T10:52:19Z</time>
      </trkpt>
      <trkpt lat="44.93996" lon="1.10402">
        <ele>91</ele>
        <time>2014-08-18T10:52:21Z</time>
      </trkpt>
      <trkpt lat="44.93994" lon="1.10407">
        <ele>92</ele>
        <time>2014-08-18T10:52:24Z</time>
      </trkpt>
      <trkpt lat="44.93993" lon="1.10412">
        <ele>92</ele>
        <time>2014-08-18T10:52:26Z</time>
      </trkpt>
      <trkpt lat="44.93992" lon="1.1042">
        <ele>92</ele>
        <time>2014-08-18T10:52:29Z</time>
      </trkpt>
      <trkpt lat="44.93992" lon="1.10428">
        <ele>93</ele>
        <time>2014-08-18T10:52:31Z</time>
      </trkpt>
      <trkpt lat="44.9399" lon="1.10436">
        <ele>93</ele>
        <time>2014-08-18T10:52:33Z</time>
      </trkpt>
      <trkpt lat="44.93987" lon="1.10442">
        <ele>94</ele>
        <time>2014-08-18T10:52:35Z</time>
      </trkpt>
      <trkpt lat="44.93986" lon="1.10447">
        <ele>94</ele>
        <time>2014-08-18T10:52:37Z</time>
      </trkpt>
      <trkpt lat="44.93986" lon="1.10453">
        <ele>95</ele>
        <time>2014-08-18T10:52:39Z</time>
      </trkpt>
      <trkpt lat="44.93985" lon="1.10459">
        <ele>95</ele>
        <time>2014-08-18T10:52:41Z</time>
      </trkpt>
      <trkpt lat="44.93984" lon="1.10466">
        <ele>96</ele>
        <time>2014-08-18T10:52:43Z</time>
      </trkpt>
      <trkpt lat="44.93982" lon="1.10478">
        <ele>96</ele>
        <time>2014-08-18T10:52:46Z</time>
      </trkpt>
      <trkpt lat="44.93981" lon="1.10488">
        <ele>97</ele>
        <time>2014-08-18T10:52:48Z</time>
      </trkpt>
      <trkpt lat="44.93981" lon="1.10503">
        <ele>97</ele>
        <time>2014-08-18T10:52:51Z</time>
      </trkpt>
      <trkpt lat="44.9398" lon="1.10511">
        <ele>97</ele>
        <time>2014-08-18T10:52:53Z</time>
      </trkpt>
      <trkpt lat="44.9398" lon="1.10519">
        <ele>98</ele>
        <time>2014-08-18T10:52:55Z</time>
      </trkpt>
      <trkpt lat="44.93978" lon="1.10532">
        <ele>98</ele>
        <time>2014-08-18T10:52:58Z</time>
      </trkpt>
      <trkpt lat="44.93977" lon="1.10542">
        <ele>99</ele>
        <time>2014-08-18T10:53:00Z</time>
      </trkpt>
      <trkpt lat="44.93975" lon="1.10555">
        <ele>100</ele>
        <time>2014-08-18T10:53:03Z</time>
      </trkpt>
      <trkpt lat="44.93974" lon="1.10562">
        <ele>101</ele>
        <time>2014-08-18T10:53:05Z</time>
      </trkpt>
      <trkpt lat="44.93971" lon="1.10569">
        <ele>102</ele>
        <time>2014-08-18T10:53:07Z</time>
      </trkpt>
      <trkpt lat="44.93969" lon="1.10576">
        <ele>102</ele>
        <time>2014-08-18T10:53:09Z</time>
      </trkpt>
      <trkpt lat="44.93966" lon="1.10586">
        <ele>103</ele>
        <time>2014-08-18T10:53:12Z</time>
      </trkpt>
      <trkpt lat="44.93963" lon="1.10591">
        <ele>103</ele>
        <time>2014-08-18T10:53:14Z</time>
      </trkpt>
      <trkpt lat="44.93961" lon="1.10597">
        <ele>104</ele>
        <time>2014-08-18T10:53:16Z</time>
      </trkpt>
      <trkpt lat="44.93958" lon="1.10604">
        <ele>104</ele>
        <time>2014-08-18T10:53:19Z</time>
      </trkpt>
      <trkpt lat="44.93954" lon="1.10609">
        <ele>105</ele>
        <time>2014-08-18T10:53:22Z</time>
      </trkpt>
      <trkpt lat="44.9395" lon="1.10613">
        <ele>106</ele>
        <time>2014-08-18T10:53:25Z</time>
      </trkpt>
      <trkpt lat="44.93945" lon="1.10618">
        <ele>107</ele>
        <time>2014-08-18T10:53:28Z</time>
      </trkpt>
      <trkpt lat="44.93942" lon="1.10621">
        <ele>107</ele>
        <time>2014-08-18T10:53:30Z</time>
      </trkpt>
      <trkpt lat="44.93937" lon="1.10625">
        <ele>108</ele>
        <time>2014-08-18T10:53:33Z</time>
      </trkpt>
      <trkpt lat="44.93933" lon="1.10628">
        <ele>109</ele>
        <time>2014-08-18T10:53:35Z</time>
      </trkpt>
      <trkpt lat="44.93929" lon="1.10632">
        <ele>109</ele>
        <time>2014-08-18T10:53:37Z</time>
      </trkpt>
      <trkpt lat="44.93925" lon="1.10635">
        <ele>109</ele>
        <time>2014-08-18T10:53:39Z</time>
      </trkpt>
      <trkpt lat="44.93919" lon="1.10639">
        <ele>110</ele>
        <time>2014-08-18T10:53:42Z</time>
      </trkpt>
      <trkpt lat="44.93919" lon="1.10635">
        <ele>111</ele>
        <time>2014-08-18T10:53:45Z</time>
      </trkpt>
      <trkpt lat="44.9392" lon="1.10632">
        <ele>112</ele>
        <time>2014-08-18T10:53:48Z</time>
      </trkpt>
      <trkpt lat="44.9392" lon="1.10629">
        <ele>112</ele>
        <time>2014-08-18T10:53:50Z</time>
      </trkpt>
      <trkpt lat="44.9392" lon="1.10626">
        <ele>113</ele>
        <time>2014-08-18T10:53:53Z</time>
      </trkpt>
      <trkpt lat="44.93919" lon="1.10622">
        <ele>114</ele>
        <time>2014-08-18T10:53:56Z</time>
      </trkpt>
      <trkpt lat="44.93916" lon="1.10621">
        <ele>114</ele>
        <time>2014-08-18T10:53:58Z</time>
      </trkpt>
      <trkpt lat="44.93913" lon="1.10622">
        <ele>115</ele>
        <time>2014-08-18T10:54:00Z</time>
      </trkpt>
      <trkpt lat="44.93907" lon="1.10623">
        <ele>116</ele>
        <time>2014-08-18T10:54:03Z</time>
      </trkpt>
      <trkpt lat="44.93902" lon="1.10624">
        <ele>116</ele>
        <time>2014-08-18T10:54:05Z</time>
      </trkpt>
      <trkpt lat="44.93896" lon="1.10624">
        <ele>117</ele>
        <time>2014-08-18T10:54:08Z</time>
      </trkpt>
      <trkpt lat="44.93892" lon="1.10621">
        <ele>118</ele>
        <time>2014-08-18T10:54:10Z</time>
      </trkpt>
      <trkpt lat="44.93887" lon="1.10617">
        <ele>119</ele>
        <time>2014-08-18T10:54:12Z</time>
      </trkpt>
      <trkpt lat="44.9388" lon="1.10612">
        <ele>120</ele>
        <time>2014-08-18T10:54:15Z</time>
      </trkpt>
      <trkpt lat="44.93877" lon="1.10608">
        <ele>120</ele>
        <time>2014-08-18T10:54:17Z</time>
      </trkpt>
      <trkpt lat="44.93872" lon="1.10604">
        <ele>122</ele>
        <time>2014-08-18T10:54:20Z</time>
      </trkpt>
      <trkpt lat="44.93867" lon="1.10602">
        <ele>123</ele>
        <time>2014-08-18T10:54:23Z</time>
      </trkpt>
      <trkpt lat="44.93862" lon="1.10601">
        <ele>123</ele>
        <time>2014-08-18T10:54:26Z</time>
      </trkpt>
      <trkpt lat="44.93858" lon="1.10598">
        <ele>124</ele>
        <time>2014-08-18T10:54:28Z</time>
      </trkpt>
      <trkpt lat="44.93853" lon="1.10597">
        <ele>124</ele>
        <time>2014-08-18T10:54:30Z</time>
      </trkpt>
      <trkpt lat="44.93847" lon="1.10595">
        <ele>125</ele>
        <time>2014-08-18T10:54:33Z</time>
      </trkpt>
      <trkpt lat="44.93843" lon="1.10596">
        <ele>126</ele>
        <time>2014-08-18T10:54:35Z</time>
      </trkpt>
      <trkpt lat="44.93838" lon="1.10599">
        <ele>126</ele>
        <time>2014-08-18T10:54:38Z</time>
      </trkpt>
      <trkpt lat="44.93835" lon="1.10603">
        <ele>127</ele>
        <time>2014-08-18T10:54:41Z</time>
      </trkpt>
      <trkpt lat="44.93833" lon="1.10607">
        <ele>127</ele>
        <time>2014-08-18T10:54:43Z</time>
      </trkpt>
      <trkpt lat="44.93831" lon="1.10609">
        <ele>128</ele>
        <time>2014-08-18T10:54:45Z</time>
      </trkpt>
      <trkpt lat="44.93829" lon="1.10612">
        <ele>129</ele>
        <time>2014-08-18T10:54:47Z</time>
      </trkpt>
      <trkpt lat="44.93827" lon="1.10614">
        <ele>130</ele>
        <time>2014-08-18T10:54:49Z</time>
      </trkpt>
      <trkpt lat="44.93823" lon="1.10618">
        <ele>131</ele>
        <time>2014-08-18T10:54:52Z</time>
      </trkpt>
      <trkpt lat="44.9382" lon="1.1062">
        <ele>131</ele>
        <time>2014-08-18T10:54:54Z</time>
      </trkpt>
      <trkpt lat="44.93817" lon="1.10624">
        <ele>131</ele>
        <time>2014-08-18T10:54:56Z</time>
      </trkpt>
      <trkpt lat="44.93811" lon="1.10628">
        <ele>132</ele>
        <time>2014-08-18T10:54:59Z</time>
      </trkpt>
      <trkpt lat="44.93805" lon="1.10633">
        <ele>133</ele>
        <time>2014-08-18T10:55:02Z</time>
      </trkpt>
      <trkpt lat="44.93801" lon="1.10636">
        <ele>134</ele>
        <time>2014-08-18T10:55:04Z</time>
      </trkpt>
      <trkpt lat="44.93795" lon="1.10641">
        <ele>134</ele>
        <time>2014-08-18T10:55:07Z</time>
      </trkpt>
      <trkpt lat="44.93792" lon="1.10646">
        <ele>135</ele>
        <time>2014-08-18T10:55:09Z</time>
      </trkpt>
      <trkpt lat="44.93785" lon="1.10652">
        <ele>135</ele>
        <time>2014-08-18T10:55:12Z</time>
      </trkpt>
      <trkpt lat="44.93781" lon="1.10657">
        <ele>136</ele>
        <time>2014-08-18T10:55:14Z</time>
      </trkpt>
      <trkpt lat="44.93775" lon="1.10663">
        <ele>137</ele>
        <time>2014-08-18T10:55:17Z</time>
      </trkpt>
      <trkpt lat="44.9377" lon="1.10666">
        <ele>137</ele>
        <time>2014-08-18T10:55:19Z</time>
      </trkpt>
      <trkpt lat="44.93766" lon="1.10669">
        <ele>138</ele>
        <time>2014-08-18T10:55:21Z</time>
      </trkpt>
      <trkpt lat="44.9376" lon="1.10672">
        <ele>139</ele>
        <time>2014-08-18T10:55:23Z</time>
      </trkpt>
      <trkpt lat="44.93756" lon="1.10676">
        <ele>139</ele>
        <time>2014-08-18T10:55:25Z</time>
      </trkpt>
      <trkpt lat="44.93753" lon="1.1068">
        <ele>140</ele>
        <time>2014-08-18T10:55:27Z</time>
      </trkpt>
      <trkpt lat="44.9375" lon="1.10684">
        <ele>140</ele>
        <time>2014-08-18T10:55:29Z</time>
      </trkpt>
      <trkpt lat="44.93746" lon="1.10688">
        <ele>141</ele>
        <time>2014-08-18T10:55:31Z</time>
      </trkpt>
      <trkpt lat="44.93742" lon="1.10695">
        <ele>141</ele>
        <time>2014-08-18T10:55:34Z</time>
      </trkpt>
      <trkpt lat="44.93737" lon="1.10701">
        <ele>142</ele>
        <time>2014-08-18T10:55:36Z</time>
      </trkpt>
      <trkpt lat="44.93731" lon="1.1071">
        <ele>143</ele>
        <time>2014-08-18T10:55:39Z</time>
      </trkpt>
      <trkpt lat="44.93727" lon="1.10717">
        <ele>143</ele>
        <time>2014-08-18T10:55:41Z</time>
      </trkpt>
      <trkpt lat="44.93721" lon="1.10725">
        <ele>144</ele>
        <time>2014-08-18T10:55:44Z</time>
      </trkpt>
      <trkpt lat="44.93714" lon="1.10734">
        <ele>144</ele>
        <time>2014-08-18T10:55:47Z</time>
      </trkpt>
      <trkpt lat="44.93709" lon="1.10741">
        <ele>145</ele>
        <time>2014-08-18T10:55:49Z</time>
      </trkpt>
      <trkpt lat="44.93702" lon="1.10753">
        <ele>145</ele>
        <time>2014-08-18T10:55:52Z</time>
      </trkpt>
      <trkpt lat="44.93697" lon="1.10762">
        <ele>146</ele>
        <time>2014-08-18T10:55:54Z</time>
      </trkpt>
      <trkpt lat="44.9369" lon="1.10776">
        <ele>146</ele>
        <time>2014-08-18T10:55:57Z</time>
      </trkpt>
      <trkpt lat="44.93683" lon="1.10789">
        <ele>147</ele>
        <time>2014-08-18T10:56:00Z</time>
      </trkpt>
      <trkpt lat="44.93675" lon="1.10801">
        <ele>147</ele>
        <time>2014-08-18T10:56:03Z</time>
      </trkpt>
      <trkpt lat="44.93667" lon="1.10812">
        <ele>148</ele>
        <time>2014-08-18T10:56:06Z</time>
      </trkpt>
      <trkpt lat="44.93663" lon="1.10818">
        <ele>148</ele>
        <time>2014-08-18T10:56:08Z</time>
      </trkpt>
      <trkpt lat="44.93656" lon="1.10825">
        <ele>149</ele>
        <time>2014-08-18T10:56:11Z</time>
      </trkpt>
      <trkpt lat="44.93651" lon="1.10828">
        <ele>150</ele>
        <time>2014-08-18T10:56:13Z</time>
      </trkpt>
      <trkpt lat="44.93646" lon="1.10829">
        <ele>150</ele>
        <time>2014-08-18T10:56:15Z</time>
      </trkpt>
      <trkpt lat="44.93637" lon="1.10832">
        <ele>151</ele>
        <time>2014-08-18T10:56:18Z</time>
      </trkpt>
      <trkpt lat="44.93629" lon="1.10834">
        <ele>152</ele>
        <time>2014-08-18T10:56:21Z</time>
      </trkpt>
      <trkpt lat="44.93622" lon="1.10835">
        <ele>153</ele>
        <time>2014-08-18T10:56:24Z</time>
      </trkpt>
      <trkpt lat="44.93618" lon="1.10836">
        <ele>153</ele>
        <time>2014-08-18T10:56:26Z</time>
      </trkpt>
      <trkpt lat="44.93613" lon="1.10839">
        <ele>154</ele>
        <time>2014-08-18T10:56:28Z</time>
      </trkpt>
      <trkpt lat="44.93606" lon="1.10846">
        <ele>155</ele>
        <time>2014-08-18T10:56:31Z</time>
      </trkpt>
      <trkpt lat="44.93599" lon="1.10856">
        <ele>155</ele>
        <time>2014-08-18T10:56:34Z</time>
      </trkpt>
      <trkpt lat="44.93592" lon="1.10864">
        <ele>155</ele>
        <time>2014-08-18T10:56:37Z</time>
      </trkpt>
      <trkpt lat="44.93587" lon="1.1087">
        <ele>155</ele>
        <time>2014-08-18T10:56:39Z</time>
      </trkpt>
      <trkpt lat="44.93582" lon="1.10876">
        <ele>155</ele>
        <time>2014-08-18T10:56:41Z</time>
      </trkpt>
      <trkpt lat="44.93573" lon="1.10885">
        <ele>155</ele>
        <time>2014-08-18T10:56:44Z</time>
      </trkpt>
      <trkpt lat="44.93567" lon="1.10892">
        <ele>155</ele>
        <time>2014-08-18T10:56:46Z</time>
      </trkpt>
      <trkpt lat="44.93557" lon="1.10902">
        <ele>154</ele>
        <time>2014-08-18T10:56:49Z</time>
      </trkpt>
      <trkpt lat="44.93551" lon="1.10907">
        <ele>155</ele>
        <time>2014-08-18T10:56:51Z</time>
      </trkpt>
      <trkpt lat="44.93543" lon="1.1091">
        <ele>154</ele>
        <time>2014-08-18T10:56:53Z</time>
      </trkpt>
      <trkpt lat="44.9353" lon="1.10913">
        <ele>154</ele>
        <time>2014-08-18T10:56:56Z</time>
      </trkpt>
      <trkpt lat="44.9352" lon="1.10915">
        <ele>154</ele>
        <time>2014-08-18T10:56:58Z</time>
      </trkpt>
      <trkpt lat="44.93504" lon="1.10917">
        <ele>154</ele>
        <time>2014-08-18T10:57:01Z</time>
      </trkpt>
      <trkpt lat="44.93486" lon="1.10921">
        <ele>155</ele>
        <time>2014-08-18T10:57:04Z</time>
      </trkpt>
      <trkpt lat="44.93475" lon="1.10924">
        <ele>155</ele>
        <time>2014-08-18T10:57:06Z</time>
      </trkpt>
      <trkpt lat="44.93465" lon="1.10928">
        <ele>156</ele>
        <time>2014-08-18T10:57:08Z</time>
      </trkpt>
      <trkpt lat="44.9345" lon="1.10934">
        <ele>156</ele>
        <time>2014-08-18T10:57:11Z</time>
      </trkpt>
      <trkpt lat="44.9344" lon="1.10938">
        <ele>156</ele>
        <time>2014-08-18T10:57:13Z</time>
      </trkpt>
      <trkpt lat="44.93431" lon="1.10943">
        <ele>156</ele>
        <time>2014-08-18T10:57:15Z</time>
      </trkpt>
      <trkpt lat="44.93421" lon="1.10948">
        <ele>157</ele>
        <time>2014-08-18T10:57:17Z</time>
      </trkpt>
      <trkpt lat="44.93408" lon="1.10956">
        <ele>157</ele>
        <time>2014-08-18T10:57:20Z</time>
      </trkpt>
      <trkpt lat="44.934" lon="1.10962">
        <ele>157</ele>
        <time>2014-08-18T10:57:22Z</time>
      </trkpt>
      <trkpt lat="44.93393" lon="1.10968">
        <ele>158</ele>
        <time>2014-08-18T10:57:24Z</time>
      </trkpt>
      <trkpt lat="44.93386" lon="1.10973">
        <ele>158</ele>
        <time>2014-08-18T10:57:26Z</time>
      </trkpt>
      <trkpt lat="44.93378" lon="1.10978">
        <ele>159</ele>
        <time>2014-08-18T10:57:28Z</time>
      </trkpt>
      <trkpt lat="44.9337" lon="1.10985">
        <ele>159</ele>
        <time>2014-08-18T10:57:30Z</time>
      </trkpt>
      <trkpt lat="44.93363" lon="1.10991">
        <ele>159</ele>
        <time>2014-08-18T10:57:32Z</time>
      </trkpt>
      <trkpt lat="44.93352" lon="1.10999">
        <ele>160</ele>
        <time>2014-08-18T10:57:35Z</time>
      </trkpt>
      <trkpt lat="44.93345" lon="1.11004">
        <ele>160</ele>
        <time>2014-08-18T10:57:37Z</time>
      </trkpt>
      <trkpt lat="44.93338" lon="1.11009">
        <ele>161</ele>
        <time>2014-08-18T10:57:39Z</time>
      </trkpt>
      <trkpt lat="44.9333" lon="1.11014">
        <ele>162</ele>
        <time>2014-08-18T10:57:41Z</time>
      </trkpt>
      <trkpt lat="44.93323" lon="1.1102">
        <ele>162</ele>
        <time>2014-08-18T10:57:43Z</time>
      </trkpt>
      <trkpt lat="44.93313" lon="1.11028">
        <ele>163</ele>
        <time>2014-08-18T10:57:46Z</time>
      </trkpt>
      <trkpt lat="44.93305" lon="1.11035">
        <ele>164</ele>
        <time>2014-08-18T10:57:48Z</time>
      </trkpt>
      <trkpt lat="44.93298" lon="1.11042">
        <ele>164</ele>
        <time>2014-08-18T10:57:50Z</time>
      </trkpt>
      <trkpt lat="44.93291" lon="1.1105">
        <ele>164</ele>
        <time>2014-08-18T10:57:52Z</time>
      </trkpt>
      <trkpt lat="44.93284" lon="1.11056">
        <ele>165</ele>
        <time>2014-08-18T10:57:54Z</time>
      </trkpt>
      <trkpt lat="44.93277" lon="1.11063">
        <ele>165</ele>
        <time>2014-08-18T10:57:56Z</time>
      </trkpt>
      <trkpt lat="44.93267" lon="1.11074">
        <ele>166</ele>
        <time>2014-08-18T10:57:59Z</time>
      </trkpt>
      <trkpt lat="44.93261" lon="1.11082">
        <ele>166</ele>
        <time>2014-08-18T10:58:01Z</time>
      </trkpt>
      <trkpt lat="44.93254" lon="1.11089">
        <ele>167</ele>
        <time>2014-08-18T10:58:03Z</time>
      </trkpt>
      <trkpt lat="44.93249" lon="1.11095">
        <ele>167</ele>
        <time>2014-08-18T10:58:05Z</time>
      </trkpt>
      <trkpt lat="44.93242" lon="1.11102">
        <ele>168</ele>
        <time>2014-08-18T10:58:07Z</time>
      </trkpt>
      <trkpt lat="44.93233" lon="1.11113">
        <ele>169</ele>
        <time>2014-08-18T10:58:10Z</time>
      </trkpt>
      <trkpt lat="44.93227" lon="1.11119">
        <ele>170</ele>
        <time>2014-08-18T10:58:12Z</time>
      </trkpt>
      <trkpt lat="44.93222" lon="1.11125">
        <ele>171</ele>
        <time>2014-08-18T10:58:14Z</time>
      </trkpt>
      <trkpt lat="44.93213" lon="1.11135">
        <ele>173</ele>
        <time>2014-08-18T10:58:17Z</time>
      </trkpt>
      <trkpt lat="44.93205" lon="1.11143">
        <ele>173</ele>
        <time>2014-08-18T10:58:20Z</time>
      </trkpt>
      <trkpt lat="44.932" lon="1.11149">
        <ele>174</ele>
        <time>2014-08-18T10:58:22Z</time>
      </trkpt>
      <trkpt lat="44.93192" lon="1.11156">
        <ele>175</ele>
        <time>2014-08-18T10:58:25Z</time>
      </trkpt>
      <trkpt lat="44.93187" lon="1.11161">
        <ele>176</ele>
        <time>2014-08-18T10:58:27Z</time>
      </trkpt>
      <trkpt lat="44.93183" lon="1.11165">
        <ele>176</ele>
        <time>2014-08-18T10:58:29Z</time>
      </trkpt>
      <trkpt lat="44.93177" lon="1.11171">
        <ele>177</ele>
        <time>2014-08-18T10:58:32Z</time>
      </trkpt>
      <trkpt lat="44.93169" lon="1.11175">
        <ele>178</ele>
        <time>2014-08-18T10:58:35Z</time>
      </trkpt>
      <trkpt lat="44.93159" lon="1.11179">
        <ele>179</ele>
        <time>2014-08-18T10:58:38Z</time>
      </trkpt>
      <trkpt lat="44.93153" lon="1.11182">
        <ele>180</ele>
        <time>2014-08-18T10:58:40Z</time>
      </trkpt>
      <trkpt lat="44.93148" lon="1.11183">
        <ele>181</ele>
        <time>2014-08-18T10:58:42Z</time>
      </trkpt>
      <trkpt lat="44.9314" lon="1.1118">
        <ele>182</ele>
        <time>2014-08-18T10:58:45Z</time>
      </trkpt>
      <trkpt lat="44.93136" lon="1.11175">
        <ele>182</ele>
        <time>2014-08-18T10:58:47Z</time>
      </trkpt>
      <trkpt lat="44.93131" lon="1.11166">
        <ele>184</ele>
        <time>2014-08-18T10:58:50Z</time>
      </trkpt>
      <trkpt lat="44.9313" lon="1.11159">
        <ele>185</ele>
        <time>2014-08-18T10:58:52Z</time>
      </trkpt>
      <trkpt lat="44.93129" lon="1.11151">
        <ele>185</ele>
        <time>2014-08-18T10:58:54Z</time>
      </trkpt>
      <trkpt lat="44.93127" lon="1.1114">
        <ele>187</ele>
        <time>2014-08-18T10:58:57Z</time>
      </trkpt>
      <trkpt lat="44.93125" lon="1.11129">
        <ele>187</ele>
        <time>2014-08-18T10:59:00Z</time>
      </trkpt>
      <trkpt lat="44.93123" lon="1.11122">
        <ele>187</ele>
        <time>2014-08-18T10:59:02Z</time>
      </trkpt>
      <trkpt lat="44.93119" lon="1.11111">
        <ele>188</ele>
        <time>2014-08-18T10:59:05Z</time>
      </trkpt>
      <trkpt lat="44.93114" lon="1.11102">
        <ele>189</ele>
        <time>2014-08-18T10:59:08Z</time>
      </trkpt>
      <trkpt lat="44.93109" lon="1.11096">
        <ele>190</ele>
        <time>2014-08-18T10:59:11Z</time>
      </trkpt>
      <trkpt lat="44.93105" lon="1.11092">
        <ele>190</ele>
        <time>2014-08-18T10:59:14Z</time>
      </trkpt>
      <trkpt lat="44.93103" lon="1.1109">
        <ele>190</ele>
        <time>2014-08-18T10:59:16Z</time>
      </trkpt>
      <trkpt lat="44.93102" lon="1.11086">
        <ele>191</ele>
        <time>2014-08-18T10:59:19Z</time>
      </trkpt>
      <trkpt lat="44.93101" lon="1.11085">
        <ele>191</ele>
        <time>2014-08-18T10:59:23Z</time>
      </trkpt>
      <trkpt lat="44.93106" lon="1.11092">
        <ele>192</ele>
        <time>2014-08-18T10:59:25Z</time>
      </trkpt>
      <trkpt lat="44.93106" lon="1.11092">
        <ele>192</ele>
        <time>2014-08-18T10:59:27Z</time>
      </trkpt>
      <trkpt lat="44.93105" lon="1.11092">
        <ele>192</ele>
        <time>2014-08-18T10:59:29Z</time>
      </trkpt>
      <trkpt lat="44.93102" lon="1.11092">
        <ele>192</ele>
        <time>2014-08-18T10:59:32Z</time>
      </trkpt>
      <trkpt lat="44.93102" lon="1.11095">
        <ele>192</ele>
        <time>2014-08-18T10:59:34Z</time>
      </trkpt>
      <trkpt lat="44.93102" lon="1.11098">
        <ele>192</ele>
        <time>2014-08-18T10:59:36Z</time>
      </trkpt>
      <trkpt lat="44.93103" lon="1.111">
        <ele>192</ele>
        <time>2014-08-18T10:59:38Z</time>
      </trkpt>
      <trkpt lat="44.93106" lon="1.11102">
        <ele>192</ele>
        <time>2014-08-18T10:59:40Z</time>
      </trkpt>
      <trkpt lat="44.93115" lon="1.1111">
        <ele>192</ele>
        <time>2014-08-18T10:59:43Z</time>
      </trkpt>
      <trkpt lat="44.93123" lon="1.11129">
        <ele>192</ele>
        <time>2014-08-18T10:59:46Z</time>
      </trkpt>
      <trkpt lat="44.93126" lon="1.11146">
        <ele>190</ele>
        <time>2014-08-18T10:59:48Z</time>
      </trkpt>
      <trkpt lat="44.93128" lon="1.11162">
        <ele>189</ele>
        <time>2014-08-18T10:59:50Z</time>
      </trkpt>
      <trkpt lat="44.9313" lon="1.11175">
        <ele>188</ele>
        <time>2014-08-18T10:59:52Z</time>
      </trkpt>
      <trkpt lat="44.93135" lon="1.11187">
        <ele>186</ele>
        <time>2014-08-18T10:59:55Z</time>
      </trkpt>
      <trkpt lat="44.93141" lon="1.11198">
        <ele>185</ele>
        <time>2014-08-18T10:59:58Z</time>
      </trkpt>
      <trkpt lat="44.93146" lon="1.11206">
        <ele>184</ele>
        <time>2014-08-18T11:00:00Z</time>
      </trkpt>
      <trkpt lat="44.93153" lon="1.11218">
        <ele>183</ele>
        <time>2014-08-18T11:00:02Z</time>
      </trkpt>
      <trkpt lat="44.93165" lon="1.11237">
        <ele>181</ele>
        <time>2014-08-18T11:00:05Z</time>
      </trkpt>
      <trkpt lat="44.93171" lon="1.11248">
        <ele>180</ele>
        <time>2014-08-18T11:00:07Z</time>
      </trkpt>
      <trkpt lat="44.93178" lon="1.11258">
        <ele>180</ele>
        <time>2014-08-18T11:00:09Z</time>
      </trkpt>
      <trkpt lat="44.93185" lon="1.11266">
        <ele>179</ele>
        <time>2014-08-18T11:00:11Z</time>
      </trkpt>
      <trkpt lat="44.9319" lon="1.11273">
        <ele>179</ele>
        <time>2014-08-18T11:00:13Z</time>
      </trkpt>
      <trkpt lat="44.93195" lon="1.11279">
        <ele>179</ele>
        <time>2014-08-18T11:00:15Z</time>
      </trkpt>
      <trkpt lat="44.93199" lon="1.11284">
        <ele>179</ele>
        <time>2014-08-18T11:00:17Z</time>
      </trkpt>
      <trkpt lat="44.93205" lon="1.1129">
        <ele>180</ele>
        <time>2014-08-18T11:00:20Z</time>
      </trkpt>
      <trkpt lat="44.9321" lon="1.11293">
        <ele>180</ele>
        <time>2014-08-18T11:00:22Z</time>
      </trkpt>
      <trkpt lat="44.93216" lon="1.11298">
        <ele>181</ele>
        <time>2014-08-18T11:00:24Z</time>
      </trkpt>
      <trkpt lat="44.93227" lon="1.11306">
        <ele>181</ele>
        <time>2014-08-18T11:00:27Z</time>
      </trkpt>
      <trkpt lat="44.93234" lon="1.11313">
        <ele>181</ele>
        <time>2014-08-18T11:00:29Z</time>
      </trkpt>
      <trkpt lat="44.93239" lon="1.11318">
        <ele>181</ele>
        <time>2014-08-18T11:00:31Z</time>
      </trkpt>
      <trkpt lat="44.93244" lon="1.11323">
        <ele>181</ele>
        <time>2014-08-18T11:00:33Z</time>
      </trkpt>
      <trkpt lat="44.93252" lon="1.11329">
        <ele>181</ele>
        <time>2014-08-18T11:00:36Z</time>
      </trkpt>
      <trkpt lat="44.93262" lon="1.11332">
        <ele>181</ele>
        <time>2014-08-18T11:00:39Z</time>
      </trkpt>
      <trkpt lat="44.93267" lon="1.11335">
        <ele>182</ele>
        <time>2014-08-18T11:00:41Z</time>
      </trkpt>
      <trkpt lat="44.93276" lon="1.1134">
        <ele>182</ele>
        <time>2014-08-18T11:00:44Z</time>
      </trkpt>
      <trkpt lat="44.93282" lon="1.11343">
        <ele>183</ele>
        <time>2014-08-18T11:00:46Z</time>
      </trkpt>
      <trkpt lat="44.93288" lon="1.11346">
        <ele>183</ele>
        <time>2014-08-18T11:00:48Z</time>
      </trkpt>
      <trkpt lat="44.93296" lon="1.11352">
        <ele>183</ele>
        <time>2014-08-18T11:00:51Z</time>
      </trkpt>
      <trkpt lat="44.93305" lon="1.11359">
        <ele>184</ele>
        <time>2014-08-18T11:00:54Z</time>
      </trkpt>
      <trkpt lat="44.93311" lon="1.11363">
        <ele>184</ele>
        <time>2014-08-18T11:00:56Z</time>
      </trkpt>
      <trkpt lat="44.93316" lon="1.11367">
        <ele>185</ele>
        <time>2014-08-18T11:00:58Z</time>
      </trkpt>
      <trkpt lat="44.93326" lon="1.11372">
        <ele>185</ele>
        <time>2014-08-18T11:01:01Z</time>
      </trkpt>
      <trkpt lat="44.93334" lon="1.11375">
        <ele>185</ele>
        <time>2014-08-18T11:01:03Z</time>
      </trkpt>
      <trkpt lat="44.93343" lon="1.1138">
        <ele>184</ele>
        <time>2014-08-18T11:01:05Z</time>
      </trkpt>
      <trkpt lat="44.93357" lon="1.11395">
        <ele>183</ele>
        <time>2014-08-18T11:01:08Z</time>
      </trkpt>
      <trkpt lat="44.93366" lon="1.1141">
        <ele>182</ele>
        <time>2014-08-18T11:01:10Z</time>
      </trkpt>
      <trkpt lat="44.93373" lon="1.11426">
        <ele>181</ele>
        <time>2014-08-18T11:01:12Z</time>
      </trkpt>
      <trkpt lat="44.93387" lon="1.11445">
        <ele>178</ele>
        <time>2014-08-18T11:01:15Z</time>
      </trkpt>
      <trkpt lat="44.93394" lon="1.11457">
        <ele>176</ele>
        <time>2014-08-18T11:01:17Z</time>
      </trkpt>
      <trkpt lat="44.93401" lon="1.11467">
        <ele>174</ele>
        <time>2014-08-18T11:01:19Z</time>
      </trkpt>
      <trkpt lat="44.93411" lon="1.11484">
        <ele>173</ele>
        <time>2014-08-18T11:01:22Z</time>
      </trkpt>
      <trkpt lat="44.9342" lon="1.11493">
        <ele>173</ele>
        <time>2014-08-18T11:01:24Z</time>
      </trkpt>
      <trkpt lat="44.93429" lon="1.115">
        <ele>172</ele>
        <time>2014-08-18T11:01:26Z</time>
      </trkpt>
      <trkpt lat="44.93436" lon="1.11507">
        <ele>173</ele>
        <time>2014-08-18T11:01:28Z</time>
      </trkpt>
      <trkpt lat="44.93446" lon="1.11517">
        <ele>172</ele>
        <time>2014-08-18T11:01:31Z</time>
      </trkpt>
      <trkpt lat="44.93453" lon="1.1153">
        <ele>173</ele>
        <time>2014-08-18T11:01:34Z</time>
      </trkpt>
      <trkpt lat="44.93457" lon="1.11539">
        <ele>173</ele>
        <time>2014-08-18T11:01:36Z</time>
      </trkpt>
      <trkpt lat="44.93459" lon="1.11548">
        <ele>174</ele>
        <time>2014-08-18T11:01:38Z</time>
      </trkpt>
      <trkpt lat="44.93461" lon="1.11558">
        <ele>174</ele>
        <time>2014-08-18T11:01:40Z</time>
      </trkpt>
      <trkpt lat="44.93463" lon="1.11569">
        <ele>175</ele>
        <time>2014-08-18T11:01:42Z</time>
      </trkpt>
      <trkpt lat="44.93467" lon="1.11584">
        <ele>175</ele>
        <time>2014-08-18T11:01:45Z</time>
      </trkpt>
      <trkpt lat="44.9347" lon="1.11595">
        <ele>175</ele>
        <time>2014-08-18T11:01:47Z</time>
      </trkpt>
      <trkpt lat="44.93475" lon="1.11606">
        <ele>175</ele>
        <time>2014-08-18T11:01:49Z</time>
      </trkpt>
      <trkpt lat="44.93479" lon="1.11615">
        <ele>175</ele>
        <time>2014-08-18T11:01:51Z</time>
      </trkpt>
      <trkpt lat="44.93488" lon="1.11628">
        <ele>175</ele>
        <time>2014-08-18T11:01:54Z</time>
      </trkpt>
      <trkpt lat="44.93494" lon="1.11636">
        <ele>175</ele>
        <time>2014-08-18T11:01:56Z</time>
      </trkpt>
      <trkpt lat="44.93501" lon="1.11646">
        <ele>175</ele>
        <time>2014-08-18T11:01:59Z</time>
      </trkpt>
      <trkpt lat="44.93507" lon="1.11655">
        <ele>176</ele>
        <time>2014-08-18T11:02:02Z</time>
      </trkpt>
      <trkpt lat="44.9351" lon="1.1166">
        <ele>176</ele>
        <time>2014-08-18T11:02:04Z</time>
      </trkpt>
      <trkpt lat="44.93514" lon="1.11663">
        <ele>177</ele>
        <time>2014-08-18T11:02:06Z</time>
      </trkpt>
      <trkpt lat="44.93517" lon="1.11667">
        <ele>178</ele>
        <time>2014-08-18T11:02:08Z</time>
      </trkpt>
      <trkpt lat="44.9352" lon="1.11671">
        <ele>179</ele>
        <time>2014-08-18T11:02:10Z</time>
      </trkpt>
      <trkpt lat="44.93523" lon="1.11676">
        <ele>180</ele>
        <time>2014-08-18T11:02:12Z</time>
      </trkpt>
      <trkpt lat="44.93526" lon="1.11681">
        <ele>181</ele>
        <time>2014-08-18T11:02:15Z</time>
      </trkpt>
      <trkpt lat="44.93528" lon="1.11684">
        <ele>182</ele>
        <time>2014-08-18T11:02:17Z</time>
      </trkpt>
      <trkpt lat="44.9353" lon="1.11688">
        <ele>183</ele>
        <time>2014-08-18T11:02:19Z</time>
      </trkpt>
      <trkpt lat="44.93531" lon="1.11693">
        <ele>184</ele>
        <time>2014-08-18T11:02:21Z</time>
      </trkpt>
      <trkpt lat="44.93535" lon="1.11701">
        <ele>185</ele>
        <time>2014-08-18T11:02:24Z</time>
      </trkpt>
      <trkpt lat="44.93537" lon="1.11707">
        <ele>185</ele>
        <time>2014-08-18T11:02:26Z</time>
      </trkpt>
      <trkpt lat="44.93539" lon="1.11713">
        <ele>186</ele>
        <time>2014-08-18T11:02:28Z</time>
      </trkpt>
      <trkpt lat="44.93542" lon="1.11721">
        <ele>187</ele>
        <time>2014-08-18T11:02:31Z</time>
      </trkpt>
      <trkpt lat="44.93544" lon="1.11727">
        <ele>187</ele>
        <time>2014-08-18T11:02:33Z</time>
      </trkpt>
      <trkpt lat="44.93547" lon="1.11734">
        <ele>188</ele>
        <time>2014-08-18T11:02:35Z</time>
      </trkpt>
      <trkpt lat="44.93549" lon="1.11741">
        <ele>188</ele>
        <time>2014-08-18T11:02:37Z</time>
      </trkpt>
      <trkpt lat="44.93552" lon="1.11746">
        <ele>189</ele>
        <time>2014-08-18T11:02:39Z</time>
      </trkpt>
      <trkpt lat="44.93554" lon="1.11752">
        <ele>189</ele>
        <time>2014-08-18T11:02:41Z</time>
      </trkpt>
      <trkpt lat="44.93556" lon="1.11757">
        <ele>190</ele>
        <time>2014-08-18T11:02:43Z</time>
      </trkpt>
      <trkpt lat="44.93558" lon="1.11764">
        <ele>190</ele>
        <time>2014-08-18T11:02:46Z</time>
      </trkpt>
      <trkpt lat="44.93559" lon="1.11769">
        <ele>191</ele>
        <time>2014-08-18T11:02:48Z</time>
      </trkpt>
      <trkpt lat="44.9356" lon="1.11776">
        <ele>191</ele>
        <time>2014-08-18T11:02:50Z</time>
      </trkpt>
      <trkpt lat="44.93562" lon="1.11783">
        <ele>191</ele>
        <time>2014-08-18T11:02:52Z</time>
      </trkpt>
      <trkpt lat="44.93566" lon="1.11797">
        <ele>191</ele>
        <time>2014-08-18T11:02:55Z</time>
      </trkpt>
      <trkpt lat="44.93569" lon="1.11807">
        <ele>190</ele>
        <time>2014-08-18T11:02:57Z</time>
      </trkpt>
      <trkpt lat="44.93573" lon="1.11816">
        <ele>190</ele>
        <time>2014-08-18T11:02:59Z</time>
      </trkpt>
      <trkpt lat="44.9358" lon="1.11821">
        <ele>189</ele>
        <time>2014-08-18T11:03:01Z</time>
      </trkpt>
      <trkpt lat="44.93587" lon="1.11819">
        <ele>189</ele>
        <time>2014-08-18T11:03:03Z</time>
      </trkpt>
      <trkpt lat="44.93594" lon="1.11816">
        <ele>189</ele>
        <time>2014-08-18T11:03:05Z</time>
      </trkpt>
      <trkpt lat="44.93602" lon="1.11813">
        <ele>189</ele>
        <time>2014-08-18T11:03:07Z</time>
      </trkpt>
      <trkpt lat="44.9361" lon="1.11809">
        <ele>189</ele>
        <time>2014-08-18T11:03:09Z</time>
      </trkpt>
      <trkpt lat="44.93619" lon="1.11805">
        <ele>189</ele>
        <time>2014-08-18T11:03:11Z</time>
      </trkpt>
      <trkpt lat="44.93629" lon="1.118">
        <ele>189</ele>
        <time>2014-08-18T11:03:13Z</time>
      </trkpt>
      <trkpt lat="44.9364" lon="1.11794">
        <ele>188</ele>
        <time>2014-08-18T11:03:15Z</time>
      </trkpt>
      <trkpt lat="44.93658" lon="1.11783">
        <ele>188</ele>
        <time>2014-08-18T11:03:18Z</time>
      </trkpt>
      <trkpt lat="44.93677" lon="1.11772">
        <ele>187</ele>
        <time>2014-08-18T11:03:21Z</time>
      </trkpt>
      <trkpt lat="44.9369" lon="1.11765">
        <ele>188</ele>
        <time>2014-08-18T11:03:23Z</time>
      </trkpt>
      <trkpt lat="44.93709" lon="1.11754">
        <ele>188</ele>
        <time>2014-08-18T11:03:26Z</time>
      </trkpt>
      <trkpt lat="44.93722" lon="1.11747">
        <ele>187</ele>
        <time>2014-08-18T11:03:28Z</time>
      </trkpt>
      <trkpt lat="44.93734" lon="1.11739">
        <ele>187</ele>
        <time>2014-08-18T11:03:30Z</time>
      </trkpt>
      <trkpt lat="44.93746" lon="1.11732">
        <ele>187</ele>
        <time>2014-08-18T11:03:32Z</time>
      </trkpt>
      <trkpt lat="44.93758" lon="1.11725">
        <ele>187</ele>
        <time>2014-08-18T11:03:34Z</time>
      </trkpt>
      <trkpt lat="44.93769" lon="1.11719">
        <ele>187</ele>
        <time>2014-08-18T11:03:36Z</time>
      </trkpt>
      <trkpt lat="44.9378" lon="1.11712">
        <ele>187</ele>
        <time>2014-08-18T11:03:38Z</time>
      </trkpt>
      <trkpt lat="44.9379" lon="1.11705">
        <ele>186</ele>
        <time>2014-08-18T11:03:40Z</time>
      </trkpt>
      <trkpt lat="44.938" lon="1.117">
        <ele>186</ele>
        <time>2014-08-18T11:03:42Z</time>
      </trkpt>
      <trkpt lat="44.93816" lon="1.1169">
        <ele>186</ele>
        <time>2014-08-18T11:03:45Z</time>
      </trkpt>
      <trkpt lat="44.93836" lon="1.11684">
        <ele>185</ele>
        <time>2014-08-18T11:03:48Z</time>
      </trkpt>
      <trkpt lat="44.9385" lon="1.11682">
        <ele>184</ele>
        <time>2014-08-18T11:03:50Z</time>
      </trkpt>
      <trkpt lat="44.93871" lon="1.11687">
        <ele>183</ele>
        <time>2014-08-18T11:03:53Z</time>
      </trkpt>
      <trkpt lat="44.93891" lon="1.1169">
        <ele>182</ele>
        <time>2014-08-18T11:03:56Z</time>
      </trkpt>
      <trkpt lat="44.93902" lon="1.11689">
        <ele>181</ele>
        <time>2014-08-18T11:03:58Z</time>
      </trkpt>
      <trkpt lat="44.93912" lon="1.11669">
        <ele>180</ele>
        <time>2014-08-18T11:04:01Z</time>
      </trkpt>
      <trkpt lat="44.93913" lon="1.1164">
        <ele>179</ele>
        <time>2014-08-18T11:04:04Z</time>
      </trkpt>
      <trkpt lat="44.93913" lon="1.11621">
        <ele>178</ele>
        <time>2014-08-18T11:04:06Z</time>
      </trkpt>
      <trkpt lat="44.93911" lon="1.11601">
        <ele>178</ele>
        <time>2014-08-18T11:04:08Z</time>
      </trkpt>
      <trkpt lat="44.93907" lon="1.11582">
        <ele>178</ele>
        <time>2014-08-18T11:04:10Z</time>
      </trkpt>
      <trkpt lat="44.93902" lon="1.11559">
        <ele>177</ele>
        <time>2014-08-18T11:04:12Z</time>
      </trkpt>
      <trkpt lat="44.93898" lon="1.11522">
        <ele>176</ele>
        <time>2014-08-18T11:04:15Z</time>
      </trkpt>
      <trkpt lat="44.93899" lon="1.11501">
        <ele>176</ele>
        <time>2014-08-18T11:04:17Z</time>
      </trkpt>
      <trkpt lat="44.939" lon="1.11467">
        <ele>174</ele>
        <time>2014-08-18T11:04:20Z</time>
      </trkpt>
      <trkpt lat="44.939" lon="1.11445">
        <ele>174</ele>
        <time>2014-08-18T11:04:22Z</time>
      </trkpt>
      <trkpt lat="44.9391" lon="1.11409">
        <ele>173</ele>
        <time>2014-08-18T11:04:25Z</time>
      </trkpt>
      <trkpt lat="44.93919" lon="1.11386">
        <ele>172</ele>
        <time>2014-08-18T11:04:27Z</time>
      </trkpt>
      <trkpt lat="44.93928" lon="1.11362">
        <ele>172</ele>
        <time>2014-08-18T11:04:29Z</time>
      </trkpt>
      <trkpt lat="44.93934" lon="1.11338">
        <ele>172</ele>
        <time>2014-08-18T11:04:31Z</time>
      </trkpt>
      <trkpt lat="44.9394" lon="1.11314">
        <ele>171</ele>
        <time>2014-08-18T11:04:33Z</time>
      </trkpt>
      <trkpt lat="44.93947" lon="1.1129">
        <ele>171</ele>
        <time>2014-08-18T11:04:35Z</time>
      </trkpt>
      <trkpt lat="44.93956" lon="1.11254">
        <ele>171</ele>
        <time>2014-08-18T11:04:38Z</time>
      </trkpt>
      <trkpt lat="44.93963" lon="1.1123">
        <ele>170</ele>
        <time>2014-08-18T11:04:40Z</time>
      </trkpt>
      <trkpt lat="44.93974" lon="1.11195">
        <ele>169</ele>
        <time>2014-08-18T11:04:43Z</time>
      </trkpt>
      <trkpt lat="44.93985" lon="1.11162">
        <ele>168</ele>
        <time>2014-08-18T11:04:46Z</time>
      </trkpt>
      <trkpt lat="44.93997" lon="1.11128">
        <ele>166</ele>
        <time>2014-08-18T11:04:49Z</time>
      </trkpt>
      <trkpt lat="44.94008" lon="1.11092">
        <ele>164</ele>
        <time>2014-08-18T11:04:52Z</time>
      </trkpt>
      <trkpt lat="44.94016" lon="1.11062">
        <ele>162</ele>
        <time>2014-08-18T11:04:54Z</time>
      </trkpt>
      <trkpt lat="44.94032" lon="1.11014">
        <ele>160</ele>
        <time>2014-08-18T11:04:57Z</time>
      </trkpt>
      <trkpt lat="44.94043" lon="1.10984">
        <ele>158</ele>
        <time>2014-08-18T11:04:59Z</time>
      </trkpt>
      <trkpt lat="44.94055" lon="1.10956">
        <ele>157</ele>
        <time>2014-08-18T11:05:01Z</time>
      </trkpt>
      <trkpt lat="44.94075" lon="1.10921">
        <ele>155</ele>
        <time>2014-08-18T11:05:04Z</time>
      </trkpt>
      <trkpt lat="44.94098" lon="1.10896">
        <ele>154</ele>
        <time>2014-08-18T11:05:07Z</time>
      </trkpt>
      <trkpt lat="44.94111" lon="1.10882">
        <ele>153</ele>
        <time>2014-08-18T11:05:09Z</time>
      </trkpt>
      <trkpt lat="44.94119" lon="1.10874">
        <ele>152</ele>
        <time>2014-08-18T11:05:11Z</time>
      </trkpt>
      <trkpt lat="44.94126" lon="1.10867">
        <ele>151</ele>
        <time>2014-08-18T11:05:13Z</time>
      </trkpt>
      <trkpt lat="44.9413" lon="1.10863">
        <ele>151</ele>
        <time>2014-08-18T11:05:15Z</time>
      </trkpt>
      <trkpt lat="44.94133" lon="1.10861">
        <ele>151</ele>
        <time>2014-08-18T11:05:17Z</time>
      </trkpt>
      <trkpt lat="44.94133" lon="1.10859">
        <ele>150</ele>
        <time>2014-08-18T11:05:20Z</time>
      </trkpt>
      <trkpt lat="44.94133" lon="1.10859">
        <ele>150</ele>
        <time>2014-08-18T11:05:22Z</time>
      </trkpt>
      <trkpt lat="44.9413" lon="1.10854">
        <ele>150</ele>
        <time>2014-08-18T11:05:25Z</time>
      </trkpt>
      <trkpt lat="44.94132" lon="1.10852">
        <ele>150</ele>
        <time>2014-08-18T11:05:27Z</time>
      </trkpt>
      <trkpt lat="44.94137" lon="1.10847">
        <ele>150</ele>
        <time>2014-08-18T11:05:30Z</time>
      </trkpt>
      <trkpt lat="44.94141" lon="1.10844">
        <ele>150</ele>
        <time>2014-08-18T11:05:32Z</time>
      </trkpt>
      <trkpt lat="44.94145" lon="1.1084">
        <ele>150</ele>
        <time>2014-08-18T11:05:35Z</time>
      </trkpt>
      <trkpt lat="44.94148" lon="1.10838">
        <ele>150</ele>
        <time>2014-08-18T11:05:37Z</time>
      </trkpt>
      <trkpt lat="44.9415" lon="1.10835">
        <ele>150</ele>
        <time>2014-08-18T11:05:39Z</time>
      </trkpt>
      <trkpt lat="44.94152" lon="1.10833">
        <ele>150</ele>
        <time>2014-08-18T11:05:41Z</time>
      </trkpt>
      <trkpt lat="44.94156" lon="1.1083">
        <ele>149</ele>
        <time>2014-08-18T11:05:43Z</time>
      </trkpt>
      <trkpt lat="44.94163" lon="1.10823">
        <ele>150</ele>
        <time>2014-08-18T11:05:46Z</time>
      </trkpt>
      <trkpt lat="44.94166" lon="1.10815">
        <ele>150</ele>
        <time>2014-08-18T11:05:48Z</time>
      </trkpt>
      <trkpt lat="44.94168" lon="1.10803">
        <ele>150</ele>
        <time>2014-08-18T11:05:51Z</time>
      </trkpt>
      <trkpt lat="44.9417" lon="1.10794">
        <ele>150</ele>
        <time>2014-08-18T11:05:53Z</time>
      </trkpt>
      <trkpt lat="44.94173" lon="1.10777">
        <ele>150</ele>
        <time>2014-08-18T11:05:56Z</time>
      </trkpt>
      <trkpt lat="44.94176" lon="1.10759">
        <ele>150</ele>
        <time>2014-08-18T11:05:59Z</time>
      </trkpt>
      <trkpt lat="44.94177" lon="1.10748">
        <ele>149</ele>
        <time>2014-08-18T11:06:01Z</time>
      </trkpt>
      <trkpt lat="44.94178" lon="1.10739">
        <ele>149</ele>
        <time>2014-08-18T11:06:03Z</time>
      </trkpt>
      <trkpt lat="44.94178" lon="1.10731">
        <ele>149</ele>
        <time>2014-08-18T11:06:05Z</time>
      </trkpt>
      <trkpt lat="44.9418" lon="1.10721">
        <ele>148</ele>
        <time>2014-08-18T11:06:08Z</time>
      </trkpt>
      <trkpt lat="44.94185" lon="1.10714">
        <ele>147</ele>
        <time>2014-08-18T11:06:11Z</time>
      </trkpt>
      <trkpt lat="44.94189" lon="1.10711">
        <ele>147</ele>
        <time>2014-08-18T11:06:13Z</time>
      </trkpt>
      <trkpt lat="44.94197" lon="1.10704">
        <ele>146</ele>
        <time>2014-08-18T11:06:16Z</time>
      </trkpt>
      <trkpt lat="44.94205" lon="1.10696">
        <ele>146</ele>
        <time>2014-08-18T11:06:19Z</time>
      </trkpt>
      <trkpt lat="44.9421" lon="1.10688">
        <ele>144</ele>
        <time>2014-08-18T11:06:22Z</time>
      </trkpt>
      <trkpt lat="44.94215" lon="1.10682">
        <ele>143</ele>
        <time>2014-08-18T11:06:25Z</time>
      </trkpt>
      <trkpt lat="44.94216" lon="1.10679">
        <ele>142</ele>
        <time>2014-08-18T11:06:27Z</time>
      </trkpt>
      <trkpt lat="44.94215" lon="1.10675">
        <ele>142</ele>
        <time>2014-08-18T11:06:29Z</time>
      </trkpt>
      <trkpt lat="44.94214" lon="1.10673">
        <ele>141</ele>
        <time>2014-08-18T11:06:32Z</time>
      </trkpt>
      <trkpt lat="44.94214" lon="1.10673">
        <ele>141</ele>
        <time>2014-08-18T11:06:35Z</time>
      </trkpt>
      <trkpt lat="44.94214" lon="1.10672">
        <ele>142</ele>
        <time>2014-08-18T11:06:38Z</time>
      </trkpt>
      <trkpt lat="44.94213" lon="1.1067">
        <ele>142</ele>
        <time>2014-08-18T11:06:40Z</time>
      </trkpt>
      <trkpt lat="44.94213" lon="1.10662">
        <ele>142</ele>
        <time>2014-08-18T11:06:43Z</time>
      </trkpt>
      <trkpt lat="44.94213" lon="1.10662">
        <ele>142</ele>
        <time>2014-08-18T11:06:46Z</time>
      </trkpt>
      <trkpt lat="44.94214" lon="1.10662">
        <ele>142</ele>
        <time>2014-08-18T11:06:48Z</time>
      </trkpt>
      <trkpt lat="44.94216" lon="1.10666">
        <ele>142</ele>
        <time>2014-08-18T11:06:51Z</time>
      </trkpt>
      <trkpt lat="44.94214" lon="1.10672">
        <ele>142</ele>
        <time>2014-08-18T11:06:53Z</time>
      </trkpt>
      <trkpt lat="44.94209" lon="1.10679">
        <ele>143</ele>
        <time>2014-08-18T11:06:56Z</time>
      </trkpt>
      <trkpt lat="44.94205" lon="1.10685">
        <ele>143</ele>
        <time>2014-08-18T11:06:58Z</time>
      </trkpt>
      <trkpt lat="44.94201" lon="1.1069">
        <ele>144</ele>
        <time>2014-08-18T11:07:00Z</time>
      </trkpt>
      <trkpt lat="44.94197" lon="1.10695">
        <ele>144</ele>
        <time>2014-08-18T11:07:02Z</time>
      </trkpt>
      <trkpt lat="44.94193" lon="1.10699">
        <ele>145</ele>
        <time>2014-08-18T11:07:04Z</time>
      </trkpt>
      <trkpt lat="44.94188" lon="1.10704">
        <ele>145</ele>
        <time>2014-08-18T11:07:06Z</time>
      </trkpt>
      <trkpt lat="44.94184" lon="1.10708">
        <ele>146</ele>
        <time>2014-08-18T11:07:08Z</time>
      </trkpt>
      <trkpt lat="44.94179" lon="1.10717">
        <ele>146</ele>
        <time>2014-08-18T11:07:11Z</time>
      </trkpt>
      <trkpt lat="44.94178" lon="1.10725">
        <ele>147</ele>
        <time>2014-08-18T11:07:14Z</time>
      </trkpt>
      <trkpt lat="44.94176" lon="1.10731">
        <ele>148</ele>
        <time>2014-08-18T11:07:16Z</time>
      </trkpt>
      <trkpt lat="44.94176" lon="1.10739">
        <ele>148</ele>
        <time>2014-08-18T11:07:18Z</time>
      </trkpt>
      <trkpt lat="44.94175" lon="1.10746">
        <ele>149</ele>
        <time>2014-08-18T11:07:20Z</time>
      </trkpt>
      <trkpt lat="44.94174" lon="1.10752">
        <ele>149</ele>
        <time>2014-08-18T11:07:22Z</time>
      </trkpt>
      <trkpt lat="44.94172" lon="1.10764">
        <ele>149</ele>
        <time>2014-08-18T11:07:25Z</time>
      </trkpt>
      <trkpt lat="44.94171" lon="1.10774">
        <ele>149</ele>
        <time>2014-08-18T11:07:27Z</time>
      </trkpt>
      <trkpt lat="44.9417" lon="1.10783">
        <ele>150</ele>
        <time>2014-08-18T11:07:29Z</time>
      </trkpt>
      <trkpt lat="44.94169" lon="1.10792">
        <ele>150</ele>
        <time>2014-08-18T11:07:31Z</time>
      </trkpt>
      <trkpt lat="44.94167" lon="1.10801">
        <ele>150</ele>
        <time>2014-08-18T11:07:33Z</time>
      </trkpt>
      <trkpt lat="44.94162" lon="1.10813">
        <ele>150</ele>
        <time>2014-08-18T11:07:36Z</time>
      </trkpt>
      <trkpt lat="44.94156" lon="1.1082">
        <ele>150</ele>
        <time>2014-08-18T11:07:38Z</time>
      </trkpt>
      <trkpt lat="44.94149" lon="1.10826">
        <ele>150</ele>
        <time>2014-08-18T11:07:40Z</time>
      </trkpt>
      <trkpt lat="44.94143" lon="1.10832">
        <ele>150</ele>
        <time>2014-08-18T11:07:42Z</time>
      </trkpt>
      <trkpt lat="44.94138" lon="1.10842">
        <ele>150</ele>
        <time>2014-08-18T11:07:45Z</time>
      </trkpt>
      <trkpt lat="44.94142" lon="1.10849">
        <ele>150</ele>
        <time>2014-08-18T11:07:47Z</time>
      </trkpt>
      <trkpt lat="44.94147" lon="1.10853">
        <ele>150</ele>
        <time>2014-08-18T11:07:49Z</time>
      </trkpt>
      <trkpt lat="44.94151" lon="1.10858">
        <ele>149</ele>
        <time>2014-08-18T11:07:51Z</time>
      </trkpt>
      <trkpt lat="44.94149" lon="1.10871">
        <ele>148</ele>
        <time>2014-08-18T11:07:54Z</time>
      </trkpt>
      <trkpt lat="44.94144" lon="1.10883">
        <ele>147</ele>
        <time>2014-08-18T11:07:56Z</time>
      </trkpt>
      <trkpt lat="44.94136" lon="1.10897">
        <ele>146</ele>
        <time>2014-08-18T11:07:58Z</time>
      </trkpt>
      <trkpt lat="44.94124" lon="1.10922">
        <ele>145</ele>
        <time>2014-08-18T11:08:01Z</time>
      </trkpt>
      <trkpt lat="44.94117" lon="1.10939">
        <ele>144</ele>
        <time>2014-08-18T11:08:03Z</time>
      </trkpt>
      <trkpt lat="44.9411" lon="1.10956">
        <ele>144</ele>
        <time>2014-08-18T11:08:05Z</time>
      </trkpt>
      <trkpt lat="44.94104" lon="1.10972">
        <ele>143</ele>
        <time>2014-08-18T11:08:07Z</time>
      </trkpt>
      <trkpt lat="44.94097" lon="1.10997">
        <ele>143</ele>
        <time>2014-08-18T11:08:10Z</time>
      </trkpt>
      <trkpt lat="44.94097" lon="1.11016">
        <ele>142</ele>
        <time>2014-08-18T11:08:12Z</time>
      </trkpt>
      <trkpt lat="44.94102" lon="1.11037">
        <ele>142</ele>
        <time>2014-08-18T11:08:14Z</time>
      </trkpt>
      <trkpt lat="44.94108" lon="1.11055">
        <ele>141</ele>
        <time>2014-08-18T11:08:16Z</time>
      </trkpt>
      <trkpt lat="44.94113" lon="1.11065">
        <ele>139</ele>
        <time>2014-08-18T11:08:18Z</time>
      </trkpt>
      <trkpt lat="44.9412" lon="1.1107">
        <ele>138</ele>
        <time>2014-08-18T11:08:20Z</time>
      </trkpt>
      <trkpt lat="44.94129" lon="1.11066">
        <ele>137</ele>
        <time>2014-08-18T11:08:22Z</time>
      </trkpt>
      <trkpt lat="44.94147" lon="1.11053">
        <ele>137</ele>
        <time>2014-08-18T11:08:25Z</time>
      </trkpt>
      <trkpt lat="44.9416" lon="1.11042">
        <ele>136</ele>
        <time>2014-08-18T11:08:27Z</time>
      </trkpt>
      <trkpt lat="44.94174" lon="1.11031">
        <ele>134</ele>
        <time>2014-08-18T11:08:29Z</time>
      </trkpt>
      <trkpt lat="44.94187" lon="1.11023">
        <ele>132</ele>
        <time>2014-08-18T11:08:31Z</time>
      </trkpt>
      <trkpt lat="44.942" lon="1.11012">
        <ele>131</ele>
        <time>2014-08-18T11:08:33Z</time>
      </trkpt>
      <trkpt lat="44.94216" lon="1.11003">
        <ele>128</ele>
        <time>2014-08-18T11:08:35Z</time>
      </trkpt>
      <trkpt lat="44.94231" lon="1.10995">
        <ele>126</ele>
        <time>2014-08-18T11:08:37Z</time>
      </trkpt>
      <trkpt lat="44.94247" lon="1.10987">
        <ele>125</ele>
        <time>2014-08-18T11:08:39Z</time>
      </trkpt>
      <trkpt lat="44.94262" lon="1.10977">
        <ele>123</ele>
        <time>2014-08-18T11:08:41Z</time>
      </trkpt>
      <trkpt lat="44.94277" lon="1.10971">
        <ele>122</ele>
        <time>2014-08-18T11:08:43Z</time>
      </trkpt>
      <trkpt lat="44.94296" lon="1.10967">
        <ele>120</ele>
        <time>2014-08-18T11:08:45Z</time>
      </trkpt>
      <trkpt lat="44.94314" lon="1.1096">
        <ele>118</ele>
        <time>2014-08-18T11:08:47Z</time>
      </trkpt>
      <trkpt lat="44.94332" lon="1.10949">
        <ele>117</ele>
        <time>2014-08-18T11:08:49Z</time>
      </trkpt>
      <trkpt lat="44.94356" lon="1.10928">
        <ele>115</ele>
        <time>2014-08-18T11:08:52Z</time>
      </trkpt>
      <trkpt lat="44.9437" lon="1.10917">
        <ele>113</ele>
        <time>2014-08-18T11:08:54Z</time>
      </trkpt>
      <trkpt lat="44.94384" lon="1.10912">
        <ele>111</ele>
        <time>2014-08-18T11:08:56Z</time>
      </trkpt>
      <trkpt lat="44.94405" lon="1.10919">
        <ele>108</ele>
        <time>2014-08-18T11:08:59Z</time>
      </trkpt>
      <trkpt lat="44.94417" lon="1.10928">
        <ele>107</ele>
        <time>2014-08-18T11:09:01Z</time>
      </trkpt>
      <trkpt lat="44.9443" lon="1.10935">
        <ele>106</ele>
        <time>2014-08-18T11:09:03Z</time>
      </trkpt>
      <trkpt lat="44.94447" lon="1.1095">
        <ele>105</ele>
        <time>2014-08-18T11:09:06Z</time>
      </trkpt>
      <trkpt lat="44.94456" lon="1.10961">
        <ele>105</ele>
        <time>2014-08-18T11:09:08Z</time>
      </trkpt>
      <trkpt lat="44.94465" lon="1.10967">
        <ele>105</ele>
        <time>2014-08-18T11:09:10Z</time>
      </trkpt>
      <trkpt lat="44.94471" lon="1.10961">
        <ele>105</ele>
        <time>2014-08-18T11:09:12Z</time>
      </trkpt>
      <trkpt lat="44.94478" lon="1.10949">
        <ele>105</ele>
        <time>2014-08-18T11:09:15Z</time>
      </trkpt>
      <trkpt lat="44.94486" lon="1.10934">
        <ele>105</ele>
        <time>2014-08-18T11:09:18Z</time>
      </trkpt>
      <trkpt lat="44.94492" lon="1.10923">
        <ele>105</ele>
        <time>2014-08-18T11:09:20Z</time>
      </trkpt>
      <trkpt lat="44.94504" lon="1.10906">
        <ele>104</ele>
        <time>2014-08-18T11:09:23Z</time>
      </trkpt>
      <trkpt lat="44.94514" lon="1.10887">
        <ele>103</ele>
        <time>2014-08-18T11:09:26Z</time>
      </trkpt>
      <trkpt lat="44.94524" lon="1.10881">
        <ele>102</ele>
        <time>2014-08-18T11:09:29Z</time>
      </trkpt>
      <trkpt lat="44.94527" lon="1.10881">
        <ele>102</ele>
        <time>2014-08-18T11:09:32Z</time>
      </trkpt>
      <trkpt lat="44.94527" lon="1.10881">
        <ele>101</ele>
        <time>2014-08-18T11:09:35Z</time>
      </trkpt>
      <trkpt lat="44.94528" lon="1.10881">
        <ele>102</ele>
        <time>2014-08-18T11:09:38Z</time>
      </trkpt>
      <trkpt lat="44.94529" lon="1.10879">
        <ele>102</ele>
        <time>2014-08-18T11:09:40Z</time>
      </trkpt>
      <trkpt lat="44.94531" lon="1.10877">
        <ele>102</ele>
        <time>2014-08-18T11:09:43Z</time>
      </trkpt>
      <trkpt lat="44.94532" lon="1.10876">
        <ele>101</ele>
        <time>2014-08-18T11:09:45Z</time>
      </trkpt>
      <trkpt lat="44.94536" lon="1.10874">
        <ele>101</ele>
        <time>2014-08-18T11:09:47Z</time>
      </trkpt>
      <trkpt lat="44.94539" lon="1.1087">
        <ele>100</ele>
        <time>2014-08-18T11:09:49Z</time>
      </trkpt>
      <trkpt lat="44.94537" lon="1.10864">
        <ele>100</ele>
        <time>2014-08-18T11:09:52Z</time>
      </trkpt>
      <trkpt lat="44.94529" lon="1.10863">
        <ele>99</ele>
        <time>2014-08-18T11:09:54Z</time>
      </trkpt>
      <trkpt lat="44.94518" lon="1.10863">
        <ele>98</ele>
        <time>2014-08-18T11:09:57Z</time>
      </trkpt>
      <trkpt lat="44.94513" lon="1.10862">
        <ele>96</ele>
        <time>2014-08-18T11:10:00Z</time>
      </trkpt>
      <trkpt lat="44.94516" lon="1.10858">
        <ele>94</ele>
        <time>2014-08-18T11:10:03Z</time>
      </trkpt>
      <trkpt lat="44.94521" lon="1.10854">
        <ele>93</ele>
        <time>2014-08-18T11:10:06Z</time>
      </trkpt>
      <trkpt lat="44.94525" lon="1.10846">
        <ele>92</ele>
        <time>2014-08-18T11:10:09Z</time>
      </trkpt>
      <trkpt lat="44.94533" lon="1.10829">
        <ele>91</ele>
        <time>2014-08-18T11:10:12Z</time>
      </trkpt>
      <trkpt lat="44.94542" lon="1.10803">
        <ele>89</ele>
        <time>2014-08-18T11:10:15Z</time>
      </trkpt>
      <trkpt lat="44.94549" lon="1.10785">
        <ele>88</ele>
        <time>2014-08-18T11:10:17Z</time>
      </trkpt>
      <trkpt lat="44.94554" lon="1.10763">
        <ele>86</ele>
        <time>2014-08-18T11:10:20Z</time>
      </trkpt>
      <trkpt lat="44.94552" lon="1.10751">
        <ele>85</ele>
        <time>2014-08-18T11:10:22Z</time>
      </trkpt>
      <trkpt lat="44.94548" lon="1.10739">
        <ele>84</ele>
        <time>2014-08-18T11:10:24Z</time>
      </trkpt>
      <trkpt lat="44.94538" lon="1.10719">
        <ele>84</ele>
        <time>2014-08-18T11:10:27Z</time>
      </trkpt>
      <trkpt lat="44.94527" lon="1.10702">
        <ele>83</ele>
        <time>2014-08-18T11:10:30Z</time>
      </trkpt>
      <trkpt lat="44.94516" lon="1.10688">
        <ele>82</ele>
        <time>2014-08-18T11:10:33Z</time>
      </trkpt>
      <trkpt lat="44.94518" lon="1.10679">
        <ele>82</ele>
        <time>2014-08-18T11:10:36Z</time>
      </trkpt>
      <trkpt lat="44.94527" lon="1.10689">
        <ele>80</ele>
        <time>2014-08-18T11:10:39Z</time>
      </trkpt>
      <trkpt lat="44.94538" lon="1.10693">
        <ele>78</ele>
        <time>2014-08-18T11:10:42Z</time>
      </trkpt>
      <trkpt lat="44.94543" lon="1.10701">
        <ele>75</ele>
        <time>2014-08-18T11:10:45Z</time>
      </trkpt>
      <trkpt lat="44.94548" lon="1.10711">
        <ele>75</ele>
        <time>2014-08-18T11:10:48Z</time>
      </trkpt>
      <trkpt lat="44.94551" lon="1.10717">
        <ele>75</ele>
        <time>2014-08-18T11:10:50Z</time>
      </trkpt>
      <trkpt lat="44.94558" lon="1.10724">
        <ele>75</ele>
        <time>2014-08-18T11:10:53Z</time>
      </trkpt>
      <trkpt lat="44.94562" lon="1.10728">
        <ele>75</ele>
        <time>2014-08-18T11:10:55Z</time>
      </trkpt>
      <trkpt lat="44.94567" lon="1.10732">
        <ele>75</ele>
        <time>2014-08-18T11:10:57Z</time>
      </trkpt>
      <trkpt lat="44.94572" lon="1.10738">
        <ele>75</ele>
        <time>2014-08-18T11:11:00Z</time>
      </trkpt>
      <trkpt lat="44.94578" lon="1.10743">
        <ele>75</ele>
        <time>2014-08-18T11:11:03Z</time>
      </trkpt>
      <trkpt lat="44.94581" lon="1.10746">
        <ele>75</ele>
        <time>2014-08-18T11:11:05Z</time>
      </trkpt>
      <trkpt lat="44.94587" lon="1.10747">
        <ele>75</ele>
        <time>2014-08-18T11:11:08Z</time>
      </trkpt>
      <trkpt lat="44.94597" lon="1.1074">
        <ele>74</ele>
        <time>2014-08-18T11:11:11Z</time>
      </trkpt>
      <trkpt lat="44.94606" lon="1.10728">
        <ele>74</ele>
        <time>2014-08-18T11:11:14Z</time>
      </trkpt>
      <trkpt lat="44.94612" lon="1.10715">
        <ele>73</ele>
        <time>2014-08-18T11:11:17Z</time>
      </trkpt>
      <trkpt lat="44.94616" lon="1.10701">
        <ele>74</ele>
        <time>2014-08-18T11:11:20Z</time>
      </trkpt>
      <trkpt lat="44.94621" lon="1.10688">
        <ele>74</ele>
        <time>2014-08-18T11:11:23Z</time>
      </trkpt>
      <trkpt lat="44.94627" lon="1.10673">
        <ele>74</ele>
        <time>2014-08-18T11:11:26Z</time>
      </trkpt>
      <trkpt lat="44.94632" lon="1.10661">
        <ele>74</ele>
        <time>2014-08-18T11:11:29Z</time>
      </trkpt>
      <trkpt lat="44.94636" lon="1.10655">
        <ele>73</ele>
        <time>2014-08-18T11:11:31Z</time>
      </trkpt>
      <trkpt lat="44.94641" lon="1.10653">
        <ele>73</ele>
        <time>2014-08-18T11:11:33Z</time>
      </trkpt>
      <trkpt lat="44.94648" lon="1.10647">
        <ele>73</ele>
        <time>2014-08-18T11:11:36Z</time>
      </trkpt>
      <trkpt lat="44.94651" lon="1.10644">
        <ele>73</ele>
        <time>2014-08-18T11:11:39Z</time>
      </trkpt>
      <trkpt lat="44.94655" lon="1.10638">
        <ele>73</ele>
        <time>2014-08-18T11:11:42Z</time>
      </trkpt>
      <trkpt lat="44.9466" lon="1.10635">
        <ele>73</ele>
        <time>2014-08-18T11:11:45Z</time>
      </trkpt>
      <trkpt lat="44.94668" lon="1.10626">
        <ele>74</ele>
        <time>2014-08-18T11:11:48Z</time>
      </trkpt>
      <trkpt lat="44.94676" lon="1.10616">
        <ele>74</ele>
        <time>2014-08-18T11:11:51Z</time>
      </trkpt>
      <trkpt lat="44.94682" lon="1.10609">
        <ele>75</ele>
        <time>2014-08-18T11:11:54Z</time>
      </trkpt>
      <trkpt lat="44.94688" lon="1.10608">
        <ele>76</ele>
        <time>2014-08-18T11:11:57Z</time>
      </trkpt>
      <trkpt lat="44.94693" lon="1.10609">
        <ele>76</ele>
        <time>2014-08-18T11:12:00Z</time>
      </trkpt>
      <trkpt lat="44.94699" lon="1.10607">
        <ele>77</ele>
        <time>2014-08-18T11:12:03Z</time>
      </trkpt>
      <trkpt lat="44.94705" lon="1.10608">
        <ele>78</ele>
        <time>2014-08-18T11:12:06Z</time>
      </trkpt>
      <trkpt lat="44.94711" lon="1.10607">
        <ele>80</ele>
        <time>2014-08-18T11:12:09Z</time>
      </trkpt>
      <trkpt lat="44.94714" lon="1.10607">
        <ele>81</ele>
        <time>2014-08-18T11:12:11Z</time>
      </trkpt>
      <trkpt lat="44.94718" lon="1.10603">
        <ele>82</ele>
        <time>2014-08-18T11:12:13Z</time>
      </trkpt>
      <trkpt lat="44.94722" lon="1.10601">
        <ele>83</ele>
        <time>2014-08-18T11:12:15Z</time>
      </trkpt>
      <trkpt lat="44.94728" lon="1.10595">
        <ele>83</ele>
        <time>2014-08-18T11:12:18Z</time>
      </trkpt>
      <trkpt lat="44.94732" lon="1.10592">
        <ele>84</ele>
        <time>2014-08-18T11:12:20Z</time>
      </trkpt>
      <trkpt lat="44.94737" lon="1.1059">
        <ele>85</ele>
        <time>2014-08-18T11:12:23Z</time>
      </trkpt>
      <trkpt lat="44.9474" lon="1.10588">
        <ele>86</ele>
        <time>2014-08-18T11:12:25Z</time>
      </trkpt>
      <trkpt lat="44.94743" lon="1.10586">
        <ele>87</ele>
        <time>2014-08-18T11:12:27Z</time>
      </trkpt>
      <trkpt lat="44.94748" lon="1.10584">
        <ele>88</ele>
        <time>2014-08-18T11:12:30Z</time>
      </trkpt>
      <trkpt lat="44.94752" lon="1.10583">
        <ele>88</ele>
        <time>2014-08-18T11:12:32Z</time>
      </trkpt>
      <trkpt lat="44.94756" lon="1.10582">
        <ele>89</ele>
        <time>2014-08-18T11:12:34Z</time>
      </trkpt>
      <trkpt lat="44.94759" lon="1.1058">
        <ele>90</ele>
        <time>2014-08-18T11:12:36Z</time>
      </trkpt>
      <trkpt lat="44.94762" lon="1.10579">
        <ele>90</ele>
        <time>2014-08-18T11:12:38Z</time>
      </trkpt>
      <trkpt lat="44.94766" lon="1.10577">
        <ele>91</ele>
        <time>2014-08-18T11:12:40Z</time>
      </trkpt>
      <trkpt lat="44.94769" lon="1.10575">
        <ele>92</ele>
        <time>2014-08-18T11:12:42Z</time>
      </trkpt>
      <trkpt lat="44.94775" lon="1.10575">
        <ele>92</ele>
        <time>2014-08-18T11:12:45Z</time>
      </trkpt>
      <trkpt lat="44.94779" lon="1.10574">
        <ele>93</ele>
        <time>2014-08-18T11:12:47Z</time>
      </trkpt>
      <trkpt lat="44.94783" lon="1.10573">
        <ele>93</ele>
        <time>2014-08-18T11:12:49Z</time>
      </trkpt>
      <trkpt lat="44.94788" lon="1.10571">
        <ele>94</ele>
        <time>2014-08-18T11:12:51Z</time>
      </trkpt>
      <trkpt lat="44.94791" lon="1.1057">
        <ele>95</ele>
        <time>2014-08-18T11:12:53Z</time>
      </trkpt>
      <trkpt lat="44.94795" lon="1.10567">
        <ele>95</ele>
        <time>2014-08-18T11:12:55Z</time>
      </trkpt>
      <trkpt lat="44.94799" lon="1.10565">
        <ele>96</ele>
        <time>2014-08-18T11:12:57Z</time>
      </trkpt>
      <trkpt lat="44.94804" lon="1.1056">
        <ele>97</ele>
        <time>2014-08-18T11:13:00Z</time>
      </trkpt>
      <trkpt lat="44.94806" lon="1.10553">
        <ele>97</ele>
        <time>2014-08-18T11:13:03Z</time>
      </trkpt>
      <trkpt lat="44.94806" lon="1.10549">
        <ele>98</ele>
        <time>2014-08-18T11:13:05Z</time>
      </trkpt>
      <trkpt lat="44.94807" lon="1.10545">
        <ele>98</ele>
        <time>2014-08-18T11:13:08Z</time>
      </trkpt>
      <trkpt lat="44.94807" lon="1.10542">
        <ele>99</ele>
        <time>2014-08-18T11:13:10Z</time>
      </trkpt>
      <trkpt lat="44.94807" lon="1.1054">
        <ele>100</ele>
        <time>2014-08-18T11:13:12Z</time>
      </trkpt>
      <trkpt lat="44.9481" lon="1.10539">
        <ele>100</ele>
        <time>2014-08-18T11:13:15Z</time>
      </trkpt>
      <trkpt lat="44.94814" lon="1.1054">
        <ele>101</ele>
        <time>2014-08-18T11:13:17Z</time>
      </trkpt>
      <trkpt lat="44.94819" lon="1.10543">
        <ele>101</ele>
        <time>2014-08-18T11:13:19Z</time>
      </trkpt>
      <trkpt lat="44.94824" lon="1.10546">
        <ele>100</ele>
        <time>2014-08-18T11:13:21Z</time>
      </trkpt>
      <trkpt lat="44.94827" lon="1.1055">
        <ele>100</ele>
        <time>2014-08-18T11:13:23Z</time>
      </trkpt>
      <trkpt lat="44.94828" lon="1.10556">
        <ele>100</ele>
        <time>2014-08-18T11:13:25Z</time>
      </trkpt>
      <trkpt lat="44.94825" lon="1.10562">
        <ele>100</ele>
        <time>2014-08-18T11:13:27Z</time>
      </trkpt>
      <trkpt lat="44.94821" lon="1.10565">
        <ele>100</ele>
        <time>2014-08-18T11:13:29Z</time>
      </trkpt>
      <trkpt lat="44.94815" lon="1.10568">
        <ele>100</ele>
        <time>2014-08-18T11:13:32Z</time>
      </trkpt>
      <trkpt lat="44.94814" lon="1.10571">
        <ele>100</ele>
        <time>2014-08-18T11:13:34Z</time>
      </trkpt>
      <trkpt lat="44.94816" lon="1.1057">
        <ele>101</ele>
        <time>2014-08-18T11:13:36Z</time>
      </trkpt>
      <trkpt lat="44.94818" lon="1.1057">
        <ele>101</ele>
        <time>2014-08-18T11:13:38Z</time>
      </trkpt>
      <trkpt lat="44.9482" lon="1.1057">
        <ele>102</ele>
        <time>2014-08-18T11:13:40Z</time>
      </trkpt>
      <trkpt lat="44.94823" lon="1.10571">
        <ele>102</ele>
        <time>2014-08-18T11:13:42Z</time>
      </trkpt>
      <trkpt lat="44.94825" lon="1.10572">
        <ele>103</ele>
        <time>2014-08-18T11:13:44Z</time>
      </trkpt>
      <trkpt lat="44.94828" lon="1.10572">
        <ele>104</ele>
        <time>2014-08-18T11:13:46Z</time>
      </trkpt>
      <trkpt lat="44.94831" lon="1.10574">
        <ele>105</ele>
        <time>2014-08-18T11:13:49Z</time>
      </trkpt>
      <trkpt lat="44.94833" lon="1.10574">
        <ele>105</ele>
        <time>2014-08-18T11:13:51Z</time>
      </trkpt>
      <trkpt lat="44.94836" lon="1.10574">
        <ele>106</ele>
        <time>2014-08-18T11:13:53Z</time>
      </trkpt>
      <trkpt lat="44.9484" lon="1.10576">
        <ele>107</ele>
        <time>2014-08-18T11:13:56Z</time>
      </trkpt>
      <trkpt lat="44.94843" lon="1.10576">
        <ele>107</ele>
        <time>2014-08-18T11:13:58Z</time>
      </trkpt>
      <trkpt lat="44.9485" lon="1.10579">
        <ele>107</ele>
        <time>2014-08-18T11:14:01Z</time>
      </trkpt>
      <trkpt lat="44.94854" lon="1.10583">
        <ele>108</ele>
        <time>2014-08-18T11:14:03Z</time>
      </trkpt>
      <trkpt lat="44.94861" lon="1.10586">
        <ele>108</ele>
        <time>2014-08-18T11:14:06Z</time>
      </trkpt>
      <trkpt lat="44.94868" lon="1.10588">
        <ele>109</ele>
        <time>2014-08-18T11:14:09Z</time>
      </trkpt>
      <trkpt lat="44.94872" lon="1.1059">
        <ele>110</ele>
        <time>2014-08-18T11:14:11Z</time>
      </trkpt>
      <trkpt lat="44.94876" lon="1.10592">
        <ele>111</ele>
        <time>2014-08-18T11:14:13Z</time>
      </trkpt>
      <trkpt lat="44.9488" lon="1.10593">
        <ele>111</ele>
        <time>2014-08-18T11:14:15Z</time>
      </trkpt>
      <trkpt lat="44.94884" lon="1.10593">
        <ele>112</ele>
        <time>2014-08-18T11:14:17Z</time>
      </trkpt>
      <trkpt lat="44.94887" lon="1.10594">
        <ele>112</ele>
        <time>2014-08-18T11:14:19Z</time>
      </trkpt>
      <trkpt lat="44.94894" lon="1.10597">
        <ele>113</ele>
        <time>2014-08-18T11:14:22Z</time>
      </trkpt>
      <trkpt lat="44.94898" lon="1.10599">
        <ele>113</ele>
        <time>2014-08-18T11:14:24Z</time>
      </trkpt>
      <trkpt lat="44.94903" lon="1.106">
        <ele>114</ele>
        <time>2014-08-18T11:14:26Z</time>
      </trkpt>
      <trkpt lat="44.94909" lon="1.106">
        <ele>114</ele>
        <time>2014-08-18T11:14:28Z</time>
      </trkpt>
      <trkpt lat="44.94915" lon="1.106">
        <ele>114</ele>
        <time>2014-08-18T11:14:30Z</time>
      </trkpt>
      <trkpt lat="44.94921" lon="1.106">
        <ele>114</ele>
        <time>2014-08-18T11:14:32Z</time>
      </trkpt>
      <trkpt lat="44.94926" lon="1.10599">
        <ele>114</ele>
        <time>2014-08-18T11:14:34Z</time>
      </trkpt>
      <trkpt lat="44.94932" lon="1.106">
        <ele>115</ele>
        <time>2014-08-18T11:14:36Z</time>
      </trkpt>
      <trkpt lat="44.94938" lon="1.10601">
        <ele>115</ele>
        <time>2014-08-18T11:14:38Z</time>
      </trkpt>
      <trkpt lat="44.94944" lon="1.10601">
        <ele>115</ele>
        <time>2014-08-18T11:14:40Z</time>
      </trkpt>
      <trkpt lat="44.94951" lon="1.10602">
        <ele>115</ele>
        <time>2014-08-18T11:14:42Z</time>
      </trkpt>
      <trkpt lat="44.9496" lon="1.10602">
        <ele>116</ele>
        <time>2014-08-18T11:14:45Z</time>
      </trkpt>
      <trkpt lat="44.94969" lon="1.10596">
        <ele>117</ele>
        <time>2014-08-18T11:14:48Z</time>
      </trkpt>
      <trkpt lat="44.94978" lon="1.10591">
        <ele>117</ele>
        <time>2014-08-18T11:14:51Z</time>
      </trkpt>
      <trkpt lat="44.94984" lon="1.10589">
        <ele>118</ele>
        <time>2014-08-18T11:14:53Z</time>
      </trkpt>
      <trkpt lat="44.9499" lon="1.10584">
        <ele>118</ele>
        <time>2014-08-18T11:14:55Z</time>
      </trkpt>
      <trkpt lat="44.94997" lon="1.10579">
        <ele>119</ele>
        <time>2014-08-18T11:14:57Z</time>
      </trkpt>
      <trkpt lat="44.95004" lon="1.10577">
        <ele>120</ele>
        <time>2014-08-18T11:14:59Z</time>
      </trkpt>
      <trkpt lat="44.95012" lon="1.10573">
        <ele>120</ele>
        <time>2014-08-18T11:15:01Z</time>
      </trkpt>
      <trkpt lat="44.95018" lon="1.10571">
        <ele>121</ele>
        <time>2014-08-18T11:15:03Z</time>
      </trkpt>
      <trkpt lat="44.95024" lon="1.10567">
        <ele>121</ele>
        <time>2014-08-18T11:15:05Z</time>
      </trkpt>
      <trkpt lat="44.95034" lon="1.10559">
        <ele>121</ele>
        <time>2014-08-18T11:15:08Z</time>
      </trkpt>
      <trkpt lat="44.95041" lon="1.10555">
        <ele>121</ele>
        <time>2014-08-18T11:15:10Z</time>
      </trkpt>
      <trkpt lat="44.95049" lon="1.10552">
        <ele>122</ele>
        <time>2014-08-18T11:15:12Z</time>
      </trkpt>
      <trkpt lat="44.95057" lon="1.10549">
        <ele>122</ele>
        <time>2014-08-18T11:15:14Z</time>
      </trkpt>
      <trkpt lat="44.95067" lon="1.10546">
        <ele>123</ele>
        <time>2014-08-18T11:15:17Z</time>
      </trkpt>
      <trkpt lat="44.95077" lon="1.10544">
        <ele>125</ele>
        <time>2014-08-18T11:15:20Z</time>
      </trkpt>
      <trkpt lat="44.95088" lon="1.1054">
        <ele>125</ele>
        <time>2014-08-18T11:15:23Z</time>
      </trkpt>
      <trkpt lat="44.95094" lon="1.10538">
        <ele>126</ele>
        <time>2014-08-18T11:15:25Z</time>
      </trkpt>
      <trkpt lat="44.95103" lon="1.10535">
        <ele>127</ele>
        <time>2014-08-18T11:15:28Z</time>
      </trkpt>
      <trkpt lat="44.9511" lon="1.10531">
        <ele>127</ele>
        <time>2014-08-18T11:15:30Z</time>
      </trkpt>
      <trkpt lat="44.95119" lon="1.10528">
        <ele>128</ele>
        <time>2014-08-18T11:15:33Z</time>
      </trkpt>
      <trkpt lat="44.95125" lon="1.10526">
        <ele>128</ele>
        <time>2014-08-18T11:15:35Z</time>
      </trkpt>
      <trkpt lat="44.95134" lon="1.10522">
        <ele>129</ele>
        <time>2014-08-18T11:15:38Z</time>
      </trkpt>
      <trkpt lat="44.95143" lon="1.10521">
        <ele>129</ele>
        <time>2014-08-18T11:15:41Z</time>
      </trkpt>
      <trkpt lat="44.95149" lon="1.10519">
        <ele>130</ele>
        <time>2014-08-18T11:15:43Z</time>
      </trkpt>
      <trkpt lat="44.95158" lon="1.10514">
        <ele>130</ele>
        <time>2014-08-18T11:15:46Z</time>
      </trkpt>
      <trkpt lat="44.95166" lon="1.10511">
        <ele>131</ele>
        <time>2014-08-18T11:15:48Z</time>
      </trkpt>
      <trkpt lat="44.95179" lon="1.10508">
        <ele>131</ele>
        <time>2014-08-18T11:15:51Z</time>
      </trkpt>
      <trkpt lat="44.95187" lon="1.10506">
        <ele>131</ele>
        <time>2014-08-18T11:15:53Z</time>
      </trkpt>
      <trkpt lat="44.95195" lon="1.10505">
        <ele>131</ele>
        <time>2014-08-18T11:15:55Z</time>
      </trkpt>
      <trkpt lat="44.95207" lon="1.10504">
        <ele>132</ele>
        <time>2014-08-18T11:15:58Z</time>
      </trkpt>
      <trkpt lat="44.95215" lon="1.10505">
        <ele>132</ele>
        <time>2014-08-18T11:16:00Z</time>
      </trkpt>
      <trkpt lat="44.95226" lon="1.10505">
        <ele>133</ele>
        <time>2014-08-18T11:16:03Z</time>
      </trkpt>
      <trkpt lat="44.95234" lon="1.10506">
        <ele>134</ele>
        <time>2014-08-18T11:16:05Z</time>
      </trkpt>
      <trkpt lat="44.95245" lon="1.10508">
        <ele>135</ele>
        <time>2014-08-18T11:16:08Z</time>
      </trkpt>
      <trkpt lat="44.95252" lon="1.10509">
        <ele>135</ele>
        <time>2014-08-18T11:16:10Z</time>
      </trkpt>
      <trkpt lat="44.95258" lon="1.10511">
        <ele>135</ele>
        <time>2014-08-18T11:16:12Z</time>
      </trkpt>
      <trkpt lat="44.95267" lon="1.10513">
        <ele>136</ele>
        <time>2014-08-18T11:16:15Z</time>
      </trkpt>
      <trkpt lat="44.95273" lon="1.10515">
        <ele>136</ele>
        <time>2014-08-18T11:16:17Z</time>
      </trkpt>
      <trkpt lat="44.95279" lon="1.10517">
        <ele>137</ele>
        <time>2014-08-18T11:16:19Z</time>
      </trkpt>
      <trkpt lat="44.95283" lon="1.10518">
        <ele>138</ele>
        <time>2014-08-18T11:16:21Z</time>
      </trkpt>
      <trkpt lat="44.95288" lon="1.10522">
        <ele>138</ele>
        <time>2014-08-18T11:16:24Z</time>
      </trkpt>
      <trkpt lat="44.95292" lon="1.10525">
        <ele>138</ele>
        <time>2014-08-18T11:16:26Z</time>
      </trkpt>
      <trkpt lat="44.95298" lon="1.10525">
        <ele>139</ele>
        <time>2014-08-18T11:16:28Z</time>
      </trkpt>
      <trkpt lat="44.95303" lon="1.10524">
        <ele>139</ele>
        <time>2014-08-18T11:16:30Z</time>
      </trkpt>
      <trkpt lat="44.95309" lon="1.1052">
        <ele>139</ele>
        <time>2014-08-18T11:16:33Z</time>
      </trkpt>
      <trkpt lat="44.95315" lon="1.10517">
        <ele>139</ele>
        <time>2014-08-18T11:16:35Z</time>
      </trkpt>
      <trkpt lat="44.95322" lon="1.10513">
        <ele>139</ele>
        <time>2014-08-18T11:16:37Z</time>
      </trkpt>
      <trkpt lat="44.95332" lon="1.10506">
        <ele>139</ele>
        <time>2014-08-18T11:16:40Z</time>
      </trkpt>
      <trkpt lat="44.95337" lon="1.10503">
        <ele>139</ele>
        <time>2014-08-18T11:16:42Z</time>
      </trkpt>
      <trkpt lat="44.95342" lon="1.10499">
        <ele>140</ele>
        <time>2014-08-18T11:16:44Z</time>
      </trkpt>
      <trkpt lat="44.95349" lon="1.10493">
        <ele>140</ele>
        <time>2014-08-18T11:16:46Z</time>
      </trkpt>
      <trkpt lat="44.95359" lon="1.10481">
        <ele>140</ele>
        <time>2014-08-18T11:16:49Z</time>
      </trkpt>
      <trkpt lat="44.95366" lon="1.10475">
        <ele>141</ele>
        <time>2014-08-18T11:16:51Z</time>
      </trkpt>
      <trkpt lat="44.95372" lon="1.10469">
        <ele>141</ele>
        <time>2014-08-18T11:16:53Z</time>
      </trkpt>
      <trkpt lat="44.95381" lon="1.10457">
        <ele>142</ele>
        <time>2014-08-18T11:16:56Z</time>
      </trkpt>
      <trkpt lat="44.95387" lon="1.1045">
        <ele>142</ele>
        <time>2014-08-18T11:16:58Z</time>
      </trkpt>
      <trkpt lat="44.95391" lon="1.10444">
        <ele>142</ele>
        <time>2014-08-18T11:17:00Z</time>
      </trkpt>
      <trkpt lat="44.95395" lon="1.10438">
        <ele>143</ele>
        <time>2014-08-18T11:17:02Z</time>
      </trkpt>
      <trkpt lat="44.95398" lon="1.10434">
        <ele>143</ele>
        <time>2014-08-18T11:17:04Z</time>
      </trkpt>
      <trkpt lat="44.95403" lon="1.10432">
        <ele>144</ele>
        <time>2014-08-18T11:17:06Z</time>
      </trkpt>
      <trkpt lat="44.95408" lon="1.10433">
        <ele>144</ele>
        <time>2014-08-18T11:17:08Z</time>
      </trkpt>
      <trkpt lat="44.95413" lon="1.10434">
        <ele>145</ele>
        <time>2014-08-18T11:17:10Z</time>
      </trkpt>
      <trkpt lat="44.95417" lon="1.10437">
        <ele>145</ele>
        <time>2014-08-18T11:17:12Z</time>
      </trkpt>
      <trkpt lat="44.95426" lon="1.10442">
        <ele>145</ele>
        <time>2014-08-18T11:17:15Z</time>
      </trkpt>
      <trkpt lat="44.95432" lon="1.10447">
        <ele>146</ele>
        <time>2014-08-18T11:17:17Z</time>
      </trkpt>
      <trkpt lat="44.9544" lon="1.10454">
        <ele>147</ele>
        <time>2014-08-18T11:17:20Z</time>
      </trkpt>
      <trkpt lat="44.95449" lon="1.10462">
        <ele>147</ele>
        <time>2014-08-18T11:17:23Z</time>
      </trkpt>
      <trkpt lat="44.95456" lon="1.1047">
        <ele>148</ele>
        <time>2014-08-18T11:17:26Z</time>
      </trkpt>
      <trkpt lat="44.95464" lon="1.10477">
        <ele>149</ele>
        <time>2014-08-18T11:17:29Z</time>
      </trkpt>
      <trkpt lat="44.95469" lon="1.10484">
        <ele>150</ele>
        <time>2014-08-18T11:17:31Z</time>
      </trkpt>
      <trkpt lat="44.95475" lon="1.10491">
        <ele>150</ele>
        <time>2014-08-18T11:17:33Z</time>
      </trkpt>
      <trkpt lat="44.95487" lon="1.105">
        <ele>150</ele>
        <time>2014-08-18T11:17:36Z</time>
      </trkpt>
      <trkpt lat="44.95497" lon="1.10505">
        <ele>150</ele>
        <time>2014-08-18T11:17:38Z</time>
      </trkpt>
      <trkpt lat="44.95507" lon="1.10508">
        <ele>151</ele>
        <time>2014-08-18T11:17:40Z</time>
      </trkpt>
      <trkpt lat="44.95517" lon="1.10511">
        <ele>151</ele>
        <time>2014-08-18T11:17:42Z</time>
      </trkpt>
      <trkpt lat="44.9553" lon="1.10514">
        <ele>152</ele>
        <time>2014-08-18T11:17:45Z</time>
      </trkpt>
      <trkpt lat="44.95544" lon="1.10519">
        <ele>152</ele>
        <time>2014-08-18T11:17:48Z</time>
      </trkpt>
      <trkpt lat="44.95553" lon="1.10522">
        <ele>153</ele>
        <time>2014-08-18T11:17:50Z</time>
      </trkpt>
      <trkpt lat="44.95562" lon="1.10526">
        <ele>154</ele>
        <time>2014-08-18T11:17:52Z</time>
      </trkpt>
      <trkpt lat="44.95575" lon="1.1053">
        <ele>155</ele>
        <time>2014-08-18T11:17:55Z</time>
      </trkpt>
      <trkpt lat="44.95585" lon="1.10532">
        <ele>156</ele>
        <time>2014-08-18T11:17:58Z</time>
      </trkpt>
      <trkpt lat="44.95593" lon="1.10535">
        <ele>158</ele>
        <time>2014-08-18T11:18:01Z</time>
      </trkpt>
      <trkpt lat="44.95599" lon="1.10537">
        <ele>158</ele>
        <time>2014-08-18T11:18:03Z</time>
      </trkpt>
      <trkpt lat="44.95607" lon="1.10541">
        <ele>160</ele>
        <time>2014-08-18T11:18:06Z</time>
      </trkpt>
      <trkpt lat="44.95611" lon="1.10545">
        <ele>160</ele>
        <time>2014-08-18T11:18:08Z</time>
      </trkpt>
      <trkpt lat="44.95616" lon="1.10549">
        <ele>161</ele>
        <time>2014-08-18T11:18:11Z</time>
      </trkpt>
      <trkpt lat="44.9562" lon="1.10554">
        <ele>162</ele>
        <time>2014-08-18T11:18:14Z</time>
      </trkpt>
      <trkpt lat="44.95623" lon="1.10557">
        <ele>162</ele>
        <time>2014-08-18T11:18:16Z</time>
      </trkpt>
      <trkpt lat="44.95628" lon="1.1056">
        <ele>163</ele>
        <time>2014-08-18T11:18:19Z</time>
      </trkpt>
      <trkpt lat="44.9563" lon="1.1056">
        <ele>164</ele>
        <time>2014-08-18T11:18:21Z</time>
      </trkpt>
      <trkpt lat="44.95633" lon="1.10559">
        <ele>165</ele>
        <time>2014-08-18T11:18:23Z</time>
      </trkpt>
      <trkpt lat="44.95635" lon="1.10557">
        <ele>165</ele>
        <time>2014-08-18T11:18:25Z</time>
      </trkpt>
      <trkpt lat="44.95636" lon="1.10555">
        <ele>164</ele>
        <time>2014-08-18T11:18:27Z</time>
      </trkpt>
      <trkpt lat="44.95636" lon="1.10555">
        <ele>164</ele>
        <time>2014-08-18T11:18:30Z</time>
      </trkpt>
      <trkpt lat="44.9565" lon="1.10511">
        <ele>166</ele>
        <time>2014-08-18T11:18:32Z</time>
      </trkpt>
      <trkpt lat="44.95651" lon="1.10507">
        <ele>166</ele>
        <time>2014-08-18T11:18:34Z</time>
      </trkpt>
      <trkpt lat="44.95652" lon="1.10502">
        <ele>166</ele>
        <time>2014-08-18T11:18:36Z</time>
      </trkpt>
      <trkpt lat="44.95653" lon="1.10497">
        <ele>166</ele>
        <time>2014-08-18T11:18:38Z</time>
      </trkpt>
      <trkpt lat="44.95654" lon="1.10492">
        <ele>167</ele>
        <time>2014-08-18T11:18:40Z</time>
      </trkpt>
      <trkpt lat="44.95657" lon="1.10481">
        <ele>167</ele>
        <time>2014-08-18T11:18:43Z</time>
      </trkpt>
      <trkpt lat="44.95659" lon="1.10474">
        <ele>167</ele>
        <time>2014-08-18T11:18:45Z</time>
      </trkpt>
      <trkpt lat="44.95663" lon="1.10463">
        <ele>168</ele>
        <time>2014-08-18T11:18:48Z</time>
      </trkpt>
      <trkpt lat="44.95668" lon="1.10449">
        <ele>168</ele>
        <time>2014-08-18T11:18:51Z</time>
      </trkpt>
      <trkpt lat="44.95672" lon="1.10438">
        <ele>169</ele>
        <time>2014-08-18T11:18:53Z</time>
      </trkpt>
      <trkpt lat="44.95679" lon="1.1042">
        <ele>170</ele>
        <time>2014-08-18T11:18:56Z</time>
      </trkpt>
      <trkpt lat="44.95683" lon="1.10407">
        <ele>170</ele>
        <time>2014-08-18T11:18:58Z</time>
      </trkpt>
      <trkpt lat="44.95689" lon="1.10389">
        <ele>171</ele>
        <time>2014-08-18T11:19:01Z</time>
      </trkpt>
      <trkpt lat="44.95693" lon="1.10377">
        <ele>171</ele>
        <time>2014-08-18T11:19:03Z</time>
      </trkpt>
      <trkpt lat="44.95696" lon="1.10364">
        <ele>172</ele>
        <time>2014-08-18T11:19:05Z</time>
      </trkpt>
      <trkpt lat="44.95699" lon="1.10353">
        <ele>172</ele>
        <time>2014-08-18T11:19:07Z</time>
      </trkpt>
      <trkpt lat="44.95702" lon="1.1034">
        <ele>173</ele>
        <time>2014-08-18T11:19:09Z</time>
      </trkpt>
      <trkpt lat="44.95705" lon="1.10329">
        <ele>173</ele>
        <time>2014-08-18T11:19:11Z</time>
      </trkpt>
      <trkpt lat="44.95708" lon="1.10312">
        <ele>173</ele>
        <time>2014-08-18T11:19:14Z</time>
      </trkpt>
      <trkpt lat="44.9571" lon="1.10296">
        <ele>173</ele>
        <time>2014-08-18T11:19:17Z</time>
      </trkpt>
      <trkpt lat="44.95711" lon="1.10278">
        <ele>174</ele>
        <time>2014-08-18T11:19:20Z</time>
      </trkpt>
      <trkpt lat="44.95712" lon="1.10266">
        <ele>175</ele>
        <time>2014-08-18T11:19:22Z</time>
      </trkpt>
      <trkpt lat="44.95712" lon="1.10254">
        <ele>175</ele>
        <time>2014-08-18T11:19:24Z</time>
      </trkpt>
      <trkpt lat="44.95713" lon="1.10241">
        <ele>175</ele>
        <time>2014-08-18T11:19:26Z</time>
      </trkpt>
      <trkpt lat="44.95714" lon="1.1023">
        <ele>176</ele>
        <time>2014-08-18T11:19:28Z</time>
      </trkpt>
      <trkpt lat="44.95716" lon="1.10219">
        <ele>176</ele>
        <time>2014-08-18T11:19:30Z</time>
      </trkpt>
      <trkpt lat="44.95717" lon="1.10211">
        <ele>176</ele>
        <time>2014-08-18T11:19:32Z</time>
      </trkpt>
      <trkpt lat="44.9572" lon="1.10203">
        <ele>177</ele>
        <time>2014-08-18T11:19:34Z</time>
      </trkpt>
      <trkpt lat="44.95725" lon="1.10199">
        <ele>177</ele>
        <time>2014-08-18T11:19:36Z</time>
      </trkpt>
      <trkpt lat="44.95732" lon="1.10201">
        <ele>178</ele>
        <time>2014-08-18T11:19:39Z</time>
      </trkpt>
      <trkpt lat="44.95737" lon="1.10205">
        <ele>178</ele>
        <time>2014-08-18T11:19:41Z</time>
      </trkpt>
      <trkpt lat="44.95741" lon="1.10208">
        <ele>179</ele>
        <time>2014-08-18T11:19:43Z</time>
      </trkpt>
      <trkpt lat="44.95747" lon="1.10213">
        <ele>180</ele>
        <time>2014-08-18T11:19:46Z</time>
      </trkpt>
      <trkpt lat="44.95751" lon="1.10218">
        <ele>181</ele>
        <time>2014-08-18T11:19:48Z</time>
      </trkpt>
      <trkpt lat="44.95758" lon="1.10225">
        <ele>181</ele>
        <time>2014-08-18T11:19:50Z</time>
      </trkpt>
      <trkpt lat="44.95765" lon="1.10231">
        <ele>182</ele>
        <time>2014-08-18T11:19:52Z</time>
      </trkpt>
      <trkpt lat="44.95772" lon="1.10239">
        <ele>183</ele>
        <time>2014-08-18T11:19:54Z</time>
      </trkpt>
      <trkpt lat="44.95779" lon="1.10246">
        <ele>183</ele>
        <time>2014-08-18T11:19:56Z</time>
      </trkpt>
      <trkpt lat="44.95786" lon="1.10253">
        <ele>183</ele>
        <time>2014-08-18T11:19:58Z</time>
      </trkpt>
      <trkpt lat="44.95793" lon="1.10261">
        <ele>184</ele>
        <time>2014-08-18T11:20:00Z</time>
      </trkpt>
      <trkpt lat="44.958" lon="1.10268">
        <ele>185</ele>
        <time>2014-08-18T11:20:02Z</time>
      </trkpt>
      <trkpt lat="44.95809" lon="1.10279">
        <ele>185</ele>
        <time>2014-08-18T11:20:05Z</time>
      </trkpt>
      <trkpt lat="44.95816" lon="1.10286">
        <ele>186</ele>
        <time>2014-08-18T11:20:07Z</time>
      </trkpt>
      <trkpt lat="44.95822" lon="1.10294">
        <ele>187</ele>
        <time>2014-08-18T11:20:09Z</time>
      </trkpt>
      <trkpt lat="44.95829" lon="1.10301">
        <ele>187</ele>
        <time>2014-08-18T11:20:11Z</time>
      </trkpt>
      <trkpt lat="44.95835" lon="1.10309">
        <ele>188</ele>
        <time>2014-08-18T11:20:13Z</time>
      </trkpt>
      <trkpt lat="44.95842" lon="1.10317">
        <ele>188</ele>
        <time>2014-08-18T11:20:15Z</time>
      </trkpt>
      <trkpt lat="44.95849" lon="1.10326">
        <ele>188</ele>
        <time>2014-08-18T11:20:17Z</time>
      </trkpt>
      <trkpt lat="44.95857" lon="1.10335">
        <ele>188</ele>
        <time>2014-08-18T11:20:19Z</time>
      </trkpt>
      <trkpt lat="44.95866" lon="1.10345">
        <ele>188</ele>
        <time>2014-08-18T11:20:21Z</time>
      </trkpt>
      <trkpt lat="44.95874" lon="1.10354">
        <ele>188</ele>
        <time>2014-08-18T11:20:23Z</time>
      </trkpt>
      <trkpt lat="44.95882" lon="1.10364">
        <ele>188</ele>
        <time>2014-08-18T11:20:25Z</time>
      </trkpt>
      <trkpt lat="44.9589" lon="1.10374">
        <ele>187</ele>
        <time>2014-08-18T11:20:27Z</time>
      </trkpt>
      <trkpt lat="44.95899" lon="1.10383">
        <ele>187</ele>
        <time>2014-08-18T11:20:29Z</time>
      </trkpt>
      <trkpt lat="44.95911" lon="1.10398">
        <ele>187</ele>
        <time>2014-08-18T11:20:32Z</time>
      </trkpt>
      <trkpt lat="44.95919" lon="1.10407">
        <ele>187</ele>
        <time>2014-08-18T11:20:34Z</time>
      </trkpt>
      <trkpt lat="44.95927" lon="1.10415">
        <ele>188</ele>
        <time>2014-08-18T11:20:36Z</time>
      </trkpt>
      <trkpt lat="44.95935" lon="1.10422">
        <ele>188</ele>
        <time>2014-08-18T11:20:38Z</time>
      </trkpt>
      <trkpt lat="44.95944" lon="1.10429">
        <ele>188</ele>
        <time>2014-08-18T11:20:40Z</time>
      </trkpt>
      <trkpt lat="44.95953" lon="1.10434">
        <ele>188</ele>
        <time>2014-08-18T11:20:42Z</time>
      </trkpt>
      <trkpt lat="44.95962" lon="1.10439">
        <ele>188</ele>
        <time>2014-08-18T11:20:44Z</time>
      </trkpt>
      <trkpt lat="44.95972" lon="1.10443">
        <ele>189</ele>
        <time>2014-08-18T11:20:46Z</time>
      </trkpt>
      <trkpt lat="44.95981" lon="1.10447">
        <ele>189</ele>
        <time>2014-08-18T11:20:48Z</time>
      </trkpt>
      <trkpt lat="44.9599" lon="1.10451">
        <ele>189</ele>
        <time>2014-08-18T11:20:50Z</time>
      </trkpt>
      <trkpt lat="44.95999" lon="1.10453">
        <ele>189</ele>
        <time>2014-08-18T11:20:52Z</time>
      </trkpt>
      <trkpt lat="44.96008" lon="1.10457">
        <ele>190</ele>
        <time>2014-08-18T11:20:54Z</time>
      </trkpt>
      <trkpt lat="44.96021" lon="1.10461">
        <ele>190</ele>
        <time>2014-08-18T11:20:57Z</time>
      </trkpt>
      <trkpt lat="44.9603" lon="1.10465">
        <ele>191</ele>
        <time>2014-08-18T11:20:59Z</time>
      </trkpt>
      <trkpt lat="44.96038" lon="1.10468">
        <ele>192</ele>
        <time>2014-08-18T11:21:01Z</time>
      </trkpt>
      <trkpt lat="44.96045" lon="1.10472">
        <ele>193</ele>
        <time>2014-08-18T11:21:03Z</time>
      </trkpt>
      <trkpt lat="44.96057" lon="1.10477">
        <ele>193</ele>
        <time>2014-08-18T11:21:06Z</time>
      </trkpt>
      <trkpt lat="44.96065" lon="1.10479">
        <ele>193</ele>
        <time>2014-08-18T11:21:08Z</time>
      </trkpt>
      <trkpt lat="44.96073" lon="1.10482">
        <ele>194</ele>
        <time>2014-08-18T11:21:10Z</time>
      </trkpt>
      <trkpt lat="44.96082" lon="1.10485">
        <ele>194</ele>
        <time>2014-08-18T11:21:12Z</time>
      </trkpt>
      <trkpt lat="44.9609" lon="1.10488">
        <ele>195</ele>
        <time>2014-08-18T11:21:14Z</time>
      </trkpt>
      <trkpt lat="44.96099" lon="1.10491">
        <ele>195</ele>
        <time>2014-08-18T11:21:16Z</time>
      </trkpt>
      <trkpt lat="44.96107" lon="1.10493">
        <ele>196</ele>
        <time>2014-08-18T11:21:18Z</time>
      </trkpt>
      <trkpt lat="44.96115" lon="1.10495">
        <ele>196</ele>
        <time>2014-08-18T11:21:20Z</time>
      </trkpt>
      <trkpt lat="44.96127" lon="1.10501">
        <ele>197</ele>
        <time>2014-08-18T11:21:23Z</time>
      </trkpt>
      <trkpt lat="44.96137" lon="1.10515">
        <ele>197</ele>
        <time>2014-08-18T11:21:26Z</time>
      </trkpt>
      <trkpt lat="44.96145" lon="1.10524">
        <ele>197</ele>
        <time>2014-08-18T11:21:28Z</time>
      </trkpt>
      <trkpt lat="44.96155" lon="1.1053">
        <ele>197</ele>
        <time>2014-08-18T11:21:30Z</time>
      </trkpt>
      <trkpt lat="44.96169" lon="1.10535">
        <ele>197</ele>
        <time>2014-08-18T11:21:32Z</time>
      </trkpt>
      <trkpt lat="44.9618" lon="1.1054">
        <ele>196</ele>
        <time>2014-08-18T11:21:34Z</time>
      </trkpt>
      <trkpt lat="44.96191" lon="1.10548">
        <ele>196</ele>
        <time>2014-08-18T11:21:36Z</time>
      </trkpt>
      <trkpt lat="44.96202" lon="1.1056">
        <ele>196</ele>
        <time>2014-08-18T11:21:38Z</time>
      </trkpt>
      <trkpt lat="44.96214" lon="1.10571">
        <ele>196</ele>
        <time>2014-08-18T11:21:40Z</time>
      </trkpt>
      <trkpt lat="44.96225" lon="1.10577">
        <ele>196</ele>
        <time>2014-08-18T11:21:42Z</time>
      </trkpt>
      <trkpt lat="44.96238" lon="1.10584">
        <ele>197</ele>
        <time>2014-08-18T11:21:44Z</time>
      </trkpt>
      <trkpt lat="44.96249" lon="1.10588">
        <ele>196</ele>
        <time>2014-08-18T11:21:46Z</time>
      </trkpt>
      <trkpt lat="44.96267" lon="1.10596">
        <ele>196</ele>
        <time>2014-08-18T11:21:49Z</time>
      </trkpt>
      <trkpt lat="44.96287" lon="1.10607">
        <ele>196</ele>
        <time>2014-08-18T11:21:52Z</time>
      </trkpt>
      <trkpt lat="44.963" lon="1.10614">
        <ele>196</ele>
        <time>2014-08-18T11:21:54Z</time>
      </trkpt>
      <trkpt lat="44.96313" lon="1.10621">
        <ele>196</ele>
        <time>2014-08-18T11:21:56Z</time>
      </trkpt>
      <trkpt lat="44.96326" lon="1.10627">
        <ele>196</ele>
        <time>2014-08-18T11:21:58Z</time>
      </trkpt>
      <trkpt lat="44.96339" lon="1.10634">
        <ele>197</ele>
        <time>2014-08-18T11:22:00Z</time>
      </trkpt>
      <trkpt lat="44.96352" lon="1.1064">
        <ele>197</ele>
        <time>2014-08-18T11:22:02Z</time>
      </trkpt>
      <trkpt lat="44.96366" lon="1.10646">
        <ele>197</ele>
        <time>2014-08-18T11:22:04Z</time>
      </trkpt>
      <trkpt lat="44.9638" lon="1.10652">
        <ele>196</ele>
        <time>2014-08-18T11:22:06Z</time>
      </trkpt>
      <trkpt lat="44.96401" lon="1.10664">
        <ele>196</ele>
        <time>2014-08-18T11:22:09Z</time>
      </trkpt>
      <trkpt lat="44.96414" lon="1.10677">
        <ele>195</ele>
        <time>2014-08-18T11:22:11Z</time>
      </trkpt>
      <trkpt lat="44.96422" lon="1.10694">
        <ele>194</ele>
        <time>2014-08-18T11:22:13Z</time>
      </trkpt>
      <trkpt lat="44.96432" lon="1.10716">
        <ele>194</ele>
        <time>2014-08-18T11:22:16Z</time>
      </trkpt>
      <trkpt lat="44.96436" lon="1.10733">
        <ele>193</ele>
        <time>2014-08-18T11:22:18Z</time>
      </trkpt>
      <trkpt lat="44.96438" lon="1.10758">
        <ele>192</ele>
        <time>2014-08-18T11:22:21Z</time>
      </trkpt>
      <trkpt lat="44.96436" lon="1.10776">
        <ele>192</ele>
        <time>2014-08-18T11:22:23Z</time>
      </trkpt>
      <trkpt lat="44.96434" lon="1.10806">
        <ele>190</ele>
        <time>2014-08-18T11:22:26Z</time>
      </trkpt>
      <trkpt lat="44.96437" lon="1.10829">
        <ele>189</ele>
        <time>2014-08-18T11:22:28Z</time>
      </trkpt>
      <trkpt lat="44.96445" lon="1.1085">
        <ele>187</ele>
        <time>2014-08-18T11:22:30Z</time>
      </trkpt>
      <trkpt lat="44.96458" lon="1.10864">
        <ele>185</ele>
        <time>2014-08-18T11:22:32Z</time>
      </trkpt>
      <trkpt lat="44.96481" lon="1.10883">
        <ele>183</ele>
        <time>2014-08-18T11:22:35Z</time>
      </trkpt>
      <trkpt lat="44.96494" lon="1.10897">
        <ele>182</ele>
        <time>2014-08-18T11:22:37Z</time>
      </trkpt>
      <trkpt lat="44.9651" lon="1.10924">
        <ele>181</ele>
        <time>2014-08-18T11:22:40Z</time>
      </trkpt>
      <trkpt lat="44.9652" lon="1.10946">
        <ele>180</ele>
        <time>2014-08-18T11:22:42Z</time>
      </trkpt>
      <trkpt lat="44.96534" lon="1.10964">
        <ele>178</ele>
        <time>2014-08-18T11:22:44Z</time>
      </trkpt>
      <trkpt lat="44.96547" lon="1.10979">
        <ele>176</ele>
        <time>2014-08-18T11:22:46Z</time>
      </trkpt>
      <trkpt lat="44.96555" lon="1.11004">
        <ele>173</ele>
        <time>2014-08-18T11:22:49Z</time>
      </trkpt>
      <trkpt lat="44.9655" lon="1.11023">
        <ele>172</ele>
        <time>2014-08-18T11:22:51Z</time>
      </trkpt>
      <trkpt lat="44.96541" lon="1.11044">
        <ele>170</ele>
        <time>2014-08-18T11:22:53Z</time>
      </trkpt>
      <trkpt lat="44.9653" lon="1.11065">
        <ele>169</ele>
        <time>2014-08-18T11:22:55Z</time>
      </trkpt>
      <trkpt lat="44.96519" lon="1.11084">
        <ele>167</ele>
        <time>2014-08-18T11:22:57Z</time>
      </trkpt>
      <trkpt lat="44.96503" lon="1.1111">
        <ele>166</ele>
        <time>2014-08-18T11:23:00Z</time>
      </trkpt>
      <trkpt lat="44.96492" lon="1.11127">
        <ele>165</ele>
        <time>2014-08-18T11:23:02Z</time>
      </trkpt>
      <trkpt lat="44.96477" lon="1.11153">
        <ele>166</ele>
        <time>2014-08-18T11:23:05Z</time>
      </trkpt>
      <trkpt lat="44.96468" lon="1.1117">
        <ele>166</ele>
        <time>2014-08-18T11:23:07Z</time>
      </trkpt>
      <trkpt lat="44.96459" lon="1.11184">
        <ele>166</ele>
        <time>2014-08-18T11:23:09Z</time>
      </trkpt>
      <trkpt lat="44.9645" lon="1.11196">
        <ele>166</ele>
        <time>2014-08-18T11:23:11Z</time>
      </trkpt>
      <trkpt lat="44.96442" lon="1.11205">
        <ele>165</ele>
        <time>2014-08-18T11:23:13Z</time>
      </trkpt>
      <trkpt lat="44.96433" lon="1.11214">
        <ele>166</ele>
        <time>2014-08-18T11:23:15Z</time>
      </trkpt>
      <trkpt lat="44.96424" lon="1.11223">
        <ele>165</ele>
        <time>2014-08-18T11:23:17Z</time>
      </trkpt>
      <trkpt lat="44.96411" lon="1.11241">
        <ele>165</ele>
        <time>2014-08-18T11:23:20Z</time>
      </trkpt>
      <trkpt lat="44.96402" lon="1.11253">
        <ele>165</ele>
        <time>2014-08-18T11:23:22Z</time>
      </trkpt>
      <trkpt lat="44.9639" lon="1.11267">
        <ele>165</ele>
        <time>2014-08-18T11:23:25Z</time>
      </trkpt>
      <trkpt lat="44.96379" lon="1.11279">
        <ele>165</ele>
        <time>2014-08-18T11:23:28Z</time>
      </trkpt>
      <trkpt lat="44.96374" lon="1.11286">
        <ele>166</ele>
        <time>2014-08-18T11:23:30Z</time>
      </trkpt>
      <trkpt lat="44.96367" lon="1.11295">
        <ele>167</ele>
        <time>2014-08-18T11:23:33Z</time>
      </trkpt>
      <trkpt lat="44.96359" lon="1.11305">
        <ele>168</ele>
        <time>2014-08-18T11:23:36Z</time>
      </trkpt>
      <trkpt lat="44.96354" lon="1.11313">
        <ele>168</ele>
        <time>2014-08-18T11:23:38Z</time>
      </trkpt>
      <trkpt lat="44.96346" lon="1.11328">
        <ele>169</ele>
        <time>2014-08-18T11:23:41Z</time>
      </trkpt>
      <trkpt lat="44.96338" lon="1.1134">
        <ele>169</ele>
        <time>2014-08-18T11:23:44Z</time>
      </trkpt>
      <trkpt lat="44.96334" lon="1.11347">
        <ele>170</ele>
        <time>2014-08-18T11:23:46Z</time>
      </trkpt>
      <trkpt lat="44.96326" lon="1.11359">
        <ele>170</ele>
        <time>2014-08-18T11:23:49Z</time>
      </trkpt>
      <trkpt lat="44.96318" lon="1.11368">
        <ele>170</ele>
        <time>2014-08-18T11:23:51Z</time>
      </trkpt>
      <trkpt lat="44.96305" lon="1.11381">
        <ele>170</ele>
        <time>2014-08-18T11:23:54Z</time>
      </trkpt>
      <trkpt lat="44.96293" lon="1.11393">
        <ele>170</ele>
        <time>2014-08-18T11:23:57Z</time>
      </trkpt>
      <trkpt lat="44.96284" lon="1.114">
        <ele>171</ele>
        <time>2014-08-18T11:23:59Z</time>
      </trkpt>
      <trkpt lat="44.96278" lon="1.11411">
        <ele>171</ele>
        <time>2014-08-18T11:24:01Z</time>
      </trkpt>
      <trkpt lat="44.96268" lon="1.11429">
        <ele>171</ele>
        <time>2014-08-18T11:24:04Z</time>
      </trkpt>
      <trkpt lat="44.96263" lon="1.1144">
        <ele>171</ele>
        <time>2014-08-18T11:24:06Z</time>
      </trkpt>
      <trkpt lat="44.96258" lon="1.11451">
        <ele>172</ele>
        <time>2014-08-18T11:24:08Z</time>
      </trkpt>
      <trkpt lat="44.96251" lon="1.11467">
        <ele>173</ele>
        <time>2014-08-18T11:24:11Z</time>
      </trkpt>
      <trkpt lat="44.96247" lon="1.11476">
        <ele>174</ele>
        <time>2014-08-18T11:24:13Z</time>
      </trkpt>
      <trkpt lat="44.96243" lon="1.11484">
        <ele>174</ele>
        <time>2014-08-18T11:24:15Z</time>
      </trkpt>
      <trkpt lat="44.96239" lon="1.11492">
        <ele>174</ele>
        <time>2014-08-18T11:24:17Z</time>
      </trkpt>
      <trkpt lat="44.96236" lon="1.11501">
        <ele>174</ele>
        <time>2014-08-18T11:24:19Z</time>
      </trkpt>
      <trkpt lat="44.96229" lon="1.11514">
        <ele>174</ele>
        <time>2014-08-18T11:24:22Z</time>
      </trkpt>
      <trkpt lat="44.96224" lon="1.11529">
        <ele>174</ele>
        <time>2014-08-18T11:24:25Z</time>
      </trkpt>
      <trkpt lat="44.96226" lon="1.11549">
        <ele>173</ele>
        <time>2014-08-18T11:24:28Z</time>
      </trkpt>
      <trkpt lat="44.96232" lon="1.11561">
        <ele>173</ele>
        <time>2014-08-18T11:24:30Z</time>
      </trkpt>
      <trkpt lat="44.96238" lon="1.11574">
        <ele>173</ele>
        <time>2014-08-18T11:24:33Z</time>
      </trkpt>
      <trkpt lat="44.96242" lon="1.11581">
        <ele>174</ele>
        <time>2014-08-18T11:24:35Z</time>
      </trkpt>
      <trkpt lat="44.96245" lon="1.11587">
        <ele>174</ele>
        <time>2014-08-18T11:24:37Z</time>
      </trkpt>
      <trkpt lat="44.96247" lon="1.11592">
        <ele>174</ele>
        <time>2014-08-18T11:24:39Z</time>
      </trkpt>
      <trkpt lat="44.96248" lon="1.11596">
        <ele>174</ele>
        <time>2014-08-18T11:24:41Z</time>
      </trkpt>
      <trkpt lat="44.96249" lon="1.11599">
        <ele>174</ele>
        <time>2014-08-18T11:24:44Z</time>
      </trkpt>
      <trkpt lat="44.9625" lon="1.116">
        <ele>174</ele>
        <time>2014-08-18T11:24:46Z</time>
      </trkpt>
      <trkpt lat="44.9625" lon="1.11601">
        <ele>174</ele>
        <time>2014-08-18T11:24:48Z</time>
      </trkpt>
      <trkpt lat="44.9625" lon="1.11602">
        <ele>174</ele>
        <time>2014-08-18T11:24:50Z</time>
      </trkpt>
      <trkpt lat="44.96251" lon="1.11603">
        <ele>174</ele>
        <time>2014-08-18T11:24:52Z</time>
      </trkpt>
      <trkpt lat="44.96256" lon="1.11617">
        <ele>173</ele>
        <time>2014-08-18T11:24:54Z</time>
      </trkpt>
      <trkpt lat="44.96256" lon="1.11617">
        <ele>174</ele>
        <time>2014-08-18T11:24:57Z</time>
      </trkpt>
      <trkpt lat="44.96257" lon="1.11617">
        <ele>174</ele>
        <time>2014-08-18T11:24:59Z</time>
      </trkpt>
      <trkpt lat="44.96258" lon="1.11616">
        <ele>174</ele>
        <time>2014-08-18T11:25:01Z</time>
      </trkpt>
      <trkpt lat="44.96257" lon="1.11613">
        <ele>173</ele>
        <time>2014-08-18T11:25:03Z</time>
      </trkpt>
      <trkpt lat="44.96253" lon="1.11607">
        <ele>174</ele>
        <time>2014-08-18T11:25:06Z</time>
      </trkpt>
      <trkpt lat="44.9625" lon="1.11601">
        <ele>173</ele>
        <time>2014-08-18T11:25:08Z</time>
      </trkpt>
      <trkpt lat="44.96245" lon="1.11594">
        <ele>173</ele>
        <time>2014-08-18T11:25:11Z</time>
      </trkpt>
      <trkpt lat="44.96238" lon="1.1158">
        <ele>173</ele>
        <time>2014-08-18T11:25:13Z</time>
      </trkpt>
      <trkpt lat="44.96238" lon="1.11569">
        <ele>173</ele>
        <time>2014-08-18T11:25:15Z</time>
      </trkpt>
      <trkpt lat="44.96241" lon="1.11553">
        <ele>173</ele>
        <time>2014-08-18T11:25:18Z</time>
      </trkpt>
      <trkpt lat="44.96246" lon="1.11537">
        <ele>173</ele>
        <time>2014-08-18T11:25:21Z</time>
      </trkpt>
      <trkpt lat="44.9625" lon="1.1152">
        <ele>174</ele>
        <time>2014-08-18T11:25:24Z</time>
      </trkpt>
      <trkpt lat="44.96255" lon="1.11502">
        <ele>174</ele>
        <time>2014-08-18T11:25:27Z</time>
      </trkpt>
      <trkpt lat="44.96258" lon="1.11489">
        <ele>174</ele>
        <time>2014-08-18T11:25:29Z</time>
      </trkpt>
      <trkpt lat="44.96264" lon="1.11471">
        <ele>174</ele>
        <time>2014-08-18T11:25:32Z</time>
      </trkpt>
      <trkpt lat="44.9627" lon="1.11451">
        <ele>174</ele>
        <time>2014-08-18T11:25:35Z</time>
      </trkpt>
      <trkpt lat="44.9628" lon="1.11429">
        <ele>173</ele>
        <time>2014-08-18T11:25:38Z</time>
      </trkpt>
      <trkpt lat="44.96291" lon="1.11418">
        <ele>172</ele>
        <time>2014-08-18T11:25:40Z</time>
      </trkpt>
      <trkpt lat="44.96309" lon="1.11405">
        <ele>171</ele>
        <time>2014-08-18T11:25:43Z</time>
      </trkpt>
      <trkpt lat="44.9632" lon="1.11395">
        <ele>171</ele>
        <time>2014-08-18T11:25:45Z</time>
      </trkpt>
      <trkpt lat="44.96334" lon="1.1138">
        <ele>171</ele>
        <time>2014-08-18T11:25:48Z</time>
      </trkpt>
      <trkpt lat="44.96342" lon="1.11369">
        <ele>171</ele>
        <time>2014-08-18T11:25:50Z</time>
      </trkpt>
      <trkpt lat="44.96353" lon="1.11353">
        <ele>170</ele>
        <time>2014-08-18T11:25:53Z</time>
      </trkpt>
      <trkpt lat="44.9636" lon="1.11341">
        <ele>170</ele>
        <time>2014-08-18T11:25:55Z</time>
      </trkpt>
      <trkpt lat="44.96367" lon="1.11331">
        <ele>169</ele>
        <time>2014-08-18T11:25:57Z</time>
      </trkpt>
      <trkpt lat="44.96379" lon="1.11313">
        <ele>168</ele>
        <time>2014-08-18T11:26:00Z</time>
      </trkpt>
      <trkpt lat="44.96389" lon="1.11302">
        <ele>168</ele>
        <time>2014-08-18T11:26:02Z</time>
      </trkpt>
      <trkpt lat="44.96405" lon="1.11287">
        <ele>166</ele>
        <time>2014-08-18T11:26:05Z</time>
      </trkpt>
      <trkpt lat="44.96412" lon="1.11279">
        <ele>165</ele>
        <time>2014-08-18T11:26:07Z</time>
      </trkpt>
      <trkpt lat="44.96422" lon="1.11265">
        <ele>165</ele>
        <time>2014-08-18T11:26:10Z</time>
      </trkpt>
      <trkpt lat="44.96429" lon="1.11255">
        <ele>164</ele>
        <time>2014-08-18T11:26:12Z</time>
      </trkpt>
      <trkpt lat="44.96439" lon="1.11242">
        <ele>165</ele>
        <time>2014-08-18T11:26:15Z</time>
      </trkpt>
      <trkpt lat="44.96444" lon="1.11236">
        <ele>165</ele>
        <time>2014-08-18T11:26:17Z</time>
      </trkpt>
      <trkpt lat="44.96448" lon="1.11232">
        <ele>165</ele>
        <time>2014-08-18T11:26:20Z</time>
      </trkpt>
      <trkpt lat="44.96448" lon="1.11232">
        <ele>165</ele>
        <time>2014-08-18T11:26:22Z</time>
      </trkpt>
      <trkpt lat="44.96467" lon="1.11191">
        <ele>165</ele>
        <time>2014-08-18T11:26:25Z</time>
      </trkpt>
      <trkpt lat="44.96472" lon="1.11182">
        <ele>164</ele>
        <time>2014-08-18T11:26:27Z</time>
      </trkpt>
      <trkpt lat="44.9648" lon="1.11167">
        <ele>164</ele>
        <time>2014-08-18T11:26:30Z</time>
      </trkpt>
      <trkpt lat="44.96486" lon="1.11157">
        <ele>164</ele>
        <time>2014-08-18T11:26:32Z</time>
      </trkpt>
      <trkpt lat="44.96495" lon="1.11141">
        <ele>164</ele>
        <time>2014-08-18T11:26:35Z</time>
      </trkpt>
      <trkpt lat="44.96502" lon="1.11129">
        <ele>164</ele>
        <time>2014-08-18T11:26:37Z</time>
      </trkpt>
      <trkpt lat="44.96512" lon="1.11111">
        <ele>164</ele>
        <time>2014-08-18T11:26:40Z</time>
      </trkpt>
      <trkpt lat="44.96519" lon="1.11099">
        <ele>164</ele>
        <time>2014-08-18T11:26:42Z</time>
      </trkpt>
      <trkpt lat="44.96526" lon="1.11088">
        <ele>164</ele>
        <time>2014-08-18T11:26:44Z</time>
      </trkpt>
      <trkpt lat="44.96533" lon="1.11076">
        <ele>164</ele>
        <time>2014-08-18T11:26:46Z</time>
      </trkpt>
      <trkpt lat="44.96538" lon="1.11065">
        <ele>164</ele>
        <time>2014-08-18T11:26:48Z</time>
      </trkpt>
      <trkpt lat="44.96545" lon="1.11049">
        <ele>165</ele>
        <time>2014-08-18T11:26:51Z</time>
      </trkpt>
      <trkpt lat="44.9655" lon="1.11037">
        <ele>166</ele>
        <time>2014-08-18T11:26:54Z</time>
      </trkpt>
      <trkpt lat="44.96554" lon="1.1103">
        <ele>167</ele>
        <time>2014-08-18T11:26:56Z</time>
      </trkpt>
      <trkpt lat="44.96557" lon="1.11019">
        <ele>168</ele>
        <time>2014-08-18T11:26:59Z</time>
      </trkpt>
      <trkpt lat="44.96558" lon="1.11012">
        <ele>169</ele>
        <time>2014-08-18T11:27:01Z</time>
      </trkpt>
      <trkpt lat="44.96558" lon="1.11008">
        <ele>170</ele>
        <time>2014-08-18T11:27:03Z</time>
      </trkpt>
      <trkpt lat="44.96556" lon="1.11003">
        <ele>170</ele>
        <time>2014-08-18T11:27:05Z</time>
      </trkpt>
      <trkpt lat="44.96553" lon="1.10998">
        <ele>171</ele>
        <time>2014-08-18T11:27:07Z</time>
      </trkpt>
      <trkpt lat="44.9655" lon="1.10994">
        <ele>171</ele>
        <time>2014-08-18T11:27:09Z</time>
      </trkpt>
      <trkpt lat="44.96547" lon="1.10991">
        <ele>172</ele>
        <time>2014-08-18T11:27:11Z</time>
      </trkpt>
      <trkpt lat="44.96542" lon="1.10984">
        <ele>173</ele>
        <time>2014-08-18T11:27:14Z</time>
      </trkpt>
      <trkpt lat="44.96539" lon="1.10979">
        <ele>173</ele>
        <time>2014-08-18T11:27:16Z</time>
      </trkpt>
      <trkpt lat="44.96535" lon="1.10973">
        <ele>174</ele>
        <time>2014-08-18T11:27:18Z</time>
      </trkpt>
      <trkpt lat="44.96532" lon="1.10965">
        <ele>174</ele>
        <time>2014-08-18T11:27:20Z</time>
      </trkpt>
      <trkpt lat="44.96528" lon="1.10956">
        <ele>175</ele>
        <time>2014-08-18T11:27:22Z</time>
      </trkpt>
      <trkpt lat="44.96523" lon="1.10939">
        <ele>176</ele>
        <time>2014-08-18T11:27:25Z</time>
      </trkpt>
      <trkpt lat="44.9652" lon="1.1093">
        <ele>177</ele>
        <time>2014-08-18T11:27:27Z</time>
      </trkpt>
      <trkpt lat="44.96518" lon="1.10923">
        <ele>177</ele>
        <time>2014-08-18T11:27:29Z</time>
      </trkpt>
      <trkpt lat="44.96514" lon="1.10916">
        <ele>178</ele>
        <time>2014-08-18T11:27:31Z</time>
      </trkpt>
      <trkpt lat="44.9651" lon="1.10911">
        <ele>178</ele>
        <time>2014-08-18T11:27:33Z</time>
      </trkpt>
      <trkpt lat="44.96505" lon="1.10907">
        <ele>179</ele>
        <time>2014-08-18T11:27:35Z</time>
      </trkpt>
      <trkpt lat="44.96496" lon="1.10899">
        <ele>179</ele>
        <time>2014-08-18T11:27:38Z</time>
      </trkpt>
      <trkpt lat="44.9649" lon="1.10893">
        <ele>180</ele>
        <time>2014-08-18T11:27:40Z</time>
      </trkpt>
      <trkpt lat="44.96482" lon="1.10888">
        <ele>180</ele>
        <time>2014-08-18T11:27:42Z</time>
      </trkpt>
      <trkpt lat="44.96477" lon="1.10883">
        <ele>180</ele>
        <time>2014-08-18T11:27:44Z</time>
      </trkpt>
      <trkpt lat="44.96473" lon="1.10877">
        <ele>181</ele>
        <time>2014-08-18T11:27:46Z</time>
      </trkpt>
      <trkpt lat="44.96465" lon="1.10864">
        <ele>182</ele>
        <time>2014-08-18T11:27:49Z</time>
      </trkpt>
      <trkpt lat="44.96462" lon="1.10856">
        <ele>183</ele>
        <time>2014-08-18T11:27:51Z</time>
      </trkpt>
      <trkpt lat="44.96459" lon="1.10848">
        <ele>183</ele>
        <time>2014-08-18T11:27:53Z</time>
      </trkpt>
      <trkpt lat="44.96457" lon="1.10836">
        <ele>184</ele>
        <time>2014-08-18T11:27:56Z</time>
      </trkpt>
      <trkpt lat="44.96456" lon="1.10828">
        <ele>185</ele>
        <time>2014-08-18T11:27:58Z</time>
      </trkpt>
      <trkpt lat="44.96455" lon="1.10821">
        <ele>185</ele>
        <time>2014-08-18T11:28:00Z</time>
      </trkpt>
      <trkpt lat="44.96455" lon="1.1081">
        <ele>186</ele>
        <time>2014-08-18T11:28:03Z</time>
      </trkpt>
      <trkpt lat="44.96456" lon="1.10802">
        <ele>187</ele>
        <time>2014-08-18T11:28:05Z</time>
      </trkpt>
      <trkpt lat="44.96457" lon="1.10795">
        <ele>187</ele>
        <time>2014-08-18T11:28:07Z</time>
      </trkpt>
      <trkpt lat="44.96457" lon="1.10788">
        <ele>188</ele>
        <time>2014-08-18T11:28:09Z</time>
      </trkpt>
      <trkpt lat="44.96457" lon="1.10776">
        <ele>189</ele>
        <time>2014-08-18T11:28:12Z</time>
      </trkpt>
      <trkpt lat="44.96456" lon="1.10768">
        <ele>189</ele>
        <time>2014-08-18T11:28:14Z</time>
      </trkpt>
      <trkpt lat="44.96456" lon="1.1076">
        <ele>190</ele>
        <time>2014-08-18T11:28:16Z</time>
      </trkpt>
      <trkpt lat="44.96455" lon="1.10752">
        <ele>190</ele>
        <time>2014-08-18T11:28:18Z</time>
      </trkpt>
      <trkpt lat="44.96454" lon="1.10743">
        <ele>191</ele>
        <time>2014-08-18T11:28:20Z</time>
      </trkpt>
      <trkpt lat="44.96452" lon="1.10735">
        <ele>191</ele>
        <time>2014-08-18T11:28:22Z</time>
      </trkpt>
      <trkpt lat="44.96454" lon="1.10728">
        <ele>191</ele>
        <time>2014-08-18T11:28:24Z</time>
      </trkpt>
      <trkpt lat="44.96458" lon="1.10722">
        <ele>191</ele>
        <time>2014-08-18T11:28:26Z</time>
      </trkpt>
      <trkpt lat="44.96463" lon="1.10718">
        <ele>191</ele>
        <time>2014-08-18T11:28:28Z</time>
      </trkpt>
      <trkpt lat="44.96469" lon="1.10714">
        <ele>191</ele>
        <time>2014-08-18T11:28:31Z</time>
      </trkpt>
      <trkpt lat="44.96476" lon="1.10715">
        <ele>192</ele>
        <time>2014-08-18T11:28:34Z</time>
      </trkpt>
      <trkpt lat="44.96481" lon="1.10716">
        <ele>192</ele>
        <time>2014-08-18T11:28:36Z</time>
      </trkpt>
      <trkpt lat="44.9649" lon="1.1072">
        <ele>193</ele>
        <time>2014-08-18T11:28:39Z</time>
      </trkpt>
      <trkpt lat="44.96496" lon="1.10722">
        <ele>193</ele>
        <time>2014-08-18T11:28:41Z</time>
      </trkpt>
      <trkpt lat="44.96503" lon="1.10724">
        <ele>194</ele>
        <time>2014-08-18T11:28:43Z</time>
      </trkpt>
      <trkpt lat="44.96511" lon="1.10727">
        <ele>194</ele>
        <time>2014-08-18T11:28:45Z</time>
      </trkpt>
      <trkpt lat="44.96523" lon="1.10731">
        <ele>194</ele>
        <time>2014-08-18T11:28:48Z</time>
      </trkpt>
      <trkpt lat="44.96531" lon="1.10734">
        <ele>194</ele>
        <time>2014-08-18T11:28:50Z</time>
      </trkpt>
      <trkpt lat="44.96539" lon="1.10738">
        <ele>195</ele>
        <time>2014-08-18T11:28:52Z</time>
      </trkpt>
      <trkpt lat="44.96545" lon="1.10741">
        <ele>195</ele>
        <time>2014-08-18T11:28:54Z</time>
      </trkpt>
      <trkpt lat="44.96555" lon="1.10748">
        <ele>195</ele>
        <time>2014-08-18T11:28:57Z</time>
      </trkpt>
      <trkpt lat="44.96565" lon="1.10755">
        <ele>195</ele>
        <time>2014-08-18T11:29:00Z</time>
      </trkpt>
      <trkpt lat="44.96572" lon="1.1076">
        <ele>196</ele>
        <time>2014-08-18T11:29:02Z</time>
      </trkpt>
      <trkpt lat="44.96579" lon="1.10767">
        <ele>196</ele>
        <time>2014-08-18T11:29:04Z</time>
      </trkpt>
      <trkpt lat="44.96585" lon="1.10772">
        <ele>197</ele>
        <time>2014-08-18T11:29:06Z</time>
      </trkpt>
      <trkpt lat="44.96592" lon="1.10778">
        <ele>198</ele>
        <time>2014-08-18T11:29:08Z</time>
      </trkpt>
      <trkpt lat="44.96598" lon="1.10784">
        <ele>198</ele>
        <time>2014-08-18T11:29:10Z</time>
      </trkpt>
      <trkpt lat="44.96605" lon="1.10789">
        <ele>199</ele>
        <time>2014-08-18T11:29:12Z</time>
      </trkpt>
      <trkpt lat="44.96612" lon="1.10795">
        <ele>199</ele>
        <time>2014-08-18T11:29:14Z</time>
      </trkpt>
      <trkpt lat="44.9662" lon="1.10802">
        <ele>200</ele>
        <time>2014-08-18T11:29:16Z</time>
      </trkpt>
      <trkpt lat="44.96627" lon="1.10808">
        <ele>200</ele>
        <time>2014-08-18T11:29:18Z</time>
      </trkpt>
      <trkpt lat="44.96637" lon="1.10817">
        <ele>201</ele>
        <time>2014-08-18T11:29:21Z</time>
      </trkpt>
      <trkpt lat="44.96644" lon="1.10823">
        <ele>201</ele>
        <time>2014-08-18T11:29:23Z</time>
      </trkpt>
      <trkpt lat="44.96651" lon="1.10827">
        <ele>201</ele>
        <time>2014-08-18T11:29:25Z</time>
      </trkpt>
      <trkpt lat="44.96659" lon="1.10834">
        <ele>202</ele>
        <time>2014-08-18T11:29:28Z</time>
      </trkpt>
      <trkpt lat="44.96664" lon="1.1084">
        <ele>203</ele>
        <time>2014-08-18T11:29:30Z</time>
      </trkpt>
      <trkpt lat="44.96672" lon="1.10848">
        <ele>204</ele>
        <time>2014-08-18T11:29:33Z</time>
      </trkpt>
      <trkpt lat="44.96678" lon="1.10853">
        <ele>204</ele>
        <time>2014-08-18T11:29:35Z</time>
      </trkpt>
      <trkpt lat="44.96683" lon="1.10857">
        <ele>204</ele>
        <time>2014-08-18T11:29:37Z</time>
      </trkpt>
      <trkpt lat="44.96688" lon="1.10862">
        <ele>204</ele>
        <time>2014-08-18T11:29:39Z</time>
      </trkpt>
      <trkpt lat="44.96694" lon="1.10867">
        <ele>205</ele>
        <time>2014-08-18T11:29:41Z</time>
      </trkpt>
      <trkpt lat="44.96703" lon="1.10875">
        <ele>205</ele>
        <time>2014-08-18T11:29:44Z</time>
      </trkpt>
      <trkpt lat="44.96708" lon="1.1088">
        <ele>206</ele>
        <time>2014-08-18T11:29:46Z</time>
      </trkpt>
      <trkpt lat="44.96714" lon="1.10887">
        <ele>206</ele>
        <time>2014-08-18T11:29:48Z</time>
      </trkpt>
      <trkpt lat="44.9672" lon="1.10892">
        <ele>206</ele>
        <time>2014-08-18T11:29:50Z</time>
      </trkpt>
      <trkpt lat="44.96726" lon="1.10899">
        <ele>206</ele>
        <time>2014-08-18T11:29:52Z</time>
      </trkpt>
      <trkpt lat="44.96733" lon="1.10907">
        <ele>206</ele>
        <time>2014-08-18T11:29:55Z</time>
      </trkpt>
      <trkpt lat="44.96737" lon="1.1091">
        <ele>206</ele>
        <time>2014-08-18T11:29:57Z</time>
      </trkpt>
      <trkpt lat="44.9674" lon="1.10914">
        <ele>206</ele>
        <time>2014-08-18T11:29:59Z</time>
      </trkpt>
      <trkpt lat="44.96746" lon="1.1092">
        <ele>206</ele>
        <time>2014-08-18T11:30:01Z</time>
      </trkpt>
      <trkpt lat="44.96752" lon="1.10927">
        <ele>206</ele>
        <time>2014-08-18T11:30:03Z</time>
      </trkpt>
      <trkpt lat="44.96758" lon="1.10934">
        <ele>206</ele>
        <time>2014-08-18T11:30:05Z</time>
      </trkpt>
      <trkpt lat="44.96767" lon="1.10945">
        <ele>206</ele>
        <time>2014-08-18T11:30:08Z</time>
      </trkpt>
      <trkpt lat="44.96774" lon="1.10952">
        <ele>206</ele>
        <time>2014-08-18T11:30:10Z</time>
      </trkpt>
      <trkpt lat="44.96781" lon="1.1096">
        <ele>206</ele>
        <time>2014-08-18T11:30:12Z</time>
      </trkpt>
      <trkpt lat="44.96787" lon="1.10969">
        <ele>207</ele>
        <time>2014-08-18T11:30:14Z</time>
      </trkpt>
      <trkpt lat="44.96794" lon="1.10977">
        <ele>207</ele>
        <time>2014-08-18T11:30:16Z</time>
      </trkpt>
      <trkpt lat="44.96805" lon="1.10989">
        <ele>207</ele>
        <time>2014-08-18T11:30:19Z</time>
      </trkpt>
      <trkpt lat="44.96815" lon="1.10999">
        <ele>208</ele>
        <time>2014-08-18T11:30:22Z</time>
      </trkpt>
      <trkpt lat="44.96823" lon="1.11004">
        <ele>208</ele>
        <time>2014-08-18T11:30:24Z</time>
      </trkpt>
      <trkpt lat="44.96834" lon="1.11012">
        <ele>208</ele>
        <time>2014-08-18T11:30:27Z</time>
      </trkpt>
      <trkpt lat="44.96841" lon="1.11016">
        <ele>208</ele>
        <time>2014-08-18T11:30:30Z</time>
      </trkpt>
      <trkpt lat="44.96847" lon="1.1102">
        <ele>208</ele>
        <time>2014-08-18T11:30:32Z</time>
      </trkpt>
      <trkpt lat="44.96856" lon="1.11026">
        <ele>209</ele>
        <time>2014-08-18T11:30:35Z</time>
      </trkpt>
      <trkpt lat="44.9686" lon="1.11029">
        <ele>209</ele>
        <time>2014-08-18T11:30:37Z</time>
      </trkpt>
      <trkpt lat="44.96866" lon="1.11033">
        <ele>209</ele>
        <time>2014-08-18T11:30:40Z</time>
      </trkpt>
      <trkpt lat="44.96871" lon="1.11036">
        <ele>209</ele>
        <time>2014-08-18T11:30:42Z</time>
      </trkpt>
      <trkpt lat="44.96878" lon="1.1104">
        <ele>209</ele>
        <time>2014-08-18T11:30:44Z</time>
      </trkpt>
      <trkpt lat="44.96886" lon="1.11044">
        <ele>209</ele>
        <time>2014-08-18T11:30:46Z</time>
      </trkpt>
      <trkpt lat="44.96893" lon="1.11049">
        <ele>208</ele>
        <time>2014-08-18T11:30:48Z</time>
      </trkpt>
      <trkpt lat="44.96902" lon="1.11055">
        <ele>208</ele>
        <time>2014-08-18T11:30:50Z</time>
      </trkpt>
      <trkpt lat="44.96912" lon="1.11061">
        <ele>208</ele>
        <time>2014-08-18T11:30:52Z</time>
      </trkpt>
      <trkpt lat="44.96927" lon="1.11072">
        <ele>207</ele>
        <time>2014-08-18T11:30:55Z</time>
      </trkpt>
      <trkpt lat="44.96941" lon="1.11083">
        <ele>206</ele>
        <time>2014-08-18T11:30:58Z</time>
      </trkpt>
      <trkpt lat="44.96953" lon="1.11098">
        <ele>205</ele>
        <time>2014-08-18T11:31:01Z</time>
      </trkpt>
      <trkpt lat="44.96962" lon="1.11107">
        <ele>205</ele>
        <time>2014-08-18T11:31:03Z</time>
      </trkpt>
      <trkpt lat="44.9697" lon="1.11115">
        <ele>204</ele>
        <time>2014-08-18T11:31:05Z</time>
      </trkpt>
      <trkpt lat="44.96976" lon="1.1112">
        <ele>203</ele>
        <time>2014-08-18T11:31:07Z</time>
      </trkpt>
      <trkpt lat="44.96982" lon="1.11127">
        <ele>202</ele>
        <time>2014-08-18T11:31:10Z</time>
      </trkpt>
      <trkpt lat="44.96988" lon="1.11133">
        <ele>202</ele>
        <time>2014-08-18T11:31:12Z</time>
      </trkpt>
      <trkpt lat="44.96998" lon="1.11144">
        <ele>202</ele>
        <time>2014-08-18T11:31:15Z</time>
      </trkpt>
      <trkpt lat="44.97004" lon="1.11152">
        <ele>201</ele>
        <time>2014-08-18T11:31:17Z</time>
      </trkpt>
      <trkpt lat="44.97013" lon="1.11162">
        <ele>202</ele>
        <time>2014-08-18T11:31:20Z</time>
      </trkpt>
      <trkpt lat="44.97018" lon="1.11171">
        <ele>202</ele>
        <time>2014-08-18T11:31:22Z</time>
      </trkpt>
      <trkpt lat="44.97027" lon="1.11186">
        <ele>203</ele>
        <time>2014-08-18T11:31:25Z</time>
      </trkpt>
      <trkpt lat="44.97033" lon="1.11199">
        <ele>203</ele>
        <time>2014-08-18T11:31:27Z</time>
      </trkpt>
      <trkpt lat="44.97039" lon="1.11213">
        <ele>204</ele>
        <time>2014-08-18T11:31:29Z</time>
      </trkpt>
      <trkpt lat="44.97044" lon="1.11226">
        <ele>205</ele>
        <time>2014-08-18T11:31:31Z</time>
      </trkpt>
      <trkpt lat="44.9705" lon="1.1124">
        <ele>205</ele>
        <time>2014-08-18T11:31:33Z</time>
      </trkpt>
      <trkpt lat="44.97056" lon="1.11253">
        <ele>206</ele>
        <time>2014-08-18T11:31:35Z</time>
      </trkpt>
      <trkpt lat="44.97063" lon="1.11266">
        <ele>207</ele>
        <time>2014-08-18T11:31:37Z</time>
      </trkpt>
      <trkpt lat="44.97072" lon="1.11282">
        <ele>209</ele>
        <time>2014-08-18T11:31:40Z</time>
      </trkpt>
      <trkpt lat="44.97082" lon="1.11299">
        <ele>210</ele>
        <time>2014-08-18T11:31:43Z</time>
      </trkpt>
      <trkpt lat="44.97087" lon="1.1131">
        <ele>211</ele>
        <time>2014-08-18T11:31:45Z</time>
      </trkpt>
      <trkpt lat="44.97097" lon="1.11327">
        <ele>212</ele>
        <time>2014-08-18T11:31:48Z</time>
      </trkpt>
      <trkpt lat="44.97106" lon="1.11342">
        <ele>214</ele>
        <time>2014-08-18T11:31:51Z</time>
      </trkpt>
      <trkpt lat="44.97113" lon="1.11349">
        <ele>214</ele>
        <time>2014-08-18T11:31:53Z</time>
      </trkpt>
      <trkpt lat="44.97121" lon="1.11355">
        <ele>215</ele>
        <time>2014-08-18T11:31:55Z</time>
      </trkpt>
      <trkpt lat="44.9713" lon="1.1136">
        <ele>215</ele>
        <time>2014-08-18T11:31:57Z</time>
      </trkpt>
      <trkpt lat="44.97142" lon="1.11365">
        <ele>216</ele>
        <time>2014-08-18T11:32:00Z</time>
      </trkpt>
      <trkpt lat="44.97153" lon="1.1137">
        <ele>218</ele>
        <time>2014-08-18T11:32:03Z</time>
      </trkpt>
      <trkpt lat="44.97162" lon="1.11376">
        <ele>219</ele>
        <time>2014-08-18T11:32:06Z</time>
      </trkpt>
      <trkpt lat="44.97167" lon="1.11381">
        <ele>219</ele>
        <time>2014-08-18T11:32:08Z</time>
      </trkpt>
      <trkpt lat="44.97172" lon="1.11386">
        <ele>220</ele>
        <time>2014-08-18T11:32:10Z</time>
      </trkpt>
      <trkpt lat="44.9718" lon="1.11395">
        <ele>220</ele>
        <time>2014-08-18T11:32:13Z</time>
      </trkpt>
      <trkpt lat="44.97186" lon="1.11401">
        <ele>221</ele>
        <time>2014-08-18T11:32:15Z</time>
      </trkpt>
      <trkpt lat="44.97192" lon="1.11408">
        <ele>221</ele>
        <time>2014-08-18T11:32:17Z</time>
      </trkpt>
      <trkpt lat="44.97202" lon="1.11418">
        <ele>222</ele>
        <time>2014-08-18T11:32:20Z</time>
      </trkpt>
      <trkpt lat="44.97208" lon="1.11424">
        <ele>223</ele>
        <time>2014-08-18T11:32:22Z</time>
      </trkpt>
      <trkpt lat="44.97215" lon="1.1143">
        <ele>223</ele>
        <time>2014-08-18T11:32:24Z</time>
      </trkpt>
      <trkpt lat="44.97226" lon="1.1144">
        <ele>224</ele>
        <time>2014-08-18T11:32:27Z</time>
      </trkpt>
      <trkpt lat="44.97233" lon="1.11448">
        <ele>224</ele>
        <time>2014-08-18T11:32:29Z</time>
      </trkpt>
      <trkpt lat="44.9724" lon="1.11456">
        <ele>224</ele>
        <time>2014-08-18T11:32:31Z</time>
      </trkpt>
      <trkpt lat="44.97247" lon="1.11463">
        <ele>224</ele>
        <time>2014-08-18T11:32:33Z</time>
      </trkpt>
      <trkpt lat="44.97256" lon="1.11471">
        <ele>224</ele>
        <time>2014-08-18T11:32:35Z</time>
      </trkpt>
      <trkpt lat="44.97269" lon="1.11484">
        <ele>223</ele>
        <time>2014-08-18T11:32:38Z</time>
      </trkpt>
      <trkpt lat="44.97277" lon="1.11493">
        <ele>223</ele>
        <time>2014-08-18T11:32:40Z</time>
      </trkpt>
      <trkpt lat="44.97286" lon="1.11501">
        <ele>223</ele>
        <time>2014-08-18T11:32:42Z</time>
      </trkpt>
      <trkpt lat="44.97294" lon="1.1151">
        <ele>223</ele>
        <time>2014-08-18T11:32:44Z</time>
      </trkpt>
      <trkpt lat="44.97304" lon="1.11524">
        <ele>224</ele>
        <time>2014-08-18T11:32:47Z</time>
      </trkpt>
      <trkpt lat="44.97314" lon="1.11538">
        <ele>224</ele>
        <time>2014-08-18T11:32:50Z</time>
      </trkpt>
      <trkpt lat="44.97323" lon="1.11545">
        <ele>224</ele>
        <time>2014-08-18T11:32:52Z</time>
      </trkpt>
      <trkpt lat="44.97333" lon="1.11552">
        <ele>224</ele>
        <time>2014-08-18T11:32:54Z</time>
      </trkpt>
      <trkpt lat="44.9735" lon="1.11558">
        <ele>224</ele>
        <time>2014-08-18T11:32:57Z</time>
      </trkpt>
      <trkpt lat="44.97363" lon="1.1156">
        <ele>224</ele>
        <time>2014-08-18T11:32:59Z</time>
      </trkpt>
      <trkpt lat="44.97376" lon="1.11563">
        <ele>224</ele>
        <time>2014-08-18T11:33:01Z</time>
      </trkpt>
      <trkpt lat="44.97391" lon="1.11564">
        <ele>224</ele>
        <time>2014-08-18T11:33:03Z</time>
      </trkpt>
      <trkpt lat="44.97413" lon="1.11565">
        <ele>224</ele>
        <time>2014-08-18T11:33:06Z</time>
      </trkpt>
      <trkpt lat="44.97427" lon="1.11564">
        <ele>224</ele>
        <time>2014-08-18T11:33:08Z</time>
      </trkpt>
      <trkpt lat="44.97441" lon="1.11564">
        <ele>223</ele>
        <time>2014-08-18T11:33:10Z</time>
      </trkpt>
      <trkpt lat="44.97454" lon="1.11564">
        <ele>223</ele>
        <time>2014-08-18T11:33:12Z</time>
      </trkpt>
      <trkpt lat="44.97466" lon="1.11563">
        <ele>223</ele>
        <time>2014-08-18T11:33:14Z</time>
      </trkpt>
      <trkpt lat="44.97478" lon="1.1156">
        <ele>223</ele>
        <time>2014-08-18T11:33:16Z</time>
      </trkpt>
      <trkpt lat="44.9749" lon="1.11559">
        <ele>223</ele>
        <time>2014-08-18T11:33:18Z</time>
      </trkpt>
      <trkpt lat="44.97502" lon="1.11558">
        <ele>223</ele>
        <time>2014-08-18T11:33:20Z</time>
      </trkpt>
      <trkpt lat="44.97514" lon="1.11557">
        <ele>223</ele>
        <time>2014-08-18T11:33:22Z</time>
      </trkpt>
      <trkpt lat="44.97527" lon="1.11556">
        <ele>224</ele>
        <time>2014-08-18T11:33:24Z</time>
      </trkpt>
      <trkpt lat="44.97539" lon="1.11556">
        <ele>224</ele>
        <time>2014-08-18T11:33:26Z</time>
      </trkpt>
      <trkpt lat="44.97551" lon="1.11556">
        <ele>224</ele>
        <time>2014-08-18T11:33:28Z</time>
      </trkpt>
      <trkpt lat="44.9757" lon="1.11556">
        <ele>224</ele>
        <time>2014-08-18T11:33:31Z</time>
      </trkpt>
      <trkpt lat="44.9759" lon="1.11557">
        <ele>224</ele>
        <time>2014-08-18T11:33:34Z</time>
      </trkpt>
      <trkpt lat="44.97603" lon="1.1156">
        <ele>224</ele>
        <time>2014-08-18T11:33:36Z</time>
      </trkpt>
      <trkpt lat="44.97615" lon="1.11562">
        <ele>224</ele>
        <time>2014-08-18T11:33:38Z</time>
      </trkpt>
      <trkpt lat="44.97627" lon="1.11565">
        <ele>224</ele>
        <time>2014-08-18T11:33:40Z</time>
      </trkpt>
      <trkpt lat="44.97638" lon="1.11568">
        <ele>224</ele>
        <time>2014-08-18T11:33:42Z</time>
      </trkpt>
      <trkpt lat="44.97656" lon="1.11574">
        <ele>225</ele>
        <time>2014-08-18T11:33:45Z</time>
      </trkpt>
      <trkpt lat="44.97668" lon="1.11579">
        <ele>225</ele>
        <time>2014-08-18T11:33:47Z</time>
      </trkpt>
      <trkpt lat="44.97689" lon="1.11588">
        <ele>225</ele>
        <time>2014-08-18T11:33:50Z</time>
      </trkpt>
      <trkpt lat="44.97709" lon="1.11598">
        <ele>225</ele>
        <time>2014-08-18T11:33:53Z</time>
      </trkpt>
      <trkpt lat="44.97723" lon="1.11606">
        <ele>225</ele>
        <time>2014-08-18T11:33:55Z</time>
      </trkpt>
      <trkpt lat="44.97737" lon="1.11615">
        <ele>225</ele>
        <time>2014-08-18T11:33:57Z</time>
      </trkpt>
      <trkpt lat="44.97758" lon="1.11627">
        <ele>225</ele>
        <time>2014-08-18T11:34:00Z</time>
      </trkpt>
      <trkpt lat="44.97772" lon="1.11635">
        <ele>226</ele>
        <time>2014-08-18T11:34:02Z</time>
      </trkpt>
      <trkpt lat="44.97792" lon="1.11647">
        <ele>226</ele>
        <time>2014-08-18T11:34:05Z</time>
      </trkpt>
      <trkpt lat="44.97805" lon="1.11654">
        <ele>226</ele>
        <time>2014-08-18T11:34:07Z</time>
      </trkpt>
      <trkpt lat="44.97824" lon="1.11663">
        <ele>226</ele>
        <time>2014-08-18T11:34:10Z</time>
      </trkpt>
      <trkpt lat="44.97836" lon="1.11669">
        <ele>226</ele>
        <time>2014-08-18T11:34:12Z</time>
      </trkpt>
      <trkpt lat="44.97854" lon="1.11677">
        <ele>226</ele>
        <time>2014-08-18T11:34:15Z</time>
      </trkpt>
      <trkpt lat="44.97864" lon="1.11684">
        <ele>226</ele>
        <time>2014-08-18T11:34:17Z</time>
      </trkpt>
      <trkpt lat="44.97873" lon="1.11694">
        <ele>226</ele>
        <time>2014-08-18T11:34:19Z</time>
      </trkpt>
      <trkpt lat="44.97882" lon="1.1171">
        <ele>226</ele>
        <time>2014-08-18T11:34:22Z</time>
      </trkpt>
      <trkpt lat="44.97887" lon="1.11723">
        <ele>226</ele>
        <time>2014-08-18T11:34:24Z</time>
      </trkpt>
      <trkpt lat="44.97894" lon="1.11742">
        <ele>226</ele>
        <time>2014-08-18T11:34:27Z</time>
      </trkpt>
      <trkpt lat="44.979" lon="1.11753">
        <ele>226</ele>
        <time>2014-08-18T11:34:29Z</time>
      </trkpt>
      <trkpt lat="44.97906" lon="1.11763">
        <ele>227</ele>
        <time>2014-08-18T11:34:31Z</time>
      </trkpt>
      <trkpt lat="44.97913" lon="1.11772">
        <ele>228</ele>
        <time>2014-08-18T11:34:33Z</time>
      </trkpt>
      <trkpt lat="44.97922" lon="1.11784">
        <ele>229</ele>
        <time>2014-08-18T11:34:36Z</time>
      </trkpt>
      <trkpt lat="44.97933" lon="1.11796">
        <ele>229</ele>
        <time>2014-08-18T11:34:39Z</time>
      </trkpt>
      <trkpt lat="44.9794" lon="1.11803">
        <ele>230</ele>
        <time>2014-08-18T11:34:41Z</time>
      </trkpt>
      <trkpt lat="44.97947" lon="1.11811">
        <ele>231</ele>
        <time>2014-08-18T11:34:43Z</time>
      </trkpt>
      <trkpt lat="44.97954" lon="1.11818">
        <ele>231</ele>
        <time>2014-08-18T11:34:45Z</time>
      </trkpt>
      <trkpt lat="44.97967" lon="1.11829">
        <ele>232</ele>
        <time>2014-08-18T11:34:48Z</time>
      </trkpt>
      <trkpt lat="44.9798" lon="1.11839">
        <ele>232</ele>
        <time>2014-08-18T11:34:51Z</time>
      </trkpt>
      <trkpt lat="44.97994" lon="1.11848">
        <ele>233</ele>
        <time>2014-08-18T11:34:54Z</time>
      </trkpt>
      <trkpt lat="44.98008" lon="1.11858">
        <ele>233</ele>
        <time>2014-08-18T11:34:57Z</time>
      </trkpt>
      <trkpt lat="44.98016" lon="1.11863">
        <ele>233</ele>
        <time>2014-08-18T11:34:59Z</time>
      </trkpt>
      <trkpt lat="44.98028" lon="1.11871">
        <ele>234</ele>
        <time>2014-08-18T11:35:02Z</time>
      </trkpt>
      <trkpt lat="44.98035" lon="1.11875">
        <ele>235</ele>
        <time>2014-08-18T11:35:04Z</time>
      </trkpt>
      <trkpt lat="44.98046" lon="1.11882">
        <ele>236</ele>
        <time>2014-08-18T11:35:07Z</time>
      </trkpt>
      <trkpt lat="44.98054" lon="1.11887">
        <ele>236</ele>
        <time>2014-08-18T11:35:09Z</time>
      </trkpt>
      <trkpt lat="44.98062" lon="1.11892">
        <ele>237</ele>
        <time>2014-08-18T11:35:11Z</time>
      </trkpt>
      <trkpt lat="44.98073" lon="1.11899">
        <ele>237</ele>
        <time>2014-08-18T11:35:14Z</time>
      </trkpt>
      <trkpt lat="44.98081" lon="1.11903">
        <ele>238</ele>
        <time>2014-08-18T11:35:16Z</time>
      </trkpt>
      <trkpt lat="44.98089" lon="1.11907">
        <ele>239</ele>
        <time>2014-08-18T11:35:18Z</time>
      </trkpt>
      <trkpt lat="44.98097" lon="1.11911">
        <ele>239</ele>
        <time>2014-08-18T11:35:20Z</time>
      </trkpt>
      <trkpt lat="44.98105" lon="1.11915">
        <ele>240</ele>
        <time>2014-08-18T11:35:22Z</time>
      </trkpt>
      <trkpt lat="44.98113" lon="1.1192">
        <ele>240</ele>
        <time>2014-08-18T11:35:24Z</time>
      </trkpt>
      <trkpt lat="44.98127" lon="1.11927">
        <ele>241</ele>
        <time>2014-08-18T11:35:27Z</time>
      </trkpt>
      <trkpt lat="44.98136" lon="1.11932">
        <ele>241</ele>
        <time>2014-08-18T11:35:29Z</time>
      </trkpt>
      <trkpt lat="44.98146" lon="1.11936">
        <ele>241</ele>
        <time>2014-08-18T11:35:31Z</time>
      </trkpt>
      <trkpt lat="44.98156" lon="1.11942">
        <ele>242</ele>
        <time>2014-08-18T11:35:33Z</time>
      </trkpt>
      <trkpt lat="44.98166" lon="1.11947">
        <ele>242</ele>
        <time>2014-08-18T11:35:35Z</time>
      </trkpt>
      <trkpt lat="44.98177" lon="1.11952">
        <ele>242</ele>
        <time>2014-08-18T11:35:37Z</time>
      </trkpt>
      <trkpt lat="44.9819" lon="1.11957">
        <ele>242</ele>
        <time>2014-08-18T11:35:39Z</time>
      </trkpt>
      <trkpt lat="44.98209" lon="1.11964">
        <ele>242</ele>
        <time>2014-08-18T11:35:42Z</time>
      </trkpt>
      <trkpt lat="44.98222" lon="1.11969">
        <ele>242</ele>
        <time>2014-08-18T11:35:44Z</time>
      </trkpt>
      <trkpt lat="44.98235" lon="1.11973">
        <ele>242</ele>
        <time>2014-08-18T11:35:46Z</time>
      </trkpt>
      <trkpt lat="44.98248" lon="1.11978">
        <ele>242</ele>
        <time>2014-08-18T11:35:48Z</time>
      </trkpt>
      <trkpt lat="44.98262" lon="1.11985">
        <ele>242</ele>
        <time>2014-08-18T11:35:50Z</time>
      </trkpt>
      <trkpt lat="44.98275" lon="1.11992">
        <ele>242</ele>
        <time>2014-08-18T11:35:52Z</time>
      </trkpt>
      <trkpt lat="44.98288" lon="1.12">
        <ele>242</ele>
        <time>2014-08-18T11:35:54Z</time>
      </trkpt>
      <trkpt lat="44.983" lon="1.1201">
        <ele>242</ele>
        <time>2014-08-18T11:35:56Z</time>
      </trkpt>
      <trkpt lat="44.98312" lon="1.1202">
        <ele>242</ele>
        <time>2014-08-18T11:35:58Z</time>
      </trkpt>
      <trkpt lat="44.98323" lon="1.1203">
        <ele>242</ele>
        <time>2014-08-18T11:36:00Z</time>
      </trkpt>
      <trkpt lat="44.98335" lon="1.12038">
        <ele>242</ele>
        <time>2014-08-18T11:36:02Z</time>
      </trkpt>
      <trkpt lat="44.98353" lon="1.12049">
        <ele>242</ele>
        <time>2014-08-18T11:36:05Z</time>
      </trkpt>
      <trkpt lat="44.98366" lon="1.12054">
        <ele>242</ele>
        <time>2014-08-18T11:36:07Z</time>
      </trkpt>
      <trkpt lat="44.98379" lon="1.12059">
        <ele>243</ele>
        <time>2014-08-18T11:36:09Z</time>
      </trkpt>
      <trkpt lat="44.98392" lon="1.12063">
        <ele>244</ele>
        <time>2014-08-18T11:36:11Z</time>
      </trkpt>
      <trkpt lat="44.9841" lon="1.12067">
        <ele>244</ele>
        <time>2014-08-18T11:36:14Z</time>
      </trkpt>
      <trkpt lat="44.98421" lon="1.12068">
        <ele>245</ele>
        <time>2014-08-18T11:36:16Z</time>
      </trkpt>
      <trkpt lat="44.98429" lon="1.12069">
        <ele>245</ele>
        <time>2014-08-18T11:36:18Z</time>
      </trkpt>
      <trkpt lat="44.98436" lon="1.1207">
        <ele>245</ele>
        <time>2014-08-18T11:36:20Z</time>
      </trkpt>
      <trkpt lat="44.98441" lon="1.12072">
        <ele>245</ele>
        <time>2014-08-18T11:36:22Z</time>
      </trkpt>
      <trkpt lat="44.98446" lon="1.12075">
        <ele>245</ele>
        <time>2014-08-18T11:36:24Z</time>
      </trkpt>
      <trkpt lat="44.9845" lon="1.1208">
        <ele>244</ele>
        <time>2014-08-18T11:36:26Z</time>
      </trkpt>
      <trkpt lat="44.9845" lon="1.12087">
        <ele>244</ele>
        <time>2014-08-18T11:36:28Z</time>
      </trkpt>
      <trkpt lat="44.98444" lon="1.12097">
        <ele>244</ele>
        <time>2014-08-18T11:36:31Z</time>
      </trkpt>
      <trkpt lat="44.9844" lon="1.12105">
        <ele>244</ele>
        <time>2014-08-18T11:36:33Z</time>
      </trkpt>
      <trkpt lat="44.98434" lon="1.12115">
        <ele>243</ele>
        <time>2014-08-18T11:36:35Z</time>
      </trkpt>
      <trkpt lat="44.98427" lon="1.12125">
        <ele>243</ele>
        <time>2014-08-18T11:36:37Z</time>
      </trkpt>
      <trkpt lat="44.9842" lon="1.12134">
        <ele>242</ele>
        <time>2014-08-18T11:36:39Z</time>
      </trkpt>
      <trkpt lat="44.98412" lon="1.12145">
        <ele>242</ele>
        <time>2014-08-18T11:36:41Z</time>
      </trkpt>
      <trkpt lat="44.98404" lon="1.12158">
        <ele>242</ele>
        <time>2014-08-18T11:36:43Z</time>
      </trkpt>
      <trkpt lat="44.98397" lon="1.12173">
        <ele>241</ele>
        <time>2014-08-18T11:36:45Z</time>
      </trkpt>
      <trkpt lat="44.98389" lon="1.12188">
        <ele>240</ele>
        <time>2014-08-18T11:36:47Z</time>
      </trkpt>
      <trkpt lat="44.98387" lon="1.12209">
        <ele>240</ele>
        <time>2014-08-18T11:36:49Z</time>
      </trkpt>
      <trkpt lat="44.98389" lon="1.12243">
        <ele>238</ele>
        <time>2014-08-18T11:36:52Z</time>
      </trkpt>
      <trkpt lat="44.98391" lon="1.12266">
        <ele>237</ele>
        <time>2014-08-18T11:36:54Z</time>
      </trkpt>
      <trkpt lat="44.98388" lon="1.12299">
        <ele>236</ele>
        <time>2014-08-18T11:36:57Z</time>
      </trkpt>
      <trkpt lat="44.98387" lon="1.1232">
        <ele>236</ele>
        <time>2014-08-18T11:36:59Z</time>
      </trkpt>
      <trkpt lat="44.98384" lon="1.12339">
        <ele>236</ele>
        <time>2014-08-18T11:37:01Z</time>
      </trkpt>
      <trkpt lat="44.98378" lon="1.12367">
        <ele>236</ele>
        <time>2014-08-18T11:37:04Z</time>
      </trkpt>
      <trkpt lat="44.98373" lon="1.124">
        <ele>236</ele>
        <time>2014-08-18T11:37:07Z</time>
      </trkpt>
      <trkpt lat="44.98368" lon="1.12434">
        <ele>236</ele>
        <time>2014-08-18T11:37:10Z</time>
      </trkpt>
      <trkpt lat="44.98362" lon="1.12466">
        <ele>236</ele>
        <time>2014-08-18T11:37:13Z</time>
      </trkpt>
      <trkpt lat="44.98355" lon="1.12495">
        <ele>237</ele>
        <time>2014-08-18T11:37:16Z</time>
      </trkpt>
      <trkpt lat="44.98351" lon="1.12512">
        <ele>237</ele>
        <time>2014-08-18T11:37:18Z</time>
      </trkpt>
      <trkpt lat="44.98345" lon="1.12536">
        <ele>237</ele>
        <time>2014-08-18T11:37:21Z</time>
      </trkpt>
      <trkpt lat="44.98343" lon="1.1255">
        <ele>238</ele>
        <time>2014-08-18T11:37:23Z</time>
      </trkpt>
      <trkpt lat="44.98339" lon="1.12564">
        <ele>238</ele>
        <time>2014-08-18T11:37:25Z</time>
      </trkpt>
      <trkpt lat="44.98333" lon="1.12575">
        <ele>239</ele>
        <time>2014-08-18T11:37:27Z</time>
      </trkpt>
      <trkpt lat="44.98327" lon="1.12592">
        <ele>240</ele>
        <time>2014-08-18T11:37:30Z</time>
      </trkpt>
      <trkpt lat="44.98324" lon="1.12603">
        <ele>240</ele>
        <time>2014-08-18T11:37:32Z</time>
      </trkpt>
      <trkpt lat="44.98321" lon="1.12615">
        <ele>241</ele>
        <time>2014-08-18T11:37:34Z</time>
      </trkpt>
      <trkpt lat="44.98317" lon="1.12633">
        <ele>242</ele>
        <time>2014-08-18T11:37:37Z</time>
      </trkpt>
      <trkpt lat="44.98315" lon="1.1265">
        <ele>242</ele>
        <time>2014-08-18T11:37:40Z</time>
      </trkpt>
      <trkpt lat="44.98314" lon="1.12662">
        <ele>242</ele>
        <time>2014-08-18T11:37:42Z</time>
      </trkpt>
      <trkpt lat="44.98313" lon="1.12674">
        <ele>243</ele>
        <time>2014-08-18T11:37:44Z</time>
      </trkpt>
      <trkpt lat="44.98312" lon="1.12686">
        <ele>243</ele>
        <time>2014-08-18T11:37:46Z</time>
      </trkpt>
      <trkpt lat="44.98308" lon="1.12704">
        <ele>243</ele>
        <time>2014-08-18T11:37:49Z</time>
      </trkpt>
      <trkpt lat="44.98304" lon="1.12715">
        <ele>243</ele>
        <time>2014-08-18T11:37:51Z</time>
      </trkpt>
      <trkpt lat="44.98299" lon="1.12734">
        <ele>242</ele>
        <time>2014-08-18T11:37:54Z</time>
      </trkpt>
      <trkpt lat="44.98294" lon="1.12755">
        <ele>242</ele>
        <time>2014-08-18T11:37:57Z</time>
      </trkpt>
      <trkpt lat="44.98289" lon="1.12779">
        <ele>241</ele>
        <time>2014-08-18T11:38:00Z</time>
      </trkpt>
      <trkpt lat="44.98286" lon="1.12797">
        <ele>240</ele>
        <time>2014-08-18T11:38:02Z</time>
      </trkpt>
      <trkpt lat="44.98283" lon="1.12828">
        <ele>239</ele>
        <time>2014-08-18T11:38:05Z</time>
      </trkpt>
      <trkpt lat="44.98281" lon="1.12851">
        <ele>238</ele>
        <time>2014-08-18T11:38:07Z</time>
      </trkpt>
      <trkpt lat="44.98281" lon="1.12875">
        <ele>237</ele>
        <time>2014-08-18T11:38:09Z</time>
      </trkpt>
      <trkpt lat="44.98284" lon="1.12902">
        <ele>237</ele>
        <time>2014-08-18T11:38:11Z</time>
      </trkpt>
      <trkpt lat="44.98286" lon="1.12928">
        <ele>236</ele>
        <time>2014-08-18T11:38:13Z</time>
      </trkpt>
      <trkpt lat="44.98289" lon="1.12954">
        <ele>235</ele>
        <time>2014-08-18T11:38:15Z</time>
      </trkpt>
      <trkpt lat="44.98287" lon="1.1299">
        <ele>234</ele>
        <time>2014-08-18T11:38:18Z</time>
      </trkpt>
      <trkpt lat="44.98285" lon="1.13012">
        <ele>233</ele>
        <time>2014-08-18T11:38:20Z</time>
      </trkpt>
      <trkpt lat="44.98281" lon="1.13043">
        <ele>232</ele>
        <time>2014-08-18T11:38:23Z</time>
      </trkpt>
      <trkpt lat="44.98281" lon="1.13063">
        <ele>231</ele>
        <time>2014-08-18T11:38:25Z</time>
      </trkpt>
      <trkpt lat="44.98286" lon="1.13086">
        <ele>230</ele>
        <time>2014-08-18T11:38:28Z</time>
      </trkpt>
      <trkpt lat="44.9829" lon="1.13096">
        <ele>230</ele>
        <time>2014-08-18T11:38:30Z</time>
      </trkpt>
      <trkpt lat="44.98293" lon="1.13105">
        <ele>230</ele>
        <time>2014-08-18T11:38:32Z</time>
      </trkpt>
      <trkpt lat="44.98297" lon="1.13119">
        <ele>230</ele>
        <time>2014-08-18T11:38:35Z</time>
      </trkpt>
      <trkpt lat="44.98299" lon="1.13128">
        <ele>230</ele>
        <time>2014-08-18T11:38:37Z</time>
      </trkpt>
      <trkpt lat="44.98303" lon="1.13138">
        <ele>229</ele>
        <time>2014-08-18T11:38:39Z</time>
      </trkpt>
      <trkpt lat="44.98306" lon="1.13147">
        <ele>229</ele>
        <time>2014-08-18T11:38:41Z</time>
      </trkpt>
      <trkpt lat="44.98311" lon="1.13162">
        <ele>228</ele>
        <time>2014-08-18T11:38:44Z</time>
      </trkpt>
      <trkpt lat="44.98315" lon="1.13175">
        <ele>228</ele>
        <time>2014-08-18T11:38:46Z</time>
      </trkpt>
      <trkpt lat="44.9832" lon="1.13198">
        <ele>228</ele>
        <time>2014-08-18T11:38:49Z</time>
      </trkpt>
      <trkpt lat="44.98322" lon="1.13217">
        <ele>227</ele>
        <time>2014-08-18T11:38:51Z</time>
      </trkpt>
      <trkpt lat="44.98322" lon="1.1324">
        <ele>226</ele>
        <time>2014-08-18T11:38:53Z</time>
      </trkpt>
      <trkpt lat="44.98323" lon="1.13265">
        <ele>225</ele>
        <time>2014-08-18T11:38:55Z</time>
      </trkpt>
      <trkpt lat="44.98326" lon="1.13291">
        <ele>223</ele>
        <time>2014-08-18T11:38:57Z</time>
      </trkpt>
      <trkpt lat="44.98333" lon="1.13318">
        <ele>221</ele>
        <time>2014-08-18T11:38:59Z</time>
      </trkpt>
      <trkpt lat="44.98341" lon="1.13345">
        <ele>219</ele>
        <time>2014-08-18T11:39:01Z</time>
      </trkpt>
      <trkpt lat="44.98348" lon="1.13372">
        <ele>217</ele>
        <time>2014-08-18T11:39:03Z</time>
      </trkpt>
      <trkpt lat="44.98352" lon="1.13399">
        <ele>215</ele>
        <time>2014-08-18T11:39:05Z</time>
      </trkpt>
      <trkpt lat="44.98354" lon="1.13424">
        <ele>214</ele>
        <time>2014-08-18T11:39:07Z</time>
      </trkpt>
      <trkpt lat="44.98358" lon="1.1346">
        <ele>213</ele>
        <time>2014-08-18T11:39:10Z</time>
      </trkpt>
      <trkpt lat="44.98359" lon="1.13482">
        <ele>212</ele>
        <time>2014-08-18T11:39:12Z</time>
      </trkpt>
      <trkpt lat="44.98358" lon="1.13505">
        <ele>211</ele>
        <time>2014-08-18T11:39:14Z</time>
      </trkpt>
      <trkpt lat="44.98355" lon="1.13527">
        <ele>210</ele>
        <time>2014-08-18T11:39:16Z</time>
      </trkpt>
      <trkpt lat="44.98349" lon="1.13549">
        <ele>209</ele>
        <time>2014-08-18T11:39:18Z</time>
      </trkpt>
      <trkpt lat="44.9834" lon="1.13569">
        <ele>208</ele>
        <time>2014-08-18T11:39:20Z</time>
      </trkpt>
      <trkpt lat="44.98331" lon="1.13588">
        <ele>207</ele>
        <time>2014-08-18T11:39:22Z</time>
      </trkpt>
      <trkpt lat="44.98321" lon="1.13605">
        <ele>206</ele>
        <time>2014-08-18T11:39:24Z</time>
      </trkpt>
      <trkpt lat="44.98313" lon="1.13616">
        <ele>205</ele>
        <time>2014-08-18T11:39:26Z</time>
      </trkpt>
      <trkpt lat="44.98304" lon="1.13628">
        <ele>204</ele>
        <time>2014-08-18T11:39:29Z</time>
      </trkpt>
      <trkpt lat="44.98302" lon="1.13631">
        <ele>203</ele>
        <time>2014-08-18T11:39:31Z</time>
      </trkpt>
      <trkpt lat="44.98301" lon="1.13633">
        <ele>202</ele>
        <time>2014-08-18T11:39:33Z</time>
      </trkpt>
      <trkpt lat="44.98301" lon="1.13634">
        <ele>201</ele>
        <time>2014-08-18T11:39:36Z</time>
      </trkpt>
      <trkpt lat="44.98304" lon="1.13635">
        <ele>201</ele>
        <time>2014-08-18T11:39:39Z</time>
      </trkpt>
      <trkpt lat="44.98304" lon="1.13636">
        <ele>201</ele>
        <time>2014-08-18T11:39:41Z</time>
      </trkpt>
      <trkpt lat="44.98291" lon="1.13668">
        <ele>201</ele>
        <time>2014-08-18T11:39:44Z</time>
      </trkpt>
      <trkpt lat="44.98289" lon="1.13673">
        <ele>201</ele>
        <time>2014-08-18T11:39:46Z</time>
      </trkpt>
      <trkpt lat="44.98286" lon="1.13688">
        <ele>202</ele>
        <time>2014-08-18T11:39:49Z</time>
      </trkpt>
      <trkpt lat="44.98281" lon="1.13698">
        <ele>202</ele>
        <time>2014-08-18T11:39:51Z</time>
      </trkpt>
      <trkpt lat="44.98276" lon="1.1371">
        <ele>202</ele>
        <time>2014-08-18T11:39:53Z</time>
      </trkpt>
      <trkpt lat="44.9827" lon="1.13722">
        <ele>203</ele>
        <time>2014-08-18T11:39:55Z</time>
      </trkpt>
      <trkpt lat="44.98262" lon="1.1374">
        <ele>203</ele>
        <time>2014-08-18T11:39:58Z</time>
      </trkpt>
      <trkpt lat="44.98264" lon="1.13761">
        <ele>203</ele>
        <time>2014-08-18T11:40:01Z</time>
      </trkpt>
      <trkpt lat="44.9827" lon="1.13776">
        <ele>202</ele>
        <time>2014-08-18T11:40:03Z</time>
      </trkpt>
      <trkpt lat="44.98279" lon="1.13791">
        <ele>202</ele>
        <time>2014-08-18T11:40:05Z</time>
      </trkpt>
      <trkpt lat="44.98293" lon="1.13819">
        <ele>201</ele>
        <time>2014-08-18T11:40:08Z</time>
      </trkpt>
      <trkpt lat="44.98304" lon="1.13854">
        <ele>200</ele>
        <time>2014-08-18T11:40:11Z</time>
      </trkpt>
      <trkpt lat="44.98317" lon="1.13874">
        <ele>198</ele>
        <time>2014-08-18T11:40:13Z</time>
      </trkpt>
      <trkpt lat="44.98339" lon="1.13896">
        <ele>197</ele>
        <time>2014-08-18T11:40:16Z</time>
      </trkpt>
      <trkpt lat="44.9836" lon="1.13915">
        <ele>197</ele>
        <time>2014-08-18T11:40:19Z</time>
      </trkpt>
      <trkpt lat="44.98373" lon="1.13931">
        <ele>197</ele>
        <time>2014-08-18T11:40:21Z</time>
      </trkpt>
      <trkpt lat="44.98386" lon="1.13948">
        <ele>197</ele>
        <time>2014-08-18T11:40:23Z</time>
      </trkpt>
      <trkpt lat="44.98402" lon="1.13972">
        <ele>197</ele>
        <time>2014-08-18T11:40:26Z</time>
      </trkpt>
      <trkpt lat="44.9841" lon="1.13988">
        <ele>197</ele>
        <time>2014-08-18T11:40:28Z</time>
      </trkpt>
      <trkpt lat="44.98415" lon="1.14011">
        <ele>197</ele>
        <time>2014-08-18T11:40:31Z</time>
      </trkpt>
      <trkpt lat="44.98417" lon="1.1402">
        <ele>198</ele>
        <time>2014-08-18T11:40:33Z</time>
      </trkpt>
      <trkpt lat="44.98419" lon="1.14024">
        <ele>199</ele>
        <time>2014-08-18T11:40:36Z</time>
      </trkpt>
      <trkpt lat="44.98419" lon="1.14025">
        <ele>199</ele>
        <time>2014-08-18T11:40:38Z</time>
      </trkpt>
      <trkpt lat="44.98419" lon="1.14025">
        <ele>199</ele>
        <time>2014-08-18T11:40:41Z</time>
      </trkpt>
      <trkpt lat="44.98428" lon="1.14038">
        <ele>198</ele>
        <time>2014-08-18T11:40:43Z</time>
      </trkpt>
      <trkpt lat="44.98428" lon="1.14039">
        <ele>198</ele>
        <time>2014-08-18T11:40:45Z</time>
      </trkpt>
      <trkpt lat="44.9843" lon="1.1404">
        <ele>198</ele>
        <time>2014-08-18T11:40:47Z</time>
      </trkpt>
      <trkpt lat="44.98434" lon="1.14041">
        <ele>199</ele>
        <time>2014-08-18T11:40:50Z</time>
      </trkpt>
      <trkpt lat="44.98438" lon="1.14041">
        <ele>198</ele>
        <time>2014-08-18T11:40:52Z</time>
      </trkpt>
      <trkpt lat="44.98447" lon="1.14042">
        <ele>199</ele>
        <time>2014-08-18T11:40:55Z</time>
      </trkpt>
      <trkpt lat="44.98452" lon="1.14043">
        <ele>199</ele>
        <time>2014-08-18T11:40:57Z</time>
      </trkpt>
      <trkpt lat="44.98458" lon="1.14044">
        <ele>200</ele>
        <time>2014-08-18T11:40:59Z</time>
      </trkpt>
      <trkpt lat="44.9847" lon="1.14046">
        <ele>200</ele>
        <time>2014-08-18T11:41:02Z</time>
      </trkpt>
      <trkpt lat="44.98478" lon="1.14048">
        <ele>200</ele>
        <time>2014-08-18T11:41:04Z</time>
      </trkpt>
      <trkpt lat="44.98486" lon="1.1405">
        <ele>200</ele>
        <time>2014-08-18T11:41:06Z</time>
      </trkpt>
      <trkpt lat="44.98499" lon="1.14053">
        <ele>201</ele>
        <time>2014-08-18T11:41:09Z</time>
      </trkpt>
      <trkpt lat="44.98507" lon="1.14056">
        <ele>201</ele>
        <time>2014-08-18T11:41:11Z</time>
      </trkpt>
      <trkpt lat="44.9852" lon="1.14061">
        <ele>201</ele>
        <time>2014-08-18T11:41:14Z</time>
      </trkpt>
      <trkpt lat="44.98529" lon="1.14065">
        <ele>201</ele>
        <time>2014-08-18T11:41:16Z</time>
      </trkpt>
      <trkpt lat="44.98539" lon="1.1407">
        <ele>201</ele>
        <time>2014-08-18T11:41:18Z</time>
      </trkpt>
      <trkpt lat="44.98552" lon="1.14077">
        <ele>202</ele>
        <time>2014-08-18T11:41:21Z</time>
      </trkpt>
      <trkpt lat="44.98566" lon="1.14084">
        <ele>202</ele>
        <time>2014-08-18T11:41:24Z</time>
      </trkpt>
      <trkpt lat="44.98575" lon="1.1409">
        <ele>203</ele>
        <time>2014-08-18T11:41:26Z</time>
      </trkpt>
      <trkpt lat="44.98588" lon="1.14101">
        <ele>203</ele>
        <time>2014-08-18T11:41:29Z</time>
      </trkpt>
      <trkpt lat="44.98595" lon="1.1411">
        <ele>203</ele>
        <time>2014-08-18T11:41:31Z</time>
      </trkpt>
      <trkpt lat="44.98602" lon="1.14117">
        <ele>204</ele>
        <time>2014-08-18T11:41:33Z</time>
      </trkpt>
      <trkpt lat="44.9861" lon="1.14125">
        <ele>205</ele>
        <time>2014-08-18T11:41:35Z</time>
      </trkpt>
      <trkpt lat="44.98618" lon="1.14133">
        <ele>205</ele>
        <time>2014-08-18T11:41:37Z</time>
      </trkpt>
      <trkpt lat="44.98631" lon="1.14147">
        <ele>206</ele>
        <time>2014-08-18T11:41:40Z</time>
      </trkpt>
      <trkpt lat="44.98639" lon="1.14156">
        <ele>206</ele>
        <time>2014-08-18T11:41:42Z</time>
      </trkpt>
      <trkpt lat="44.98648" lon="1.14166">
        <ele>205</ele>
        <time>2014-08-18T11:41:44Z</time>
      </trkpt>
      <trkpt lat="44.98661" lon="1.14181">
        <ele>206</ele>
        <time>2014-08-18T11:41:47Z</time>
      </trkpt>
      <trkpt lat="44.9867" lon="1.14189">
        <ele>206</ele>
        <time>2014-08-18T11:41:49Z</time>
      </trkpt>
      <trkpt lat="44.98678" lon="1.14198">
        <ele>206</ele>
        <time>2014-08-18T11:41:51Z</time>
      </trkpt>
      <trkpt lat="44.98685" lon="1.14207">
        <ele>206</ele>
        <time>2014-08-18T11:41:53Z</time>
      </trkpt>
      <trkpt lat="44.98692" lon="1.14215">
        <ele>206</ele>
        <time>2014-08-18T11:41:55Z</time>
      </trkpt>
      <trkpt lat="44.987" lon="1.14223">
        <ele>206</ele>
        <time>2014-08-18T11:41:57Z</time>
      </trkpt>
      <trkpt lat="44.9871" lon="1.14227">
        <ele>205</ele>
        <time>2014-08-18T11:41:59Z</time>
      </trkpt>
      <trkpt lat="44.98719" lon="1.14231">
        <ele>205</ele>
        <time>2014-08-18T11:42:01Z</time>
      </trkpt>
      <trkpt lat="44.98728" lon="1.1423">
        <ele>204</ele>
        <time>2014-08-18T11:42:03Z</time>
      </trkpt>
      <trkpt lat="44.98746" lon="1.14225">
        <ele>204</ele>
        <time>2014-08-18T11:42:06Z</time>
      </trkpt>
      <trkpt lat="44.98762" lon="1.1422">
        <ele>204</ele>
        <time>2014-08-18T11:42:09Z</time>
      </trkpt>
      <trkpt lat="44.98774" lon="1.14218">
        <ele>203</ele>
        <time>2014-08-18T11:42:11Z</time>
      </trkpt>
      <trkpt lat="44.98786" lon="1.14215">
        <ele>203</ele>
        <time>2014-08-18T11:42:13Z</time>
      </trkpt>
      <trkpt lat="44.98799" lon="1.14214">
        <ele>202</ele>
        <time>2014-08-18T11:42:15Z</time>
      </trkpt>
      <trkpt lat="44.98814" lon="1.14213">
        <ele>202</ele>
        <time>2014-08-18T11:42:17Z</time>
      </trkpt>
      <trkpt lat="44.98828" lon="1.14215">
        <ele>201</ele>
        <time>2014-08-18T11:42:19Z</time>
      </trkpt>
      <trkpt lat="44.98842" lon="1.14217">
        <ele>200</ele>
        <time>2014-08-18T11:42:21Z</time>
      </trkpt>
      <trkpt lat="44.98856" lon="1.14219">
        <ele>200</ele>
        <time>2014-08-18T11:42:23Z</time>
      </trkpt>
      <trkpt lat="44.98869" lon="1.14223">
        <ele>199</ele>
        <time>2014-08-18T11:42:25Z</time>
      </trkpt>
      <trkpt lat="44.98883" lon="1.14229">
        <ele>199</ele>
        <time>2014-08-18T11:42:27Z</time>
      </trkpt>
      <trkpt lat="44.98896" lon="1.14237">
        <ele>198</ele>
        <time>2014-08-18T11:42:29Z</time>
      </trkpt>
      <trkpt lat="44.98917" lon="1.14253">
        <ele>197</ele>
        <time>2014-08-18T11:42:32Z</time>
      </trkpt>
      <trkpt lat="44.98933" lon="1.14265">
        <ele>196</ele>
        <time>2014-08-18T11:42:34Z</time>
      </trkpt>
      <trkpt lat="44.98949" lon="1.14281">
        <ele>194</ele>
        <time>2014-08-18T11:42:36Z</time>
      </trkpt>
      <trkpt lat="44.98963" lon="1.14298">
        <ele>192</ele>
        <time>2014-08-18T11:42:38Z</time>
      </trkpt>
      <trkpt lat="44.98976" lon="1.14314">
        <ele>191</ele>
        <time>2014-08-18T11:42:40Z</time>
      </trkpt>
      <trkpt lat="44.98986" lon="1.14327">
        <ele>190</ele>
        <time>2014-08-18T11:42:42Z</time>
      </trkpt>
      <trkpt lat="44.98993" lon="1.14333">
        <ele>189</ele>
        <time>2014-08-18T11:42:44Z</time>
      </trkpt>
      <trkpt lat="44.99002" lon="1.14333">
        <ele>188</ele>
        <time>2014-08-18T11:42:46Z</time>
      </trkpt>
      <trkpt lat="44.99012" lon="1.1433">
        <ele>187</ele>
        <time>2014-08-18T11:42:48Z</time>
      </trkpt>
      <trkpt lat="44.99024" lon="1.14325">
        <ele>187</ele>
        <time>2014-08-18T11:42:50Z</time>
      </trkpt>
      <trkpt lat="44.99042" lon="1.14313">
        <ele>187</ele>
        <time>2014-08-18T11:42:53Z</time>
      </trkpt>
      <trkpt lat="44.99055" lon="1.14304">
        <ele>186</ele>
        <time>2014-08-18T11:42:55Z</time>
      </trkpt>
      <trkpt lat="44.99076" lon="1.1429">
        <ele>186</ele>
        <time>2014-08-18T11:42:58Z</time>
      </trkpt>
      <trkpt lat="44.99091" lon="1.14283">
        <ele>185</ele>
        <time>2014-08-18T11:43:00Z</time>
      </trkpt>
      <trkpt lat="44.99108" lon="1.14277">
        <ele>185</ele>
        <time>2014-08-18T11:43:02Z</time>
      </trkpt>
      <trkpt lat="44.99124" lon="1.14271">
        <ele>184</ele>
        <time>2014-08-18T11:43:04Z</time>
      </trkpt>
      <trkpt lat="44.9914" lon="1.14266">
        <ele>183</ele>
        <time>2014-08-18T11:43:06Z</time>
      </trkpt>
      <trkpt lat="44.99156" lon="1.14261">
        <ele>182</ele>
        <time>2014-08-18T11:43:08Z</time>
      </trkpt>
      <trkpt lat="44.99172" lon="1.14254">
        <ele>181</ele>
        <time>2014-08-18T11:43:10Z</time>
      </trkpt>
      <trkpt lat="44.99188" lon="1.14248">
        <ele>181</ele>
        <time>2014-08-18T11:43:12Z</time>
      </trkpt>
      <trkpt lat="44.99205" lon="1.14244">
        <ele>180</ele>
        <time>2014-08-18T11:43:14Z</time>
      </trkpt>
      <trkpt lat="44.99223" lon="1.14246">
        <ele>179</ele>
        <time>2014-08-18T11:43:16Z</time>
      </trkpt>
      <trkpt lat="44.99242" lon="1.14252">
        <ele>178</ele>
        <time>2014-08-18T11:43:18Z</time>
      </trkpt>
      <trkpt lat="44.99263" lon="1.14258">
        <ele>177</ele>
        <time>2014-08-18T11:43:20Z</time>
      </trkpt>
      <trkpt lat="44.99295" lon="1.1427">
        <ele>175</ele>
        <time>2014-08-18T11:43:23Z</time>
      </trkpt>
      <trkpt lat="44.99317" lon="1.14279">
        <ele>173</ele>
        <time>2014-08-18T11:43:25Z</time>
      </trkpt>
      <trkpt lat="44.9934" lon="1.14283">
        <ele>171</ele>
        <time>2014-08-18T11:43:27Z</time>
      </trkpt>
      <trkpt lat="44.99376" lon="1.1427">
        <ele>167</ele>
        <time>2014-08-18T11:43:30Z</time>
      </trkpt>
      <trkpt lat="44.99398" lon="1.14252">
        <ele>165</ele>
        <time>2014-08-18T11:43:32Z</time>
      </trkpt>
      <trkpt lat="44.99417" lon="1.14228">
        <ele>162</ele>
        <time>2014-08-18T11:43:34Z</time>
      </trkpt>
      <trkpt lat="44.9944" lon="1.14182">
        <ele>159</ele>
        <time>2014-08-18T11:43:37Z</time>
      </trkpt>
      <trkpt lat="44.99456" lon="1.1413">
        <ele>155</ele>
        <time>2014-08-18T11:43:40Z</time>
      </trkpt>
      <trkpt lat="44.99467" lon="1.14096">
        <ele>152</ele>
        <time>2014-08-18T11:43:42Z</time>
      </trkpt>
      <trkpt lat="44.9949" lon="1.14049">
        <ele>149</ele>
        <time>2014-08-18T11:43:45Z</time>
      </trkpt>
      <trkpt lat="44.9951" lon="1.14023">
        <ele>146</ele>
        <time>2014-08-18T11:43:47Z</time>
      </trkpt>
      <trkpt lat="44.99532" lon="1.13997">
        <ele>143</ele>
        <time>2014-08-18T11:43:49Z</time>
      </trkpt>
      <trkpt lat="44.99567" lon="1.13963">
        <ele>140</ele>
        <time>2014-08-18T11:43:52Z</time>
      </trkpt>
      <trkpt lat="44.99606" lon="1.13939">
        <ele>135</ele>
        <time>2014-08-18T11:43:55Z</time>
      </trkpt>
      <trkpt lat="44.99648" lon="1.1392">
        <ele>131</ele>
        <time>2014-08-18T11:43:58Z</time>
      </trkpt>
      <trkpt lat="44.99674" lon="1.13901">
        <ele>128</ele>
        <time>2014-08-18T11:44:00Z</time>
      </trkpt>
      <trkpt lat="44.99696" lon="1.13876">
        <ele>126</ele>
        <time>2014-08-18T11:44:02Z</time>
      </trkpt>
      <trkpt lat="44.99728" lon="1.13838">
        <ele>122</ele>
        <time>2014-08-18T11:44:05Z</time>
      </trkpt>
      <trkpt lat="44.9976" lon="1.13804">
        <ele>118</ele>
        <time>2014-08-18T11:44:08Z</time>
      </trkpt>
      <trkpt lat="44.99782" lon="1.13784">
        <ele>116</ele>
        <time>2014-08-18T11:44:10Z</time>
      </trkpt>
      <trkpt lat="44.99815" lon="1.13767">
        <ele>114</ele>
        <time>2014-08-18T11:44:13Z</time>
      </trkpt>
      <trkpt lat="44.99839" lon="1.13758">
        <ele>112</ele>
        <time>2014-08-18T11:44:15Z</time>
      </trkpt>
      <trkpt lat="44.99863" lon="1.1375">
        <ele>110</ele>
        <time>2014-08-18T11:44:17Z</time>
      </trkpt>
      <trkpt lat="44.99884" lon="1.13739">
        <ele>107</ele>
        <time>2014-08-18T11:44:19Z</time>
      </trkpt>
      <trkpt lat="44.99896" lon="1.13714">
        <ele>105</ele>
        <time>2014-08-18T11:44:21Z</time>
      </trkpt>
      <trkpt lat="44.99898" lon="1.1367">
        <ele>102</ele>
        <time>2014-08-18T11:44:24Z</time>
      </trkpt>
      <trkpt lat="44.99892" lon="1.13641">
        <ele>101</ele>
        <time>2014-08-18T11:44:26Z</time>
      </trkpt>
      <trkpt lat="44.99888" lon="1.13614">
        <ele>100</ele>
        <time>2014-08-18T11:44:28Z</time>
      </trkpt>
      <trkpt lat="44.99884" lon="1.13589">
        <ele>99</ele>
        <time>2014-08-18T11:44:30Z</time>
      </trkpt>
      <trkpt lat="44.99884" lon="1.13555">
        <ele>99</ele>
        <time>2014-08-18T11:44:33Z</time>
      </trkpt>
      <trkpt lat="44.999" lon="1.1354">
        <ele>98</ele>
        <time>2014-08-18T11:44:36Z</time>
      </trkpt>
      <trkpt lat="44.99914" lon="1.13539">
        <ele>98</ele>
        <time>2014-08-18T11:44:38Z</time>
      </trkpt>
      <trkpt lat="44.99932" lon="1.13542">
        <ele>98</ele>
        <time>2014-08-18T11:44:41Z</time>
      </trkpt>
      <trkpt lat="44.99945" lon="1.13543">
        <ele>97</ele>
        <time>2014-08-18T11:44:43Z</time>
      </trkpt>
      <trkpt lat="44.99959" lon="1.13545">
        <ele>97</ele>
        <time>2014-08-18T11:44:45Z</time>
      </trkpt>
      <trkpt lat="44.9998" lon="1.13546">
        <ele>96</ele>
        <time>2014-08-18T11:44:48Z</time>
      </trkpt>
      <trkpt lat="45.00001" lon="1.1355">
        <ele>95</ele>
        <time>2014-08-18T11:44:51Z</time>
      </trkpt>
      <trkpt lat="45.00016" lon="1.13556">
        <ele>95</ele>
        <time>2014-08-18T11:44:53Z</time>
      </trkpt>
      <trkpt lat="45.00031" lon="1.13562">
        <ele>94</ele>
        <time>2014-08-18T11:44:55Z</time>
      </trkpt>
      <trkpt lat="45.00055" lon="1.13571">
        <ele>94</ele>
        <time>2014-08-18T11:44:58Z</time>
      </trkpt>
      <trkpt lat="45.00077" lon="1.1358">
        <ele>94</ele>
        <time>2014-08-18T11:45:01Z</time>
      </trkpt>
      <trkpt lat="45.00092" lon="1.13586">
        <ele>94</ele>
        <time>2014-08-18T11:45:03Z</time>
      </trkpt>
      <trkpt lat="45.00114" lon="1.13593">
        <ele>93</ele>
        <time>2014-08-18T11:45:06Z</time>
      </trkpt>
      <trkpt lat="45.00127" lon="1.13597">
        <ele>93</ele>
        <time>2014-08-18T11:45:08Z</time>
      </trkpt>
      <trkpt lat="45.0014" lon="1.13599">
        <ele>92</ele>
        <time>2014-08-18T11:45:10Z</time>
      </trkpt>
      <trkpt lat="45.00152" lon="1.13601">
        <ele>92</ele>
        <time>2014-08-18T11:45:12Z</time>
      </trkpt>
      <trkpt lat="45.00162" lon="1.13598">
        <ele>92</ele>
        <time>2014-08-18T11:45:14Z</time>
      </trkpt>
      <trkpt lat="45.00173" lon="1.13593">
        <ele>92</ele>
        <time>2014-08-18T11:45:16Z</time>
      </trkpt>
      <trkpt lat="45.0019" lon="1.13589">
        <ele>91</ele>
        <time>2014-08-18T11:45:19Z</time>
      </trkpt>
      <trkpt lat="45.00201" lon="1.13587">
        <ele>91</ele>
        <time>2014-08-18T11:45:21Z</time>
      </trkpt>
      <trkpt lat="45.00212" lon="1.13587">
        <ele>91</ele>
        <time>2014-08-18T11:45:24Z</time>
      </trkpt>
      <trkpt lat="45.00217" lon="1.13585">
        <ele>91</ele>
        <time>2014-08-18T11:45:26Z</time>
      </trkpt>
      <trkpt lat="45.0022" lon="1.13581">
        <ele>91</ele>
        <time>2014-08-18T11:45:28Z</time>
      </trkpt>
      <trkpt lat="45.00218" lon="1.13572">
        <ele>91</ele>
        <time>2014-08-18T11:45:31Z</time>
      </trkpt>
      <trkpt lat="45.00215" lon="1.13559">
        <ele>91</ele>
        <time>2014-08-18T11:45:34Z</time>
      </trkpt>
      <trkpt lat="45.00212" lon="1.13548">
        <ele>91</ele>
        <time>2014-08-18T11:45:36Z</time>
      </trkpt>
      <trkpt lat="45.00208" lon="1.13536">
        <ele>91</ele>
        <time>2014-08-18T11:45:38Z</time>
      </trkpt>
      <trkpt lat="45.00202" lon="1.13514">
        <ele>91</ele>
        <time>2014-08-18T11:45:41Z</time>
      </trkpt>
      <trkpt lat="45.00202" lon="1.1349">
        <ele>90</ele>
        <time>2014-08-18T11:45:44Z</time>
      </trkpt>
      <trkpt lat="45.00206" lon="1.13465">
        <ele>89</ele>
        <time>2014-08-18T11:45:47Z</time>
      </trkpt>
      <trkpt lat="45.0021" lon="1.13446">
        <ele>89</ele>
        <time>2014-08-18T11:45:49Z</time>
      </trkpt>
      <trkpt lat="45.00212" lon="1.13426">
        <ele>89</ele>
        <time>2014-08-18T11:45:51Z</time>
      </trkpt>
      <trkpt lat="45.00217" lon="1.13398">
        <ele>89</ele>
        <time>2014-08-18T11:45:54Z</time>
      </trkpt>
      <trkpt lat="45.00222" lon="1.13371">
        <ele>88</ele>
        <time>2014-08-18T11:45:57Z</time>
      </trkpt>
      <trkpt lat="45.00228" lon="1.13345">
        <ele>88</ele>
        <time>2014-08-18T11:46:00Z</time>
      </trkpt>
      <trkpt lat="45.00234" lon="1.13319">
        <ele>88</ele>
        <time>2014-08-18T11:46:03Z</time>
      </trkpt>
      <trkpt lat="45.0024" lon="1.13295">
        <ele>88</ele>
        <time>2014-08-18T11:46:06Z</time>
      </trkpt>
      <trkpt lat="45.00245" lon="1.13281">
        <ele>87</ele>
        <time>2014-08-18T11:46:08Z</time>
      </trkpt>
      <trkpt lat="45.00251" lon="1.1327">
        <ele>88</ele>
        <time>2014-08-18T11:46:10Z</time>
      </trkpt>
      <trkpt lat="45.00261" lon="1.1326">
        <ele>88</ele>
        <time>2014-08-18T11:46:13Z</time>
      </trkpt>
      <trkpt lat="45.00264" lon="1.13258">
        <ele>89</ele>
        <time>2014-08-18T11:46:15Z</time>
      </trkpt>
      <trkpt lat="45.00267" lon="1.13255">
        <ele>89</ele>
        <time>2014-08-18T11:46:17Z</time>
      </trkpt>
      <trkpt lat="45.00272" lon="1.13252">
        <ele>89</ele>
        <time>2014-08-18T11:46:19Z</time>
      </trkpt>
      <trkpt lat="45.0028" lon="1.13246">
        <ele>88</ele>
        <time>2014-08-18T11:46:22Z</time>
      </trkpt>
      <trkpt lat="45.00292" lon="1.13232">
        <ele>87</ele>
        <time>2014-08-18T11:46:25Z</time>
      </trkpt>
      <trkpt lat="45.00299" lon="1.13218">
        <ele>86</ele>
        <time>2014-08-18T11:46:27Z</time>
      </trkpt>
      <trkpt lat="45.00307" lon="1.13207">
        <ele>85</ele>
        <time>2014-08-18T11:46:29Z</time>
      </trkpt>
      <trkpt lat="45.00313" lon="1.13206">
        <ele>85</ele>
        <time>2014-08-18T11:46:31Z</time>
      </trkpt>
      <trkpt lat="45.00318" lon="1.13209">
        <ele>85</ele>
        <time>2014-08-18T11:46:33Z</time>
      </trkpt>
      <trkpt lat="45.00325" lon="1.13216">
        <ele>86</ele>
        <time>2014-08-18T11:46:36Z</time>
      </trkpt>
      <trkpt lat="45.00328" lon="1.13219">
        <ele>86</ele>
        <time>2014-08-18T11:46:38Z</time>
      </trkpt>
      <trkpt lat="45.00333" lon="1.13224">
        <ele>87</ele>
        <time>2014-08-18T11:46:41Z</time>
      </trkpt>
      <trkpt lat="45.00338" lon="1.13231">
        <ele>87</ele>
        <time>2014-08-18T11:46:44Z</time>
      </trkpt>
      <trkpt lat="45.00346" lon="1.13241">
        <ele>88</ele>
        <time>2014-08-18T11:46:47Z</time>
      </trkpt>
      <trkpt lat="45.00353" lon="1.13252">
        <ele>89</ele>
        <time>2014-08-18T11:46:50Z</time>
      </trkpt>
      <trkpt lat="45.00358" lon="1.13259">
        <ele>90</ele>
        <time>2014-08-18T11:46:52Z</time>
      </trkpt>
      <trkpt lat="45.00365" lon="1.13271">
        <ele>90</ele>
        <time>2014-08-18T11:46:55Z</time>
      </trkpt>
      <trkpt lat="45.00373" lon="1.13285">
        <ele>91</ele>
        <time>2014-08-18T11:46:58Z</time>
      </trkpt>
      <trkpt lat="45.0038" lon="1.13301">
        <ele>91</ele>
        <time>2014-08-18T11:47:01Z</time>
      </trkpt>
      <trkpt lat="45.00389" lon="1.13317">
        <ele>92</ele>
        <time>2014-08-18T11:47:04Z</time>
      </trkpt>
      <trkpt lat="45.00397" lon="1.13331">
        <ele>93</ele>
        <time>2014-08-18T11:47:07Z</time>
      </trkpt>
      <trkpt lat="45.00402" lon="1.1334">
        <ele>93</ele>
        <time>2014-08-18T11:47:09Z</time>
      </trkpt>
      <trkpt lat="45.00405" lon="1.13348">
        <ele>94</ele>
        <time>2014-08-18T11:47:11Z</time>
      </trkpt>
      <trkpt lat="45.00409" lon="1.13357">
        <ele>94</ele>
        <time>2014-08-18T11:47:14Z</time>
      </trkpt>
      <trkpt lat="45.00413" lon="1.13363">
        <ele>95</ele>
        <time>2014-08-18T11:47:16Z</time>
      </trkpt>
      <trkpt lat="45.00418" lon="1.1337">
        <ele>95</ele>
        <time>2014-08-18T11:47:19Z</time>
      </trkpt>
      <trkpt lat="45.00421" lon="1.13373">
        <ele>95</ele>
        <time>2014-08-18T11:47:21Z</time>
      </trkpt>
      <trkpt lat="45.00428" lon="1.13378">
        <ele>96</ele>
        <time>2014-08-18T11:47:24Z</time>
      </trkpt>
      <trkpt lat="45.00433" lon="1.13381">
        <ele>97</ele>
        <time>2014-08-18T11:47:26Z</time>
      </trkpt>
      <trkpt lat="45.00439" lon="1.13383">
        <ele>97</ele>
        <time>2014-08-18T11:47:28Z</time>
      </trkpt>
      <trkpt lat="45.00445" lon="1.13385">
        <ele>97</ele>
        <time>2014-08-18T11:47:30Z</time>
      </trkpt>
      <trkpt lat="45.00456" lon="1.13383">
        <ele>98</ele>
        <time>2014-08-18T11:47:33Z</time>
      </trkpt>
      <trkpt lat="45.00467" lon="1.13383">
        <ele>98</ele>
        <time>2014-08-18T11:47:36Z</time>
      </trkpt>
      <trkpt lat="45.00477" lon="1.13383">
        <ele>99</ele>
        <time>2014-08-18T11:47:39Z</time>
      </trkpt>
      <trkpt lat="45.00483" lon="1.13382">
        <ele>99</ele>
        <time>2014-08-18T11:47:41Z</time>
      </trkpt>
      <trkpt lat="45.00489" lon="1.13382">
        <ele>100</ele>
        <time>2014-08-18T11:47:43Z</time>
      </trkpt>
      <trkpt lat="45.00498" lon="1.13381">
        <ele>100</ele>
        <time>2014-08-18T11:47:46Z</time>
      </trkpt>
      <trkpt lat="45.00504" lon="1.13381">
        <ele>101</ele>
        <time>2014-08-18T11:47:48Z</time>
      </trkpt>
      <trkpt lat="45.00514" lon="1.13378">
        <ele>101</ele>
        <time>2014-08-18T11:47:51Z</time>
      </trkpt>
      <trkpt lat="45.0052" lon="1.13377">
        <ele>102</ele>
        <time>2014-08-18T11:47:53Z</time>
      </trkpt>
      <trkpt lat="45.00526" lon="1.13374">
        <ele>102</ele>
        <time>2014-08-18T11:47:56Z</time>
      </trkpt>
      <trkpt lat="45.00531" lon="1.13372">
        <ele>103</ele>
        <time>2014-08-18T11:47:58Z</time>
      </trkpt>
      <trkpt lat="45.00537" lon="1.13368">
        <ele>104</ele>
        <time>2014-08-18T11:48:01Z</time>
      </trkpt>
      <trkpt lat="45.00542" lon="1.13365">
        <ele>105</ele>
        <time>2014-08-18T11:48:04Z</time>
      </trkpt>
      <trkpt lat="45.00545" lon="1.13363">
        <ele>106</ele>
        <time>2014-08-18T11:48:06Z</time>
      </trkpt>
      <trkpt lat="45.00549" lon="1.13361">
        <ele>106</ele>
        <time>2014-08-18T11:48:08Z</time>
      </trkpt>
      <trkpt lat="45.00552" lon="1.13358">
        <ele>106</ele>
        <time>2014-08-18T11:48:10Z</time>
      </trkpt>
      <trkpt lat="45.00557" lon="1.13354">
        <ele>107</ele>
        <time>2014-08-18T11:48:13Z</time>
      </trkpt>
      <trkpt lat="45.00563" lon="1.13351">
        <ele>107</ele>
        <time>2014-08-18T11:48:16Z</time>
      </trkpt>
      <trkpt lat="45.00567" lon="1.1335">
        <ele>108</ele>
        <time>2014-08-18T11:48:18Z</time>
      </trkpt>
      <trkpt lat="45.00571" lon="1.13348">
        <ele>108</ele>
        <time>2014-08-18T11:48:20Z</time>
      </trkpt>
      <trkpt lat="45.00576" lon="1.13346">
        <ele>109</ele>
        <time>2014-08-18T11:48:22Z</time>
      </trkpt>
      <trkpt lat="45.0058" lon="1.13345">
        <ele>109</ele>
        <time>2014-08-18T11:48:24Z</time>
      </trkpt>
      <trkpt lat="45.00587" lon="1.13343">
        <ele>110</ele>
        <time>2014-08-18T11:48:27Z</time>
      </trkpt>
      <trkpt lat="45.00594" lon="1.13341">
        <ele>110</ele>
        <time>2014-08-18T11:48:30Z</time>
      </trkpt>
      <trkpt lat="45.00598" lon="1.13342">
        <ele>111</ele>
        <time>2014-08-18T11:48:32Z</time>
      </trkpt>
      <trkpt lat="45.00605" lon="1.13342">
        <ele>111</ele>
        <time>2014-08-18T11:48:35Z</time>
      </trkpt>
      <trkpt lat="45.00608" lon="1.13342">
        <ele>112</ele>
        <time>2014-08-18T11:48:37Z</time>
      </trkpt>
      <trkpt lat="45.00613" lon="1.1334">
        <ele>113</ele>
        <time>2014-08-18T11:48:40Z</time>
      </trkpt>
      <trkpt lat="45.00617" lon="1.1334">
        <ele>113</ele>
        <time>2014-08-18T11:48:42Z</time>
      </trkpt>
      <trkpt lat="45.00621" lon="1.13338">
        <ele>114</ele>
        <time>2014-08-18T11:48:44Z</time>
      </trkpt>
      <trkpt lat="45.00626" lon="1.13337">
        <ele>114</ele>
        <time>2014-08-18T11:48:46Z</time>
      </trkpt>
      <trkpt lat="45.00632" lon="1.13336">
        <ele>115</ele>
        <time>2014-08-18T11:48:49Z</time>
      </trkpt>
      <trkpt lat="45.00636" lon="1.13336">
        <ele>116</ele>
        <time>2014-08-18T11:48:51Z</time>
      </trkpt>
      <trkpt lat="45.0064" lon="1.13335">
        <ele>117</ele>
        <time>2014-08-18T11:48:53Z</time>
      </trkpt>
      <trkpt lat="45.00645" lon="1.13334">
        <ele>118</ele>
        <time>2014-08-18T11:48:56Z</time>
      </trkpt>
      <trkpt lat="45.0065" lon="1.13334">
        <ele>119</ele>
        <time>2014-08-18T11:48:59Z</time>
      </trkpt>
      <trkpt lat="45.00653" lon="1.13333">
        <ele>120</ele>
        <time>2014-08-18T11:49:01Z</time>
      </trkpt>
      <trkpt lat="45.00658" lon="1.13333">
        <ele>120</ele>
        <time>2014-08-18T11:49:04Z</time>
      </trkpt>
      <trkpt lat="45.00662" lon="1.13334">
        <ele>120</ele>
        <time>2014-08-18T11:49:06Z</time>
      </trkpt>
      <trkpt lat="45.00666" lon="1.13335">
        <ele>120</ele>
        <time>2014-08-18T11:49:08Z</time>
      </trkpt>
      <trkpt lat="45.00669" lon="1.13335">
        <ele>122</ele>
        <time>2014-08-18T11:49:11Z</time>
      </trkpt>
      <trkpt lat="45.00672" lon="1.13335">
        <ele>123</ele>
        <time>2014-08-18T11:49:13Z</time>
      </trkpt>
      <trkpt lat="45.00674" lon="1.13336">
        <ele>123</ele>
        <time>2014-08-18T11:49:15Z</time>
      </trkpt>
      <trkpt lat="45.00678" lon="1.13336">
        <ele>124</ele>
        <time>2014-08-18T11:49:18Z</time>
      </trkpt>
      <trkpt lat="45.00681" lon="1.13335">
        <ele>124</ele>
        <time>2014-08-18T11:49:21Z</time>
      </trkpt>
      <trkpt lat="45.00682" lon="1.13334">
        <ele>125</ele>
        <time>2014-08-18T11:49:23Z</time>
      </trkpt>
      <trkpt lat="45.00685" lon="1.13334">
        <ele>126</ele>
        <time>2014-08-18T11:49:25Z</time>
      </trkpt>
      <trkpt lat="45.00688" lon="1.13335">
        <ele>126</ele>
        <time>2014-08-18T11:49:27Z</time>
      </trkpt>
      <trkpt lat="45.00691" lon="1.13335">
        <ele>126</ele>
        <time>2014-08-18T11:49:30Z</time>
      </trkpt>
      <trkpt lat="45.00693" lon="1.13336">
        <ele>127</ele>
        <time>2014-08-18T11:49:32Z</time>
      </trkpt>
      <trkpt lat="45.00697" lon="1.13335">
        <ele>127</ele>
        <time>2014-08-18T11:49:35Z</time>
      </trkpt>
      <trkpt lat="45.007" lon="1.13335">
        <ele>127</ele>
        <time>2014-08-18T11:49:37Z</time>
      </trkpt>
      <trkpt lat="45.00705" lon="1.13336">
        <ele>128</ele>
        <time>2014-08-18T11:49:39Z</time>
      </trkpt>
      <trkpt lat="45.00709" lon="1.13336">
        <ele>129</ele>
        <time>2014-08-18T11:49:41Z</time>
      </trkpt>
      <trkpt lat="45.00714" lon="1.13335">
        <ele>130</ele>
        <time>2014-08-18T11:49:44Z</time>
      </trkpt>
      <trkpt lat="45.00717" lon="1.13336">
        <ele>130</ele>
        <time>2014-08-18T11:49:46Z</time>
      </trkpt>
      <trkpt lat="45.0072" lon="1.13337">
        <ele>132</ele>
        <time>2014-08-18T11:49:48Z</time>
      </trkpt>
      <trkpt lat="45.00723" lon="1.13338">
        <ele>133</ele>
        <time>2014-08-18T11:49:50Z</time>
      </trkpt>
      <trkpt lat="45.00725" lon="1.1334">
        <ele>134</ele>
        <time>2014-08-18T11:49:52Z</time>
      </trkpt>
      <trkpt lat="45.00727" lon="1.13342">
        <ele>135</ele>
        <time>2014-08-18T11:49:54Z</time>
      </trkpt>
      <trkpt lat="45.00728" lon="1.13344">
        <ele>136</ele>
        <time>2014-08-18T11:49:56Z</time>
      </trkpt>
      <trkpt lat="45.00728" lon="1.13346">
        <ele>137</ele>
        <time>2014-08-18T11:49:58Z</time>
      </trkpt>
      <trkpt lat="45.00727" lon="1.13349">
        <ele>137</ele>
        <time>2014-08-18T11:50:00Z</time>
      </trkpt>
      <trkpt lat="45.00727" lon="1.13351">
        <ele>138</ele>
        <time>2014-08-18T11:50:02Z</time>
      </trkpt>
      <trkpt lat="45.00726" lon="1.13354">
        <ele>138</ele>
        <time>2014-08-18T11:50:04Z</time>
      </trkpt>
      <trkpt lat="45.00726" lon="1.13357">
        <ele>139</ele>
        <time>2014-08-18T11:50:07Z</time>
      </trkpt>
      <trkpt lat="45.00726" lon="1.13361">
        <ele>139</ele>
        <time>2014-08-18T11:50:09Z</time>
      </trkpt>
      <trkpt lat="45.00725" lon="1.13365">
        <ele>140</ele>
        <time>2014-08-18T11:50:11Z</time>
      </trkpt>
      <trkpt lat="45.00724" lon="1.13369">
        <ele>140</ele>
        <time>2014-08-18T11:50:13Z</time>
      </trkpt>
      <trkpt lat="45.00723" lon="1.13373">
        <ele>141</ele>
        <time>2014-08-18T11:50:16Z</time>
      </trkpt>
      <trkpt lat="45.00722" lon="1.13379">
        <ele>141</ele>
        <time>2014-08-18T11:50:19Z</time>
      </trkpt>
      <trkpt lat="45.0072" lon="1.13381">
        <ele>142</ele>
        <time>2014-08-18T11:50:21Z</time>
      </trkpt>
      <trkpt lat="45.00717" lon="1.13386">
        <ele>142</ele>
        <time>2014-08-18T11:50:24Z</time>
      </trkpt>
      <trkpt lat="45.00714" lon="1.13391">
        <ele>142</ele>
        <time>2014-08-18T11:50:26Z</time>
      </trkpt>
      <trkpt lat="45.00712" lon="1.13396">
        <ele>143</ele>
        <time>2014-08-18T11:50:28Z</time>
      </trkpt>
      <trkpt lat="45.00711" lon="1.13401">
        <ele>143</ele>
        <time>2014-08-18T11:50:30Z</time>
      </trkpt>
      <trkpt lat="45.00707" lon="1.13412">
        <ele>143</ele>
        <time>2014-08-18T11:50:33Z</time>
      </trkpt>
      <trkpt lat="45.00706" lon="1.13421">
        <ele>143</ele>
        <time>2014-08-18T11:50:36Z</time>
      </trkpt>
      <trkpt lat="45.00705" lon="1.13428">
        <ele>144</ele>
        <time>2014-08-18T11:50:39Z</time>
      </trkpt>
      <trkpt lat="45.00704" lon="1.13433">
        <ele>144</ele>
        <time>2014-08-18T11:50:41Z</time>
      </trkpt>
      <trkpt lat="45.00702" lon="1.13438">
        <ele>145</ele>
        <time>2014-08-18T11:50:43Z</time>
      </trkpt>
      <trkpt lat="45.00698" lon="1.13448">
        <ele>146</ele>
        <time>2014-08-18T11:50:46Z</time>
      </trkpt>
      <trkpt lat="45.00695" lon="1.13454">
        <ele>146</ele>
        <time>2014-08-18T11:50:48Z</time>
      </trkpt>
      <trkpt lat="45.00692" lon="1.13462">
        <ele>146</ele>
        <time>2014-08-18T11:50:51Z</time>
      </trkpt>
      <trkpt lat="45.0069" lon="1.13468">
        <ele>147</ele>
        <time>2014-08-18T11:50:53Z</time>
      </trkpt>
      <trkpt lat="45.00689" lon="1.13475">
        <ele>147</ele>
        <time>2014-08-18T11:50:56Z</time>
      </trkpt>
      <trkpt lat="45.00685" lon="1.13481">
        <ele>148</ele>
        <time>2014-08-18T11:50:59Z</time>
      </trkpt>
      <trkpt lat="45.00682" lon="1.13486">
        <ele>149</ele>
        <time>2014-08-18T11:51:01Z</time>
      </trkpt>
      <trkpt lat="45.00679" lon="1.13493">
        <ele>150</ele>
        <time>2014-08-18T11:51:04Z</time>
      </trkpt>
      <trkpt lat="45.00677" lon="1.13499">
        <ele>150</ele>
        <time>2014-08-18T11:51:06Z</time>
      </trkpt>
      <trkpt lat="45.00672" lon="1.13508">
        <ele>151</ele>
        <time>2014-08-18T11:51:09Z</time>
      </trkpt>
      <trkpt lat="45.00668" lon="1.13517">
        <ele>151</ele>
        <time>2014-08-18T11:51:12Z</time>
      </trkpt>
      <trkpt lat="45.00664" lon="1.13527">
        <ele>151</ele>
        <time>2014-08-18T11:51:15Z</time>
      </trkpt>
      <trkpt lat="45.00666" lon="1.13539">
        <ele>152</ele>
        <time>2014-08-18T11:51:18Z</time>
      </trkpt>
      <trkpt lat="45.00673" lon="1.13546">
        <ele>153</ele>
        <time>2014-08-18T11:51:21Z</time>
      </trkpt>
      <trkpt lat="45.00679" lon="1.13551">
        <ele>154</ele>
        <time>2014-08-18T11:51:23Z</time>
      </trkpt>
      <trkpt lat="45.00683" lon="1.13557">
        <ele>155</ele>
        <time>2014-08-18T11:51:25Z</time>
      </trkpt>
      <trkpt lat="45.00688" lon="1.13565">
        <ele>156</ele>
        <time>2014-08-18T11:51:28Z</time>
      </trkpt>
      <trkpt lat="45.00689" lon="1.13573">
        <ele>157</ele>
        <time>2014-08-18T11:51:31Z</time>
      </trkpt>
      <trkpt lat="45.00692" lon="1.13582">
        <ele>158</ele>
        <time>2014-08-18T11:51:34Z</time>
      </trkpt>
      <trkpt lat="45.00697" lon="1.13586">
        <ele>160</ele>
        <time>2014-08-18T11:51:37Z</time>
      </trkpt>
      <trkpt lat="45.00702" lon="1.13589">
        <ele>161</ele>
        <time>2014-08-18T11:51:40Z</time>
      </trkpt>
      <trkpt lat="45.00705" lon="1.13591">
        <ele>162</ele>
        <time>2014-08-18T11:51:42Z</time>
      </trkpt>
      <trkpt lat="45.00708" lon="1.13595">
        <ele>163</ele>
        <time>2014-08-18T11:51:44Z</time>
      </trkpt>
      <trkpt lat="45.00712" lon="1.13599">
        <ele>163</ele>
        <time>2014-08-18T11:51:47Z</time>
      </trkpt>
      <trkpt lat="45.00716" lon="1.13602">
        <ele>164</ele>
        <time>2014-08-18T11:51:50Z</time>
      </trkpt>
      <trkpt lat="45.0072" lon="1.13604">
        <ele>165</ele>
        <time>2014-08-18T11:51:53Z</time>
      </trkpt>
      <trkpt lat="45.00726" lon="1.13606">
        <ele>166</ele>
        <time>2014-08-18T11:51:56Z</time>
      </trkpt>
      <trkpt lat="45.00732" lon="1.1361">
        <ele>167</ele>
        <time>2014-08-18T11:51:59Z</time>
      </trkpt>
      <trkpt lat="45.00736" lon="1.13614">
        <ele>167</ele>
        <time>2014-08-18T11:52:01Z</time>
      </trkpt>
      <trkpt lat="45.00741" lon="1.13621">
        <ele>168</ele>
        <time>2014-08-18T11:52:04Z</time>
      </trkpt>
      <trkpt lat="45.00747" lon="1.13628">
        <ele>169</ele>
        <time>2014-08-18T11:52:07Z</time>
      </trkpt>
      <trkpt lat="45.00752" lon="1.13635">
        <ele>170</ele>
        <time>2014-08-18T11:52:10Z</time>
      </trkpt>
      <trkpt lat="45.00758" lon="1.13642">
        <ele>171</ele>
        <time>2014-08-18T11:52:13Z</time>
      </trkpt>
      <trkpt lat="45.00763" lon="1.13647">
        <ele>172</ele>
        <time>2014-08-18T11:52:16Z</time>
      </trkpt>
      <trkpt lat="45.00769" lon="1.13653">
        <ele>173</ele>
        <time>2014-08-18T11:52:19Z</time>
      </trkpt>
      <trkpt lat="45.00772" lon="1.13657">
        <ele>174</ele>
        <time>2014-08-18T11:52:21Z</time>
      </trkpt>
      <trkpt lat="45.00777" lon="1.13664">
        <ele>175</ele>
        <time>2014-08-18T11:52:24Z</time>
      </trkpt>
      <trkpt lat="45.00782" lon="1.13671">
        <ele>175</ele>
        <time>2014-08-18T11:52:27Z</time>
      </trkpt>
      <trkpt lat="45.00787" lon="1.13676">
        <ele>175</ele>
        <time>2014-08-18T11:52:30Z</time>
      </trkpt>
      <trkpt lat="45.0079" lon="1.13679">
        <ele>175</ele>
        <time>2014-08-18T11:52:32Z</time>
      </trkpt>
      <trkpt lat="45.00792" lon="1.13681">
        <ele>175</ele>
        <time>2014-08-18T11:52:34Z</time>
      </trkpt>
      <trkpt lat="45.00795" lon="1.13683">
        <ele>176</ele>
        <time>2014-08-18T11:52:37Z</time>
      </trkpt>
      <trkpt lat="45.00797" lon="1.13685">
        <ele>176</ele>
        <time>2014-08-18T11:52:40Z</time>
      </trkpt>
      <trkpt lat="45.00797" lon="1.13684">
        <ele>176</ele>
        <time>2014-08-18T11:52:43Z</time>
      </trkpt>
      <trkpt lat="45.00798" lon="1.13684">
        <ele>176</ele>
        <time>2014-08-18T11:52:45Z</time>
      </trkpt>
      <trkpt lat="45.00798" lon="1.13685">
        <ele>177</ele>
        <time>2014-08-18T11:52:48Z</time>
      </trkpt>
      <trkpt lat="45.008" lon="1.13684">
        <ele>176</ele>
        <time>2014-08-18T11:52:50Z</time>
      </trkpt>
      <trkpt lat="45.00799" lon="1.13689">
        <ele>177</ele>
        <time>2014-08-18T11:52:52Z</time>
      </trkpt>
      <trkpt lat="45.00797" lon="1.13695">
        <ele>177</ele>
        <time>2014-08-18T11:52:54Z</time>
      </trkpt>
      <trkpt lat="45.00797" lon="1.13709">
        <ele>176</ele>
        <time>2014-08-18T11:52:57Z</time>
      </trkpt>
      <trkpt lat="45.00797" lon="1.1372">
        <ele>176</ele>
        <time>2014-08-18T11:52:59Z</time>
      </trkpt>
      <trkpt lat="45.00796" lon="1.1374">
        <ele>176</ele>
        <time>2014-08-18T11:53:02Z</time>
      </trkpt>
      <trkpt lat="45.00796" lon="1.13765">
        <ele>176</ele>
        <time>2014-08-18T11:53:05Z</time>
      </trkpt>
      <trkpt lat="45.00795" lon="1.13783">
        <ele>176</ele>
        <time>2014-08-18T11:53:07Z</time>
      </trkpt>
      <trkpt lat="45.00795" lon="1.138">
        <ele>175</ele>
        <time>2014-08-18T11:53:09Z</time>
      </trkpt>
      <trkpt lat="45.00795" lon="1.13819">
        <ele>175</ele>
        <time>2014-08-18T11:53:11Z</time>
      </trkpt>
      <trkpt lat="45.00795" lon="1.13841">
        <ele>174</ele>
        <time>2014-08-18T11:53:13Z</time>
      </trkpt>
      <trkpt lat="45.00795" lon="1.13863">
        <ele>173</ele>
        <time>2014-08-18T11:53:15Z</time>
      </trkpt>
      <trkpt lat="45.00803" lon="1.13889">
        <ele>172</ele>
        <time>2014-08-18T11:53:18Z</time>
      </trkpt>
      <trkpt lat="45.00814" lon="1.13897">
        <ele>171</ele>
        <time>2014-08-18T11:53:20Z</time>
      </trkpt>
      <trkpt lat="45.00823" lon="1.13901">
        <ele>171</ele>
        <time>2014-08-18T11:53:22Z</time>
      </trkpt>
      <trkpt lat="45.00831" lon="1.13904">
        <ele>171</ele>
        <time>2014-08-18T11:53:24Z</time>
      </trkpt>
      <trkpt lat="45.00839" lon="1.13907">
        <ele>172</ele>
        <time>2014-08-18T11:53:26Z</time>
      </trkpt>
      <trkpt lat="45.00848" lon="1.13909">
        <ele>172</ele>
        <time>2014-08-18T11:53:28Z</time>
      </trkpt>
      <trkpt lat="45.00857" lon="1.13911">
        <ele>172</ele>
        <time>2014-08-18T11:53:30Z</time>
      </trkpt>
      <trkpt lat="45.00868" lon="1.13915">
        <ele>171</ele>
        <time>2014-08-18T11:53:32Z</time>
      </trkpt>
      <trkpt lat="45.00882" lon="1.13919">
        <ele>170</ele>
        <time>2014-08-18T11:53:34Z</time>
      </trkpt>
      <trkpt lat="45.00898" lon="1.13924">
        <ele>169</ele>
        <time>2014-08-18T11:53:36Z</time>
      </trkpt>
      <trkpt lat="45.00913" lon="1.13928">
        <ele>167</ele>
        <time>2014-08-18T11:53:38Z</time>
      </trkpt>
      <trkpt lat="45.00926" lon="1.13932">
        <ele>164</ele>
        <time>2014-08-18T11:53:40Z</time>
      </trkpt>
      <trkpt lat="45.00937" lon="1.13946">
        <ele>162</ele>
        <time>2014-08-18T11:53:43Z</time>
      </trkpt>
      <trkpt lat="45.00936" lon="1.13966">
        <ele>160</ele>
        <time>2014-08-18T11:53:46Z</time>
      </trkpt>
      <trkpt lat="45.00932" lon="1.13977">
        <ele>159</ele>
        <time>2014-08-18T11:53:48Z</time>
      </trkpt>
      <trkpt lat="45.00926" lon="1.13996">
        <ele>159</ele>
        <time>2014-08-18T11:53:51Z</time>
      </trkpt>
      <trkpt lat="45.00918" lon="1.14017">
        <ele>160</ele>
        <time>2014-08-18T11:53:54Z</time>
      </trkpt>
      <trkpt lat="45.0091" lon="1.14037">
        <ele>161</ele>
        <time>2014-08-18T11:53:57Z</time>
      </trkpt>
      <trkpt lat="45.00905" lon="1.1405">
        <ele>162</ele>
        <time>2014-08-18T11:53:59Z</time>
      </trkpt>
      <trkpt lat="45.00899" lon="1.14063">
        <ele>163</ele>
        <time>2014-08-18T11:54:01Z</time>
      </trkpt>
      <trkpt lat="45.00894" lon="1.14076">
        <ele>164</ele>
        <time>2014-08-18T11:54:03Z</time>
      </trkpt>
      <trkpt lat="45.0089" lon="1.14089">
        <ele>164</ele>
        <time>2014-08-18T11:54:05Z</time>
      </trkpt>
      <trkpt lat="45.00884" lon="1.14108">
        <ele>165</ele>
        <time>2014-08-18T11:54:08Z</time>
      </trkpt>
      <trkpt lat="45.0088" lon="1.14126">
        <ele>166</ele>
        <time>2014-08-18T11:54:11Z</time>
      </trkpt>
      <trkpt lat="45.00876" lon="1.14139">
        <ele>166</ele>
        <time>2014-08-18T11:54:13Z</time>
      </trkpt>
      <trkpt lat="45.00872" lon="1.14162">
        <ele>167</ele>
        <time>2014-08-18T11:54:16Z</time>
      </trkpt>
      <trkpt lat="45.00867" lon="1.14184">
        <ele>168</ele>
        <time>2014-08-18T11:54:19Z</time>
      </trkpt>
      <trkpt lat="45.00865" lon="1.14197">
        <ele>169</ele>
        <time>2014-08-18T11:54:21Z</time>
      </trkpt>
      <trkpt lat="45.00862" lon="1.14209">
        <ele>169</ele>
        <time>2014-08-18T11:54:23Z</time>
      </trkpt>
      <trkpt lat="45.00859" lon="1.14226">
        <ele>170</ele>
        <time>2014-08-18T11:54:26Z</time>
      </trkpt>
      <trkpt lat="45.00856" lon="1.14238">
        <ele>170</ele>
        <time>2014-08-18T11:54:28Z</time>
      </trkpt>
      <trkpt lat="45.00853" lon="1.14255">
        <ele>171</ele>
        <time>2014-08-18T11:54:31Z</time>
      </trkpt>
      <trkpt lat="45.0085" lon="1.14271">
        <ele>171</ele>
        <time>2014-08-18T11:54:34Z</time>
      </trkpt>
      <trkpt lat="45.00851" lon="1.1428">
        <ele>172</ele>
        <time>2014-08-18T11:54:36Z</time>
      </trkpt>
      <trkpt lat="45.00855" lon="1.14288">
        <ele>172</ele>
        <time>2014-08-18T11:54:38Z</time>
      </trkpt>
      <trkpt lat="45.00867" lon="1.14294">
        <ele>172</ele>
        <time>2014-08-18T11:54:41Z</time>
      </trkpt>
      <trkpt lat="45.00882" lon="1.14301">
        <ele>173</ele>
        <time>2014-08-18T11:54:44Z</time>
      </trkpt>
      <trkpt lat="45.00894" lon="1.14308">
        <ele>173</ele>
        <time>2014-08-18T11:54:46Z</time>
      </trkpt>
      <trkpt lat="45.00906" lon="1.14315">
        <ele>173</ele>
        <time>2014-08-18T11:54:48Z</time>
      </trkpt>
      <trkpt lat="45.00923" lon="1.14324">
        <ele>172</ele>
        <time>2014-08-18T11:54:51Z</time>
      </trkpt>
      <trkpt lat="45.00939" lon="1.1433">
        <ele>172</ele>
        <time>2014-08-18T11:54:54Z</time>
      </trkpt>
      <trkpt lat="45.00956" lon="1.14332">
        <ele>172</ele>
        <time>2014-08-18T11:54:57Z</time>
      </trkpt>
      <trkpt lat="45.00968" lon="1.14331">
        <ele>172</ele>
        <time>2014-08-18T11:54:59Z</time>
      </trkpt>
      <trkpt lat="45.00987" lon="1.14323">
        <ele>172</ele>
        <time>2014-08-18T11:55:02Z</time>
      </trkpt>
      <trkpt lat="45.01001" lon="1.14314">
        <ele>172</ele>
        <time>2014-08-18T11:55:04Z</time>
      </trkpt>
      <trkpt lat="45.01023" lon="1.14301">
        <ele>171</ele>
        <time>2014-08-18T11:55:07Z</time>
      </trkpt>
      <trkpt lat="45.01037" lon="1.14293">
        <ele>170</ele>
        <time>2014-08-18T11:55:09Z</time>
      </trkpt>
      <trkpt lat="45.01052" lon="1.14284">
        <ele>170</ele>
        <time>2014-08-18T11:55:11Z</time>
      </trkpt>
      <trkpt lat="45.01067" lon="1.14276">
        <ele>169</ele>
        <time>2014-08-18T11:55:13Z</time>
      </trkpt>
      <trkpt lat="45.0108" lon="1.14267">
        <ele>169</ele>
        <time>2014-08-18T11:55:15Z</time>
      </trkpt>
      <trkpt lat="45.01093" lon="1.14257">
        <ele>169</ele>
        <time>2014-08-18T11:55:17Z</time>
      </trkpt>
      <trkpt lat="45.01106" lon="1.14246">
        <ele>168</ele>
        <time>2014-08-18T11:55:19Z</time>
      </trkpt>
      <trkpt lat="45.01126" lon="1.14228">
        <ele>167</ele>
        <time>2014-08-18T11:55:22Z</time>
      </trkpt>
      <trkpt lat="45.0114" lon="1.14216">
        <ele>166</ele>
        <time>2014-08-18T11:55:24Z</time>
      </trkpt>
      <trkpt lat="45.01151" lon="1.14205">
        <ele>165</ele>
        <time>2014-08-18T11:55:26Z</time>
      </trkpt>
      <trkpt lat="45.01158" lon="1.14196">
        <ele>164</ele>
        <time>2014-08-18T11:55:28Z</time>
      </trkpt>
      <trkpt lat="45.01164" lon="1.14193">
        <ele>162</ele>
        <time>2014-08-18T11:55:30Z</time>
      </trkpt>
      <trkpt lat="45.0117" lon="1.14199">
        <ele>161</ele>
        <time>2014-08-18T11:55:32Z</time>
      </trkpt>
      <trkpt lat="45.01176" lon="1.14208">
        <ele>160</ele>
        <time>2014-08-18T11:55:34Z</time>
      </trkpt>
      <trkpt lat="45.01186" lon="1.1422">
        <ele>160</ele>
        <time>2014-08-18T11:55:37Z</time>
      </trkpt>
      <trkpt lat="45.01193" lon="1.14229">
        <ele>159</ele>
        <time>2014-08-18T11:55:39Z</time>
      </trkpt>
      <trkpt lat="45.012" lon="1.14245">
        <ele>158</ele>
        <time>2014-08-18T11:55:42Z</time>
      </trkpt>
      <trkpt lat="45.01196" lon="1.14259">
        <ele>158</ele>
        <time>2014-08-18T11:55:45Z</time>
      </trkpt>
      <trkpt lat="45.01194" lon="1.14268">
        <ele>158</ele>
        <time>2014-08-18T11:55:47Z</time>
      </trkpt>
      <trkpt lat="45.01192" lon="1.14276">
        <ele>158</ele>
        <time>2014-08-18T11:55:49Z</time>
      </trkpt>
      <trkpt lat="45.01193" lon="1.14287">
        <ele>159</ele>
        <time>2014-08-18T11:55:52Z</time>
      </trkpt>
      <trkpt lat="45.01195" lon="1.14296">
        <ele>159</ele>
        <time>2014-08-18T11:55:54Z</time>
      </trkpt>
      <trkpt lat="45.01199" lon="1.14308">
        <ele>158</ele>
        <time>2014-08-18T11:55:56Z</time>
      </trkpt>
      <trkpt lat="45.01201" lon="1.14321">
        <ele>158</ele>
        <time>2014-08-18T11:55:58Z</time>
      </trkpt>
      <trkpt lat="45.01204" lon="1.14338">
        <ele>157</ele>
        <time>2014-08-18T11:56:00Z</time>
      </trkpt>
      <trkpt lat="45.01207" lon="1.14354">
        <ele>155</ele>
        <time>2014-08-18T11:56:02Z</time>
      </trkpt>
      <trkpt lat="45.01214" lon="1.14372">
        <ele>153</ele>
        <time>2014-08-18T11:56:05Z</time>
      </trkpt>
      <trkpt lat="45.01221" lon="1.14371">
        <ele>150</ele>
        <time>2014-08-18T11:56:07Z</time>
      </trkpt>
      <trkpt lat="45.01239" lon="1.14367">
        <ele>148</ele>
        <time>2014-08-18T11:56:10Z</time>
      </trkpt>
      <trkpt lat="45.0125" lon="1.14362">
        <ele>146</ele>
        <time>2014-08-18T11:56:12Z</time>
      </trkpt>
      <trkpt lat="45.01263" lon="1.14354">
        <ele>145</ele>
        <time>2014-08-18T11:56:14Z</time>
      </trkpt>
      <trkpt lat="45.01281" lon="1.14345">
        <ele>142</ele>
        <time>2014-08-18T11:56:17Z</time>
      </trkpt>
      <trkpt lat="45.01303" lon="1.14334">
        <ele>139</ele>
        <time>2014-08-18T11:56:20Z</time>
      </trkpt>
      <trkpt lat="45.01317" lon="1.14328">
        <ele>136</ele>
        <time>2014-08-18T11:56:22Z</time>
      </trkpt>
      <trkpt lat="45.0133" lon="1.14322">
        <ele>133</ele>
        <time>2014-08-18T11:56:24Z</time>
      </trkpt>
      <trkpt lat="45.01342" lon="1.14322">
        <ele>130</ele>
        <time>2014-08-18T11:56:26Z</time>
      </trkpt>
      <trkpt lat="45.01356" lon="1.14326">
        <ele>128</ele>
        <time>2014-08-18T11:56:28Z</time>
      </trkpt>
      <trkpt lat="45.01377" lon="1.14335">
        <ele>125</ele>
        <time>2014-08-18T11:56:31Z</time>
      </trkpt>
      <trkpt lat="45.014" lon="1.14334">
        <ele>124</ele>
        <time>2014-08-18T11:56:34Z</time>
      </trkpt>
      <trkpt lat="45.01417" lon="1.14335">
        <ele>122</ele>
        <time>2014-08-18T11:56:36Z</time>
      </trkpt>
      <trkpt lat="45.01434" lon="1.14338">
        <ele>120</ele>
        <time>2014-08-18T11:56:38Z</time>
      </trkpt>
      <trkpt lat="45.01452" lon="1.14341">
        <ele>119</ele>
        <time>2014-08-18T11:56:40Z</time>
      </trkpt>
      <trkpt lat="45.01468" lon="1.14346">
        <ele>117</ele>
        <time>2014-08-18T11:56:42Z</time>
      </trkpt>
      <trkpt lat="45.01477" lon="1.14353">
        <ele>115</ele>
        <time>2014-08-18T11:56:44Z</time>
      </trkpt>
      <trkpt lat="45.01482" lon="1.14366">
        <ele>113</ele>
        <time>2014-08-18T11:56:46Z</time>
      </trkpt>
      <trkpt lat="45.01492" lon="1.14387">
        <ele>112</ele>
        <time>2014-08-18T11:56:49Z</time>
      </trkpt>
      <trkpt lat="45.01504" lon="1.14394">
        <ele>111</ele>
        <time>2014-08-18T11:56:51Z</time>
      </trkpt>
      <trkpt lat="45.01517" lon="1.14403">
        <ele>109</ele>
        <time>2014-08-18T11:56:53Z</time>
      </trkpt>
      <trkpt lat="45.0153" lon="1.14412">
        <ele>107</ele>
        <time>2014-08-18T11:56:55Z</time>
      </trkpt>
      <trkpt lat="45.01556" lon="1.14413">
        <ele>103</ele>
        <time>2014-08-18T11:56:58Z</time>
      </trkpt>
      <trkpt lat="45.01576" lon="1.14414">
        <ele>100</ele>
        <time>2014-08-18T11:57:00Z</time>
      </trkpt>
      <trkpt lat="45.01608" lon="1.14415">
        <ele>97</ele>
        <time>2014-08-18T11:57:03Z</time>
      </trkpt>
      <trkpt lat="45.01626" lon="1.14414">
        <ele>94</ele>
        <time>2014-08-18T11:57:05Z</time>
      </trkpt>
      <trkpt lat="45.01645" lon="1.14411">
        <ele>91</ele>
        <time>2014-08-18T11:57:07Z</time>
      </trkpt>
      <trkpt lat="45.01666" lon="1.14408">
        <ele>88</ele>
        <time>2014-08-18T11:57:09Z</time>
      </trkpt>
      <trkpt lat="45.01686" lon="1.14402">
        <ele>86</ele>
        <time>2014-08-18T11:57:11Z</time>
      </trkpt>
      <trkpt lat="45.01713" lon="1.1439">
        <ele>83</ele>
        <time>2014-08-18T11:57:14Z</time>
      </trkpt>
      <trkpt lat="45.0173" lon="1.14379">
        <ele>83</ele>
        <time>2014-08-18T11:57:16Z</time>
      </trkpt>
      <trkpt lat="45.01746" lon="1.14367">
        <ele>81</ele>
        <time>2014-08-18T11:57:18Z</time>
      </trkpt>
      <trkpt lat="45.0177" lon="1.1435">
        <ele>81</ele>
        <time>2014-08-18T11:57:21Z</time>
      </trkpt>
      <trkpt lat="45.01788" lon="1.14345">
        <ele>79</ele>
        <time>2014-08-18T11:57:23Z</time>
      </trkpt>
      <trkpt lat="45.01814" lon="1.14347">
        <ele>78</ele>
        <time>2014-08-18T11:57:26Z</time>
      </trkpt>
      <trkpt lat="45.0183" lon="1.14347">
        <ele>78</ele>
        <time>2014-08-18T11:57:28Z</time>
      </trkpt>
      <trkpt lat="45.01852" lon="1.14341">
        <ele>77</ele>
        <time>2014-08-18T11:57:31Z</time>
      </trkpt>
      <trkpt lat="45.01865" lon="1.14331">
        <ele>77</ele>
        <time>2014-08-18T11:57:33Z</time>
      </trkpt>
      <trkpt lat="45.01879" lon="1.14311">
        <ele>77</ele>
        <time>2014-08-18T11:57:36Z</time>
      </trkpt>
      <trkpt lat="45.01888" lon="1.14299">
        <ele>77</ele>
        <time>2014-08-18T11:57:38Z</time>
      </trkpt>
      <trkpt lat="45.01894" lon="1.14286">
        <ele>77</ele>
        <time>2014-08-18T11:57:40Z</time>
      </trkpt>
      <trkpt lat="45.01897" lon="1.14271">
        <ele>77</ele>
        <time>2014-08-18T11:57:42Z</time>
      </trkpt>
      <trkpt lat="45.01897" lon="1.14256">
        <ele>77</ele>
        <time>2014-08-18T11:57:44Z</time>
      </trkpt>
      <trkpt lat="45.01895" lon="1.1424">
        <ele>78</ele>
        <time>2014-08-18T11:57:46Z</time>
      </trkpt>
      <trkpt lat="45.01893" lon="1.14216">
        <ele>78</ele>
        <time>2014-08-18T11:57:49Z</time>
      </trkpt>
      <trkpt lat="45.01891" lon="1.14191">
        <ele>79</ele>
        <time>2014-08-18T11:57:52Z</time>
      </trkpt>
      <trkpt lat="45.01888" lon="1.14177">
        <ele>79</ele>
        <time>2014-08-18T11:57:54Z</time>
      </trkpt>
      <trkpt lat="45.01884" lon="1.14157">
        <ele>81</ele>
        <time>2014-08-18T11:57:57Z</time>
      </trkpt>
      <trkpt lat="45.01879" lon="1.14139">
        <ele>82</ele>
        <time>2014-08-18T11:58:00Z</time>
      </trkpt>
      <trkpt lat="45.01876" lon="1.14123">
        <ele>83</ele>
        <time>2014-08-18T11:58:03Z</time>
      </trkpt>
      <trkpt lat="45.01874" lon="1.14114">
        <ele>83</ele>
        <time>2014-08-18T11:58:05Z</time>
      </trkpt>
      <trkpt lat="45.01872" lon="1.14105">
        <ele>84</ele>
        <time>2014-08-18T11:58:07Z</time>
      </trkpt>
      <trkpt lat="45.01871" lon="1.14095">
        <ele>84</ele>
        <time>2014-08-18T11:58:09Z</time>
      </trkpt>
      <trkpt lat="45.01869" lon="1.14079">
        <ele>85</ele>
        <time>2014-08-18T11:58:12Z</time>
      </trkpt>
      <trkpt lat="45.01868" lon="1.14067">
        <ele>85</ele>
        <time>2014-08-18T11:58:14Z</time>
      </trkpt>
      <trkpt lat="45.01868" lon="1.1405">
        <ele>86</ele>
        <time>2014-08-18T11:58:17Z</time>
      </trkpt>
      <trkpt lat="45.01868" lon="1.14031">
        <ele>87</ele>
        <time>2014-08-18T11:58:20Z</time>
      </trkpt>
      <trkpt lat="45.01869" lon="1.14018">
        <ele>88</ele>
        <time>2014-08-18T11:58:22Z</time>
      </trkpt>
      <trkpt lat="45.01872" lon="1.13999">
        <ele>89</ele>
        <time>2014-08-18T11:58:25Z</time>
      </trkpt>
      <trkpt lat="45.01875" lon="1.13979">
        <ele>90</ele>
        <time>2014-08-18T11:58:28Z</time>
      </trkpt>
      <trkpt lat="45.01877" lon="1.13966">
        <ele>90</ele>
        <time>2014-08-18T11:58:30Z</time>
      </trkpt>
      <trkpt lat="45.01879" lon="1.13953">
        <ele>91</ele>
        <time>2014-08-18T11:58:32Z</time>
      </trkpt>
      <trkpt lat="45.01881" lon="1.13941">
        <ele>92</ele>
        <time>2014-08-18T11:58:34Z</time>
      </trkpt>
      <trkpt lat="45.01884" lon="1.13922">
        <ele>93</ele>
        <time>2014-08-18T11:58:37Z</time>
      </trkpt>
      <trkpt lat="45.01887" lon="1.1391">
        <ele>94</ele>
        <time>2014-08-18T11:58:39Z</time>
      </trkpt>
      <trkpt lat="45.01889" lon="1.13898">
        <ele>94</ele>
        <time>2014-08-18T11:58:41Z</time>
      </trkpt>
      <trkpt lat="45.01892" lon="1.13881">
        <ele>95</ele>
        <time>2014-08-18T11:58:44Z</time>
      </trkpt>
      <trkpt lat="45.01895" lon="1.1387">
        <ele>96</ele>
        <time>2014-08-18T11:58:46Z</time>
      </trkpt>
      <trkpt lat="45.01898" lon="1.13858">
        <ele>97</ele>
        <time>2014-08-18T11:58:48Z</time>
      </trkpt>
      <trkpt lat="45.01901" lon="1.13846">
        <ele>97</ele>
        <time>2014-08-18T11:58:50Z</time>
      </trkpt>
      <trkpt lat="45.01905" lon="1.13834">
        <ele>98</ele>
        <time>2014-08-18T11:58:52Z</time>
      </trkpt>
      <trkpt lat="45.01909" lon="1.13823">
        <ele>98</ele>
        <time>2014-08-18T11:58:54Z</time>
      </trkpt>
      <trkpt lat="45.01914" lon="1.13812">
        <ele>99</ele>
        <time>2014-08-18T11:58:56Z</time>
      </trkpt>
      <trkpt lat="45.01921" lon="1.13796">
        <ele>100</ele>
        <time>2014-08-18T11:58:59Z</time>
      </trkpt>
      <trkpt lat="45.01929" lon="1.13781">
        <ele>101</ele>
        <time>2014-08-18T11:59:02Z</time>
      </trkpt>
      <trkpt lat="45.01936" lon="1.13769">
        <ele>102</ele>
        <time>2014-08-18T11:59:05Z</time>
      </trkpt>
      <trkpt lat="45.0194" lon="1.13762">
        <ele>102</ele>
        <time>2014-08-18T11:59:07Z</time>
      </trkpt>
      <trkpt lat="45.01945" lon="1.13755">
        <ele>103</ele>
        <time>2014-08-18T11:59:09Z</time>
      </trkpt>
      <trkpt lat="45.01952" lon="1.13743">
        <ele>103</ele>
        <time>2014-08-18T11:59:12Z</time>
      </trkpt>
      <trkpt lat="45.01957" lon="1.13736">
        <ele>104</ele>
        <time>2014-08-18T11:59:14Z</time>
      </trkpt>
      <trkpt lat="45.01962" lon="1.13729">
        <ele>104</ele>
        <time>2014-08-18T11:59:16Z</time>
      </trkpt>
      <trkpt lat="45.01967" lon="1.13722">
        <ele>105</ele>
        <time>2014-08-18T11:59:18Z</time>
      </trkpt>
      <trkpt lat="45.01974" lon="1.13711">
        <ele>106</ele>
        <time>2014-08-18T11:59:21Z</time>
      </trkpt>
      <trkpt lat="45.01979" lon="1.13705">
        <ele>106</ele>
        <time>2014-08-18T11:59:23Z</time>
      </trkpt>
      <trkpt lat="45.01985" lon="1.137">
        <ele>107</ele>
        <time>2014-08-18T11:59:25Z</time>
      </trkpt>
      <trkpt lat="45.01994" lon="1.13695">
        <ele>108</ele>
        <time>2014-08-18T11:59:28Z</time>
      </trkpt>
      <trkpt lat="45.02" lon="1.13693">
        <ele>108</ele>
        <time>2014-08-18T11:59:30Z</time>
      </trkpt>
      <trkpt lat="45.0201" lon="1.13694">
        <ele>109</ele>
        <time>2014-08-18T11:59:33Z</time>
      </trkpt>
      <trkpt lat="45.02017" lon="1.13698">
        <ele>109</ele>
        <time>2014-08-18T11:59:35Z</time>
      </trkpt>
      <trkpt lat="45.02024" lon="1.13703">
        <ele>109</ele>
        <time>2014-08-18T11:59:37Z</time>
      </trkpt>
      <trkpt lat="45.02031" lon="1.13717">
        <ele>110</ele>
        <time>2014-08-18T11:59:40Z</time>
      </trkpt>
      <trkpt lat="45.02031" lon="1.13736">
        <ele>110</ele>
        <time>2014-08-18T11:59:43Z</time>
      </trkpt>
      <trkpt lat="45.02029" lon="1.13747">
        <ele>110</ele>
        <time>2014-08-18T11:59:45Z</time>
      </trkpt>
      <trkpt lat="45.02025" lon="1.13752">
        <ele>110</ele>
        <time>2014-08-18T11:59:47Z</time>
      </trkpt>
      <trkpt lat="45.02018" lon="1.13757">
        <ele>111</ele>
        <time>2014-08-18T11:59:50Z</time>
      </trkpt>
      <trkpt lat="45.02015" lon="1.1376">
        <ele>111</ele>
        <time>2014-08-18T11:59:52Z</time>
      </trkpt>
      <trkpt lat="45.02016" lon="1.13765">
        <ele>112</ele>
        <time>2014-08-18T11:59:55Z</time>
      </trkpt>
      <trkpt lat="45.02024" lon="1.13769">
        <ele>112</ele>
        <time>2014-08-18T11:59:58Z</time>
      </trkpt>
      <trkpt lat="45.02029" lon="1.13776">
        <ele>111</ele>
        <time>2014-08-18T12:00:00Z</time>
      </trkpt>
      <trkpt lat="45.02031" lon="1.13791">
        <ele>111</ele>
        <time>2014-08-18T12:00:03Z</time>
      </trkpt>
      <trkpt lat="45.02032" lon="1.13804">
        <ele>111</ele>
        <time>2014-08-18T12:00:05Z</time>
      </trkpt>
      <trkpt lat="45.02034" lon="1.13817">
        <ele>112</ele>
        <time>2014-08-18T12:00:07Z</time>
      </trkpt>
      <trkpt lat="45.02036" lon="1.13836">
        <ele>112</ele>
        <time>2014-08-18T12:00:10Z</time>
      </trkpt>
      <trkpt lat="45.02037" lon="1.13846">
        <ele>112</ele>
        <time>2014-08-18T12:00:12Z</time>
      </trkpt>
      <trkpt lat="45.02039" lon="1.13858">
        <ele>113</ele>
        <time>2014-08-18T12:00:15Z</time>
      </trkpt>
      <trkpt lat="45.02039" lon="1.13863">
        <ele>112</ele>
        <time>2014-08-18T12:00:17Z</time>
      </trkpt>
      <trkpt lat="45.0204" lon="1.13859">
        <ele>112</ele>
        <time>2014-08-18T12:00:20Z</time>
      </trkpt>
      <trkpt lat="45.02038" lon="1.13872">
        <ele>112</ele>
        <time>2014-08-18T12:00:23Z</time>
      </trkpt>
      <trkpt lat="45.02038" lon="1.13883">
        <ele>112</ele>
        <time>2014-08-18T12:00:25Z</time>
      </trkpt>
      <trkpt lat="45.02039" lon="1.13894">
        <ele>113</ele>
        <time>2014-08-18T12:00:27Z</time>
      </trkpt>
      <trkpt lat="45.02039" lon="1.13906">
        <ele>114</ele>
        <time>2014-08-18T12:00:29Z</time>
      </trkpt>
      <trkpt lat="45.02039" lon="1.13917">
        <ele>114</ele>
        <time>2014-08-18T12:00:31Z</time>
      </trkpt>
      <trkpt lat="45.0204" lon="1.13936">
        <ele>114</ele>
        <time>2014-08-18T12:00:34Z</time>
      </trkpt>
      <trkpt lat="45.02041" lon="1.1395">
        <ele>114</ele>
        <time>2014-08-18T12:00:36Z</time>
      </trkpt>
      <trkpt lat="45.02042" lon="1.13969">
        <ele>114</ele>
        <time>2014-08-18T12:00:39Z</time>
      </trkpt>
      <trkpt lat="45.02048" lon="1.13982">
        <ele>114</ele>
        <time>2014-08-18T12:00:41Z</time>
      </trkpt>
      <trkpt lat="45.02053" lon="1.13994">
        <ele>114</ele>
        <time>2014-08-18T12:00:43Z</time>
      </trkpt>
      <trkpt lat="45.02064" lon="1.14008">
        <ele>114</ele>
        <time>2014-08-18T12:00:46Z</time>
      </trkpt>
      <trkpt lat="45.02077" lon="1.1402">
        <ele>114</ele>
        <time>2014-08-18T12:00:49Z</time>
      </trkpt>
      <trkpt lat="45.02095" lon="1.1403">
        <ele>113</ele>
        <time>2014-08-18T12:00:52Z</time>
      </trkpt>
      <trkpt lat="45.02114" lon="1.14039">
        <ele>112</ele>
        <time>2014-08-18T12:00:55Z</time>
      </trkpt>
      <trkpt lat="45.02129" lon="1.14045">
        <ele>112</ele>
        <time>2014-08-18T12:00:57Z</time>
      </trkpt>
      <trkpt lat="45.02144" lon="1.14051">
        <ele>111</ele>
        <time>2014-08-18T12:00:59Z</time>
      </trkpt>
      <trkpt lat="45.02169" lon="1.14062">
        <ele>110</ele>
        <time>2014-08-18T12:01:02Z</time>
      </trkpt>
      <trkpt lat="45.02185" lon="1.14074">
        <ele>109</ele>
        <time>2014-08-18T12:01:04Z</time>
      </trkpt>
      <trkpt lat="45.02201" lon="1.14091">
        <ele>108</ele>
        <time>2014-08-18T12:01:06Z</time>
      </trkpt>
      <trkpt lat="45.02215" lon="1.14112">
        <ele>107</ele>
        <time>2014-08-18T12:01:08Z</time>
      </trkpt>
      <trkpt lat="45.02232" lon="1.14146">
        <ele>105</ele>
        <time>2014-08-18T12:01:11Z</time>
      </trkpt>
      <trkpt lat="45.02247" lon="1.14178">
        <ele>104</ele>
        <time>2014-08-18T12:01:14Z</time>
      </trkpt>
      <trkpt lat="45.02256" lon="1.14198">
        <ele>103</ele>
        <time>2014-08-18T12:01:16Z</time>
      </trkpt>
      <trkpt lat="45.02269" lon="1.14223">
        <ele>102</ele>
        <time>2014-08-18T12:01:19Z</time>
      </trkpt>
      <trkpt lat="45.02273" lon="1.14236">
        <ele>101</ele>
        <time>2014-08-18T12:01:21Z</time>
      </trkpt>
      <trkpt lat="45.02272" lon="1.14244">
        <ele>101</ele>
        <time>2014-08-18T12:01:23Z</time>
      </trkpt>
      <trkpt lat="45.0227" lon="1.14246">
        <ele>101</ele>
        <time>2014-08-18T12:01:25Z</time>
      </trkpt>
      <trkpt lat="45.0227" lon="1.14246">
        <ele>101</ele>
        <time>2014-08-18T12:01:27Z</time>
      </trkpt>
      <trkpt lat="45.0227" lon="1.14247">
        <ele>101</ele>
        <time>2014-08-18T12:01:29Z</time>
      </trkpt>
      <trkpt lat="45.02269" lon="1.14248">
        <ele>101</ele>
        <time>2014-08-18T12:01:32Z</time>
      </trkpt>
      <trkpt lat="45.0227" lon="1.14249">
        <ele>101</ele>
        <time>2014-08-18T12:01:34Z</time>
      </trkpt>
      <trkpt lat="45.0227" lon="1.14249">
        <ele>101</ele>
        <time>2014-08-18T12:01:37Z</time>
      </trkpt>
      <trkpt lat="45.0227" lon="1.14249">
        <ele>101</ele>
        <time>2014-08-18T12:01:39Z</time>
      </trkpt>
      <trkpt lat="45.02271" lon="1.14248">
        <ele>101</ele>
        <time>2014-08-18T12:01:41Z</time>
      </trkpt>
      <trkpt lat="45.02271" lon="1.14249">
        <ele>101</ele>
        <time>2014-08-18T12:01:44Z</time>
      </trkpt>
      <trkpt lat="45.02269" lon="1.14253">
        <ele>101</ele>
        <time>2014-08-18T12:01:47Z</time>
      </trkpt>
      <trkpt lat="45.02266" lon="1.14255">
        <ele>101</ele>
        <time>2014-08-18T12:01:49Z</time>
      </trkpt>
      <trkpt lat="45.02262" lon="1.14258">
        <ele>102</ele>
        <time>2014-08-18T12:01:51Z</time>
      </trkpt>
      <trkpt lat="45.02257" lon="1.14261">
        <ele>102</ele>
        <time>2014-08-18T12:01:53Z</time>
      </trkpt>
      <trkpt lat="45.02251" lon="1.14264">
        <ele>102</ele>
        <time>2014-08-18T12:01:55Z</time>
      </trkpt>
      <trkpt lat="45.02245" lon="1.14267">
        <ele>103</ele>
        <time>2014-08-18T12:01:57Z</time>
      </trkpt>
      <trkpt lat="45.02238" lon="1.1427">
        <ele>103</ele>
        <time>2014-08-18T12:01:59Z</time>
      </trkpt>
      <trkpt lat="45.02229" lon="1.14275">
        <ele>104</ele>
        <time>2014-08-18T12:02:02Z</time>
      </trkpt>
      <trkpt lat="45.02219" lon="1.14279">
        <ele>105</ele>
        <time>2014-08-18T12:02:05Z</time>
      </trkpt>
      <trkpt lat="45.02213" lon="1.14283">
        <ele>105</ele>
        <time>2014-08-18T12:02:07Z</time>
      </trkpt>
      <trkpt lat="45.02206" lon="1.14286">
        <ele>106</ele>
        <time>2014-08-18T12:02:09Z</time>
      </trkpt>
      <trkpt lat="45.02197" lon="1.14294">
        <ele>106</ele>
        <time>2014-08-18T12:02:12Z</time>
      </trkpt>
      <trkpt lat="45.0219" lon="1.143">
        <ele>107</ele>
        <time>2014-08-18T12:02:14Z</time>
      </trkpt>
      <trkpt lat="45.02185" lon="1.14306">
        <ele>108</ele>
        <time>2014-08-18T12:02:16Z</time>
      </trkpt>
      <trkpt lat="45.02176" lon="1.14316">
        <ele>108</ele>
        <time>2014-08-18T12:02:19Z</time>
      </trkpt>
      <trkpt lat="45.02168" lon="1.14325">
        <ele>109</ele>
        <time>2014-08-18T12:02:22Z</time>
      </trkpt>
      <trkpt lat="45.02163" lon="1.14331">
        <ele>109</ele>
        <time>2014-08-18T12:02:24Z</time>
      </trkpt>
      <trkpt lat="45.02156" lon="1.14339">
        <ele>109</ele>
        <time>2014-08-18T12:02:27Z</time>
      </trkpt>
      <trkpt lat="45.02152" lon="1.14342">
        <ele>110</ele>
        <time>2014-08-18T12:02:29Z</time>
      </trkpt>
      <trkpt lat="45.02148" lon="1.14342">
        <ele>110</ele>
        <time>2014-08-18T12:02:31Z</time>
      </trkpt>
      <trkpt lat="45.02143" lon="1.1434">
        <ele>111</ele>
        <time>2014-08-18T12:02:34Z</time>
      </trkpt>
      <trkpt lat="45.02143" lon="1.14339">
        <ele>111</ele>
        <time>2014-08-18T12:02:35Z</time>
      </trkpt>
    </trkseg>
  </trk>
</gpx>